<?xml version='1.0' encoding='UTF-8'?><gpx version="1.1" creator="JPX - https://github.com/jenetics/jpx" xmlns="http://www.topografix.com/GPX/1/1"><trk><trkseg><trkpt lat="38.0943319" lon="13.429945"><ele>21.0</ele><time>2026-05-01T07:21:26.788Z</time></trkpt><trkpt lat="38.0942496" lon="13.4299844"><ele>21.0</ele><time>2026-05-01T07:21:27.788Z</time></trkpt><trkpt lat="38.0941575" lon="13.4300288"><ele>21.0</ele><time>2026-05-01T07:21:28.787Z</time></trkpt><trkpt lat="38.0940454" lon="13.43008"><ele>21.0</ele><time>2026-05-01T07:21:29.787Z</time></trkpt><trkpt lat="38.0939391" lon="13.4301358"><ele>21.0</ele><time>2026-05-01T07:21:30.787Z</time></trkpt><trkpt lat="38.0938326" lon="13.4301857"><ele>20.8</ele><time>2026-05-01T07:21:31.788Z</time></trkpt><trkpt lat="38.0937313" lon="13.4302359"><ele>20.6</ele><time>2026-05-01T07:21:32.788Z</time></trkpt><trkpt lat="38.093631" lon="13.4302809"><ele>20.4</ele><time>2026-05-01T07:21:33.787Z</time></trkpt><trkpt lat="38.0935354" lon="13.4303266"><ele>20.2</ele><time>2026-05-01T07:21:34.788Z</time></trkpt><trkpt lat="38.0934438" lon="13.4303648"><ele>20.0</ele><time>2026-05-01T07:21:35.787Z</time></trkpt><trkpt lat="38.0933611" lon="13.4304061"><ele>20.0</ele><time>2026-05-01T07:21:36.788Z</time></trkpt><trkpt lat="38.0932798" lon="13.4304528"><ele>20.0</ele><time>2026-05-01T07:21:37.787Z</time></trkpt><trkpt lat="38.0931956" lon="13.4304918"><ele>20.0</ele><time>2026-05-01T07:21:38.787Z</time></trkpt><trkpt lat="38.0931177" lon="13.4305291"><ele>20.0</ele><time>2026-05-01T07:21:39.787Z</time></trkpt><trkpt lat="38.0930523" lon="13.430563"><ele>20.0</ele><time>2026-05-01T07:21:40.787Z</time></trkpt><trkpt lat="38.0929849" lon="13.4305979"><ele>20.0</ele><time>2026-05-01T07:21:41.787Z</time></trkpt><trkpt lat="38.0929127" lon="13.430639"><ele>20.8</ele><time>2026-05-01T07:21:42.788Z</time></trkpt><trkpt lat="38.0928353" lon="13.4306853"><ele>21.6</ele><time>2026-05-01T07:21:43.787Z</time></trkpt><trkpt lat="38.0927603" lon="13.4307374"><ele>22.4</ele><time>2026-05-01T07:21:44.788Z</time></trkpt><trkpt lat="38.0926685" lon="13.4308043"><ele>23.2</ele><time>2026-05-01T07:21:45.788Z</time></trkpt><trkpt lat="38.0925684" lon="13.4308747"><ele>24.0</ele><time>2026-05-01T07:21:46.787Z</time></trkpt><trkpt lat="38.0924767" lon="13.4309277"><ele>24.799999999999997</ele><time>2026-05-01T07:21:47.788Z</time></trkpt><trkpt lat="38.0924009" lon="13.430978"><ele>25.599999999999998</ele><time>2026-05-01T07:21:48.788Z</time></trkpt><trkpt lat="38.0923447" lon="13.4310227"><ele>26.4</ele><time>2026-05-01T07:21:49.787Z</time></trkpt><trkpt lat="38.0922473" lon="13.431089"><ele>27.2</ele><time>2026-05-01T07:21:51.788Z</time></trkpt><trkpt lat="38.0921552" lon="13.4311714"><ele>28.0</ele><time>2026-05-01T07:21:53.788Z</time></trkpt><trkpt lat="38.0920599" lon="13.4312683"><ele>27.599999999999998</ele><time>2026-05-01T07:21:55.787Z</time></trkpt><trkpt lat="38.0919995" lon="13.4313221"><ele>27.199999999999996</ele><time>2026-05-01T07:21:56.787Z</time></trkpt><trkpt lat="38.0919249" lon="13.4313844"><ele>26.8</ele><time>2026-05-01T07:21:57.787Z</time></trkpt><trkpt lat="38.0918307" lon="13.4314641"><ele>26.4</ele><time>2026-05-01T07:21:58.787Z</time></trkpt><trkpt lat="38.0917277" lon="13.4315439"><ele>26.0</ele><time>2026-05-01T07:21:59.787Z</time></trkpt><trkpt lat="38.0916193" lon="13.4316177"><ele>27.5</ele><time>2026-05-01T07:22:00.787Z</time></trkpt><trkpt lat="38.0915003" lon="13.4316986"><ele>29.0</ele><time>2026-05-01T07:22:01.787Z</time></trkpt><trkpt lat="38.0913701" lon="13.4317865"><ele>30.5</ele><time>2026-05-01T07:22:02.788Z</time></trkpt><trkpt lat="38.0912377" lon="13.4318699"><ele>32.0</ele><time>2026-05-01T07:22:03.787Z</time></trkpt><trkpt lat="38.0911041" lon="13.4319504"><ele>32.0</ele><time>2026-05-01T07:22:04.787Z</time></trkpt><trkpt lat="38.0909681" lon="13.4320295"><ele>32.0</ele><time>2026-05-01T07:22:05.787Z</time></trkpt><trkpt lat="38.0908318" lon="13.4321044"><ele>32.0</ele><time>2026-05-01T07:22:06.787Z</time></trkpt><trkpt lat="38.0906999" lon="13.4321792"><ele>32.0</ele><time>2026-05-01T07:22:07.787Z</time></trkpt><trkpt lat="38.0905681" lon="13.4322525"><ele>31.75</ele><time>2026-05-01T07:22:08.788Z</time></trkpt><trkpt lat="38.0904374" lon="13.4323195"><ele>31.5</ele><time>2026-05-01T07:22:09.788Z</time></trkpt><trkpt lat="38.0903064" lon="13.4323838"><ele>31.25</ele><time>2026-05-01T07:22:10.788Z</time></trkpt><trkpt lat="38.0901656" lon="13.4324375"><ele>31.0</ele><time>2026-05-01T07:22:11.787Z</time></trkpt><trkpt lat="38.0900168" lon="13.4324768"><ele>31.333333333333336</ele><time>2026-05-01T07:22:12.787Z</time></trkpt><trkpt lat="38.0898561" lon="13.4324995"><ele>31.666666666666664</ele><time>2026-05-01T07:22:13.787Z</time></trkpt><trkpt lat="38.0896846" lon="13.432529"><ele>32.0</ele><time>2026-05-01T07:22:14.788Z</time></trkpt><trkpt lat="38.0895039" lon="13.4325645"><ele>32.0</ele><time>2026-05-01T07:22:15.787Z</time></trkpt><trkpt lat="38.0893179" lon="13.4326043"><ele>32.0</ele><time>2026-05-01T07:22:16.787Z</time></trkpt><trkpt lat="38.0891343" lon="13.4326461"><ele>32.0</ele><time>2026-05-01T07:22:17.787Z</time></trkpt><trkpt lat="38.0889499" lon="13.4326893"><ele>33.33333333333333</ele><time>2026-05-01T07:22:18.787Z</time></trkpt><trkpt lat="38.0887598" lon="13.4327363"><ele>34.666666666666664</ele><time>2026-05-01T07:22:19.787Z</time></trkpt><trkpt lat="38.0885734" lon="13.4327838"><ele>36.0</ele><time>2026-05-01T07:22:20.787Z</time></trkpt><trkpt lat="38.0883864" lon="13.432831"><ele>36.666666666666664</ele><time>2026-05-01T07:22:21.787Z</time></trkpt><trkpt lat="38.0881942" lon="13.4328742"><ele>37.33333333333333</ele><time>2026-05-01T07:22:22.787Z</time></trkpt><trkpt lat="38.0880062" lon="13.4329115"><ele>38.0</ele><time>2026-05-01T07:22:23.787Z</time></trkpt><trkpt lat="38.0878199" lon="13.4329577"><ele>37.666666666666664</ele><time>2026-05-01T07:22:24.787Z</time></trkpt><trkpt lat="38.087633" lon="13.4330067"><ele>37.333333333333336</ele><time>2026-05-01T07:22:25.788Z</time></trkpt><trkpt lat="38.0874444" lon="13.4330432"><ele>37.0</ele><time>2026-05-01T07:22:26.787Z</time></trkpt><trkpt lat="38.0872567" lon="13.4330782"><ele>37.0</ele><time>2026-05-01T07:22:27.787Z</time></trkpt><trkpt lat="38.0870679" lon="13.4331104"><ele>37.0</ele><time>2026-05-01T07:22:28.787Z</time></trkpt><trkpt lat="38.0868788" lon="13.4331462"><ele>37.0</ele><time>2026-05-01T07:22:29.787Z</time></trkpt><trkpt lat="38.0866913" lon="13.4331816"><ele>37.66666666666667</ele><time>2026-05-01T07:22:30.788Z</time></trkpt><trkpt lat="38.0865094" lon="13.4332283"><ele>38.333333333333336</ele><time>2026-05-01T07:22:31.788Z</time></trkpt><trkpt lat="38.0863269" lon="13.4332682"><ele>39.0</ele><time>2026-05-01T07:22:32.787Z</time></trkpt><trkpt lat="38.086151" lon="13.4333099"><ele>39.0</ele><time>2026-05-01T07:22:33.787Z</time></trkpt><trkpt lat="38.0859859" lon="13.4333455"><ele>39.0</ele><time>2026-05-01T07:22:34.787Z</time></trkpt><trkpt lat="38.0858316" lon="13.4333825"><ele>39.0</ele><time>2026-05-01T07:22:35.787Z</time></trkpt><trkpt lat="38.085686" lon="13.433419"><ele>39.666666666666664</ele><time>2026-05-01T07:22:36.788Z</time></trkpt><trkpt lat="38.0855374" lon="13.4334626"><ele>40.33333333333333</ele><time>2026-05-01T07:22:37.787Z</time></trkpt><trkpt lat="38.0853847" lon="13.433502"><ele>41.0</ele><time>2026-05-01T07:22:38.788Z</time></trkpt><trkpt lat="38.0852305" lon="13.433538"><ele>41.0</ele><time>2026-05-01T07:22:39.788Z</time></trkpt><trkpt lat="38.0850748" lon="13.4335753"><ele>41.0</ele><time>2026-05-01T07:22:40.787Z</time></trkpt><trkpt lat="38.084907" lon="13.4336151"><ele>41.0</ele><time>2026-05-01T07:22:41.787Z</time></trkpt><trkpt lat="38.0847418" lon="13.4336548"><ele>41.0</ele><time>2026-05-01T07:22:42.787Z</time></trkpt><trkpt lat="38.0845757" lon="13.4336916"><ele>41.0</ele><time>2026-05-01T07:22:43.787Z</time></trkpt><trkpt lat="38.0844203" lon="13.4337241"><ele>41.0</ele><time>2026-05-01T07:22:44.788Z</time></trkpt><trkpt lat="38.084279" lon="13.4337508"><ele>41.0</ele><time>2026-05-01T07:22:45.788Z</time></trkpt><trkpt lat="38.0841475" lon="13.4337749"><ele>41.0</ele><time>2026-05-01T07:22:46.787Z</time></trkpt><trkpt lat="38.0840303" lon="13.4338019"><ele>41.0</ele><time>2026-05-01T07:22:47.787Z</time></trkpt><trkpt lat="38.0839248" lon="13.4338235"><ele>41.0</ele><time>2026-05-01T07:22:48.787Z</time></trkpt><trkpt lat="38.0838213" lon="13.4338444"><ele>41.5</ele><time>2026-05-01T07:22:49.787Z</time></trkpt><trkpt lat="38.0837139" lon="13.4338708"><ele>42.0</ele><time>2026-05-01T07:22:50.788Z</time></trkpt><trkpt lat="38.083604" lon="13.4339008"><ele>42.5</ele><time>2026-05-01T07:22:51.787Z</time></trkpt><trkpt lat="38.0834856" lon="13.4339428"><ele>43.0</ele><time>2026-05-01T07:22:52.787Z</time></trkpt><trkpt lat="38.083346" lon="13.4339916"><ele>42.66666666666667</ele><time>2026-05-01T07:22:53.787Z</time></trkpt><trkpt lat="38.0831993" lon="13.4340476"><ele>42.333333333333336</ele><time>2026-05-01T07:22:54.788Z</time></trkpt><trkpt lat="38.0830407" lon="13.4341098"><ele>42.0</ele><time>2026-05-01T07:22:55.787Z</time></trkpt><trkpt lat="38.0828784" lon="13.434183"><ele>42.0</ele><time>2026-05-01T07:22:56.788Z</time></trkpt><trkpt lat="38.0827321" lon="13.434251"><ele>42.0</ele><time>2026-05-01T07:22:57.788Z</time></trkpt><trkpt lat="38.0826021" lon="13.4343082"><ele>42.0</ele><time>2026-05-01T07:22:58.788Z</time></trkpt><trkpt lat="38.082501" lon="13.4343589"><ele>42.0</ele><time>2026-05-01T07:22:59.787Z</time></trkpt><trkpt lat="38.0824221" lon="13.4343923"><ele>42.8</ele><time>2026-05-01T07:23:00.788Z</time></trkpt><trkpt lat="38.0823567" lon="13.4344199"><ele>43.6</ele><time>2026-05-01T07:23:01.788Z</time></trkpt><trkpt lat="38.0822476" lon="13.4344759"><ele>44.4</ele><time>2026-05-01T07:23:03.787Z</time></trkpt><trkpt lat="38.0821493" lon="13.4345188"><ele>45.199999999999996</ele><time>2026-05-01T07:23:05.787Z</time></trkpt><trkpt lat="38.0820859" lon="13.4345309"><ele>46.0</ele><time>2026-05-01T07:23:06.787Z</time></trkpt><trkpt lat="38.081978" lon="13.4345644"><ele>45.599999999999994</ele><time>2026-05-01T07:23:08.788Z</time></trkpt><trkpt lat="38.0818696" lon="13.4346395"><ele>45.2</ele><time>2026-05-01T07:23:10.788Z</time></trkpt><trkpt lat="38.0818123" lon="13.4347219"><ele>44.8</ele><time>2026-05-01T07:23:11.787Z</time></trkpt><trkpt lat="38.081749" lon="13.4348326"><ele>44.400000000000006</ele><time>2026-05-01T07:23:12.787Z</time></trkpt><trkpt lat="38.0816803" lon="13.4349413"><ele>44.0</ele><time>2026-05-01T07:23:13.787Z</time></trkpt><trkpt lat="38.0816081" lon="13.4350228"><ele>44.33333333333333</ele><time>2026-05-01T07:23:14.787Z</time></trkpt><trkpt lat="38.0815439" lon="13.4350779"><ele>44.666666666666664</ele><time>2026-05-01T07:23:15.787Z</time></trkpt><trkpt lat="38.0814884" lon="13.4351159"><ele>45.0</ele><time>2026-05-01T07:23:16.788Z</time></trkpt><trkpt lat="38.0814096" lon="13.4351767"><ele>45.333333333333336</ele><time>2026-05-01T07:23:18.787Z</time></trkpt><trkpt lat="38.0813565" lon="13.4352964"><ele>45.66666666666667</ele><time>2026-05-01T07:23:20.787Z</time></trkpt><trkpt lat="38.081366" lon="13.4353851"><ele>46.0</ele><time>2026-05-01T07:23:21.787Z</time></trkpt><trkpt lat="38.0813976" lon="13.4354805"><ele>46.25</ele><time>2026-05-01T07:23:22.788Z</time></trkpt><trkpt lat="38.0814652" lon="13.4355906"><ele>46.5</ele><time>2026-05-01T07:23:23.788Z</time></trkpt><trkpt lat="38.0815536" lon="13.4357149"><ele>46.75</ele><time>2026-05-01T07:23:24.787Z</time></trkpt><trkpt lat="38.0816388" lon="13.4358678"><ele>47.0</ele><time>2026-05-01T07:23:25.788Z</time></trkpt><trkpt lat="38.0817129" lon="13.4360563"><ele>45.0</ele><time>2026-05-01T07:23:26.787Z</time></trkpt><trkpt lat="38.0817746" lon="13.4362676"><ele>43.0</ele><time>2026-05-01T07:23:27.787Z</time></trkpt><trkpt lat="38.0818264" lon="13.4364984"><ele>41.0</ele><time>2026-05-01T07:23:28.787Z</time></trkpt><trkpt lat="38.0818821" lon="13.4367384"><ele>40.666666666666664</ele><time>2026-05-01T07:23:29.788Z</time></trkpt><trkpt lat="38.0819334" lon="13.4369794"><ele>40.333333333333336</ele><time>2026-05-01T07:23:30.787Z</time></trkpt><trkpt lat="38.0819901" lon="13.43723"><ele>40.0</ele><time>2026-05-01T07:23:31.788Z</time></trkpt><trkpt lat="38.0820469" lon="13.4374794"><ele>40.0</ele><time>2026-05-01T07:23:32.787Z</time></trkpt><trkpt lat="38.0820993" lon="13.437724"><ele>40.0</ele><time>2026-05-01T07:23:33.788Z</time></trkpt><trkpt lat="38.0821525" lon="13.4379549"><ele>40.0</ele><time>2026-05-01T07:23:34.787Z</time></trkpt><trkpt lat="38.0822085" lon="13.4381739"><ele>39.66666666666667</ele><time>2026-05-01T07:23:35.787Z</time></trkpt><trkpt lat="38.0822634" lon="13.4383831"><ele>39.333333333333336</ele><time>2026-05-01T07:23:36.787Z</time></trkpt><trkpt lat="38.0823129" lon="13.4385895"><ele>39.0</ele><time>2026-05-01T07:23:37.787Z</time></trkpt><trkpt lat="38.0823594" lon="13.4388017"><ele>38.666666666666664</ele><time>2026-05-01T07:23:38.788Z</time></trkpt><trkpt lat="38.0824125" lon="13.4390141"><ele>38.33333333333333</ele><time>2026-05-01T07:23:39.787Z</time></trkpt><trkpt lat="38.0824727" lon="13.439242"><ele>38.0</ele><time>2026-05-01T07:23:40.788Z</time></trkpt><trkpt lat="38.0825328" lon="13.4394932"><ele>36.5</ele><time>2026-05-01T07:23:41.787Z</time></trkpt><trkpt lat="38.0825907" lon="13.4397655"><ele>35.0</ele><time>2026-05-01T07:23:42.788Z</time></trkpt><trkpt lat="38.0826495" lon="13.440062"><ele>35.0</ele><time>2026-05-01T07:23:43.787Z</time></trkpt><trkpt lat="38.0827121" lon="13.4403779"><ele>35.0</ele><time>2026-05-01T07:23:44.788Z</time></trkpt><trkpt lat="38.0827622" lon="13.4407013"><ele>35.0</ele><time>2026-05-01T07:23:45.788Z</time></trkpt><trkpt lat="38.0828075" lon="13.4410332"><ele>35.0</ele><time>2026-05-01T07:23:46.787Z</time></trkpt><trkpt lat="38.082844" lon="13.4413753"><ele>35.0</ele><time>2026-05-01T07:23:47.787Z</time></trkpt><trkpt lat="38.0828658" lon="13.4417055"><ele>35.0</ele><time>2026-05-01T07:23:48.787Z</time></trkpt><trkpt lat="38.0828879" lon="13.4420196"><ele>34.0</ele><time>2026-05-01T07:23:49.788Z</time></trkpt><trkpt lat="38.0829165" lon="13.4423211"><ele>33.0</ele><time>2026-05-01T07:23:50.787Z</time></trkpt><trkpt lat="38.0829508" lon="13.4426059"><ele>33.0</ele><time>2026-05-01T07:23:51.787Z</time></trkpt><trkpt lat="38.0829802" lon="13.4428813"><ele>33.0</ele><time>2026-05-01T07:23:52.787Z</time></trkpt><trkpt lat="38.0830056" lon="13.4431644"><ele>33.0</ele><time>2026-05-01T07:23:53.788Z</time></trkpt><trkpt lat="38.0830292" lon="13.443453"><ele>33.0</ele><time>2026-05-01T07:23:54.787Z</time></trkpt><trkpt lat="38.0830496" lon="13.443735"><ele>33.0</ele><time>2026-05-01T07:23:55.788Z</time></trkpt><trkpt lat="38.0830729" lon="13.4440191"><ele>33.0</ele><time>2026-05-01T07:23:56.788Z</time></trkpt><trkpt lat="38.0830931" lon="13.4442994"><ele>32.666666666666664</ele><time>2026-05-01T07:23:57.788Z</time></trkpt><trkpt lat="38.0831148" lon="13.4445806"><ele>32.33333333333333</ele><time>2026-05-01T07:23:58.787Z</time></trkpt><trkpt lat="38.0831327" lon="13.4448573"><ele>32.0</ele><time>2026-05-01T07:23:59.787Z</time></trkpt><trkpt lat="38.0831532" lon="13.4451391"><ele>32.0</ele><time>2026-05-01T07:24:00.787Z</time></trkpt><trkpt lat="38.0831713" lon="13.4454271"><ele>32.0</ele><time>2026-05-01T07:24:01.787Z</time></trkpt><trkpt lat="38.0831892" lon="13.4457129"><ele>31.0</ele><time>2026-05-01T07:24:02.787Z</time></trkpt><trkpt lat="38.0832101" lon="13.4459978"><ele>30.0</ele><time>2026-05-01T07:24:03.787Z</time></trkpt><trkpt lat="38.0832302" lon="13.4462879"><ele>32.0</ele><time>2026-05-01T07:24:04.787Z</time></trkpt><trkpt lat="38.0832475" lon="13.4465776"><ele>34.0</ele><time>2026-05-01T07:24:05.787Z</time></trkpt><trkpt lat="38.0832641" lon="13.4468679"><ele>35.0</ele><time>2026-05-01T07:24:06.787Z</time></trkpt><trkpt lat="38.0832851" lon="13.4471635"><ele>36.0</ele><time>2026-05-01T07:24:07.787Z</time></trkpt><trkpt lat="38.0833" lon="13.4474697"><ele>36.0</ele><time>2026-05-01T07:24:08.788Z</time></trkpt><trkpt lat="38.0833116" lon="13.4477874"><ele>36.0</ele><time>2026-05-01T07:24:09.788Z</time></trkpt><trkpt lat="38.0833227" lon="13.4481245"><ele>35.0</ele><time>2026-05-01T07:24:10.787Z</time></trkpt><trkpt lat="38.0833452" lon="13.4484726"><ele>34.0</ele><time>2026-05-01T07:24:11.787Z</time></trkpt><trkpt lat="38.0833728" lon="13.4488206"><ele>33.5</ele><time>2026-05-01T07:24:12.788Z</time></trkpt><trkpt lat="38.0834016" lon="13.4491852"><ele>33.0</ele><time>2026-05-01T07:24:13.787Z</time></trkpt><trkpt lat="38.0834129" lon="13.4495612"><ele>33.5</ele><time>2026-05-01T07:24:14.788Z</time></trkpt><trkpt lat="38.0834069" lon="13.4499379"><ele>34.0</ele><time>2026-05-01T07:24:15.788Z</time></trkpt><trkpt lat="38.0833898" lon="13.4503104"><ele>33.5</ele><time>2026-05-01T07:24:16.788Z</time></trkpt><trkpt lat="38.0833605" lon="13.4506819"><ele>33.0</ele><time>2026-05-01T07:24:17.787Z</time></trkpt><trkpt lat="38.0833251" lon="13.4510479"><ele>33.0</ele><time>2026-05-01T07:24:18.787Z</time></trkpt><trkpt lat="38.0832848" lon="13.4514124"><ele>33.0</ele><time>2026-05-01T07:24:19.787Z</time></trkpt><trkpt lat="38.0832407" lon="13.451777"><ele>34.0</ele><time>2026-05-01T07:24:20.787Z</time></trkpt><trkpt lat="38.0831951" lon="13.4521434"><ele>35.0</ele><time>2026-05-01T07:24:21.787Z</time></trkpt><trkpt lat="38.0831535" lon="13.4525135"><ele>35.0</ele><time>2026-05-01T07:24:22.788Z</time></trkpt><trkpt lat="38.0831095" lon="13.4528812"><ele>35.0</ele><time>2026-05-01T07:24:23.787Z</time></trkpt><trkpt lat="38.0830649" lon="13.4532511"><ele>36.0</ele><time>2026-05-01T07:24:24.788Z</time></trkpt><trkpt lat="38.0830209" lon="13.4536166"><ele>37.0</ele><time>2026-05-01T07:24:25.788Z</time></trkpt><trkpt lat="38.0829744" lon="13.4539861"><ele>37.0</ele><time>2026-05-01T07:24:26.787Z</time></trkpt><trkpt lat="38.082931" lon="13.4543573"><ele>37.0</ele><time>2026-05-01T07:24:27.788Z</time></trkpt><trkpt lat="38.0828899" lon="13.4547286"><ele>37.0</ele><time>2026-05-01T07:24:28.787Z</time></trkpt><trkpt lat="38.0828487" lon="13.4550949"><ele>37.0</ele><time>2026-05-01T07:24:29.788Z</time></trkpt><trkpt lat="38.0828018" lon="13.4554594"><ele>36.5</ele><time>2026-05-01T07:24:30.787Z</time></trkpt><trkpt lat="38.0827557" lon="13.4558266"><ele>36.0</ele><time>2026-05-01T07:24:31.787Z</time></trkpt><trkpt lat="38.0827102" lon="13.4561978"><ele>36.0</ele><time>2026-05-01T07:24:32.787Z</time></trkpt><trkpt lat="38.0826664" lon="13.4565629"><ele>36.0</ele><time>2026-05-01T07:24:33.788Z</time></trkpt><trkpt lat="38.0826224" lon="13.4569318"><ele>37.0</ele><time>2026-05-01T07:24:34.787Z</time></trkpt><trkpt lat="38.0825819" lon="13.4572988"><ele>38.0</ele><time>2026-05-01T07:24:35.788Z</time></trkpt><trkpt lat="38.0825394" lon="13.4576679"><ele>38.5</ele><time>2026-05-01T07:24:36.788Z</time></trkpt><trkpt lat="38.0824961" lon="13.4580375"><ele>39.0</ele><time>2026-05-01T07:24:37.788Z</time></trkpt><trkpt lat="38.0824501" lon="13.4584024"><ele>40.5</ele><time>2026-05-01T07:24:38.787Z</time></trkpt><trkpt lat="38.082406" lon="13.4587725"><ele>42.0</ele><time>2026-05-01T07:24:39.787Z</time></trkpt><trkpt lat="38.0823622" lon="13.459142"><ele>42.0</ele><time>2026-05-01T07:24:40.787Z</time></trkpt><trkpt lat="38.0823207" lon="13.459505"><ele>42.0</ele><time>2026-05-01T07:24:41.788Z</time></trkpt><trkpt lat="38.0822789" lon="13.4598776"><ele>42.0</ele><time>2026-05-01T07:24:42.787Z</time></trkpt><trkpt lat="38.0822426" lon="13.4602458"><ele>42.0</ele><time>2026-05-01T07:24:43.787Z</time></trkpt><trkpt lat="38.0822152" lon="13.4606119"><ele>43.0</ele><time>2026-05-01T07:24:44.787Z</time></trkpt><trkpt lat="38.0821896" lon="13.4609803"><ele>44.0</ele><time>2026-05-01T07:24:45.788Z</time></trkpt><trkpt lat="38.0821697" lon="13.4613535"><ele>44.0</ele><time>2026-05-01T07:24:46.788Z</time></trkpt><trkpt lat="38.0821486" lon="13.4617239"><ele>44.0</ele><time>2026-05-01T07:24:47.787Z</time></trkpt><trkpt lat="38.0821256" lon="13.4620985"><ele>44.5</ele><time>2026-05-01T07:24:48.787Z</time></trkpt><trkpt lat="38.0821067" lon="13.4624681"><ele>45.0</ele><time>2026-05-01T07:24:49.787Z</time></trkpt><trkpt lat="38.0820826" lon="13.46284"><ele>45.5</ele><time>2026-05-01T07:24:50.788Z</time></trkpt><trkpt lat="38.0820624" lon="13.4632079"><ele>46.0</ele><time>2026-05-01T07:24:51.787Z</time></trkpt><trkpt lat="38.0820424" lon="13.4635815"><ele>46.5</ele><time>2026-05-01T07:24:52.788Z</time></trkpt><trkpt lat="38.082016" lon="13.4639548"><ele>47.0</ele><time>2026-05-01T07:24:53.787Z</time></trkpt><trkpt lat="38.0819948" lon="13.464323"><ele>46.0</ele><time>2026-05-01T07:24:54.788Z</time></trkpt><trkpt lat="38.0819768" lon="13.4646933"><ele>45.0</ele><time>2026-05-01T07:24:55.787Z</time></trkpt><trkpt lat="38.0819559" lon="13.4650564"><ele>45.0</ele><time>2026-05-01T07:24:56.787Z</time></trkpt><trkpt lat="38.0819387" lon="13.4654269"><ele>45.0</ele><time>2026-05-01T07:24:57.787Z</time></trkpt><trkpt lat="38.0819186" lon="13.4657963"><ele>45.5</ele><time>2026-05-01T07:24:58.787Z</time></trkpt><trkpt lat="38.0818964" lon="13.4661699"><ele>46.0</ele><time>2026-05-01T07:24:59.788Z</time></trkpt><trkpt lat="38.0818779" lon="13.4665423"><ele>46.5</ele><time>2026-05-01T07:25:00.787Z</time></trkpt><trkpt lat="38.0818586" lon="13.4669106"><ele>47.0</ele><time>2026-05-01T07:25:01.787Z</time></trkpt><trkpt lat="38.0818364" lon="13.4672815"><ele>47.5</ele><time>2026-05-01T07:25:02.788Z</time></trkpt><trkpt lat="38.0818151" lon="13.4676551"><ele>48.0</ele><time>2026-05-01T07:25:03.787Z</time></trkpt><trkpt lat="38.0817947" lon="13.4680243"><ele>49.5</ele><time>2026-05-01T07:25:04.787Z</time></trkpt><trkpt lat="38.0817718" lon="13.4683951"><ele>51.0</ele><time>2026-05-01T07:25:05.787Z</time></trkpt><trkpt lat="38.0817484" lon="13.4687639"><ele>51.0</ele><time>2026-05-01T07:25:06.787Z</time></trkpt><trkpt lat="38.0817281" lon="13.4691376"><ele>51.0</ele><time>2026-05-01T07:25:07.787Z</time></trkpt><trkpt lat="38.0817072" lon="13.4695129"><ele>52.0</ele><time>2026-05-01T07:25:08.788Z</time></trkpt><trkpt lat="38.0816873" lon="13.4698877"><ele>53.0</ele><time>2026-05-01T07:25:09.788Z</time></trkpt><trkpt lat="38.0816631" lon="13.4702563"><ele>53.0</ele><time>2026-05-01T07:25:10.788Z</time></trkpt><trkpt lat="38.0816387" lon="13.4706282"><ele>53.0</ele><time>2026-05-01T07:25:11.787Z</time></trkpt><trkpt lat="38.0816091" lon="13.4709988"><ele>53.5</ele><time>2026-05-01T07:25:12.787Z</time></trkpt><trkpt lat="38.0815698" lon="13.4713659"><ele>54.0</ele><time>2026-05-01T07:25:13.787Z</time></trkpt><trkpt lat="38.0815234" lon="13.4717331"><ele>54.0</ele><time>2026-05-01T07:25:14.788Z</time></trkpt><trkpt lat="38.0814697" lon="13.4721007"><ele>54.0</ele><time>2026-05-01T07:25:15.787Z</time></trkpt><trkpt lat="38.0814196" lon="13.4724683"><ele>54.5</ele><time>2026-05-01T07:25:16.788Z</time></trkpt><trkpt lat="38.0813692" lon="13.4728326"><ele>55.0</ele><time>2026-05-01T07:25:17.787Z</time></trkpt><trkpt lat="38.0813188" lon="13.4731998"><ele>55.0</ele><time>2026-05-01T07:25:18.788Z</time></trkpt><trkpt lat="38.0812636" lon="13.4735678"><ele>55.0</ele><time>2026-05-01T07:25:19.787Z</time></trkpt><trkpt lat="38.0812146" lon="13.4739352"><ele>50.5</ele><time>2026-05-01T07:25:20.788Z</time></trkpt><trkpt lat="38.0811637" lon="13.4743044"><ele>46.0</ele><time>2026-05-01T07:25:21.787Z</time></trkpt><trkpt lat="38.0811162" lon="13.4746667"><ele>38.5</ele><time>2026-05-01T07:25:22.788Z</time></trkpt><trkpt lat="38.08107" lon="13.4750348"><ele>31.0</ele><time>2026-05-01T07:25:23.787Z</time></trkpt><trkpt lat="38.081019" lon="13.4753965"><ele>30.0</ele><time>2026-05-01T07:25:24.787Z</time></trkpt><trkpt lat="38.0809702" lon="13.4757637"><ele>29.0</ele><time>2026-05-01T07:25:25.788Z</time></trkpt><trkpt lat="38.0809192" lon="13.4761241"><ele>31.5</ele><time>2026-05-01T07:25:26.796Z</time></trkpt><trkpt lat="38.0808682" lon="13.4764855"><ele>34.0</ele><time>2026-05-01T07:25:27.795Z</time></trkpt><trkpt lat="38.0808168" lon="13.476848"><ele>42.5</ele><time>2026-05-01T07:25:28.795Z</time></trkpt><trkpt lat="38.0807684" lon="13.4772106"><ele>51.0</ele><time>2026-05-01T07:25:29.795Z</time></trkpt><trkpt lat="38.0807219" lon="13.4775815"><ele>57.5</ele><time>2026-05-01T07:25:30.795Z</time></trkpt><trkpt lat="38.0806704" lon="13.4779505"><ele>64.0</ele><time>2026-05-01T07:25:31.796Z</time></trkpt><trkpt lat="38.0806207" lon="13.4783201"><ele>64.0</ele><time>2026-05-01T07:25:32.795Z</time></trkpt><trkpt lat="38.0805769" lon="13.4786885"><ele>64.0</ele><time>2026-05-01T07:25:33.795Z</time></trkpt><trkpt lat="38.0805267" lon="13.4790581"><ele>65.0</ele><time>2026-05-01T07:25:34.795Z</time></trkpt><trkpt lat="38.0804756" lon="13.4794198"><ele>66.0</ele><time>2026-05-01T07:25:35.796Z</time></trkpt><trkpt lat="38.0804226" lon="13.4797923"><ele>66.5</ele><time>2026-05-01T07:25:36.796Z</time></trkpt><trkpt lat="38.0803732" lon="13.4801583"><ele>67.0</ele><time>2026-05-01T07:25:37.795Z</time></trkpt><trkpt lat="38.0803201" lon="13.4805222"><ele>68.0</ele><time>2026-05-01T07:25:38.795Z</time></trkpt><trkpt lat="38.0802694" lon="13.4808881"><ele>69.0</ele><time>2026-05-01T07:25:39.796Z</time></trkpt><trkpt lat="38.0802201" lon="13.4812587"><ele>69.0</ele><time>2026-05-01T07:25:40.796Z</time></trkpt><trkpt lat="38.0801696" lon="13.4816267"><ele>69.0</ele><time>2026-05-01T07:25:41.796Z</time></trkpt><trkpt lat="38.0801194" lon="13.4819986"><ele>69.0</ele><time>2026-05-01T07:25:42.795Z</time></trkpt><trkpt lat="38.0800731" lon="13.4823705"><ele>69.0</ele><time>2026-05-01T07:25:43.796Z</time></trkpt><trkpt lat="38.0800222" lon="13.4827367"><ele>68.0</ele><time>2026-05-01T07:25:44.796Z</time></trkpt><trkpt lat="38.0799724" lon="13.4831047"><ele>67.0</ele><time>2026-05-01T07:25:45.795Z</time></trkpt><trkpt lat="38.0799221" lon="13.4834764"><ele>68.0</ele><time>2026-05-01T07:25:46.795Z</time></trkpt><trkpt lat="38.0798719" lon="13.4838432"><ele>69.0</ele><time>2026-05-01T07:25:47.796Z</time></trkpt><trkpt lat="38.0798217" lon="13.4842112"><ele>69.0</ele><time>2026-05-01T07:25:48.795Z</time></trkpt><trkpt lat="38.0797725" lon="13.4845733"><ele>69.0</ele><time>2026-05-01T07:25:49.795Z</time></trkpt><trkpt lat="38.0797251" lon="13.4849399"><ele>68.0</ele><time>2026-05-01T07:25:50.795Z</time></trkpt><trkpt lat="38.0796767" lon="13.4853026"><ele>67.0</ele><time>2026-05-01T07:25:51.796Z</time></trkpt><trkpt lat="38.0796285" lon="13.4856671"><ele>67.0</ele><time>2026-05-01T07:25:52.796Z</time></trkpt><trkpt lat="38.0795757" lon="13.4860379"><ele>67.0</ele><time>2026-05-01T07:25:53.796Z</time></trkpt><trkpt lat="38.0795253" lon="13.4864011"><ele>66.5</ele><time>2026-05-01T07:25:54.796Z</time></trkpt><trkpt lat="38.0794699" lon="13.486764"><ele>66.0</ele><time>2026-05-01T07:25:55.795Z</time></trkpt><trkpt lat="38.0794149" lon="13.4871245"><ele>69.0</ele><time>2026-05-01T07:25:56.795Z</time></trkpt><trkpt lat="38.0793481" lon="13.4874867"><ele>72.0</ele><time>2026-05-01T07:25:57.796Z</time></trkpt><trkpt lat="38.0792734" lon="13.4878442"><ele>74.0</ele><time>2026-05-01T07:25:58.795Z</time></trkpt><trkpt lat="38.0791928" lon="13.488202"><ele>76.0</ele><time>2026-05-01T07:25:59.796Z</time></trkpt><trkpt lat="38.0790988" lon="13.4885542"><ele>86.5</ele><time>2026-05-01T07:26:00.795Z</time></trkpt><trkpt lat="38.0789902" lon="13.4888954"><ele>97.0</ele><time>2026-05-01T07:26:01.796Z</time></trkpt><trkpt lat="38.0788719" lon="13.4892342"><ele>97.0</ele><time>2026-05-01T07:26:02.795Z</time></trkpt><trkpt lat="38.0787526" lon="13.4895684"><ele>97.0</ele><time>2026-05-01T07:26:03.795Z</time></trkpt><trkpt lat="38.0786287" lon="13.4899053"><ele>94.5</ele><time>2026-05-01T07:26:04.795Z</time></trkpt><trkpt lat="38.0785014" lon="13.4902441"><ele>92.0</ele><time>2026-05-01T07:26:05.796Z</time></trkpt><trkpt lat="38.0783758" lon="13.490581"><ele>98.5</ele><time>2026-05-01T07:26:06.795Z</time></trkpt><trkpt lat="38.0782553" lon="13.4909235"><ele>105.0</ele><time>2026-05-01T07:26:07.795Z</time></trkpt><trkpt lat="38.0781309" lon="13.4912619"><ele>105.0</ele><time>2026-05-01T07:26:08.796Z</time></trkpt><trkpt lat="38.0780048" lon="13.4916005"><ele>105.0</ele><time>2026-05-01T07:26:09.795Z</time></trkpt><trkpt lat="38.0778809" lon="13.4919403"><ele>96.5</ele><time>2026-05-01T07:26:10.796Z</time></trkpt><trkpt lat="38.077754" lon="13.4922837"><ele>88.0</ele><time>2026-05-01T07:26:11.796Z</time></trkpt><trkpt lat="38.0776308" lon="13.4926242"><ele>90.5</ele><time>2026-05-01T07:26:12.795Z</time></trkpt><trkpt lat="38.0775082" lon="13.492962"><ele>93.0</ele><time>2026-05-01T07:26:13.795Z</time></trkpt><trkpt lat="38.0773851" lon="13.4933041"><ele>93.0</ele><time>2026-05-01T07:26:14.796Z</time></trkpt><trkpt lat="38.0772609" lon="13.4936458"><ele>93.0</ele><time>2026-05-01T07:26:15.796Z</time></trkpt><trkpt lat="38.0771353" lon="13.4939816"><ele>88.0</ele><time>2026-05-01T07:26:16.795Z</time></trkpt><trkpt lat="38.0770086" lon="13.4943158"><ele>83.0</ele><time>2026-05-01T07:26:17.795Z</time></trkpt><trkpt lat="38.076876" lon="13.4946483"><ele>81.5</ele><time>2026-05-01T07:26:18.796Z</time></trkpt><trkpt lat="38.0767369" lon="13.4949761"><ele>80.0</ele><time>2026-05-01T07:26:19.795Z</time></trkpt><trkpt lat="38.0765882" lon="13.4952963"><ele>82.0</ele><time>2026-05-01T07:26:20.795Z</time></trkpt><trkpt lat="38.0764342" lon="13.4956098"><ele>84.0</ele><time>2026-05-01T07:26:21.795Z</time></trkpt><trkpt lat="38.0762627" lon="13.4959139"><ele>84.0</ele><time>2026-05-01T07:26:22.796Z</time></trkpt><trkpt lat="38.0760894" lon="13.4962114"><ele>84.0</ele><time>2026-05-01T07:26:23.795Z</time></trkpt><trkpt lat="38.075914" lon="13.496508"><ele>86.0</ele><time>2026-05-01T07:26:24.795Z</time></trkpt><trkpt lat="38.0757369" lon="13.4968003"><ele>88.0</ele><time>2026-05-01T07:26:25.795Z</time></trkpt><trkpt lat="38.0755591" lon="13.4970939"><ele>88.0</ele><time>2026-05-01T07:26:26.795Z</time></trkpt><trkpt lat="38.0753818" lon="13.4973904"><ele>88.0</ele><time>2026-05-01T07:26:27.796Z</time></trkpt><trkpt lat="38.075204" lon="13.497686"><ele>88.0</ele><time>2026-05-01T07:26:28.795Z</time></trkpt><trkpt lat="38.0750293" lon="13.4979833"><ele>88.0</ele><time>2026-05-01T07:26:29.795Z</time></trkpt><trkpt lat="38.0748545" lon="13.4982819"><ele>89.5</ele><time>2026-05-01T07:26:30.796Z</time></trkpt><trkpt lat="38.0746791" lon="13.4985789"><ele>91.0</ele><time>2026-05-01T07:26:31.796Z</time></trkpt><trkpt lat="38.0745015" lon="13.4988711"><ele>91.5</ele><time>2026-05-01T07:26:32.795Z</time></trkpt><trkpt lat="38.0743218" lon="13.4991649"><ele>92.0</ele><time>2026-05-01T07:26:33.795Z</time></trkpt><trkpt lat="38.0741432" lon="13.4994599"><ele>95.0</ele><time>2026-05-01T07:26:34.795Z</time></trkpt><trkpt lat="38.0739661" lon="13.4997624"><ele>98.0</ele><time>2026-05-01T07:26:35.796Z</time></trkpt><trkpt lat="38.0737947" lon="13.5000626"><ele>98.0</ele><time>2026-05-01T07:26:36.795Z</time></trkpt><trkpt lat="38.0736228" lon="13.5003642"><ele>98.0</ele><time>2026-05-01T07:26:37.795Z</time></trkpt><trkpt lat="38.0734499" lon="13.500661"><ele>97.5</ele><time>2026-05-01T07:26:38.795Z</time></trkpt><trkpt lat="38.0732764" lon="13.500961"><ele>97.0</ele><time>2026-05-01T07:26:39.796Z</time></trkpt><trkpt lat="38.0731042" lon="13.5012581"><ele>100.0</ele><time>2026-05-01T07:26:40.795Z</time></trkpt><trkpt lat="38.0729265" lon="13.5015566"><ele>103.0</ele><time>2026-05-01T07:26:41.795Z</time></trkpt><trkpt lat="38.0727415" lon="13.5018482"><ele>103.0</ele><time>2026-05-01T07:26:42.796Z</time></trkpt><trkpt lat="38.0725496" lon="13.5021313"><ele>103.0</ele><time>2026-05-01T07:26:43.796Z</time></trkpt><trkpt lat="38.0723539" lon="13.5024113"><ele>103.0</ele><time>2026-05-01T07:26:44.796Z</time></trkpt><trkpt lat="38.0721518" lon="13.5026859"><ele>103.0</ele><time>2026-05-01T07:26:45.795Z</time></trkpt><trkpt lat="38.0719474" lon="13.5029547"><ele>103.0</ele><time>2026-05-01T07:26:46.795Z</time></trkpt><trkpt lat="38.07174" lon="13.5032121"><ele>103.0</ele><time>2026-05-01T07:26:47.795Z</time></trkpt><trkpt lat="38.0715262" lon="13.5034671"><ele>103.0</ele><time>2026-05-01T07:26:48.795Z</time></trkpt><trkpt lat="38.0713139" lon="13.5037226"><ele>103.0</ele><time>2026-05-01T07:26:49.796Z</time></trkpt><trkpt lat="38.0711035" lon="13.5039803"><ele>103.5</ele><time>2026-05-01T07:26:50.796Z</time></trkpt><trkpt lat="38.070891" lon="13.5042421"><ele>104.0</ele><time>2026-05-01T07:26:51.796Z</time></trkpt><trkpt lat="38.0706774" lon="13.5044982"><ele>106.5</ele><time>2026-05-01T07:26:52.796Z</time></trkpt><trkpt lat="38.0704655" lon="13.5047537"><ele>109.0</ele><time>2026-05-01T07:26:53.795Z</time></trkpt><trkpt lat="38.070255" lon="13.5050102"><ele>109.0</ele><time>2026-05-01T07:26:54.796Z</time></trkpt><trkpt lat="38.0700394" lon="13.5052662"><ele>109.0</ele><time>2026-05-01T07:26:55.795Z</time></trkpt><trkpt lat="38.0698243" lon="13.5055251"><ele>112.0</ele><time>2026-05-01T07:26:56.795Z</time></trkpt><trkpt lat="38.0696115" lon="13.5057825"><ele>115.0</ele><time>2026-05-01T07:26:57.795Z</time></trkpt><trkpt lat="38.069399" lon="13.506041"><ele>114.5</ele><time>2026-05-01T07:26:58.795Z</time></trkpt><trkpt lat="38.0691867" lon="13.5062953"><ele>114.0</ele><time>2026-05-01T07:26:59.796Z</time></trkpt><trkpt lat="38.0689714" lon="13.5065486"><ele>115.5</ele><time>2026-05-01T07:27:00.795Z</time></trkpt><trkpt lat="38.0687578" lon="13.5068075"><ele>117.0</ele><time>2026-05-01T07:27:01.795Z</time></trkpt><trkpt lat="38.0685423" lon="13.5070639"><ele>116.5</ele><time>2026-05-01T07:27:02.795Z</time></trkpt><trkpt lat="38.0683277" lon="13.5073205"><ele>116.0</ele><time>2026-05-01T07:27:03.795Z</time></trkpt><trkpt lat="38.0681138" lon="13.5075739"><ele>116.0</ele><time>2026-05-01T07:27:04.796Z</time></trkpt><trkpt lat="38.0678987" lon="13.5078312"><ele>116.0</ele><time>2026-05-01T07:27:05.796Z</time></trkpt><trkpt lat="38.0676844" lon="13.5080842"><ele>115.5</ele><time>2026-05-01T07:27:06.795Z</time></trkpt><trkpt lat="38.0674717" lon="13.5083448"><ele>115.0</ele><time>2026-05-01T07:27:07.795Z</time></trkpt><trkpt lat="38.0672575" lon="13.5086052"><ele>116.0</ele><time>2026-05-01T07:27:08.796Z</time></trkpt><trkpt lat="38.0670467" lon="13.5088672"><ele>117.0</ele><time>2026-05-01T07:27:09.796Z</time></trkpt><trkpt lat="38.0668325" lon="13.5091241"><ele>117.0</ele><time>2026-05-01T07:27:10.795Z</time></trkpt><trkpt lat="38.0666164" lon="13.509378"><ele>117.0</ele><time>2026-05-01T07:27:11.795Z</time></trkpt><trkpt lat="38.0663983" lon="13.5096365"><ele>117.5</ele><time>2026-05-01T07:27:12.796Z</time></trkpt><trkpt lat="38.0661803" lon="13.5098983"><ele>118.0</ele><time>2026-05-01T07:27:13.795Z</time></trkpt><trkpt lat="38.0659676" lon="13.5101545"><ele>118.0</ele><time>2026-05-01T07:27:14.795Z</time></trkpt><trkpt lat="38.0657541" lon="13.5104117"><ele>118.0</ele><time>2026-05-01T07:27:15.796Z</time></trkpt><trkpt lat="38.0655442" lon="13.5106694"><ele>118.0</ele><time>2026-05-01T07:27:16.795Z</time></trkpt><trkpt lat="38.065327" lon="13.5109239"><ele>118.0</ele><time>2026-05-01T07:27:17.796Z</time></trkpt><trkpt lat="38.0651139" lon="13.5111828"><ele>116.5</ele><time>2026-05-01T07:27:18.796Z</time></trkpt><trkpt lat="38.0649012" lon="13.5114416"><ele>115.0</ele><time>2026-05-01T07:27:19.796Z</time></trkpt><trkpt lat="38.0646885" lon="13.5117013"><ele>115.0</ele><time>2026-05-01T07:27:20.795Z</time></trkpt><trkpt lat="38.0644732" lon="13.5119565"><ele>115.0</ele><time>2026-05-01T07:27:21.795Z</time></trkpt><trkpt lat="38.0642615" lon="13.5122126"><ele>111.5</ele><time>2026-05-01T07:27:22.796Z</time></trkpt><trkpt lat="38.064047" lon="13.5124737"><ele>108.0</ele><time>2026-05-01T07:27:23.795Z</time></trkpt><trkpt lat="38.0638346" lon="13.5127342"><ele>104.5</ele><time>2026-05-01T07:27:24.796Z</time></trkpt><trkpt lat="38.0636215" lon="13.5129891"><ele>101.0</ele><time>2026-05-01T07:27:25.795Z</time></trkpt><trkpt lat="38.0634097" lon="13.5132439"><ele>98.5</ele><time>2026-05-01T07:27:26.795Z</time></trkpt><trkpt lat="38.0632007" lon="13.5134993"><ele>96.0</ele><time>2026-05-01T07:27:27.796Z</time></trkpt><trkpt lat="38.0629873" lon="13.5137536"><ele>96.0</ele><time>2026-05-01T07:27:28.796Z</time></trkpt><trkpt lat="38.0627754" lon="13.5140069"><ele>96.0</ele><time>2026-05-01T07:27:29.795Z</time></trkpt><trkpt lat="38.0625603" lon="13.5142641"><ele>100.5</ele><time>2026-05-01T07:27:30.796Z</time></trkpt><trkpt lat="38.0623499" lon="13.5145264"><ele>105.0</ele><time>2026-05-01T07:27:31.796Z</time></trkpt><trkpt lat="38.0621394" lon="13.5147887"><ele>105.5</ele><time>2026-05-01T07:27:32.795Z</time></trkpt><trkpt lat="38.0619301" lon="13.5150507"><ele>106.0</ele><time>2026-05-01T07:27:33.795Z</time></trkpt><trkpt lat="38.0617215" lon="13.5153178"><ele>99.5</ele><time>2026-05-01T07:27:34.796Z</time></trkpt><trkpt lat="38.0615155" lon="13.5155863"><ele>93.0</ele><time>2026-05-01T07:27:35.796Z</time></trkpt><trkpt lat="38.061321" lon="13.5158679"><ele>93.0</ele><time>2026-05-01T07:27:36.795Z</time></trkpt><trkpt lat="38.0611406" lon="13.5161622"><ele>93.0</ele><time>2026-05-01T07:27:37.796Z</time></trkpt><trkpt lat="38.0609768" lon="13.5164704"><ele>88.0</ele><time>2026-05-01T07:27:38.795Z</time></trkpt><trkpt lat="38.0608333" lon="13.5167946"><ele>83.0</ele><time>2026-05-01T07:27:39.795Z</time></trkpt><trkpt lat="38.0607038" lon="13.5171207"><ele>78.5</ele><time>2026-05-01T07:27:40.795Z</time></trkpt><trkpt lat="38.060584" lon="13.5174542"><ele>74.0</ele><time>2026-05-01T07:27:41.796Z</time></trkpt><trkpt lat="38.0604811" lon="13.5178026"><ele>76.0</ele><time>2026-05-01T07:27:42.795Z</time></trkpt><trkpt lat="38.0603864" lon="13.518153"><ele>78.0</ele><time>2026-05-01T07:27:43.795Z</time></trkpt><trkpt lat="38.0603093" lon="13.5185126"><ele>81.0</ele><time>2026-05-01T07:27:44.796Z</time></trkpt><trkpt lat="38.0602469" lon="13.5188746"><ele>84.0</ele><time>2026-05-01T07:27:45.795Z</time></trkpt><trkpt lat="38.0601952" lon="13.5192368"><ele>86.0</ele><time>2026-05-01T07:27:46.795Z</time></trkpt><trkpt lat="38.0601617" lon="13.5196009"><ele>88.0</ele><time>2026-05-01T07:27:47.796Z</time></trkpt><trkpt lat="38.0601425" lon="13.5199734"><ele>88.0</ele><time>2026-05-01T07:27:48.795Z</time></trkpt><trkpt lat="38.0601351" lon="13.5203438"><ele>88.0</ele><time>2026-05-01T07:27:49.796Z</time></trkpt><trkpt lat="38.0601422" lon="13.5207124"><ele>88.0</ele><time>2026-05-01T07:27:50.796Z</time></trkpt><trkpt lat="38.0601681" lon="13.5210874"><ele>88.0</ele><time>2026-05-01T07:27:51.796Z</time></trkpt><trkpt lat="38.060211" lon="13.5214604"><ele>85.0</ele><time>2026-05-01T07:27:52.796Z</time></trkpt><trkpt lat="38.0602558" lon="13.5218307"><ele>82.0</ele><time>2026-05-01T07:27:53.796Z</time></trkpt><trkpt lat="38.0603043" lon="13.5222"><ele>81.0</ele><time>2026-05-01T07:27:54.795Z</time></trkpt><trkpt lat="38.060349" lon="13.5225702"><ele>80.0</ele><time>2026-05-01T07:27:55.795Z</time></trkpt><trkpt lat="38.0603907" lon="13.5229427"><ele>78.0</ele><time>2026-05-01T07:27:56.795Z</time></trkpt><trkpt lat="38.0604313" lon="13.5233153"><ele>76.0</ele><time>2026-05-01T07:27:57.795Z</time></trkpt><trkpt lat="38.0604766" lon="13.5236837"><ele>73.5</ele><time>2026-05-01T07:27:58.795Z</time></trkpt><trkpt lat="38.060514" lon="13.5240444"><ele>71.0</ele><time>2026-05-01T07:27:59.796Z</time></trkpt><trkpt lat="38.0605534" lon="13.5244126"><ele>71.0</ele><time>2026-05-01T07:28:00.795Z</time></trkpt><trkpt lat="38.0605822" lon="13.5247808"><ele>71.0</ele><time>2026-05-01T07:28:01.795Z</time></trkpt><trkpt lat="38.0606006" lon="13.525153"><ele>70.0</ele><time>2026-05-01T07:28:02.795Z</time></trkpt><trkpt lat="38.0605996" lon="13.5255251"><ele>69.0</ele><time>2026-05-01T07:28:03.795Z</time></trkpt><trkpt lat="38.0605846" lon="13.5258931"><ele>68.0</ele><time>2026-05-01T07:28:04.796Z</time></trkpt><trkpt lat="38.0605524" lon="13.5262638"><ele>67.0</ele><time>2026-05-01T07:28:05.795Z</time></trkpt><trkpt lat="38.060502" lon="13.5266303"><ele>67.0</ele><time>2026-05-01T07:28:06.795Z</time></trkpt><trkpt lat="38.0604372" lon="13.5269905"><ele>67.0</ele><time>2026-05-01T07:28:07.796Z</time></trkpt><trkpt lat="38.0603574" lon="13.5273446"><ele>66.0</ele><time>2026-05-01T07:28:08.795Z</time></trkpt><trkpt lat="38.0602655" lon="13.5276941"><ele>65.0</ele><time>2026-05-01T07:28:09.795Z</time></trkpt><trkpt lat="38.0601602" lon="13.5280444"><ele>65.0</ele><time>2026-05-01T07:28:10.795Z</time></trkpt><trkpt lat="38.0600504" lon="13.5283871"><ele>65.0</ele><time>2026-05-01T07:28:11.795Z</time></trkpt><trkpt lat="38.0599331" lon="13.5287289"><ele>55.5</ele><time>2026-05-01T07:28:12.796Z</time></trkpt><trkpt lat="38.0598128" lon="13.5290675"><ele>46.0</ele><time>2026-05-01T07:28:13.795Z</time></trkpt><trkpt lat="38.059689" lon="13.5294059"><ele>42.5</ele><time>2026-05-01T07:28:14.795Z</time></trkpt><trkpt lat="38.0595657" lon="13.5297431"><ele>39.0</ele><time>2026-05-01T07:28:15.795Z</time></trkpt><trkpt lat="38.0594413" lon="13.5300766"><ele>40.0</ele><time>2026-05-01T07:28:16.796Z</time></trkpt><trkpt lat="38.0593178" lon="13.5304096"><ele>41.0</ele><time>2026-05-01T07:28:17.795Z</time></trkpt><trkpt lat="38.0591922" lon="13.5307484"><ele>50.5</ele><time>2026-05-01T07:28:18.796Z</time></trkpt><trkpt lat="38.0590681" lon="13.5310859"><ele>60.0</ele><time>2026-05-01T07:28:19.796Z</time></trkpt><trkpt lat="38.0589483" lon="13.5314239"><ele>60.0</ele><time>2026-05-01T07:28:20.795Z</time></trkpt><trkpt lat="38.0588242" lon="13.5317621"><ele>60.0</ele><time>2026-05-01T07:28:21.795Z</time></trkpt><trkpt lat="38.0587001" lon="13.5321034"><ele>62.0</ele><time>2026-05-01T07:28:22.795Z</time></trkpt><trkpt lat="38.0585792" lon="13.5324409"><ele>64.0</ele><time>2026-05-01T07:28:23.796Z</time></trkpt><trkpt lat="38.0584592" lon="13.5327791"><ele>64.0</ele><time>2026-05-01T07:28:24.796Z</time></trkpt><trkpt lat="38.0583367" lon="13.5331227"><ele>64.0</ele><time>2026-05-01T07:28:25.796Z</time></trkpt><trkpt lat="38.0582145" lon="13.5334595"><ele>66.5</ele><time>2026-05-01T07:28:26.795Z</time></trkpt><trkpt lat="38.0580905" lon="13.5337936"><ele>69.0</ele><time>2026-05-01T07:28:27.795Z</time></trkpt><trkpt lat="38.057968" lon="13.5341337"><ele>69.0</ele><time>2026-05-01T07:28:28.795Z</time></trkpt><trkpt lat="38.0578455" lon="13.5344721"><ele>69.0</ele><time>2026-05-01T07:28:29.795Z</time></trkpt><trkpt lat="38.057723" lon="13.5348143"><ele>69.0</ele><time>2026-05-01T07:28:30.796Z</time></trkpt><trkpt lat="38.057601" lon="13.5351564"><ele>69.0</ele><time>2026-05-01T07:28:31.796Z</time></trkpt><trkpt lat="38.0574804" lon="13.5354924"><ele>68.5</ele><time>2026-05-01T07:28:32.795Z</time></trkpt><trkpt lat="38.0573502" lon="13.5358224"><ele>68.0</ele><time>2026-05-01T07:28:33.795Z</time></trkpt><trkpt lat="38.0572091" lon="13.53615"><ele>67.5</ele><time>2026-05-01T07:28:34.795Z</time></trkpt><trkpt lat="38.0570592" lon="13.5364696"><ele>67.0</ele><time>2026-05-01T07:28:35.796Z</time></trkpt><trkpt lat="38.0569007" lon="13.5367849"><ele>66.5</ele><time>2026-05-01T07:28:36.795Z</time></trkpt><trkpt lat="38.056734" lon="13.5370845"><ele>66.0</ele><time>2026-05-01T07:28:37.796Z</time></trkpt><trkpt lat="38.0565603" lon="13.5373818"><ele>66.0</ele><time>2026-05-01T07:28:38.795Z</time></trkpt><trkpt lat="38.0563789" lon="13.5376777"><ele>66.0</ele><time>2026-05-01T07:28:39.796Z</time></trkpt><trkpt lat="38.0561929" lon="13.5379675"><ele>64.0</ele><time>2026-05-01T07:28:40.795Z</time></trkpt><trkpt lat="38.0560022" lon="13.5382538"><ele>62.0</ele><time>2026-05-01T07:28:41.795Z</time></trkpt><trkpt lat="38.0558114" lon="13.5385402"><ele>56.5</ele><time>2026-05-01T07:28:42.796Z</time></trkpt><trkpt lat="38.0556134" lon="13.538821"><ele>51.0</ele><time>2026-05-01T07:28:43.795Z</time></trkpt><trkpt lat="38.0554159" lon="13.5391058"><ele>51.0</ele><time>2026-05-01T07:28:44.795Z</time></trkpt><trkpt lat="38.0552229" lon="13.539388"><ele>51.0</ele><time>2026-05-01T07:28:45.795Z</time></trkpt><trkpt lat="38.0550329" lon="13.5396728"><ele>42.0</ele><time>2026-05-01T07:28:46.796Z</time></trkpt><trkpt lat="38.0548481" lon="13.5399561"><ele>33.0</ele><time>2026-05-01T07:28:47.795Z</time></trkpt><trkpt lat="38.0546588" lon="13.5402416"><ele>34.5</ele><time>2026-05-01T07:28:48.795Z</time></trkpt><trkpt lat="38.0544695" lon="13.5405287"><ele>36.0</ele><time>2026-05-01T07:28:49.796Z</time></trkpt><trkpt lat="38.05428" lon="13.5408129"><ele>44.5</ele><time>2026-05-01T07:28:50.795Z</time></trkpt><trkpt lat="38.0540918" lon="13.541097"><ele>53.0</ele><time>2026-05-01T07:28:51.795Z</time></trkpt><trkpt lat="38.053903" lon="13.541386"><ele>53.0</ele><time>2026-05-01T07:28:52.795Z</time></trkpt><trkpt lat="38.0537168" lon="13.5416763"><ele>53.0</ele><time>2026-05-01T07:28:53.795Z</time></trkpt><trkpt lat="38.0535291" lon="13.5419586"><ele>43.5</ele><time>2026-05-01T07:28:54.795Z</time></trkpt><trkpt lat="38.0533408" lon="13.5422478"><ele>34.0</ele><time>2026-05-01T07:28:55.795Z</time></trkpt><trkpt lat="38.0531501" lon="13.5425337"><ele>33.0</ele><time>2026-05-01T07:28:56.795Z</time></trkpt><trkpt lat="38.0529596" lon="13.5428211"><ele>32.0</ele><time>2026-05-01T07:28:57.796Z</time></trkpt><trkpt lat="38.0527715" lon="13.5431086"><ele>31.5</ele><time>2026-05-01T07:28:58.796Z</time></trkpt><trkpt lat="38.0525835" lon="13.5433939"><ele>31.0</ele><time>2026-05-01T07:28:59.796Z</time></trkpt><trkpt lat="38.052394" lon="13.5436816"><ele>40.0</ele><time>2026-05-01T07:29:00.796Z</time></trkpt><trkpt lat="38.0522068" lon="13.5439652"><ele>49.0</ele><time>2026-05-01T07:29:01.795Z</time></trkpt><trkpt lat="38.0520186" lon="13.5442555"><ele>49.0</ele><time>2026-05-01T07:29:02.796Z</time></trkpt><trkpt lat="38.0518322" lon="13.544542"><ele>49.0</ele><time>2026-05-01T07:29:03.796Z</time></trkpt><trkpt lat="38.0516429" lon="13.5448279"><ele>45.5</ele><time>2026-05-01T07:29:04.796Z</time></trkpt><trkpt lat="38.0514524" lon="13.5451145"><ele>42.0</ele><time>2026-05-01T07:29:05.796Z</time></trkpt><trkpt lat="38.0512575" lon="13.5453923"><ele>42.0</ele><time>2026-05-01T07:29:06.795Z</time></trkpt><trkpt lat="38.0510622" lon="13.5456745"><ele>42.0</ele><time>2026-05-01T07:29:07.796Z</time></trkpt><trkpt lat="38.0508716" lon="13.5459562"><ele>29.0</ele><time>2026-05-01T07:29:08.795Z</time></trkpt><trkpt lat="38.0506833" lon="13.5462425"><ele>16.0</ele><time>2026-05-01T07:29:09.795Z</time></trkpt><trkpt lat="38.0504977" lon="13.5465336"><ele>16.0</ele><time>2026-05-01T07:29:10.795Z</time></trkpt><trkpt lat="38.0503101" lon="13.5468186"><ele>16.0</ele><time>2026-05-01T07:29:11.795Z</time></trkpt><trkpt lat="38.050124" lon="13.5471051"><ele>13.0</ele><time>2026-05-01T07:29:12.795Z</time></trkpt><trkpt lat="38.0499369" lon="13.5473884"><ele>10.0</ele><time>2026-05-01T07:29:13.796Z</time></trkpt><trkpt lat="38.0497515" lon="13.5476725"><ele>11.5</ele><time>2026-05-01T07:29:14.795Z</time></trkpt><trkpt lat="38.0495634" lon="13.5479604"><ele>13.0</ele><time>2026-05-01T07:29:15.796Z</time></trkpt><trkpt lat="38.0493752" lon="13.5482497"><ele>13.0</ele><time>2026-05-01T07:29:16.795Z</time></trkpt><trkpt lat="38.0491866" lon="13.5485317"><ele>13.0</ele><time>2026-05-01T07:29:17.796Z</time></trkpt><trkpt lat="38.0489942" lon="13.5488162"><ele>18.0</ele><time>2026-05-01T07:29:18.795Z</time></trkpt><trkpt lat="38.0488031" lon="13.549098"><ele>23.0</ele><time>2026-05-01T07:29:19.796Z</time></trkpt><trkpt lat="38.0486113" lon="13.5493793"><ele>21.5</ele><time>2026-05-01T07:29:20.795Z</time></trkpt><trkpt lat="38.0484175" lon="13.5496553"><ele>20.0</ele><time>2026-05-01T07:29:21.796Z</time></trkpt><trkpt lat="38.0482192" lon="13.5499232"><ele>19.5</ele><time>2026-05-01T07:29:22.795Z</time></trkpt><trkpt lat="38.0480177" lon="13.5501904"><ele>19.0</ele><time>2026-05-01T07:29:23.795Z</time></trkpt><trkpt lat="38.0478121" lon="13.5504516"><ele>19.0</ele><time>2026-05-01T07:29:24.795Z</time></trkpt><trkpt lat="38.0476038" lon="13.550712"><ele>19.0</ele><time>2026-05-01T07:29:25.795Z</time></trkpt><trkpt lat="38.0473911" lon="13.550971"><ele>20.0</ele><time>2026-05-01T07:29:26.795Z</time></trkpt><trkpt lat="38.0471751" lon="13.551226"><ele>21.0</ele><time>2026-05-01T07:29:27.796Z</time></trkpt><trkpt lat="38.0469655" lon="13.5514854"><ele>21.0</ele><time>2026-05-01T07:29:28.796Z</time></trkpt><trkpt lat="38.0467534" lon="13.5517393"><ele>21.0</ele><time>2026-05-01T07:29:29.796Z</time></trkpt><trkpt lat="38.0465381" lon="13.5519978"><ele>22.0</ele><time>2026-05-01T07:29:30.795Z</time></trkpt><trkpt lat="38.046324" lon="13.5522532"><ele>23.0</ele><time>2026-05-01T07:29:31.796Z</time></trkpt><trkpt lat="38.0461122" lon="13.5525094"><ele>23.0</ele><time>2026-05-01T07:29:32.796Z</time></trkpt><trkpt lat="38.0458992" lon="13.5527658"><ele>23.0</ele><time>2026-05-01T07:29:33.796Z</time></trkpt><trkpt lat="38.0456862" lon="13.5530228"><ele>23.5</ele><time>2026-05-01T07:29:34.796Z</time></trkpt><trkpt lat="38.0454719" lon="13.5532778"><ele>24.0</ele><time>2026-05-01T07:29:35.796Z</time></trkpt><trkpt lat="38.0452603" lon="13.5535356"><ele>21.0</ele><time>2026-05-01T07:29:36.795Z</time></trkpt><trkpt lat="38.0450478" lon="13.5537887"><ele>18.0</ele><time>2026-05-01T07:29:37.796Z</time></trkpt><trkpt lat="38.044836" lon="13.5540444"><ele>21.5</ele><time>2026-05-01T07:29:38.795Z</time></trkpt><trkpt lat="38.0446262" lon="13.5542984"><ele>25.0</ele><time>2026-05-01T07:29:39.796Z</time></trkpt><trkpt lat="38.0444131" lon="13.5545528"><ele>25.0</ele><time>2026-05-01T07:29:40.795Z</time></trkpt><trkpt lat="38.0442039" lon="13.5548075"><ele>25.0</ele><time>2026-05-01T07:29:41.796Z</time></trkpt><trkpt lat="38.0439921" lon="13.55507"><ele>26.5</ele><time>2026-05-01T07:29:42.796Z</time></trkpt><trkpt lat="38.0437809" lon="13.5553258"><ele>28.0</ele><time>2026-05-01T07:29:43.796Z</time></trkpt><trkpt lat="38.0435712" lon="13.5555842"><ele>28.0</ele><time>2026-05-01T07:29:44.795Z</time></trkpt><trkpt lat="38.043358" lon="13.5558414"><ele>28.0</ele><time>2026-05-01T07:29:45.796Z</time></trkpt><trkpt lat="38.043151" lon="13.5561033"><ele>30.0</ele><time>2026-05-01T07:29:46.796Z</time></trkpt><trkpt lat="38.0429462" lon="13.5563745"><ele>32.0</ele><time>2026-05-01T07:29:47.795Z</time></trkpt><trkpt lat="38.0427521" lon="13.5566554"><ele>32.0</ele><time>2026-05-01T07:29:48.796Z</time></trkpt><trkpt lat="38.0425675" lon="13.5569437"><ele>32.0</ele><time>2026-05-01T07:29:49.795Z</time></trkpt><trkpt lat="38.0423869" lon="13.5572326"><ele>44.0</ele><time>2026-05-01T07:29:50.796Z</time></trkpt><trkpt lat="38.0422074" lon="13.5575244"><ele>56.0</ele><time>2026-05-01T07:29:51.795Z</time></trkpt><trkpt lat="38.0420246" lon="13.5578172"><ele>51.5</ele><time>2026-05-01T07:29:52.795Z</time></trkpt><trkpt lat="38.0418433" lon="13.5581115"><ele>47.0</ele><time>2026-05-01T07:29:53.796Z</time></trkpt><trkpt lat="38.0416573" lon="13.5584014"><ele>50.5</ele><time>2026-05-01T07:29:54.795Z</time></trkpt><trkpt lat="38.0414708" lon="13.558691"><ele>54.0</ele><time>2026-05-01T07:29:55.796Z</time></trkpt><trkpt lat="38.0412864" lon="13.5589813"><ele>46.5</ele><time>2026-05-01T07:29:56.796Z</time></trkpt><trkpt lat="38.0410991" lon="13.5592675"><ele>39.0</ele><time>2026-05-01T07:29:57.795Z</time></trkpt><trkpt lat="38.0409049" lon="13.5595476"><ele>47.0</ele><time>2026-05-01T07:29:58.796Z</time></trkpt><trkpt lat="38.0407092" lon="13.5598263"><ele>55.0</ele><time>2026-05-01T07:29:59.795Z</time></trkpt><trkpt lat="38.0405087" lon="13.5600995"><ele>55.0</ele><time>2026-05-01T07:30:00.796Z</time></trkpt><trkpt lat="38.0402999" lon="13.5603655"><ele>55.0</ele><time>2026-05-01T07:30:01.795Z</time></trkpt><trkpt lat="38.0400849" lon="13.5606216"><ele>59.0</ele><time>2026-05-01T07:30:02.795Z</time></trkpt><trkpt lat="38.0398656" lon="13.5608633"><ele>63.0</ele><time>2026-05-01T07:30:03.796Z</time></trkpt><trkpt lat="38.0396408" lon="13.5610981"><ele>57.0</ele><time>2026-05-01T07:30:04.796Z</time></trkpt><trkpt lat="38.0394104" lon="13.561323"><ele>51.0</ele><time>2026-05-01T07:30:05.795Z</time></trkpt><trkpt lat="38.0391761" lon="13.5615475"><ele>43.0</ele><time>2026-05-01T07:30:06.795Z</time></trkpt><trkpt lat="38.0389431" lon="13.5617681"><ele>35.0</ele><time>2026-05-01T07:30:07.796Z</time></trkpt><trkpt lat="38.0387044" lon="13.5619907"><ele>32.5</ele><time>2026-05-01T07:30:08.795Z</time></trkpt><trkpt lat="38.0384713" lon="13.5622098"><ele>30.0</ele><time>2026-05-01T07:30:09.795Z</time></trkpt><trkpt lat="38.0382337" lon="13.5624261"><ele>30.0</ele><time>2026-05-01T07:30:10.795Z</time></trkpt><trkpt lat="38.0379907" lon="13.5626302"><ele>30.0</ele><time>2026-05-01T07:30:11.795Z</time></trkpt><trkpt lat="38.0377423" lon="13.5628305"><ele>39.0</ele><time>2026-05-01T07:30:12.796Z</time></trkpt><trkpt lat="38.0374905" lon="13.5630161"><ele>48.0</ele><time>2026-05-01T07:30:13.795Z</time></trkpt><trkpt lat="38.0372349" lon="13.5631984"><ele>53.5</ele><time>2026-05-01T07:30:14.795Z</time></trkpt><trkpt lat="38.036976" lon="13.5633741"><ele>59.0</ele><time>2026-05-01T07:30:15.796Z</time></trkpt><trkpt lat="38.0367185" lon="13.5635567"><ele>63.5</ele><time>2026-05-01T07:30:16.796Z</time></trkpt><trkpt lat="38.0364665" lon="13.5637567"><ele>68.0</ele><time>2026-05-01T07:30:17.795Z</time></trkpt><trkpt lat="38.0362213" lon="13.5639624"><ele>68.0</ele><time>2026-05-01T07:30:18.796Z</time></trkpt><trkpt lat="38.0359825" lon="13.5641754"><ele>68.0</ele><time>2026-05-01T07:30:19.795Z</time></trkpt><trkpt lat="38.0357493" lon="13.5643983"><ele>70.0</ele><time>2026-05-01T07:30:20.796Z</time></trkpt><trkpt lat="38.0355186" lon="13.5646327"><ele>72.0</ele><time>2026-05-01T07:30:21.795Z</time></trkpt><trkpt lat="38.0352967" lon="13.5648739"><ele>72.0</ele><time>2026-05-01T07:30:22.796Z</time></trkpt><trkpt lat="38.0350807" lon="13.5651262"><ele>72.0</ele><time>2026-05-01T07:30:23.795Z</time></trkpt><trkpt lat="38.0348679" lon="13.5653869"><ele>72.5</ele><time>2026-05-01T07:30:24.796Z</time></trkpt><trkpt lat="38.0346659" lon="13.5656572"><ele>73.0</ele><time>2026-05-01T07:30:25.795Z</time></trkpt><trkpt lat="38.0344725" lon="13.5659296"><ele>73.0</ele><time>2026-05-01T07:30:26.796Z</time></trkpt><trkpt lat="38.0342857" lon="13.5662193"><ele>73.0</ele><time>2026-05-01T07:30:27.795Z</time></trkpt><trkpt lat="38.0341036" lon="13.5665122"><ele>73.5</ele><time>2026-05-01T07:30:28.795Z</time></trkpt><trkpt lat="38.0339306" lon="13.5668146"><ele>74.0</ele><time>2026-05-01T07:30:29.795Z</time></trkpt><trkpt lat="38.0337685" lon="13.5671249"><ele>74.0</ele><time>2026-05-01T07:30:30.796Z</time></trkpt><trkpt lat="38.0336074" lon="13.5674363"><ele>74.0</ele><time>2026-05-01T07:30:31.795Z</time></trkpt><trkpt lat="38.0334471" lon="13.5677462"><ele>76.0</ele><time>2026-05-01T07:30:32.795Z</time></trkpt><trkpt lat="38.0332847" lon="13.568054"><ele>78.0</ele><time>2026-05-01T07:30:33.795Z</time></trkpt><trkpt lat="38.0331241" lon="13.5683669"><ele>78.0</ele><time>2026-05-01T07:30:34.795Z</time></trkpt><trkpt lat="38.0329586" lon="13.5686777"><ele>78.0</ele><time>2026-05-01T07:30:35.796Z</time></trkpt><trkpt lat="38.0327958" lon="13.5689926"><ele>78.0</ele><time>2026-05-01T07:30:36.795Z</time></trkpt><trkpt lat="38.0326323" lon="13.569308"><ele>78.0</ele><time>2026-05-01T07:30:37.796Z</time></trkpt><trkpt lat="38.0324688" lon="13.5696189"><ele>78.0</ele><time>2026-05-01T07:30:38.796Z</time></trkpt><trkpt lat="38.0323035" lon="13.569928"><ele>78.0</ele><time>2026-05-01T07:30:39.795Z</time></trkpt><trkpt lat="38.0321393" lon="13.5702407"><ele>78.0</ele><time>2026-05-01T07:30:40.796Z</time></trkpt><trkpt lat="38.0319774" lon="13.5705462"><ele>78.0</ele><time>2026-05-01T07:30:41.796Z</time></trkpt><trkpt lat="38.0318149" lon="13.5708549"><ele>78.0</ele><time>2026-05-01T07:30:42.795Z</time></trkpt><trkpt lat="38.0316544" lon="13.5711654"><ele>78.0</ele><time>2026-05-01T07:30:43.796Z</time></trkpt><trkpt lat="38.0314923" lon="13.5714769"><ele>77.5</ele><time>2026-05-01T07:30:44.795Z</time></trkpt><trkpt lat="38.0313298" lon="13.571785"><ele>77.0</ele><time>2026-05-01T07:30:45.795Z</time></trkpt><trkpt lat="38.031167" lon="13.5720945"><ele>75.0</ele><time>2026-05-01T07:30:46.795Z</time></trkpt><trkpt lat="38.0310065" lon="13.5724135"><ele>73.0</ele><time>2026-05-01T07:30:47.795Z</time></trkpt><trkpt lat="38.030848" lon="13.5727253"><ele>75.5</ele><time>2026-05-01T07:30:48.795Z</time></trkpt><trkpt lat="38.0306866" lon="13.573033"><ele>78.0</ele><time>2026-05-01T07:30:49.796Z</time></trkpt><trkpt lat="38.0305248" lon="13.5733403"><ele>78.0</ele><time>2026-05-01T07:30:50.796Z</time></trkpt><trkpt lat="38.0303604" lon="13.573648"><ele>78.0</ele><time>2026-05-01T07:30:51.795Z</time></trkpt><trkpt lat="38.0301966" lon="13.5739604"><ele>78.5</ele><time>2026-05-01T07:30:52.796Z</time></trkpt><trkpt lat="38.0300353" lon="13.5742665"><ele>79.0</ele><time>2026-05-01T07:30:53.795Z</time></trkpt><trkpt lat="38.0298766" lon="13.5745741"><ele>81.0</ele><time>2026-05-01T07:30:54.795Z</time></trkpt><trkpt lat="38.0297137" lon="13.5748831"><ele>83.0</ele><time>2026-05-01T07:30:55.795Z</time></trkpt><trkpt lat="38.0295528" lon="13.5751917"><ele>81.5</ele><time>2026-05-01T07:30:56.795Z</time></trkpt><trkpt lat="38.0293906" lon="13.5754997"><ele>80.0</ele><time>2026-05-01T07:30:57.795Z</time></trkpt><trkpt lat="38.0292257" lon="13.5758094"><ele>82.0</ele><time>2026-05-01T07:30:58.796Z</time></trkpt><trkpt lat="38.0290622" lon="13.5761206"><ele>84.0</ele><time>2026-05-01T07:30:59.795Z</time></trkpt><trkpt lat="38.0288997" lon="13.5764295"><ele>84.0</ele><time>2026-05-01T07:31:00.795Z</time></trkpt><trkpt lat="38.0287397" lon="13.5767384"><ele>84.0</ele><time>2026-05-01T07:31:01.795Z</time></trkpt><trkpt lat="38.0285764" lon="13.5770482"><ele>83.0</ele><time>2026-05-01T07:31:02.796Z</time></trkpt><trkpt lat="38.0284106" lon="13.5773601"><ele>82.0</ele><time>2026-05-01T07:31:03.795Z</time></trkpt><trkpt lat="38.0282482" lon="13.577671"><ele>84.5</ele><time>2026-05-01T07:31:04.795Z</time></trkpt><trkpt lat="38.0280842" lon="13.577982"><ele>87.0</ele><time>2026-05-01T07:31:05.796Z</time></trkpt><trkpt lat="38.0279198" lon="13.5782915"><ele>87.0</ele><time>2026-05-01T07:31:06.795Z</time></trkpt><trkpt lat="38.0277576" lon="13.5786037"><ele>87.0</ele><time>2026-05-01T07:31:07.795Z</time></trkpt><trkpt lat="38.0275967" lon="13.5789081"><ele>89.5</ele><time>2026-05-01T07:31:08.795Z</time></trkpt><trkpt lat="38.0274356" lon="13.5792158"><ele>92.0</ele><time>2026-05-01T07:31:09.796Z</time></trkpt><trkpt lat="38.0272723" lon="13.5795252"><ele>92.0</ele><time>2026-05-01T07:31:10.796Z</time></trkpt><trkpt lat="38.0271103" lon="13.5798375"><ele>92.0</ele><time>2026-05-01T07:31:11.795Z</time></trkpt><trkpt lat="38.0269481" lon="13.5801503"><ele>92.5</ele><time>2026-05-01T07:31:12.795Z</time></trkpt><trkpt lat="38.0267854" lon="13.5804601"><ele>93.0</ele><time>2026-05-01T07:31:13.795Z</time></trkpt><trkpt lat="38.0266255" lon="13.5807686"><ele>95.0</ele><time>2026-05-01T07:31:14.795Z</time></trkpt><trkpt lat="38.0264633" lon="13.5810815"><ele>97.0</ele><time>2026-05-01T07:31:15.795Z</time></trkpt><trkpt lat="38.0262962" lon="13.5813912"><ele>97.5</ele><time>2026-05-01T07:31:16.795Z</time></trkpt><trkpt lat="38.0261307" lon="13.5817036"><ele>98.0</ele><time>2026-05-01T07:31:17.795Z</time></trkpt><trkpt lat="38.0259702" lon="13.5820111"><ele>98.5</ele><time>2026-05-01T07:31:18.796Z</time></trkpt><trkpt lat="38.0258146" lon="13.5823024"><ele>99.0</ele><time>2026-05-01T07:31:19.795Z</time></trkpt><trkpt lat="38.0256656" lon="13.5825922"><ele>101.5</ele><time>2026-05-01T07:31:20.796Z</time></trkpt><trkpt lat="38.0255107" lon="13.5828792"><ele>104.0</ele><time>2026-05-01T07:31:21.795Z</time></trkpt><trkpt lat="38.0253531" lon="13.5831704"><ele>104.0</ele><time>2026-05-01T07:31:22.795Z</time></trkpt><trkpt lat="38.0251989" lon="13.5834669"><ele>104.0</ele><time>2026-05-01T07:31:23.796Z</time></trkpt><trkpt lat="38.0250413" lon="13.5837686"><ele>107.0</ele><time>2026-05-01T07:31:24.796Z</time></trkpt><trkpt lat="38.0248822" lon="13.5840693"><ele>110.0</ele><time>2026-05-01T07:31:25.795Z</time></trkpt><trkpt lat="38.02472" lon="13.5843699"><ele>109.0</ele><time>2026-05-01T07:31:26.796Z</time></trkpt><trkpt lat="38.0245584" lon="13.5846758"><ele>108.0</ele><time>2026-05-01T07:31:27.795Z</time></trkpt><trkpt lat="38.0243933" lon="13.5849764"><ele>108.0</ele><time>2026-05-01T07:31:28.795Z</time></trkpt><trkpt lat="38.0242243" lon="13.5852803"><ele>108.0</ele><time>2026-05-01T07:31:29.796Z</time></trkpt><trkpt lat="38.0240641" lon="13.5855918"><ele>106.5</ele><time>2026-05-01T07:31:30.796Z</time></trkpt><trkpt lat="38.0239033" lon="13.5859005"><ele>105.0</ele><time>2026-05-01T07:31:31.796Z</time></trkpt><trkpt lat="38.0237447" lon="13.5862118"><ele>103.0</ele><time>2026-05-01T07:31:32.795Z</time></trkpt><trkpt lat="38.0235864" lon="13.586526"><ele>101.0</ele><time>2026-05-01T07:31:33.796Z</time></trkpt><trkpt lat="38.0234254" lon="13.5868359"><ele>99.5</ele><time>2026-05-01T07:31:34.795Z</time></trkpt><trkpt lat="38.0232629" lon="13.5871421"><ele>98.0</ele><time>2026-05-01T07:31:35.795Z</time></trkpt><trkpt lat="38.023107" lon="13.5874549"><ele>98.0</ele><time>2026-05-01T07:31:36.796Z</time></trkpt><trkpt lat="38.0229439" lon="13.5877612"><ele>98.0</ele><time>2026-05-01T07:31:37.795Z</time></trkpt><trkpt lat="38.0227819" lon="13.58807"><ele>96.5</ele><time>2026-05-01T07:31:38.795Z</time></trkpt><trkpt lat="38.0226153" lon="13.5883828"><ele>95.0</ele><time>2026-05-01T07:31:39.796Z</time></trkpt><trkpt lat="38.0224525" lon="13.5886929"><ele>93.5</ele><time>2026-05-01T07:31:40.795Z</time></trkpt><trkpt lat="38.0222895" lon="13.5890008"><ele>92.0</ele><time>2026-05-01T07:31:41.796Z</time></trkpt><trkpt lat="38.0221292" lon="13.5893132"><ele>95.0</ele><time>2026-05-01T07:31:42.795Z</time></trkpt><trkpt lat="38.0219713" lon="13.5896266"><ele>98.0</ele><time>2026-05-01T07:31:43.795Z</time></trkpt><trkpt lat="38.0218241" lon="13.5899458"><ele>98.0</ele><time>2026-05-01T07:31:44.796Z</time></trkpt><trkpt lat="38.0216826" lon="13.5902668"><ele>98.0</ele><time>2026-05-01T07:31:45.796Z</time></trkpt><trkpt lat="38.0215513" lon="13.5906028"><ele>105.0</ele><time>2026-05-01T07:31:46.796Z</time></trkpt><trkpt lat="38.021427" lon="13.5909407"><ele>112.0</ele><time>2026-05-01T07:31:47.796Z</time></trkpt><trkpt lat="38.0213091" lon="13.5912783"><ele>112.0</ele><time>2026-05-01T07:31:48.796Z</time></trkpt><trkpt lat="38.0212" lon="13.591619"><ele>112.0</ele><time>2026-05-01T07:31:49.796Z</time></trkpt><trkpt lat="38.0210992" lon="13.5919649"><ele>113.0</ele><time>2026-05-01T07:31:50.796Z</time></trkpt><trkpt lat="38.0210077" lon="13.5923199"><ele>114.0</ele><time>2026-05-01T07:31:51.796Z</time></trkpt><trkpt lat="38.0209265" lon="13.592676"><ele>114.5</ele><time>2026-05-01T07:31:52.795Z</time></trkpt><trkpt lat="38.020854" lon="13.5930427"><ele>115.0</ele><time>2026-05-01T07:31:53.795Z</time></trkpt><trkpt lat="38.0207928" lon="13.5934042"><ele>117.0</ele><time>2026-05-01T07:31:54.796Z</time></trkpt><trkpt lat="38.0207408" lon="13.5937724"><ele>119.0</ele><time>2026-05-01T07:31:55.795Z</time></trkpt><trkpt lat="38.0206957" lon="13.5941403"><ele>115.5</ele><time>2026-05-01T07:31:56.796Z</time></trkpt><trkpt lat="38.0206572" lon="13.5945142"><ele>112.0</ele><time>2026-05-01T07:31:57.796Z</time></trkpt><trkpt lat="38.0206217" lon="13.5948865"><ele>112.0</ele><time>2026-05-01T07:31:58.795Z</time></trkpt><trkpt lat="38.0205883" lon="13.5952579"><ele>112.0</ele><time>2026-05-01T07:31:59.796Z</time></trkpt><trkpt lat="38.0205465" lon="13.5956289"><ele>106.5</ele><time>2026-05-01T07:32:00.795Z</time></trkpt><trkpt lat="38.0204995" lon="13.5959989"><ele>101.0</ele><time>2026-05-01T07:32:01.795Z</time></trkpt><trkpt lat="38.0204608" lon="13.5963695"><ele>101.0</ele><time>2026-05-01T07:32:02.796Z</time></trkpt><trkpt lat="38.0204293" lon="13.5967371"><ele>101.0</ele><time>2026-05-01T07:32:03.795Z</time></trkpt><trkpt lat="38.0203918" lon="13.597108"><ele>103.5</ele><time>2026-05-01T07:32:04.795Z</time></trkpt><trkpt lat="38.0203559" lon="13.5974783"><ele>106.0</ele><time>2026-05-01T07:32:05.795Z</time></trkpt><trkpt lat="38.0203144" lon="13.5978451"><ele>106.0</ele><time>2026-05-01T07:32:06.805Z</time></trkpt><trkpt lat="38.0202604" lon="13.59821"><ele>106.0</ele><time>2026-05-01T07:32:07.804Z</time></trkpt><trkpt lat="38.020196" lon="13.5985731"><ele>105.0</ele><time>2026-05-01T07:32:08.804Z</time></trkpt><trkpt lat="38.0201181" lon="13.5989313"><ele>104.0</ele><time>2026-05-01T07:32:09.805Z</time></trkpt><trkpt lat="38.0200315" lon="13.5992881"><ele>108.0</ele><time>2026-05-01T07:32:10.805Z</time></trkpt><trkpt lat="38.0199349" lon="13.5996445"><ele>112.0</ele><time>2026-05-01T07:32:11.805Z</time></trkpt><trkpt lat="38.0198207" lon="13.5999928"><ele>109.5</ele><time>2026-05-01T07:32:12.805Z</time></trkpt><trkpt lat="38.0196988" lon="13.6003334"><ele>107.0</ele><time>2026-05-01T07:32:13.805Z</time></trkpt><trkpt lat="38.0195732" lon="13.6006676"><ele>107.0</ele><time>2026-05-01T07:32:14.805Z</time></trkpt><trkpt lat="38.0194493" lon="13.6009744"><ele>107.0</ele><time>2026-05-01T07:32:15.804Z</time></trkpt><trkpt lat="38.0193292" lon="13.6012507"><ele>102.5</ele><time>2026-05-01T07:32:16.804Z</time></trkpt><trkpt lat="38.0192094" lon="13.6015156"><ele>98.0</ele><time>2026-05-01T07:32:17.804Z</time></trkpt><trkpt lat="38.0190855" lon="13.6017697"><ele>94.0</ele><time>2026-05-01T07:32:18.805Z</time></trkpt><trkpt lat="38.0189543" lon="13.6020262"><ele>90.0</ele><time>2026-05-01T07:32:19.804Z</time></trkpt><trkpt lat="38.0188108" lon="13.60228"><ele>90.0</ele><time>2026-05-01T07:32:20.804Z</time></trkpt><trkpt lat="38.018665" lon="13.6025291"><ele>90.0</ele><time>2026-05-01T07:32:21.804Z</time></trkpt><trkpt lat="38.0185124" lon="13.6027719"><ele>89.5</ele><time>2026-05-01T07:32:22.804Z</time></trkpt><trkpt lat="38.0183606" lon="13.6030098"><ele>89.0</ele><time>2026-05-01T07:32:23.805Z</time></trkpt><trkpt lat="38.0181986" lon="13.603242"><ele>89.0</ele><time>2026-05-01T07:32:24.805Z</time></trkpt><trkpt lat="38.0180286" lon="13.6034772"><ele>89.0</ele><time>2026-05-01T07:32:25.804Z</time></trkpt><trkpt lat="38.0178475" lon="13.6037148"><ele>87.0</ele><time>2026-05-01T07:32:26.804Z</time></trkpt><trkpt lat="38.0176625" lon="13.603959"><ele>85.0</ele><time>2026-05-01T07:32:27.804Z</time></trkpt><trkpt lat="38.0174726" lon="13.6042059"><ele>85.0</ele><time>2026-05-01T07:32:28.804Z</time></trkpt><trkpt lat="38.0172816" lon="13.6044546"><ele>85.0</ele><time>2026-05-01T07:32:29.805Z</time></trkpt><trkpt lat="38.0170896" lon="13.6047104"><ele>82.0</ele><time>2026-05-01T07:32:30.804Z</time></trkpt><trkpt lat="38.0168953" lon="13.6049666"><ele>79.0</ele><time>2026-05-01T07:32:31.804Z</time></trkpt><trkpt lat="38.0166973" lon="13.6052255"><ele>80.5</ele><time>2026-05-01T07:32:32.805Z</time></trkpt><trkpt lat="38.0164929" lon="13.6054907"><ele>82.0</ele><time>2026-05-01T07:32:33.805Z</time></trkpt><trkpt lat="38.016288" lon="13.605753"><ele>82.0</ele><time>2026-05-01T07:32:34.804Z</time></trkpt><trkpt lat="38.0160776" lon="13.6060148"><ele>82.0</ele><time>2026-05-01T07:32:35.805Z</time></trkpt><trkpt lat="38.0158668" lon="13.6062747"><ele>81.0</ele><time>2026-05-01T07:32:36.804Z</time></trkpt><trkpt lat="38.0156589" lon="13.606538"><ele>80.0</ele><time>2026-05-01T07:32:37.805Z</time></trkpt><trkpt lat="38.0154547" lon="13.606809"><ele>78.5</ele><time>2026-05-01T07:32:38.804Z</time></trkpt><trkpt lat="38.0152502" lon="13.607076"><ele>77.0</ele><time>2026-05-01T07:32:39.804Z</time></trkpt><trkpt lat="38.0150453" lon="13.6073421"><ele>77.0</ele><time>2026-05-01T07:32:40.804Z</time></trkpt><trkpt lat="38.014842" lon="13.607613"><ele>77.0</ele><time>2026-05-01T07:32:41.804Z</time></trkpt><trkpt lat="38.0146388" lon="13.6078837"><ele>75.5</ele><time>2026-05-01T07:32:42.804Z</time></trkpt><trkpt lat="38.014442" lon="13.6081613"><ele>74.0</ele><time>2026-05-01T07:32:43.804Z</time></trkpt><trkpt lat="38.0142466" lon="13.6084421"><ele>69.0</ele><time>2026-05-01T07:32:44.804Z</time></trkpt><trkpt lat="38.014059" lon="13.6087289"><ele>64.0</ele><time>2026-05-01T07:32:45.805Z</time></trkpt><trkpt lat="38.0138741" lon="13.6090172"><ele>64.0</ele><time>2026-05-01T07:32:46.804Z</time></trkpt><trkpt lat="38.0136872" lon="13.60931"><ele>64.0</ele><time>2026-05-01T07:32:47.804Z</time></trkpt><trkpt lat="38.0135025" lon="13.6096031"><ele>67.5</ele><time>2026-05-01T07:32:48.804Z</time></trkpt><trkpt lat="38.0133212" lon="13.6098932"><ele>71.0</ele><time>2026-05-01T07:32:49.804Z</time></trkpt><trkpt lat="38.0131371" lon="13.6101784"><ele>68.5</ele><time>2026-05-01T07:32:50.805Z</time></trkpt><trkpt lat="38.0129548" lon="13.6104645"><ele>66.0</ele><time>2026-05-01T07:32:51.805Z</time></trkpt><trkpt lat="38.0127688" lon="13.6107529"><ele>66.0</ele><time>2026-05-01T07:32:52.804Z</time></trkpt><trkpt lat="38.0125845" lon="13.611047"><ele>66.0</ele><time>2026-05-01T07:32:53.804Z</time></trkpt><trkpt lat="38.0123999" lon="13.6113383"><ele>67.0</ele><time>2026-05-01T07:32:54.805Z</time></trkpt><trkpt lat="38.0122144" lon="13.6116243"><ele>68.0</ele><time>2026-05-01T07:32:55.805Z</time></trkpt><trkpt lat="38.0120305" lon="13.6119194"><ele>64.5</ele><time>2026-05-01T07:32:56.804Z</time></trkpt><trkpt lat="38.0118453" lon="13.6122119"><ele>61.0</ele><time>2026-05-01T07:32:57.804Z</time></trkpt><trkpt lat="38.0116592" lon="13.6125004"><ele>58.5</ele><time>2026-05-01T07:32:58.804Z</time></trkpt><trkpt lat="38.0114771" lon="13.6127926"><ele>56.0</ele><time>2026-05-01T07:32:59.805Z</time></trkpt><trkpt lat="38.0112915" lon="13.6130801"><ele>53.5</ele><time>2026-05-01T07:33:00.805Z</time></trkpt><trkpt lat="38.0111085" lon="13.613368"><ele>51.0</ele><time>2026-05-01T07:33:01.804Z</time></trkpt><trkpt lat="38.0109307" lon="13.6136558"><ele>53.0</ele><time>2026-05-01T07:33:02.804Z</time></trkpt><trkpt lat="38.0107501" lon="13.6139462"><ele>55.0</ele><time>2026-05-01T07:33:03.804Z</time></trkpt><trkpt lat="38.0105682" lon="13.6142373"><ele>53.0</ele><time>2026-05-01T07:33:04.805Z</time></trkpt><trkpt lat="38.0103814" lon="13.6145271"><ele>51.0</ele><time>2026-05-01T07:33:05.805Z</time></trkpt><trkpt lat="38.0101967" lon="13.6148189"><ele>51.0</ele><time>2026-05-01T07:33:06.804Z</time></trkpt><trkpt lat="38.0100107" lon="13.6151116"><ele>51.0</ele><time>2026-05-01T07:33:07.804Z</time></trkpt><trkpt lat="38.0098283" lon="13.615404"><ele>50.5</ele><time>2026-05-01T07:33:08.805Z</time></trkpt><trkpt lat="38.0096436" lon="13.6156943"><ele>50.0</ele><time>2026-05-01T07:33:09.804Z</time></trkpt><trkpt lat="38.0094571" lon="13.6159854"><ele>45.5</ele><time>2026-05-01T07:33:10.804Z</time></trkpt><trkpt lat="38.009272" lon="13.6162803"><ele>41.0</ele><time>2026-05-01T07:33:11.805Z</time></trkpt><trkpt lat="38.0090882" lon="13.6165748"><ele>38.5</ele><time>2026-05-01T07:33:12.805Z</time></trkpt><trkpt lat="38.008903" lon="13.616866"><ele>36.0</ele><time>2026-05-01T07:33:13.804Z</time></trkpt><trkpt lat="38.0087205" lon="13.617159"><ele>34.5</ele><time>2026-05-01T07:33:14.804Z</time></trkpt><trkpt lat="38.0085367" lon="13.6174488"><ele>33.0</ele><time>2026-05-01T07:33:15.804Z</time></trkpt><trkpt lat="38.0083493" lon="13.6177356"><ele>33.0</ele><time>2026-05-01T07:33:16.805Z</time></trkpt><trkpt lat="38.008164" lon="13.6180251"><ele>33.0</ele><time>2026-05-01T07:33:17.804Z</time></trkpt><trkpt lat="38.0079805" lon="13.6183165"><ele>33.0</ele><time>2026-05-01T07:33:18.804Z</time></trkpt><trkpt lat="38.0078004" lon="13.6186123"><ele>33.0</ele><time>2026-05-01T07:33:19.804Z</time></trkpt><trkpt lat="38.0076222" lon="13.6189095"><ele>33.0</ele><time>2026-05-01T07:33:20.805Z</time></trkpt><trkpt lat="38.0074426" lon="13.6192055"><ele>33.0</ele><time>2026-05-01T07:33:21.805Z</time></trkpt><trkpt lat="38.0072605" lon="13.6195018"><ele>33.0</ele><time>2026-05-01T07:33:22.804Z</time></trkpt><trkpt lat="38.0070705" lon="13.619816"><ele>33.0</ele><time>2026-05-01T07:33:23.804Z</time></trkpt><trkpt lat="38.0068716" lon="13.6201305"><ele>34.5</ele><time>2026-05-01T07:33:24.804Z</time></trkpt><trkpt lat="38.0066714" lon="13.6204476"><ele>36.0</ele><time>2026-05-01T07:33:25.804Z</time></trkpt><trkpt lat="38.0064718" lon="13.620763"><ele>36.0</ele><time>2026-05-01T07:33:26.804Z</time></trkpt><trkpt lat="38.0062731" lon="13.621081"><ele>36.0</ele><time>2026-05-01T07:33:27.804Z</time></trkpt><trkpt lat="38.0060805" lon="13.6214028"><ele>33.5</ele><time>2026-05-01T07:33:28.804Z</time></trkpt><trkpt lat="38.0058926" lon="13.6217328"><ele>31.0</ele><time>2026-05-01T07:33:29.805Z</time></trkpt><trkpt lat="38.0057106" lon="13.6220721"><ele>31.0</ele><time>2026-05-01T07:33:30.804Z</time></trkpt><trkpt lat="38.0055406" lon="13.6224155"><ele>31.0</ele><time>2026-05-01T07:33:31.804Z</time></trkpt><trkpt lat="38.0053778" lon="13.6227648"><ele>28.5</ele><time>2026-05-01T07:33:32.804Z</time></trkpt><trkpt lat="38.0052216" lon="13.6231167"><ele>26.0</ele><time>2026-05-01T07:33:33.805Z</time></trkpt><trkpt lat="38.0050747" lon="13.6234713"><ele>27.5</ele><time>2026-05-01T07:33:34.804Z</time></trkpt><trkpt lat="38.0049359" lon="13.6238291"><ele>29.0</ele><time>2026-05-01T07:33:35.805Z</time></trkpt><trkpt lat="38.0048038" lon="13.6241913"><ele>32.0</ele><time>2026-05-01T07:33:36.804Z</time></trkpt><trkpt lat="38.0046767" lon="13.6245575"><ele>35.0</ele><time>2026-05-01T07:33:37.805Z</time></trkpt><trkpt lat="38.0045541" lon="13.6249215"><ele>35.0</ele><time>2026-05-01T07:33:38.804Z</time></trkpt><trkpt lat="38.0044347" lon="13.6252838"><ele>35.0</ele><time>2026-05-01T07:33:39.805Z</time></trkpt><trkpt lat="38.0043167" lon="13.6256425"><ele>34.5</ele><time>2026-05-01T07:33:40.805Z</time></trkpt><trkpt lat="38.0042002" lon="13.626"><ele>34.0</ele><time>2026-05-01T07:33:41.804Z</time></trkpt><trkpt lat="38.0040831" lon="13.6263592"><ele>35.0</ele><time>2026-05-01T07:33:42.804Z</time></trkpt><trkpt lat="38.0039642" lon="13.6267319"><ele>36.0</ele><time>2026-05-01T07:33:43.805Z</time></trkpt><trkpt lat="38.0038442" lon="13.6271136"><ele>36.0</ele><time>2026-05-01T07:33:44.805Z</time></trkpt><trkpt lat="38.0037219" lon="13.6274993"><ele>36.0</ele><time>2026-05-01T07:33:45.804Z</time></trkpt><trkpt lat="38.0035952" lon="13.6278804"><ele>36.0</ele><time>2026-05-01T07:33:46.804Z</time></trkpt><trkpt lat="38.0034694" lon="13.6282473"><ele>36.0</ele><time>2026-05-01T07:33:47.805Z</time></trkpt><trkpt lat="38.0033417" lon="13.6286039"><ele>44.0</ele><time>2026-05-01T07:33:48.805Z</time></trkpt><trkpt lat="38.0032218" lon="13.6289544"><ele>52.0</ele><time>2026-05-01T07:33:49.805Z</time></trkpt><trkpt lat="38.0031032" lon="13.6292983"><ele>51.0</ele><time>2026-05-01T07:33:50.805Z</time></trkpt><trkpt lat="38.0029881" lon="13.6296424"><ele>50.0</ele><time>2026-05-01T07:33:51.804Z</time></trkpt><trkpt lat="38.0028713" lon="13.6299859"><ele>48.0</ele><time>2026-05-01T07:33:52.804Z</time></trkpt><trkpt lat="38.0027603" lon="13.6303266"><ele>46.0</ele><time>2026-05-01T07:33:53.804Z</time></trkpt><trkpt lat="38.002652" lon="13.6306656"><ele>46.0</ele><time>2026-05-01T07:33:54.805Z</time></trkpt><trkpt lat="38.0025421" lon="13.6310038"><ele>46.0</ele><time>2026-05-01T07:33:55.804Z</time></trkpt><trkpt lat="38.0024346" lon="13.6313374"><ele>46.5</ele><time>2026-05-01T07:33:56.804Z</time></trkpt><trkpt lat="38.002324" lon="13.6316694"><ele>47.0</ele><time>2026-05-01T07:33:57.804Z</time></trkpt><trkpt lat="38.0022138" lon="13.6320006"><ele>41.5</ele><time>2026-05-01T07:33:58.804Z</time></trkpt><trkpt lat="38.0021028" lon="13.6323297"><ele>36.0</ele><time>2026-05-01T07:33:59.804Z</time></trkpt><trkpt lat="38.0019942" lon="13.6326571"><ele>34.5</ele><time>2026-05-01T07:34:00.804Z</time></trkpt><trkpt lat="38.0018745" lon="13.6329908"><ele>33.0</ele><time>2026-05-01T07:34:01.804Z</time></trkpt><trkpt lat="38.0017457" lon="13.6333194"><ele>36.0</ele><time>2026-05-01T07:34:02.805Z</time></trkpt><trkpt lat="38.0016077" lon="13.6336444"><ele>39.0</ele><time>2026-05-01T07:34:03.805Z</time></trkpt><trkpt lat="38.0014618" lon="13.6339656"><ele>39.0</ele><time>2026-05-01T07:34:04.804Z</time></trkpt><trkpt lat="38.0013118" lon="13.6342839"><ele>39.0</ele><time>2026-05-01T07:34:05.805Z</time></trkpt><trkpt lat="38.0011542" lon="13.6345927"><ele>41.5</ele><time>2026-05-01T07:34:06.805Z</time></trkpt><trkpt lat="38.0009881" lon="13.6348976"><ele>44.0</ele><time>2026-05-01T07:34:07.804Z</time></trkpt><trkpt lat="38.000819" lon="13.6352017"><ele>46.0</ele><time>2026-05-01T07:34:08.804Z</time></trkpt><trkpt lat="38.0006516" lon="13.6355046"><ele>48.0</ele><time>2026-05-01T07:34:09.805Z</time></trkpt><trkpt lat="38.0004867" lon="13.6358106"><ele>48.0</ele><time>2026-05-01T07:34:10.805Z</time></trkpt><trkpt lat="38.0003232" lon="13.6361203"><ele>48.0</ele><time>2026-05-01T07:34:11.804Z</time></trkpt><trkpt lat="38.0001668" lon="13.6364318"><ele>47.5</ele><time>2026-05-01T07:34:12.805Z</time></trkpt><trkpt lat="38.000022" lon="13.6367537"><ele>47.0</ele><time>2026-05-01T07:34:13.805Z</time></trkpt><trkpt lat="37.9998875" lon="13.6370794"><ele>46.5</ele><time>2026-05-01T07:34:14.805Z</time></trkpt><trkpt lat="37.9997632" lon="13.637416"><ele>46.0</ele><time>2026-05-01T07:34:15.805Z</time></trkpt><trkpt lat="37.9996426" lon="13.6377542"><ele>44.5</ele><time>2026-05-01T07:34:16.805Z</time></trkpt><trkpt lat="37.9995308" lon="13.6380974"><ele>43.0</ele><time>2026-05-01T07:34:17.804Z</time></trkpt><trkpt lat="37.9994265" lon="13.6384454"><ele>42.0</ele><time>2026-05-01T07:34:18.805Z</time></trkpt><trkpt lat="37.9993307" lon="13.6387963"><ele>41.0</ele><time>2026-05-01T07:34:19.804Z</time></trkpt><trkpt lat="37.9992453" lon="13.6391488"><ele>41.5</ele><time>2026-05-01T07:34:20.805Z</time></trkpt><trkpt lat="37.99917" lon="13.639505"><ele>42.0</ele><time>2026-05-01T07:34:21.804Z</time></trkpt><trkpt lat="37.9991062" lon="13.6398639"><ele>53.0</ele><time>2026-05-01T07:34:22.804Z</time></trkpt><trkpt lat="37.9990457" lon="13.6402292"><ele>64.0</ele><time>2026-05-01T07:34:23.805Z</time></trkpt><trkpt lat="37.9989935" lon="13.6405938"><ele>64.0</ele><time>2026-05-01T07:34:24.804Z</time></trkpt><trkpt lat="37.9989469" lon="13.6409576"><ele>64.0</ele><time>2026-05-01T07:34:25.804Z</time></trkpt><trkpt lat="37.998894" lon="13.6413236"><ele>60.5</ele><time>2026-05-01T07:34:26.805Z</time></trkpt><trkpt lat="37.9988384" lon="13.6416884"><ele>57.0</ele><time>2026-05-01T07:34:27.805Z</time></trkpt><trkpt lat="37.9987675" lon="13.6420469"><ele>55.5</ele><time>2026-05-01T07:34:28.805Z</time></trkpt><trkpt lat="37.9986854" lon="13.6423999"><ele>54.0</ele><time>2026-05-01T07:34:29.804Z</time></trkpt><trkpt lat="37.9985947" lon="13.6427527"><ele>51.5</ele><time>2026-05-01T07:34:30.805Z</time></trkpt><trkpt lat="37.9984944" lon="13.6431023"><ele>49.0</ele><time>2026-05-01T07:34:31.804Z</time></trkpt><trkpt lat="37.9983843" lon="13.6434446"><ele>62.5</ele><time>2026-05-01T07:34:32.804Z</time></trkpt><trkpt lat="37.9982606" lon="13.6437815"><ele>76.0</ele><time>2026-05-01T07:34:33.805Z</time></trkpt><trkpt lat="37.9981283" lon="13.6441027"><ele>76.0</ele><time>2026-05-01T07:34:34.804Z</time></trkpt><trkpt lat="37.9979828" lon="13.6444241"><ele>76.0</ele><time>2026-05-01T07:34:35.805Z</time></trkpt><trkpt lat="37.997826" lon="13.6447392"><ele>72.0</ele><time>2026-05-01T07:34:36.805Z</time></trkpt><trkpt lat="37.9976598" lon="13.645051"><ele>68.0</ele><time>2026-05-01T07:34:37.805Z</time></trkpt><trkpt lat="37.9974876" lon="13.6453618"><ele>81.0</ele><time>2026-05-01T07:34:38.804Z</time></trkpt><trkpt lat="37.9973061" lon="13.6456673"><ele>94.0</ele><time>2026-05-01T07:34:39.805Z</time></trkpt><trkpt lat="37.9953293" lon="13.6482951"><ele>94.0</ele><time>2026-05-01T07:34:50.805Z</time></trkpt><trkpt lat="37.9952302" lon="13.6484815"><ele>94.0</ele><time>2026-05-01T07:34:51.804Z</time></trkpt><trkpt lat="37.9950801" lon="13.6486994"><ele>94.0</ele><time>2026-05-01T07:34:52.804Z</time></trkpt><trkpt lat="37.9949153" lon="13.648916"><ele>94.0</ele><time>2026-05-01T07:34:53.805Z</time></trkpt><trkpt lat="37.9947569" lon="13.6491329"><ele>94.0</ele><time>2026-05-01T07:34:54.804Z</time></trkpt><trkpt lat="37.9945951" lon="13.6493596"><ele>88.5</ele><time>2026-05-01T07:34:55.804Z</time></trkpt><trkpt lat="37.9944347" lon="13.6495847"><ele>83.0</ele><time>2026-05-01T07:34:56.805Z</time></trkpt><trkpt lat="37.9942739" lon="13.6498176"><ele>95.5</ele><time>2026-05-01T07:34:57.804Z</time></trkpt><trkpt lat="37.9941164" lon="13.650044"><ele>108.0</ele><time>2026-05-01T07:34:58.805Z</time></trkpt><trkpt lat="37.9939564" lon="13.6502694"><ele>109.0</ele><time>2026-05-01T07:34:59.804Z</time></trkpt><trkpt lat="37.9937956" lon="13.6504959"><ele>110.0</ele><time>2026-05-01T07:35:00.805Z</time></trkpt><trkpt lat="37.9916032" lon="13.6532539"><ele>111.5</ele><time>2026-05-01T07:35:12.804Z</time></trkpt><trkpt lat="37.9912692" lon="13.6535174"><ele>113.0</ele><time>2026-05-01T07:35:13.805Z</time></trkpt><trkpt lat="37.9910159" lon="13.6538246"><ele>110.0</ele><time>2026-05-01T07:35:14.804Z</time></trkpt><trkpt lat="37.9895673" lon="13.6547277"><ele>110.0</ele><time>2026-05-01T07:35:20.804Z</time></trkpt><trkpt lat="37.9893212" lon="13.6548507"><ele>110.0</ele><time>2026-05-01T07:35:21.805Z</time></trkpt><trkpt lat="37.9890476" lon="13.6549728"><ele>115.0</ele><time>2026-05-01T07:35:22.804Z</time></trkpt><trkpt lat="37.9887796" lon="13.6551092"><ele>120.0</ele><time>2026-05-01T07:35:23.804Z</time></trkpt><trkpt lat="37.9884978" lon="13.655223"><ele>114.0</ele><time>2026-05-01T07:35:24.804Z</time></trkpt><trkpt lat="37.9882151" lon="13.6553359"><ele>108.0</ele><time>2026-05-01T07:35:25.804Z</time></trkpt><trkpt lat="37.9879363" lon="13.6554583"><ele>108.0</ele><time>2026-05-01T07:35:26.805Z</time></trkpt><trkpt lat="37.9876683" lon="13.6555919"><ele>108.0</ele><time>2026-05-01T07:35:27.805Z</time></trkpt><trkpt lat="37.9874199" lon="13.6557324"><ele>115.5</ele><time>2026-05-01T07:35:28.804Z</time></trkpt><trkpt lat="37.9871918" lon="13.6558807"><ele>123.0</ele><time>2026-05-01T07:35:29.805Z</time></trkpt><trkpt lat="37.9869716" lon="13.6560304"><ele>119.0</ele><time>2026-05-01T07:35:30.804Z</time></trkpt><trkpt lat="37.9867635" lon="13.6561851"><ele>115.0</ele><time>2026-05-01T07:35:31.804Z</time></trkpt><trkpt lat="37.9865577" lon="13.6563397"><ele>115.0</ele><time>2026-05-01T07:35:32.804Z</time></trkpt><trkpt lat="37.9863561" lon="13.6565037"><ele>115.0</ele><time>2026-05-01T07:35:33.805Z</time></trkpt><trkpt lat="37.9861562" lon="13.6566722"><ele>115.0</ele><time>2026-05-01T07:35:34.804Z</time></trkpt><trkpt lat="37.9859656" lon="13.6568494"><ele>115.0</ele><time>2026-05-01T07:35:35.804Z</time></trkpt><trkpt lat="37.9857759" lon="13.6570455"><ele>117.5</ele><time>2026-05-01T07:35:36.805Z</time></trkpt><trkpt lat="37.9855926" lon="13.6572498"><ele>120.0</ele><time>2026-05-01T07:35:37.805Z</time></trkpt><trkpt lat="37.9854142" lon="13.657453"><ele>120.0</ele><time>2026-05-01T07:35:38.805Z</time></trkpt><trkpt lat="37.9852327" lon="13.6576584"><ele>120.0</ele><time>2026-05-01T07:35:39.805Z</time></trkpt><trkpt lat="37.9850547" lon="13.6578846"><ele>125.0</ele><time>2026-05-01T07:35:40.804Z</time></trkpt><trkpt lat="37.9848679" lon="13.6581228"><ele>130.0</ele><time>2026-05-01T07:35:41.804Z</time></trkpt><trkpt lat="37.9846874" lon="13.6583757"><ele>128.5</ele><time>2026-05-01T07:35:42.805Z</time></trkpt><trkpt lat="37.9845159" lon="13.6586239"><ele>127.0</ele><time>2026-05-01T07:35:43.804Z</time></trkpt><trkpt lat="37.9843507" lon="13.658886"><ele>127.0</ele><time>2026-05-01T07:35:44.805Z</time></trkpt><trkpt lat="37.9841849" lon="13.6591542"><ele>127.0</ele><time>2026-05-01T07:35:45.804Z</time></trkpt><trkpt lat="37.984023" lon="13.6594375"><ele>130.0</ele><time>2026-05-01T07:35:46.804Z</time></trkpt><trkpt lat="37.9838653" lon="13.6597304"><ele>133.0</ele><time>2026-05-01T07:35:47.805Z</time></trkpt><trkpt lat="37.9837173" lon="13.6600312"><ele>129.0</ele><time>2026-05-01T07:35:48.805Z</time></trkpt><trkpt lat="37.9835759" lon="13.6603354"><ele>125.0</ele><time>2026-05-01T07:35:49.804Z</time></trkpt><trkpt lat="37.9834392" lon="13.6606422"><ele>131.5</ele><time>2026-05-01T07:35:50.805Z</time></trkpt><trkpt lat="37.983312" lon="13.6609594"><ele>138.0</ele><time>2026-05-01T07:35:51.804Z</time></trkpt><trkpt lat="37.9831946" lon="13.6612787"><ele>138.0</ele><time>2026-05-01T07:35:52.805Z</time></trkpt><trkpt lat="37.9830828" lon="13.6616058"><ele>138.0</ele><time>2026-05-01T07:35:53.805Z</time></trkpt><trkpt lat="37.982983" lon="13.6619268"><ele>134.5</ele><time>2026-05-01T07:35:54.805Z</time></trkpt><trkpt lat="37.9829112" lon="13.6622752"><ele>131.0</ele><time>2026-05-01T07:35:55.804Z</time></trkpt><trkpt lat="37.9828453" lon="13.6626494"><ele>128.0</ele><time>2026-05-01T07:35:56.804Z</time></trkpt><trkpt lat="37.9827645" lon="13.6630122"><ele>125.0</ele><time>2026-05-01T07:35:57.804Z</time></trkpt><trkpt lat="37.9826826" lon="13.663384"><ele>124.0</ele><time>2026-05-01T07:35:58.804Z</time></trkpt><trkpt lat="37.9826005" lon="13.6637558"><ele>123.0</ele><time>2026-05-01T07:35:59.804Z</time></trkpt><trkpt lat="37.9825159" lon="13.664125"><ele>126.5</ele><time>2026-05-01T07:36:00.805Z</time></trkpt><trkpt lat="37.982433" lon="13.6644843"><ele>130.0</ele><time>2026-05-01T07:36:01.805Z</time></trkpt><trkpt lat="37.9823502" lon="13.6648442"><ele>130.0</ele><time>2026-05-01T07:36:02.804Z</time></trkpt><trkpt lat="37.9822613" lon="13.6652035"><ele>130.0</ele><time>2026-05-01T07:36:03.805Z</time></trkpt><trkpt lat="37.9821737" lon="13.6655622"><ele>128.0</ele><time>2026-05-01T07:36:04.805Z</time></trkpt><trkpt lat="37.9820898" lon="13.6659149"><ele>126.0</ele><time>2026-05-01T07:36:05.804Z</time></trkpt><trkpt lat="37.9819951" lon="13.6662731"><ele>125.0</ele><time>2026-05-01T07:36:06.804Z</time></trkpt><trkpt lat="37.9818949" lon="13.6666246"><ele>124.0</ele><time>2026-05-01T07:36:07.804Z</time></trkpt><trkpt lat="37.9817855" lon="13.6669737"><ele>126.5</ele><time>2026-05-01T07:36:08.805Z</time></trkpt><trkpt lat="37.9816699" lon="13.6673156"><ele>129.0</ele><time>2026-05-01T07:36:09.805Z</time></trkpt><trkpt lat="37.9815489" lon="13.6676559"><ele>127.0</ele><time>2026-05-01T07:36:10.805Z</time></trkpt><trkpt lat="37.9814168" lon="13.667988"><ele>125.0</ele><time>2026-05-01T07:36:11.804Z</time></trkpt><trkpt lat="37.9812815" lon="13.6683149"><ele>118.5</ele><time>2026-05-01T07:36:12.804Z</time></trkpt><trkpt lat="37.9811408" lon="13.6686399"><ele>112.0</ele><time>2026-05-01T07:36:13.805Z</time></trkpt><trkpt lat="37.9809995" lon="13.6689613"><ele>112.0</ele><time>2026-05-01T07:36:14.804Z</time></trkpt><trkpt lat="37.9808569" lon="13.6692843"><ele>112.0</ele><time>2026-05-01T07:36:15.804Z</time></trkpt><trkpt lat="37.9807111" lon="13.6696054"><ele>104.5</ele><time>2026-05-01T07:36:16.805Z</time></trkpt><trkpt lat="37.9805632" lon="13.6699266"><ele>97.0</ele><time>2026-05-01T07:36:17.804Z</time></trkpt><trkpt lat="37.9804158" lon="13.6702493"><ele>87.5</ele><time>2026-05-01T07:36:18.805Z</time></trkpt><trkpt lat="37.9802689" lon="13.6705699"><ele>78.0</ele><time>2026-05-01T07:36:19.805Z</time></trkpt><trkpt lat="37.980123" lon="13.6708958"><ele>79.0</ele><time>2026-05-01T07:36:20.804Z</time></trkpt><trkpt lat="37.979973" lon="13.6712144"><ele>80.0</ele><time>2026-05-01T07:36:21.804Z</time></trkpt><trkpt lat="37.9798272" lon="13.6715306"><ele>80.0</ele><time>2026-05-01T07:36:22.805Z</time></trkpt><trkpt lat="37.9796798" lon="13.6718498"><ele>80.0</ele><time>2026-05-01T07:36:23.805Z</time></trkpt><trkpt lat="37.9795313" lon="13.6721706"><ele>60.0</ele><time>2026-05-01T07:36:24.804Z</time></trkpt><trkpt lat="37.9793837" lon="13.6724921"><ele>40.0</ele><time>2026-05-01T07:36:25.805Z</time></trkpt><trkpt lat="37.979239" lon="13.6728123"><ele>51.5</ele><time>2026-05-01T07:36:26.804Z</time></trkpt><trkpt lat="37.9790933" lon="13.673135"><ele>63.0</ele><time>2026-05-01T07:36:27.804Z</time></trkpt><trkpt lat="37.9789471" lon="13.6734579"><ele>75.0</ele><time>2026-05-01T07:36:28.804Z</time></trkpt><trkpt lat="37.9788016" lon="13.6737838"><ele>87.0</ele><time>2026-05-01T07:36:29.805Z</time></trkpt><trkpt lat="37.9786537" lon="13.674105"><ele>87.0</ele><time>2026-05-01T07:36:30.804Z</time></trkpt><trkpt lat="37.9785057" lon="13.6744248"><ele>87.0</ele><time>2026-05-01T07:36:31.804Z</time></trkpt><trkpt lat="37.9783572" lon="13.6747477"><ele>89.5</ele><time>2026-05-01T07:36:32.804Z</time></trkpt><trkpt lat="37.9782094" lon="13.6750696"><ele>92.0</ele><time>2026-05-01T07:36:33.804Z</time></trkpt><trkpt lat="37.9780614" lon="13.6753924"><ele>92.0</ele><time>2026-05-01T07:36:34.805Z</time></trkpt><trkpt lat="37.9779132" lon="13.6757126"><ele>92.0</ele><time>2026-05-01T07:36:35.804Z</time></trkpt><trkpt lat="37.9777649" lon="13.6760342"><ele>88.5</ele><time>2026-05-01T07:36:36.804Z</time></trkpt><trkpt lat="37.977616" lon="13.6763603"><ele>85.0</ele><time>2026-05-01T07:36:37.804Z</time></trkpt><trkpt lat="37.9774671" lon="13.6766796"><ele>92.0</ele><time>2026-05-01T07:36:38.804Z</time></trkpt><trkpt lat="37.9773206" lon="13.6770045"><ele>99.0</ele><time>2026-05-01T07:36:39.804Z</time></trkpt><trkpt lat="37.9771782" lon="13.6773283"><ele>99.0</ele><time>2026-05-01T07:36:40.804Z</time></trkpt><trkpt lat="37.9770323" lon="13.6776514"><ele>99.0</ele><time>2026-05-01T07:36:41.805Z</time></trkpt><trkpt lat="37.9768856" lon="13.6779764"><ele>92.5</ele><time>2026-05-01T07:36:42.805Z</time></trkpt><trkpt lat="37.9767385" lon="13.6783036"><ele>86.0</ele><time>2026-05-01T07:36:43.805Z</time></trkpt><trkpt lat="37.9765895" lon="13.6786268"><ele>85.5</ele><time>2026-05-01T07:36:44.805Z</time></trkpt><trkpt lat="37.9764375" lon="13.6789516"><ele>85.0</ele><time>2026-05-01T07:36:45.804Z</time></trkpt><trkpt lat="37.9762904" lon="13.6792771"><ele>78.0</ele><time>2026-05-01T07:36:46.805Z</time></trkpt><trkpt lat="37.9761448" lon="13.6796014"><ele>71.0</ele><time>2026-05-01T07:36:47.804Z</time></trkpt><trkpt lat="37.9760024" lon="13.679924"><ele>71.0</ele><time>2026-05-01T07:36:48.804Z</time></trkpt><trkpt lat="37.9758553" lon="13.6802478"><ele>71.0</ele><time>2026-05-01T07:36:49.804Z</time></trkpt><trkpt lat="37.9757053" lon="13.6805702"><ele>77.0</ele><time>2026-05-01T07:36:50.804Z</time></trkpt><trkpt lat="37.9755583" lon="13.680891"><ele>83.0</ele><time>2026-05-01T07:36:51.805Z</time></trkpt><trkpt lat="37.9754142" lon="13.6812133"><ele>83.0</ele><time>2026-05-01T07:36:52.805Z</time></trkpt><trkpt lat="37.9752732" lon="13.6815381"><ele>83.0</ele><time>2026-05-01T07:36:53.804Z</time></trkpt><trkpt lat="37.975141" lon="13.6818702"><ele>92.0</ele><time>2026-05-01T07:36:54.805Z</time></trkpt><trkpt lat="37.9750146" lon="13.6822055"><ele>101.0</ele><time>2026-05-01T07:36:55.804Z</time></trkpt><trkpt lat="37.9748946" lon="13.6825388"><ele>102.0</ele><time>2026-05-01T07:36:56.805Z</time></trkpt><trkpt lat="37.9747763" lon="13.6828759"><ele>103.0</ele><time>2026-05-01T07:36:57.805Z</time></trkpt><trkpt lat="37.9736091" lon="13.6866391"><ele>85.0</ele><time>2026-05-01T07:37:08.804Z</time></trkpt><trkpt lat="37.9735538" lon="13.686971"><ele>67.0</ele><time>2026-05-01T07:37:09.805Z</time></trkpt><trkpt lat="37.973526" lon="13.6872572"><ele>67.0</ele><time>2026-05-01T07:37:10.805Z</time></trkpt><trkpt lat="37.9734916" lon="13.6875211"><ele>67.0</ele><time>2026-05-01T07:37:11.804Z</time></trkpt><trkpt lat="37.973462" lon="13.6877267"><ele>67.0</ele><time>2026-05-01T07:37:12.805Z</time></trkpt><trkpt lat="37.9734359" lon="13.6878618"><ele>67.0</ele><time>2026-05-01T07:37:13.804Z</time></trkpt><trkpt lat="37.9733784" lon="13.6879421"><ele>67.0</ele><time>2026-05-01T07:37:14.804Z</time></trkpt><trkpt lat="37.9732919" lon="13.688003"><ele>67.0</ele><time>2026-05-01T07:37:15.804Z</time></trkpt><trkpt lat="37.9731684" lon="13.6880376"><ele>67.0</ele><time>2026-05-01T07:37:16.804Z</time></trkpt><trkpt lat="37.9730307" lon="13.6880097"><ele>69.66666666666666</ele><time>2026-05-01T07:37:17.804Z</time></trkpt><trkpt lat="37.9728632" lon="13.6879237"><ele>72.33333333333333</ele><time>2026-05-01T07:37:18.805Z</time></trkpt><trkpt lat="37.9726763" lon="13.687756"><ele>75.0</ele><time>2026-05-01T07:37:19.804Z</time></trkpt><trkpt lat="37.9725062" lon="13.6875387"><ele>77.0</ele><time>2026-05-01T07:37:20.804Z</time></trkpt><trkpt lat="37.9723686" lon="13.6873235"><ele>79.0</ele><time>2026-05-01T07:37:21.804Z</time></trkpt><trkpt lat="37.9722569" lon="13.6871488"><ele>81.0</ele><time>2026-05-01T07:37:22.805Z</time></trkpt><trkpt lat="37.9721686" lon="13.6869806"><ele>79.66666666666667</ele><time>2026-05-01T07:37:23.804Z</time></trkpt><trkpt lat="37.9721012" lon="13.6867965"><ele>78.33333333333334</ele><time>2026-05-01T07:37:24.805Z</time></trkpt><trkpt lat="37.9720774" lon="13.6866048"><ele>77.0</ele><time>2026-05-01T07:37:25.805Z</time></trkpt><trkpt lat="37.972085" lon="13.6864013"><ele>77.0</ele><time>2026-05-01T07:37:26.804Z</time></trkpt><trkpt lat="37.9721127" lon="13.6862041"><ele>77.0</ele><time>2026-05-01T07:37:27.804Z</time></trkpt><trkpt lat="37.9721731" lon="13.6860208"><ele>77.0</ele><time>2026-05-01T07:37:28.804Z</time></trkpt><trkpt lat="37.97226" lon="13.6858619"><ele>77.0</ele><time>2026-05-01T07:37:29.804Z</time></trkpt><trkpt lat="37.9723659" lon="13.6857352"><ele>77.0</ele><time>2026-05-01T07:37:30.804Z</time></trkpt><trkpt lat="37.9724876" lon="13.6856291"><ele>77.0</ele><time>2026-05-01T07:37:31.804Z</time></trkpt><trkpt lat="37.9726212" lon="13.685548"><ele>77.0</ele><time>2026-05-01T07:37:32.804Z</time></trkpt><trkpt lat="37.9727564" lon="13.6854975"><ele>78.0</ele><time>2026-05-01T07:37:33.804Z</time></trkpt><trkpt lat="37.972897" lon="13.6854808"><ele>79.0</ele><time>2026-05-01T07:37:34.804Z</time></trkpt><trkpt lat="37.973026" lon="13.6854829"><ele>80.0</ele><time>2026-05-01T07:37:35.804Z</time></trkpt><trkpt lat="37.973147" lon="13.6855023"><ele>81.0</ele><time>2026-05-01T07:37:36.804Z</time></trkpt><trkpt lat="37.9732967" lon="13.6855618"><ele>84.0</ele><time>2026-05-01T07:37:37.805Z</time></trkpt><trkpt lat="37.9734755" lon="13.6856234"><ele>87.0</ele><time>2026-05-01T07:37:38.805Z</time></trkpt><trkpt lat="37.9736733" lon="13.685693"><ele>90.0</ele><time>2026-05-01T07:37:39.804Z</time></trkpt><trkpt lat="37.97389" lon="13.6857592"><ele>90.0</ele><time>2026-05-01T07:37:40.804Z</time></trkpt><trkpt lat="37.9741155" lon="13.6858318"><ele>90.0</ele><time>2026-05-01T07:37:41.804Z</time></trkpt><trkpt lat="37.9743467" lon="13.6859266"><ele>90.33333333333333</ele><time>2026-05-01T07:37:42.805Z</time></trkpt><trkpt lat="37.9745476" lon="13.6860506"><ele>90.66666666666666</ele><time>2026-05-01T07:37:43.804Z</time></trkpt><trkpt lat="37.9747226" lon="13.6861985"><ele>91.0</ele><time>2026-05-01T07:37:44.805Z</time></trkpt><trkpt lat="37.9748713" lon="13.6863571"><ele>91.0</ele><time>2026-05-01T07:37:45.805Z</time></trkpt><trkpt lat="37.9750034" lon="13.6865003"><ele>91.0</ele><time>2026-05-01T07:37:46.804Z</time></trkpt><trkpt lat="37.9751226" lon="13.6866218"><ele>91.0</ele><time>2026-05-01T07:37:47.805Z</time></trkpt><trkpt lat="37.9752255" lon="13.6867165"><ele>93.6</ele><time>2026-05-01T07:37:48.805Z</time></trkpt><trkpt lat="37.9753316" lon="13.6867821"><ele>96.19999999999999</ele><time>2026-05-01T07:37:49.804Z</time></trkpt><trkpt lat="37.9754314" lon="13.6868083"><ele>98.80000000000001</ele><time>2026-05-01T07:37:50.804Z</time></trkpt><trkpt lat="37.9755124" lon="13.6867742"><ele>101.4</ele><time>2026-05-01T07:37:51.805Z</time></trkpt><trkpt lat="37.975572" lon="13.6867217"><ele>104.0</ele><time>2026-05-01T07:37:52.805Z</time></trkpt><trkpt lat="37.9756144" lon="13.6866191"><ele>104.0</ele><time>2026-05-01T07:37:54.804Z</time></trkpt><trkpt lat="37.9756267" lon="13.6865335"><ele>104.0</ele><time>2026-05-01T07:37:55.805Z</time></trkpt><trkpt lat="37.9756245" lon="13.6864023"><ele>104.0</ele><time>2026-05-01T07:37:56.805Z</time></trkpt><trkpt lat="37.9755961" lon="13.68622"><ele>104.0</ele><time>2026-05-01T07:37:57.805Z</time></trkpt><trkpt lat="37.9755285" lon="13.6859879"><ele>105.5</ele><time>2026-05-01T07:37:58.804Z</time></trkpt><trkpt lat="37.9754402" lon="13.6856876"><ele>107.0</ele><time>2026-05-01T07:37:59.805Z</time></trkpt><trkpt lat="37.9753464" lon="13.6853642"><ele>102.0</ele><time>2026-05-01T07:38:00.805Z</time></trkpt><trkpt lat="37.9752539" lon="13.6850388"><ele>97.0</ele><time>2026-05-01T07:38:01.804Z</time></trkpt><trkpt lat="37.9751674" lon="13.6847217"><ele>98.5</ele><time>2026-05-01T07:38:02.805Z</time></trkpt><trkpt lat="37.9750778" lon="13.6844065"><ele>100.0</ele><time>2026-05-01T07:38:03.804Z</time></trkpt><trkpt lat="37.9749868" lon="13.684094"><ele>100.0</ele><time>2026-05-01T07:38:04.805Z</time></trkpt><trkpt lat="37.9749005" lon="13.6837839"><ele>100.0</ele><time>2026-05-01T07:38:05.804Z</time></trkpt><trkpt lat="37.9748148" lon="13.6834786"><ele>101.5</ele><time>2026-05-01T07:38:06.804Z</time></trkpt><trkpt lat="37.9747285" lon="13.6831768"><ele>103.0</ele><time>2026-05-01T07:38:07.805Z</time></trkpt><trkpt lat="37.9746464" lon="13.6828889"><ele>102.33333333333334</ele><time>2026-05-01T07:38:08.805Z</time></trkpt><trkpt lat="37.9745679" lon="13.6826249"><ele>101.66666666666666</ele><time>2026-05-01T07:38:09.805Z</time></trkpt><trkpt lat="37.9745112" lon="13.6823814"><ele>101.0</ele><time>2026-05-01T07:38:10.805Z</time></trkpt><trkpt lat="37.9744722" lon="13.6821506"><ele>101.66666666666666</ele><time>2026-05-01T07:38:11.804Z</time></trkpt><trkpt lat="37.9744671" lon="13.6819256"><ele>102.33333333333334</ele><time>2026-05-01T07:38:12.804Z</time></trkpt><trkpt lat="37.9744867" lon="13.6817068"><ele>103.0</ele><time>2026-05-01T07:38:13.804Z</time></trkpt><trkpt lat="37.9745304" lon="13.6815114"><ele>103.0</ele><time>2026-05-01T07:38:14.804Z</time></trkpt><trkpt lat="37.9745936" lon="13.6813536"><ele>103.0</ele><time>2026-05-01T07:38:15.805Z</time></trkpt><trkpt lat="37.9746857" lon="13.6812313"><ele>103.0</ele><time>2026-05-01T07:38:16.804Z</time></trkpt><trkpt lat="37.9747645" lon="13.6811029"><ele>103.0</ele><time>2026-05-01T07:38:17.805Z</time></trkpt><trkpt lat="37.9747876" lon="13.6809694"><ele>105.25</ele><time>2026-05-01T07:38:18.804Z</time></trkpt><trkpt lat="37.9747797" lon="13.6808098"><ele>107.5</ele><time>2026-05-01T07:38:19.805Z</time></trkpt><trkpt lat="37.9747296" lon="13.6806333"><ele>109.75</ele><time>2026-05-01T07:38:20.805Z</time></trkpt><trkpt lat="37.9746386" lon="13.6804653"><ele>112.0</ele><time>2026-05-01T07:38:21.805Z</time></trkpt><trkpt lat="37.9745274" lon="13.6802874"><ele>111.5</ele><time>2026-05-01T07:38:22.805Z</time></trkpt><trkpt lat="37.9744205" lon="13.6801154"><ele>111.0</ele><time>2026-05-01T07:38:23.805Z</time></trkpt><trkpt lat="37.9743356" lon="13.679954"><ele>110.5</ele><time>2026-05-01T07:38:24.804Z</time></trkpt><trkpt lat="37.9742858" lon="13.6798122"><ele>110.0</ele><time>2026-05-01T07:38:25.805Z</time></trkpt><trkpt lat="37.9742673" lon="13.6796592"><ele>109.99999999999999</ele><time>2026-05-01T07:38:26.804Z</time></trkpt><trkpt lat="37.9742878" lon="13.6795251"><ele>110.0</ele><time>2026-05-01T07:38:27.804Z</time></trkpt><trkpt lat="37.9743166" lon="13.6794081"><ele>110.0</ele><time>2026-05-01T07:38:28.805Z</time></trkpt><trkpt lat="37.9743096" lon="13.6793215"><ele>110.0</ele><time>2026-05-01T07:38:29.804Z</time></trkpt><trkpt lat="37.9742129" lon="13.6792583"><ele>109.99999999999999</ele><time>2026-05-01T07:38:31.804Z</time></trkpt><trkpt lat="37.9741585" lon="13.6793073"><ele>110.0</ele><time>2026-05-01T07:38:32.804Z</time></trkpt><trkpt lat="37.9741055" lon="13.6793878"><ele>112.49999999999999</ele><time>2026-05-01T07:38:33.804Z</time></trkpt><trkpt lat="37.9740593" lon="13.6794725"><ele>115.0</ele><time>2026-05-01T07:38:34.804Z</time></trkpt><trkpt lat="37.9740145" lon="13.679557"><ele>117.5</ele><time>2026-05-01T07:38:35.804Z</time></trkpt><trkpt lat="37.9739814" lon="13.6796681"><ele>120.0</ele><time>2026-05-01T07:38:36.804Z</time></trkpt><trkpt lat="37.973978" lon="13.6797816"><ele>122.49999999999999</ele><time>2026-05-01T07:38:37.805Z</time></trkpt><trkpt lat="37.9739955" lon="13.6798996"><ele>125.0</ele><time>2026-05-01T07:38:38.805Z</time></trkpt><trkpt lat="37.9740309" lon="13.6800278"><ele>125.0</ele><time>2026-05-01T07:38:39.805Z</time></trkpt><trkpt lat="37.9740491" lon="13.680157"><ele>125.0</ele><time>2026-05-01T07:38:40.805Z</time></trkpt><trkpt lat="37.9740201" lon="13.6802987"><ele>125.0</ele><time>2026-05-01T07:38:41.804Z</time></trkpt><trkpt lat="37.973967" lon="13.6804449"><ele>125.0</ele><time>2026-05-01T07:38:42.804Z</time></trkpt><trkpt lat="37.9738729" lon="13.6806126"><ele>125.66666666666666</ele><time>2026-05-01T07:38:43.805Z</time></trkpt><trkpt lat="37.9737548" lon="13.6807937"><ele>126.33333333333334</ele><time>2026-05-01T07:38:44.805Z</time></trkpt><trkpt lat="37.9736442" lon="13.6809663"><ele>127.0</ele><time>2026-05-01T07:38:45.805Z</time></trkpt><trkpt lat="37.9735686" lon="13.681149"><ele>125.33333333333334</ele><time>2026-05-01T07:38:46.804Z</time></trkpt><trkpt lat="37.9735289" lon="13.6813708"><ele>123.66666666666666</ele><time>2026-05-01T07:38:47.81Z</time></trkpt><trkpt lat="37.9735139" lon="13.6815845"><ele>122.0</ele><time>2026-05-01T07:38:48.81Z</time></trkpt><trkpt lat="37.9735022" lon="13.6817425"><ele>122.0</ele><time>2026-05-01T07:38:49.81Z</time></trkpt><trkpt lat="37.9734827" lon="13.6818497"><ele>121.99999999999999</ele><time>2026-05-01T07:38:50.81Z</time></trkpt><trkpt lat="37.9734" lon="13.6819326"><ele>121.99999999999999</ele><time>2026-05-01T07:38:52.81Z</time></trkpt><trkpt lat="37.9733445" lon="13.6818059"><ele>122.0</ele><time>2026-05-01T07:38:54.81Z</time></trkpt><trkpt lat="37.9733289" lon="13.6816417"><ele>122.0</ele><time>2026-05-01T07:38:55.81Z</time></trkpt><trkpt lat="37.9733008" lon="13.6814199"><ele>127.66666666666666</ele><time>2026-05-01T07:38:56.81Z</time></trkpt><trkpt lat="37.9732659" lon="13.6811682"><ele>133.33333333333334</ele><time>2026-05-01T07:38:57.811Z</time></trkpt><trkpt lat="37.973247" lon="13.6809143"><ele>139.0</ele><time>2026-05-01T07:38:58.811Z</time></trkpt><trkpt lat="37.9732802" lon="13.6806467"><ele>139.66666666666669</ele><time>2026-05-01T07:38:59.81Z</time></trkpt><trkpt lat="37.9733434" lon="13.68038"><ele>140.33333333333334</ele><time>2026-05-01T07:39:00.81Z</time></trkpt><trkpt lat="37.973391" lon="13.6801212"><ele>141.0</ele><time>2026-05-01T07:39:01.811Z</time></trkpt><trkpt lat="37.9734064" lon="13.6798596"><ele>144.66666666666666</ele><time>2026-05-01T07:39:02.81Z</time></trkpt><trkpt lat="37.9734006" lon="13.6796326"><ele>148.33333333333331</ele><time>2026-05-01T07:39:03.81Z</time></trkpt><trkpt lat="37.9733808" lon="13.6794363"><ele>152.0</ele><time>2026-05-01T07:39:04.81Z</time></trkpt><trkpt lat="37.9733344" lon="13.6792636"><ele>152.0</ele><time>2026-05-01T07:39:05.81Z</time></trkpt><trkpt lat="37.973281" lon="13.6791202"><ele>152.0</ele><time>2026-05-01T07:39:06.81Z</time></trkpt><trkpt lat="37.9732425" lon="13.6790035"><ele>152.0</ele><time>2026-05-01T07:39:07.81Z</time></trkpt><trkpt lat="37.9732246" lon="13.6788942"><ele>152.0</ele><time>2026-05-01T07:39:08.811Z</time></trkpt><trkpt lat="37.9732204" lon="13.6787806"><ele>152.0</ele><time>2026-05-01T07:39:09.81Z</time></trkpt><trkpt lat="37.9732323" lon="13.6786764"><ele>150.6</ele><time>2026-05-01T07:39:10.811Z</time></trkpt><trkpt lat="37.9732652" lon="13.6785817"><ele>149.2</ele><time>2026-05-01T07:39:11.81Z</time></trkpt><trkpt lat="37.9733156" lon="13.6784916"><ele>147.8</ele><time>2026-05-01T07:39:12.81Z</time></trkpt><trkpt lat="37.9733806" lon="13.6784042"><ele>146.4</ele><time>2026-05-01T07:39:13.81Z</time></trkpt><trkpt lat="37.9734624" lon="13.6783294"><ele>145.0</ele><time>2026-05-01T07:39:14.811Z</time></trkpt><trkpt lat="37.9735416" lon="13.6782638"><ele>145.0</ele><time>2026-05-01T07:39:15.81Z</time></trkpt><trkpt lat="37.9736182" lon="13.6781989"><ele>145.0</ele><time>2026-05-01T07:39:16.81Z</time></trkpt><trkpt lat="37.9736933" lon="13.6781344"><ele>145.0</ele><time>2026-05-01T07:39:17.81Z</time></trkpt><trkpt lat="37.9737714" lon="13.678073"><ele>145.0</ele><time>2026-05-01T07:39:18.81Z</time></trkpt><trkpt lat="37.9738586" lon="13.6780255"><ele>145.0</ele><time>2026-05-01T07:39:19.81Z</time></trkpt><trkpt lat="37.9739472" lon="13.6780117"><ele>145.0</ele><time>2026-05-01T07:39:20.81Z</time></trkpt><trkpt lat="37.9740311" lon="13.6780174"><ele>145.0</ele><time>2026-05-01T07:39:21.811Z</time></trkpt><trkpt lat="37.9741171" lon="13.6780151"><ele>145.0</ele><time>2026-05-01T07:39:22.81Z</time></trkpt><trkpt lat="37.9742037" lon="13.6780114"><ele>145.0</ele><time>2026-05-01T07:39:23.811Z</time></trkpt><trkpt lat="37.9742893" lon="13.6779982"><ele>145.0</ele><time>2026-05-01T07:39:24.81Z</time></trkpt><trkpt lat="37.9743749" lon="13.6779618"><ele>145.0</ele><time>2026-05-01T07:39:25.81Z</time></trkpt><trkpt lat="37.9744583" lon="13.6779145"><ele>148.0</ele><time>2026-05-01T07:39:26.81Z</time></trkpt><trkpt lat="37.9745385" lon="13.6778576"><ele>151.0</ele><time>2026-05-01T07:39:27.811Z</time></trkpt><trkpt lat="37.9746151" lon="13.6777693"><ele>154.0</ele><time>2026-05-01T07:39:28.81Z</time></trkpt><trkpt lat="37.9747041" lon="13.6776345"><ele>157.0</ele><time>2026-05-01T07:39:29.81Z</time></trkpt><trkpt lat="37.9748164" lon="13.6774737"><ele>157.0</ele><time>2026-05-01T07:39:30.811Z</time></trkpt><trkpt lat="37.9749555" lon="13.6772961"><ele>157.0</ele><time>2026-05-01T07:39:31.811Z</time></trkpt><trkpt lat="37.9750913" lon="13.6771316"><ele>157.0</ele><time>2026-05-01T07:39:32.81Z</time></trkpt><trkpt lat="37.9751978" lon="13.6769906"><ele>156.75</ele><time>2026-05-01T07:39:33.81Z</time></trkpt><trkpt lat="37.9752894" lon="13.6768693"><ele>156.5</ele><time>2026-05-01T07:39:34.81Z</time></trkpt><trkpt lat="37.9753612" lon="13.6767381"><ele>156.25</ele><time>2026-05-01T07:39:35.81Z</time></trkpt><trkpt lat="37.9754083" lon="13.6765564"><ele>156.0</ele><time>2026-05-01T07:39:36.81Z</time></trkpt><trkpt lat="37.9754447" lon="13.6763542"><ele>156.0</ele><time>2026-05-01T07:39:37.81Z</time></trkpt><trkpt lat="37.9754923" lon="13.676171"><ele>156.0</ele><time>2026-05-01T07:39:38.811Z</time></trkpt><trkpt lat="37.9755709" lon="13.6759947"><ele>156.0</ele><time>2026-05-01T07:39:39.811Z</time></trkpt><trkpt lat="37.9756825" lon="13.6758242"><ele>158.0</ele><time>2026-05-01T07:39:40.811Z</time></trkpt><trkpt lat="37.9758107" lon="13.6756704"><ele>160.0</ele><time>2026-05-01T07:39:41.81Z</time></trkpt><trkpt lat="37.9759535" lon="13.6755342"><ele>162.0</ele><time>2026-05-01T07:39:42.811Z</time></trkpt><trkpt lat="37.9761002" lon="13.6754376"><ele>162.0</ele><time>2026-05-01T07:39:43.81Z</time></trkpt><trkpt lat="37.9762565" lon="13.6753798"><ele>162.0</ele><time>2026-05-01T07:39:44.81Z</time></trkpt><trkpt lat="37.9764176" lon="13.6753678"><ele>162.0</ele><time>2026-05-01T07:39:45.811Z</time></trkpt><trkpt lat="37.9765598" lon="13.6754009"><ele>159.5</ele><time>2026-05-01T07:39:46.81Z</time></trkpt><trkpt lat="37.9766861" lon="13.6754365"><ele>157.0</ele><time>2026-05-01T07:39:47.81Z</time></trkpt><trkpt lat="37.9768004" lon="13.6754279"><ele>154.5</ele><time>2026-05-01T07:39:48.81Z</time></trkpt><trkpt lat="37.9768944" lon="13.6753617"><ele>152.0</ele><time>2026-05-01T07:39:49.811Z</time></trkpt><trkpt lat="37.9769596" lon="13.6752487"><ele>152.0</ele><time>2026-05-01T07:39:50.811Z</time></trkpt><trkpt lat="37.9769879" lon="13.6751261"><ele>152.0</ele><time>2026-05-01T07:39:51.811Z</time></trkpt><trkpt lat="37.9769623" lon="13.6749808"><ele>152.0</ele><time>2026-05-01T07:39:52.81Z</time></trkpt><trkpt lat="37.9768895" lon="13.6748487"><ele>152.0</ele><time>2026-05-01T07:39:53.81Z</time></trkpt><trkpt lat="37.9767925" lon="13.6747352"><ele>152.0</ele><time>2026-05-01T07:39:54.81Z</time></trkpt><trkpt lat="37.9766919" lon="13.6746462"><ele>152.0</ele><time>2026-05-01T07:39:55.81Z</time></trkpt><trkpt lat="37.9765792" lon="13.6745807"><ele>152.0</ele><time>2026-05-01T07:39:56.811Z</time></trkpt><trkpt lat="37.9764515" lon="13.6745429"><ele>152.0</ele><time>2026-05-01T07:39:57.81Z</time></trkpt><trkpt lat="37.9763059" lon="13.6745322"><ele>160.66666666666666</ele><time>2026-05-01T07:39:58.81Z</time></trkpt><trkpt lat="37.9761412" lon="13.6745387"><ele>169.33333333333334</ele><time>2026-05-01T07:39:59.81Z</time></trkpt><trkpt lat="37.9759774" lon="13.6745731"><ele>178.0</ele><time>2026-05-01T07:40:00.811Z</time></trkpt><trkpt lat="37.9758208" lon="13.6746357"><ele>178.5</ele><time>2026-05-01T07:40:01.81Z</time></trkpt><trkpt lat="37.9756719" lon="13.6747062"><ele>179.0</ele><time>2026-05-01T07:40:02.81Z</time></trkpt><trkpt lat="37.975539" lon="13.6747491"><ele>179.5</ele><time>2026-05-01T07:40:03.81Z</time></trkpt><trkpt lat="37.9754058" lon="13.6747394"><ele>180.0</ele><time>2026-05-01T07:40:04.811Z</time></trkpt><trkpt lat="37.9752746" lon="13.6746727"><ele>180.0</ele><time>2026-05-01T07:40:05.811Z</time></trkpt><trkpt lat="37.9751475" lon="13.6745636"><ele>180.0</ele><time>2026-05-01T07:40:06.81Z</time></trkpt><trkpt lat="37.9750397" lon="13.6744604"><ele>180.0</ele><time>2026-05-01T07:40:07.81Z</time></trkpt><trkpt lat="37.9749698" lon="13.6744059"><ele>180.0</ele><time>2026-05-01T07:40:08.811Z</time></trkpt><trkpt lat="37.9749036" lon="13.6743883"><ele>180.0</ele><time>2026-05-01T07:40:09.811Z</time></trkpt><trkpt lat="37.9748245" lon="13.674489"><ele>180.0</ele><time>2026-05-01T07:40:11.81Z</time></trkpt><trkpt lat="37.9748457" lon="13.6745731"><ele>180.0</ele><time>2026-05-01T07:40:12.81Z</time></trkpt><trkpt lat="37.9749176" lon="13.6746479"><ele>180.0</ele><time>2026-05-01T07:40:13.811Z</time></trkpt><trkpt lat="37.9749988" lon="13.6747289"><ele>180.0</ele><time>2026-05-01T07:40:14.81Z</time></trkpt><trkpt lat="37.9750577" lon="13.674824"><ele>180.0</ele><time>2026-05-01T07:40:15.811Z</time></trkpt><trkpt lat="37.9750812" lon="13.6749592"><ele>180.0</ele><time>2026-05-01T07:40:16.81Z</time></trkpt><trkpt lat="37.9750795" lon="13.6751334"><ele>180.0</ele><time>2026-05-01T07:40:17.81Z</time></trkpt><trkpt lat="37.975063" lon="13.6752962"><ele>180.0</ele><time>2026-05-01T07:40:18.81Z</time></trkpt><trkpt lat="37.9750111" lon="13.675418"><ele>180.0</ele><time>2026-05-01T07:40:19.81Z</time></trkpt><trkpt lat="37.9749385" lon="13.6755305"><ele>180.0</ele><time>2026-05-01T07:40:20.81Z</time></trkpt><trkpt lat="37.9748358" lon="13.6756551"><ele>180.0</ele><time>2026-05-01T07:40:21.811Z</time></trkpt><trkpt lat="37.974734" lon="13.6757894"><ele>180.0</ele><time>2026-05-01T07:40:22.81Z</time></trkpt><trkpt lat="37.9746584" lon="13.6759485"><ele>180.0</ele><time>2026-05-01T07:40:23.81Z</time></trkpt><trkpt lat="37.9746021" lon="13.6761151"><ele>180.0</ele><time>2026-05-01T07:40:24.811Z</time></trkpt><trkpt lat="37.974566" lon="13.6762539"><ele>180.0</ele><time>2026-05-01T07:40:25.811Z</time></trkpt><trkpt lat="37.9745157" lon="13.6763568"><ele>180.0</ele><time>2026-05-01T07:40:26.81Z</time></trkpt><trkpt lat="37.9744316" lon="13.6764189"><ele>180.0</ele><time>2026-05-01T07:40:27.811Z</time></trkpt><trkpt lat="37.9743225" lon="13.6764443"><ele>180.0</ele><time>2026-05-01T07:40:28.811Z</time></trkpt><trkpt lat="37.9741868" lon="13.676421"><ele>186.0</ele><time>2026-05-01T07:40:29.81Z</time></trkpt><trkpt lat="37.9740411" lon="13.67639"><ele>192.0</ele><time>2026-05-01T07:40:30.811Z</time></trkpt><trkpt lat="37.9738831" lon="13.6763958"><ele>198.0</ele><time>2026-05-01T07:40:31.81Z</time></trkpt><trkpt lat="37.9737058" lon="13.6764478"><ele>198.0</ele><time>2026-05-01T07:40:32.81Z</time></trkpt><trkpt lat="37.9735216" lon="13.6765253"><ele>198.0</ele><time>2026-05-01T07:40:33.811Z</time></trkpt><trkpt lat="37.9733567" lon="13.6765767"><ele>198.0</ele><time>2026-05-01T07:40:34.81Z</time></trkpt><trkpt lat="37.9732136" lon="13.6766061"><ele>196.0</ele><time>2026-05-01T07:40:35.81Z</time></trkpt><trkpt lat="37.973082" lon="13.6766361"><ele>194.0</ele><time>2026-05-01T07:40:36.81Z</time></trkpt><trkpt lat="37.9729604" lon="13.6766958"><ele>192.0</ele><time>2026-05-01T07:40:37.811Z</time></trkpt><trkpt lat="37.9728628" lon="13.6768097"><ele>190.0</ele><time>2026-05-01T07:40:38.81Z</time></trkpt><trkpt lat="37.9727682" lon="13.6769627"><ele>190.0</ele><time>2026-05-01T07:40:39.811Z</time></trkpt><trkpt lat="37.9726603" lon="13.677181"><ele>190.0</ele><time>2026-05-01T07:40:40.81Z</time></trkpt><trkpt lat="37.9725292" lon="13.6774359"><ele>190.0</ele><time>2026-05-01T07:40:41.811Z</time></trkpt><trkpt lat="37.9723829" lon="13.6776774"><ele>193.33333333333334</ele><time>2026-05-01T07:40:42.81Z</time></trkpt><trkpt lat="37.9722624" lon="13.6778921"><ele>196.66666666666669</ele><time>2026-05-01T07:40:43.81Z</time></trkpt><trkpt lat="37.9721847" lon="13.6781044"><ele>200.0</ele><time>2026-05-01T07:40:44.81Z</time></trkpt><trkpt lat="37.9721231" lon="13.6783051"><ele>200.0</ele><time>2026-05-01T07:40:45.81Z</time></trkpt><trkpt lat="37.9720691" lon="13.6784776"><ele>200.0</ele><time>2026-05-01T07:40:46.811Z</time></trkpt><trkpt lat="37.9720098" lon="13.6786235"><ele>200.0</ele><time>2026-05-01T07:40:47.81Z</time></trkpt><trkpt lat="37.9719452" lon="13.678712"><ele>200.0</ele><time>2026-05-01T07:40:48.811Z</time></trkpt><trkpt lat="37.9718824" lon="13.6787314"><ele>200.0</ele><time>2026-05-01T07:40:49.81Z</time></trkpt><trkpt lat="37.9717843" lon="13.6786527"><ele>200.0</ele><time>2026-05-01T07:40:51.811Z</time></trkpt><trkpt lat="37.9717751" lon="13.6785521"><ele>200.0</ele><time>2026-05-01T07:40:52.811Z</time></trkpt><trkpt lat="37.9717991" lon="13.6784259"><ele>200.0</ele><time>2026-05-01T07:40:53.811Z</time></trkpt><trkpt lat="37.9718516" lon="13.6782335"><ele>200.0</ele><time>2026-05-01T07:40:54.811Z</time></trkpt><trkpt lat="37.9719096" lon="13.6779842"><ele>204.0</ele><time>2026-05-01T07:40:55.81Z</time></trkpt><trkpt lat="37.9719437" lon="13.6777442"><ele>208.0</ele><time>2026-05-01T07:40:56.81Z</time></trkpt><trkpt lat="37.9719677" lon="13.6775008"><ele>212.0</ele><time>2026-05-01T07:40:57.811Z</time></trkpt><trkpt lat="37.9719977" lon="13.6772452"><ele>212.0</ele><time>2026-05-01T07:40:58.811Z</time></trkpt><trkpt lat="37.9720311" lon="13.6770032"><ele>212.0</ele><time>2026-05-01T07:40:59.81Z</time></trkpt><trkpt lat="37.9720557" lon="13.6767881"><ele>212.0</ele><time>2026-05-01T07:41:00.81Z</time></trkpt><trkpt lat="37.9720878" lon="13.6766053"><ele>215.0</ele><time>2026-05-01T07:41:01.81Z</time></trkpt><trkpt lat="37.9721386" lon="13.6764303"><ele>218.0</ele><time>2026-05-01T07:41:02.811Z</time></trkpt><trkpt lat="37.9722389" lon="13.6762415"><ele>221.0</ele><time>2026-05-01T07:41:03.811Z</time></trkpt><trkpt lat="37.9723829" lon="13.6760286"><ele>221.0</ele><time>2026-05-01T07:41:04.811Z</time></trkpt><trkpt lat="37.9725314" lon="13.6757982"><ele>221.0</ele><time>2026-05-01T07:41:05.811Z</time></trkpt><trkpt lat="37.9726662" lon="13.6755784"><ele>221.0</ele><time>2026-05-01T07:41:06.81Z</time></trkpt><trkpt lat="37.9727747" lon="13.675427"><ele>221.0</ele><time>2026-05-01T07:41:07.81Z</time></trkpt><trkpt lat="37.9728489" lon="13.6753348"><ele>221.0</ele><time>2026-05-01T07:41:08.81Z</time></trkpt><trkpt lat="37.9728887" lon="13.6752524"><ele>221.0</ele><time>2026-05-01T07:41:09.81Z</time></trkpt><trkpt lat="37.9728295" lon="13.6750965"><ele>222.5</ele><time>2026-05-01T07:41:11.81Z</time></trkpt><trkpt lat="37.9727542" lon="13.6751023"><ele>224.0</ele><time>2026-05-01T07:41:12.81Z</time></trkpt><trkpt lat="37.9726742" lon="13.6751322"><ele>225.5</ele><time>2026-05-01T07:41:13.811Z</time></trkpt><trkpt lat="37.972562" lon="13.6752386"><ele>227.0</ele><time>2026-05-01T07:41:14.81Z</time></trkpt><trkpt lat="37.9724174" lon="13.6753696"><ele>229.0</ele><time>2026-05-01T07:41:15.81Z</time></trkpt><trkpt lat="37.9721673" lon="13.6755457"><ele>231.0</ele><time>2026-05-01T07:41:16.81Z</time></trkpt><trkpt lat="37.9719155" lon="13.6757638"><ele>234.0</ele><time>2026-05-01T07:41:17.811Z</time></trkpt><trkpt lat="37.9716671" lon="13.6759868"><ele>237.0</ele><time>2026-05-01T07:41:18.81Z</time></trkpt><trkpt lat="37.9714491" lon="13.6761865"><ele>237.0</ele><time>2026-05-01T07:41:19.81Z</time></trkpt><trkpt lat="37.9712676" lon="13.6763632"><ele>237.0</ele><time>2026-05-01T07:41:20.81Z</time></trkpt><trkpt lat="37.9711237" lon="13.6764989"><ele>237.0</ele><time>2026-05-01T07:41:21.81Z</time></trkpt><trkpt lat="37.9710294" lon="13.6766481"><ele>237.0</ele><time>2026-05-01T07:41:22.81Z</time></trkpt><trkpt lat="37.9709589" lon="13.6768386"><ele>237.0</ele><time>2026-05-01T07:41:23.81Z</time></trkpt><trkpt lat="37.9709009" lon="13.6770702"><ele>237.0</ele><time>2026-05-01T07:41:24.811Z</time></trkpt><trkpt lat="37.9708455" lon="13.6773034"><ele>240.0</ele><time>2026-05-01T07:41:25.81Z</time></trkpt><trkpt lat="37.970799" lon="13.6774961"><ele>243.0</ele><time>2026-05-01T07:41:26.811Z</time></trkpt><trkpt lat="37.9707394" lon="13.6776297"><ele>246.0</ele><time>2026-05-01T07:41:27.81Z</time></trkpt><trkpt lat="37.9706566" lon="13.6777052"><ele>249.0</ele><time>2026-05-01T07:41:28.81Z</time></trkpt><trkpt lat="37.9705297" lon="13.6777434"><ele>248.0</ele><time>2026-05-01T07:41:29.811Z</time></trkpt><trkpt lat="37.9703653" lon="13.6777753"><ele>247.0</ele><time>2026-05-01T07:41:30.811Z</time></trkpt><trkpt lat="37.9701997" lon="13.6777957"><ele>246.0</ele><time>2026-05-01T07:41:31.811Z</time></trkpt><trkpt lat="37.9700471" lon="13.6777764"><ele>251.0</ele><time>2026-05-01T07:41:32.811Z</time></trkpt><trkpt lat="37.9698839" lon="13.6777273"><ele>256.0</ele><time>2026-05-01T07:41:33.811Z</time></trkpt><trkpt lat="37.9696993" lon="13.6777121"><ele>261.0</ele><time>2026-05-01T07:41:34.81Z</time></trkpt><trkpt lat="37.969484" lon="13.6777381"><ele>264.3333333333333</ele><time>2026-05-01T07:41:35.81Z</time></trkpt><trkpt lat="37.9692624" lon="13.6777713"><ele>267.66666666666663</ele><time>2026-05-01T07:41:36.81Z</time></trkpt><trkpt lat="37.9690718" lon="13.6777618"><ele>271.0</ele><time>2026-05-01T07:41:37.811Z</time></trkpt><trkpt lat="37.9688943" lon="13.6777023"><ele>271.0</ele><time>2026-05-01T07:41:38.811Z</time></trkpt><trkpt lat="37.9687209" lon="13.6776167"><ele>271.0</ele><time>2026-05-01T07:41:39.811Z</time></trkpt><trkpt lat="37.9685333" lon="13.6775593"><ele>271.0</ele><time>2026-05-01T07:41:40.81Z</time></trkpt><trkpt lat="37.96833" lon="13.6775436"><ele>270.66666666666663</ele><time>2026-05-01T07:41:41.811Z</time></trkpt><trkpt lat="37.9681231" lon="13.6775142"><ele>270.3333333333333</ele><time>2026-05-01T07:41:42.81Z</time></trkpt><trkpt lat="37.9679268" lon="13.6774525"><ele>270.0</ele><time>2026-05-01T07:41:43.81Z</time></trkpt><trkpt lat="37.9677506" lon="13.6773582"><ele>270.0</ele><time>2026-05-01T07:41:44.812Z</time></trkpt><trkpt lat="37.9676107" lon="13.6772528"><ele>270.0</ele><time>2026-05-01T07:41:45.811Z</time></trkpt><trkpt lat="37.9674964" lon="13.6771583"><ele>270.0</ele><time>2026-05-01T07:41:46.811Z</time></trkpt><trkpt lat="37.9673698" lon="13.6770962"><ele>270.0</ele><time>2026-05-01T07:41:47.811Z</time></trkpt><trkpt lat="37.967204" lon="13.6770319"><ele>269.25</ele><time>2026-05-01T07:41:48.811Z</time></trkpt><trkpt lat="37.9670391" lon="13.6769691"><ele>268.5</ele><time>2026-05-01T07:41:49.811Z</time></trkpt><trkpt lat="37.966895" lon="13.6769172"><ele>267.75</ele><time>2026-05-01T07:41:50.811Z</time></trkpt><trkpt lat="37.9667812" lon="13.6769019"><ele>267.0</ele><time>2026-05-01T07:41:51.811Z</time></trkpt><trkpt lat="37.9666817" lon="13.676943"><ele>268.2</ele><time>2026-05-01T07:41:52.811Z</time></trkpt><trkpt lat="37.9665911" lon="13.6770402"><ele>269.4</ele><time>2026-05-01T07:41:53.811Z</time></trkpt><trkpt lat="37.9665216" lon="13.6771556"><ele>270.6</ele><time>2026-05-01T07:41:54.812Z</time></trkpt><trkpt lat="37.9664473" lon="13.6772316"><ele>271.8</ele><time>2026-05-01T07:41:55.811Z</time></trkpt><trkpt lat="37.9663526" lon="13.6772426"><ele>273.0</ele><time>2026-05-01T07:41:56.812Z</time></trkpt><trkpt lat="37.9662545" lon="13.6771787"><ele>273.0</ele><time>2026-05-01T07:41:57.812Z</time></trkpt><trkpt lat="37.9661499" lon="13.6770599"><ele>273.0</ele><time>2026-05-01T07:41:58.811Z</time></trkpt><trkpt lat="37.9660378" lon="13.6768891"><ele>273.0</ele><time>2026-05-01T07:41:59.811Z</time></trkpt><trkpt lat="37.9659604" lon="13.6766821"><ele>281.6666666666667</ele><time>2026-05-01T07:42:00.811Z</time></trkpt><trkpt lat="37.9659262" lon="13.6764621"><ele>290.33333333333337</ele><time>2026-05-01T07:42:01.811Z</time></trkpt><trkpt lat="37.96593" lon="13.6762511"><ele>299.0</ele><time>2026-05-01T07:42:02.812Z</time></trkpt><trkpt lat="37.9659268" lon="13.6760605"><ele>297.6666666666667</ele><time>2026-05-01T07:42:03.811Z</time></trkpt><trkpt lat="37.9658755" lon="13.6758752"><ele>296.3333333333333</ele><time>2026-05-01T07:42:04.812Z</time></trkpt><trkpt lat="37.965788" lon="13.6756956"><ele>295.0</ele><time>2026-05-01T07:42:05.811Z</time></trkpt><trkpt lat="37.9656778" lon="13.6755146"><ele>295.0</ele><time>2026-05-01T07:42:06.811Z</time></trkpt><trkpt lat="37.9655588" lon="13.6753767"><ele>295.0</ele><time>2026-05-01T07:42:07.811Z</time></trkpt><trkpt lat="37.9654153" lon="13.675264"><ele>295.0</ele><time>2026-05-01T07:42:08.812Z</time></trkpt><trkpt lat="37.9652232" lon="13.6751906"><ele>297.3333333333333</ele><time>2026-05-01T07:42:09.812Z</time></trkpt><trkpt lat="37.965017" lon="13.6751329"><ele>299.6666666666667</ele><time>2026-05-01T07:42:10.811Z</time></trkpt><trkpt lat="37.9648247" lon="13.6750631"><ele>302.0</ele><time>2026-05-01T07:42:11.812Z</time></trkpt><trkpt lat="37.9646398" lon="13.6749418"><ele>302.0</ele><time>2026-05-01T07:42:12.811Z</time></trkpt><trkpt lat="37.9644576" lon="13.6747942"><ele>302.0</ele><time>2026-05-01T07:42:13.811Z</time></trkpt><trkpt lat="37.9642954" lon="13.6746434"><ele>302.0</ele><time>2026-05-01T07:42:14.811Z</time></trkpt><trkpt lat="37.964156" lon="13.6744471"><ele>304.33333333333337</ele><time>2026-05-01T07:42:15.812Z</time></trkpt><trkpt lat="37.9640178" lon="13.6742111"><ele>306.6666666666667</ele><time>2026-05-01T07:42:16.811Z</time></trkpt><trkpt lat="37.9638838" lon="13.6739981"><ele>309.0</ele><time>2026-05-01T07:42:17.811Z</time></trkpt><trkpt lat="37.963728" lon="13.6738477"><ele>309.0</ele><time>2026-05-01T07:42:18.811Z</time></trkpt><trkpt lat="37.9635828" lon="13.67374"><ele>309.0</ele><time>2026-05-01T07:42:19.811Z</time></trkpt><trkpt lat="37.9634816" lon="13.6736502"><ele>309.0</ele><time>2026-05-01T07:42:20.812Z</time></trkpt><trkpt lat="37.9634254" lon="13.6735353"><ele>309.0</ele><time>2026-05-01T07:42:21.811Z</time></trkpt><trkpt lat="37.9634129" lon="13.6733773"><ele>309.75</ele><time>2026-05-01T07:42:22.811Z</time></trkpt><trkpt lat="37.9634236" lon="13.6731852"><ele>310.5</ele><time>2026-05-01T07:42:23.812Z</time></trkpt><trkpt lat="37.9634091" lon="13.6730139"><ele>311.25</ele><time>2026-05-01T07:42:24.811Z</time></trkpt><trkpt lat="37.9633422" lon="13.6728824"><ele>312.0</ele><time>2026-05-01T07:42:25.811Z</time></trkpt><trkpt lat="37.9632269" lon="13.6727711"><ele>315.6666666666667</ele><time>2026-05-01T07:42:26.812Z</time></trkpt><trkpt lat="37.9630648" lon="13.6726612"><ele>319.33333333333337</ele><time>2026-05-01T07:42:27.812Z</time></trkpt><trkpt lat="37.9628693" lon="13.6725428"><ele>323.0</ele><time>2026-05-01T07:42:28.811Z</time></trkpt><trkpt lat="37.9626791" lon="13.6724471"><ele>323.0</ele><time>2026-05-01T07:42:29.811Z</time></trkpt><trkpt lat="37.9625346" lon="13.6724035"><ele>323.0</ele><time>2026-05-01T07:42:30.812Z</time></trkpt><trkpt lat="37.9624059" lon="13.6723845"><ele>323.0</ele><time>2026-05-01T07:42:31.811Z</time></trkpt><trkpt lat="37.9622982" lon="13.6723245"><ele>323.0</ele><time>2026-05-01T07:42:32.811Z</time></trkpt><trkpt lat="37.9622191" lon="13.6722262"><ele>324.6666666666667</ele><time>2026-05-01T07:42:33.811Z</time></trkpt><trkpt lat="37.9621655" lon="13.6720924"><ele>326.3333333333333</ele><time>2026-05-01T07:42:34.811Z</time></trkpt><trkpt lat="37.9621492" lon="13.6719136"><ele>328.0</ele><time>2026-05-01T07:42:35.812Z</time></trkpt><trkpt lat="37.9621549" lon="13.6716674"><ele>328.0</ele><time>2026-05-01T07:42:36.811Z</time></trkpt><trkpt lat="37.9621477" lon="13.6713893"><ele>328.0</ele><time>2026-05-01T07:42:37.811Z</time></trkpt><trkpt lat="37.9621179" lon="13.6711228"><ele>328.0</ele><time>2026-05-01T07:42:38.811Z</time></trkpt><trkpt lat="37.962068" lon="13.6708974"><ele>327.66666666666663</ele><time>2026-05-01T07:42:39.812Z</time></trkpt><trkpt lat="37.9619852" lon="13.670686"><ele>327.3333333333333</ele><time>2026-05-01T07:42:40.812Z</time></trkpt><trkpt lat="37.9618636" lon="13.6704746"><ele>327.0</ele><time>2026-05-01T07:42:41.812Z</time></trkpt><trkpt lat="37.9617131" lon="13.6702685"><ele>328.0</ele><time>2026-05-01T07:42:42.811Z</time></trkpt><trkpt lat="37.961541" lon="13.6700844"><ele>329.0</ele><time>2026-05-01T07:42:43.812Z</time></trkpt><trkpt lat="37.961363" lon="13.669931"><ele>330.0</ele><time>2026-05-01T07:42:44.812Z</time></trkpt><trkpt lat="37.9612014" lon="13.669828"><ele>330.0</ele><time>2026-05-01T07:42:45.811Z</time></trkpt><trkpt lat="37.9610413" lon="13.6697655"><ele>330.0</ele><time>2026-05-01T07:42:46.811Z</time></trkpt><trkpt lat="37.9608419" lon="13.669729"><ele>330.0</ele><time>2026-05-01T07:42:47.811Z</time></trkpt><trkpt lat="37.9605951" lon="13.6697311"><ele>329.0</ele><time>2026-05-01T07:42:48.811Z</time></trkpt><trkpt lat="37.9603187" lon="13.6697279"><ele>328.0</ele><time>2026-05-01T07:42:49.812Z</time></trkpt><trkpt lat="37.9600459" lon="13.6697152"><ele>329.3333333333333</ele><time>2026-05-01T07:42:50.811Z</time></trkpt><trkpt lat="37.959812" lon="13.6696943"><ele>330.6666666666667</ele><time>2026-05-01T07:42:51.811Z</time></trkpt><trkpt lat="37.9596078" lon="13.6696677"><ele>332.0</ele><time>2026-05-01T07:42:52.812Z</time></trkpt><trkpt lat="37.9594344" lon="13.6696084"><ele>332.0</ele><time>2026-05-01T07:42:53.811Z</time></trkpt><trkpt lat="37.9592751" lon="13.6694987"><ele>332.0</ele><time>2026-05-01T07:42:54.811Z</time></trkpt><trkpt lat="37.9591281" lon="13.6693483"><ele>332.0</ele><time>2026-05-01T07:42:55.811Z</time></trkpt><trkpt lat="37.9590091" lon="13.6691844"><ele>332.33333333333337</ele><time>2026-05-01T07:42:56.811Z</time></trkpt><trkpt lat="37.9589474" lon="13.6689884"><ele>332.6666666666667</ele><time>2026-05-01T07:42:57.811Z</time></trkpt><trkpt lat="37.9589095" lon="13.66877"><ele>333.0</ele><time>2026-05-01T07:42:58.812Z</time></trkpt><trkpt lat="37.9588648" lon="13.6685702"><ele>333.0</ele><time>2026-05-01T07:42:59.812Z</time></trkpt><trkpt lat="37.958785" lon="13.6684175"><ele>333.0</ele><time>2026-05-01T07:43:00.811Z</time></trkpt><trkpt lat="37.9586597" lon="13.6682952"><ele>333.0</ele><time>2026-05-01T07:43:01.811Z</time></trkpt><trkpt lat="37.9584838" lon="13.6681818"><ele>343.0</ele><time>2026-05-01T07:43:02.811Z</time></trkpt><trkpt lat="37.958264" lon="13.66807"><ele>353.0</ele><time>2026-05-01T07:43:03.812Z</time></trkpt><trkpt lat="37.9580226" lon="13.6679377"><ele>353.0</ele><time>2026-05-01T07:43:04.812Z</time></trkpt><trkpt lat="37.9578049" lon="13.6678073"><ele>353.0</ele><time>2026-05-01T07:43:05.812Z</time></trkpt><trkpt lat="37.957616" lon="13.6676705"><ele>353.0</ele><time>2026-05-01T07:43:06.812Z</time></trkpt><trkpt lat="37.9574361" lon="13.6674842"><ele>353.0</ele><time>2026-05-01T07:43:07.812Z</time></trkpt><trkpt lat="37.9572613" lon="13.667285"><ele>353.0</ele><time>2026-05-01T07:43:08.811Z</time></trkpt><trkpt lat="37.9571014" lon="13.6671152"><ele>353.0</ele><time>2026-05-01T07:43:09.811Z</time></trkpt><trkpt lat="37.9569803" lon="13.6669588"><ele>353.0</ele><time>2026-05-01T07:43:10.812Z</time></trkpt><trkpt lat="37.9569082" lon="13.6667697"><ele>351.33333333333337</ele><time>2026-05-01T07:43:11.812Z</time></trkpt><trkpt lat="37.9568612" lon="13.6665201"><ele>349.6666666666667</ele><time>2026-05-01T07:43:12.811Z</time></trkpt><trkpt lat="37.9567949" lon="13.6662551"><ele>348.0</ele><time>2026-05-01T07:43:13.811Z</time></trkpt><trkpt lat="37.9566736" lon="13.6659657"><ele>356.0</ele><time>2026-05-01T07:43:14.811Z</time></trkpt><trkpt lat="37.9565424" lon="13.665696"><ele>364.0</ele><time>2026-05-01T07:43:15.812Z</time></trkpt><trkpt lat="37.9564334" lon="13.6654595"><ele>364.0</ele><time>2026-05-01T07:43:16.811Z</time></trkpt><trkpt lat="37.9563516" lon="13.6652886"><ele>364.0</ele><time>2026-05-01T07:43:17.811Z</time></trkpt><trkpt lat="37.9562727" lon="13.6651794"><ele>364.0</ele><time>2026-05-01T07:43:18.811Z</time></trkpt><trkpt lat="37.956189" lon="13.6651239"><ele>364.0</ele><time>2026-05-01T07:43:19.812Z</time></trkpt><trkpt lat="37.9561002" lon="13.6651315"><ele>364.0</ele><time>2026-05-01T07:43:20.812Z</time></trkpt><trkpt lat="37.956016" lon="13.6652076"><ele>364.0</ele><time>2026-05-01T07:43:21.812Z</time></trkpt><trkpt lat="37.9559388" lon="13.6653465"><ele>364.0</ele><time>2026-05-01T07:43:22.811Z</time></trkpt><trkpt lat="37.9558395" lon="13.665566"><ele>364.0</ele><time>2026-05-01T07:43:23.811Z</time></trkpt><trkpt lat="37.9557338" lon="13.665801"><ele>366.66666666666663</ele><time>2026-05-01T07:43:24.812Z</time></trkpt><trkpt lat="37.9556134" lon="13.6660105"><ele>369.3333333333333</ele><time>2026-05-01T07:43:25.811Z</time></trkpt><trkpt lat="37.9554676" lon="13.6662017"><ele>372.0</ele><time>2026-05-01T07:43:26.812Z</time></trkpt><trkpt lat="37.9552704" lon="13.6663855"><ele>376.5</ele><time>2026-05-01T07:43:27.811Z</time></trkpt><trkpt lat="37.955034" lon="13.6665746"><ele>381.0</ele><time>2026-05-01T07:43:28.811Z</time></trkpt><trkpt lat="37.9548188" lon="13.6667515"><ele>381.0</ele><time>2026-05-01T07:43:29.811Z</time></trkpt><trkpt lat="37.9546464" lon="13.6668919"><ele>381.0</ele><time>2026-05-01T07:43:30.811Z</time></trkpt><trkpt lat="37.9545333" lon="13.6670218"><ele>381.0</ele><time>2026-05-01T07:43:31.811Z</time></trkpt><trkpt lat="37.9544242" lon="13.6671751"><ele>382.33333333333337</ele><time>2026-05-01T07:43:32.811Z</time></trkpt><trkpt lat="37.9543231" lon="13.6673851"><ele>383.6666666666667</ele><time>2026-05-01T07:43:33.811Z</time></trkpt><trkpt lat="37.9542029" lon="13.6676264"><ele>385.0</ele><time>2026-05-01T07:43:34.811Z</time></trkpt><trkpt lat="37.9540524" lon="13.6678628"><ele>389.5</ele><time>2026-05-01T07:43:35.812Z</time></trkpt><trkpt lat="37.9538694" lon="13.6680867"><ele>394.0</ele><time>2026-05-01T07:43:36.811Z</time></trkpt><trkpt lat="37.9536917" lon="13.6682843"><ele>394.0</ele><time>2026-05-01T07:43:37.811Z</time></trkpt><trkpt lat="37.9535367" lon="13.6684362"><ele>394.0</ele><time>2026-05-01T07:43:38.811Z</time></trkpt><trkpt lat="37.9534006" lon="13.668564"><ele>394.0</ele><time>2026-05-01T07:43:39.812Z</time></trkpt><trkpt lat="37.9532555" lon="13.6686591"><ele>399.33333333333337</ele><time>2026-05-01T07:43:40.811Z</time></trkpt><trkpt lat="37.9530807" lon="13.6687286"><ele>404.66666666666663</ele><time>2026-05-01T07:43:41.811Z</time></trkpt><trkpt lat="37.9528844" lon="13.6687816"><ele>410.0</ele><time>2026-05-01T07:43:42.812Z</time></trkpt><trkpt lat="37.9526868" lon="13.668847"><ele>410.0</ele><time>2026-05-01T07:43:43.811Z</time></trkpt><trkpt lat="37.9525162" lon="13.6689354"><ele>410.0</ele><time>2026-05-01T07:43:44.812Z</time></trkpt><trkpt lat="37.9523748" lon="13.6690216"><ele>410.0</ele><time>2026-05-01T07:43:45.811Z</time></trkpt><trkpt lat="37.9522474" lon="13.6691048"><ele>410.0</ele><time>2026-05-01T07:43:46.811Z</time></trkpt><trkpt lat="37.9521325" lon="13.6692141"><ele>410.0</ele><time>2026-05-01T07:43:47.811Z</time></trkpt><trkpt lat="37.9520284" lon="13.6693395"><ele>410.0</ele><time>2026-05-01T07:43:48.811Z</time></trkpt><trkpt lat="37.9519293" lon="13.6694546"><ele>410.0</ele><time>2026-05-01T07:43:49.812Z</time></trkpt><trkpt lat="37.9518422" lon="13.6695475"><ele>412.2</ele><time>2026-05-01T07:43:50.812Z</time></trkpt><trkpt lat="37.9517548" lon="13.6696205"><ele>414.4</ele><time>2026-05-01T07:43:51.811Z</time></trkpt><trkpt lat="37.9516585" lon="13.6696655"><ele>416.6</ele><time>2026-05-01T07:43:52.812Z</time></trkpt><trkpt lat="37.9515594" lon="13.6697002"><ele>418.8</ele><time>2026-05-01T07:43:53.812Z</time></trkpt><trkpt lat="37.9514743" lon="13.6697345"><ele>421.0</ele><time>2026-05-01T07:43:54.811Z</time></trkpt><trkpt lat="37.9513949" lon="13.6697594"><ele>421.0</ele><time>2026-05-01T07:43:55.812Z</time></trkpt><trkpt lat="37.9513111" lon="13.669785"><ele>421.0</ele><time>2026-05-01T07:43:56.812Z</time></trkpt><trkpt lat="37.9512239" lon="13.669795"><ele>421.0</ele><time>2026-05-01T07:43:57.812Z</time></trkpt><trkpt lat="37.9511371" lon="13.6697703"><ele>421.0</ele><time>2026-05-01T07:43:58.812Z</time></trkpt><trkpt lat="37.9510447" lon="13.6696905"><ele>421.0</ele><time>2026-05-01T07:43:59.811Z</time></trkpt><trkpt lat="37.9509813" lon="13.6695912"><ele>421.0</ele><time>2026-05-01T07:44:00.812Z</time></trkpt><trkpt lat="37.9509327" lon="13.6695104"><ele>421.0</ele><time>2026-05-01T07:44:01.811Z</time></trkpt><trkpt lat="37.9508747" lon="13.6694366"><ele>421.0</ele><time>2026-05-01T07:44:02.812Z</time></trkpt><trkpt lat="37.9507964" lon="13.6693683"><ele>421.0</ele><time>2026-05-01T07:44:03.811Z</time></trkpt><trkpt lat="37.9507048" lon="13.6693383"><ele>421.0</ele><time>2026-05-01T07:44:04.811Z</time></trkpt><trkpt lat="37.9506" lon="13.6693391"><ele>422.0</ele><time>2026-05-01T07:44:05.811Z</time></trkpt><trkpt lat="37.9504899" lon="13.6693809"><ele>423.0</ele><time>2026-05-01T07:44:06.811Z</time></trkpt><trkpt lat="37.9503525" lon="13.6694389"><ele>424.0</ele><time>2026-05-01T07:44:07.811Z</time></trkpt><trkpt lat="37.9502075" lon="13.6694951"><ele>425.0</ele><time>2026-05-01T07:44:08.812Z</time></trkpt><trkpt lat="37.9500696" lon="13.6695421"><ele>426.75</ele><time>2026-05-01T07:44:09.811Z</time></trkpt><trkpt lat="37.9499532" lon="13.669584"><ele>428.5</ele><time>2026-05-01T07:44:10.811Z</time></trkpt><trkpt lat="37.949842" lon="13.6695956"><ele>430.25</ele><time>2026-05-01T07:44:11.812Z</time></trkpt><trkpt lat="37.9497305" lon="13.6695552"><ele>432.0</ele><time>2026-05-01T07:44:12.811Z</time></trkpt><trkpt lat="37.9496275" lon="13.6694703"><ele>426.66666666666663</ele><time>2026-05-01T07:44:13.811Z</time></trkpt><trkpt lat="37.9495236" lon="13.6693508"><ele>421.3333333333333</ele><time>2026-05-01T07:44:14.811Z</time></trkpt><trkpt lat="37.9493995" lon="13.6692354"><ele>416.0</ele><time>2026-05-01T07:44:15.811Z</time></trkpt><trkpt lat="37.9492321" lon="13.6691371"><ele>418.66666666666663</ele><time>2026-05-01T07:44:16.812Z</time></trkpt><trkpt lat="37.9490408" lon="13.6690582"><ele>421.33333333333337</ele><time>2026-05-01T07:44:17.811Z</time></trkpt><trkpt lat="37.948838" lon="13.6689629"><ele>424.0</ele><time>2026-05-01T07:44:18.812Z</time></trkpt><trkpt lat="37.9486297" lon="13.6688365"><ele>424.0</ele><time>2026-05-01T07:44:19.812Z</time></trkpt><trkpt lat="37.9484015" lon="13.6686682"><ele>424.0</ele><time>2026-05-01T07:44:20.811Z</time></trkpt><trkpt lat="37.9481648" lon="13.6684839"><ele>420.5</ele><time>2026-05-01T07:44:21.812Z</time></trkpt><trkpt lat="37.9479517" lon="13.6682874"><ele>417.0</ele><time>2026-05-01T07:44:22.812Z</time></trkpt><trkpt lat="37.9477695" lon="13.6680901"><ele>417.0</ele><time>2026-05-01T07:44:23.811Z</time></trkpt><trkpt lat="37.9475948" lon="13.6679028"><ele>417.0</ele><time>2026-05-01T07:44:24.812Z</time></trkpt><trkpt lat="37.9474036" lon="13.6677279"><ele>417.0</ele><time>2026-05-01T07:44:25.811Z</time></trkpt><trkpt lat="37.9471786" lon="13.6675724"><ele>417.0</ele><time>2026-05-01T07:44:26.811Z</time></trkpt><trkpt lat="37.9469582" lon="13.6674355"><ele>417.0</ele><time>2026-05-01T07:44:27.811Z</time></trkpt><trkpt lat="37.9467422" lon="13.6673078"><ele>417.0</ele><time>2026-05-01T07:44:28.812Z</time></trkpt><trkpt lat="37.946502" lon="13.6672048"><ele>424.0</ele><time>2026-05-01T07:44:29.811Z</time></trkpt><trkpt lat="37.9462604" lon="13.6671369"><ele>431.0</ele><time>2026-05-01T07:44:30.812Z</time></trkpt><trkpt lat="37.9460622" lon="13.6670882"><ele>438.0</ele><time>2026-05-01T07:44:31.811Z</time></trkpt><trkpt lat="37.9459289" lon="13.6670349"><ele>436.79999999999995</ele><time>2026-05-01T07:44:32.811Z</time></trkpt><trkpt lat="37.945854" lon="13.6669669"><ele>435.59999999999997</ele><time>2026-05-01T07:44:33.811Z</time></trkpt><trkpt lat="37.9458078" lon="13.666892"><ele>434.40000000000003</ele><time>2026-05-01T07:44:34.811Z</time></trkpt><trkpt lat="37.9457922" lon="13.6667738"><ele>433.20000000000005</ele><time>2026-05-01T07:44:35.811Z</time></trkpt><trkpt lat="37.9458155" lon="13.6666233"><ele>432.0</ele><time>2026-05-01T07:44:36.811Z</time></trkpt><trkpt lat="37.9458258" lon="13.6664733"><ele>432.0</ele><time>2026-05-01T07:44:37.812Z</time></trkpt><trkpt lat="37.9457844" lon="13.6663398"><ele>432.0</ele><time>2026-05-01T07:44:38.811Z</time></trkpt><trkpt lat="37.9457034" lon="13.6662092"><ele>432.0</ele><time>2026-05-01T07:44:39.811Z</time></trkpt><trkpt lat="37.9456108" lon="13.6660817"><ele>432.0</ele><time>2026-05-01T07:44:40.812Z</time></trkpt><trkpt lat="37.9455152" lon="13.6659588"><ele>431.75</ele><time>2026-05-01T07:44:41.811Z</time></trkpt><trkpt lat="37.9454484" lon="13.6658243"><ele>431.5</ele><time>2026-05-01T07:44:42.812Z</time></trkpt><trkpt lat="37.9454313" lon="13.6656471"><ele>431.25</ele><time>2026-05-01T07:44:43.811Z</time></trkpt><trkpt lat="37.9454433" lon="13.6654437"><ele>431.0</ele><time>2026-05-01T07:44:44.812Z</time></trkpt><trkpt lat="37.9454499" lon="13.665262"><ele>431.5</ele><time>2026-05-01T07:44:45.811Z</time></trkpt><trkpt lat="37.9454006" lon="13.665097"><ele>432.0</ele><time>2026-05-01T07:44:46.811Z</time></trkpt><trkpt lat="37.9453112" lon="13.6649618"><ele>432.5</ele><time>2026-05-01T07:44:47.812Z</time></trkpt><trkpt lat="37.9451836" lon="13.6648617"><ele>433.0</ele><time>2026-05-01T07:44:48.812Z</time></trkpt><trkpt lat="37.9450226" lon="13.6647884"><ele>436.33333333333337</ele><time>2026-05-01T07:44:49.812Z</time></trkpt><trkpt lat="37.9448493" lon="13.6647498"><ele>439.66666666666663</ele><time>2026-05-01T07:44:50.811Z</time></trkpt><trkpt lat="37.9446969" lon="13.6647351"><ele>443.0</ele><time>2026-05-01T07:44:51.811Z</time></trkpt><trkpt lat="37.9445553" lon="13.6647737"><ele>443.0</ele><time>2026-05-01T07:44:52.812Z</time></trkpt><trkpt lat="37.9444206" lon="13.6648714"><ele>443.0</ele><time>2026-05-01T07:44:53.812Z</time></trkpt><trkpt lat="37.9442571" lon="13.6650282"><ele>443.0</ele><time>2026-05-01T07:44:54.812Z</time></trkpt><trkpt lat="37.9440995" lon="13.6652231"><ele>448.3333333333333</ele><time>2026-05-01T07:44:55.812Z</time></trkpt><trkpt lat="37.9439597" lon="13.6653861"><ele>453.66666666666663</ele><time>2026-05-01T07:44:56.812Z</time></trkpt><trkpt lat="37.9438307" lon="13.6654989"><ele>459.0</ele><time>2026-05-01T07:44:57.811Z</time></trkpt><trkpt lat="37.9436754" lon="13.6655809"><ele>459.0</ele><time>2026-05-01T07:44:58.811Z</time></trkpt><trkpt lat="37.943502" lon="13.6656483"><ele>459.0</ele><time>2026-05-01T07:44:59.811Z</time></trkpt><trkpt lat="37.9433238" lon="13.6657076"><ele>459.0</ele><time>2026-05-01T07:45:00.811Z</time></trkpt><trkpt lat="37.9431722" lon="13.6657265"><ele>461.33333333333337</ele><time>2026-05-01T07:45:01.812Z</time></trkpt><trkpt lat="37.9430131" lon="13.665692"><ele>463.6666666666667</ele><time>2026-05-01T07:45:02.811Z</time></trkpt><trkpt lat="37.9428353" lon="13.6656062"><ele>466.0</ele><time>2026-05-01T07:45:03.811Z</time></trkpt><trkpt lat="37.9426415" lon="13.6654829"><ele>464.33333333333337</ele><time>2026-05-01T07:45:04.811Z</time></trkpt><trkpt lat="37.9424522" lon="13.6653612"><ele>462.66666666666663</ele><time>2026-05-01T07:45:05.811Z</time></trkpt><trkpt lat="37.9422763" lon="13.6652745"><ele>461.0</ele><time>2026-05-01T07:45:06.812Z</time></trkpt><trkpt lat="37.9421224" lon="13.6652308"><ele>461.0</ele><time>2026-05-01T07:45:07.811Z</time></trkpt><trkpt lat="37.9419741" lon="13.6652055"><ele>461.0</ele><time>2026-05-01T07:45:08.811Z</time></trkpt><trkpt lat="37.9418495" lon="13.665169"><ele>461.0</ele><time>2026-05-01T07:45:09.812Z</time></trkpt><trkpt lat="37.9417412" lon="13.6650922"><ele>461.0</ele><time>2026-05-01T07:45:10.812Z</time></trkpt><trkpt lat="37.9416208" lon="13.6649739"><ele>459.3333333333333</ele><time>2026-05-01T07:45:11.811Z</time></trkpt><trkpt lat="37.9414719" lon="13.6647811"><ele>457.66666666666663</ele><time>2026-05-01T07:45:12.812Z</time></trkpt><trkpt lat="37.9413279" lon="13.6645818"><ele>456.0</ele><time>2026-05-01T07:45:13.811Z</time></trkpt><trkpt lat="37.94121" lon="13.6643801"><ele>456.0</ele><time>2026-05-01T07:45:14.812Z</time></trkpt><trkpt lat="37.9411123" lon="13.6641609"><ele>456.0</ele><time>2026-05-01T07:45:15.812Z</time></trkpt><trkpt lat="37.9410526" lon="13.663936"><ele>456.0</ele><time>2026-05-01T07:45:16.811Z</time></trkpt><trkpt lat="37.941016" lon="13.6637171"><ele>458.5</ele><time>2026-05-01T07:45:17.812Z</time></trkpt><trkpt lat="37.9409896" lon="13.6635278"><ele>461.0</ele><time>2026-05-01T07:45:18.811Z</time></trkpt><trkpt lat="37.940955" lon="13.66336"><ele>463.5</ele><time>2026-05-01T07:45:19.811Z</time></trkpt><trkpt lat="37.9409039" lon="13.6632178"><ele>466.0</ele><time>2026-05-01T07:45:20.811Z</time></trkpt><trkpt lat="37.940817" lon="13.6631009"><ele>466.0</ele><time>2026-05-01T07:45:21.811Z</time></trkpt><trkpt lat="37.9407131" lon="13.6630143"><ele>466.0</ele><time>2026-05-01T07:45:22.812Z</time></trkpt><trkpt lat="37.9406026" lon="13.6629635"><ele>466.0</ele><time>2026-05-01T07:45:23.811Z</time></trkpt><trkpt lat="37.94046" lon="13.6629289"><ele>466.0</ele><time>2026-05-01T07:45:24.812Z</time></trkpt><trkpt lat="37.9403054" lon="13.6628789"><ele>466.0</ele><time>2026-05-01T07:45:25.812Z</time></trkpt><trkpt lat="37.9401434" lon="13.6627963"><ele>466.0</ele><time>2026-05-01T07:45:26.811Z</time></trkpt><trkpt lat="37.9399929" lon="13.6626856"><ele>466.0</ele><time>2026-05-01T07:45:27.819Z</time></trkpt><trkpt lat="37.939858" lon="13.6625639"><ele>464.75</ele><time>2026-05-01T07:45:28.818Z</time></trkpt><trkpt lat="37.9397448" lon="13.6624428"><ele>463.5</ele><time>2026-05-01T07:45:29.818Z</time></trkpt><trkpt lat="37.9396352" lon="13.6623263"><ele>462.25</ele><time>2026-05-01T07:45:30.818Z</time></trkpt><trkpt lat="37.9395126" lon="13.6622117"><ele>461.0</ele><time>2026-05-01T07:45:31.818Z</time></trkpt><trkpt lat="37.9393742" lon="13.6621115"><ele>466.0</ele><time>2026-05-01T07:45:32.818Z</time></trkpt><trkpt lat="37.9392092" lon="13.6620495"><ele>471.0</ele><time>2026-05-01T07:45:33.818Z</time></trkpt><trkpt lat="37.939026" lon="13.6620182"><ele>476.0</ele><time>2026-05-01T07:45:34.818Z</time></trkpt><trkpt lat="37.9388344" lon="13.6620025"><ele>476.0</ele><time>2026-05-01T07:45:35.819Z</time></trkpt><trkpt lat="37.9386376" lon="13.6619963"><ele>476.0</ele><time>2026-05-01T07:45:36.819Z</time></trkpt><trkpt lat="37.9384442" lon="13.6619787"><ele>476.0</ele><time>2026-05-01T07:45:37.818Z</time></trkpt><trkpt lat="37.9382497" lon="13.6619423"><ele>472.3333333333333</ele><time>2026-05-01T07:45:38.818Z</time></trkpt><trkpt lat="37.938053" lon="13.6618735"><ele>468.66666666666663</ele><time>2026-05-01T07:45:39.818Z</time></trkpt><trkpt lat="37.9378661" lon="13.6617822"><ele>465.0</ele><time>2026-05-01T07:45:40.818Z</time></trkpt><trkpt lat="37.937676" lon="13.6616777"><ele>468.33333333333337</ele><time>2026-05-01T07:45:41.819Z</time></trkpt><trkpt lat="37.9374927" lon="13.6615799"><ele>471.6666666666667</ele><time>2026-05-01T07:45:42.818Z</time></trkpt><trkpt lat="37.9373038" lon="13.6614974"><ele>475.0</ele><time>2026-05-01T07:45:43.819Z</time></trkpt><trkpt lat="37.9371105" lon="13.6614384"><ele>475.0</ele><time>2026-05-01T07:45:44.819Z</time></trkpt><trkpt lat="37.9369128" lon="13.6614005"><ele>475.0</ele><time>2026-05-01T07:45:45.819Z</time></trkpt><trkpt lat="37.936717" lon="13.6613694"><ele>475.0</ele><time>2026-05-01T07:45:46.819Z</time></trkpt><trkpt lat="37.9365179" lon="13.6613515"><ele>478.0</ele><time>2026-05-01T07:45:47.818Z</time></trkpt><trkpt lat="37.9363123" lon="13.6613595"><ele>481.0</ele><time>2026-05-01T07:45:48.819Z</time></trkpt><trkpt lat="37.9361076" lon="13.6613794"><ele>484.0</ele><time>2026-05-01T07:45:49.818Z</time></trkpt><trkpt lat="37.9359027" lon="13.6613976"><ele>484.33333333333337</ele><time>2026-05-01T07:45:50.818Z</time></trkpt><trkpt lat="37.9356971" lon="13.6614148"><ele>484.66666666666663</ele><time>2026-05-01T07:45:51.818Z</time></trkpt><trkpt lat="37.9354993" lon="13.6614207"><ele>485.0</ele><time>2026-05-01T07:45:52.819Z</time></trkpt><trkpt lat="37.93531" lon="13.6614243"><ele>485.0</ele><time>2026-05-01T07:45:53.818Z</time></trkpt><trkpt lat="37.9351152" lon="13.6614413"><ele>485.0</ele><time>2026-05-01T07:45:54.819Z</time></trkpt><trkpt lat="37.9349126" lon="13.6614626"><ele>485.0</ele><time>2026-05-01T07:45:55.819Z</time></trkpt><trkpt lat="37.9347082" lon="13.661478"><ele>487.3333333333333</ele><time>2026-05-01T07:45:56.819Z</time></trkpt><trkpt lat="37.9345096" lon="13.6614822"><ele>489.66666666666663</ele><time>2026-05-01T07:45:57.819Z</time></trkpt><trkpt lat="37.9343267" lon="13.6614755"><ele>492.0</ele><time>2026-05-01T07:45:58.818Z</time></trkpt><trkpt lat="37.9341458" lon="13.6614491"><ele>494.0</ele><time>2026-05-01T07:45:59.818Z</time></trkpt><trkpt lat="37.9339806" lon="13.6613861"><ele>496.0</ele><time>2026-05-01T07:46:00.818Z</time></trkpt><trkpt lat="37.9338425" lon="13.6612948"><ele>498.0</ele><time>2026-05-01T07:46:01.819Z</time></trkpt><trkpt lat="37.93376" lon="13.6612252"><ele>500.0</ele><time>2026-05-01T07:46:02.819Z</time></trkpt><trkpt lat="37.9336892" lon="13.6611652"><ele>497.6</ele><time>2026-05-01T07:46:03.818Z</time></trkpt><trkpt lat="37.9336068" lon="13.6610999"><ele>495.2</ele><time>2026-05-01T07:46:04.819Z</time></trkpt><trkpt lat="37.933512" lon="13.6610265"><ele>492.79999999999995</ele><time>2026-05-01T07:46:05.818Z</time></trkpt><trkpt lat="37.9334127" lon="13.6609513"><ele>490.4</ele><time>2026-05-01T07:46:06.819Z</time></trkpt><trkpt lat="37.9333172" lon="13.6608848"><ele>488.0</ele><time>2026-05-01T07:46:07.818Z</time></trkpt><trkpt lat="37.9332269" lon="13.6608255"><ele>488.0</ele><time>2026-05-01T07:46:08.819Z</time></trkpt><trkpt lat="37.9331337" lon="13.6607724"><ele>487.99999999999994</ele><time>2026-05-01T07:46:09.819Z</time></trkpt><trkpt lat="37.9330263" lon="13.6607377"><ele>487.99999999999994</ele><time>2026-05-01T07:46:10.819Z</time></trkpt><trkpt lat="37.9329118" lon="13.6607157"><ele>488.0</ele><time>2026-05-01T07:46:11.819Z</time></trkpt><trkpt lat="37.9327985" lon="13.6607101"><ele>488.0</ele><time>2026-05-01T07:46:12.818Z</time></trkpt><trkpt lat="37.9326882" lon="13.6607296"><ele>488.0</ele><time>2026-05-01T07:46:13.818Z</time></trkpt><trkpt lat="37.9325882" lon="13.6607564"><ele>487.99999999999994</ele><time>2026-05-01T07:46:14.819Z</time></trkpt><trkpt lat="37.932494" lon="13.6607717"><ele>487.99999999999994</ele><time>2026-05-01T07:46:15.819Z</time></trkpt><trkpt lat="37.9323931" lon="13.6607877"><ele>488.0</ele><time>2026-05-01T07:46:16.818Z</time></trkpt><trkpt lat="37.9323008" lon="13.6608111"><ele>488.0</ele><time>2026-05-01T07:46:17.818Z</time></trkpt><trkpt lat="37.9322269" lon="13.6608303"><ele>489.66666666666663</ele><time>2026-05-01T07:46:18.819Z</time></trkpt><trkpt lat="37.9321658" lon="13.6608585"><ele>491.3333333333333</ele><time>2026-05-01T07:46:19.818Z</time></trkpt><trkpt lat="37.9320744" lon="13.6609108"><ele>493.0</ele><time>2026-05-01T07:46:21.818Z</time></trkpt><trkpt lat="37.9320089" lon="13.6609632"><ele>494.66666666666663</ele><time>2026-05-01T07:46:23.818Z</time></trkpt><trkpt lat="37.9319372" lon="13.6610213"><ele>496.3333333333333</ele><time>2026-05-01T07:46:25.819Z</time></trkpt><trkpt lat="37.9318562" lon="13.6610876"><ele>498.0</ele><time>2026-05-01T07:46:27.819Z</time></trkpt><trkpt lat="37.9317894" lon="13.6611847"><ele>497.5</ele><time>2026-05-01T07:46:29.818Z</time></trkpt><trkpt lat="37.931734" lon="13.6613188"><ele>497.0</ele><time>2026-05-01T07:46:31.818Z</time></trkpt><trkpt lat="37.9317112" lon="13.6613978"><ele>496.5</ele><time>2026-05-01T07:46:32.819Z</time></trkpt><trkpt lat="37.9316906" lon="13.6614854"><ele>496.0</ele><time>2026-05-01T07:46:33.818Z</time></trkpt><trkpt lat="37.9316642" lon="13.6615706"><ele>495.5</ele><time>2026-05-01T07:46:34.819Z</time></trkpt><trkpt lat="37.9316452" lon="13.6616607"><ele>495.0</ele><time>2026-05-01T07:46:35.819Z</time></trkpt><trkpt lat="37.9316245" lon="13.6617427"><ele>494.99999999999994</ele><time>2026-05-01T07:46:36.818Z</time></trkpt><trkpt lat="37.9316012" lon="13.6618221"><ele>495.0</ele><time>2026-05-01T07:46:37.819Z</time></trkpt><trkpt lat="37.9315817" lon="13.6619035"><ele>494.99999999999994</ele><time>2026-05-01T07:46:38.819Z</time></trkpt><trkpt lat="37.9315616" lon="13.6619865"><ele>494.99999999999994</ele><time>2026-05-01T07:46:39.818Z</time></trkpt><trkpt lat="37.9315372" lon="13.6620614"><ele>495.0</ele><time>2026-05-01T07:46:40.818Z</time></trkpt><trkpt lat="37.9315119" lon="13.6621386"><ele>494.99999999999994</ele><time>2026-05-01T07:46:41.819Z</time></trkpt><trkpt lat="37.9314785" lon="13.6622756"><ele>494.99999999999994</ele><time>2026-05-01T07:46:43.819Z</time></trkpt><trkpt lat="37.9314572" lon="13.6624178"><ele>495.6</ele><time>2026-05-01T07:46:45.818Z</time></trkpt><trkpt lat="37.9314579" lon="13.6625497"><ele>496.2</ele><time>2026-05-01T07:46:47.819Z</time></trkpt><trkpt lat="37.9314836" lon="13.6626638"><ele>496.79999999999995</ele><time>2026-05-01T07:46:49.818Z</time></trkpt><trkpt lat="37.9315042" lon="13.6627611"><ele>497.4</ele><time>2026-05-01T07:46:51.819Z</time></trkpt><trkpt lat="37.9315399" lon="13.6628917"><ele>498.0</ele><time>2026-05-01T07:46:53.818Z</time></trkpt><trkpt lat="37.9315836" lon="13.6630127"><ele>498.0</ele><time>2026-05-01T07:46:55.819Z</time></trkpt><trkpt lat="37.9316121" lon="13.6631167"><ele>497.99999999999994</ele><time>2026-05-01T07:46:57.819Z</time></trkpt><trkpt lat="37.9316495" lon="13.6632259"><ele>497.99999999999994</ele><time>2026-05-01T07:46:59.819Z</time></trkpt><trkpt lat="37.9316887" lon="13.6633472"><ele>498.0</ele><time>2026-05-01T07:47:01.819Z</time></trkpt><trkpt lat="37.9317276" lon="13.663461"><ele>498.0</ele><time>2026-05-01T07:47:03.818Z</time></trkpt><trkpt lat="37.9317849" lon="13.6635748"><ele>505.0</ele><time>2026-05-01T07:47:05.818Z</time></trkpt><trkpt lat="37.9318146" lon="13.6636989"><ele>512.0</ele><time>2026-05-01T07:47:07.819Z</time></trkpt><trkpt lat="37.9318814" lon="13.6638157"><ele>519.0</ele><time>2026-05-01T07:47:09.818Z</time></trkpt><trkpt lat="37.9319311" lon="13.6639466"><ele>526.0</ele><time>2026-05-01T07:47:11.819Z</time></trkpt><trkpt lat="37.9319507" lon="13.6641107"><ele>526.0</ele><time>2026-05-01T07:47:13.818Z</time></trkpt><trkpt lat="37.9319542" lon="13.6641973"><ele>526.0</ele><time>2026-05-01T07:47:14.819Z</time></trkpt><trkpt lat="37.9319636" lon="13.6642831"><ele>526.0</ele><time>2026-05-01T07:47:15.818Z</time></trkpt><trkpt lat="37.9319723" lon="13.6643715"><ele>526.0</ele><time>2026-05-01T07:47:16.818Z</time></trkpt><trkpt lat="37.9319806" lon="13.664467"><ele>526.0</ele><time>2026-05-01T07:47:17.819Z</time></trkpt><trkpt lat="37.931988" lon="13.6645522"><ele>526.0</ele><time>2026-05-01T07:47:18.818Z</time></trkpt><trkpt lat="37.9320092" lon="13.6646298"><ele>526.0</ele><time>2026-05-01T07:47:19.818Z</time></trkpt><trkpt lat="37.9320788" lon="13.6647652"><ele>525.0</ele><time>2026-05-01T07:47:21.819Z</time></trkpt><trkpt lat="37.932162" lon="13.6648843"><ele>524.0</ele><time>2026-05-01T07:47:23.818Z</time></trkpt><trkpt lat="37.9322089" lon="13.6649405"><ele>523.0</ele><time>2026-05-01T07:47:24.819Z</time></trkpt><trkpt lat="37.9322574" lon="13.6650009"><ele>522.0</ele><time>2026-05-01T07:47:25.818Z</time></trkpt><trkpt lat="37.9323508" lon="13.6651095"><ele>521.0</ele><time>2026-05-01T07:47:27.818Z</time></trkpt><trkpt lat="37.93244" lon="13.6652125"><ele>520.4</ele><time>2026-05-01T07:47:29.818Z</time></trkpt><trkpt lat="37.9325152" lon="13.6653282"><ele>519.8</ele><time>2026-05-01T07:47:31.818Z</time></trkpt><trkpt lat="37.9325595" lon="13.6654589"><ele>519.1999999999999</ele><time>2026-05-01T07:47:33.818Z</time></trkpt><trkpt lat="37.9325721" lon="13.6655741"><ele>518.6</ele><time>2026-05-01T07:47:35.818Z</time></trkpt><trkpt lat="37.9325537" lon="13.6656669"><ele>518.0</ele><time>2026-05-01T07:47:37.819Z</time></trkpt><trkpt lat="37.9325195" lon="13.6657516"><ele>518.0</ele><time>2026-05-01T07:47:40.819Z</time></trkpt><trkpt lat="37.9325046" lon="13.6658402"><ele>518.0</ele><time>2026-05-01T07:47:44.819Z</time></trkpt><trkpt lat="37.9325283" lon="13.6659228"><ele>518.0</ele><time>2026-05-01T07:47:54.819Z</time></trkpt><trkpt lat="37.9325311" lon="13.6660228"><ele>518.0</ele><time>2026-05-01T07:47:57.819Z</time></trkpt><trkpt lat="37.9325336" lon="13.6661082"><ele>518.0</ele><time>2026-05-01T07:47:59.819Z</time></trkpt><trkpt lat="37.9325479" lon="13.6662066"><ele>518.0</ele><time>2026-05-01T07:48:02.818Z</time></trkpt><trkpt lat="37.9325373" lon="13.6663159"><ele>518.5</ele><time>2026-05-01T07:48:06.818Z</time></trkpt><trkpt lat="37.9324816" lon="13.6664055"><ele>519.0</ele><time>2026-05-01T07:48:09.818Z</time></trkpt><trkpt lat="37.9323913" lon="13.6664451"><ele>519.5</ele><time>2026-05-01T07:48:11.818Z</time></trkpt><trkpt lat="37.9323049" lon="13.6664726"><ele>520.0</ele><time>2026-05-01T07:48:13.819Z</time></trkpt><trkpt lat="37.9322205" lon="13.6665086"><ele>520.5</ele><time>2026-05-01T07:48:15.818Z</time></trkpt><trkpt lat="37.9321503" lon="13.6665589"><ele>521.0</ele><time>2026-05-01T07:48:17.818Z</time></trkpt><trkpt lat="37.932103" lon="13.6666709"><ele>521.0</ele><time>2026-05-01T07:48:19.818Z</time></trkpt><trkpt lat="37.9320796" lon="13.6668075"><ele>521.0</ele><time>2026-05-01T07:48:21.818Z</time></trkpt><trkpt lat="37.9320757" lon="13.6668872"><ele>521.0</ele><time>2026-05-01T07:48:22.819Z</time></trkpt><trkpt lat="37.9320788" lon="13.6669734"><ele>521.0</ele><time>2026-05-01T07:48:23.818Z</time></trkpt><trkpt lat="37.9320816" lon="13.6670643"><ele>521.0</ele><time>2026-05-01T07:48:24.818Z</time></trkpt><trkpt lat="37.932083" lon="13.6671514"><ele>521.0</ele><time>2026-05-01T07:48:25.818Z</time></trkpt><trkpt lat="37.9320892" lon="13.6672338"><ele>521.0</ele><time>2026-05-01T07:48:26.818Z</time></trkpt><trkpt lat="37.9320906" lon="13.6673876"><ele>521.0</ele><time>2026-05-01T07:48:28.818Z</time></trkpt><trkpt lat="37.9320945" lon="13.667471"><ele>521.0</ele><time>2026-05-01T07:48:29.818Z</time></trkpt><trkpt lat="37.9320993" lon="13.6676172"><ele>521.0</ele><time>2026-05-01T07:48:31.818Z</time></trkpt><trkpt lat="37.932107" lon="13.6677394"><ele>521.0</ele><time>2026-05-01T07:48:33.819Z</time></trkpt><trkpt lat="37.9321121" lon="13.6678478"><ele>521.0</ele><time>2026-05-01T07:48:35.819Z</time></trkpt><trkpt lat="37.9321091" lon="13.6679501"><ele>521.0</ele><time>2026-05-01T07:48:37.818Z</time></trkpt><trkpt lat="37.9321118" lon="13.6680627"><ele>521.0</ele><time>2026-05-01T07:48:39.819Z</time></trkpt><trkpt lat="37.9320837" lon="13.6681955"><ele>521.0</ele><time>2026-05-01T07:48:41.818Z</time></trkpt><trkpt lat="37.9320433" lon="13.6682629"><ele>521.0</ele><time>2026-05-01T07:48:42.819Z</time></trkpt><trkpt lat="37.9319217" lon="13.6682906"><ele>521.0</ele><time>2026-05-01T07:48:44.818Z</time></trkpt><trkpt lat="37.9318504" lon="13.6682615"><ele>521.0</ele><time>2026-05-01T07:48:45.818Z</time></trkpt><trkpt lat="37.9317763" lon="13.6682261"><ele>518.8333333333333</ele><time>2026-05-01T07:48:46.818Z</time></trkpt><trkpt lat="37.9316947" lon="13.6681926"><ele>516.6666666666666</ele><time>2026-05-01T07:48:47.818Z</time></trkpt><trkpt lat="37.9316135" lon="13.6681527"><ele>514.5</ele><time>2026-05-01T07:48:48.818Z</time></trkpt><trkpt lat="37.9315371" lon="13.6681187"><ele>512.3333333333334</ele><time>2026-05-01T07:48:49.818Z</time></trkpt><trkpt lat="37.9314618" lon="13.6680878"><ele>510.1666666666667</ele><time>2026-05-01T07:48:50.818Z</time></trkpt><trkpt lat="37.9313898" lon="13.6680604"><ele>508.0</ele><time>2026-05-01T07:48:51.818Z</time></trkpt><trkpt lat="37.9313173" lon="13.6680385"><ele>508.00000000000006</ele><time>2026-05-01T07:48:52.818Z</time></trkpt><trkpt lat="37.9312417" lon="13.66802"><ele>508.0</ele><time>2026-05-01T07:48:53.818Z</time></trkpt><trkpt lat="37.9311646" lon="13.6679947"><ele>508.0</ele><time>2026-05-01T07:48:54.819Z</time></trkpt><trkpt lat="37.9310879" lon="13.6679687"><ele>508.0</ele><time>2026-05-01T07:48:55.819Z</time></trkpt><trkpt lat="37.9310111" lon="13.6679466"><ele>508.00000000000006</ele><time>2026-05-01T07:48:56.818Z</time></trkpt><trkpt lat="37.9309279" lon="13.6679155"><ele>508.0</ele><time>2026-05-01T07:48:57.819Z</time></trkpt><trkpt lat="37.9308423" lon="13.6678853"><ele>508.4</ele><time>2026-05-01T07:48:58.818Z</time></trkpt><trkpt lat="37.9307529" lon="13.6678691"><ele>508.79999999999995</ele><time>2026-05-01T07:48:59.819Z</time></trkpt><trkpt lat="37.9306643" lon="13.6678787"><ele>509.2</ele><time>2026-05-01T07:49:00.818Z</time></trkpt><trkpt lat="37.9305835" lon="13.6679191"><ele>509.6</ele><time>2026-05-01T07:49:01.819Z</time></trkpt><trkpt lat="37.9304998" lon="13.6680095"><ele>510.0</ele><time>2026-05-01T07:49:02.818Z</time></trkpt><trkpt lat="37.930414" lon="13.6681295"><ele>510.0</ele><time>2026-05-01T07:49:03.818Z</time></trkpt><trkpt lat="37.9303262" lon="13.6682588"><ele>510.0</ele><time>2026-05-01T07:49:04.819Z</time></trkpt><trkpt lat="37.9302361" lon="13.66836"><ele>510.0</ele><time>2026-05-01T07:49:05.819Z</time></trkpt><trkpt lat="37.9301524" lon="13.6684315"><ele>510.0</ele><time>2026-05-01T07:49:06.819Z</time></trkpt><trkpt lat="37.9300636" lon="13.6684677"><ele>510.0</ele><time>2026-05-01T07:49:07.819Z</time></trkpt><trkpt lat="37.9299696" lon="13.6684868"><ele>510.5</ele><time>2026-05-01T07:49:08.819Z</time></trkpt><trkpt lat="37.929885" lon="13.6684539"><ele>511.0</ele><time>2026-05-01T07:49:09.818Z</time></trkpt><trkpt lat="37.9297963" lon="13.6683547"><ele>511.5</ele><time>2026-05-01T07:49:10.818Z</time></trkpt><trkpt lat="37.9296963" lon="13.668235"><ele>512.0</ele><time>2026-05-01T07:49:11.819Z</time></trkpt><trkpt lat="37.9295834" lon="13.6681278"><ele>512.0</ele><time>2026-05-01T07:49:12.818Z</time></trkpt><trkpt lat="37.9294484" lon="13.6680384"><ele>512.0</ele><time>2026-05-01T07:49:13.818Z</time></trkpt><trkpt lat="37.9293152" lon="13.6679661"><ele>512.0</ele><time>2026-05-01T07:49:14.819Z</time></trkpt><trkpt lat="37.9291714" lon="13.6678926"><ele>510.66666666666663</ele><time>2026-05-01T07:49:15.818Z</time></trkpt><trkpt lat="37.9290186" lon="13.6678004"><ele>509.33333333333337</ele><time>2026-05-01T07:49:16.819Z</time></trkpt><trkpt lat="37.9288595" lon="13.6676925"><ele>508.0</ele><time>2026-05-01T07:49:17.818Z</time></trkpt><trkpt lat="37.9287138" lon="13.6675845"><ele>508.0</ele><time>2026-05-01T07:49:18.819Z</time></trkpt><trkpt lat="37.9285865" lon="13.6674639"><ele>508.0</ele><time>2026-05-01T07:49:19.818Z</time></trkpt><trkpt lat="37.9284668" lon="13.6673181"><ele>508.0</ele><time>2026-05-01T07:49:20.819Z</time></trkpt><trkpt lat="37.9283602" lon="13.6671323"><ele>508.6666666666667</ele><time>2026-05-01T07:49:21.819Z</time></trkpt><trkpt lat="37.9282682" lon="13.6669488"><ele>509.33333333333337</ele><time>2026-05-01T07:49:22.818Z</time></trkpt><trkpt lat="37.9281849" lon="13.666766"><ele>510.0</ele><time>2026-05-01T07:49:23.818Z</time></trkpt><trkpt lat="37.9281001" lon="13.6665946"><ele>510.0</ele><time>2026-05-01T07:49:24.819Z</time></trkpt><trkpt lat="37.9279908" lon="13.6664547"><ele>510.0</ele><time>2026-05-01T07:49:25.819Z</time></trkpt><trkpt lat="37.9278584" lon="13.6663603"><ele>510.0</ele><time>2026-05-01T07:49:26.818Z</time></trkpt><trkpt lat="37.9276951" lon="13.6663036"><ele>510.66666666666663</ele><time>2026-05-01T07:49:27.819Z</time></trkpt><trkpt lat="37.9275271" lon="13.6662568"><ele>511.3333333333333</ele><time>2026-05-01T07:49:28.818Z</time></trkpt><trkpt lat="37.9273816" lon="13.6661827"><ele>512.0</ele><time>2026-05-01T07:49:29.819Z</time></trkpt><trkpt lat="37.9272396" lon="13.6660627"><ele>512.0</ele><time>2026-05-01T07:49:30.819Z</time></trkpt><trkpt lat="37.9271015" lon="13.6659097"><ele>512.0</ele><time>2026-05-01T07:49:31.818Z</time></trkpt><trkpt lat="37.9269924" lon="13.6657758"><ele>512.0</ele><time>2026-05-01T07:49:32.818Z</time></trkpt><trkpt lat="37.9268999" lon="13.6656837"><ele>512.0</ele><time>2026-05-01T07:49:33.819Z</time></trkpt><trkpt lat="37.9267942" lon="13.6656272"><ele>512.0</ele><time>2026-05-01T07:49:34.819Z</time></trkpt><trkpt lat="37.9266857" lon="13.6656399"><ele>512.0</ele><time>2026-05-01T07:49:35.819Z</time></trkpt><trkpt lat="37.9265711" lon="13.665707"><ele>512.0</ele><time>2026-05-01T07:49:36.818Z</time></trkpt><trkpt lat="37.9264285" lon="13.6658367"><ele>513.6666666666666</ele><time>2026-05-01T07:49:37.818Z</time></trkpt><trkpt lat="37.9262841" lon="13.6659952"><ele>515.3333333333334</ele><time>2026-05-01T07:49:38.818Z</time></trkpt><trkpt lat="37.9261547" lon="13.6661442"><ele>517.0</ele><time>2026-05-01T07:49:39.818Z</time></trkpt><trkpt lat="37.9260395" lon="13.6662758"><ele>521.0</ele><time>2026-05-01T07:49:40.818Z</time></trkpt><trkpt lat="37.9259584" lon="13.6664298"><ele>525.0</ele><time>2026-05-01T07:49:41.818Z</time></trkpt><trkpt lat="37.9259142" lon="13.6666248"><ele>529.0</ele><time>2026-05-01T07:49:42.819Z</time></trkpt><trkpt lat="37.925907" lon="13.6668644"><ele>528.0</ele><time>2026-05-01T07:49:43.819Z</time></trkpt><trkpt lat="37.9259053" lon="13.6670898"><ele>527.0</ele><time>2026-05-01T07:49:44.818Z</time></trkpt><trkpt lat="37.9258836" lon="13.6672607"><ele>526.0</ele><time>2026-05-01T07:49:45.819Z</time></trkpt><trkpt lat="37.9258467" lon="13.6674005"><ele>525.0</ele><time>2026-05-01T07:49:46.818Z</time></trkpt><trkpt lat="37.9257884" lon="13.6675147"><ele>525.0</ele><time>2026-05-01T07:49:47.819Z</time></trkpt><trkpt lat="37.9256814" lon="13.6676352"><ele>525.0</ele><time>2026-05-01T07:49:48.818Z</time></trkpt><trkpt lat="37.9255429" lon="13.6677774"><ele>525.0</ele><time>2026-05-01T07:49:49.818Z</time></trkpt><trkpt lat="37.9253853" lon="13.6679377"><ele>525.3333333333334</ele><time>2026-05-01T07:49:50.819Z</time></trkpt><trkpt lat="37.925245" lon="13.6680978"><ele>525.6666666666667</ele><time>2026-05-01T07:49:51.819Z</time></trkpt><trkpt lat="37.9251271" lon="13.6682368"><ele>526.0</ele><time>2026-05-01T07:49:52.819Z</time></trkpt><trkpt lat="37.925025" lon="13.6683538"><ele>526.0</ele><time>2026-05-01T07:49:53.818Z</time></trkpt><trkpt lat="37.9249584" lon="13.6684675"><ele>526.0</ele><time>2026-05-01T07:49:54.818Z</time></trkpt><trkpt lat="37.9249151" lon="13.6686095"><ele>526.0</ele><time>2026-05-01T07:49:55.818Z</time></trkpt><trkpt lat="37.9248897" lon="13.6687759"><ele>526.0</ele><time>2026-05-01T07:49:56.819Z</time></trkpt><trkpt lat="37.9248627" lon="13.6689718"><ele>528.5</ele><time>2026-05-01T07:49:57.819Z</time></trkpt><trkpt lat="37.9248097" lon="13.6691333"><ele>531.0</ele><time>2026-05-01T07:49:58.818Z</time></trkpt><trkpt lat="37.924725" lon="13.6692654"><ele>533.5</ele><time>2026-05-01T07:49:59.818Z</time></trkpt><trkpt lat="37.9246086" lon="13.6693877"><ele>536.0</ele><time>2026-05-01T07:50:00.819Z</time></trkpt><trkpt lat="37.9244736" lon="13.6694721"><ele>536.0</ele><time>2026-05-01T07:50:01.819Z</time></trkpt><trkpt lat="37.9243431" lon="13.6695805"><ele>536.0</ele><time>2026-05-01T07:50:02.819Z</time></trkpt><trkpt lat="37.9242193" lon="13.6697575"><ele>536.0</ele><time>2026-05-01T07:50:03.818Z</time></trkpt><trkpt lat="37.9240863" lon="13.6699782"><ele>536.0</ele><time>2026-05-01T07:50:04.818Z</time></trkpt><trkpt lat="37.9239478" lon="13.6702047"><ele>536.0</ele><time>2026-05-01T07:50:05.819Z</time></trkpt><trkpt lat="37.9238213" lon="13.6704118"><ele>536.0</ele><time>2026-05-01T07:50:06.819Z</time></trkpt><trkpt lat="37.9237231" lon="13.6705762"><ele>538.3333333333333</ele><time>2026-05-01T07:50:07.82Z</time></trkpt><trkpt lat="37.923661" lon="13.6707428"><ele>540.6666666666666</ele><time>2026-05-01T07:50:08.82Z</time></trkpt><trkpt lat="37.9236148" lon="13.6709284"><ele>543.0</ele><time>2026-05-01T07:50:09.82Z</time></trkpt><trkpt lat="37.9235658" lon="13.6711273"><ele>544.3333333333334</ele><time>2026-05-01T07:50:10.82Z</time></trkpt><trkpt lat="37.9235042" lon="13.6713167"><ele>545.6666666666667</ele><time>2026-05-01T07:50:11.819Z</time></trkpt><trkpt lat="37.9234218" lon="13.6714736"><ele>547.0</ele><time>2026-05-01T07:50:12.82Z</time></trkpt><trkpt lat="37.9233189" lon="13.6716089"><ele>543.6666666666667</ele><time>2026-05-01T07:50:13.82Z</time></trkpt><trkpt lat="37.9231878" lon="13.6716961"><ele>540.3333333333334</ele><time>2026-05-01T07:50:14.819Z</time></trkpt><trkpt lat="37.92303" lon="13.6717483"><ele>537.0</ele><time>2026-05-01T07:50:15.819Z</time></trkpt><trkpt lat="37.9228501" lon="13.671762"><ele>537.0</ele><time>2026-05-01T07:50:16.819Z</time></trkpt><trkpt lat="37.922651" lon="13.6717322"><ele>537.0</ele><time>2026-05-01T07:50:17.82Z</time></trkpt><trkpt lat="37.9224419" lon="13.6716819"><ele>537.0</ele><time>2026-05-01T07:50:18.819Z</time></trkpt><trkpt lat="37.9222147" lon="13.6716286"><ele>536.5</ele><time>2026-05-01T07:50:19.819Z</time></trkpt><trkpt lat="37.9219668" lon="13.6715845"><ele>536.0</ele><time>2026-05-01T07:50:20.819Z</time></trkpt><trkpt lat="37.9217064" lon="13.6715298"><ele>535.6666666666666</ele><time>2026-05-01T07:50:21.82Z</time></trkpt><trkpt lat="37.9214663" lon="13.6714814"><ele>535.3333333333334</ele><time>2026-05-01T07:50:22.82Z</time></trkpt><trkpt lat="37.9212728" lon="13.6714505"><ele>535.0</ele><time>2026-05-01T07:50:23.819Z</time></trkpt><trkpt lat="37.9211003" lon="13.6714478"><ele>535.0</ele><time>2026-05-01T07:50:24.819Z</time></trkpt><trkpt lat="37.9209364" lon="13.6714895"><ele>535.0</ele><time>2026-05-01T07:50:25.819Z</time></trkpt><trkpt lat="37.9207822" lon="13.6715925"><ele>535.0</ele><time>2026-05-01T07:50:26.82Z</time></trkpt><trkpt lat="37.9206322" lon="13.6717137"><ele>534.3333333333334</ele><time>2026-05-01T07:50:27.819Z</time></trkpt><trkpt lat="37.9204869" lon="13.6718149"><ele>533.6666666666666</ele><time>2026-05-01T07:50:28.82Z</time></trkpt><trkpt lat="37.9203387" lon="13.6718487"><ele>533.0</ele><time>2026-05-01T07:50:29.82Z</time></trkpt><trkpt lat="37.9201675" lon="13.6718384"><ele>532.6666666666666</ele><time>2026-05-01T07:50:30.819Z</time></trkpt><trkpt lat="37.9199865" lon="13.6717989"><ele>532.3333333333334</ele><time>2026-05-01T07:50:31.82Z</time></trkpt><trkpt lat="37.9198231" lon="13.6717513"><ele>532.0</ele><time>2026-05-01T07:50:32.82Z</time></trkpt><trkpt lat="37.9196736" lon="13.6717441"><ele>532.0</ele><time>2026-05-01T07:50:33.819Z</time></trkpt><trkpt lat="37.9195543" lon="13.6717845"><ele>532.0</ele><time>2026-05-01T07:50:34.819Z</time></trkpt><trkpt lat="37.9194318" lon="13.6718902"><ele>532.0</ele><time>2026-05-01T07:50:35.819Z</time></trkpt><trkpt lat="37.9193074" lon="13.6720377"><ele>532.0</ele><time>2026-05-01T07:50:36.82Z</time></trkpt><trkpt lat="37.9191702" lon="13.6722108"><ele>532.3333333333334</ele><time>2026-05-01T07:50:37.82Z</time></trkpt><trkpt lat="37.9190161" lon="13.6723526"><ele>532.6666666666666</ele><time>2026-05-01T07:50:38.82Z</time></trkpt><trkpt lat="37.9188544" lon="13.672461"><ele>533.0</ele><time>2026-05-01T07:50:39.82Z</time></trkpt><trkpt lat="37.9186833" lon="13.6725372"><ele>533.0</ele><time>2026-05-01T07:50:40.82Z</time></trkpt><trkpt lat="37.9185058" lon="13.6725938"><ele>533.0</ele><time>2026-05-01T07:50:41.82Z</time></trkpt><trkpt lat="37.9183142" lon="13.6726571"><ele>533.0</ele><time>2026-05-01T07:50:42.819Z</time></trkpt><trkpt lat="37.918101" lon="13.6727292"><ele>528.5</ele><time>2026-05-01T07:50:43.82Z</time></trkpt><trkpt lat="37.9178582" lon="13.6728154"><ele>524.0</ele><time>2026-05-01T07:50:44.82Z</time></trkpt><trkpt lat="37.9176156" lon="13.6728911"><ele>522.3333333333333</ele><time>2026-05-01T07:50:45.82Z</time></trkpt><trkpt lat="37.917399" lon="13.6729491"><ele>520.6666666666666</ele><time>2026-05-01T07:50:46.82Z</time></trkpt><trkpt lat="37.9172158" lon="13.6730084"><ele>519.0</ele><time>2026-05-01T07:50:47.819Z</time></trkpt><trkpt lat="37.9170635" lon="13.6730548"><ele>519.0</ele><time>2026-05-01T07:50:48.819Z</time></trkpt><trkpt lat="37.9169247" lon="13.6730533"><ele>519.0</ele><time>2026-05-01T07:50:49.819Z</time></trkpt><trkpt lat="37.916792" lon="13.6730131"><ele>519.0</ele><time>2026-05-01T07:50:50.819Z</time></trkpt><trkpt lat="37.9166418" lon="13.6729461"><ele>519.0</ele><time>2026-05-01T07:50:51.819Z</time></trkpt><trkpt lat="37.9164876" lon="13.6729054"><ele>518.0</ele><time>2026-05-01T07:50:52.819Z</time></trkpt><trkpt lat="37.916343" lon="13.6729246"><ele>517.0</ele><time>2026-05-01T07:50:53.819Z</time></trkpt><trkpt lat="37.9161946" lon="13.6729983"><ele>516.0</ele><time>2026-05-01T07:50:54.819Z</time></trkpt><trkpt lat="37.9160298" lon="13.6730976"><ele>515.3333333333334</ele><time>2026-05-01T07:50:55.819Z</time></trkpt><trkpt lat="37.9158576" lon="13.6732252"><ele>514.6666666666667</ele><time>2026-05-01T07:50:56.82Z</time></trkpt><trkpt lat="37.9156905" lon="13.6733245"><ele>514.0</ele><time>2026-05-01T07:50:57.819Z</time></trkpt><trkpt lat="37.9155311" lon="13.6734187"><ele>514.0</ele><time>2026-05-01T07:50:58.82Z</time></trkpt><trkpt lat="37.9153659" lon="13.6735153"><ele>514.0</ele><time>2026-05-01T07:50:59.819Z</time></trkpt><trkpt lat="37.9151926" lon="13.6735861"><ele>514.0</ele><time>2026-05-01T07:51:00.819Z</time></trkpt><trkpt lat="37.9150053" lon="13.6736218"><ele>509.0</ele><time>2026-05-01T07:51:01.819Z</time></trkpt><trkpt lat="37.9148159" lon="13.6736396"><ele>504.0</ele><time>2026-05-01T07:51:02.819Z</time></trkpt><trkpt lat="37.9146148" lon="13.6736594"><ele>499.0</ele><time>2026-05-01T07:51:03.82Z</time></trkpt><trkpt lat="37.914403" lon="13.6736785"><ele>498.33333333333337</ele><time>2026-05-01T07:51:04.819Z</time></trkpt><trkpt lat="37.9141961" lon="13.673701"><ele>497.66666666666663</ele><time>2026-05-01T07:51:05.82Z</time></trkpt><trkpt lat="37.9140134" lon="13.6737235"><ele>497.0</ele><time>2026-05-01T07:51:06.82Z</time></trkpt><trkpt lat="37.9138533" lon="13.6737089"><ele>497.0</ele><time>2026-05-01T07:51:07.819Z</time></trkpt><trkpt lat="37.9136975" lon="13.67365"><ele>497.0</ele><time>2026-05-01T07:51:08.82Z</time></trkpt><trkpt lat="37.9135461" lon="13.6735584"><ele>497.0</ele><time>2026-05-01T07:51:09.82Z</time></trkpt><trkpt lat="37.9134059" lon="13.6734491"><ele>499.0</ele><time>2026-05-01T07:51:10.82Z</time></trkpt><trkpt lat="37.9132898" lon="13.6733652"><ele>501.0</ele><time>2026-05-01T07:51:11.819Z</time></trkpt><trkpt lat="37.9131927" lon="13.6733191"><ele>503.0</ele><time>2026-05-01T07:51:12.819Z</time></trkpt><trkpt lat="37.9130727" lon="13.673299"><ele>505.0</ele><time>2026-05-01T07:51:13.82Z</time></trkpt><trkpt lat="37.9129507" lon="13.6733305"><ele>505.0</ele><time>2026-05-01T07:51:14.82Z</time></trkpt><trkpt lat="37.9128243" lon="13.673426"><ele>505.0</ele><time>2026-05-01T07:51:15.819Z</time></trkpt><trkpt lat="37.9126574" lon="13.6735458"><ele>505.0</ele><time>2026-05-01T07:51:16.82Z</time></trkpt><trkpt lat="37.9124996" lon="13.6736955"><ele>501.0</ele><time>2026-05-01T07:51:17.82Z</time></trkpt><trkpt lat="37.9123586" lon="13.6738158"><ele>497.0</ele><time>2026-05-01T07:51:18.82Z</time></trkpt><trkpt lat="37.9122393" lon="13.6738923"><ele>493.0</ele><time>2026-05-01T07:51:19.82Z</time></trkpt><trkpt lat="37.912122" lon="13.6739487"><ele>489.0</ele><time>2026-05-01T07:51:20.82Z</time></trkpt><trkpt lat="37.9119938" lon="13.6739726"><ele>489.0</ele><time>2026-05-01T07:51:21.819Z</time></trkpt><trkpt lat="37.9118569" lon="13.6739809"><ele>489.0</ele><time>2026-05-01T07:51:22.82Z</time></trkpt><trkpt lat="37.9117121" lon="13.6739713"><ele>489.0</ele><time>2026-05-01T07:51:23.819Z</time></trkpt><trkpt lat="37.9115651" lon="13.6739461"><ele>489.0</ele><time>2026-05-01T07:51:24.82Z</time></trkpt><trkpt lat="37.9114243" lon="13.6739141"><ele>488.5</ele><time>2026-05-01T07:51:25.82Z</time></trkpt><trkpt lat="37.9112945" lon="13.6738693"><ele>488.0</ele><time>2026-05-01T07:51:26.82Z</time></trkpt><trkpt lat="37.9111756" lon="13.6738008"><ele>487.5</ele><time>2026-05-01T07:51:27.82Z</time></trkpt><trkpt lat="37.9110644" lon="13.6737101"><ele>487.0</ele><time>2026-05-01T07:51:28.819Z</time></trkpt><trkpt lat="37.910954" lon="13.673605"><ele>487.25</ele><time>2026-05-01T07:51:29.82Z</time></trkpt><trkpt lat="37.9108368" lon="13.6734929"><ele>487.5</ele><time>2026-05-01T07:51:30.819Z</time></trkpt><trkpt lat="37.9107161" lon="13.6733712"><ele>487.75</ele><time>2026-05-01T07:51:31.819Z</time></trkpt><trkpt lat="37.9106003" lon="13.6732556"><ele>488.0</ele><time>2026-05-01T07:51:32.82Z</time></trkpt><trkpt lat="37.9104889" lon="13.6731292"><ele>488.0</ele><time>2026-05-01T07:51:33.819Z</time></trkpt><trkpt lat="37.9103811" lon="13.6729697"><ele>488.0</ele><time>2026-05-01T07:51:34.819Z</time></trkpt><trkpt lat="37.9102718" lon="13.6727852"><ele>488.0</ele><time>2026-05-01T07:51:35.819Z</time></trkpt><trkpt lat="37.9101604" lon="13.6725936"><ele>484.3333333333333</ele><time>2026-05-01T07:51:36.82Z</time></trkpt><trkpt lat="37.9100481" lon="13.6723847"><ele>480.66666666666663</ele><time>2026-05-01T07:51:37.819Z</time></trkpt><trkpt lat="37.909935" lon="13.6721777"><ele>477.0</ele><time>2026-05-01T07:51:38.819Z</time></trkpt><trkpt lat="37.9098292" lon="13.6719795"><ele>478.33333333333337</ele><time>2026-05-01T07:51:39.819Z</time></trkpt><trkpt lat="37.9097275" lon="13.671785"><ele>479.6666666666667</ele><time>2026-05-01T07:51:40.819Z</time></trkpt><trkpt lat="37.909643" lon="13.6715829"><ele>481.0</ele><time>2026-05-01T07:51:41.82Z</time></trkpt><trkpt lat="37.9095718" lon="13.6713833"><ele>481.0</ele><time>2026-05-01T07:51:42.819Z</time></trkpt><trkpt lat="37.9095132" lon="13.6712017"><ele>481.0</ele><time>2026-05-01T07:51:43.819Z</time></trkpt><trkpt lat="37.90947" lon="13.6710475"><ele>481.0</ele><time>2026-05-01T07:51:44.819Z</time></trkpt><trkpt lat="37.9094345" lon="13.6709152"><ele>481.0</ele><time>2026-05-01T07:51:45.819Z</time></trkpt><trkpt lat="37.9093871" lon="13.6708125"><ele>479.8</ele><time>2026-05-01T07:51:46.819Z</time></trkpt><trkpt lat="37.9093259" lon="13.6707259"><ele>478.6</ele><time>2026-05-01T07:51:47.819Z</time></trkpt><trkpt lat="37.9092326" lon="13.6706745"><ele>477.4</ele><time>2026-05-01T07:51:48.819Z</time></trkpt><trkpt lat="37.9091254" lon="13.6706628"><ele>476.2</ele><time>2026-05-01T07:51:49.819Z</time></trkpt><trkpt lat="37.909004" lon="13.6706717"><ele>475.0</ele><time>2026-05-01T07:51:50.819Z</time></trkpt><trkpt lat="37.9088843" lon="13.6706851"><ele>472.6666666666667</ele><time>2026-05-01T07:51:51.819Z</time></trkpt><trkpt lat="37.9087494" lon="13.6707167"><ele>470.33333333333337</ele><time>2026-05-01T07:51:52.819Z</time></trkpt><trkpt lat="37.9086083" lon="13.6707708"><ele>468.0</ele><time>2026-05-01T07:51:53.82Z</time></trkpt><trkpt lat="37.9084499" lon="13.6708703"><ele>468.0</ele><time>2026-05-01T07:51:54.819Z</time></trkpt><trkpt lat="37.9082667" lon="13.6710049"><ele>468.0</ele><time>2026-05-01T07:51:55.819Z</time></trkpt><trkpt lat="37.9080651" lon="13.6711615"><ele>468.0</ele><time>2026-05-01T07:51:56.819Z</time></trkpt><trkpt lat="37.9078683" lon="13.6713095"><ele>466.66666666666663</ele><time>2026-05-01T07:51:57.819Z</time></trkpt><trkpt lat="37.9076911" lon="13.6714499"><ele>465.3333333333333</ele><time>2026-05-01T07:51:58.819Z</time></trkpt><trkpt lat="37.9075149" lon="13.6716025"><ele>464.0</ele><time>2026-05-01T07:51:59.819Z</time></trkpt><trkpt lat="37.9073529" lon="13.6718042"><ele>466.66666666666663</ele><time>2026-05-01T07:52:00.82Z</time></trkpt><trkpt lat="37.9071976" lon="13.6720226"><ele>469.33333333333337</ele><time>2026-05-01T07:52:01.819Z</time></trkpt><trkpt lat="37.9070655" lon="13.6722088"><ele>472.0</ele><time>2026-05-01T07:52:02.819Z</time></trkpt><trkpt lat="37.9069624" lon="13.6723627"><ele>472.0</ele><time>2026-05-01T07:52:03.819Z</time></trkpt><trkpt lat="37.9068794" lon="13.6724929"><ele>472.0</ele><time>2026-05-01T07:52:04.82Z</time></trkpt><trkpt lat="37.9068292" lon="13.672647"><ele>472.0</ele><time>2026-05-01T07:52:05.819Z</time></trkpt><trkpt lat="37.9068014" lon="13.6728232"><ele>472.0</ele><time>2026-05-01T07:52:06.82Z</time></trkpt><trkpt lat="37.9067866" lon="13.6730111"><ele>472.0</ele><time>2026-05-01T07:52:07.827Z</time></trkpt><trkpt lat="37.9067677" lon="13.6731874"><ele>472.0</ele><time>2026-05-01T07:52:08.826Z</time></trkpt><trkpt lat="37.9067173" lon="13.6733505"><ele>472.0</ele><time>2026-05-01T07:52:09.826Z</time></trkpt><trkpt lat="37.9066332" lon="13.673526"><ele>472.0</ele><time>2026-05-01T07:52:10.827Z</time></trkpt><trkpt lat="37.906541" lon="13.6737203"><ele>474.5</ele><time>2026-05-01T07:52:11.827Z</time></trkpt><trkpt lat="37.906456" lon="13.6738975"><ele>477.0</ele><time>2026-05-01T07:52:12.826Z</time></trkpt><trkpt lat="37.9063858" lon="13.6740477"><ele>479.5</ele><time>2026-05-01T07:52:13.827Z</time></trkpt><trkpt lat="37.9063101" lon="13.6741694"><ele>482.0</ele><time>2026-05-01T07:52:14.827Z</time></trkpt><trkpt lat="37.9062205" lon="13.6742696"><ele>482.0</ele><time>2026-05-01T07:52:15.826Z</time></trkpt><trkpt lat="37.9060979" lon="13.6743467"><ele>482.0</ele><time>2026-05-01T07:52:16.827Z</time></trkpt><trkpt lat="37.9059445" lon="13.6744357"><ele>482.0</ele><time>2026-05-01T07:52:17.826Z</time></trkpt><trkpt lat="37.9057654" lon="13.6745204"><ele>484.0</ele><time>2026-05-01T07:52:18.827Z</time></trkpt><trkpt lat="37.9055818" lon="13.6746119"><ele>486.0</ele><time>2026-05-01T07:52:19.826Z</time></trkpt><trkpt lat="37.9054036" lon="13.6746994"><ele>488.0</ele><time>2026-05-01T07:52:20.827Z</time></trkpt><trkpt lat="37.9052417" lon="13.6747848"><ele>488.0</ele><time>2026-05-01T07:52:21.826Z</time></trkpt><trkpt lat="37.9051037" lon="13.6748628"><ele>488.0</ele><time>2026-05-01T07:52:22.826Z</time></trkpt><trkpt lat="37.9049848" lon="13.6749422"><ele>488.0</ele><time>2026-05-01T07:52:23.826Z</time></trkpt><trkpt lat="37.9048897" lon="13.6750472"><ele>488.0</ele><time>2026-05-01T07:52:24.826Z</time></trkpt><trkpt lat="37.9048116" lon="13.675181"><ele>489.25</ele><time>2026-05-01T07:52:25.826Z</time></trkpt><trkpt lat="37.9047429" lon="13.6753516"><ele>490.5</ele><time>2026-05-01T07:52:26.827Z</time></trkpt><trkpt lat="37.9046783" lon="13.675523"><ele>491.75</ele><time>2026-05-01T07:52:27.826Z</time></trkpt><trkpt lat="37.9046278" lon="13.6756476"><ele>493.0</ele><time>2026-05-01T07:52:28.827Z</time></trkpt><trkpt lat="37.9045914" lon="13.6757369"><ele>493.0</ele><time>2026-05-01T07:52:29.826Z</time></trkpt><trkpt lat="37.9045413" lon="13.6757897"><ele>492.99999999999994</ele><time>2026-05-01T07:52:30.826Z</time></trkpt><trkpt lat="37.9044322" lon="13.6758046"><ele>492.99999999999994</ele><time>2026-05-01T07:52:32.826Z</time></trkpt><trkpt lat="37.9043572" lon="13.675659"><ele>493.0</ele><time>2026-05-01T07:52:34.827Z</time></trkpt><trkpt lat="37.9043397" lon="13.6755395"><ele>493.0</ele><time>2026-05-01T07:52:35.827Z</time></trkpt><trkpt lat="37.9043443" lon="13.6753758"><ele>496.0</ele><time>2026-05-01T07:52:36.827Z</time></trkpt><trkpt lat="37.9043554" lon="13.6751636"><ele>499.0</ele><time>2026-05-01T07:52:37.826Z</time></trkpt><trkpt lat="37.9043629" lon="13.6749604"><ele>502.0</ele><time>2026-05-01T07:52:38.826Z</time></trkpt><trkpt lat="37.9043597" lon="13.6747744"><ele>502.0</ele><time>2026-05-01T07:52:39.826Z</time></trkpt><trkpt lat="37.9043637" lon="13.6746151"><ele>502.0</ele><time>2026-05-01T07:52:40.826Z</time></trkpt><trkpt lat="37.9043859" lon="13.6744821"><ele>502.0</ele><time>2026-05-01T07:52:41.826Z</time></trkpt><trkpt lat="37.9044379" lon="13.6743366"><ele>502.0</ele><time>2026-05-01T07:52:42.826Z</time></trkpt><trkpt lat="37.9045256" lon="13.6741788"><ele>504.0</ele><time>2026-05-01T07:52:43.826Z</time></trkpt><trkpt lat="37.9046465" lon="13.6739902"><ele>506.0</ele><time>2026-05-01T07:52:44.827Z</time></trkpt><trkpt lat="37.9047465" lon="13.6738162"><ele>508.0</ele><time>2026-05-01T07:52:45.826Z</time></trkpt><trkpt lat="37.904821" lon="13.6736716"><ele>512.0</ele><time>2026-05-01T07:52:46.827Z</time></trkpt><trkpt lat="37.904882" lon="13.6735423"><ele>516.0</ele><time>2026-05-01T07:52:47.826Z</time></trkpt><trkpt lat="37.9049226" lon="13.6734012"><ele>520.0</ele><time>2026-05-01T07:52:48.826Z</time></trkpt><trkpt lat="37.9049498" lon="13.67321"><ele>524.0</ele><time>2026-05-01T07:52:49.827Z</time></trkpt><trkpt lat="37.9049664" lon="13.6729873"><ele>525.3333333333333</ele><time>2026-05-01T07:52:50.826Z</time></trkpt><trkpt lat="37.9049801" lon="13.6727268"><ele>526.6666666666666</ele><time>2026-05-01T07:52:51.827Z</time></trkpt><trkpt lat="37.9050046" lon="13.6724776"><ele>528.0</ele><time>2026-05-01T07:52:52.826Z</time></trkpt><trkpt lat="37.9050314" lon="13.6722591"><ele>528.0</ele><time>2026-05-01T07:52:53.826Z</time></trkpt><trkpt lat="37.9050421" lon="13.6720746"><ele>528.0</ele><time>2026-05-01T07:52:54.826Z</time></trkpt><trkpt lat="37.9050355" lon="13.671933"><ele>528.0</ele><time>2026-05-01T07:52:55.827Z</time></trkpt><trkpt lat="37.9050007" lon="13.6718012"><ele>528.0</ele><time>2026-05-01T07:52:56.826Z</time></trkpt><trkpt lat="37.9049345" lon="13.6716862"><ele>528.6</ele><time>2026-05-01T07:52:57.826Z</time></trkpt><trkpt lat="37.9048563" lon="13.6715772"><ele>529.1999999999999</ele><time>2026-05-01T07:52:58.827Z</time></trkpt><trkpt lat="37.9047885" lon="13.6714732"><ele>529.8</ele><time>2026-05-01T07:52:59.826Z</time></trkpt><trkpt lat="37.9047509" lon="13.6713512"><ele>530.4</ele><time>2026-05-01T07:53:00.826Z</time></trkpt><trkpt lat="37.9047406" lon="13.6711976"><ele>531.0</ele><time>2026-05-01T07:53:01.826Z</time></trkpt><trkpt lat="37.9047491" lon="13.6710158"><ele>531.0</ele><time>2026-05-01T07:53:02.826Z</time></trkpt><trkpt lat="37.9047616" lon="13.6708531"><ele>531.0</ele><time>2026-05-01T07:53:03.826Z</time></trkpt><trkpt lat="37.9047552" lon="13.6707325"><ele>531.0</ele><time>2026-05-01T07:53:04.827Z</time></trkpt><trkpt lat="37.9047263" lon="13.6706359"><ele>531.0</ele><time>2026-05-01T07:53:05.827Z</time></trkpt><trkpt lat="37.9046762" lon="13.6705625"><ele>531.0</ele><time>2026-05-01T07:53:06.826Z</time></trkpt><trkpt lat="37.904608" lon="13.6705181"><ele>531.0</ele><time>2026-05-01T07:53:07.827Z</time></trkpt><trkpt lat="37.9045315" lon="13.670512"><ele>531.0</ele><time>2026-05-01T07:53:08.827Z</time></trkpt><trkpt lat="37.9044607" lon="13.6705553"><ele>531.0</ele><time>2026-05-01T07:53:09.827Z</time></trkpt><trkpt lat="37.9044111" lon="13.6706332"><ele>531.0</ele><time>2026-05-01T07:53:10.827Z</time></trkpt><trkpt lat="37.904387" lon="13.6707309"><ele>531.0</ele><time>2026-05-01T07:53:11.827Z</time></trkpt><trkpt lat="37.9043956" lon="13.6708374"><ele>531.0</ele><time>2026-05-01T07:53:12.827Z</time></trkpt><trkpt lat="37.9044278" lon="13.6709697"><ele>531.25</ele><time>2026-05-01T07:53:13.826Z</time></trkpt><trkpt lat="37.9044836" lon="13.6711174"><ele>531.5</ele><time>2026-05-01T07:53:14.826Z</time></trkpt><trkpt lat="37.9045354" lon="13.6712664"><ele>531.75</ele><time>2026-05-01T07:53:15.826Z</time></trkpt><trkpt lat="37.9045649" lon="13.6714062"><ele>532.0</ele><time>2026-05-01T07:53:16.826Z</time></trkpt><trkpt lat="37.9045589" lon="13.6715368"><ele>532.0</ele><time>2026-05-01T07:53:17.827Z</time></trkpt><trkpt lat="37.9045183" lon="13.6716641"><ele>532.0</ele><time>2026-05-01T07:53:18.827Z</time></trkpt><trkpt lat="37.9044614" lon="13.6717708"><ele>532.0</ele><time>2026-05-01T07:53:19.827Z</time></trkpt><trkpt lat="37.9043764" lon="13.6718478"><ele>532.0</ele><time>2026-05-01T07:53:20.826Z</time></trkpt><trkpt lat="37.9042737" lon="13.6719078"><ele>532.0</ele><time>2026-05-01T07:53:21.826Z</time></trkpt><trkpt lat="37.9041474" lon="13.6719546"><ele>535.0</ele><time>2026-05-01T07:53:22.826Z</time></trkpt><trkpt lat="37.9040052" lon="13.6720007"><ele>538.0</ele><time>2026-05-01T07:53:23.826Z</time></trkpt><trkpt lat="37.9038729" lon="13.6720463"><ele>541.0</ele><time>2026-05-01T07:53:24.826Z</time></trkpt><trkpt lat="37.9037525" lon="13.6720927"><ele>544.0</ele><time>2026-05-01T07:53:25.827Z</time></trkpt><trkpt lat="37.9036543" lon="13.6721496"><ele>544.0</ele><time>2026-05-01T07:53:26.826Z</time></trkpt><trkpt lat="37.9035752" lon="13.6722282"><ele>544.0</ele><time>2026-05-01T07:53:27.827Z</time></trkpt><trkpt lat="37.9035113" lon="13.6723426"><ele>544.0</ele><time>2026-05-01T07:53:28.827Z</time></trkpt><trkpt lat="37.9034575" lon="13.6724708"><ele>544.0</ele><time>2026-05-01T07:53:29.827Z</time></trkpt><trkpt lat="37.9034034" lon="13.6725791"><ele>544.0</ele><time>2026-05-01T07:53:30.828Z</time></trkpt><trkpt lat="37.9033418" lon="13.672661"><ele>545.5</ele><time>2026-05-01T07:53:31.827Z</time></trkpt><trkpt lat="37.9032621" lon="13.6726834"><ele>547.0</ele><time>2026-05-01T07:53:32.827Z</time></trkpt><trkpt lat="37.9031827" lon="13.6726646"><ele>548.5</ele><time>2026-05-01T07:53:33.827Z</time></trkpt><trkpt lat="37.9031335" lon="13.6726045"><ele>550.0</ele><time>2026-05-01T07:53:34.827Z</time></trkpt><trkpt lat="37.903115" lon="13.6725164"><ele>551.5</ele><time>2026-05-01T07:53:35.827Z</time></trkpt><trkpt lat="37.9031153" lon="13.672411"><ele>553.0</ele><time>2026-05-01T07:53:36.827Z</time></trkpt><trkpt lat="37.9031509" lon="13.6722997"><ele>553.0</ele><time>2026-05-01T07:53:37.827Z</time></trkpt><trkpt lat="37.9032034" lon="13.672167"><ele>553.0</ele><time>2026-05-01T07:53:38.828Z</time></trkpt><trkpt lat="37.9032733" lon="13.6720233"><ele>553.0</ele><time>2026-05-01T07:53:39.827Z</time></trkpt><trkpt lat="37.9033465" lon="13.6718672"><ele>553.0</ele><time>2026-05-01T07:53:40.828Z</time></trkpt><trkpt lat="37.9034224" lon="13.6717055"><ele>553.0</ele><time>2026-05-01T07:53:41.827Z</time></trkpt><trkpt lat="37.9034932" lon="13.671554"><ele>553.0</ele><time>2026-05-01T07:53:42.827Z</time></trkpt><trkpt lat="37.9035471" lon="13.6714017"><ele>553.0</ele><time>2026-05-01T07:53:43.827Z</time></trkpt><trkpt lat="37.9035735" lon="13.6712211"><ele>553.0</ele><time>2026-05-01T07:53:44.828Z</time></trkpt><trkpt lat="37.9035771" lon="13.6710088"><ele>553.0</ele><time>2026-05-01T07:53:45.828Z</time></trkpt><trkpt lat="37.9035636" lon="13.670791"><ele>553.0</ele><time>2026-05-01T07:53:46.828Z</time></trkpt><trkpt lat="37.9035502" lon="13.6706212"><ele>553.0</ele><time>2026-05-01T07:53:47.827Z</time></trkpt><trkpt lat="37.9035411" lon="13.6704918"><ele>553.0</ele><time>2026-05-01T07:53:48.827Z</time></trkpt><trkpt lat="37.9035077" lon="13.6703934"><ele>553.0</ele><time>2026-05-01T07:53:49.828Z</time></trkpt><trkpt lat="37.9034377" lon="13.6703196"><ele>553.0</ele><time>2026-05-01T07:53:50.827Z</time></trkpt><trkpt lat="37.9033522" lon="13.6702746"><ele>553.0</ele><time>2026-05-01T07:53:51.827Z</time></trkpt><trkpt lat="37.9032629" lon="13.6702821"><ele>553.0</ele><time>2026-05-01T07:53:52.827Z</time></trkpt><trkpt lat="37.9031784" lon="13.6703386"><ele>553.0</ele><time>2026-05-01T07:53:53.828Z</time></trkpt><trkpt lat="37.9031086" lon="13.67043"><ele>557.6666666666667</ele><time>2026-05-01T07:53:54.828Z</time></trkpt><trkpt lat="37.9030474" lon="13.6705528"><ele>562.3333333333334</ele><time>2026-05-01T07:53:55.828Z</time></trkpt><trkpt lat="37.9029717" lon="13.6707125"><ele>567.0</ele><time>2026-05-01T07:53:56.827Z</time></trkpt><trkpt lat="37.9028716" lon="13.6709149"><ele>566.3333333333334</ele><time>2026-05-01T07:53:57.827Z</time></trkpt><trkpt lat="37.9027731" lon="13.6711207"><ele>565.6666666666667</ele><time>2026-05-01T07:53:58.827Z</time></trkpt><trkpt lat="37.9027114" lon="13.6713037"><ele>565.0</ele><time>2026-05-01T07:53:59.827Z</time></trkpt><trkpt lat="37.9026724" lon="13.6714824"><ele>565.0</ele><time>2026-05-01T07:54:00.827Z</time></trkpt><trkpt lat="37.9026501" lon="13.6716637"><ele>565.0</ele><time>2026-05-01T07:54:01.827Z</time></trkpt><trkpt lat="37.9026341" lon="13.6718171"><ele>565.0</ele><time>2026-05-01T07:54:02.828Z</time></trkpt><trkpt lat="37.9026072" lon="13.6719378"><ele>565.0</ele><time>2026-05-01T07:54:03.828Z</time></trkpt><trkpt lat="37.9025823" lon="13.6720225"><ele>565.0</ele><time>2026-05-01T07:54:04.827Z</time></trkpt><trkpt lat="37.9025361" lon="13.6720804"><ele>569.0</ele><time>2026-05-01T07:54:05.827Z</time></trkpt><trkpt lat="37.9024713" lon="13.6721052"><ele>573.0</ele><time>2026-05-01T07:54:06.827Z</time></trkpt><trkpt lat="37.9023822" lon="13.6720397"><ele>577.0</ele><time>2026-05-01T07:54:08.827Z</time></trkpt><trkpt lat="37.9023592" lon="13.6718688"><ele>581.0</ele><time>2026-05-01T07:54:10.827Z</time></trkpt><trkpt lat="37.9023738" lon="13.6717337"><ele>585.0</ele><time>2026-05-01T07:54:11.828Z</time></trkpt><trkpt lat="37.9023984" lon="13.6715523"><ele>585.3333333333334</ele><time>2026-05-01T07:54:12.827Z</time></trkpt><trkpt lat="37.9024224" lon="13.671306"><ele>585.6666666666667</ele><time>2026-05-01T07:54:13.827Z</time></trkpt><trkpt lat="37.9024475" lon="13.6710107"><ele>586.0</ele><time>2026-05-01T07:54:14.827Z</time></trkpt><trkpt lat="37.9024665" lon="13.6707231"><ele>587.3333333333334</ele><time>2026-05-01T07:54:15.827Z</time></trkpt><trkpt lat="37.9024917" lon="13.6704688"><ele>588.6666666666666</ele><time>2026-05-01T07:54:16.827Z</time></trkpt><trkpt lat="37.9025094" lon="13.6702454"><ele>590.0</ele><time>2026-05-01T07:54:17.828Z</time></trkpt><trkpt lat="37.9025277" lon="13.6700618"><ele>591.0</ele><time>2026-05-01T07:54:18.828Z</time></trkpt><trkpt lat="37.9025387" lon="13.6699079"><ele>592.0</ele><time>2026-05-01T07:54:19.828Z</time></trkpt><trkpt lat="37.9025351" lon="13.6697719"><ele>593.0</ele><time>2026-05-01T07:54:20.828Z</time></trkpt><trkpt lat="37.9025109" lon="13.669656"><ele>594.0</ele><time>2026-05-01T07:54:21.828Z</time></trkpt><trkpt lat="37.9024609" lon="13.669555"><ele>595.0</ele><time>2026-05-01T07:54:22.827Z</time></trkpt><trkpt lat="37.9023852" lon="13.6694676"><ele>595.75</ele><time>2026-05-01T07:54:23.828Z</time></trkpt><trkpt lat="37.9022799" lon="13.6693871"><ele>596.5</ele><time>2026-05-01T07:54:24.827Z</time></trkpt><trkpt lat="37.9021697" lon="13.6693018"><ele>597.25</ele><time>2026-05-01T07:54:25.828Z</time></trkpt><trkpt lat="37.9020601" lon="13.6692036"><ele>598.0</ele><time>2026-05-01T07:54:26.828Z</time></trkpt><trkpt lat="37.9019522" lon="13.6690903"><ele>598.0</ele><time>2026-05-01T07:54:27.827Z</time></trkpt><trkpt lat="37.9018505" lon="13.6689801"><ele>598.0</ele><time>2026-05-01T07:54:28.828Z</time></trkpt><trkpt lat="37.9017603" lon="13.6688764"><ele>598.0</ele><time>2026-05-01T07:54:29.827Z</time></trkpt><trkpt lat="37.9016778" lon="13.6687534"><ele>598.0</ele><time>2026-05-01T07:54:30.827Z</time></trkpt><trkpt lat="37.9015784" lon="13.6686096"><ele>599.6666666666667</ele><time>2026-05-01T07:54:31.827Z</time></trkpt><trkpt lat="37.9014813" lon="13.668444"><ele>601.3333333333334</ele><time>2026-05-01T07:54:32.827Z</time></trkpt><trkpt lat="37.9013856" lon="13.6682719"><ele>603.0</ele><time>2026-05-01T07:54:33.828Z</time></trkpt><trkpt lat="37.9013038" lon="13.6681035"><ele>603.0</ele><time>2026-05-01T07:54:34.827Z</time></trkpt><trkpt lat="37.9012269" lon="13.6679522"><ele>603.0</ele><time>2026-05-01T07:54:35.828Z</time></trkpt><trkpt lat="37.9011542" lon="13.6678193"><ele>603.0</ele><time>2026-05-01T07:54:36.827Z</time></trkpt><trkpt lat="37.9010793" lon="13.6676989"><ele>603.0</ele><time>2026-05-01T07:54:37.827Z</time></trkpt><trkpt lat="37.9009943" lon="13.6676088"><ele>602.25</ele><time>2026-05-01T07:54:38.828Z</time></trkpt><trkpt lat="37.9008951" lon="13.6675426"><ele>601.5</ele><time>2026-05-01T07:54:39.827Z</time></trkpt><trkpt lat="37.9007778" lon="13.6675062"><ele>600.75</ele><time>2026-05-01T07:54:40.828Z</time></trkpt><trkpt lat="37.9006345" lon="13.6674892"><ele>600.0</ele><time>2026-05-01T07:54:41.827Z</time></trkpt><trkpt lat="37.9004693" lon="13.6674789"><ele>600.0</ele><time>2026-05-01T07:54:42.827Z</time></trkpt><trkpt lat="37.9003065" lon="13.6674546"><ele>600.0</ele><time>2026-05-01T07:54:43.828Z</time></trkpt><trkpt lat="37.9001504" lon="13.6674149"><ele>600.0</ele><time>2026-05-01T07:54:44.827Z</time></trkpt><trkpt lat="37.9000147" lon="13.6673478"><ele>599.25</ele><time>2026-05-01T07:54:45.827Z</time></trkpt><trkpt lat="37.8999041" lon="13.667252"><ele>598.5</ele><time>2026-05-01T07:54:46.828Z</time></trkpt><trkpt lat="37.8998118" lon="13.6671362"><ele>597.75</ele><time>2026-05-01T07:54:47.828Z</time></trkpt><trkpt lat="37.899715" lon="13.6670247"><ele>597.0</ele><time>2026-05-01T07:54:48.827Z</time></trkpt><trkpt lat="37.8996101" lon="13.6669447"><ele>599.6666666666666</ele><time>2026-05-01T07:54:49.828Z</time></trkpt><trkpt lat="37.8994875" lon="13.6668968"><ele>602.3333333333333</ele><time>2026-05-01T07:54:50.827Z</time></trkpt><trkpt lat="37.8993199" lon="13.6668717"><ele>605.0</ele><time>2026-05-01T07:54:51.828Z</time></trkpt><trkpt lat="37.8991278" lon="13.6668657"><ele>605.0</ele><time>2026-05-01T07:54:52.828Z</time></trkpt><trkpt lat="37.8989153" lon="13.6668647"><ele>605.0</ele><time>2026-05-01T07:54:53.827Z</time></trkpt><trkpt lat="37.8987249" lon="13.6668521"><ele>605.0</ele><time>2026-05-01T07:54:54.828Z</time></trkpt><trkpt lat="37.8985481" lon="13.6668308"><ele>604.0</ele><time>2026-05-01T07:54:55.828Z</time></trkpt><trkpt lat="37.8983717" lon="13.6667858"><ele>603.0</ele><time>2026-05-01T07:54:56.828Z</time></trkpt><trkpt lat="37.8981913" lon="13.6667192"><ele>602.0</ele><time>2026-05-01T07:54:57.828Z</time></trkpt><trkpt lat="37.8980099" lon="13.6666381"><ele>602.0</ele><time>2026-05-01T07:54:58.827Z</time></trkpt><trkpt lat="37.8978441" lon="13.6665716"><ele>602.0</ele><time>2026-05-01T07:54:59.827Z</time></trkpt><trkpt lat="37.8976978" lon="13.6664919"><ele>602.0</ele><time>2026-05-01T07:55:00.827Z</time></trkpt><trkpt lat="37.8975687" lon="13.6663873"><ele>602.3333333333333</ele><time>2026-05-01T07:55:01.827Z</time></trkpt><trkpt lat="37.897447" lon="13.666259"><ele>602.6666666666666</ele><time>2026-05-01T07:55:02.827Z</time></trkpt><trkpt lat="37.8973283" lon="13.666104"><ele>603.0</ele><time>2026-05-01T07:55:03.828Z</time></trkpt><trkpt lat="37.8972139" lon="13.6659315"><ele>600.3333333333334</ele><time>2026-05-01T07:55:04.827Z</time></trkpt><trkpt lat="37.8971079" lon="13.6657817"><ele>597.6666666666667</ele><time>2026-05-01T07:55:05.828Z</time></trkpt><trkpt lat="37.8969991" lon="13.6656443"><ele>595.0</ele><time>2026-05-01T07:55:06.827Z</time></trkpt><trkpt lat="37.8968853" lon="13.6655233"><ele>596.3333333333334</ele><time>2026-05-01T07:55:07.828Z</time></trkpt><trkpt lat="37.8967317" lon="13.6654227"><ele>597.6666666666666</ele><time>2026-05-01T07:55:08.828Z</time></trkpt><trkpt lat="37.8965695" lon="13.6653455"><ele>599.0</ele><time>2026-05-01T07:55:09.827Z</time></trkpt><trkpt lat="37.8964108" lon="13.6652842"><ele>595.0</ele><time>2026-05-01T07:55:10.827Z</time></trkpt><trkpt lat="37.8962511" lon="13.665242"><ele>591.0</ele><time>2026-05-01T07:55:11.827Z</time></trkpt><trkpt lat="37.8960811" lon="13.665231"><ele>587.0</ele><time>2026-05-01T07:55:12.827Z</time></trkpt><trkpt lat="37.8959103" lon="13.6652416"><ele>587.0</ele><time>2026-05-01T07:55:13.827Z</time></trkpt><trkpt lat="37.8957513" lon="13.665246"><ele>587.0</ele><time>2026-05-01T07:55:14.828Z</time></trkpt><trkpt lat="37.8956256" lon="13.6652394"><ele>587.0</ele><time>2026-05-01T07:55:15.827Z</time></trkpt><trkpt lat="37.8955314" lon="13.6652144"><ele>587.0</ele><time>2026-05-01T07:55:16.828Z</time></trkpt><trkpt lat="37.8954572" lon="13.6651571"><ele>587.0</ele><time>2026-05-01T07:55:17.827Z</time></trkpt><trkpt lat="37.8953992" lon="13.665068"><ele>587.0</ele><time>2026-05-01T07:55:18.827Z</time></trkpt><trkpt lat="37.8953588" lon="13.6649614"><ele>587.0</ele><time>2026-05-01T07:55:19.827Z</time></trkpt><trkpt lat="37.8953316" lon="13.6648131"><ele>587.0</ele><time>2026-05-01T07:55:20.827Z</time></trkpt><trkpt lat="37.8953072" lon="13.6646198"><ele>586.0</ele><time>2026-05-01T07:55:21.827Z</time></trkpt><trkpt lat="37.8952734" lon="13.6643935"><ele>585.0</ele><time>2026-05-01T07:55:22.827Z</time></trkpt><trkpt lat="37.8952385" lon="13.6641679"><ele>584.0</ele><time>2026-05-01T07:55:23.827Z</time></trkpt><trkpt lat="37.8952069" lon="13.6639653"><ele>584.0</ele><time>2026-05-01T07:55:24.827Z</time></trkpt><trkpt lat="37.8951882" lon="13.66378"><ele>584.0</ele><time>2026-05-01T07:55:25.828Z</time></trkpt><trkpt lat="37.8951965" lon="13.6636021"><ele>584.0</ele><time>2026-05-01T07:55:26.828Z</time></trkpt><trkpt lat="37.8952249" lon="13.6634055"><ele>584.0</ele><time>2026-05-01T07:55:27.827Z</time></trkpt><trkpt lat="37.8952648" lon="13.6631962"><ele>584.0</ele><time>2026-05-01T07:55:28.828Z</time></trkpt><trkpt lat="37.895297" lon="13.662997"><ele>584.0</ele><time>2026-05-01T07:55:29.827Z</time></trkpt><trkpt lat="37.8953187" lon="13.6628324"><ele>584.0</ele><time>2026-05-01T07:55:30.827Z</time></trkpt><trkpt lat="37.8953284" lon="13.6626747"><ele>584.0</ele><time>2026-05-01T07:55:31.828Z</time></trkpt><trkpt lat="37.8953124" lon="13.6625002"><ele>584.0</ele><time>2026-05-01T07:55:32.827Z</time></trkpt><trkpt lat="37.8952665" lon="13.662309"><ele>584.0</ele><time>2026-05-01T07:55:33.827Z</time></trkpt><trkpt lat="37.8951919" lon="13.6620914"><ele>584.0</ele><time>2026-05-01T07:55:34.828Z</time></trkpt><trkpt lat="37.8951061" lon="13.6618624"><ele>586.6666666666666</ele><time>2026-05-01T07:55:35.828Z</time></trkpt><trkpt lat="37.8950274" lon="13.6616512"><ele>589.3333333333334</ele><time>2026-05-01T07:55:36.827Z</time></trkpt><trkpt lat="37.8949577" lon="13.6614616"><ele>592.0</ele><time>2026-05-01T07:55:37.827Z</time></trkpt><trkpt lat="37.894902" lon="13.6612999"><ele>592.0</ele><time>2026-05-01T07:55:38.828Z</time></trkpt><trkpt lat="37.8948596" lon="13.6611519"><ele>592.0</ele><time>2026-05-01T07:55:39.828Z</time></trkpt><trkpt lat="37.8948368" lon="13.6609902"><ele>592.0</ele><time>2026-05-01T07:55:40.827Z</time></trkpt><trkpt lat="37.8948455" lon="13.6608074"><ele>592.0</ele><time>2026-05-01T07:55:41.828Z</time></trkpt><trkpt lat="37.894866" lon="13.6606072"><ele>592.6666666666667</ele><time>2026-05-01T07:55:42.827Z</time></trkpt><trkpt lat="37.8948885" lon="13.6604013"><ele>593.3333333333334</ele><time>2026-05-01T07:55:43.828Z</time></trkpt><trkpt lat="37.8949108" lon="13.6601835"><ele>594.0</ele><time>2026-05-01T07:55:44.827Z</time></trkpt><trkpt lat="37.8949336" lon="13.6599759"><ele>594.0</ele><time>2026-05-01T07:55:45.827Z</time></trkpt><trkpt lat="37.8949478" lon="13.6597822"><ele>594.0</ele><time>2026-05-01T07:55:46.827Z</time></trkpt><trkpt lat="37.8949612" lon="13.659603"><ele>594.0</ele><time>2026-05-01T07:55:47.827Z</time></trkpt><trkpt lat="37.8949588" lon="13.6594362"><ele>594.0</ele><time>2026-05-01T07:55:48.827Z</time></trkpt><trkpt lat="37.8949236" lon="13.659281"><ele>593.75</ele><time>2026-05-01T07:55:49.827Z</time></trkpt><trkpt lat="37.8948688" lon="13.6591444"><ele>593.5</ele><time>2026-05-01T07:55:50.827Z</time></trkpt><trkpt lat="37.8947892" lon="13.659013"><ele>593.25</ele><time>2026-05-01T07:55:51.827Z</time></trkpt><trkpt lat="37.8946815" lon="13.6588864"><ele>593.0</ele><time>2026-05-01T07:55:52.827Z</time></trkpt><trkpt lat="37.894546" lon="13.6587649"><ele>593.0</ele><time>2026-05-01T07:55:53.827Z</time></trkpt><trkpt lat="37.8943963" lon="13.6586493"><ele>593.0</ele><time>2026-05-01T07:55:54.827Z</time></trkpt><trkpt lat="37.8942559" lon="13.6585381"><ele>593.0</ele><time>2026-05-01T07:55:55.828Z</time></trkpt><trkpt lat="37.8941364" lon="13.6584298"><ele>591.5</ele><time>2026-05-01T07:55:56.827Z</time></trkpt><trkpt lat="37.8940475" lon="13.658321"><ele>590.0</ele><time>2026-05-01T07:55:57.828Z</time></trkpt><trkpt lat="37.8939724" lon="13.6581893"><ele>588.5</ele><time>2026-05-01T07:55:58.827Z</time></trkpt><trkpt lat="37.8939035" lon="13.6580201"><ele>587.0</ele><time>2026-05-01T07:55:59.827Z</time></trkpt><trkpt lat="37.8938254" lon="13.6578295"><ele>588.6666666666666</ele><time>2026-05-01T07:56:00.827Z</time></trkpt><trkpt lat="37.8937412" lon="13.6576328"><ele>590.3333333333334</ele><time>2026-05-01T07:56:01.827Z</time></trkpt><trkpt lat="37.8936598" lon="13.6574465"><ele>592.0</ele><time>2026-05-01T07:56:02.827Z</time></trkpt><trkpt lat="37.8935824" lon="13.6572803"><ele>592.0</ele><time>2026-05-01T07:56:03.828Z</time></trkpt><trkpt lat="37.8935031" lon="13.6571346"><ele>592.0</ele><time>2026-05-01T07:56:04.827Z</time></trkpt><trkpt lat="37.8934144" lon="13.6570069"><ele>592.0</ele><time>2026-05-01T07:56:05.827Z</time></trkpt><trkpt lat="37.8933138" lon="13.6569031"><ele>592.0</ele><time>2026-05-01T07:56:06.827Z</time></trkpt><trkpt lat="37.8931949" lon="13.6568098"><ele>591.0</ele><time>2026-05-01T07:56:07.827Z</time></trkpt><trkpt lat="37.8930534" lon="13.6567392"><ele>590.0</ele><time>2026-05-01T07:56:08.828Z</time></trkpt><trkpt lat="37.8928923" lon="13.6566881"><ele>589.0</ele><time>2026-05-01T07:56:09.827Z</time></trkpt><trkpt lat="37.8927223" lon="13.656638"><ele>586.3333333333334</ele><time>2026-05-01T07:56:10.827Z</time></trkpt><trkpt lat="37.8925459" lon="13.6565852"><ele>583.6666666666666</ele><time>2026-05-01T07:56:11.828Z</time></trkpt><trkpt lat="37.8923684" lon="13.6565349"><ele>581.0</ele><time>2026-05-01T07:56:12.827Z</time></trkpt><trkpt lat="37.8921951" lon="13.6564885"><ele>581.0</ele><time>2026-05-01T07:56:13.828Z</time></trkpt><trkpt lat="37.892025" lon="13.6564609"><ele>581.0</ele><time>2026-05-01T07:56:14.828Z</time></trkpt><trkpt lat="37.8918762" lon="13.6564422"><ele>581.0</ele><time>2026-05-01T07:56:15.828Z</time></trkpt><trkpt lat="37.8917401" lon="13.6564134"><ele>579.3333333333333</ele><time>2026-05-01T07:56:16.827Z</time></trkpt><trkpt lat="37.8916086" lon="13.6563495"><ele>577.6666666666666</ele><time>2026-05-01T07:56:17.827Z</time></trkpt><trkpt lat="37.8914674" lon="13.6562382"><ele>576.0</ele><time>2026-05-01T07:56:18.827Z</time></trkpt><trkpt lat="37.8913236" lon="13.6561193"><ele>581.0</ele><time>2026-05-01T07:56:19.827Z</time></trkpt><trkpt lat="37.8911878" lon="13.6560112"><ele>586.0</ele><time>2026-05-01T07:56:20.827Z</time></trkpt><trkpt lat="37.8910571" lon="13.6559248"><ele>591.0</ele><time>2026-05-01T07:56:21.827Z</time></trkpt><trkpt lat="37.8909254" lon="13.6558777"><ele>596.0</ele><time>2026-05-01T07:56:22.828Z</time></trkpt><trkpt lat="37.8907785" lon="13.6558591"><ele>596.0</ele><time>2026-05-01T07:56:23.827Z</time></trkpt><trkpt lat="37.8906046" lon="13.6558691"><ele>596.0</ele><time>2026-05-01T07:56:24.828Z</time></trkpt><trkpt lat="37.8904004" lon="13.6558805"><ele>596.0</ele><time>2026-05-01T07:56:25.827Z</time></trkpt><trkpt lat="37.8901797" lon="13.6559015"><ele>595.0</ele><time>2026-05-01T07:56:26.827Z</time></trkpt><trkpt lat="37.8899545" lon="13.6559162"><ele>594.0</ele><time>2026-05-01T07:56:27.828Z</time></trkpt><trkpt lat="37.8897241" lon="13.6559281"><ele>594.0</ele><time>2026-05-01T07:56:28.828Z</time></trkpt><trkpt lat="37.8894794" lon="13.6559338"><ele>594.0</ele><time>2026-05-01T07:56:29.827Z</time></trkpt><trkpt lat="37.8892496" lon="13.6559427"><ele>595.0</ele><time>2026-05-01T07:56:30.828Z</time></trkpt><trkpt lat="37.8890478" lon="13.655957"><ele>596.0</ele><time>2026-05-01T07:56:31.827Z</time></trkpt><trkpt lat="37.8888685" lon="13.6559909"><ele>597.0</ele><time>2026-05-01T07:56:32.828Z</time></trkpt><trkpt lat="37.8887124" lon="13.6560325"><ele>597.0</ele><time>2026-05-01T07:56:33.828Z</time></trkpt><trkpt lat="37.8885856" lon="13.6560681"><ele>597.0</ele><time>2026-05-01T07:56:34.827Z</time></trkpt><trkpt lat="37.8884861" lon="13.6560903"><ele>597.0</ele><time>2026-05-01T07:56:35.827Z</time></trkpt><trkpt lat="37.8884093" lon="13.6560886"><ele>597.0</ele><time>2026-05-01T07:56:36.827Z</time></trkpt><trkpt lat="37.8883506" lon="13.6560561"><ele>597.0</ele><time>2026-05-01T07:56:37.827Z</time></trkpt><trkpt lat="37.8882857" lon="13.6559368"><ele>597.0</ele><time>2026-05-01T07:56:39.827Z</time></trkpt><trkpt lat="37.8883275" lon="13.6557692"><ele>597.0</ele><time>2026-05-01T07:56:41.827Z</time></trkpt><trkpt lat="37.8883915" lon="13.6557148"><ele>597.0</ele><time>2026-05-01T07:56:42.828Z</time></trkpt><trkpt lat="37.8884774" lon="13.6556677"><ele>597.0</ele><time>2026-05-01T07:56:43.828Z</time></trkpt><trkpt lat="37.8885838" lon="13.6556236"><ele>597.0</ele><time>2026-05-01T07:56:44.827Z</time></trkpt><trkpt lat="37.8887234" lon="13.6555415"><ele>597.0</ele><time>2026-05-01T07:56:45.827Z</time></trkpt><trkpt lat="37.8888973" lon="13.6554179"><ele>597.0</ele><time>2026-05-01T07:56:46.828Z</time></trkpt><trkpt lat="37.8890749" lon="13.6552822"><ele>597.0</ele><time>2026-05-01T07:56:47.827Z</time></trkpt><trkpt lat="37.8892173" lon="13.6551814"><ele>601.2</ele><time>2026-05-01T07:56:48.827Z</time></trkpt><trkpt lat="37.8893284" lon="13.6550968"><ele>605.4000000000001</ele><time>2026-05-01T07:56:49.827Z</time></trkpt><trkpt lat="37.8894239" lon="13.6550218"><ele>609.5999999999999</ele><time>2026-05-01T07:56:50.827Z</time></trkpt><trkpt lat="37.8894992" lon="13.6549611"><ele>613.8</ele><time>2026-05-01T07:56:51.828Z</time></trkpt><trkpt lat="37.8895393" lon="13.654892"><ele>618.0</ele><time>2026-05-01T07:56:52.828Z</time></trkpt><trkpt lat="37.8895538" lon="13.6548028"><ele>618.0</ele><time>2026-05-01T07:56:53.827Z</time></trkpt><trkpt lat="37.8895348" lon="13.6547122"><ele>618.0</ele><time>2026-05-01T07:56:54.827Z</time></trkpt><trkpt lat="37.8894925" lon="13.6546293"><ele>618.0</ele><time>2026-05-01T07:56:55.827Z</time></trkpt><trkpt lat="37.8894305" lon="13.6545906"><ele>618.0</ele><time>2026-05-01T07:56:56.828Z</time></trkpt><trkpt lat="37.8893502" lon="13.6545907"><ele>618.0</ele><time>2026-05-01T07:56:57.828Z</time></trkpt><trkpt lat="37.8892614" lon="13.6546201"><ele>618.0</ele><time>2026-05-01T07:56:58.828Z</time></trkpt><trkpt lat="37.8891651" lon="13.6546834"><ele>615.75</ele><time>2026-05-01T07:56:59.828Z</time></trkpt><trkpt lat="37.8890578" lon="13.6547583"><ele>613.5</ele><time>2026-05-01T07:57:00.827Z</time></trkpt><trkpt lat="37.8889384" lon="13.6548304"><ele>611.25</ele><time>2026-05-01T07:57:01.827Z</time></trkpt><trkpt lat="37.8888045" lon="13.6548865"><ele>609.0</ele><time>2026-05-01T07:57:02.827Z</time></trkpt><trkpt lat="37.8886608" lon="13.6549221"><ele>609.0</ele><time>2026-05-01T07:57:03.827Z</time></trkpt><trkpt lat="37.8885046" lon="13.6549238"><ele>609.0</ele><time>2026-05-01T07:57:04.827Z</time></trkpt><trkpt lat="37.8883395" lon="13.654895"><ele>609.0</ele><time>2026-05-01T07:57:05.828Z</time></trkpt><trkpt lat="37.8881665" lon="13.6548441"><ele>610.6666666666666</ele><time>2026-05-01T07:57:06.827Z</time></trkpt><trkpt lat="37.8879898" lon="13.654785"><ele>612.3333333333333</ele><time>2026-05-01T07:57:07.827Z</time></trkpt><trkpt lat="37.8878067" lon="13.6547254"><ele>614.0</ele><time>2026-05-01T07:57:08.828Z</time></trkpt><trkpt lat="37.8876068" lon="13.6546537"><ele>620.0</ele><time>2026-05-01T07:57:09.827Z</time></trkpt><trkpt lat="37.8873979" lon="13.6545636"><ele>626.0</ele><time>2026-05-01T07:57:10.827Z</time></trkpt><trkpt lat="37.8871816" lon="13.6544588"><ele>627.5</ele><time>2026-05-01T07:57:11.828Z</time></trkpt><trkpt lat="37.8869636" lon="13.6543494"><ele>629.0</ele><time>2026-05-01T07:57:12.828Z</time></trkpt><trkpt lat="37.8867455" lon="13.6542307"><ele>629.0</ele><time>2026-05-01T07:57:13.827Z</time></trkpt><trkpt lat="37.8865388" lon="13.6540992"><ele>629.0</ele><time>2026-05-01T07:57:14.828Z</time></trkpt><trkpt lat="37.8863287" lon="13.6539543"><ele>629.0</ele><time>2026-05-01T07:57:15.828Z</time></trkpt><trkpt lat="37.886113" lon="13.6538044"><ele>629.0</ele><time>2026-05-01T07:57:16.828Z</time></trkpt><trkpt lat="37.8859114" lon="13.6536686"><ele>629.6666666666666</ele><time>2026-05-01T07:57:17.827Z</time></trkpt><trkpt lat="37.8857347" lon="13.6535481"><ele>630.3333333333334</ele><time>2026-05-01T07:57:18.828Z</time></trkpt><trkpt lat="37.8855773" lon="13.6534247"><ele>631.0</ele><time>2026-05-01T07:57:19.828Z</time></trkpt><trkpt lat="37.8854501" lon="13.6532824"><ele>631.0</ele><time>2026-05-01T07:57:20.828Z</time></trkpt><trkpt lat="37.8853307" lon="13.6531144"><ele>631.0</ele><time>2026-05-01T07:57:21.827Z</time></trkpt><trkpt lat="37.8852154" lon="13.6529429"><ele>631.0</ele><time>2026-05-01T07:57:22.828Z</time></trkpt><trkpt lat="37.8851028" lon="13.6527973"><ele>632.2</ele><time>2026-05-01T07:57:23.828Z</time></trkpt><trkpt lat="37.8850035" lon="13.6526966"><ele>633.4000000000001</ele><time>2026-05-01T07:57:24.828Z</time></trkpt><trkpt lat="37.8849173" lon="13.6526238"><ele>634.6</ele><time>2026-05-01T07:57:25.828Z</time></trkpt><trkpt lat="37.8848427" lon="13.6525899"><ele>635.8000000000001</ele><time>2026-05-01T07:57:26.827Z</time></trkpt><trkpt lat="37.8847728" lon="13.6525676"><ele>637.0</ele><time>2026-05-01T07:57:27.827Z</time></trkpt><trkpt lat="37.8846952" lon="13.6525483"><ele>637.0</ele><time>2026-05-01T07:57:28.827Z</time></trkpt><trkpt lat="37.8846121" lon="13.6525146"><ele>637.0</ele><time>2026-05-01T07:57:29.828Z</time></trkpt><trkpt lat="37.8845209" lon="13.652462"><ele>637.0</ele><time>2026-05-01T07:57:30.828Z</time></trkpt><trkpt lat="37.8844288" lon="13.6523762"><ele>637.0</ele><time>2026-05-01T07:57:31.828Z</time></trkpt><trkpt lat="37.8843382" lon="13.6522541"><ele>637.0</ele><time>2026-05-01T07:57:32.827Z</time></trkpt><trkpt lat="37.8842525" lon="13.6521134"><ele>637.75</ele><time>2026-05-01T07:57:33.828Z</time></trkpt><trkpt lat="37.8841797" lon="13.6519649"><ele>638.5</ele><time>2026-05-01T07:57:34.828Z</time></trkpt><trkpt lat="37.8841184" lon="13.6518155"><ele>639.25</ele><time>2026-05-01T07:57:35.828Z</time></trkpt><trkpt lat="37.8840564" lon="13.6516764"><ele>640.0</ele><time>2026-05-01T07:57:36.827Z</time></trkpt><trkpt lat="37.8839671" lon="13.6515585"><ele>640.0</ele><time>2026-05-01T07:57:37.828Z</time></trkpt><trkpt lat="37.8838538" lon="13.6514465"><ele>640.0</ele><time>2026-05-01T07:57:38.827Z</time></trkpt><trkpt lat="37.883715" lon="13.6513386"><ele>640.0</ele><time>2026-05-01T07:57:39.828Z</time></trkpt><trkpt lat="37.8835721" lon="13.6512287"><ele>640.0</ele><time>2026-05-01T07:57:40.827Z</time></trkpt><trkpt lat="37.883438" lon="13.6511247"><ele>640.0</ele><time>2026-05-01T07:57:41.828Z</time></trkpt><trkpt lat="37.8833194" lon="13.6510315"><ele>640.0</ele><time>2026-05-01T07:57:42.827Z</time></trkpt><trkpt lat="37.883212" lon="13.6509439"><ele>640.0</ele><time>2026-05-01T07:57:43.827Z</time></trkpt><trkpt lat="37.8831274" lon="13.6508499"><ele>639.25</ele><time>2026-05-01T07:57:44.827Z</time></trkpt><trkpt lat="37.8830718" lon="13.6507311"><ele>638.5</ele><time>2026-05-01T07:57:45.828Z</time></trkpt><trkpt lat="37.8830223" lon="13.6505849"><ele>637.75</ele><time>2026-05-01T07:57:46.828Z</time></trkpt><trkpt lat="37.882959" lon="13.6504268"><ele>637.0</ele><time>2026-05-01T07:57:47.827Z</time></trkpt><trkpt lat="37.8828514" lon="13.6502448"><ele>633.3333333333334</ele><time>2026-05-01T07:57:48.827Z</time></trkpt><trkpt lat="37.8827188" lon="13.6500435"><ele>629.6666666666666</ele><time>2026-05-01T07:57:49.828Z</time></trkpt><trkpt lat="37.8825577" lon="13.6498202"><ele>626.0</ele><time>2026-05-01T07:57:50.827Z</time></trkpt><trkpt lat="37.8823752" lon="13.6495885"><ele>635.5</ele><time>2026-05-01T07:57:51.827Z</time></trkpt><trkpt lat="37.8821841" lon="13.6493645"><ele>645.0</ele><time>2026-05-01T07:57:52.827Z</time></trkpt><trkpt lat="37.8819885" lon="13.6491475"><ele>645.0</ele><time>2026-05-01T07:57:53.827Z</time></trkpt><trkpt lat="37.8818036" lon="13.6489358"><ele>645.0</ele><time>2026-05-01T07:57:54.827Z</time></trkpt><trkpt lat="37.8816285" lon="13.6487315"><ele>637.0</ele><time>2026-05-01T07:57:55.827Z</time></trkpt><trkpt lat="37.8814628" lon="13.6485294"><ele>629.0</ele><time>2026-05-01T07:57:56.827Z</time></trkpt><trkpt lat="37.8813101" lon="13.6483285"><ele>629.0</ele><time>2026-05-01T07:57:57.828Z</time></trkpt><trkpt lat="37.8811625" lon="13.6481422"><ele>629.0</ele><time>2026-05-01T07:57:58.827Z</time></trkpt><trkpt lat="37.8810247" lon="13.6479685"><ele>629.0</ele><time>2026-05-01T07:57:59.828Z</time></trkpt><trkpt lat="37.8808838" lon="13.6478234"><ele>626.25</ele><time>2026-05-01T07:58:00.828Z</time></trkpt><trkpt lat="37.8807453" lon="13.6477069"><ele>623.5</ele><time>2026-05-01T07:58:01.827Z</time></trkpt><trkpt lat="37.8806132" lon="13.6476271"><ele>620.75</ele><time>2026-05-01T07:58:02.827Z</time></trkpt><trkpt lat="37.8804812" lon="13.6475845"><ele>618.0</ele><time>2026-05-01T07:58:03.827Z</time></trkpt><trkpt lat="37.8803544" lon="13.6475791"><ele>618.0</ele><time>2026-05-01T07:58:04.828Z</time></trkpt><trkpt lat="37.8802249" lon="13.6475993"><ele>618.0</ele><time>2026-05-01T07:58:05.828Z</time></trkpt><trkpt lat="37.8801003" lon="13.6476192"><ele>618.0</ele><time>2026-05-01T07:58:06.827Z</time></trkpt><trkpt lat="37.8799815" lon="13.6476111"><ele>618.0</ele><time>2026-05-01T07:58:07.828Z</time></trkpt><trkpt lat="37.8798773" lon="13.6475756"><ele>615.0</ele><time>2026-05-01T07:58:08.827Z</time></trkpt><trkpt lat="37.8797756" lon="13.6475228"><ele>612.0</ele><time>2026-05-01T07:58:09.827Z</time></trkpt><trkpt lat="37.879667" lon="13.6474578"><ele>609.0</ele><time>2026-05-01T07:58:10.828Z</time></trkpt><trkpt lat="37.8795489" lon="13.6473704"><ele>606.0</ele><time>2026-05-01T07:58:11.827Z</time></trkpt><trkpt lat="37.8794249" lon="13.6472716"><ele>606.0</ele><time>2026-05-01T07:58:12.828Z</time></trkpt><trkpt lat="37.8793081" lon="13.6471687"><ele>606.0</ele><time>2026-05-01T07:58:13.827Z</time></trkpt><trkpt lat="37.8792034" lon="13.6470626"><ele>606.0</ele><time>2026-05-01T07:58:14.827Z</time></trkpt><trkpt lat="37.8791074" lon="13.6469558"><ele>606.0</ele><time>2026-05-01T07:58:15.828Z</time></trkpt><trkpt lat="37.8790181" lon="13.646854"><ele>605.1666666666666</ele><time>2026-05-01T07:58:16.827Z</time></trkpt><trkpt lat="37.8789432" lon="13.6467605"><ele>604.3333333333334</ele><time>2026-05-01T07:58:17.827Z</time></trkpt><trkpt lat="37.8788836" lon="13.6466713"><ele>603.5</ele><time>2026-05-01T07:58:18.827Z</time></trkpt><trkpt lat="37.878845" lon="13.6465831"><ele>602.6666666666667</ele><time>2026-05-01T07:58:19.828Z</time></trkpt><trkpt lat="37.8788331" lon="13.6464892"><ele>601.8333333333334</ele><time>2026-05-01T07:58:20.827Z</time></trkpt><trkpt lat="37.8788282" lon="13.6463857"><ele>601.0</ele><time>2026-05-01T07:58:21.827Z</time></trkpt><trkpt lat="37.8788305" lon="13.6462761"><ele>601.0</ele><time>2026-05-01T07:58:22.827Z</time></trkpt><trkpt lat="37.8788286" lon="13.6461585"><ele>601.0</ele><time>2026-05-01T07:58:23.827Z</time></trkpt><trkpt lat="37.8788273" lon="13.6460408"><ele>601.0</ele><time>2026-05-01T07:58:24.827Z</time></trkpt><trkpt lat="37.8788291" lon="13.6459248"><ele>601.0</ele><time>2026-05-01T07:58:25.828Z</time></trkpt><trkpt lat="37.878836" lon="13.6458125"><ele>601.0</ele><time>2026-05-01T07:58:26.828Z</time></trkpt><trkpt lat="37.8788398" lon="13.6456961"><ele>599.6666666666667</ele><time>2026-05-01T07:58:27.827Z</time></trkpt><trkpt lat="37.8788336" lon="13.6455877"><ele>598.3333333333334</ele><time>2026-05-01T07:58:28.827Z</time></trkpt><trkpt lat="37.8788141" lon="13.6454919"><ele>597.0</ele><time>2026-05-01T07:58:29.827Z</time></trkpt><trkpt lat="37.8787763" lon="13.6454065"><ele>595.6666666666666</ele><time>2026-05-01T07:58:30.827Z</time></trkpt><trkpt lat="37.8787254" lon="13.6453365"><ele>594.3333333333333</ele><time>2026-05-01T07:58:31.828Z</time></trkpt><trkpt lat="37.8786535" lon="13.6452827"><ele>593.0</ele><time>2026-05-01T07:58:32.827Z</time></trkpt><trkpt lat="37.8785785" lon="13.6452515"><ele>593.0</ele><time>2026-05-01T07:58:33.827Z</time></trkpt><trkpt lat="37.8784799" lon="13.6452473"><ele>593.0</ele><time>2026-05-01T07:58:35.828Z</time></trkpt><trkpt lat="37.8784409" lon="13.6453128"><ele>593.0</ele><time>2026-05-01T07:58:38.828Z</time></trkpt><trkpt lat="37.8785241" lon="13.6453517"><ele>593.0</ele><time>2026-05-01T07:58:43.827Z</time></trkpt><trkpt lat="37.8786103" lon="13.6453763"><ele>593.0</ele><time>2026-05-01T07:58:45.828Z</time></trkpt><trkpt lat="37.8786901" lon="13.6454482"><ele>593.0</ele><time>2026-05-01T07:58:47.828Z</time></trkpt><trkpt lat="37.8787395" lon="13.6455163"><ele>593.0</ele><time>2026-05-01T07:58:50.835Z</time></trkpt><trkpt lat="37.8787662" lon="13.6455971"><ele>593.0</ele><time>2026-05-01T08:02:49.834Z</time></trkpt><trkpt lat="37.87881" lon="13.6455209"><ele>593.0</ele><time>2026-05-01T08:02:56.835Z</time></trkpt><trkpt lat="37.8787679" lon="13.6453863"><ele>593.0</ele><time>2026-05-01T08:02:58.834Z</time></trkpt><trkpt lat="37.8787174" lon="13.6453226"><ele>593.0</ele><time>2026-05-01T08:02:59.835Z</time></trkpt><trkpt lat="37.8786547" lon="13.6452763"><ele>593.0</ele><time>2026-05-01T08:03:00.835Z</time></trkpt><trkpt lat="37.8785737" lon="13.6452537"><ele>592.6</ele><time>2026-05-01T08:03:01.835Z</time></trkpt><trkpt lat="37.8784911" lon="13.645252"><ele>592.1999999999999</ele><time>2026-05-01T08:03:02.834Z</time></trkpt><trkpt lat="37.878407" lon="13.6452806"><ele>591.8</ele><time>2026-05-01T08:03:03.835Z</time></trkpt><trkpt lat="37.8783224" lon="13.645345"><ele>591.4</ele><time>2026-05-01T08:03:04.835Z</time></trkpt><trkpt lat="37.8782297" lon="13.6454424"><ele>591.0</ele><time>2026-05-01T08:03:05.835Z</time></trkpt><trkpt lat="37.8781467" lon="13.6455263"><ele>593.6666666666666</ele><time>2026-05-01T08:03:06.834Z</time></trkpt><trkpt lat="37.8780736" lon="13.6455839"><ele>596.3333333333334</ele><time>2026-05-01T08:03:07.834Z</time></trkpt><trkpt lat="37.8780007" lon="13.6456118"><ele>599.0</ele><time>2026-05-01T08:03:08.834Z</time></trkpt><trkpt lat="37.877922" lon="13.6455959"><ele>601.6666666666667</ele><time>2026-05-01T08:03:09.834Z</time></trkpt><trkpt lat="37.8778482" lon="13.6455535"><ele>604.3333333333334</ele><time>2026-05-01T08:03:10.834Z</time></trkpt><trkpt lat="37.8777828" lon="13.6454889"><ele>607.0</ele><time>2026-05-01T08:03:11.834Z</time></trkpt><trkpt lat="37.8777421" lon="13.6454095"><ele>607.0</ele><time>2026-05-01T08:03:12.835Z</time></trkpt><trkpt lat="37.8777208" lon="13.6453169"><ele>607.0</ele><time>2026-05-01T08:03:13.835Z</time></trkpt><trkpt lat="37.8777072" lon="13.6451987"><ele>607.0</ele><time>2026-05-01T08:03:14.835Z</time></trkpt><trkpt lat="37.8776952" lon="13.6450979"><ele>607.0</ele><time>2026-05-01T08:03:15.835Z</time></trkpt><trkpt lat="37.8776611" lon="13.645018"><ele>607.0</ele><time>2026-05-01T08:03:16.834Z</time></trkpt><trkpt lat="37.8776051" lon="13.6449521"><ele>607.0</ele><time>2026-05-01T08:03:17.835Z</time></trkpt><trkpt lat="37.8775277" lon="13.6449048"><ele>603.0</ele><time>2026-05-01T08:03:18.834Z</time></trkpt><trkpt lat="37.8774324" lon="13.6448724"><ele>599.0</ele><time>2026-05-01T08:03:19.835Z</time></trkpt><trkpt lat="37.8773127" lon="13.644862"><ele>595.0</ele><time>2026-05-01T08:03:20.834Z</time></trkpt><trkpt lat="37.8771809" lon="13.6448599"><ele>591.0</ele><time>2026-05-01T08:03:21.834Z</time></trkpt><trkpt lat="37.8770402" lon="13.6448497"><ele>591.0</ele><time>2026-05-01T08:03:22.834Z</time></trkpt><trkpt lat="37.8768903" lon="13.6448173"><ele>591.0</ele><time>2026-05-01T08:03:23.835Z</time></trkpt><trkpt lat="37.8767337" lon="13.6447553"><ele>591.0</ele><time>2026-05-01T08:03:24.834Z</time></trkpt><trkpt lat="37.8765781" lon="13.6446576"><ele>589.3333333333334</ele><time>2026-05-01T08:03:25.835Z</time></trkpt><trkpt lat="37.8764289" lon="13.6445364"><ele>587.6666666666667</ele><time>2026-05-01T08:03:26.834Z</time></trkpt><trkpt lat="37.876276" lon="13.6444072"><ele>586.0</ele><time>2026-05-01T08:03:27.834Z</time></trkpt><trkpt lat="37.8761252" lon="13.6442668"><ele>582.6666666666667</ele><time>2026-05-01T08:03:28.835Z</time></trkpt><trkpt lat="37.8759744" lon="13.6441131"><ele>579.3333333333334</ele><time>2026-05-01T08:03:29.835Z</time></trkpt><trkpt lat="37.8758248" lon="13.6439502"><ele>576.0</ele><time>2026-05-01T08:03:30.834Z</time></trkpt><trkpt lat="37.8756698" lon="13.6437843"><ele>573.0</ele><time>2026-05-01T08:03:31.835Z</time></trkpt><trkpt lat="37.8755104" lon="13.6436149"><ele>570.0</ele><time>2026-05-01T08:03:32.834Z</time></trkpt><trkpt lat="37.8753421" lon="13.6434287"><ele>567.0</ele><time>2026-05-01T08:03:33.834Z</time></trkpt><trkpt lat="37.8751597" lon="13.6432379"><ele>566.0</ele><time>2026-05-01T08:03:34.835Z</time></trkpt><trkpt lat="37.8749704" lon="13.6430418"><ele>565.0</ele><time>2026-05-01T08:03:35.835Z</time></trkpt><trkpt lat="37.8747853" lon="13.6428402"><ele>563.5</ele><time>2026-05-01T08:03:36.834Z</time></trkpt><trkpt lat="37.8746058" lon="13.6426462"><ele>562.0</ele><time>2026-05-01T08:03:37.834Z</time></trkpt><trkpt lat="37.8744284" lon="13.6424548"><ele>557.5</ele><time>2026-05-01T08:03:38.834Z</time></trkpt><trkpt lat="37.8742495" lon="13.6422653"><ele>553.0</ele><time>2026-05-01T08:03:39.835Z</time></trkpt><trkpt lat="37.8740713" lon="13.6420746"><ele>551.0</ele><time>2026-05-01T08:03:40.835Z</time></trkpt><trkpt lat="37.8738925" lon="13.6418821"><ele>549.0</ele><time>2026-05-01T08:03:41.835Z</time></trkpt><trkpt lat="37.8737195" lon="13.6416866"><ele>549.0</ele><time>2026-05-01T08:03:42.834Z</time></trkpt><trkpt lat="37.8735484" lon="13.6414825"><ele>549.0</ele><time>2026-05-01T08:03:43.834Z</time></trkpt><trkpt lat="37.8733854" lon="13.6412659"><ele>547.0</ele><time>2026-05-01T08:03:44.834Z</time></trkpt><trkpt lat="37.8732311" lon="13.6410348"><ele>545.0</ele><time>2026-05-01T08:03:45.834Z</time></trkpt><trkpt lat="37.8730829" lon="13.6407842"><ele>545.0</ele><time>2026-05-01T08:03:46.835Z</time></trkpt><trkpt lat="37.8729392" lon="13.6405234"><ele>545.0</ele><time>2026-05-01T08:03:47.834Z</time></trkpt><trkpt lat="37.8728046" lon="13.6402658"><ele>544.5</ele><time>2026-05-01T08:03:48.834Z</time></trkpt><trkpt lat="37.8726762" lon="13.6400253"><ele>544.0</ele><time>2026-05-01T08:03:49.834Z</time></trkpt><trkpt lat="37.8725315" lon="13.6398143"><ele>544.0</ele><time>2026-05-01T08:03:50.834Z</time></trkpt><trkpt lat="37.8723769" lon="13.6396282"><ele>544.0</ele><time>2026-05-01T08:03:51.834Z</time></trkpt><trkpt lat="37.872201" lon="13.6394587"><ele>544.0</ele><time>2026-05-01T08:03:52.834Z</time></trkpt><trkpt lat="37.872015" lon="13.6393078"><ele>544.0</ele><time>2026-05-01T08:03:53.834Z</time></trkpt><trkpt lat="37.8718128" lon="13.6391622"><ele>544.0</ele><time>2026-05-01T08:03:54.834Z</time></trkpt><trkpt lat="37.8716143" lon="13.6390222"><ele>545.6666666666667</ele><time>2026-05-01T08:03:55.835Z</time></trkpt><trkpt lat="37.8714417" lon="13.638891"><ele>547.3333333333334</ele><time>2026-05-01T08:03:56.834Z</time></trkpt><trkpt lat="37.8712982" lon="13.6387853"><ele>549.0</ele><time>2026-05-01T08:03:57.834Z</time></trkpt><trkpt lat="37.8711768" lon="13.6387028"><ele>549.0</ele><time>2026-05-01T08:03:58.834Z</time></trkpt><trkpt lat="37.871056" lon="13.6386506"><ele>549.0</ele><time>2026-05-01T08:03:59.834Z</time></trkpt><trkpt lat="37.8709311" lon="13.6386339"><ele>549.0</ele><time>2026-05-01T08:04:00.834Z</time></trkpt><trkpt lat="37.8707975" lon="13.6386426"><ele>549.0</ele><time>2026-05-01T08:04:01.835Z</time></trkpt><trkpt lat="37.8706533" lon="13.6386666"><ele>548.6666666666666</ele><time>2026-05-01T08:04:02.834Z</time></trkpt><trkpt lat="37.8704977" lon="13.6386868"><ele>548.3333333333333</ele><time>2026-05-01T08:04:03.835Z</time></trkpt><trkpt lat="37.8703409" lon="13.6387119"><ele>548.0</ele><time>2026-05-01T08:04:04.834Z</time></trkpt><trkpt lat="37.8701655" lon="13.6387355"><ele>545.6666666666666</ele><time>2026-05-01T08:04:05.834Z</time></trkpt><trkpt lat="37.8699705" lon="13.6387789"><ele>543.3333333333334</ele><time>2026-05-01T08:04:06.834Z</time></trkpt><trkpt lat="37.8697746" lon="13.6388178"><ele>541.0</ele><time>2026-05-01T08:04:07.835Z</time></trkpt><trkpt lat="37.8695817" lon="13.6388465"><ele>541.0</ele><time>2026-05-01T08:04:08.835Z</time></trkpt><trkpt lat="37.8693963" lon="13.6388717"><ele>541.0</ele><time>2026-05-01T08:04:09.834Z</time></trkpt><trkpt lat="37.8692141" lon="13.6388926"><ele>541.0</ele><time>2026-05-01T08:04:10.834Z</time></trkpt><trkpt lat="37.8690242" lon="13.6389063"><ele>540.6666666666667</ele><time>2026-05-01T08:04:11.835Z</time></trkpt><trkpt lat="37.8688304" lon="13.6389032"><ele>540.3333333333334</ele><time>2026-05-01T08:04:12.834Z</time></trkpt><trkpt lat="37.8686428" lon="13.638887"><ele>540.0</ele><time>2026-05-01T08:04:13.835Z</time></trkpt><trkpt lat="37.8684696" lon="13.6388738"><ele>540.6666666666666</ele><time>2026-05-01T08:04:14.834Z</time></trkpt><trkpt lat="37.868303" lon="13.6388763"><ele>541.3333333333333</ele><time>2026-05-01T08:04:15.835Z</time></trkpt><trkpt lat="37.8681296" lon="13.6389083"><ele>542.0</ele><time>2026-05-01T08:04:16.835Z</time></trkpt><trkpt lat="37.8679413" lon="13.6389537"><ele>542.0</ele><time>2026-05-01T08:04:17.835Z</time></trkpt><trkpt lat="37.8677398" lon="13.6390122"><ele>542.0</ele><time>2026-05-01T08:04:18.834Z</time></trkpt><trkpt lat="37.8675402" lon="13.6390675"><ele>542.0</ele><time>2026-05-01T08:04:19.834Z</time></trkpt><trkpt lat="37.867356" lon="13.6391243"><ele>543.0</ele><time>2026-05-01T08:04:20.835Z</time></trkpt><trkpt lat="37.8671871" lon="13.6391697"><ele>544.0</ele><time>2026-05-01T08:04:21.834Z</time></trkpt><trkpt lat="37.8670334" lon="13.6392116"><ele>545.0</ele><time>2026-05-01T08:04:22.834Z</time></trkpt><trkpt lat="37.8668937" lon="13.6392618"><ele>546.75</ele><time>2026-05-01T08:04:23.835Z</time></trkpt><trkpt lat="37.8667603" lon="13.6393321"><ele>548.5</ele><time>2026-05-01T08:04:24.834Z</time></trkpt><trkpt lat="37.8666428" lon="13.6394192"><ele>550.25</ele><time>2026-05-01T08:04:25.835Z</time></trkpt><trkpt lat="37.8665402" lon="13.6395285"><ele>552.0</ele><time>2026-05-01T08:04:26.835Z</time></trkpt><trkpt lat="37.8664526" lon="13.6396642"><ele>547.75</ele><time>2026-05-01T08:04:27.835Z</time></trkpt><trkpt lat="37.8663886" lon="13.6398168"><ele>543.5</ele><time>2026-05-01T08:04:28.834Z</time></trkpt><trkpt lat="37.866323" lon="13.6399476"><ele>539.25</ele><time>2026-05-01T08:04:29.835Z</time></trkpt><trkpt lat="37.8662452" lon="13.6400621"><ele>535.0</ele><time>2026-05-01T08:04:30.834Z</time></trkpt><trkpt lat="37.8661454" lon="13.6401574"><ele>535.0</ele><time>2026-05-01T08:04:31.835Z</time></trkpt><trkpt lat="37.866032" lon="13.640221"><ele>535.0</ele><time>2026-05-01T08:04:32.835Z</time></trkpt><trkpt lat="37.8659254" lon="13.6402652"><ele>535.0</ele><time>2026-05-01T08:04:33.835Z</time></trkpt><trkpt lat="37.8658459" lon="13.6403216"><ele>535.0</ele><time>2026-05-01T08:04:34.834Z</time></trkpt><trkpt lat="37.8657877" lon="13.6403964"><ele>535.0</ele><time>2026-05-01T08:04:35.835Z</time></trkpt><trkpt lat="37.8657503" lon="13.640503"><ele>534.5</ele><time>2026-05-01T08:04:36.835Z</time></trkpt><trkpt lat="37.8657324" lon="13.6406512"><ele>534.0</ele><time>2026-05-01T08:04:37.835Z</time></trkpt><trkpt lat="37.8657311" lon="13.6408288"><ele>533.5</ele><time>2026-05-01T08:04:38.835Z</time></trkpt><trkpt lat="37.8657401" lon="13.6410191"><ele>533.0</ele><time>2026-05-01T08:04:39.835Z</time></trkpt><trkpt lat="37.8657416" lon="13.6411823"><ele>533.0</ele><time>2026-05-01T08:04:40.835Z</time></trkpt><trkpt lat="37.8657326" lon="13.6413066"><ele>533.0</ele><time>2026-05-01T08:04:41.835Z</time></trkpt><trkpt lat="37.8657069" lon="13.6414087"><ele>533.0</ele><time>2026-05-01T08:04:42.834Z</time></trkpt><trkpt lat="37.8656469" lon="13.6414931"><ele>533.0</ele><time>2026-05-01T08:04:43.834Z</time></trkpt><trkpt lat="37.8655688" lon="13.6415562"><ele>533.0</ele><time>2026-05-01T08:04:44.834Z</time></trkpt><trkpt lat="37.865461" lon="13.6415948"><ele>533.0</ele><time>2026-05-01T08:04:45.834Z</time></trkpt><trkpt lat="37.865341" lon="13.6416021"><ele>533.0</ele><time>2026-05-01T08:04:46.835Z</time></trkpt><trkpt lat="37.8652053" lon="13.6415917"><ele>533.0</ele><time>2026-05-01T08:04:47.835Z</time></trkpt><trkpt lat="37.8650586" lon="13.6415663"><ele>533.0</ele><time>2026-05-01T08:04:48.835Z</time></trkpt><trkpt lat="37.864904" lon="13.6415362"><ele>535.5</ele><time>2026-05-01T08:04:49.835Z</time></trkpt><trkpt lat="37.8647568" lon="13.6415039"><ele>538.0</ele><time>2026-05-01T08:04:50.834Z</time></trkpt><trkpt lat="37.8646324" lon="13.6414702"><ele>540.5</ele><time>2026-05-01T08:04:51.834Z</time></trkpt><trkpt lat="37.8645248" lon="13.6414299"><ele>543.0</ele><time>2026-05-01T08:04:52.834Z</time></trkpt><trkpt lat="37.8644404" lon="13.6413493"><ele>543.0</ele><time>2026-05-01T08:04:53.835Z</time></trkpt><trkpt lat="37.8643669" lon="13.6412264"><ele>543.0</ele><time>2026-05-01T08:04:54.834Z</time></trkpt><trkpt lat="37.8642867" lon="13.6410709"><ele>543.0</ele><time>2026-05-01T08:04:55.835Z</time></trkpt><trkpt lat="37.8642028" lon="13.6409108"><ele>543.0</ele><time>2026-05-01T08:04:56.835Z</time></trkpt><trkpt lat="37.8641253" lon="13.6407654"><ele>544.4</ele><time>2026-05-01T08:04:57.835Z</time></trkpt><trkpt lat="37.8640569" lon="13.6406492"><ele>545.8</ele><time>2026-05-01T08:04:58.834Z</time></trkpt><trkpt lat="37.8639931" lon="13.6405625"><ele>547.2</ele><time>2026-05-01T08:04:59.834Z</time></trkpt><trkpt lat="37.8639162" lon="13.6405101"><ele>548.6</ele><time>2026-05-01T08:05:00.834Z</time></trkpt><trkpt lat="37.8638194" lon="13.6404978"><ele>550.0</ele><time>2026-05-01T08:05:01.834Z</time></trkpt><trkpt lat="37.8637012" lon="13.6404941"><ele>550.0</ele><time>2026-05-01T08:05:02.835Z</time></trkpt><trkpt lat="37.8635536" lon="13.6405154"><ele>550.0</ele><time>2026-05-01T08:05:03.834Z</time></trkpt><trkpt lat="37.8633908" lon="13.6405419"><ele>550.0</ele><time>2026-05-01T08:05:04.834Z</time></trkpt><trkpt lat="37.8632463" lon="13.6405626"><ele>549.25</ele><time>2026-05-01T08:05:05.834Z</time></trkpt><trkpt lat="37.8631156" lon="13.6405863"><ele>548.5</ele><time>2026-05-01T08:05:06.835Z</time></trkpt><trkpt lat="37.8629876" lon="13.6406481"><ele>547.75</ele><time>2026-05-01T08:05:07.834Z</time></trkpt><trkpt lat="37.8628729" lon="13.6407558"><ele>547.0</ele><time>2026-05-01T08:05:08.834Z</time></trkpt><trkpt lat="37.8627579" lon="13.6409008"><ele>547.0</ele><time>2026-05-01T08:05:09.834Z</time></trkpt><trkpt lat="37.8626355" lon="13.6410634"><ele>547.0</ele><time>2026-05-01T08:05:10.834Z</time></trkpt><trkpt lat="37.8625034" lon="13.6412349"><ele>547.0</ele><time>2026-05-01T08:05:11.835Z</time></trkpt><trkpt lat="37.8623814" lon="13.6413925"><ele>544.75</ele><time>2026-05-01T08:05:12.835Z</time></trkpt><trkpt lat="37.8622714" lon="13.6415233"><ele>542.5</ele><time>2026-05-01T08:05:13.834Z</time></trkpt><trkpt lat="37.8621794" lon="13.641642"><ele>540.25</ele><time>2026-05-01T08:05:14.835Z</time></trkpt><trkpt lat="37.8620917" lon="13.6417362"><ele>538.0</ele><time>2026-05-01T08:05:15.834Z</time></trkpt><trkpt lat="37.8619954" lon="13.6417906"><ele>538.0</ele><time>2026-05-01T08:05:16.834Z</time></trkpt><trkpt lat="37.8618925" lon="13.6418012"><ele>538.0</ele><time>2026-05-01T08:05:17.835Z</time></trkpt><trkpt lat="37.8617996" lon="13.64176"><ele>538.0</ele><time>2026-05-01T08:05:18.834Z</time></trkpt><trkpt lat="37.861708" lon="13.6416919"><ele>538.0</ele><time>2026-05-01T08:05:19.835Z</time></trkpt><trkpt lat="37.8616112" lon="13.6416036"><ele>538.0</ele><time>2026-05-01T08:05:20.835Z</time></trkpt><trkpt lat="37.8615047" lon="13.6415075"><ele>538.25</ele><time>2026-05-01T08:05:21.834Z</time></trkpt><trkpt lat="37.8613922" lon="13.641415"><ele>538.5</ele><time>2026-05-01T08:05:22.835Z</time></trkpt><trkpt lat="37.8612861" lon="13.641334"><ele>538.75</ele><time>2026-05-01T08:05:23.834Z</time></trkpt><trkpt lat="37.8611775" lon="13.6412729"><ele>539.0</ele><time>2026-05-01T08:05:24.835Z</time></trkpt><trkpt lat="37.8610689" lon="13.6412518"><ele>539.0</ele><time>2026-05-01T08:05:25.834Z</time></trkpt><trkpt lat="37.8609591" lon="13.6412613"><ele>539.0</ele><time>2026-05-01T08:05:26.834Z</time></trkpt><trkpt lat="37.860859" lon="13.6412645"><ele>539.0</ele><time>2026-05-01T08:05:27.835Z</time></trkpt><trkpt lat="37.8607677" lon="13.6412346"><ele>539.0</ele><time>2026-05-01T08:05:28.844Z</time></trkpt><trkpt lat="37.8606822" lon="13.6411613"><ele>539.0</ele><time>2026-05-01T08:05:29.844Z</time></trkpt><trkpt lat="37.8605905" lon="13.6410541"><ele>539.5</ele><time>2026-05-01T08:05:30.844Z</time></trkpt><trkpt lat="37.8604862" lon="13.6409247"><ele>540.0</ele><time>2026-05-01T08:05:31.843Z</time></trkpt><trkpt lat="37.8603732" lon="13.640795"><ele>540.5</ele><time>2026-05-01T08:05:32.844Z</time></trkpt><trkpt lat="37.8602689" lon="13.6406735"><ele>541.0</ele><time>2026-05-01T08:05:33.844Z</time></trkpt><trkpt lat="37.8601647" lon="13.6405853"><ele>535.6666666666667</ele><time>2026-05-01T08:05:34.844Z</time></trkpt><trkpt lat="37.8600389" lon="13.6405248"><ele>530.3333333333334</ele><time>2026-05-01T08:05:35.843Z</time></trkpt><trkpt lat="37.8598859" lon="13.6404986"><ele>525.0</ele><time>2026-05-01T08:05:36.844Z</time></trkpt><trkpt lat="37.859714" lon="13.6404858"><ele>525.0</ele><time>2026-05-01T08:05:37.843Z</time></trkpt><trkpt lat="37.8595237" lon="13.6404861"><ele>525.0</ele><time>2026-05-01T08:05:38.844Z</time></trkpt><trkpt lat="37.8593253" lon="13.6404946"><ele>525.0</ele><time>2026-05-01T08:05:39.843Z</time></trkpt><trkpt lat="37.8591068" lon="13.6405216"><ele>520.5</ele><time>2026-05-01T08:05:40.843Z</time></trkpt><trkpt lat="37.8588705" lon="13.6405736"><ele>516.0</ele><time>2026-05-01T08:05:41.843Z</time></trkpt><trkpt lat="37.8586235" lon="13.6406202"><ele>515.0</ele><time>2026-05-01T08:05:42.844Z</time></trkpt><trkpt lat="37.8583817" lon="13.6406647"><ele>514.0</ele><time>2026-05-01T08:05:43.843Z</time></trkpt><trkpt lat="37.8581664" lon="13.6407097"><ele>514.0</ele><time>2026-05-01T08:05:44.844Z</time></trkpt><trkpt lat="37.8579752" lon="13.6407513"><ele>514.0</ele><time>2026-05-01T08:05:45.844Z</time></trkpt><trkpt lat="37.8578178" lon="13.6407718"><ele>514.0</ele><time>2026-05-01T08:05:46.844Z</time></trkpt><trkpt lat="37.8576711" lon="13.6407835"><ele>513.6666666666667</ele><time>2026-05-01T08:05:47.843Z</time></trkpt><trkpt lat="37.8575242" lon="13.6407674"><ele>513.3333333333334</ele><time>2026-05-01T08:05:48.844Z</time></trkpt><trkpt lat="37.8573736" lon="13.640708"><ele>513.0</ele><time>2026-05-01T08:05:49.843Z</time></trkpt><trkpt lat="37.8572183" lon="13.6406399"><ele>513.0</ele><time>2026-05-01T08:05:50.844Z</time></trkpt><trkpt lat="37.8570768" lon="13.6405679"><ele>513.0</ele><time>2026-05-01T08:05:51.844Z</time></trkpt><trkpt lat="37.8569531" lon="13.6404957"><ele>513.0</ele><time>2026-05-01T08:05:52.844Z</time></trkpt><trkpt lat="37.8568399" lon="13.6404227"><ele>513.0</ele><time>2026-05-01T08:05:53.843Z</time></trkpt><trkpt lat="37.8567307" lon="13.6403501"><ele>516.25</ele><time>2026-05-01T08:05:54.844Z</time></trkpt><trkpt lat="37.8566152" lon="13.6402778"><ele>519.5</ele><time>2026-05-01T08:05:55.843Z</time></trkpt><trkpt lat="37.8564935" lon="13.6402012"><ele>522.75</ele><time>2026-05-01T08:05:56.844Z</time></trkpt><trkpt lat="37.8563646" lon="13.6401201"><ele>526.0</ele><time>2026-05-01T08:05:57.843Z</time></trkpt><trkpt lat="37.8562331" lon="13.6400304"><ele>526.0</ele><time>2026-05-01T08:05:58.844Z</time></trkpt><trkpt lat="37.8560911" lon="13.6399509"><ele>526.0</ele><time>2026-05-01T08:05:59.843Z</time></trkpt><trkpt lat="37.8559305" lon="13.6398912"><ele>526.0</ele><time>2026-05-01T08:06:00.844Z</time></trkpt><trkpt lat="37.8557558" lon="13.639854"><ele>521.0</ele><time>2026-05-01T08:06:01.844Z</time></trkpt><trkpt lat="37.8555766" lon="13.6398399"><ele>516.0</ele><time>2026-05-01T08:06:02.844Z</time></trkpt><trkpt lat="37.8554103" lon="13.6398416"><ele>511.0</ele><time>2026-05-01T08:06:03.844Z</time></trkpt><trkpt lat="37.8552616" lon="13.639864"><ele>510.33333333333337</ele><time>2026-05-01T08:06:04.844Z</time></trkpt><trkpt lat="37.8551193" lon="13.6399092"><ele>509.66666666666663</ele><time>2026-05-01T08:06:05.843Z</time></trkpt><trkpt lat="37.8549769" lon="13.6399876"><ele>509.0</ele><time>2026-05-01T08:06:06.843Z</time></trkpt><trkpt lat="37.8548308" lon="13.6400919"><ele>509.0</ele><time>2026-05-01T08:06:07.844Z</time></trkpt><trkpt lat="37.8546864" lon="13.6402066"><ele>509.0</ele><time>2026-05-01T08:06:08.843Z</time></trkpt><trkpt lat="37.8545488" lon="13.6403223"><ele>509.0</ele><time>2026-05-01T08:06:09.843Z</time></trkpt><trkpt lat="37.8544286" lon="13.6404097"><ele>504.0</ele><time>2026-05-01T08:06:10.843Z</time></trkpt><trkpt lat="37.8543038" lon="13.6404673"><ele>499.0</ele><time>2026-05-01T08:06:11.844Z</time></trkpt><trkpt lat="37.8541754" lon="13.6404973"><ele>494.0</ele><time>2026-05-01T08:06:12.844Z</time></trkpt><trkpt lat="37.854031" lon="13.6404999"><ele>489.0</ele><time>2026-05-01T08:06:13.843Z</time></trkpt><trkpt lat="37.8538745" lon="13.6404907"><ele>488.75</ele><time>2026-05-01T08:06:14.843Z</time></trkpt><trkpt lat="37.8537185" lon="13.6404796"><ele>488.5</ele><time>2026-05-01T08:06:15.844Z</time></trkpt><trkpt lat="37.8535655" lon="13.6404649"><ele>488.25</ele><time>2026-05-01T08:06:16.844Z</time></trkpt><trkpt lat="37.8534307" lon="13.6404354"><ele>488.0</ele><time>2026-05-01T08:06:17.843Z</time></trkpt><trkpt lat="37.8532962" lon="13.6403644"><ele>494.66666666666663</ele><time>2026-05-01T08:06:18.843Z</time></trkpt><trkpt lat="37.8531518" lon="13.6402714"><ele>501.33333333333337</ele><time>2026-05-01T08:06:19.843Z</time></trkpt><trkpt lat="37.8530027" lon="13.6401756"><ele>508.0</ele><time>2026-05-01T08:06:20.843Z</time></trkpt><trkpt lat="37.8528717" lon="13.6400945"><ele>508.0</ele><time>2026-05-01T08:06:21.844Z</time></trkpt><trkpt lat="37.8527688" lon="13.6400192"><ele>507.99999999999994</ele><time>2026-05-01T08:06:22.843Z</time></trkpt><trkpt lat="37.8526956" lon="13.6399393"><ele>507.99999999999994</ele><time>2026-05-01T08:06:23.844Z</time></trkpt><trkpt lat="37.8526479" lon="13.6398186"><ele>508.0</ele><time>2026-05-01T08:06:24.843Z</time></trkpt><trkpt lat="37.852629" lon="13.6396779"><ele>508.0</ele><time>2026-05-01T08:06:25.843Z</time></trkpt><trkpt lat="37.8526427" lon="13.6395279"><ele>508.33333333333337</ele><time>2026-05-01T08:06:26.843Z</time></trkpt><trkpt lat="37.8526861" lon="13.6393579"><ele>508.66666666666663</ele><time>2026-05-01T08:06:27.844Z</time></trkpt><trkpt lat="37.8527389" lon="13.639166"><ele>509.0</ele><time>2026-05-01T08:06:28.844Z</time></trkpt><trkpt lat="37.852812" lon="13.6389665"><ele>509.0</ele><time>2026-05-01T08:06:29.843Z</time></trkpt><trkpt lat="37.8529053" lon="13.6387628"><ele>509.0</ele><time>2026-05-01T08:06:30.844Z</time></trkpt><trkpt lat="37.8529915" lon="13.6385759"><ele>509.0</ele><time>2026-05-01T08:06:31.844Z</time></trkpt><trkpt lat="37.8530578" lon="13.6384142"><ele>508.4</ele><time>2026-05-01T08:06:32.843Z</time></trkpt><trkpt lat="37.8530996" lon="13.6382849"><ele>507.79999999999995</ele><time>2026-05-01T08:06:33.844Z</time></trkpt><trkpt lat="37.853126" lon="13.6381657"><ele>507.20000000000005</ele><time>2026-05-01T08:06:34.844Z</time></trkpt><trkpt lat="37.8531151" lon="13.6380285"><ele>506.6</ele><time>2026-05-01T08:06:35.843Z</time></trkpt><trkpt lat="37.8530718" lon="13.637876"><ele>506.0</ele><time>2026-05-01T08:06:36.843Z</time></trkpt><trkpt lat="37.8530225" lon="13.6376992"><ele>506.0</ele><time>2026-05-01T08:06:37.843Z</time></trkpt><trkpt lat="37.8529599" lon="13.6374962"><ele>506.0</ele><time>2026-05-01T08:06:38.844Z</time></trkpt><trkpt lat="37.8528899" lon="13.6372618"><ele>506.0</ele><time>2026-05-01T08:06:39.844Z</time></trkpt><trkpt lat="37.8528309" lon="13.6370442"><ele>507.3333333333333</ele><time>2026-05-01T08:06:40.843Z</time></trkpt><trkpt lat="37.8527696" lon="13.636837"><ele>508.66666666666663</ele><time>2026-05-01T08:06:41.843Z</time></trkpt><trkpt lat="37.8527156" lon="13.6366437"><ele>510.0</ele><time>2026-05-01T08:06:42.844Z</time></trkpt><trkpt lat="37.8526513" lon="13.6364703"><ele>504.66666666666663</ele><time>2026-05-01T08:06:43.843Z</time></trkpt><trkpt lat="37.8525711" lon="13.6363093"><ele>499.3333333333333</ele><time>2026-05-01T08:06:44.844Z</time></trkpt><trkpt lat="37.8524688" lon="13.6361668"><ele>494.0</ele><time>2026-05-01T08:06:45.843Z</time></trkpt><trkpt lat="37.8523423" lon="13.6360396"><ele>494.0</ele><time>2026-05-01T08:06:46.844Z</time></trkpt><trkpt lat="37.852205" lon="13.635908"><ele>494.0</ele><time>2026-05-01T08:06:47.844Z</time></trkpt><trkpt lat="37.8520781" lon="13.6357807"><ele>494.0</ele><time>2026-05-01T08:06:48.844Z</time></trkpt><trkpt lat="37.8519634" lon="13.6356664"><ele>494.0</ele><time>2026-05-01T08:06:49.843Z</time></trkpt><trkpt lat="37.8518728" lon="13.6355699"><ele>494.0</ele><time>2026-05-01T08:06:50.843Z</time></trkpt><trkpt lat="37.851805" lon="13.6354694"><ele>494.0</ele><time>2026-05-01T08:06:51.844Z</time></trkpt><trkpt lat="37.8517574" lon="13.6353515"><ele>494.0</ele><time>2026-05-01T08:06:52.843Z</time></trkpt><trkpt lat="37.851738" lon="13.6352219"><ele>494.0</ele><time>2026-05-01T08:06:53.843Z</time></trkpt><trkpt lat="37.8517412" lon="13.6350768"><ele>490.4</ele><time>2026-05-01T08:06:54.843Z</time></trkpt><trkpt lat="37.8517555" lon="13.6349288"><ele>486.79999999999995</ele><time>2026-05-01T08:06:55.843Z</time></trkpt><trkpt lat="37.851766" lon="13.6347943"><ele>483.20000000000005</ele><time>2026-05-01T08:06:56.843Z</time></trkpt><trkpt lat="37.8517512" lon="13.6346915"><ele>479.6</ele><time>2026-05-01T08:06:57.843Z</time></trkpt><trkpt lat="37.8517036" lon="13.6345982"><ele>476.0</ele><time>2026-05-01T08:06:58.843Z</time></trkpt><trkpt lat="37.8516283" lon="13.6345197"><ele>476.0</ele><time>2026-05-01T08:06:59.844Z</time></trkpt><trkpt lat="37.8515297" lon="13.6344619"><ele>476.0</ele><time>2026-05-01T08:07:00.843Z</time></trkpt><trkpt lat="37.851444" lon="13.6344225"><ele>476.0</ele><time>2026-05-01T08:07:01.844Z</time></trkpt><trkpt lat="37.8513638" lon="13.6344169"><ele>476.0</ele><time>2026-05-01T08:07:02.844Z</time></trkpt><trkpt lat="37.8512746" lon="13.6344525"><ele>476.0</ele><time>2026-05-01T08:07:03.843Z</time></trkpt><trkpt lat="37.8511851" lon="13.6345199"><ele>476.0</ele><time>2026-05-01T08:07:04.843Z</time></trkpt><trkpt lat="37.8511" lon="13.6346229"><ele>476.0</ele><time>2026-05-01T08:07:05.844Z</time></trkpt><trkpt lat="37.8510262" lon="13.6347541"><ele>476.0</ele><time>2026-05-01T08:07:06.844Z</time></trkpt><trkpt lat="37.8509574" lon="13.6349046"><ele>476.0</ele><time>2026-05-01T08:07:07.843Z</time></trkpt><trkpt lat="37.8509037" lon="13.6350597"><ele>476.0</ele><time>2026-05-01T08:07:08.843Z</time></trkpt><trkpt lat="37.8508601" lon="13.635191"><ele>476.0</ele><time>2026-05-01T08:07:09.844Z</time></trkpt><trkpt lat="37.8508017" lon="13.6352955"><ele>476.0</ele><time>2026-05-01T08:07:10.844Z</time></trkpt><trkpt lat="37.8507275" lon="13.6353844"><ele>476.0</ele><time>2026-05-01T08:07:11.844Z</time></trkpt><trkpt lat="37.8506303" lon="13.6354509"><ele>476.0</ele><time>2026-05-01T08:07:12.843Z</time></trkpt><trkpt lat="37.8505079" lon="13.6355077"><ele>472.0</ele><time>2026-05-01T08:07:13.843Z</time></trkpt><trkpt lat="37.850364" lon="13.6355632"><ele>468.0</ele><time>2026-05-01T08:07:14.844Z</time></trkpt><trkpt lat="37.8502027" lon="13.6356238"><ele>464.0</ele><time>2026-05-01T08:07:15.844Z</time></trkpt><trkpt lat="37.8500197" lon="13.6356931"><ele>464.0</ele><time>2026-05-01T08:07:16.843Z</time></trkpt><trkpt lat="37.8498331" lon="13.6357694"><ele>464.0</ele><time>2026-05-01T08:07:17.843Z</time></trkpt><trkpt lat="37.8496485" lon="13.6358499"><ele>464.0</ele><time>2026-05-01T08:07:18.843Z</time></trkpt><trkpt lat="37.849469" lon="13.6359538"><ele>464.3333333333333</ele><time>2026-05-01T08:07:19.844Z</time></trkpt><trkpt lat="37.8492864" lon="13.6360821"><ele>464.66666666666663</ele><time>2026-05-01T08:07:20.844Z</time></trkpt><trkpt lat="37.8490985" lon="13.6362204"><ele>465.0</ele><time>2026-05-01T08:07:21.844Z</time></trkpt><trkpt lat="37.8489066" lon="13.6363589"><ele>462.33333333333337</ele><time>2026-05-01T08:07:22.843Z</time></trkpt><trkpt lat="37.8487215" lon="13.6364982"><ele>459.6666666666667</ele><time>2026-05-01T08:07:23.843Z</time></trkpt><trkpt lat="37.8485481" lon="13.636629"><ele>457.0</ele><time>2026-05-01T08:07:24.843Z</time></trkpt><trkpt lat="37.8483934" lon="13.6367407"><ele>457.0</ele><time>2026-05-01T08:07:25.843Z</time></trkpt><trkpt lat="37.8482664" lon="13.6368346"><ele>457.0</ele><time>2026-05-01T08:07:26.843Z</time></trkpt><trkpt lat="37.8481477" lon="13.6368989"><ele>457.0</ele><time>2026-05-01T08:07:27.844Z</time></trkpt><trkpt lat="37.8480334" lon="13.6369243"><ele>457.0</ele><time>2026-05-01T08:07:28.844Z</time></trkpt><trkpt lat="37.8479084" lon="13.6369146"><ele>457.0</ele><time>2026-05-01T08:07:29.844Z</time></trkpt><trkpt lat="37.8477691" lon="13.6368824"><ele>457.0</ele><time>2026-05-01T08:07:30.843Z</time></trkpt><trkpt lat="37.8476162" lon="13.636835"><ele>457.0</ele><time>2026-05-01T08:07:31.843Z</time></trkpt><trkpt lat="37.8474469" lon="13.6367722"><ele>457.0</ele><time>2026-05-01T08:07:32.843Z</time></trkpt><trkpt lat="37.8472627" lon="13.6367027"><ele>457.0</ele><time>2026-05-01T08:07:33.844Z</time></trkpt><trkpt lat="37.8470942" lon="13.6366243"><ele>457.0</ele><time>2026-05-01T08:07:34.844Z</time></trkpt><trkpt lat="37.8469457" lon="13.6365716"><ele>457.0</ele><time>2026-05-01T08:07:35.843Z</time></trkpt><trkpt lat="37.8468073" lon="13.6365427"><ele>457.0</ele><time>2026-05-01T08:07:36.843Z</time></trkpt><trkpt lat="37.8466574" lon="13.6365578"><ele>457.0</ele><time>2026-05-01T08:07:37.844Z</time></trkpt><trkpt lat="37.8464931" lon="13.6366004"><ele>457.33333333333337</ele><time>2026-05-01T08:07:38.844Z</time></trkpt><trkpt lat="37.8463125" lon="13.6366487"><ele>457.66666666666663</ele><time>2026-05-01T08:07:39.844Z</time></trkpt><trkpt lat="37.8461363" lon="13.6366894"><ele>458.0</ele><time>2026-05-01T08:07:40.844Z</time></trkpt><trkpt lat="37.8459656" lon="13.6367049"><ele>459.66666666666663</ele><time>2026-05-01T08:07:41.843Z</time></trkpt><trkpt lat="37.8458013" lon="13.6366972"><ele>461.33333333333337</ele><time>2026-05-01T08:07:42.843Z</time></trkpt><trkpt lat="37.8456434" lon="13.6366645"><ele>463.0</ele><time>2026-05-01T08:07:43.843Z</time></trkpt><trkpt lat="37.845502" lon="13.6366297"><ele>463.0</ele><time>2026-05-01T08:07:44.844Z</time></trkpt><trkpt lat="37.8453634" lon="13.636601"><ele>463.0</ele><time>2026-05-01T08:07:45.844Z</time></trkpt><trkpt lat="37.8452243" lon="13.6365668"><ele>463.0</ele><time>2026-05-01T08:07:46.843Z</time></trkpt><trkpt lat="37.8450767" lon="13.6365435"><ele>463.0</ele><time>2026-05-01T08:07:47.843Z</time></trkpt><trkpt lat="37.8449196" lon="13.6365282"><ele>463.0</ele><time>2026-05-01T08:07:48.844Z</time></trkpt><trkpt lat="37.8447653" lon="13.6365474"><ele>463.0</ele><time>2026-05-01T08:07:49.844Z</time></trkpt><trkpt lat="37.8446109" lon="13.6366164"><ele>463.0</ele><time>2026-05-01T08:07:50.843Z</time></trkpt><trkpt lat="37.8444556" lon="13.6367329"><ele>463.0</ele><time>2026-05-01T08:07:51.843Z</time></trkpt><trkpt lat="37.8442987" lon="13.636854"><ele>463.0</ele><time>2026-05-01T08:07:52.843Z</time></trkpt><trkpt lat="37.8441463" lon="13.636955"><ele>463.0</ele><time>2026-05-01T08:07:53.843Z</time></trkpt><trkpt lat="37.8439895" lon="13.6370343"><ele>460.0</ele><time>2026-05-01T08:07:54.843Z</time></trkpt><trkpt lat="37.8438278" lon="13.6370876"><ele>457.0</ele><time>2026-05-01T08:07:55.844Z</time></trkpt><trkpt lat="37.8436579" lon="13.6371276"><ele>454.0</ele><time>2026-05-01T08:07:56.843Z</time></trkpt><trkpt lat="37.8434796" lon="13.637151"><ele>456.0</ele><time>2026-05-01T08:07:57.843Z</time></trkpt><trkpt lat="37.8433058" lon="13.6371774"><ele>458.0</ele><time>2026-05-01T08:07:58.844Z</time></trkpt><trkpt lat="37.8431531" lon="13.6371921"><ele>460.0</ele><time>2026-05-01T08:07:59.843Z</time></trkpt><trkpt lat="37.843023" lon="13.6372016"><ele>460.0</ele><time>2026-05-01T08:08:00.844Z</time></trkpt><trkpt lat="37.8429091" lon="13.637221"><ele>460.0</ele><time>2026-05-01T08:08:01.843Z</time></trkpt><trkpt lat="37.842824" lon="13.6372367"><ele>460.0</ele><time>2026-05-01T08:08:02.843Z</time></trkpt><trkpt lat="37.8427611" lon="13.6372475"><ele>460.0</ele><time>2026-05-01T08:08:03.844Z</time></trkpt><trkpt lat="37.8426811" lon="13.6372578"><ele>460.0</ele><time>2026-05-01T08:08:05.843Z</time></trkpt><trkpt lat="37.8425801" lon="13.6372153"><ele>460.0</ele><time>2026-05-01T08:08:08.843Z</time></trkpt><trkpt lat="37.8425143" lon="13.6371722"><ele>460.0</ele><time>2026-05-01T08:08:09.843Z</time></trkpt><trkpt lat="37.842425" lon="13.6371247"><ele>460.0</ele><time>2026-05-01T08:08:10.844Z</time></trkpt><trkpt lat="37.8423205" lon="13.6370547"><ele>460.0</ele><time>2026-05-01T08:08:11.843Z</time></trkpt><trkpt lat="37.8421941" lon="13.6369612"><ele>460.0</ele><time>2026-05-01T08:08:12.844Z</time></trkpt><trkpt lat="37.8420433" lon="13.6368442"><ele>460.0</ele><time>2026-05-01T08:08:13.843Z</time></trkpt><trkpt lat="37.8418728" lon="13.6367126"><ele>460.0</ele><time>2026-05-01T08:08:14.843Z</time></trkpt><trkpt lat="37.8416765" lon="13.6365774"><ele>460.0</ele><time>2026-05-01T08:08:15.843Z</time></trkpt><trkpt lat="37.8414604" lon="13.6364372"><ele>458.0</ele><time>2026-05-01T08:08:16.843Z</time></trkpt><trkpt lat="37.8412333" lon="13.6362904"><ele>456.0</ele><time>2026-05-01T08:08:17.843Z</time></trkpt><trkpt lat="37.8410015" lon="13.6361311"><ele>460.5</ele><time>2026-05-01T08:08:18.843Z</time></trkpt><trkpt lat="37.8407715" lon="13.635961"><ele>465.0</ele><time>2026-05-01T08:08:19.844Z</time></trkpt><trkpt lat="37.8405473" lon="13.6358029"><ele>465.0</ele><time>2026-05-01T08:08:20.843Z</time></trkpt><trkpt lat="37.8403482" lon="13.6356735"><ele>465.0</ele><time>2026-05-01T08:08:21.843Z</time></trkpt><trkpt lat="37.8401874" lon="13.6355635"><ele>465.0</ele><time>2026-05-01T08:08:22.843Z</time></trkpt><trkpt lat="37.8400534" lon="13.6354415"><ele>464.0</ele><time>2026-05-01T08:08:23.843Z</time></trkpt><trkpt lat="37.839928" lon="13.6352912"><ele>463.0</ele><time>2026-05-01T08:08:24.843Z</time></trkpt><trkpt lat="37.8398029" lon="13.635122"><ele>462.0</ele><time>2026-05-01T08:08:25.844Z</time></trkpt><trkpt lat="37.839684" lon="13.6349685"><ele>462.0</ele><time>2026-05-01T08:08:26.843Z</time></trkpt><trkpt lat="37.8395491" lon="13.6348519"><ele>462.0</ele><time>2026-05-01T08:08:27.844Z</time></trkpt><trkpt lat="37.8393933" lon="13.634761"><ele>462.0</ele><time>2026-05-01T08:08:28.843Z</time></trkpt><trkpt lat="37.8392145" lon="13.6346799"><ele>468.33333333333337</ele><time>2026-05-01T08:08:29.843Z</time></trkpt><trkpt lat="37.8390184" lon="13.6346175"><ele>474.6666666666667</ele><time>2026-05-01T08:08:30.843Z</time></trkpt><trkpt lat="37.8388203" lon="13.634563"><ele>481.0</ele><time>2026-05-01T08:08:31.844Z</time></trkpt><trkpt lat="37.8386493" lon="13.6345121"><ele>479.25</ele><time>2026-05-01T08:08:32.843Z</time></trkpt><trkpt lat="37.8385049" lon="13.6344463"><ele>477.5</ele><time>2026-05-01T08:08:33.844Z</time></trkpt><trkpt lat="37.8383868" lon="13.6343596"><ele>475.75</ele><time>2026-05-01T08:08:34.844Z</time></trkpt><trkpt lat="37.8382754" lon="13.6342543"><ele>474.0</ele><time>2026-05-01T08:08:35.843Z</time></trkpt><trkpt lat="37.8381842" lon="13.6341098"><ele>474.0</ele><time>2026-05-01T08:08:36.844Z</time></trkpt><trkpt lat="37.8381044" lon="13.6339657"><ele>474.0</ele><time>2026-05-01T08:08:37.843Z</time></trkpt><trkpt lat="37.8380321" lon="13.6338595"><ele>474.0</ele><time>2026-05-01T08:08:38.844Z</time></trkpt><trkpt lat="37.8379451" lon="13.6337804"><ele>474.0</ele><time>2026-05-01T08:08:39.844Z</time></trkpt><trkpt lat="37.8378325" lon="13.6337321"><ele>474.0</ele><time>2026-05-01T08:08:40.843Z</time></trkpt><trkpt lat="37.837709" lon="13.6337154"><ele>474.0</ele><time>2026-05-01T08:08:41.844Z</time></trkpt><trkpt lat="37.8375812" lon="13.6337382"><ele>474.0</ele><time>2026-05-01T08:08:42.844Z</time></trkpt><trkpt lat="37.8374383" lon="13.6338004"><ele>474.0</ele><time>2026-05-01T08:08:43.844Z</time></trkpt><trkpt lat="37.8372809" lon="13.6338787"><ele>476.66666666666663</ele><time>2026-05-01T08:08:44.843Z</time></trkpt><trkpt lat="37.8371006" lon="13.6339528"><ele>479.3333333333333</ele><time>2026-05-01T08:08:45.843Z</time></trkpt><trkpt lat="37.8369106" lon="13.6340417"><ele>482.0</ele><time>2026-05-01T08:08:46.844Z</time></trkpt><trkpt lat="37.8367124" lon="13.6341353"><ele>482.0</ele><time>2026-05-01T08:08:47.844Z</time></trkpt><trkpt lat="37.8365069" lon="13.6342292"><ele>482.0</ele><time>2026-05-01T08:08:48.844Z</time></trkpt><trkpt lat="37.8363205" lon="13.63431"><ele>482.0</ele><time>2026-05-01T08:08:49.843Z</time></trkpt><trkpt lat="37.8361319" lon="13.6343562"><ele>481.66666666666663</ele><time>2026-05-01T08:08:50.843Z</time></trkpt><trkpt lat="37.835936" lon="13.6343821"><ele>481.33333333333337</ele><time>2026-05-01T08:08:51.843Z</time></trkpt><trkpt lat="37.8357408" lon="13.6343921"><ele>481.0</ele><time>2026-05-01T08:08:52.843Z</time></trkpt><trkpt lat="37.8355713" lon="13.6343914"><ele>481.0</ele><time>2026-05-01T08:08:53.843Z</time></trkpt><trkpt lat="37.8354304" lon="13.634389"><ele>481.0</ele><time>2026-05-01T08:08:54.844Z</time></trkpt><trkpt lat="37.8353188" lon="13.6343668"><ele>481.0</ele><time>2026-05-01T08:08:55.844Z</time></trkpt><trkpt lat="37.8352302" lon="13.6343038"><ele>481.0</ele><time>2026-05-01T08:08:56.843Z</time></trkpt><trkpt lat="37.83514" lon="13.6342217"><ele>482.25</ele><time>2026-05-01T08:08:57.843Z</time></trkpt><trkpt lat="37.8350523" lon="13.6341474"><ele>483.5</ele><time>2026-05-01T08:08:58.843Z</time></trkpt><trkpt lat="37.8349535" lon="13.6341066"><ele>484.75</ele><time>2026-05-01T08:08:59.843Z</time></trkpt><trkpt lat="37.8348443" lon="13.6341019"><ele>486.0</ele><time>2026-05-01T08:09:00.844Z</time></trkpt><trkpt lat="37.8347123" lon="13.6341246"><ele>486.0</ele><time>2026-05-01T08:09:01.843Z</time></trkpt><trkpt lat="37.8345556" lon="13.6341552"><ele>486.0</ele><time>2026-05-01T08:09:02.844Z</time></trkpt><trkpt lat="37.8343964" lon="13.6341969"><ele>486.0</ele><time>2026-05-01T08:09:03.844Z</time></trkpt><trkpt lat="37.8342235" lon="13.634216"><ele>486.33333333333337</ele><time>2026-05-01T08:09:04.843Z</time></trkpt><trkpt lat="37.8340418" lon="13.6342051"><ele>486.6666666666667</ele><time>2026-05-01T08:09:05.844Z</time></trkpt><trkpt lat="37.8338558" lon="13.6341819"><ele>487.0</ele><time>2026-05-01T08:09:06.844Z</time></trkpt><trkpt lat="37.8336659" lon="13.6341474"><ele>487.0</ele><time>2026-05-01T08:09:07.844Z</time></trkpt><trkpt lat="37.8334735" lon="13.6341034"><ele>487.0</ele><time>2026-05-01T08:09:08.844Z</time></trkpt><trkpt lat="37.8332816" lon="13.6340505"><ele>487.0</ele><time>2026-05-01T08:09:09.843Z</time></trkpt><trkpt lat="37.8331055" lon="13.6340057"><ele>489.33333333333337</ele><time>2026-05-01T08:09:10.843Z</time></trkpt><trkpt lat="37.8329244" lon="13.6339832"><ele>491.66666666666663</ele><time>2026-05-01T08:09:11.843Z</time></trkpt><trkpt lat="37.8327349" lon="13.6339935"><ele>494.0</ele><time>2026-05-01T08:09:12.843Z</time></trkpt><trkpt lat="37.8325304" lon="13.6340135"><ele>496.5</ele><time>2026-05-01T08:09:13.843Z</time></trkpt><trkpt lat="37.8323088" lon="13.634039"><ele>499.0</ele><time>2026-05-01T08:09:14.843Z</time></trkpt><trkpt lat="37.8320729" lon="13.6340625"><ele>499.0</ele><time>2026-05-01T08:09:15.844Z</time></trkpt><trkpt lat="37.8318473" lon="13.6340863"><ele>499.0</ele><time>2026-05-01T08:09:16.844Z</time></trkpt><trkpt lat="37.8316439" lon="13.6341006"><ele>499.0</ele><time>2026-05-01T08:09:17.843Z</time></trkpt><trkpt lat="37.8314533" lon="13.6341205"><ele>499.0</ele><time>2026-05-01T08:09:18.844Z</time></trkpt><trkpt lat="37.8313024" lon="13.6341293"><ele>499.0</ele><time>2026-05-01T08:09:19.843Z</time></trkpt><trkpt lat="37.8311751" lon="13.6341573"><ele>499.0</ele><time>2026-05-01T08:09:20.843Z</time></trkpt><trkpt lat="37.8310508" lon="13.6342188"><ele>499.0</ele><time>2026-05-01T08:09:21.843Z</time></trkpt><trkpt lat="37.8309453" lon="13.6343215"><ele>497.25</ele><time>2026-05-01T08:09:22.844Z</time></trkpt><trkpt lat="37.830856" lon="13.6344531"><ele>495.5</ele><time>2026-05-01T08:09:23.843Z</time></trkpt><trkpt lat="37.8307858" lon="13.6345746"><ele>493.75</ele><time>2026-05-01T08:09:24.844Z</time></trkpt><trkpt lat="37.8307136" lon="13.6346761"><ele>492.0</ele><time>2026-05-01T08:09:25.843Z</time></trkpt><trkpt lat="37.8306241" lon="13.6347322"><ele>496.25</ele><time>2026-05-01T08:09:26.844Z</time></trkpt><trkpt lat="37.8305118" lon="13.6347587"><ele>500.5</ele><time>2026-05-01T08:09:27.843Z</time></trkpt><trkpt lat="37.8303739" lon="13.6347649"><ele>504.75</ele><time>2026-05-01T08:09:28.844Z</time></trkpt><trkpt lat="37.8302395" lon="13.6347475"><ele>509.0</ele><time>2026-05-01T08:09:29.843Z</time></trkpt><trkpt lat="37.8301115" lon="13.6347159"><ele>509.0</ele><time>2026-05-01T08:09:30.843Z</time></trkpt><trkpt lat="37.8299945" lon="13.6346544"><ele>509.0</ele><time>2026-05-01T08:09:31.843Z</time></trkpt><trkpt lat="37.8298806" lon="13.6345698"><ele>509.0</ele><time>2026-05-01T08:09:32.843Z</time></trkpt><trkpt lat="37.8297835" lon="13.6344968"><ele>509.0</ele><time>2026-05-01T08:09:33.844Z</time></trkpt><trkpt lat="37.8296858" lon="13.6344645"><ele>509.0</ele><time>2026-05-01T08:09:34.843Z</time></trkpt><trkpt lat="37.8295874" lon="13.6344788"><ele>509.0</ele><time>2026-05-01T08:09:35.843Z</time></trkpt><trkpt lat="37.8294994" lon="13.6345277"><ele>509.0</ele><time>2026-05-01T08:09:36.844Z</time></trkpt><trkpt lat="37.8294075" lon="13.6346144"><ele>509.0</ele><time>2026-05-01T08:09:37.844Z</time></trkpt><trkpt lat="37.829318" lon="13.6347342"><ele>509.0</ele><time>2026-05-01T08:09:38.843Z</time></trkpt><trkpt lat="37.829234" lon="13.6348716"><ele>508.2</ele><time>2026-05-01T08:09:39.843Z</time></trkpt><trkpt lat="37.8291617" lon="13.6350096"><ele>507.4</ele><time>2026-05-01T08:09:40.844Z</time></trkpt><trkpt lat="37.8290911" lon="13.635112"><ele>506.6</ele><time>2026-05-01T08:09:41.844Z</time></trkpt><trkpt lat="37.829009" lon="13.6351801"><ele>505.8</ele><time>2026-05-01T08:09:42.843Z</time></trkpt><trkpt lat="37.8289103" lon="13.6352222"><ele>505.0</ele><time>2026-05-01T08:09:43.843Z</time></trkpt><trkpt lat="37.8288006" lon="13.6352384"><ele>505.0</ele><time>2026-05-01T08:09:44.844Z</time></trkpt><trkpt lat="37.8286752" lon="13.6352368"><ele>505.0</ele><time>2026-05-01T08:09:45.844Z</time></trkpt><trkpt lat="37.8285404" lon="13.6352263"><ele>505.0</ele><time>2026-05-01T08:09:46.843Z</time></trkpt><trkpt lat="37.8283896" lon="13.6352632"><ele>505.0</ele><time>2026-05-01T08:09:47.843Z</time></trkpt><trkpt lat="37.8282245" lon="13.635334"><ele>510.33333333333337</ele><time>2026-05-01T08:09:48.843Z</time></trkpt><trkpt lat="37.8280463" lon="13.6354042"><ele>515.6666666666666</ele><time>2026-05-01T08:09:49.843Z</time></trkpt><trkpt lat="37.8278832" lon="13.6354437"><ele>521.0</ele><time>2026-05-01T08:09:50.843Z</time></trkpt><trkpt lat="37.8277329" lon="13.6354559"><ele>520.5</ele><time>2026-05-01T08:09:51.843Z</time></trkpt><trkpt lat="37.8275956" lon="13.6354569"><ele>520.0</ele><time>2026-05-01T08:09:52.844Z</time></trkpt><trkpt lat="37.8274724" lon="13.6354468"><ele>519.5</ele><time>2026-05-01T08:09:53.843Z</time></trkpt><trkpt lat="37.8273589" lon="13.6354574"><ele>519.0</ele><time>2026-05-01T08:09:54.843Z</time></trkpt><trkpt lat="37.827265" lon="13.6354987"><ele>519.0</ele><time>2026-05-01T08:09:55.844Z</time></trkpt><trkpt lat="37.8271849" lon="13.6355706"><ele>519.0</ele><time>2026-05-01T08:09:56.844Z</time></trkpt><trkpt lat="37.8271116" lon="13.6356619"><ele>519.0</ele><time>2026-05-01T08:09:57.843Z</time></trkpt><trkpt lat="37.827051" lon="13.6357833"><ele>519.0</ele><time>2026-05-01T08:09:58.843Z</time></trkpt><trkpt lat="37.8270009" lon="13.6359408"><ele>519.0</ele><time>2026-05-01T08:09:59.843Z</time></trkpt><trkpt lat="37.826948" lon="13.6361123"><ele>519.2</ele><time>2026-05-01T08:10:00.844Z</time></trkpt><trkpt lat="37.8268949" lon="13.6362644"><ele>519.4</ele><time>2026-05-01T08:10:01.843Z</time></trkpt><trkpt lat="37.8268445" lon="13.636366"><ele>519.6</ele><time>2026-05-01T08:10:02.843Z</time></trkpt><trkpt lat="37.8267891" lon="13.6364316"><ele>519.8</ele><time>2026-05-01T08:10:03.843Z</time></trkpt><trkpt lat="37.8267254" lon="13.6364781"><ele>520.0</ele><time>2026-05-01T08:10:04.844Z</time></trkpt><trkpt lat="37.8266439" lon="13.6364951"><ele>520.0</ele><time>2026-05-01T08:10:05.843Z</time></trkpt><trkpt lat="37.8265556" lon="13.636494"><ele>520.0</ele><time>2026-05-01T08:10:06.844Z</time></trkpt><trkpt lat="37.8264686" lon="13.6364505"><ele>520.0</ele><time>2026-05-01T08:10:07.843Z</time></trkpt><trkpt lat="37.8263792" lon="13.6363764"><ele>520.0</ele><time>2026-05-01T08:10:08.844Z</time></trkpt><trkpt lat="37.826272" lon="13.6363118"><ele>520.0</ele><time>2026-05-01T08:10:09.844Z</time></trkpt><trkpt lat="37.8261556" lon="13.6362749"><ele>520.0</ele><time>2026-05-01T08:10:10.843Z</time></trkpt><trkpt lat="37.8260323" lon="13.6362895"><ele>520.0</ele><time>2026-05-01T08:10:11.843Z</time></trkpt><trkpt lat="37.8259017" lon="13.6363529"><ele>520.0</ele><time>2026-05-01T08:10:12.843Z</time></trkpt><trkpt lat="37.8257557" lon="13.636437"><ele>520.0</ele><time>2026-05-01T08:10:13.843Z</time></trkpt><trkpt lat="37.8255869" lon="13.6365465"><ele>520.0</ele><time>2026-05-01T08:10:14.843Z</time></trkpt><trkpt lat="37.8253933" lon="13.6366774"><ele>520.0</ele><time>2026-05-01T08:10:15.843Z</time></trkpt><trkpt lat="37.8251967" lon="13.6368062"><ele>520.0</ele><time>2026-05-01T08:10:16.844Z</time></trkpt><trkpt lat="37.8250348" lon="13.6369068"><ele>519.0</ele><time>2026-05-01T08:10:17.844Z</time></trkpt><trkpt lat="37.8248984" lon="13.6369894"><ele>518.0</ele><time>2026-05-01T08:10:18.844Z</time></trkpt><trkpt lat="37.8247804" lon="13.6370185"><ele>517.0</ele><time>2026-05-01T08:10:19.843Z</time></trkpt><trkpt lat="37.824662" lon="13.6370093"><ele>516.0</ele><time>2026-05-01T08:10:20.844Z</time></trkpt><trkpt lat="37.8245417" lon="13.6369618"><ele>516.0</ele><time>2026-05-01T08:10:21.843Z</time></trkpt><trkpt lat="37.8244123" lon="13.6369077"><ele>516.0</ele><time>2026-05-01T08:10:22.843Z</time></trkpt><trkpt lat="37.8242827" lon="13.6368984"><ele>516.0</ele><time>2026-05-01T08:10:23.843Z</time></trkpt><trkpt lat="37.8241469" lon="13.636932"><ele>516.0</ele><time>2026-05-01T08:10:24.843Z</time></trkpt><trkpt lat="37.824019" lon="13.6370024"><ele>521.6666666666666</ele><time>2026-05-01T08:10:25.843Z</time></trkpt><trkpt lat="37.8238805" lon="13.6371109"><ele>527.3333333333333</ele><time>2026-05-01T08:10:26.843Z</time></trkpt><trkpt lat="37.8237344" lon="13.637244"><ele>533.0</ele><time>2026-05-01T08:10:27.843Z</time></trkpt><trkpt lat="37.8236029" lon="13.6373747"><ele>530.6666666666666</ele><time>2026-05-01T08:10:28.844Z</time></trkpt><trkpt lat="37.8234738" lon="13.6374765"><ele>528.3333333333334</ele><time>2026-05-01T08:10:29.844Z</time></trkpt><trkpt lat="37.8233319" lon="13.6375446"><ele>526.0</ele><time>2026-05-01T08:10:30.844Z</time></trkpt><trkpt lat="37.8231661" lon="13.6375887"><ele>526.0</ele><time>2026-05-01T08:10:31.844Z</time></trkpt><trkpt lat="37.8229876" lon="13.6376147"><ele>526.0</ele><time>2026-05-01T08:10:32.843Z</time></trkpt><trkpt lat="37.8228214" lon="13.6376258"><ele>526.0</ele><time>2026-05-01T08:10:33.844Z</time></trkpt><trkpt lat="37.8226682" lon="13.6376288"><ele>525.5</ele><time>2026-05-01T08:10:34.843Z</time></trkpt><trkpt lat="37.8225257" lon="13.637589"><ele>525.0</ele><time>2026-05-01T08:10:35.844Z</time></trkpt><trkpt lat="37.8223925" lon="13.6375153"><ele>524.5</ele><time>2026-05-01T08:10:36.843Z</time></trkpt><trkpt lat="37.8222651" lon="13.6374477"><ele>524.0</ele><time>2026-05-01T08:10:37.844Z</time></trkpt><trkpt lat="37.8221435" lon="13.6374014"><ele>524.0</ele><time>2026-05-01T08:10:38.844Z</time></trkpt><trkpt lat="37.8220164" lon="13.6373923"><ele>524.0</ele><time>2026-05-01T08:10:39.844Z</time></trkpt><trkpt lat="37.8218784" lon="13.6373868"><ele>524.0</ele><time>2026-05-01T08:10:40.844Z</time></trkpt><trkpt lat="37.8217335" lon="13.637386"><ele>524.0</ele><time>2026-05-01T08:10:41.844Z</time></trkpt><trkpt lat="37.8215878" lon="13.6373595"><ele>526.0</ele><time>2026-05-01T08:10:42.843Z</time></trkpt><trkpt lat="37.8214451" lon="13.6373063"><ele>528.0</ele><time>2026-05-01T08:10:43.844Z</time></trkpt><trkpt lat="37.8212948" lon="13.6372467"><ele>530.0</ele><time>2026-05-01T08:10:44.844Z</time></trkpt><trkpt lat="37.8211524" lon="13.6372065"><ele>530.0</ele><time>2026-05-01T08:10:45.844Z</time></trkpt><trkpt lat="37.8210198" lon="13.6372068"><ele>530.0</ele><time>2026-05-01T08:10:46.843Z</time></trkpt><trkpt lat="37.8208988" lon="13.637231"><ele>530.0</ele><time>2026-05-01T08:10:47.843Z</time></trkpt><trkpt lat="37.8207843" lon="13.6372736"><ele>530.0</ele><time>2026-05-01T08:10:48.843Z</time></trkpt><trkpt lat="37.8206701" lon="13.6373358"><ele>531.25</ele><time>2026-05-01T08:10:49.843Z</time></trkpt><trkpt lat="37.8205583" lon="13.6374255"><ele>532.5</ele><time>2026-05-01T08:10:50.843Z</time></trkpt><trkpt lat="37.8204454" lon="13.6375114"><ele>533.75</ele><time>2026-05-01T08:10:51.844Z</time></trkpt><trkpt lat="37.8203289" lon="13.6375924"><ele>535.0</ele><time>2026-05-01T08:10:52.843Z</time></trkpt><trkpt lat="37.8202196" lon="13.6376629"><ele>534.6</ele><time>2026-05-01T08:10:53.844Z</time></trkpt><trkpt lat="37.8201204" lon="13.6377202"><ele>534.2</ele><time>2026-05-01T08:10:54.843Z</time></trkpt><trkpt lat="37.8200206" lon="13.6377789"><ele>533.8</ele><time>2026-05-01T08:10:55.843Z</time></trkpt><trkpt lat="37.8199283" lon="13.6378329"><ele>533.4</ele><time>2026-05-01T08:10:56.843Z</time></trkpt><trkpt lat="37.8198382" lon="13.6378887"><ele>533.0</ele><time>2026-05-01T08:10:57.843Z</time></trkpt><trkpt lat="37.8197432" lon="13.6379477"><ele>535.8</ele><time>2026-05-01T08:10:58.844Z</time></trkpt><trkpt lat="37.8196464" lon="13.6379995"><ele>538.5999999999999</ele><time>2026-05-01T08:10:59.844Z</time></trkpt><trkpt lat="37.8195552" lon="13.6380585"><ele>541.4000000000001</ele><time>2026-05-01T08:11:00.843Z</time></trkpt><trkpt lat="37.819468" lon="13.6381108"><ele>544.2</ele><time>2026-05-01T08:11:01.843Z</time></trkpt><trkpt lat="37.8193792" lon="13.6381508"><ele>547.0</ele><time>2026-05-01T08:11:02.843Z</time></trkpt><trkpt lat="37.8192841" lon="13.6381753"><ele>547.0</ele><time>2026-05-01T08:11:03.843Z</time></trkpt><trkpt lat="37.8191831" lon="13.6381912"><ele>547.0</ele><time>2026-05-01T08:11:04.844Z</time></trkpt><trkpt lat="37.8190848" lon="13.6382057"><ele>547.0</ele><time>2026-05-01T08:11:05.843Z</time></trkpt><trkpt lat="37.8189827" lon="13.638218"><ele>547.0</ele><time>2026-05-01T08:11:06.843Z</time></trkpt><trkpt lat="37.8188826" lon="13.6382133"><ele>547.0</ele><time>2026-05-01T08:11:07.844Z</time></trkpt><trkpt lat="37.8187846" lon="13.6381709"><ele>547.0</ele><time>2026-05-01T08:11:08.844Z</time></trkpt><trkpt lat="37.8186903" lon="13.6380985"><ele>547.0</ele><time>2026-05-01T08:11:09.843Z</time></trkpt><trkpt lat="37.8186054" lon="13.6380271"><ele>547.0</ele><time>2026-05-01T08:11:10.843Z</time></trkpt><trkpt lat="37.8185006" lon="13.6379842"><ele>547.0</ele><time>2026-05-01T08:11:11.843Z</time></trkpt><trkpt lat="37.8183823" lon="13.6379608"><ele>547.0</ele><time>2026-05-01T08:11:12.843Z</time></trkpt><trkpt lat="37.8182682" lon="13.6379472"><ele>549.75</ele><time>2026-05-01T08:11:13.843Z</time></trkpt><trkpt lat="37.8181495" lon="13.637945"><ele>552.5</ele><time>2026-05-01T08:11:14.844Z</time></trkpt><trkpt lat="37.8180264" lon="13.6379517"><ele>555.25</ele><time>2026-05-01T08:11:15.844Z</time></trkpt><trkpt lat="37.8178876" lon="13.6379626"><ele>558.0</ele><time>2026-05-01T08:11:16.844Z</time></trkpt><trkpt lat="37.8177433" lon="13.6379808"><ele>558.6</ele><time>2026-05-01T08:11:17.844Z</time></trkpt><trkpt lat="37.8176141" lon="13.6379962"><ele>559.1999999999999</ele><time>2026-05-01T08:11:18.843Z</time></trkpt><trkpt lat="37.8175034" lon="13.6379924"><ele>559.8</ele><time>2026-05-01T08:11:19.843Z</time></trkpt><trkpt lat="37.8173993" lon="13.6379586"><ele>560.4</ele><time>2026-05-01T08:11:20.843Z</time></trkpt><trkpt lat="37.817315" lon="13.6378944"><ele>561.0</ele><time>2026-05-01T08:11:21.843Z</time></trkpt><trkpt lat="37.8172408" lon="13.6377953"><ele>558.5</ele><time>2026-05-01T08:11:22.843Z</time></trkpt><trkpt lat="37.8171609" lon="13.637704"><ele>556.0</ele><time>2026-05-01T08:11:23.844Z</time></trkpt><trkpt lat="37.8170596" lon="13.6376321"><ele>553.5</ele><time>2026-05-01T08:11:24.844Z</time></trkpt><trkpt lat="37.8169555" lon="13.6375802"><ele>551.0</ele><time>2026-05-01T08:11:25.843Z</time></trkpt><trkpt lat="37.8168381" lon="13.6375414"><ele>553.75</ele><time>2026-05-01T08:11:26.844Z</time></trkpt><trkpt lat="37.8167133" lon="13.6374984"><ele>556.5</ele><time>2026-05-01T08:11:27.843Z</time></trkpt><trkpt lat="37.8165848" lon="13.6374481"><ele>559.25</ele><time>2026-05-01T08:11:28.843Z</time></trkpt><trkpt lat="37.8164584" lon="13.6373977"><ele>562.0</ele><time>2026-05-01T08:11:29.844Z</time></trkpt><trkpt lat="37.8163315" lon="13.6373441"><ele>562.0</ele><time>2026-05-01T08:11:30.843Z</time></trkpt><trkpt lat="37.8162092" lon="13.6372987"><ele>562.0</ele><time>2026-05-01T08:11:31.843Z</time></trkpt><trkpt lat="37.8160718" lon="13.6372824"><ele>562.0</ele><time>2026-05-01T08:11:32.843Z</time></trkpt><trkpt lat="37.8159161" lon="13.6372948"><ele>562.0</ele><time>2026-05-01T08:11:33.844Z</time></trkpt><trkpt lat="37.8157705" lon="13.6373035"><ele>563.4</ele><time>2026-05-01T08:11:34.843Z</time></trkpt><trkpt lat="37.8156544" lon="13.6372989"><ele>564.8000000000001</ele><time>2026-05-01T08:11:35.844Z</time></trkpt><trkpt lat="37.8155521" lon="13.6372567"><ele>566.2</ele><time>2026-05-01T08:11:36.843Z</time></trkpt><trkpt lat="37.815473" lon="13.6371884"><ele>567.6</ele><time>2026-05-01T08:11:37.844Z</time></trkpt><trkpt lat="37.8154104" lon="13.6370978"><ele>569.0</ele><time>2026-05-01T08:11:38.844Z</time></trkpt><trkpt lat="37.8153624" lon="13.6369816"><ele>567.75</ele><time>2026-05-01T08:11:39.843Z</time></trkpt><trkpt lat="37.8153348" lon="13.6368437"><ele>566.5</ele><time>2026-05-01T08:11:40.843Z</time></trkpt><trkpt lat="37.8153052" lon="13.6366945"><ele>565.25</ele><time>2026-05-01T08:11:41.843Z</time></trkpt><trkpt lat="37.8152713" lon="13.636551"><ele>564.0</ele><time>2026-05-01T08:11:42.843Z</time></trkpt><trkpt lat="37.8152288" lon="13.636433"><ele>564.0</ele><time>2026-05-01T08:11:43.843Z</time></trkpt><trkpt lat="37.8151629" lon="13.6363402"><ele>564.0</ele><time>2026-05-01T08:11:44.844Z</time></trkpt><trkpt lat="37.8150701" lon="13.6362759"><ele>564.0</ele><time>2026-05-01T08:11:45.844Z</time></trkpt><trkpt lat="37.8149482" lon="13.6362304"><ele>564.0</ele><time>2026-05-01T08:11:46.843Z</time></trkpt><trkpt lat="37.8148011" lon="13.6361945"><ele>567.0</ele><time>2026-05-01T08:11:47.843Z</time></trkpt><trkpt lat="37.8146337" lon="13.6361617"><ele>570.0</ele><time>2026-05-01T08:11:48.844Z</time></trkpt><trkpt lat="37.8144991" lon="13.6361396"><ele>573.0</ele><time>2026-05-01T08:11:49.844Z</time></trkpt><trkpt lat="37.8143855" lon="13.6361436"><ele>576.0</ele><time>2026-05-01T08:11:50.843Z</time></trkpt><trkpt lat="37.8142594" lon="13.6361774"><ele>577.5</ele><time>2026-05-01T08:11:51.843Z</time></trkpt><trkpt lat="37.8141322" lon="13.6362613"><ele>579.0</ele><time>2026-05-01T08:11:52.843Z</time></trkpt><trkpt lat="37.8139986" lon="13.6363554"><ele>580.5</ele><time>2026-05-01T08:11:53.843Z</time></trkpt><trkpt lat="37.8138529" lon="13.6364075"><ele>582.0</ele><time>2026-05-01T08:11:54.844Z</time></trkpt><trkpt lat="37.81369" lon="13.6364256"><ele>582.0</ele><time>2026-05-01T08:11:55.844Z</time></trkpt><trkpt lat="37.8135327" lon="13.6364176"><ele>582.0</ele><time>2026-05-01T08:11:56.843Z</time></trkpt><trkpt lat="37.8134021" lon="13.6364035"><ele>582.0</ele><time>2026-05-01T08:11:57.843Z</time></trkpt><trkpt lat="37.8132797" lon="13.6364175"><ele>582.0</ele><time>2026-05-01T08:11:58.843Z</time></trkpt><trkpt lat="37.8131608" lon="13.6364842"><ele>584.0</ele><time>2026-05-01T08:11:59.843Z</time></trkpt><trkpt lat="37.8130313" lon="13.6365991"><ele>586.0</ele><time>2026-05-01T08:12:00.843Z</time></trkpt><trkpt lat="37.8128933" lon="13.6367302"><ele>588.0</ele><time>2026-05-01T08:12:01.844Z</time></trkpt><trkpt lat="37.8127714" lon="13.636814"><ele>588.0</ele><time>2026-05-01T08:12:02.843Z</time></trkpt><trkpt lat="37.8126723" lon="13.6368675"><ele>588.0</ele><time>2026-05-01T08:12:03.843Z</time></trkpt><trkpt lat="37.8125719" lon="13.6368794"><ele>588.0</ele><time>2026-05-01T08:12:04.844Z</time></trkpt><trkpt lat="37.8124567" lon="13.6368589"><ele>588.0</ele><time>2026-05-01T08:12:05.844Z</time></trkpt><trkpt lat="37.8123336" lon="13.6368031"><ele>588.6666666666666</ele><time>2026-05-01T08:12:06.844Z</time></trkpt><trkpt lat="37.8121911" lon="13.6367379"><ele>589.3333333333333</ele><time>2026-05-01T08:12:07.844Z</time></trkpt><trkpt lat="37.8120302" lon="13.6366722"><ele>590.0</ele><time>2026-05-01T08:12:08.851Z</time></trkpt><trkpt lat="37.8118969" lon="13.6366188"><ele>592.2</ele><time>2026-05-01T08:12:09.852Z</time></trkpt><trkpt lat="37.8118026" lon="13.6365758"><ele>594.4</ele><time>2026-05-01T08:12:10.852Z</time></trkpt><trkpt lat="37.8117254" lon="13.6365162"><ele>596.6</ele><time>2026-05-01T08:12:11.851Z</time></trkpt><trkpt lat="37.8116684" lon="13.6364162"><ele>598.8</ele><time>2026-05-01T08:12:12.852Z</time></trkpt><trkpt lat="37.8116489" lon="13.6362868"><ele>601.0</ele><time>2026-05-01T08:12:13.852Z</time></trkpt><trkpt lat="37.8116428" lon="13.6361555"><ele>599.6</ele><time>2026-05-01T08:12:14.851Z</time></trkpt><trkpt lat="37.8116355" lon="13.6360278"><ele>598.2</ele><time>2026-05-01T08:12:15.851Z</time></trkpt><trkpt lat="37.8116249" lon="13.635904"><ele>596.8</ele><time>2026-05-01T08:12:16.852Z</time></trkpt><trkpt lat="37.8116138" lon="13.6357842"><ele>595.4</ele><time>2026-05-01T08:12:17.852Z</time></trkpt><trkpt lat="37.8116032" lon="13.6356584"><ele>594.0</ele><time>2026-05-01T08:12:18.852Z</time></trkpt><trkpt lat="37.8115799" lon="13.6354882"><ele>594.0</ele><time>2026-05-01T08:12:19.851Z</time></trkpt><trkpt lat="37.8115325" lon="13.6352797"><ele>594.0</ele><time>2026-05-01T08:12:20.852Z</time></trkpt><trkpt lat="37.8114734" lon="13.6350743"><ele>594.0</ele><time>2026-05-01T08:12:21.851Z</time></trkpt><trkpt lat="37.8114067" lon="13.6349028"><ele>594.0</ele><time>2026-05-01T08:12:22.851Z</time></trkpt><trkpt lat="37.8113278" lon="13.6347417"><ele>594.0</ele><time>2026-05-01T08:12:23.851Z</time></trkpt><trkpt lat="37.8112203" lon="13.6346089"><ele>594.0</ele><time>2026-05-01T08:12:24.852Z</time></trkpt><trkpt lat="37.8111055" lon="13.6345069"><ele>594.0</ele><time>2026-05-01T08:12:25.852Z</time></trkpt><trkpt lat="37.8109646" lon="13.6344281"><ele>597.0</ele><time>2026-05-01T08:12:26.852Z</time></trkpt><trkpt lat="37.8107755" lon="13.6343788"><ele>600.0</ele><time>2026-05-01T08:12:27.851Z</time></trkpt><trkpt lat="37.8105663" lon="13.6343386"><ele>603.0</ele><time>2026-05-01T08:12:28.851Z</time></trkpt><trkpt lat="37.8103828" lon="13.6342907"><ele>603.0</ele><time>2026-05-01T08:12:29.852Z</time></trkpt><trkpt lat="37.8102202" lon="13.634232"><ele>603.0</ele><time>2026-05-01T08:12:30.851Z</time></trkpt><trkpt lat="37.8100749" lon="13.6341597"><ele>603.0</ele><time>2026-05-01T08:12:31.852Z</time></trkpt><trkpt lat="37.8099344" lon="13.6340882"><ele>605.25</ele><time>2026-05-01T08:12:32.852Z</time></trkpt><trkpt lat="37.8098082" lon="13.6340228"><ele>607.5</ele><time>2026-05-01T08:12:33.851Z</time></trkpt><trkpt lat="37.8096913" lon="13.6339711"><ele>609.75</ele><time>2026-05-01T08:12:34.851Z</time></trkpt><trkpt lat="37.8095807" lon="13.6339428"><ele>612.0</ele><time>2026-05-01T08:12:35.852Z</time></trkpt><trkpt lat="37.8094714" lon="13.6339526"><ele>612.0</ele><time>2026-05-01T08:12:36.851Z</time></trkpt><trkpt lat="37.8093597" lon="13.6340076"><ele>612.0</ele><time>2026-05-01T08:12:37.851Z</time></trkpt><trkpt lat="37.8092626" lon="13.6340697"><ele>612.0</ele><time>2026-05-01T08:12:38.852Z</time></trkpt><trkpt lat="37.8091927" lon="13.6341382"><ele>612.0</ele><time>2026-05-01T08:12:39.851Z</time></trkpt><trkpt lat="37.809126" lon="13.6342118"><ele>612.0</ele><time>2026-05-01T08:12:40.851Z</time></trkpt><trkpt lat="37.8090523" lon="13.6342811"><ele>612.0</ele><time>2026-05-01T08:12:41.852Z</time></trkpt><trkpt lat="37.808975" lon="13.6343651"><ele>612.0</ele><time>2026-05-01T08:12:42.851Z</time></trkpt><trkpt lat="37.8089017" lon="13.634466"><ele>612.0</ele><time>2026-05-01T08:12:43.851Z</time></trkpt><trkpt lat="37.8088323" lon="13.6345882"><ele>612.0</ele><time>2026-05-01T08:12:44.851Z</time></trkpt><trkpt lat="37.808769" lon="13.6347179"><ele>612.0</ele><time>2026-05-01T08:12:45.851Z</time></trkpt><trkpt lat="37.808707" lon="13.634847"><ele>612.0</ele><time>2026-05-01T08:12:46.852Z</time></trkpt><trkpt lat="37.80865" lon="13.6349769"><ele>612.0</ele><time>2026-05-01T08:12:47.851Z</time></trkpt><trkpt lat="37.8085845" lon="13.6351062"><ele>612.0</ele><time>2026-05-01T08:12:48.852Z</time></trkpt><trkpt lat="37.8085118" lon="13.6352398"><ele>607.75</ele><time>2026-05-01T08:12:49.852Z</time></trkpt><trkpt lat="37.8084284" lon="13.6353772"><ele>603.5</ele><time>2026-05-01T08:12:50.851Z</time></trkpt><trkpt lat="37.8083393" lon="13.6355117"><ele>599.25</ele><time>2026-05-01T08:12:51.852Z</time></trkpt><trkpt lat="37.8082526" lon="13.6356315"><ele>595.0</ele><time>2026-05-01T08:12:52.851Z</time></trkpt><trkpt lat="37.8081759" lon="13.6357382"><ele>595.0</ele><time>2026-05-01T08:12:53.852Z</time></trkpt><trkpt lat="37.8081041" lon="13.6358407"><ele>595.0</ele><time>2026-05-01T08:12:54.851Z</time></trkpt><trkpt lat="37.8080327" lon="13.6359421"><ele>595.0</ele><time>2026-05-01T08:12:55.851Z</time></trkpt><trkpt lat="37.8079649" lon="13.6360506"><ele>595.0</ele><time>2026-05-01T08:12:56.852Z</time></trkpt><trkpt lat="37.8079008" lon="13.6361627"><ele>595.0</ele><time>2026-05-01T08:12:57.851Z</time></trkpt><trkpt lat="37.8078467" lon="13.6362791"><ele>595.0</ele><time>2026-05-01T08:12:58.851Z</time></trkpt><trkpt lat="37.8077899" lon="13.6363938"><ele>595.0</ele><time>2026-05-01T08:12:59.851Z</time></trkpt><trkpt lat="37.8077339" lon="13.636508"><ele>595.0</ele><time>2026-05-01T08:13:00.852Z</time></trkpt><trkpt lat="37.8076782" lon="13.6366202"><ele>595.0</ele><time>2026-05-01T08:13:01.852Z</time></trkpt><trkpt lat="37.8076195" lon="13.6367249"><ele>595.0</ele><time>2026-05-01T08:13:02.851Z</time></trkpt><trkpt lat="37.8075593" lon="13.636828"><ele>591.8</ele><time>2026-05-01T08:13:03.852Z</time></trkpt><trkpt lat="37.8074858" lon="13.6369121"><ele>588.6</ele><time>2026-05-01T08:13:04.851Z</time></trkpt><trkpt lat="37.8074064" lon="13.6369873"><ele>585.4</ele><time>2026-05-01T08:13:05.851Z</time></trkpt><trkpt lat="37.8073186" lon="13.6370602"><ele>582.2</ele><time>2026-05-01T08:13:06.852Z</time></trkpt><trkpt lat="37.8072308" lon="13.6371332"><ele>579.0</ele><time>2026-05-01T08:13:07.851Z</time></trkpt><trkpt lat="37.8071442" lon="13.6372094"><ele>578.2</ele><time>2026-05-01T08:13:08.851Z</time></trkpt><trkpt lat="37.8070634" lon="13.6372848"><ele>577.4</ele><time>2026-05-01T08:13:09.851Z</time></trkpt><trkpt lat="37.8069852" lon="13.6373562"><ele>576.6</ele><time>2026-05-01T08:13:10.851Z</time></trkpt><trkpt lat="37.8069058" lon="13.6374223"><ele>575.8</ele><time>2026-05-01T08:13:11.851Z</time></trkpt><trkpt lat="37.8068281" lon="13.6374875"><ele>575.0</ele><time>2026-05-01T08:13:12.852Z</time></trkpt><trkpt lat="37.806751" lon="13.6375518"><ele>572.4</ele><time>2026-05-01T08:13:13.851Z</time></trkpt><trkpt lat="37.8066691" lon="13.6376186"><ele>569.8</ele><time>2026-05-01T08:13:14.851Z</time></trkpt><trkpt lat="37.8065877" lon="13.6376906"><ele>567.2</ele><time>2026-05-01T08:13:15.851Z</time></trkpt><trkpt lat="37.8065108" lon="13.6377652"><ele>564.6</ele><time>2026-05-01T08:13:16.852Z</time></trkpt><trkpt lat="37.8064344" lon="13.6378331"><ele>562.0</ele><time>2026-05-01T08:13:17.852Z</time></trkpt><trkpt lat="37.8063572" lon="13.6378928"><ele>561.8000000000001</ele><time>2026-05-01T08:13:18.852Z</time></trkpt><trkpt lat="37.8062852" lon="13.6379595"><ele>561.6</ele><time>2026-05-01T08:13:19.852Z</time></trkpt><trkpt lat="37.8062067" lon="13.6380238"><ele>561.4000000000001</ele><time>2026-05-01T08:13:20.851Z</time></trkpt><trkpt lat="37.80612" lon="13.6380863"><ele>561.2</ele><time>2026-05-01T08:13:21.851Z</time></trkpt><trkpt lat="37.8060293" lon="13.6381488"><ele>561.0</ele><time>2026-05-01T08:13:22.851Z</time></trkpt><trkpt lat="37.8059539" lon="13.6382038"><ele>558.8333333333334</ele><time>2026-05-01T08:13:23.852Z</time></trkpt><trkpt lat="37.8058931" lon="13.6382538"><ele>556.6666666666666</ele><time>2026-05-01T08:13:24.852Z</time></trkpt><trkpt lat="37.8058394" lon="13.6383081"><ele>554.5</ele><time>2026-05-01T08:13:25.852Z</time></trkpt><trkpt lat="37.8057778" lon="13.638367"><ele>552.3333333333333</ele><time>2026-05-01T08:13:26.851Z</time></trkpt><trkpt lat="37.8057077" lon="13.638426"><ele>550.1666666666666</ele><time>2026-05-01T08:13:27.852Z</time></trkpt><trkpt lat="37.8056305" lon="13.6384811"><ele>548.0</ele><time>2026-05-01T08:13:28.852Z</time></trkpt><trkpt lat="37.8055579" lon="13.6385296"><ele>548.0000000000001</ele><time>2026-05-01T08:13:29.851Z</time></trkpt><trkpt lat="37.8054909" lon="13.6385776"><ele>548.0</ele><time>2026-05-01T08:13:30.852Z</time></trkpt><trkpt lat="37.8054277" lon="13.6386242"><ele>548.0</ele><time>2026-05-01T08:13:31.852Z</time></trkpt><trkpt lat="37.8053695" lon="13.6386704"><ele>548.0</ele><time>2026-05-01T08:13:32.851Z</time></trkpt><trkpt lat="37.8053246" lon="13.6387274"><ele>548.0</ele><time>2026-05-01T08:13:33.852Z</time></trkpt><trkpt lat="37.8052396" lon="13.6387833"><ele>548.0000000000001</ele><time>2026-05-01T08:13:35.851Z</time></trkpt><trkpt lat="37.805171" lon="13.6387835"><ele>548.0</ele><time>2026-05-01T08:13:37.852Z</time></trkpt><trkpt lat="37.8050812" lon="13.6386774"><ele>545.25</ele><time>2026-05-01T08:13:39.851Z</time></trkpt><trkpt lat="37.8050207" lon="13.6385711"><ele>542.5</ele><time>2026-05-01T08:13:40.851Z</time></trkpt><trkpt lat="37.8049552" lon="13.6384246"><ele>539.75</ele><time>2026-05-01T08:13:41.852Z</time></trkpt><trkpt lat="37.8048669" lon="13.6382391"><ele>537.0</ele><time>2026-05-01T08:13:42.851Z</time></trkpt><trkpt lat="37.8047807" lon="13.6380564"><ele>537.0</ele><time>2026-05-01T08:13:43.851Z</time></trkpt><trkpt lat="37.8046882" lon="13.6378749"><ele>537.0</ele><time>2026-05-01T08:13:44.851Z</time></trkpt><trkpt lat="37.804587" lon="13.6376948"><ele>537.0</ele><time>2026-05-01T08:13:45.852Z</time></trkpt><trkpt lat="37.8044869" lon="13.6375249"><ele>536.3333333333334</ele><time>2026-05-01T08:13:46.851Z</time></trkpt><trkpt lat="37.8044012" lon="13.6374581"><ele>535.6666666666667</ele><time>2026-05-01T08:13:48.851Z</time></trkpt><trkpt lat="37.8042595" lon="13.6372997"><ele>535.0</ele><time>2026-05-01T08:13:49.852Z</time></trkpt><trkpt lat="37.8041117" lon="13.6371193"><ele>532.6666666666667</ele><time>2026-05-01T08:13:50.851Z</time></trkpt><trkpt lat="37.8039732" lon="13.6369397"><ele>530.3333333333334</ele><time>2026-05-01T08:13:51.851Z</time></trkpt><trkpt lat="37.8038477" lon="13.6367653"><ele>528.0</ele><time>2026-05-01T08:13:52.851Z</time></trkpt><trkpt lat="37.8037625" lon="13.636642"><ele>528.0</ele><time>2026-05-01T08:13:53.852Z</time></trkpt><trkpt lat="37.8036976" lon="13.6365462"><ele>528.0</ele><time>2026-05-01T08:13:54.852Z</time></trkpt><trkpt lat="37.8036231" lon="13.6364909"><ele>528.0</ele><time>2026-05-01T08:13:55.851Z</time></trkpt><trkpt lat="37.8035586" lon="13.6364756"><ele>528.0</ele><time>2026-05-01T08:13:56.851Z</time></trkpt><trkpt lat="37.8034859" lon="13.6365059"><ele>528.0</ele><time>2026-05-01T08:13:57.851Z</time></trkpt><trkpt lat="37.8034123" lon="13.6365608"><ele>528.0</ele><time>2026-05-01T08:13:58.852Z</time></trkpt><trkpt lat="37.8033303" lon="13.6366203"><ele>526.0</ele><time>2026-05-01T08:13:59.852Z</time></trkpt><trkpt lat="37.8032532" lon="13.6366821"><ele>524.0</ele><time>2026-05-01T08:14:00.852Z</time></trkpt><trkpt lat="37.8031722" lon="13.6367391"><ele>522.0</ele><time>2026-05-01T08:14:01.852Z</time></trkpt><trkpt lat="37.8030763" lon="13.6368237"><ele>520.0</ele><time>2026-05-01T08:14:02.852Z</time></trkpt><trkpt lat="37.8029491" lon="13.6369266"><ele>519.75</ele><time>2026-05-01T08:14:03.852Z</time></trkpt><trkpt lat="37.8028123" lon="13.6370322"><ele>519.5</ele><time>2026-05-01T08:14:04.851Z</time></trkpt><trkpt lat="37.8026849" lon="13.6371129"><ele>519.25</ele><time>2026-05-01T08:14:05.852Z</time></trkpt><trkpt lat="37.8025729" lon="13.637186"><ele>519.0</ele><time>2026-05-01T08:14:06.851Z</time></trkpt><trkpt lat="37.8024657" lon="13.6372423"><ele>518.25</ele><time>2026-05-01T08:14:07.852Z</time></trkpt><trkpt lat="37.8023454" lon="13.6372554"><ele>517.5</ele><time>2026-05-01T08:14:08.851Z</time></trkpt><trkpt lat="37.8022154" lon="13.6372344"><ele>516.75</ele><time>2026-05-01T08:14:09.851Z</time></trkpt><trkpt lat="37.8020637" lon="13.6371768"><ele>516.0</ele><time>2026-05-01T08:14:10.852Z</time></trkpt><trkpt lat="37.8018878" lon="13.637083"><ele>516.3333333333334</ele><time>2026-05-01T08:14:11.851Z</time></trkpt><trkpt lat="37.8017085" lon="13.6369858"><ele>516.6666666666667</ele><time>2026-05-01T08:14:12.851Z</time></trkpt><trkpt lat="37.8015352" lon="13.6368945"><ele>517.0</ele><time>2026-05-01T08:14:13.851Z</time></trkpt><trkpt lat="37.8013705" lon="13.6368137"><ele>517.0</ele><time>2026-05-01T08:14:14.851Z</time></trkpt><trkpt lat="37.8012179" lon="13.6367384"><ele>517.0</ele><time>2026-05-01T08:14:15.851Z</time></trkpt><trkpt lat="37.8010689" lon="13.6366584"><ele>517.0</ele><time>2026-05-01T08:14:16.852Z</time></trkpt><trkpt lat="37.8009275" lon="13.6365857"><ele>515.0</ele><time>2026-05-01T08:14:17.852Z</time></trkpt><trkpt lat="37.8007865" lon="13.636519"><ele>513.0</ele><time>2026-05-01T08:14:18.851Z</time></trkpt><trkpt lat="37.8006411" lon="13.6364676"><ele>511.0</ele><time>2026-05-01T08:14:19.852Z</time></trkpt><trkpt lat="37.8004978" lon="13.6364334"><ele>509.0</ele><time>2026-05-01T08:14:20.852Z</time></trkpt><trkpt lat="37.8003413" lon="13.6364219"><ele>509.0</ele><time>2026-05-01T08:14:21.852Z</time></trkpt><trkpt lat="37.8001756" lon="13.63644"><ele>509.0</ele><time>2026-05-01T08:14:22.851Z</time></trkpt><trkpt lat="37.8000233" lon="13.6364631"><ele>509.0</ele><time>2026-05-01T08:14:23.851Z</time></trkpt><trkpt lat="37.7998995" lon="13.636494"><ele>509.0</ele><time>2026-05-01T08:14:24.852Z</time></trkpt><trkpt lat="37.7998002" lon="13.6365299"><ele>507.5</ele><time>2026-05-01T08:14:25.852Z</time></trkpt><trkpt lat="37.7996986" lon="13.6366022"><ele>506.0</ele><time>2026-05-01T08:14:26.852Z</time></trkpt><trkpt lat="37.7995859" lon="13.6367131"><ele>504.5</ele><time>2026-05-01T08:14:27.851Z</time></trkpt><trkpt lat="37.7994576" lon="13.6368631"><ele>503.0</ele><time>2026-05-01T08:14:28.851Z</time></trkpt><trkpt lat="37.7993186" lon="13.6370048"><ele>498.66666666666663</ele><time>2026-05-01T08:14:29.852Z</time></trkpt><trkpt lat="37.7991781" lon="13.6371661"><ele>494.33333333333337</ele><time>2026-05-01T08:14:30.852Z</time></trkpt><trkpt lat="37.7990315" lon="13.6373621"><ele>490.0</ele><time>2026-05-01T08:14:31.851Z</time></trkpt><trkpt lat="37.7988905" lon="13.6375646"><ele>490.0</ele><time>2026-05-01T08:14:32.851Z</time></trkpt><trkpt lat="37.7987498" lon="13.6377608"><ele>490.0</ele><time>2026-05-01T08:14:33.851Z</time></trkpt><trkpt lat="37.7986119" lon="13.6379521"><ele>490.0</ele><time>2026-05-01T08:14:34.852Z</time></trkpt><trkpt lat="37.7984819" lon="13.6381413"><ele>486.6666666666667</ele><time>2026-05-01T08:14:35.851Z</time></trkpt><trkpt lat="37.7983631" lon="13.6383321"><ele>483.33333333333337</ele><time>2026-05-01T08:14:36.851Z</time></trkpt><trkpt lat="37.7982615" lon="13.6385235"><ele>480.0</ele><time>2026-05-01T08:14:37.852Z</time></trkpt><trkpt lat="37.7981649" lon="13.6387138"><ele>478.6</ele><time>2026-05-01T08:14:38.851Z</time></trkpt><trkpt lat="37.7980816" lon="13.6388506"><ele>477.2</ele><time>2026-05-01T08:14:39.852Z</time></trkpt><trkpt lat="37.7980283" lon="13.6389495"><ele>475.79999999999995</ele><time>2026-05-01T08:14:40.851Z</time></trkpt><trkpt lat="37.7979756" lon="13.6390494"><ele>474.4</ele><time>2026-05-01T08:14:42.851Z</time></trkpt><trkpt lat="37.7979209" lon="13.6391167"><ele>473.0</ele><time>2026-05-01T08:14:44.852Z</time></trkpt><trkpt lat="37.7978887" lon="13.6391916"><ele>473.0</ele><time>2026-05-01T08:14:45.851Z</time></trkpt><trkpt lat="37.7978478" lon="13.6393042"><ele>473.0</ele><time>2026-05-01T08:14:46.852Z</time></trkpt><trkpt lat="37.7977982" lon="13.6394552"><ele>473.0</ele><time>2026-05-01T08:14:47.852Z</time></trkpt><trkpt lat="37.7977223" lon="13.639636"><ele>473.0</ele><time>2026-05-01T08:14:48.852Z</time></trkpt><trkpt lat="37.7976181" lon="13.6398525"><ele>469.0</ele><time>2026-05-01T08:14:49.851Z</time></trkpt><trkpt lat="37.7974891" lon="13.6400687"><ele>465.0</ele><time>2026-05-01T08:14:50.852Z</time></trkpt><trkpt lat="37.7973308" lon="13.6402809"><ele>461.0</ele><time>2026-05-01T08:14:51.852Z</time></trkpt><trkpt lat="37.7971508" lon="13.6404837"><ele>457.0</ele><time>2026-05-01T08:14:52.852Z</time></trkpt><trkpt lat="37.7969686" lon="13.6406665"><ele>453.0</ele><time>2026-05-01T08:14:53.851Z</time></trkpt><trkpt lat="37.7968031" lon="13.6408129"><ele>449.0</ele><time>2026-05-01T08:14:54.851Z</time></trkpt><trkpt lat="37.7966763" lon="13.6409396"><ele>449.0</ele><time>2026-05-01T08:14:55.852Z</time></trkpt><trkpt lat="37.7965633" lon="13.6410247"><ele>449.0</ele><time>2026-05-01T08:14:56.852Z</time></trkpt><trkpt lat="37.7964264" lon="13.6411104"><ele>449.0</ele><time>2026-05-01T08:14:57.851Z</time></trkpt><trkpt lat="37.7962631" lon="13.6411943"><ele>448.3333333333333</ele><time>2026-05-01T08:14:58.852Z</time></trkpt><trkpt lat="37.7960896" lon="13.6412712"><ele>447.66666666666663</ele><time>2026-05-01T08:14:59.851Z</time></trkpt><trkpt lat="37.7959206" lon="13.6413389"><ele>447.0</ele><time>2026-05-01T08:15:00.851Z</time></trkpt><trkpt lat="37.7957663" lon="13.6414013"><ele>445.66666666666663</ele><time>2026-05-01T08:15:01.851Z</time></trkpt><trkpt lat="37.7956228" lon="13.6414544"><ele>444.3333333333333</ele><time>2026-05-01T08:15:02.851Z</time></trkpt><trkpt lat="37.7954655" lon="13.6414953"><ele>443.0</ele><time>2026-05-01T08:15:03.851Z</time></trkpt><trkpt lat="37.7952856" lon="13.6415196"><ele>440.3333333333333</ele><time>2026-05-01T08:15:04.851Z</time></trkpt><trkpt lat="37.7950841" lon="13.6415289"><ele>437.66666666666663</ele><time>2026-05-01T08:15:05.852Z</time></trkpt><trkpt lat="37.7948618" lon="13.6415379"><ele>435.0</ele><time>2026-05-01T08:15:06.851Z</time></trkpt><trkpt lat="37.7946367" lon="13.6415492"><ele>435.0</ele><time>2026-05-01T08:15:07.851Z</time></trkpt><trkpt lat="37.794427" lon="13.6415656"><ele>435.0</ele><time>2026-05-01T08:15:08.852Z</time></trkpt><trkpt lat="37.7942253" lon="13.6415783"><ele>435.0</ele><time>2026-05-01T08:15:09.851Z</time></trkpt><trkpt lat="37.794034" lon="13.6415902"><ele>431.33333333333337</ele><time>2026-05-01T08:15:10.851Z</time></trkpt><trkpt lat="37.7938531" lon="13.6416074"><ele>427.6666666666667</ele><time>2026-05-01T08:15:11.852Z</time></trkpt><trkpt lat="37.7936847" lon="13.6416432"><ele>424.0</ele><time>2026-05-01T08:15:12.852Z</time></trkpt><trkpt lat="37.7935183" lon="13.6416959"><ele>422.0</ele><time>2026-05-01T08:15:13.852Z</time></trkpt><trkpt lat="37.7933704" lon="13.6417488"><ele>420.0</ele><time>2026-05-01T08:15:14.851Z</time></trkpt><trkpt lat="37.7932387" lon="13.6417954"><ele>418.0</ele><time>2026-05-01T08:15:15.852Z</time></trkpt><trkpt lat="37.7931118" lon="13.64182"><ele>416.0</ele><time>2026-05-01T08:15:16.852Z</time></trkpt><trkpt lat="37.7929784" lon="13.6418183"><ele>416.0</ele><time>2026-05-01T08:15:17.852Z</time></trkpt><trkpt lat="37.7928333" lon="13.641789"><ele>416.0</ele><time>2026-05-01T08:15:18.851Z</time></trkpt><trkpt lat="37.7926664" lon="13.6417565"><ele>416.0</ele><time>2026-05-01T08:15:19.851Z</time></trkpt><trkpt lat="37.7924932" lon="13.6417201"><ele>413.0</ele><time>2026-05-01T08:15:20.851Z</time></trkpt><trkpt lat="37.7923122" lon="13.6416763"><ele>410.0</ele><time>2026-05-01T08:15:21.851Z</time></trkpt><trkpt lat="37.79213" lon="13.641633"><ele>407.0</ele><time>2026-05-01T08:15:22.852Z</time></trkpt><trkpt lat="37.7919571" lon="13.6416006"><ele>405.3333333333333</ele><time>2026-05-01T08:15:23.851Z</time></trkpt><trkpt lat="37.7917929" lon="13.6415796"><ele>403.66666666666663</ele><time>2026-05-01T08:15:24.852Z</time></trkpt><trkpt lat="37.7916432" lon="13.6415717"><ele>402.0</ele><time>2026-05-01T08:15:25.851Z</time></trkpt><trkpt lat="37.7915072" lon="13.6415754"><ele>402.0</ele><time>2026-05-01T08:15:26.852Z</time></trkpt><trkpt lat="37.7913792" lon="13.6415823"><ele>402.0</ele><time>2026-05-01T08:15:27.851Z</time></trkpt><trkpt lat="37.7912666" lon="13.6415833"><ele>402.0</ele><time>2026-05-01T08:15:28.851Z</time></trkpt><trkpt lat="37.791163" lon="13.6415815"><ele>402.0</ele><time>2026-05-01T08:15:29.852Z</time></trkpt><trkpt lat="37.7910653" lon="13.6415805"><ele>402.0</ele><time>2026-05-01T08:15:30.852Z</time></trkpt><trkpt lat="37.7909836" lon="13.6415783"><ele>402.8333333333333</ele><time>2026-05-01T08:15:31.851Z</time></trkpt><trkpt lat="37.7909112" lon="13.6415792"><ele>403.66666666666663</ele><time>2026-05-01T08:15:32.851Z</time></trkpt><trkpt lat="37.7908377" lon="13.6415826"><ele>404.5</ele><time>2026-05-01T08:15:33.852Z</time></trkpt><trkpt lat="37.7907663" lon="13.6415835"><ele>405.3333333333333</ele><time>2026-05-01T08:15:34.851Z</time></trkpt><trkpt lat="37.7907001" lon="13.6415892"><ele>406.16666666666663</ele><time>2026-05-01T08:15:35.852Z</time></trkpt><trkpt lat="37.7906341" lon="13.641595"><ele>407.0</ele><time>2026-05-01T08:15:36.851Z</time></trkpt><trkpt lat="37.7905194" lon="13.6416014"><ele>406.99999999999994</ele><time>2026-05-01T08:15:38.852Z</time></trkpt><trkpt lat="37.7904498" lon="13.6416058"><ele>407.0</ele><time>2026-05-01T08:15:39.851Z</time></trkpt><trkpt lat="37.7903723" lon="13.641607"><ele>407.0</ele><time>2026-05-01T08:15:40.852Z</time></trkpt><trkpt lat="37.7902921" lon="13.6416096"><ele>407.0</ele><time>2026-05-01T08:15:41.851Z</time></trkpt><trkpt lat="37.7902104" lon="13.6416197"><ele>406.99999999999994</ele><time>2026-05-01T08:15:42.852Z</time></trkpt><trkpt lat="37.7901241" lon="13.6416343"><ele>407.0</ele><time>2026-05-01T08:15:43.852Z</time></trkpt><trkpt lat="37.7900335" lon="13.6416523"><ele>409.40000000000003</ele><time>2026-05-01T08:15:44.851Z</time></trkpt><trkpt lat="37.7899431" lon="13.6416788"><ele>411.8</ele><time>2026-05-01T08:15:45.852Z</time></trkpt><trkpt lat="37.789857" lon="13.6417257"><ele>414.2</ele><time>2026-05-01T08:15:46.852Z</time></trkpt><trkpt lat="37.7897702" lon="13.6417852"><ele>416.6</ele><time>2026-05-01T08:15:47.852Z</time></trkpt><trkpt lat="37.7896776" lon="13.641867"><ele>419.0</ele><time>2026-05-01T08:15:48.851Z</time></trkpt><trkpt lat="37.7895847" lon="13.6419681"><ele>422.0</ele><time>2026-05-01T08:15:49.852Z</time></trkpt><trkpt lat="37.7894928" lon="13.642078"><ele>425.0</ele><time>2026-05-01T08:15:50.851Z</time></trkpt><trkpt lat="37.7894033" lon="13.6421834"><ele>428.0</ele><time>2026-05-01T08:15:51.852Z</time></trkpt><trkpt lat="37.7893015" lon="13.6422756"><ele>431.0</ele><time>2026-05-01T08:15:52.851Z</time></trkpt><trkpt lat="37.7891853" lon="13.6423704"><ele>431.75</ele><time>2026-05-01T08:15:53.852Z</time></trkpt><trkpt lat="37.7890674" lon="13.6424646"><ele>432.5</ele><time>2026-05-01T08:15:54.851Z</time></trkpt><trkpt lat="37.7889634" lon="13.64256"><ele>433.25</ele><time>2026-05-01T08:15:55.852Z</time></trkpt><trkpt lat="37.7888615" lon="13.6426607"><ele>434.0</ele><time>2026-05-01T08:15:56.852Z</time></trkpt><trkpt lat="37.7887746" lon="13.6427546"><ele>434.79999999999995</ele><time>2026-05-01T08:15:57.851Z</time></trkpt><trkpt lat="37.788692" lon="13.6428394"><ele>435.59999999999997</ele><time>2026-05-01T08:15:58.852Z</time></trkpt><trkpt lat="37.788611" lon="13.6429096"><ele>436.4</ele><time>2026-05-01T08:15:59.851Z</time></trkpt><trkpt lat="37.7885223" lon="13.6429734"><ele>437.2</ele><time>2026-05-01T08:16:00.851Z</time></trkpt><trkpt lat="37.7884338" lon="13.6430411"><ele>438.0</ele><time>2026-05-01T08:16:01.852Z</time></trkpt><trkpt lat="37.7883479" lon="13.6431036"><ele>439.79999999999995</ele><time>2026-05-01T08:16:02.851Z</time></trkpt><trkpt lat="37.7882525" lon="13.6431536"><ele>441.59999999999997</ele><time>2026-05-01T08:16:03.851Z</time></trkpt><trkpt lat="37.7881517" lon="13.643186"><ele>443.40000000000003</ele><time>2026-05-01T08:16:04.852Z</time></trkpt><trkpt lat="37.7880488" lon="13.6432098"><ele>445.20000000000005</ele><time>2026-05-01T08:16:05.851Z</time></trkpt><trkpt lat="37.7879359" lon="13.6432317"><ele>447.0</ele><time>2026-05-01T08:16:06.852Z</time></trkpt><trkpt lat="37.7878379" lon="13.6432427"><ele>447.0</ele><time>2026-05-01T08:16:07.852Z</time></trkpt><trkpt lat="37.787768" lon="13.6432421"><ele>447.0</ele><time>2026-05-01T08:16:08.851Z</time></trkpt><trkpt lat="37.7876713" lon="13.6432461"><ele>447.0</ele><time>2026-05-01T08:16:10.851Z</time></trkpt><trkpt lat="37.7875884" lon="13.6432798"><ele>447.0</ele><time>2026-05-01T08:16:12.851Z</time></trkpt><trkpt lat="37.7875233" lon="13.6433051"><ele>447.0</ele><time>2026-05-01T08:16:13.851Z</time></trkpt><trkpt lat="37.7874367" lon="13.6433255"><ele>447.0</ele><time>2026-05-01T08:16:14.851Z</time></trkpt><trkpt lat="37.7873447" lon="13.6433386"><ele>448.8333333333333</ele><time>2026-05-01T08:16:15.851Z</time></trkpt><trkpt lat="37.7872601" lon="13.6433426"><ele>450.66666666666663</ele><time>2026-05-01T08:16:16.852Z</time></trkpt><trkpt lat="37.7871856" lon="13.6433177"><ele>452.5</ele><time>2026-05-01T08:16:17.851Z</time></trkpt><trkpt lat="37.7871203" lon="13.6432696"><ele>454.3333333333333</ele><time>2026-05-01T08:16:18.852Z</time></trkpt><trkpt lat="37.7870423" lon="13.6432133"><ele>456.16666666666663</ele><time>2026-05-01T08:16:19.851Z</time></trkpt><trkpt lat="37.7869632" lon="13.6431528"><ele>458.0</ele><time>2026-05-01T08:16:20.852Z</time></trkpt><trkpt lat="37.7868834" lon="13.6430972"><ele>460.79999999999995</ele><time>2026-05-01T08:16:21.851Z</time></trkpt><trkpt lat="37.7867971" lon="13.6430436"><ele>463.59999999999997</ele><time>2026-05-01T08:16:22.851Z</time></trkpt><trkpt lat="37.7866945" lon="13.6429782"><ele>466.40000000000003</ele><time>2026-05-01T08:16:23.851Z</time></trkpt><trkpt lat="37.7865911" lon="13.6429091"><ele>469.20000000000005</ele><time>2026-05-01T08:16:24.851Z</time></trkpt><trkpt lat="37.786511" lon="13.6428625"><ele>472.0</ele><time>2026-05-01T08:16:25.852Z</time></trkpt><trkpt lat="37.7864337" lon="13.6428312"><ele>472.0</ele><time>2026-05-01T08:16:26.852Z</time></trkpt><trkpt lat="37.7863451" lon="13.6428057"><ele>472.00000000000006</ele><time>2026-05-01T08:16:27.851Z</time></trkpt><trkpt lat="37.7862548" lon="13.6427786"><ele>472.00000000000006</ele><time>2026-05-01T08:16:28.851Z</time></trkpt><trkpt lat="37.7861744" lon="13.642732"><ele>472.0</ele><time>2026-05-01T08:16:29.852Z</time></trkpt><trkpt lat="37.7860927" lon="13.6426632"><ele>472.0</ele><time>2026-05-01T08:16:30.852Z</time></trkpt><trkpt lat="37.7860094" lon="13.642562"><ele>473.20000000000005</ele><time>2026-05-01T08:16:31.851Z</time></trkpt><trkpt lat="37.7859351" lon="13.6424574"><ele>474.40000000000003</ele><time>2026-05-01T08:16:32.851Z</time></trkpt><trkpt lat="37.7858681" lon="13.6423656"><ele>475.59999999999997</ele><time>2026-05-01T08:16:33.852Z</time></trkpt><trkpt lat="37.7858039" lon="13.6422969"><ele>476.79999999999995</ele><time>2026-05-01T08:16:34.851Z</time></trkpt><trkpt lat="37.785715" lon="13.6422337"><ele>478.0</ele><time>2026-05-01T08:16:35.851Z</time></trkpt><trkpt lat="37.7856005" lon="13.6421636"><ele>478.0</ele><time>2026-05-01T08:16:36.851Z</time></trkpt><trkpt lat="37.7854878" lon="13.6420794"><ele>478.0</ele><time>2026-05-01T08:16:37.852Z</time></trkpt><trkpt lat="37.7853938" lon="13.6419895"><ele>478.0</ele><time>2026-05-01T08:16:38.852Z</time></trkpt><trkpt lat="37.7853048" lon="13.641895"><ele>478.0</ele><time>2026-05-01T08:16:39.852Z</time></trkpt><trkpt lat="37.785218" lon="13.6418095"><ele>478.4</ele><time>2026-05-01T08:16:40.851Z</time></trkpt><trkpt lat="37.7851363" lon="13.6417439"><ele>478.79999999999995</ele><time>2026-05-01T08:16:41.852Z</time></trkpt><trkpt lat="37.7850549" lon="13.6417022"><ele>479.2</ele><time>2026-05-01T08:16:42.852Z</time></trkpt><trkpt lat="37.7849739" lon="13.6416847"><ele>479.6</ele><time>2026-05-01T08:16:43.852Z</time></trkpt><trkpt lat="37.7848884" lon="13.6416857"><ele>480.0</ele><time>2026-05-01T08:16:44.852Z</time></trkpt><trkpt lat="37.7847868" lon="13.6417135"><ele>480.0</ele><time>2026-05-01T08:16:45.851Z</time></trkpt><trkpt lat="37.7846974" lon="13.6417493"><ele>480.0</ele><time>2026-05-01T08:16:46.852Z</time></trkpt><trkpt lat="37.7846272" lon="13.6417868"><ele>480.0</ele><time>2026-05-01T08:16:47.852Z</time></trkpt><trkpt lat="37.7845633" lon="13.6418252"><ele>480.0</ele><time>2026-05-01T08:16:48.852Z</time></trkpt><trkpt lat="37.7844979" lon="13.6418569"><ele>480.0</ele><time>2026-05-01T08:16:49.851Z</time></trkpt><trkpt lat="37.7844317" lon="13.6418856"><ele>480.0</ele><time>2026-05-01T08:16:50.852Z</time></trkpt><trkpt lat="37.784368" lon="13.6419221"><ele>483.5</ele><time>2026-05-01T08:16:51.852Z</time></trkpt><trkpt lat="37.7843039" lon="13.6419651"><ele>487.0</ele><time>2026-05-01T08:16:52.851Z</time></trkpt><trkpt lat="37.7842392" lon="13.6420022"><ele>490.5</ele><time>2026-05-01T08:16:53.852Z</time></trkpt><trkpt lat="37.784172" lon="13.642034"><ele>494.0</ele><time>2026-05-01T08:16:54.851Z</time></trkpt><trkpt lat="37.7840984" lon="13.6420543"><ele>497.5</ele><time>2026-05-01T08:16:55.851Z</time></trkpt><trkpt lat="37.7840235" lon="13.642067"><ele>501.0</ele><time>2026-05-01T08:16:56.852Z</time></trkpt><trkpt lat="37.7839386" lon="13.6420769"><ele>501.0</ele><time>2026-05-01T08:16:57.852Z</time></trkpt><trkpt lat="37.7838492" lon="13.6420838"><ele>501.0</ele><time>2026-05-01T08:16:58.851Z</time></trkpt><trkpt lat="37.7837534" lon="13.6420865"><ele>501.0</ele><time>2026-05-01T08:16:59.851Z</time></trkpt><trkpt lat="37.7836493" lon="13.642084"><ele>501.0</ele><time>2026-05-01T08:17:00.852Z</time></trkpt><trkpt lat="37.7835479" lon="13.6420656"><ele>501.0</ele><time>2026-05-01T08:17:01.852Z</time></trkpt><trkpt lat="37.7834572" lon="13.6420429"><ele>501.6666666666667</ele><time>2026-05-01T08:17:02.851Z</time></trkpt><trkpt lat="37.7833746" lon="13.6420264"><ele>502.33333333333337</ele><time>2026-05-01T08:17:03.851Z</time></trkpt><trkpt lat="37.783289" lon="13.6420431"><ele>503.0</ele><time>2026-05-01T08:17:04.851Z</time></trkpt><trkpt lat="37.7831991" lon="13.6420827"><ele>503.6666666666667</ele><time>2026-05-01T08:17:05.851Z</time></trkpt><trkpt lat="37.7831187" lon="13.642133"><ele>504.33333333333337</ele><time>2026-05-01T08:17:06.851Z</time></trkpt><trkpt lat="37.7830386" lon="13.642174"><ele>505.0</ele><time>2026-05-01T08:17:07.851Z</time></trkpt><trkpt lat="37.7829415" lon="13.6422011"><ele>505.0</ele><time>2026-05-01T08:17:08.852Z</time></trkpt><trkpt lat="37.7828216" lon="13.6422096"><ele>505.0</ele><time>2026-05-01T08:17:09.852Z</time></trkpt><trkpt lat="37.7826825" lon="13.642225"><ele>505.0</ele><time>2026-05-01T08:17:10.852Z</time></trkpt><trkpt lat="37.782526" lon="13.6422474"><ele>505.0</ele><time>2026-05-01T08:17:11.851Z</time></trkpt><trkpt lat="37.7823783" lon="13.6422706"><ele>505.0</ele><time>2026-05-01T08:17:12.851Z</time></trkpt><trkpt lat="37.7822499" lon="13.642304"><ele>505.0</ele><time>2026-05-01T08:17:13.852Z</time></trkpt><trkpt lat="37.782125" lon="13.6423533"><ele>505.0</ele><time>2026-05-01T08:17:14.851Z</time></trkpt><trkpt lat="37.7820034" lon="13.642407"><ele>505.0</ele><time>2026-05-01T08:17:15.851Z</time></trkpt><trkpt lat="37.7818822" lon="13.6424576"><ele>505.6</ele><time>2026-05-01T08:17:16.852Z</time></trkpt><trkpt lat="37.7817841" lon="13.6425"><ele>506.2</ele><time>2026-05-01T08:17:17.851Z</time></trkpt><trkpt lat="37.7816997" lon="13.6425449"><ele>506.79999999999995</ele><time>2026-05-01T08:17:18.851Z</time></trkpt><trkpt lat="37.7816036" lon="13.6426011"><ele>507.4</ele><time>2026-05-01T08:17:19.852Z</time></trkpt><trkpt lat="37.7815056" lon="13.6426686"><ele>508.0</ele><time>2026-05-01T08:17:20.851Z</time></trkpt><trkpt lat="37.7814076" lon="13.6427424"><ele>510.2</ele><time>2026-05-01T08:17:21.852Z</time></trkpt><trkpt lat="37.7813172" lon="13.6428214"><ele>512.4</ele><time>2026-05-01T08:17:22.851Z</time></trkpt><trkpt lat="37.7812299" lon="13.642904"><ele>514.5999999999999</ele><time>2026-05-01T08:17:23.851Z</time></trkpt><trkpt lat="37.7811516" lon="13.6429887"><ele>516.8</ele><time>2026-05-01T08:17:24.851Z</time></trkpt><trkpt lat="37.7810785" lon="13.6430847"><ele>519.0</ele><time>2026-05-01T08:17:25.851Z</time></trkpt><trkpt lat="37.7810032" lon="13.6431905"><ele>519.2</ele><time>2026-05-01T08:17:26.852Z</time></trkpt><trkpt lat="37.7809252" lon="13.6432853"><ele>519.4</ele><time>2026-05-01T08:17:27.851Z</time></trkpt><trkpt lat="37.7808506" lon="13.6433712"><ele>519.6</ele><time>2026-05-01T08:17:28.852Z</time></trkpt><trkpt lat="37.7807717" lon="13.6434559"><ele>519.8</ele><time>2026-05-01T08:17:29.851Z</time></trkpt><trkpt lat="37.7806911" lon="13.6435387"><ele>520.0</ele><time>2026-05-01T08:17:30.852Z</time></trkpt><trkpt lat="37.7806191" lon="13.6436106"><ele>522.0</ele><time>2026-05-01T08:17:31.851Z</time></trkpt><trkpt lat="37.7805585" lon="13.6436695"><ele>524.0</ele><time>2026-05-01T08:17:32.851Z</time></trkpt><trkpt lat="37.7805104" lon="13.6437299"><ele>526.0</ele><time>2026-05-01T08:17:33.851Z</time></trkpt><trkpt lat="37.7804348" lon="13.6438296"><ele>528.0</ele><time>2026-05-01T08:17:35.851Z</time></trkpt><trkpt lat="37.7803562" lon="13.6439573"><ele>530.0</ele><time>2026-05-01T08:17:37.852Z</time></trkpt><trkpt lat="37.7802987" lon="13.6440596"><ele>530.0</ele><time>2026-05-01T08:17:38.851Z</time></trkpt><trkpt lat="37.780229" lon="13.6441865"><ele>530.0</ele><time>2026-05-01T08:17:39.852Z</time></trkpt><trkpt lat="37.7801549" lon="13.644346"><ele>530.0</ele><time>2026-05-01T08:17:40.852Z</time></trkpt><trkpt lat="37.7800762" lon="13.6445102"><ele>530.0</ele><time>2026-05-01T08:17:41.852Z</time></trkpt><trkpt lat="37.7799996" lon="13.6446707"><ele>531.25</ele><time>2026-05-01T08:17:42.852Z</time></trkpt><trkpt lat="37.7799142" lon="13.6448146"><ele>532.5</ele><time>2026-05-01T08:17:43.851Z</time></trkpt><trkpt lat="37.7798219" lon="13.6449464"><ele>533.75</ele><time>2026-05-01T08:17:44.851Z</time></trkpt><trkpt lat="37.7797259" lon="13.645067"><ele>535.0</ele><time>2026-05-01T08:17:45.851Z</time></trkpt><trkpt lat="37.7796252" lon="13.6451804"><ele>536.3333333333334</ele><time>2026-05-01T08:17:46.852Z</time></trkpt><trkpt lat="37.779513" lon="13.6453004"><ele>537.6666666666666</ele><time>2026-05-01T08:17:47.852Z</time></trkpt><trkpt lat="37.7793868" lon="13.6454297"><ele>539.0</ele><time>2026-05-01T08:17:48.852Z</time></trkpt><trkpt lat="37.7792667" lon="13.6455498"><ele>539.0</ele><time>2026-05-01T08:17:49.851Z</time></trkpt><trkpt lat="37.7791587" lon="13.6456475"><ele>539.0</ele><time>2026-05-01T08:17:50.852Z</time></trkpt><trkpt lat="37.779059" lon="13.6457329"><ele>539.0</ele><time>2026-05-01T08:17:51.852Z</time></trkpt><trkpt lat="37.7789681" lon="13.6458156"><ele>539.0</ele><time>2026-05-01T08:17:52.851Z</time></trkpt><trkpt lat="37.7788929" lon="13.6458897"><ele>539.0</ele><time>2026-05-01T08:17:53.851Z</time></trkpt><trkpt lat="37.7788311" lon="13.6459945"><ele>539.0</ele><time>2026-05-01T08:17:54.851Z</time></trkpt><trkpt lat="37.7787755" lon="13.6461175"><ele>539.0</ele><time>2026-05-01T08:17:55.851Z</time></trkpt><trkpt lat="37.7787134" lon="13.6462331"><ele>539.0</ele><time>2026-05-01T08:17:56.851Z</time></trkpt><trkpt lat="37.7786476" lon="13.6463293"><ele>539.0</ele><time>2026-05-01T08:17:57.852Z</time></trkpt><trkpt lat="37.7785722" lon="13.6464078"><ele>539.6</ele><time>2026-05-01T08:17:58.851Z</time></trkpt><trkpt lat="37.778487" lon="13.6464778"><ele>540.2</ele><time>2026-05-01T08:17:59.852Z</time></trkpt><trkpt lat="37.7783928" lon="13.6465553"><ele>540.8000000000001</ele><time>2026-05-01T08:18:00.851Z</time></trkpt><trkpt lat="37.7782875" lon="13.6466344"><ele>541.4</ele><time>2026-05-01T08:18:01.852Z</time></trkpt><trkpt lat="37.7781944" lon="13.6466985"><ele>542.0</ele><time>2026-05-01T08:18:02.852Z</time></trkpt><trkpt lat="37.7781196" lon="13.6467433"><ele>542.0</ele><time>2026-05-01T08:18:03.852Z</time></trkpt><trkpt lat="37.7780453" lon="13.6467879"><ele>542.0</ele><time>2026-05-01T08:18:04.851Z</time></trkpt><trkpt lat="37.7779573" lon="13.6468371"><ele>542.0</ele><time>2026-05-01T08:18:05.851Z</time></trkpt><trkpt lat="37.7778584" lon="13.6469191"><ele>542.0</ele><time>2026-05-01T08:18:06.851Z</time></trkpt><trkpt lat="37.7777582" lon="13.6470112"><ele>542.0</ele><time>2026-05-01T08:18:07.852Z</time></trkpt><trkpt lat="37.7776789" lon="13.6470941"><ele>542.8333333333333</ele><time>2026-05-01T08:18:08.852Z</time></trkpt><trkpt lat="37.7776142" lon="13.6471657"><ele>543.6666666666666</ele><time>2026-05-01T08:18:09.852Z</time></trkpt><trkpt lat="37.7775548" lon="13.6472398"><ele>544.5</ele><time>2026-05-01T08:18:10.852Z</time></trkpt><trkpt lat="37.7774991" lon="13.647312"><ele>545.3333333333334</ele><time>2026-05-01T08:18:11.852Z</time></trkpt><trkpt lat="37.777451" lon="13.6473886"><ele>546.1666666666667</ele><time>2026-05-01T08:18:12.852Z</time></trkpt><trkpt lat="37.7774185" lon="13.6474742"><ele>547.0</ele><time>2026-05-01T08:18:13.851Z</time></trkpt><trkpt lat="37.7774043" lon="13.647554"><ele>547.0</ele><time>2026-05-01T08:18:14.851Z</time></trkpt><trkpt lat="37.7774132" lon="13.6476998"><ele>547.0</ele><time>2026-05-01T08:18:16.851Z</time></trkpt><trkpt lat="37.7774341" lon="13.6477954"><ele>547.0</ele><time>2026-05-01T08:18:17.852Z</time></trkpt><trkpt lat="37.7774673" lon="13.6478955"><ele>547.0</ele><time>2026-05-01T08:18:18.851Z</time></trkpt><trkpt lat="37.7775057" lon="13.6479935"><ele>547.0</ele><time>2026-05-01T08:18:19.851Z</time></trkpt><trkpt lat="37.777538" lon="13.6481082"><ele>546.75</ele><time>2026-05-01T08:18:20.851Z</time></trkpt><trkpt lat="37.7775841" lon="13.648257"><ele>546.5</ele><time>2026-05-01T08:18:21.851Z</time></trkpt><trkpt lat="37.7776461" lon="13.6484124"><ele>546.25</ele><time>2026-05-01T08:18:22.851Z</time></trkpt><trkpt lat="37.7777081" lon="13.6485666"><ele>546.0</ele><time>2026-05-01T08:18:23.851Z</time></trkpt><trkpt lat="37.7777615" lon="13.6486984"><ele>548.2</ele><time>2026-05-01T08:18:24.852Z</time></trkpt><trkpt lat="37.7777961" lon="13.6488058"><ele>550.4000000000001</ele><time>2026-05-01T08:18:25.851Z</time></trkpt><trkpt lat="37.7778379" lon="13.6489137"><ele>552.6</ele><time>2026-05-01T08:18:26.851Z</time></trkpt><trkpt lat="37.7778789" lon="13.6490246"><ele>554.8000000000001</ele><time>2026-05-01T08:18:27.851Z</time></trkpt><trkpt lat="37.7779144" lon="13.6491344"><ele>557.0</ele><time>2026-05-01T08:18:28.852Z</time></trkpt><trkpt lat="37.7779547" lon="13.6492396"><ele>557.0</ele><time>2026-05-01T08:18:29.851Z</time></trkpt><trkpt lat="37.777999" lon="13.6493404"><ele>557.0</ele><time>2026-05-01T08:18:30.851Z</time></trkpt><trkpt lat="37.778047" lon="13.6494345"><ele>557.0</ele><time>2026-05-01T08:18:31.851Z</time></trkpt><trkpt lat="37.778097" lon="13.6495299"><ele>557.0</ele><time>2026-05-01T08:18:32.852Z</time></trkpt><trkpt lat="37.7781453" lon="13.6496369"><ele>557.0</ele><time>2026-05-01T08:18:33.851Z</time></trkpt><trkpt lat="37.7782023" lon="13.6497394"><ele>556.6</ele><time>2026-05-01T08:18:34.851Z</time></trkpt><trkpt lat="37.778265" lon="13.6498517"><ele>556.2</ele><time>2026-05-01T08:18:35.852Z</time></trkpt><trkpt lat="37.7783293" lon="13.6499683"><ele>555.8</ele><time>2026-05-01T08:18:36.851Z</time></trkpt><trkpt lat="37.7783922" lon="13.6500822"><ele>555.4</ele><time>2026-05-01T08:18:37.852Z</time></trkpt><trkpt lat="37.7784559" lon="13.6501874"><ele>555.0</ele><time>2026-05-01T08:18:38.852Z</time></trkpt><trkpt lat="37.7785068" lon="13.6502902"><ele>557.0</ele><time>2026-05-01T08:18:39.852Z</time></trkpt><trkpt lat="37.7785476" lon="13.650399"><ele>559.0</ele><time>2026-05-01T08:18:40.852Z</time></trkpt><trkpt lat="37.7785844" lon="13.6505226"><ele>561.0</ele><time>2026-05-01T08:18:41.851Z</time></trkpt><trkpt lat="37.7786204" lon="13.6506703"><ele>563.0</ele><time>2026-05-01T08:18:42.852Z</time></trkpt><trkpt lat="37.7786446" lon="13.6508289"><ele>565.0</ele><time>2026-05-01T08:18:43.851Z</time></trkpt><trkpt lat="37.7786476" lon="13.6509929"><ele>565.6</ele><time>2026-05-01T08:18:44.851Z</time></trkpt><trkpt lat="37.778637" lon="13.6511274"><ele>566.2</ele><time>2026-05-01T08:18:45.852Z</time></trkpt><trkpt lat="37.778617" lon="13.6512478"><ele>566.8</ele><time>2026-05-01T08:18:46.852Z</time></trkpt><trkpt lat="37.7785891" lon="13.651361"><ele>567.4</ele><time>2026-05-01T08:18:47.852Z</time></trkpt><trkpt lat="37.7785598" lon="13.6514673"><ele>568.0</ele><time>2026-05-01T08:18:48.859Z</time></trkpt><trkpt lat="37.77853" lon="13.6515683"><ele>564.8</ele><time>2026-05-01T08:18:49.859Z</time></trkpt><trkpt lat="37.7785004" lon="13.6516706"><ele>561.5999999999999</ele><time>2026-05-01T08:18:50.859Z</time></trkpt><trkpt lat="37.7784656" lon="13.6517825"><ele>558.4000000000001</ele><time>2026-05-01T08:18:51.859Z</time></trkpt><trkpt lat="37.7784272" lon="13.6518984"><ele>555.2</ele><time>2026-05-01T08:18:52.859Z</time></trkpt><trkpt lat="37.7783814" lon="13.6520259"><ele>552.0</ele><time>2026-05-01T08:18:53.859Z</time></trkpt><trkpt lat="37.7783338" lon="13.6521525"><ele>552.0</ele><time>2026-05-01T08:18:54.858Z</time></trkpt><trkpt lat="37.778292" lon="13.6522701"><ele>552.0</ele><time>2026-05-01T08:18:55.859Z</time></trkpt><trkpt lat="37.778244" lon="13.6523736"><ele>552.0</ele><time>2026-05-01T08:18:56.858Z</time></trkpt><trkpt lat="37.7781972" lon="13.6524676"><ele>552.0</ele><time>2026-05-01T08:18:57.858Z</time></trkpt><trkpt lat="37.7781429" lon="13.6525591"><ele>552.0</ele><time>2026-05-01T08:18:58.858Z</time></trkpt><trkpt lat="37.7780825" lon="13.6526537"><ele>552.0</ele><time>2026-05-01T08:18:59.858Z</time></trkpt><trkpt lat="37.7780214" lon="13.652744"><ele>552.0</ele><time>2026-05-01T08:19:00.859Z</time></trkpt><trkpt lat="37.7779676" lon="13.6528289"><ele>552.0</ele><time>2026-05-01T08:19:01.859Z</time></trkpt><trkpt lat="37.7779231" lon="13.6529251"><ele>552.0</ele><time>2026-05-01T08:19:02.858Z</time></trkpt><trkpt lat="37.7778932" lon="13.6530359"><ele>552.0</ele><time>2026-05-01T08:19:03.858Z</time></trkpt><trkpt lat="37.7778766" lon="13.6531546"><ele>553.0</ele><time>2026-05-01T08:19:04.858Z</time></trkpt><trkpt lat="37.7778703" lon="13.6532858"><ele>554.0</ele><time>2026-05-01T08:19:05.859Z</time></trkpt><trkpt lat="37.7778642" lon="13.6534159"><ele>555.0</ele><time>2026-05-01T08:19:06.858Z</time></trkpt><trkpt lat="37.7778593" lon="13.6535277"><ele>556.0</ele><time>2026-05-01T08:19:07.859Z</time></trkpt><trkpt lat="37.7778614" lon="13.6536407"><ele>557.0</ele><time>2026-05-01T08:19:08.859Z</time></trkpt><trkpt lat="37.7778739" lon="13.6537608"><ele>557.4</ele><time>2026-05-01T08:19:09.858Z</time></trkpt><trkpt lat="37.7778926" lon="13.6538801"><ele>557.8000000000001</ele><time>2026-05-01T08:19:10.859Z</time></trkpt><trkpt lat="37.7779212" lon="13.6539986"><ele>558.2</ele><time>2026-05-01T08:19:11.858Z</time></trkpt><trkpt lat="37.7779604" lon="13.6541148"><ele>558.6</ele><time>2026-05-01T08:19:12.858Z</time></trkpt><trkpt lat="37.7780038" lon="13.6542312"><ele>559.0</ele><time>2026-05-01T08:19:13.859Z</time></trkpt><trkpt lat="37.7780519" lon="13.6543427"><ele>560.25</ele><time>2026-05-01T08:19:14.858Z</time></trkpt><trkpt lat="37.7781199" lon="13.6544699"><ele>561.5</ele><time>2026-05-01T08:19:15.859Z</time></trkpt><trkpt lat="37.7781912" lon="13.6546031"><ele>562.75</ele><time>2026-05-01T08:19:16.858Z</time></trkpt><trkpt lat="37.7782625" lon="13.6547083"><ele>564.0</ele><time>2026-05-01T08:19:17.858Z</time></trkpt><trkpt lat="37.778346" lon="13.6547889"><ele>564.0</ele><time>2026-05-01T08:19:18.859Z</time></trkpt><trkpt lat="37.7784179" lon="13.6548415"><ele>564.0</ele><time>2026-05-01T08:19:19.858Z</time></trkpt><trkpt lat="37.778515" lon="13.6549113"><ele>564.0</ele><time>2026-05-01T08:19:21.859Z</time></trkpt><trkpt lat="37.7786265" lon="13.6548989"><ele>564.0</ele><time>2026-05-01T08:19:31.858Z</time></trkpt><trkpt lat="37.7786965" lon="13.6548834"><ele>564.0</ele><time>2026-05-01T08:19:32.859Z</time></trkpt><trkpt lat="37.7787623" lon="13.6548637"><ele>564.0</ele><time>2026-05-01T08:19:33.859Z</time></trkpt><trkpt lat="37.7788644" lon="13.6548122"><ele>564.8</ele><time>2026-05-01T08:19:35.858Z</time></trkpt><trkpt lat="37.7789418" lon="13.6547689"><ele>565.5999999999999</ele><time>2026-05-01T08:19:37.858Z</time></trkpt><trkpt lat="37.7790131" lon="13.6546761"><ele>566.4</ele><time>2026-05-01T08:19:39.859Z</time></trkpt><trkpt lat="37.7790565" lon="13.6545644"><ele>567.1999999999999</ele><time>2026-05-01T08:19:41.858Z</time></trkpt><trkpt lat="37.779075" lon="13.6544677"><ele>568.0</ele><time>2026-05-01T08:19:43.858Z</time></trkpt><trkpt lat="37.7791081" lon="13.6543309"><ele>568.6666666666667</ele><time>2026-05-01T08:19:45.859Z</time></trkpt><trkpt lat="37.7791295" lon="13.6542436"><ele>569.3333333333334</ele><time>2026-05-01T08:19:46.858Z</time></trkpt><trkpt lat="37.7791552" lon="13.6541572"><ele>570.0</ele><time>2026-05-01T08:19:47.858Z</time></trkpt><trkpt lat="37.7791839" lon="13.6540768"><ele>570.6666666666666</ele><time>2026-05-01T08:19:48.858Z</time></trkpt><trkpt lat="37.7792129" lon="13.6539944"><ele>571.3333333333333</ele><time>2026-05-01T08:19:49.858Z</time></trkpt><trkpt lat="37.7792425" lon="13.6539209"><ele>572.0</ele><time>2026-05-01T08:19:50.859Z</time></trkpt><trkpt lat="37.7793096" lon="13.6537874"><ele>570.2</ele><time>2026-05-01T08:19:52.859Z</time></trkpt><trkpt lat="37.7793585" lon="13.6537082"><ele>568.4000000000001</ele><time>2026-05-01T08:19:53.858Z</time></trkpt><trkpt lat="37.779423" lon="13.6536235"><ele>566.5999999999999</ele><time>2026-05-01T08:19:54.858Z</time></trkpt><trkpt lat="37.7794925" lon="13.6535374"><ele>564.8</ele><time>2026-05-01T08:19:55.858Z</time></trkpt><trkpt lat="37.7795779" lon="13.6534463"><ele>563.0</ele><time>2026-05-01T08:19:56.858Z</time></trkpt><trkpt lat="37.7796698" lon="13.6533547"><ele>566.6</ele><time>2026-05-01T08:19:57.858Z</time></trkpt><trkpt lat="37.7797416" lon="13.6532737"><ele>570.1999999999999</ele><time>2026-05-01T08:19:58.859Z</time></trkpt><trkpt lat="37.7798037" lon="13.6531891"><ele>573.8</ele><time>2026-05-01T08:19:59.858Z</time></trkpt><trkpt lat="37.7798693" lon="13.6530895"><ele>577.4</ele><time>2026-05-01T08:20:00.858Z</time></trkpt><trkpt lat="37.7799344" lon="13.6529667"><ele>581.0</ele><time>2026-05-01T08:20:01.858Z</time></trkpt><trkpt lat="37.7799819" lon="13.6528474"><ele>581.4</ele><time>2026-05-01T08:20:02.859Z</time></trkpt><trkpt lat="37.780022" lon="13.6527542"><ele>581.8</ele><time>2026-05-01T08:20:03.859Z</time></trkpt><trkpt lat="37.780063" lon="13.652661"><ele>582.1999999999999</ele><time>2026-05-01T08:20:04.858Z</time></trkpt><trkpt lat="37.7801114" lon="13.6525601"><ele>582.6</ele><time>2026-05-01T08:20:05.858Z</time></trkpt><trkpt lat="37.7801652" lon="13.6524498"><ele>583.0</ele><time>2026-05-01T08:20:06.858Z</time></trkpt><trkpt lat="37.7802165" lon="13.6523477"><ele>583.0</ele><time>2026-05-01T08:20:07.858Z</time></trkpt><trkpt lat="37.7802631" lon="13.6522552"><ele>583.0</ele><time>2026-05-01T08:20:08.858Z</time></trkpt><trkpt lat="37.7803088" lon="13.6521734"><ele>583.0</ele><time>2026-05-01T08:20:09.859Z</time></trkpt><trkpt lat="37.780358" lon="13.6520965"><ele>583.0</ele><time>2026-05-01T08:20:10.859Z</time></trkpt><trkpt lat="37.780412" lon="13.6520174"><ele>583.0</ele><time>2026-05-01T08:20:11.858Z</time></trkpt><trkpt lat="37.7804696" lon="13.6519365"><ele>583.0</ele><time>2026-05-01T08:20:12.858Z</time></trkpt><trkpt lat="37.7805216" lon="13.6518561"><ele>584.8333333333334</ele><time>2026-05-01T08:20:13.858Z</time></trkpt><trkpt lat="37.7805701" lon="13.6517891"><ele>586.6666666666667</ele><time>2026-05-01T08:20:14.858Z</time></trkpt><trkpt lat="37.7806247" lon="13.6517135"><ele>588.5</ele><time>2026-05-01T08:20:15.858Z</time></trkpt><trkpt lat="37.7806725" lon="13.6516357"><ele>590.3333333333334</ele><time>2026-05-01T08:20:16.858Z</time></trkpt><trkpt lat="37.7807236" lon="13.6515447"><ele>592.1666666666666</ele><time>2026-05-01T08:20:17.859Z</time></trkpt><trkpt lat="37.7808059" lon="13.6514257"><ele>594.0</ele><time>2026-05-01T08:20:18.859Z</time></trkpt><trkpt lat="37.7809077" lon="13.6513154"><ele>594.5</ele><time>2026-05-01T08:20:19.858Z</time></trkpt><trkpt lat="37.7810224" lon="13.6512218"><ele>595.0</ele><time>2026-05-01T08:20:20.859Z</time></trkpt><trkpt lat="37.7811415" lon="13.6511444"><ele>595.5</ele><time>2026-05-01T08:20:21.859Z</time></trkpt><trkpt lat="37.7812458" lon="13.6510749"><ele>596.0</ele><time>2026-05-01T08:20:22.858Z</time></trkpt><trkpt lat="37.7813415" lon="13.6510113"><ele>599.6</ele><time>2026-05-01T08:20:23.858Z</time></trkpt><trkpt lat="37.7814298" lon="13.6509413"><ele>603.2</ele><time>2026-05-01T08:20:24.858Z</time></trkpt><trkpt lat="37.7815148" lon="13.6508705"><ele>606.8</ele><time>2026-05-01T08:20:25.859Z</time></trkpt><trkpt lat="37.7815914" lon="13.6507943"><ele>610.4</ele><time>2026-05-01T08:20:26.858Z</time></trkpt><trkpt lat="37.7816659" lon="13.6507154"><ele>614.0</ele><time>2026-05-01T08:20:27.858Z</time></trkpt><trkpt lat="37.7817429" lon="13.6506341"><ele>614.0</ele><time>2026-05-01T08:20:28.858Z</time></trkpt><trkpt lat="37.7818258" lon="13.6505505"><ele>614.0</ele><time>2026-05-01T08:20:29.858Z</time></trkpt><trkpt lat="37.7819108" lon="13.6504513"><ele>614.0</ele><time>2026-05-01T08:20:30.858Z</time></trkpt><trkpt lat="37.7819889" lon="13.6503446"><ele>614.0</ele><time>2026-05-01T08:20:31.859Z</time></trkpt><trkpt lat="37.7820571" lon="13.6502301"><ele>615.0</ele><time>2026-05-01T08:20:32.859Z</time></trkpt><trkpt lat="37.7821098" lon="13.6501302"><ele>616.0</ele><time>2026-05-01T08:20:33.859Z</time></trkpt><trkpt lat="37.7821492" lon="13.6500289"><ele>617.0</ele><time>2026-05-01T08:20:34.858Z</time></trkpt><trkpt lat="37.7821786" lon="13.6499311"><ele>618.0</ele><time>2026-05-01T08:20:35.859Z</time></trkpt><trkpt lat="37.7821966" lon="13.6498245"><ele>619.0</ele><time>2026-05-01T08:20:36.858Z</time></trkpt><trkpt lat="37.7822071" lon="13.6497209"><ele>620.0</ele><time>2026-05-01T08:20:37.858Z</time></trkpt><trkpt lat="37.7822005" lon="13.6496227"><ele>620.0</ele><time>2026-05-01T08:20:38.858Z</time></trkpt><trkpt lat="37.782183" lon="13.6495226"><ele>620.0</ele><time>2026-05-01T08:20:39.859Z</time></trkpt><trkpt lat="37.7821544" lon="13.6494035"><ele>620.0</ele><time>2026-05-01T08:20:40.858Z</time></trkpt><trkpt lat="37.7821157" lon="13.649269"><ele>620.0</ele><time>2026-05-01T08:20:41.859Z</time></trkpt><trkpt lat="37.7820863" lon="13.649156"><ele>620.0</ele><time>2026-05-01T08:20:42.859Z</time></trkpt><trkpt lat="37.7820804" lon="13.6490606"><ele>621.6</ele><time>2026-05-01T08:20:43.858Z</time></trkpt><trkpt lat="37.7820916" lon="13.6489239"><ele>623.2</ele><time>2026-05-01T08:20:45.858Z</time></trkpt><trkpt lat="37.7821327" lon="13.6487952"><ele>624.8</ele><time>2026-05-01T08:20:47.859Z</time></trkpt><trkpt lat="37.7821822" lon="13.6486987"><ele>626.4</ele><time>2026-05-01T08:20:49.858Z</time></trkpt><trkpt lat="37.7822308" lon="13.6485907"><ele>628.0</ele><time>2026-05-01T08:20:51.858Z</time></trkpt><trkpt lat="37.782274" lon="13.6484782"><ele>628.0</ele><time>2026-05-01T08:20:53.859Z</time></trkpt><trkpt lat="37.782301" lon="13.6483711"><ele>628.0</ele><time>2026-05-01T08:20:55.859Z</time></trkpt><trkpt lat="37.7823311" lon="13.6482731"><ele>628.0</ele><time>2026-05-01T08:20:57.859Z</time></trkpt><trkpt lat="37.7823666" lon="13.6482045"><ele>628.0</ele><time>2026-05-01T08:20:59.859Z</time></trkpt><trkpt lat="37.7823563" lon="13.6481034"><ele>628.0</ele><time>2026-05-01T08:21:10.858Z</time></trkpt><trkpt lat="37.7822765" lon="13.6480601"><ele>628.0</ele><time>2026-05-01T08:21:13.858Z</time></trkpt><trkpt lat="37.7821974" lon="13.6480798"><ele>628.0</ele><time>2026-05-01T08:21:16.859Z</time></trkpt><trkpt lat="37.7821645" lon="13.6481719"><ele>628.0</ele><time>2026-05-01T08:21:19.858Z</time></trkpt><trkpt lat="37.7821779" lon="13.6483253"><ele>628.0</ele><time>2026-05-01T08:21:21.858Z</time></trkpt><trkpt lat="37.7821755" lon="13.6484145"><ele>628.0</ele><time>2026-05-01T08:21:22.858Z</time></trkpt><trkpt lat="37.7821695" lon="13.6485445"><ele>628.0</ele><time>2026-05-01T08:21:24.858Z</time></trkpt><trkpt lat="37.7821387" lon="13.6486638"><ele>628.2857142857142</ele><time>2026-05-01T08:21:26.858Z</time></trkpt><trkpt lat="37.7821026" lon="13.6487582"><ele>628.5714285714286</ele><time>2026-05-01T08:21:28.859Z</time></trkpt><trkpt lat="37.7820727" lon="13.6488375"><ele>628.8571428571429</ele><time>2026-05-01T08:21:30.858Z</time></trkpt><trkpt lat="37.7820575" lon="13.6489257"><ele>629.1428571428571</ele><time>2026-05-01T08:21:32.858Z</time></trkpt><trkpt lat="37.7820638" lon="13.6490232"><ele>629.4285714285714</ele><time>2026-05-01T08:21:34.858Z</time></trkpt><trkpt lat="37.7820701" lon="13.6491116"><ele>629.7142857142857</ele><time>2026-05-01T08:21:38.858Z</time></trkpt><trkpt lat="37.7820755" lon="13.6491985"><ele>630.0</ele><time>2026-05-01T08:24:00.859Z</time></trkpt><trkpt lat="37.7820756" lon="13.6491137"><ele>630.0</ele><time>2026-05-01T08:31:37.867Z</time></trkpt><trkpt lat="37.7820907" lon="13.6491915"><ele>630.0</ele><time>2026-05-01T08:39:41.88Z</time></trkpt><trkpt lat="37.7821164" lon="13.6492822"><ele>630.0</ele><time>2026-05-01T08:39:43.881Z</time></trkpt><trkpt lat="37.7821456" lon="13.6493847"><ele>630.0</ele><time>2026-05-01T08:39:45.88Z</time></trkpt><trkpt lat="37.7821641" lon="13.6494781"><ele>630.0</ele><time>2026-05-01T08:39:47.881Z</time></trkpt><trkpt lat="37.782182" lon="13.6495946"><ele>630.0</ele><time>2026-05-01T08:39:50.88Z</time></trkpt><trkpt lat="37.7821943" lon="13.6496873"><ele>628.3333333333334</ele><time>2026-05-01T08:39:52.88Z</time></trkpt><trkpt lat="37.7821952" lon="13.6497955"><ele>626.6666666666666</ele><time>2026-05-01T08:39:54.88Z</time></trkpt><trkpt lat="37.7821853" lon="13.6499131"><ele>625.0</ele><time>2026-05-01T08:39:56.881Z</time></trkpt><trkpt lat="37.7821544" lon="13.6500248"><ele>623.3333333333333</ele><time>2026-05-01T08:39:58.88Z</time></trkpt><trkpt lat="37.7821174" lon="13.6501148"><ele>621.6666666666666</ele><time>2026-05-01T08:40:00.88Z</time></trkpt><trkpt lat="37.7820717" lon="13.6502161"><ele>620.0</ele><time>2026-05-01T08:40:02.88Z</time></trkpt><trkpt lat="37.7820356" lon="13.6502859"><ele>619.0</ele><time>2026-05-01T08:40:03.88Z</time></trkpt><trkpt lat="37.7819881" lon="13.6503591"><ele>618.0</ele><time>2026-05-01T08:40:04.88Z</time></trkpt><trkpt lat="37.7819323" lon="13.650435"><ele>617.0</ele><time>2026-05-01T08:40:05.88Z</time></trkpt><trkpt lat="37.781872" lon="13.650503"><ele>616.0</ele><time>2026-05-01T08:40:06.88Z</time></trkpt><trkpt lat="37.7818138" lon="13.6505751"><ele>615.0</ele><time>2026-05-01T08:40:07.88Z</time></trkpt><trkpt lat="37.7817522" lon="13.650644"><ele>614.0</ele><time>2026-05-01T08:40:08.88Z</time></trkpt><trkpt lat="37.7816883" lon="13.6507085"><ele>614.0</ele><time>2026-05-01T08:40:09.881Z</time></trkpt><trkpt lat="37.781625" lon="13.6507704"><ele>614.0</ele><time>2026-05-01T08:40:10.88Z</time></trkpt><trkpt lat="37.7815553" lon="13.6508299"><ele>614.0</ele><time>2026-05-01T08:40:11.881Z</time></trkpt><trkpt lat="37.7814842" lon="13.6508915"><ele>614.0</ele><time>2026-05-01T08:40:12.88Z</time></trkpt><trkpt lat="37.7814155" lon="13.6509504"><ele>614.0</ele><time>2026-05-01T08:40:13.88Z</time></trkpt><trkpt lat="37.7813417" lon="13.6510028"><ele>614.0</ele><time>2026-05-01T08:40:14.88Z</time></trkpt><trkpt lat="37.7812669" lon="13.6510547"><ele>614.0</ele><time>2026-05-01T08:40:15.881Z</time></trkpt><trkpt lat="37.7811888" lon="13.6511055"><ele>614.0</ele><time>2026-05-01T08:40:16.88Z</time></trkpt><trkpt lat="37.7811093" lon="13.6511527"><ele>614.0</ele><time>2026-05-01T08:40:17.881Z</time></trkpt><trkpt lat="37.7810308" lon="13.6512003"><ele>614.0</ele><time>2026-05-01T08:40:18.881Z</time></trkpt><trkpt lat="37.7809575" lon="13.6512663"><ele>614.0</ele><time>2026-05-01T08:40:19.881Z</time></trkpt><trkpt lat="37.7808921" lon="13.6513353"><ele>614.0</ele><time>2026-05-01T08:40:20.881Z</time></trkpt><trkpt lat="37.78083" lon="13.6514129"><ele>610.6666666666666</ele><time>2026-05-01T08:40:21.88Z</time></trkpt><trkpt lat="37.7807711" lon="13.6514903"><ele>607.3333333333333</ele><time>2026-05-01T08:40:22.881Z</time></trkpt><trkpt lat="37.7807173" lon="13.651565"><ele>604.0</ele><time>2026-05-01T08:40:23.88Z</time></trkpt><trkpt lat="37.7806675" lon="13.651636"><ele>600.6666666666666</ele><time>2026-05-01T08:40:24.88Z</time></trkpt><trkpt lat="37.7806196" lon="13.6517111"><ele>597.3333333333334</ele><time>2026-05-01T08:40:25.881Z</time></trkpt><trkpt lat="37.7805724" lon="13.6517805"><ele>594.0</ele><time>2026-05-01T08:40:26.88Z</time></trkpt><trkpt lat="37.7805233" lon="13.6518582"><ele>594.0</ele><time>2026-05-01T08:40:27.88Z</time></trkpt><trkpt lat="37.7804565" lon="13.6519511"><ele>594.0</ele><time>2026-05-01T08:40:28.88Z</time></trkpt><trkpt lat="37.7803831" lon="13.652062"><ele>594.0</ele><time>2026-05-01T08:40:29.881Z</time></trkpt><trkpt lat="37.7803127" lon="13.6521621"><ele>594.0</ele><time>2026-05-01T08:40:30.88Z</time></trkpt><trkpt lat="37.7802509" lon="13.6522602"><ele>594.0</ele><time>2026-05-01T08:40:31.88Z</time></trkpt><trkpt lat="37.7801997" lon="13.652356"><ele>593.1666666666666</ele><time>2026-05-01T08:40:32.88Z</time></trkpt><trkpt lat="37.7801539" lon="13.6524491"><ele>592.3333333333334</ele><time>2026-05-01T08:40:33.881Z</time></trkpt><trkpt lat="37.78011" lon="13.6525404"><ele>591.5</ele><time>2026-05-01T08:40:34.88Z</time></trkpt><trkpt lat="37.7800679" lon="13.6526315"><ele>590.6666666666667</ele><time>2026-05-01T08:40:35.88Z</time></trkpt><trkpt lat="37.78003" lon="13.6527179"><ele>589.8333333333334</ele><time>2026-05-01T08:40:36.881Z</time></trkpt><trkpt lat="37.7800004" lon="13.6527986"><ele>589.0</ele><time>2026-05-01T08:40:37.88Z</time></trkpt><trkpt lat="37.7799688" lon="13.6528802"><ele>587.6666666666667</ele><time>2026-05-01T08:40:38.88Z</time></trkpt><trkpt lat="37.7799293" lon="13.6529611"><ele>586.3333333333334</ele><time>2026-05-01T08:40:39.881Z</time></trkpt><trkpt lat="37.779886" lon="13.6530489"><ele>585.0</ele><time>2026-05-01T08:40:40.88Z</time></trkpt><trkpt lat="37.7798322" lon="13.6531391"><ele>583.6666666666666</ele><time>2026-05-01T08:40:41.881Z</time></trkpt><trkpt lat="37.7797678" lon="13.6532226"><ele>582.3333333333333</ele><time>2026-05-01T08:40:42.88Z</time></trkpt><trkpt lat="37.7797026" lon="13.6532984"><ele>581.0</ele><time>2026-05-01T08:40:43.88Z</time></trkpt><trkpt lat="37.7796296" lon="13.6533742"><ele>581.0</ele><time>2026-05-01T08:40:44.88Z</time></trkpt><trkpt lat="37.7795586" lon="13.6534545"><ele>581.0</ele><time>2026-05-01T08:40:45.88Z</time></trkpt><trkpt lat="37.7794875" lon="13.653538"><ele>581.0</ele><time>2026-05-01T08:40:46.881Z</time></trkpt><trkpt lat="37.779424" lon="13.6536246"><ele>581.0</ele><time>2026-05-01T08:40:47.88Z</time></trkpt><trkpt lat="37.7793614" lon="13.6537137"><ele>581.0</ele><time>2026-05-01T08:40:48.881Z</time></trkpt><trkpt lat="37.7793065" lon="13.6538064"><ele>579.2</ele><time>2026-05-01T08:40:49.88Z</time></trkpt><trkpt lat="37.779261" lon="13.653895"><ele>577.4000000000001</ele><time>2026-05-01T08:40:50.881Z</time></trkpt><trkpt lat="37.7792229" lon="13.6539872"><ele>575.6</ele><time>2026-05-01T08:40:51.88Z</time></trkpt><trkpt lat="37.7791918" lon="13.6540945"><ele>573.8000000000001</ele><time>2026-05-01T08:40:52.881Z</time></trkpt><trkpt lat="37.7791548" lon="13.6542327"><ele>572.0</ele><time>2026-05-01T08:40:53.881Z</time></trkpt><trkpt lat="37.7791187" lon="13.6543692"><ele>571.3333333333333</ele><time>2026-05-01T08:40:54.88Z</time></trkpt><trkpt lat="37.779094" lon="13.6544806"><ele>570.6666666666666</ele><time>2026-05-01T08:40:55.881Z</time></trkpt><trkpt lat="37.7790612" lon="13.6545853"><ele>570.0</ele><time>2026-05-01T08:40:56.881Z</time></trkpt><trkpt lat="37.7790212" lon="13.6546687"><ele>569.3333333333334</ele><time>2026-05-01T08:40:57.881Z</time></trkpt><trkpt lat="37.7789678" lon="13.6547859"><ele>568.6666666666667</ele><time>2026-05-01T08:40:59.88Z</time></trkpt><trkpt lat="37.7789267" lon="13.6548615"><ele>568.0</ele><time>2026-05-01T08:41:01.881Z</time></trkpt><trkpt lat="37.7788862" lon="13.6549838"><ele>568.0</ele><time>2026-05-01T08:41:03.881Z</time></trkpt><trkpt lat="37.7788461" lon="13.6551135"><ele>568.0</ele><time>2026-05-01T08:41:05.88Z</time></trkpt><trkpt lat="37.7788136" lon="13.6552237"><ele>568.0</ele><time>2026-05-01T08:41:07.88Z</time></trkpt><trkpt lat="37.7787922" lon="13.6552999"><ele>568.0</ele><time>2026-05-01T08:41:08.881Z</time></trkpt><trkpt lat="37.7787689" lon="13.655392"><ele>568.0</ele><time>2026-05-01T08:41:09.88Z</time></trkpt><trkpt lat="37.7787474" lon="13.6554916"><ele>568.0</ele><time>2026-05-01T08:41:10.88Z</time></trkpt><trkpt lat="37.7787291" lon="13.6556015"><ele>567.1666666666667</ele><time>2026-05-01T08:41:11.88Z</time></trkpt><trkpt lat="37.7787133" lon="13.6557117"><ele>566.3333333333334</ele><time>2026-05-01T08:41:12.88Z</time></trkpt><trkpt lat="37.7786955" lon="13.6558059"><ele>565.5</ele><time>2026-05-01T08:41:13.881Z</time></trkpt><trkpt lat="37.7786722" lon="13.655896"><ele>564.6666666666666</ele><time>2026-05-01T08:41:14.88Z</time></trkpt><trkpt lat="37.7786502" lon="13.6559811"><ele>563.8333333333333</ele><time>2026-05-01T08:41:15.881Z</time></trkpt><trkpt lat="37.7786191" lon="13.6560579"><ele>563.0</ele><time>2026-05-01T08:41:16.881Z</time></trkpt><trkpt lat="37.7785615" lon="13.6561778"><ele>564.5</ele><time>2026-05-01T08:41:18.88Z</time></trkpt><trkpt lat="37.7785055" lon="13.6562473"><ele>566.0</ele><time>2026-05-01T08:41:20.881Z</time></trkpt><trkpt lat="37.7784339" lon="13.6562926"><ele>567.5</ele><time>2026-05-01T08:41:22.88Z</time></trkpt><trkpt lat="37.7783626" lon="13.6563062"><ele>569.0</ele><time>2026-05-01T08:41:24.88Z</time></trkpt><trkpt lat="37.7783272" lon="13.6563763"><ele>570.5</ele><time>2026-05-01T08:41:28.88Z</time></trkpt><trkpt lat="37.7783961" lon="13.656413"><ele>572.0</ele><time>2026-05-01T08:41:31.881Z</time></trkpt><trkpt lat="37.7784675" lon="13.6563635"><ele>570.2</ele><time>2026-05-01T08:41:33.881Z</time></trkpt><trkpt lat="37.7785316" lon="13.6562459"><ele>568.4000000000001</ele><time>2026-05-01T08:41:35.88Z</time></trkpt><trkpt lat="37.7785942" lon="13.6561282"><ele>566.5999999999999</ele><time>2026-05-01T08:41:37.88Z</time></trkpt><trkpt lat="37.7786439" lon="13.6560241"><ele>564.8</ele><time>2026-05-01T08:41:39.881Z</time></trkpt><trkpt lat="37.7786755" lon="13.655906"><ele>563.0</ele><time>2026-05-01T08:41:41.88Z</time></trkpt><trkpt lat="37.7787013" lon="13.6557785"><ele>562.8333333333333</ele><time>2026-05-01T08:41:43.88Z</time></trkpt><trkpt lat="37.778723" lon="13.6556562"><ele>562.6666666666666</ele><time>2026-05-01T08:41:45.88Z</time></trkpt><trkpt lat="37.778741" lon="13.6555508"><ele>562.5</ele><time>2026-05-01T08:41:47.88Z</time></trkpt><trkpt lat="37.7787608" lon="13.6554498"><ele>562.3333333333334</ele><time>2026-05-01T08:41:49.88Z</time></trkpt><trkpt lat="37.7787617" lon="13.6553411"><ele>562.1666666666667</ele><time>2026-05-01T08:41:51.88Z</time></trkpt><trkpt lat="37.7787503" lon="13.6552292"><ele>562.0</ele><time>2026-05-01T08:41:53.881Z</time></trkpt><trkpt lat="37.7787189" lon="13.6551311"><ele>562.4</ele><time>2026-05-01T08:41:55.881Z</time></trkpt><trkpt lat="37.7786245" lon="13.6550044"><ele>562.8000000000001</ele><time>2026-05-01T08:41:57.881Z</time></trkpt><trkpt lat="37.7785537" lon="13.6549535"><ele>563.2</ele><time>2026-05-01T08:41:58.88Z</time></trkpt><trkpt lat="37.7784811" lon="13.6548958"><ele>563.6</ele><time>2026-05-01T08:41:59.881Z</time></trkpt><trkpt lat="37.7784117" lon="13.654837"><ele>564.0</ele><time>2026-05-01T08:42:00.881Z</time></trkpt><trkpt lat="37.7783471" lon="13.6547734"><ele>564.0</ele><time>2026-05-01T08:42:01.881Z</time></trkpt><trkpt lat="37.7782856" lon="13.6547021"><ele>564.0</ele><time>2026-05-01T08:42:02.88Z</time></trkpt><trkpt lat="37.7782289" lon="13.654626"><ele>564.0</ele><time>2026-05-01T08:42:03.881Z</time></trkpt><trkpt lat="37.7781759" lon="13.6545436"><ele>564.0</ele><time>2026-05-01T08:42:04.88Z</time></trkpt><trkpt lat="37.7781275" lon="13.6544602"><ele>564.0</ele><time>2026-05-01T08:42:05.881Z</time></trkpt><trkpt lat="37.7780812" lon="13.6543745"><ele>564.0</ele><time>2026-05-01T08:42:06.881Z</time></trkpt><trkpt lat="37.7780369" lon="13.6542932"><ele>563.1666666666666</ele><time>2026-05-01T08:42:07.881Z</time></trkpt><trkpt lat="37.777996" lon="13.6542104"><ele>562.3333333333334</ele><time>2026-05-01T08:42:08.88Z</time></trkpt><trkpt lat="37.7779654" lon="13.6541269"><ele>561.5</ele><time>2026-05-01T08:42:09.88Z</time></trkpt><trkpt lat="37.7779364" lon="13.6540264"><ele>560.6666666666667</ele><time>2026-05-01T08:42:10.881Z</time></trkpt><trkpt lat="37.7779095" lon="13.6539059"><ele>559.8333333333334</ele><time>2026-05-01T08:42:11.881Z</time></trkpt><trkpt lat="37.777888" lon="13.6537721"><ele>559.0</ele><time>2026-05-01T08:42:12.88Z</time></trkpt><trkpt lat="37.7778768" lon="13.6536188"><ele>558.6</ele><time>2026-05-01T08:42:13.88Z</time></trkpt><trkpt lat="37.7778765" lon="13.6534677"><ele>558.2</ele><time>2026-05-01T08:42:14.881Z</time></trkpt><trkpt lat="37.7778834" lon="13.6533401"><ele>557.8000000000001</ele><time>2026-05-01T08:42:15.881Z</time></trkpt><trkpt lat="37.7778917" lon="13.6532207"><ele>557.4</ele><time>2026-05-01T08:42:16.88Z</time></trkpt><trkpt lat="37.7779025" lon="13.6531169"><ele>557.0</ele><time>2026-05-01T08:42:17.88Z</time></trkpt><trkpt lat="37.7779269" lon="13.6530066"><ele>557.0</ele><time>2026-05-01T08:42:18.881Z</time></trkpt><trkpt lat="37.7779692" lon="13.6528921"><ele>557.0</ele><time>2026-05-01T08:42:19.88Z</time></trkpt><trkpt lat="37.7780305" lon="13.6527735"><ele>557.0</ele><time>2026-05-01T08:42:20.881Z</time></trkpt><trkpt lat="37.7781003" lon="13.6526607"><ele>557.0</ele><time>2026-05-01T08:42:21.88Z</time></trkpt><trkpt lat="37.7781623" lon="13.6525589"><ele>557.0</ele><time>2026-05-01T08:42:22.881Z</time></trkpt><trkpt lat="37.7782049" lon="13.6524679"><ele>555.75</ele><time>2026-05-01T08:42:23.881Z</time></trkpt><trkpt lat="37.778246" lon="13.6523542"><ele>554.5</ele><time>2026-05-01T08:42:24.881Z</time></trkpt><trkpt lat="37.7782973" lon="13.6522104"><ele>553.25</ele><time>2026-05-01T08:42:25.88Z</time></trkpt><trkpt lat="37.7783551" lon="13.6520621"><ele>552.0</ele><time>2026-05-01T08:42:26.881Z</time></trkpt><trkpt lat="37.7784079" lon="13.6519093"><ele>551.5</ele><time>2026-05-01T08:42:27.88Z</time></trkpt><trkpt lat="37.7784648" lon="13.6517397"><ele>551.0</ele><time>2026-05-01T08:42:28.88Z</time></trkpt><trkpt lat="37.7785227" lon="13.6515679"><ele>550.5</ele><time>2026-05-01T08:42:29.88Z</time></trkpt><trkpt lat="37.7785771" lon="13.6514086"><ele>550.0</ele><time>2026-05-01T08:42:30.88Z</time></trkpt><trkpt lat="37.7786148" lon="13.6512705"><ele>553.75</ele><time>2026-05-01T08:42:31.88Z</time></trkpt><trkpt lat="37.7786373" lon="13.6511352"><ele>557.5</ele><time>2026-05-01T08:42:32.881Z</time></trkpt><trkpt lat="37.7786491" lon="13.6509909"><ele>561.25</ele><time>2026-05-01T08:42:33.88Z</time></trkpt><trkpt lat="37.7786453" lon="13.6508483"><ele>565.0</ele><time>2026-05-01T08:42:34.881Z</time></trkpt><trkpt lat="37.7786213" lon="13.6506896"><ele>565.0</ele><time>2026-05-01T08:42:35.88Z</time></trkpt><trkpt lat="37.7785847" lon="13.6505184"><ele>565.0</ele><time>2026-05-01T08:42:36.881Z</time></trkpt><trkpt lat="37.7785379" lon="13.6503807"><ele>565.0</ele><time>2026-05-01T08:42:37.881Z</time></trkpt><trkpt lat="37.7784864" lon="13.650266"><ele>565.0</ele><time>2026-05-01T08:42:38.88Z</time></trkpt><trkpt lat="37.778411" lon="13.6501358"><ele>562.5</ele><time>2026-05-01T08:42:39.88Z</time></trkpt><trkpt lat="37.7783301" lon="13.6499924"><ele>560.0</ele><time>2026-05-01T08:42:40.88Z</time></trkpt><trkpt lat="37.7782463" lon="13.6498539"><ele>557.5</ele><time>2026-05-01T08:42:41.881Z</time></trkpt><trkpt lat="37.7781833" lon="13.6497323"><ele>555.0</ele><time>2026-05-01T08:42:42.88Z</time></trkpt><trkpt lat="37.7781252" lon="13.6496267"><ele>555.0</ele><time>2026-05-01T08:42:43.881Z</time></trkpt><trkpt lat="37.7780778" lon="13.6495272"><ele>555.0</ele><time>2026-05-01T08:42:44.88Z</time></trkpt><trkpt lat="37.7780319" lon="13.6494293"><ele>555.0</ele><time>2026-05-01T08:42:45.881Z</time></trkpt><trkpt lat="37.7779908" lon="13.6493154"><ele>555.0</ele><time>2026-05-01T08:42:46.88Z</time></trkpt><trkpt lat="37.7779433" lon="13.6491862"><ele>555.0</ele><time>2026-05-01T08:42:47.88Z</time></trkpt><trkpt lat="37.7778969" lon="13.6490635"><ele>555.0</ele><time>2026-05-01T08:42:48.88Z</time></trkpt><trkpt lat="37.7778602" lon="13.6489525"><ele>555.0</ele><time>2026-05-01T08:42:49.88Z</time></trkpt><trkpt lat="37.7778299" lon="13.6488508"><ele>555.0</ele><time>2026-05-01T08:42:50.88Z</time></trkpt><trkpt lat="37.7777991" lon="13.6487542"><ele>555.0</ele><time>2026-05-01T08:42:51.88Z</time></trkpt><trkpt lat="37.7777732" lon="13.6486708"><ele>555.0</ele><time>2026-05-01T08:42:52.88Z</time></trkpt><trkpt lat="37.7777424" lon="13.648599"><ele>555.0</ele><time>2026-05-01T08:42:53.88Z</time></trkpt><trkpt lat="37.7777018" lon="13.6485103"><ele>553.2</ele><time>2026-05-01T08:42:54.88Z</time></trkpt><trkpt lat="37.7776592" lon="13.6484162"><ele>551.4</ele><time>2026-05-01T08:42:55.881Z</time></trkpt><trkpt lat="37.7776159" lon="13.6483103"><ele>549.6</ele><time>2026-05-01T08:42:56.88Z</time></trkpt><trkpt lat="37.7775668" lon="13.6481963"><ele>547.8</ele><time>2026-05-01T08:42:57.88Z</time></trkpt><trkpt lat="37.7775237" lon="13.6480852"><ele>546.0</ele><time>2026-05-01T08:42:58.88Z</time></trkpt><trkpt lat="37.7774987" lon="13.6479948"><ele>546.0</ele><time>2026-05-01T08:42:59.881Z</time></trkpt><trkpt lat="37.7774567" lon="13.6478509"><ele>546.0</ele><time>2026-05-01T08:43:01.881Z</time></trkpt><trkpt lat="37.7774343" lon="13.6477547"><ele>546.0</ele><time>2026-05-01T08:43:02.88Z</time></trkpt><trkpt lat="37.7774282" lon="13.6476204"><ele>546.0</ele><time>2026-05-01T08:43:04.881Z</time></trkpt><trkpt lat="37.7774339" lon="13.6475303"><ele>546.0</ele><time>2026-05-01T08:43:07.88Z</time></trkpt><trkpt lat="37.7774681" lon="13.6474077"><ele>546.2</ele><time>2026-05-01T08:43:10.88Z</time></trkpt><trkpt lat="37.7775497" lon="13.6472723"><ele>546.4000000000001</ele><time>2026-05-01T08:43:12.881Z</time></trkpt><trkpt lat="37.7776054" lon="13.647193"><ele>546.6</ele><time>2026-05-01T08:43:13.88Z</time></trkpt><trkpt lat="37.7776706" lon="13.6471229"><ele>546.8000000000001</ele><time>2026-05-01T08:43:14.88Z</time></trkpt><trkpt lat="37.7777413" lon="13.6470447"><ele>547.0</ele><time>2026-05-01T08:43:15.881Z</time></trkpt><trkpt lat="37.7778187" lon="13.6469606"><ele>546.0</ele><time>2026-05-01T08:43:16.88Z</time></trkpt><trkpt lat="37.7778998" lon="13.6468779"><ele>545.0</ele><time>2026-05-01T08:43:17.881Z</time></trkpt><trkpt lat="37.7779936" lon="13.6468122"><ele>544.0</ele><time>2026-05-01T08:43:18.88Z</time></trkpt><trkpt lat="37.778089" lon="13.6467536"><ele>543.0</ele><time>2026-05-01T08:43:19.88Z</time></trkpt><trkpt lat="37.7781743" lon="13.6467092"><ele>542.0</ele><time>2026-05-01T08:43:20.88Z</time></trkpt><trkpt lat="37.7782417" lon="13.646673"><ele>542.0</ele><time>2026-05-01T08:43:21.88Z</time></trkpt><trkpt lat="37.7783109" lon="13.6466209"><ele>542.0</ele><time>2026-05-01T08:43:22.88Z</time></trkpt><trkpt lat="37.7783846" lon="13.6465562"><ele>542.0</ele><time>2026-05-01T08:43:23.881Z</time></trkpt><trkpt lat="37.7784635" lon="13.6464855"><ele>542.0</ele><time>2026-05-01T08:43:24.881Z</time></trkpt><trkpt lat="37.7785448" lon="13.6464197"><ele>542.0</ele><time>2026-05-01T08:43:25.88Z</time></trkpt><trkpt lat="37.7786103" lon="13.6463579"><ele>542.0</ele><time>2026-05-01T08:43:26.88Z</time></trkpt><trkpt lat="37.7786617" lon="13.6463052"><ele>541.5</ele><time>2026-05-01T08:43:27.88Z</time></trkpt><trkpt lat="37.7787109" lon="13.6462438"><ele>541.0</ele><time>2026-05-01T08:43:28.88Z</time></trkpt><trkpt lat="37.7787587" lon="13.6461509"><ele>540.5</ele><time>2026-05-01T08:43:29.881Z</time></trkpt><trkpt lat="37.778802" lon="13.6460565"><ele>540.0</ele><time>2026-05-01T08:43:30.88Z</time></trkpt><trkpt lat="37.7788517" lon="13.645981"><ele>539.5</ele><time>2026-05-01T08:43:31.88Z</time></trkpt><trkpt lat="37.7788988" lon="13.6459126"><ele>539.0</ele><time>2026-05-01T08:43:32.88Z</time></trkpt><trkpt lat="37.7789488" lon="13.6458446"><ele>539.0</ele><time>2026-05-01T08:43:33.881Z</time></trkpt><trkpt lat="37.779012" lon="13.6457833"><ele>539.0</ele><time>2026-05-01T08:43:34.881Z</time></trkpt><trkpt lat="37.779079" lon="13.6457253"><ele>539.0</ele><time>2026-05-01T08:43:35.881Z</time></trkpt><trkpt lat="37.7791497" lon="13.6456607"><ele>539.0</ele><time>2026-05-01T08:43:36.88Z</time></trkpt><trkpt lat="37.779219" lon="13.645601"><ele>539.0</ele><time>2026-05-01T08:43:37.881Z</time></trkpt><trkpt lat="37.7792819" lon="13.6455425"><ele>539.0</ele><time>2026-05-01T08:43:38.88Z</time></trkpt><trkpt lat="37.7793388" lon="13.6454887"><ele>538.3333333333333</ele><time>2026-05-01T08:43:39.881Z</time></trkpt><trkpt lat="37.7793925" lon="13.6454302"><ele>537.6666666666666</ele><time>2026-05-01T08:43:40.88Z</time></trkpt><trkpt lat="37.7794508" lon="13.6453653"><ele>537.0</ele><time>2026-05-01T08:43:41.88Z</time></trkpt><trkpt lat="37.7795194" lon="13.6452893"><ele>536.3333333333334</ele><time>2026-05-01T08:43:42.881Z</time></trkpt><trkpt lat="37.7795902" lon="13.6452155"><ele>535.6666666666667</ele><time>2026-05-01T08:43:43.88Z</time></trkpt><trkpt lat="37.7796554" lon="13.6451426"><ele>535.0</ele><time>2026-05-01T08:43:44.881Z</time></trkpt><trkpt lat="37.7797142" lon="13.6450756"><ele>535.0</ele><time>2026-05-01T08:43:45.88Z</time></trkpt><trkpt lat="37.779769" lon="13.6450071"><ele>535.0</ele><time>2026-05-01T08:43:46.88Z</time></trkpt><trkpt lat="37.779818" lon="13.6449416"><ele>535.0</ele><time>2026-05-01T08:43:47.88Z</time></trkpt><trkpt lat="37.7798706" lon="13.644873"><ele>535.0</ele><time>2026-05-01T08:43:48.88Z</time></trkpt><trkpt lat="37.7799298" lon="13.6447879"><ele>535.0</ele><time>2026-05-01T08:43:49.881Z</time></trkpt><trkpt lat="37.7799885" lon="13.644681"><ele>535.0</ele><time>2026-05-01T08:43:50.88Z</time></trkpt><trkpt lat="37.7800447" lon="13.6445696"><ele>534.0</ele><time>2026-05-01T08:43:51.88Z</time></trkpt><trkpt lat="37.7800975" lon="13.6444588"><ele>533.0</ele><time>2026-05-01T08:43:52.88Z</time></trkpt><trkpt lat="37.7801488" lon="13.6443545"><ele>532.0</ele><time>2026-05-01T08:43:53.88Z</time></trkpt><trkpt lat="37.780201" lon="13.6442512"><ele>531.0</ele><time>2026-05-01T08:43:54.881Z</time></trkpt><trkpt lat="37.7802513" lon="13.6441533"><ele>530.0</ele><time>2026-05-01T08:43:55.881Z</time></trkpt><trkpt lat="37.7803017" lon="13.6440575"><ele>530.0</ele><time>2026-05-01T08:43:56.881Z</time></trkpt><trkpt lat="37.7803594" lon="13.6439592"><ele>530.0</ele><time>2026-05-01T08:43:57.88Z</time></trkpt><trkpt lat="37.7804176" lon="13.6438715"><ele>530.0</ele><time>2026-05-01T08:43:58.881Z</time></trkpt><trkpt lat="37.7804711" lon="13.6437943"><ele>530.0</ele><time>2026-05-01T08:43:59.88Z</time></trkpt><trkpt lat="37.7805243" lon="13.643723"><ele>530.0</ele><time>2026-05-01T08:44:00.88Z</time></trkpt><trkpt lat="37.7805835" lon="13.6436562"><ele>530.0</ele><time>2026-05-01T08:44:01.88Z</time></trkpt><trkpt lat="37.7806492" lon="13.6435957"><ele>528.3333333333333</ele><time>2026-05-01T08:44:02.88Z</time></trkpt><trkpt lat="37.7807106" lon="13.6435289"><ele>526.6666666666666</ele><time>2026-05-01T08:44:03.881Z</time></trkpt><trkpt lat="37.7807672" lon="13.6434639"><ele>525.0</ele><time>2026-05-01T08:44:04.88Z</time></trkpt><trkpt lat="37.7808246" lon="13.6433986"><ele>523.3333333333334</ele><time>2026-05-01T08:44:05.881Z</time></trkpt><trkpt lat="37.7808924" lon="13.6433253"><ele>521.6666666666667</ele><time>2026-05-01T08:44:06.88Z</time></trkpt><trkpt lat="37.7809614" lon="13.643244"><ele>520.0</ele><time>2026-05-01T08:44:07.88Z</time></trkpt><trkpt lat="37.7810249" lon="13.6431588"><ele>519.8</ele><time>2026-05-01T08:44:08.88Z</time></trkpt><trkpt lat="37.7810786" lon="13.6430857"><ele>519.6</ele><time>2026-05-01T08:44:09.88Z</time></trkpt><trkpt lat="37.7811281" lon="13.6430262"><ele>519.4</ele><time>2026-05-01T08:44:10.88Z</time></trkpt><trkpt lat="37.7812073" lon="13.6429329"><ele>519.2</ele><time>2026-05-01T08:44:12.881Z</time></trkpt><trkpt lat="37.7813157" lon="13.6428196"><ele>519.0</ele><time>2026-05-01T08:44:14.88Z</time></trkpt><trkpt lat="37.7813886" lon="13.6427586"><ele>517.1666666666666</ele><time>2026-05-01T08:44:15.88Z</time></trkpt><trkpt lat="37.781466" lon="13.6426937"><ele>515.3333333333334</ele><time>2026-05-01T08:44:16.88Z</time></trkpt><trkpt lat="37.7815481" lon="13.6426349"><ele>513.5</ele><time>2026-05-01T08:44:17.881Z</time></trkpt><trkpt lat="37.781632" lon="13.6425791"><ele>511.6666666666667</ele><time>2026-05-01T08:44:18.881Z</time></trkpt><trkpt lat="37.7817136" lon="13.6425382"><ele>509.83333333333337</ele><time>2026-05-01T08:44:19.88Z</time></trkpt><trkpt lat="37.7817882" lon="13.6425076"><ele>508.0</ele><time>2026-05-01T08:44:20.881Z</time></trkpt><trkpt lat="37.7818604" lon="13.6424755"><ele>507.50000000000006</ele><time>2026-05-01T08:44:21.88Z</time></trkpt><trkpt lat="37.7819351" lon="13.6424417"><ele>507.0</ele><time>2026-05-01T08:44:22.881Z</time></trkpt><trkpt lat="37.7820155" lon="13.6424027"><ele>506.5</ele><time>2026-05-01T08:44:23.88Z</time></trkpt><trkpt lat="37.7821044" lon="13.642362"><ele>506.0</ele><time>2026-05-01T08:44:24.881Z</time></trkpt><trkpt lat="37.7821939" lon="13.642327"><ele>505.50000000000006</ele><time>2026-05-01T08:44:25.881Z</time></trkpt><trkpt lat="37.7822768" lon="13.6422988"><ele>505.0</ele><time>2026-05-01T08:44:26.88Z</time></trkpt><trkpt lat="37.782367" lon="13.6422798"><ele>505.0</ele><time>2026-05-01T08:44:27.88Z</time></trkpt><trkpt lat="37.782464" lon="13.6422681"><ele>505.0</ele><time>2026-05-01T08:44:28.881Z</time></trkpt><trkpt lat="37.7825562" lon="13.6422589"><ele>505.0</ele><time>2026-05-01T08:44:29.881Z</time></trkpt><trkpt lat="37.7826435" lon="13.6422498"><ele>505.0</ele><time>2026-05-01T08:44:30.88Z</time></trkpt><trkpt lat="37.7827316" lon="13.6422391"><ele>505.0</ele><time>2026-05-01T08:44:31.88Z</time></trkpt><trkpt lat="37.7828156" lon="13.6422333"><ele>505.00000000000006</ele><time>2026-05-01T08:44:32.881Z</time></trkpt><trkpt lat="37.782905" lon="13.642223"><ele>505.0</ele><time>2026-05-01T08:44:33.881Z</time></trkpt><trkpt lat="37.7829879" lon="13.6422021"><ele>505.0</ele><time>2026-05-01T08:44:34.88Z</time></trkpt><trkpt lat="37.7830648" lon="13.6421696"><ele>505.0</ele><time>2026-05-01T08:44:35.88Z</time></trkpt><trkpt lat="37.7831338" lon="13.6421344"><ele>505.00000000000006</ele><time>2026-05-01T08:44:36.88Z</time></trkpt><trkpt lat="37.7831931" lon="13.6420945"><ele>505.0</ele><time>2026-05-01T08:44:37.88Z</time></trkpt><trkpt lat="37.7833096" lon="13.6420528"><ele>505.00000000000006</ele><time>2026-05-01T08:44:39.881Z</time></trkpt><trkpt lat="37.7834357" lon="13.6420513"><ele>505.0</ele><time>2026-05-01T08:44:41.88Z</time></trkpt><trkpt lat="37.783509" lon="13.6420645"><ele>505.0</ele><time>2026-05-01T08:44:42.88Z</time></trkpt><trkpt lat="37.7835891" lon="13.6420786"><ele>505.0</ele><time>2026-05-01T08:44:43.881Z</time></trkpt><trkpt lat="37.7836673" lon="13.6420875"><ele>505.00000000000006</ele><time>2026-05-01T08:44:44.88Z</time></trkpt><trkpt lat="37.7837466" lon="13.6420826"><ele>505.0</ele><time>2026-05-01T08:44:45.88Z</time></trkpt><trkpt lat="37.7838237" lon="13.6420751"><ele>504.33333333333337</ele><time>2026-05-01T08:44:46.88Z</time></trkpt><trkpt lat="37.7838989" lon="13.6420687"><ele>503.6666666666667</ele><time>2026-05-01T08:44:47.88Z</time></trkpt><trkpt lat="37.7839721" lon="13.6420665"><ele>503.0</ele><time>2026-05-01T08:44:48.881Z</time></trkpt><trkpt lat="37.7840431" lon="13.6420655"><ele>502.33333333333337</ele><time>2026-05-01T08:44:49.881Z</time></trkpt><trkpt lat="37.7841149" lon="13.6420523"><ele>501.6666666666667</ele><time>2026-05-01T08:44:50.881Z</time></trkpt><trkpt lat="37.7841957" lon="13.6420228"><ele>501.0</ele><time>2026-05-01T08:44:51.88Z</time></trkpt><trkpt lat="37.784287" lon="13.6419675"><ele>496.8</ele><time>2026-05-01T08:44:52.88Z</time></trkpt><trkpt lat="37.7843913" lon="13.6419109"><ele>492.6</ele><time>2026-05-01T08:44:53.88Z</time></trkpt><trkpt lat="37.7844897" lon="13.6418592"><ele>488.4</ele><time>2026-05-01T08:44:54.88Z</time></trkpt><trkpt lat="37.7845824" lon="13.6418119"><ele>484.2</ele><time>2026-05-01T08:44:55.88Z</time></trkpt><trkpt lat="37.7846666" lon="13.6417639"><ele>480.0</ele><time>2026-05-01T08:44:56.88Z</time></trkpt><trkpt lat="37.7847467" lon="13.6417269"><ele>480.0</ele><time>2026-05-01T08:44:57.88Z</time></trkpt><trkpt lat="37.78482" lon="13.6417067"><ele>480.0</ele><time>2026-05-01T08:44:58.881Z</time></trkpt><trkpt lat="37.7848907" lon="13.6416934"><ele>480.0</ele><time>2026-05-01T08:44:59.881Z</time></trkpt><trkpt lat="37.784965" lon="13.6416916"><ele>480.0</ele><time>2026-05-01T08:45:00.88Z</time></trkpt><trkpt lat="37.7850393" lon="13.641706"><ele>480.0</ele><time>2026-05-01T08:45:01.88Z</time></trkpt><trkpt lat="37.7851189" lon="13.6417412"><ele>480.0</ele><time>2026-05-01T08:45:02.88Z</time></trkpt><trkpt lat="37.7852062" lon="13.6418075"><ele>479.5</ele><time>2026-05-01T08:45:03.881Z</time></trkpt><trkpt lat="37.7853146" lon="13.6419084"><ele>479.0</ele><time>2026-05-01T08:45:04.881Z</time></trkpt><trkpt lat="37.7854248" lon="13.642014"><ele>478.5</ele><time>2026-05-01T08:45:05.88Z</time></trkpt><trkpt lat="37.7855293" lon="13.6420997"><ele>478.0</ele><time>2026-05-01T08:45:06.88Z</time></trkpt><trkpt lat="37.7856337" lon="13.64217"><ele>478.00000000000006</ele><time>2026-05-01T08:45:07.88Z</time></trkpt><trkpt lat="37.7857231" lon="13.6422189"><ele>478.0</ele><time>2026-05-01T08:45:08.88Z</time></trkpt><trkpt lat="37.7857879" lon="13.6422657"><ele>478.0</ele><time>2026-05-01T08:45:09.881Z</time></trkpt><trkpt lat="37.7858437" lon="13.6423149"><ele>478.0</ele><time>2026-05-01T08:45:10.88Z</time></trkpt><trkpt lat="37.7859069" lon="13.6423874"><ele>478.00000000000006</ele><time>2026-05-01T08:45:11.88Z</time></trkpt><trkpt lat="37.7859743" lon="13.6424853"><ele>478.0</ele><time>2026-05-01T08:45:12.88Z</time></trkpt><trkpt lat="37.7860388" lon="13.6425812"><ele>476.79999999999995</ele><time>2026-05-01T08:45:13.88Z</time></trkpt><trkpt lat="37.7861028" lon="13.6426597"><ele>475.59999999999997</ele><time>2026-05-01T08:45:14.881Z</time></trkpt><trkpt lat="37.7861793" lon="13.6427237"><ele>474.40000000000003</ele><time>2026-05-01T08:45:15.881Z</time></trkpt><trkpt lat="37.7862807" lon="13.6427727"><ele>473.20000000000005</ele><time>2026-05-01T08:45:16.881Z</time></trkpt><trkpt lat="37.7863946" lon="13.6428073"><ele>472.0</ele><time>2026-05-01T08:45:17.88Z</time></trkpt><trkpt lat="37.7864897" lon="13.6428437"><ele>472.0</ele><time>2026-05-01T08:45:18.88Z</time></trkpt><trkpt lat="37.7865677" lon="13.6428831"><ele>472.00000000000006</ele><time>2026-05-01T08:45:19.881Z</time></trkpt><trkpt lat="37.7866529" lon="13.6429439"><ele>472.00000000000006</ele><time>2026-05-01T08:45:20.88Z</time></trkpt><trkpt lat="37.7867426" lon="13.6430072"><ele>472.0</ele><time>2026-05-01T08:45:21.881Z</time></trkpt><trkpt lat="37.786826" lon="13.643055"><ele>472.0</ele><time>2026-05-01T08:45:22.88Z</time></trkpt><trkpt lat="37.7868927" lon="13.6430947"><ele>469.6666666666667</ele><time>2026-05-01T08:45:23.88Z</time></trkpt><trkpt lat="37.7869492" lon="13.6431308"><ele>467.33333333333337</ele><time>2026-05-01T08:45:24.881Z</time></trkpt><trkpt lat="37.7870572" lon="13.6432184"><ele>465.0</ele><time>2026-05-01T08:45:26.88Z</time></trkpt><trkpt lat="37.7871121" lon="13.6432642"><ele>462.66666666666663</ele><time>2026-05-01T08:45:27.88Z</time></trkpt><trkpt lat="37.7871736" lon="13.6432981"><ele>460.3333333333333</ele><time>2026-05-01T08:45:28.88Z</time></trkpt><trkpt lat="37.787237" lon="13.6433329"><ele>458.0</ele><time>2026-05-01T08:45:29.888Z</time></trkpt><trkpt lat="37.7873071" lon="13.6433484"><ele>458.0</ele><time>2026-05-01T08:45:30.888Z</time></trkpt><trkpt lat="37.7873859" lon="13.6433468"><ele>458.0</ele><time>2026-05-01T08:45:31.887Z</time></trkpt><trkpt lat="37.7874642" lon="13.643323"><ele>458.0</ele><time>2026-05-01T08:45:32.887Z</time></trkpt><trkpt lat="37.7875307" lon="13.6433017"><ele>458.0</ele><time>2026-05-01T08:45:33.887Z</time></trkpt><trkpt lat="37.7876001" lon="13.6432779"><ele>458.0</ele><time>2026-05-01T08:45:34.887Z</time></trkpt><trkpt lat="37.7876641" lon="13.643263"><ele>458.0</ele><time>2026-05-01T08:45:35.887Z</time></trkpt><trkpt lat="37.7877267" lon="13.6432505"><ele>458.0</ele><time>2026-05-01T08:45:36.887Z</time></trkpt><trkpt lat="37.7877912" lon="13.6432423"><ele>456.4285714285714</ele><time>2026-05-01T08:45:37.888Z</time></trkpt><trkpt lat="37.7878576" lon="13.6432384"><ele>454.8571428571429</ele><time>2026-05-01T08:45:38.887Z</time></trkpt><trkpt lat="37.787928" lon="13.6432297"><ele>453.2857142857143</ele><time>2026-05-01T08:45:39.887Z</time></trkpt><trkpt lat="37.7880024" lon="13.6432177"><ele>451.71428571428567</ele><time>2026-05-01T08:45:40.887Z</time></trkpt><trkpt lat="37.7880743" lon="13.6432043"><ele>450.1428571428571</ele><time>2026-05-01T08:45:41.887Z</time></trkpt><trkpt lat="37.7881465" lon="13.6431846"><ele>448.57142857142856</ele><time>2026-05-01T08:45:42.888Z</time></trkpt><trkpt lat="37.7882183" lon="13.6431608"><ele>447.0</ele><time>2026-05-01T08:45:43.888Z</time></trkpt><trkpt lat="37.7882949" lon="13.6431221"><ele>447.0</ele><time>2026-05-01T08:45:44.887Z</time></trkpt><trkpt lat="37.7883755" lon="13.6430712"><ele>447.0</ele><time>2026-05-01T08:45:45.887Z</time></trkpt><trkpt lat="37.7884587" lon="13.6430232"><ele>447.0</ele><time>2026-05-01T08:45:46.887Z</time></trkpt><trkpt lat="37.7885403" lon="13.6429744"><ele>447.0</ele><time>2026-05-01T08:45:47.887Z</time></trkpt><trkpt lat="37.7886149" lon="13.6429178"><ele>447.0</ele><time>2026-05-01T08:45:48.887Z</time></trkpt><trkpt lat="37.7886841" lon="13.6428547"><ele>447.0</ele><time>2026-05-01T08:45:49.887Z</time></trkpt><trkpt lat="37.7887506" lon="13.642779"><ele>444.40000000000003</ele><time>2026-05-01T08:45:50.888Z</time></trkpt><trkpt lat="37.7888166" lon="13.6427048"><ele>441.80000000000007</ele><time>2026-05-01T08:45:51.888Z</time></trkpt><trkpt lat="37.7888848" lon="13.6426288"><ele>439.2</ele><time>2026-05-01T08:45:52.888Z</time></trkpt><trkpt lat="37.7889573" lon="13.6425636"><ele>436.6</ele><time>2026-05-01T08:45:53.888Z</time></trkpt><trkpt lat="37.7890306" lon="13.6424951"><ele>434.0</ele><time>2026-05-01T08:45:54.888Z</time></trkpt><trkpt lat="37.7891071" lon="13.6424297"><ele>434.0</ele><time>2026-05-01T08:45:55.888Z</time></trkpt><trkpt lat="37.7891859" lon="13.6423703"><ele>434.0</ele><time>2026-05-01T08:45:56.888Z</time></trkpt><trkpt lat="37.7892655" lon="13.6423066"><ele>434.0</ele><time>2026-05-01T08:45:57.887Z</time></trkpt><trkpt lat="37.7893482" lon="13.6422328"><ele>434.0</ele><time>2026-05-01T08:45:58.888Z</time></trkpt><trkpt lat="37.7894286" lon="13.6421467"><ele>434.0</ele><time>2026-05-01T08:45:59.887Z</time></trkpt><trkpt lat="37.7895045" lon="13.6420558"><ele>433.4</ele><time>2026-05-01T08:46:00.887Z</time></trkpt><trkpt lat="37.7895767" lon="13.6419699"><ele>432.79999999999995</ele><time>2026-05-01T08:46:01.888Z</time></trkpt><trkpt lat="37.7896454" lon="13.6418932"><ele>432.20000000000005</ele><time>2026-05-01T08:46:02.887Z</time></trkpt><trkpt lat="37.7897108" lon="13.6418233"><ele>431.6</ele><time>2026-05-01T08:46:03.888Z</time></trkpt><trkpt lat="37.7897843" lon="13.6417652"><ele>431.0</ele><time>2026-05-01T08:46:04.888Z</time></trkpt><trkpt lat="37.7898663" lon="13.6417121"><ele>428.6</ele><time>2026-05-01T08:46:05.887Z</time></trkpt><trkpt lat="37.7899521" lon="13.6416741"><ele>426.20000000000005</ele><time>2026-05-01T08:46:06.887Z</time></trkpt><trkpt lat="37.7900479" lon="13.6416463"><ele>423.79999999999995</ele><time>2026-05-01T08:46:07.887Z</time></trkpt><trkpt lat="37.7901655" lon="13.6416265"><ele>421.4</ele><time>2026-05-01T08:46:08.888Z</time></trkpt><trkpt lat="37.7902898" lon="13.6416142"><ele>419.0</ele><time>2026-05-01T08:46:09.887Z</time></trkpt><trkpt lat="37.79041" lon="13.6416013"><ele>416.6</ele><time>2026-05-01T08:46:10.887Z</time></trkpt><trkpt lat="37.790521" lon="13.6415949"><ele>414.2</ele><time>2026-05-01T08:46:11.887Z</time></trkpt><trkpt lat="37.7906264" lon="13.641591"><ele>411.8</ele><time>2026-05-01T08:46:12.887Z</time></trkpt><trkpt lat="37.790739" lon="13.6415923"><ele>409.40000000000003</ele><time>2026-05-01T08:46:13.888Z</time></trkpt><trkpt lat="37.790856" lon="13.641592"><ele>407.0</ele><time>2026-05-01T08:46:14.887Z</time></trkpt><trkpt lat="37.7909833" lon="13.6415881"><ele>405.75</ele><time>2026-05-01T08:46:15.888Z</time></trkpt><trkpt lat="37.7911156" lon="13.6415857"><ele>404.5</ele><time>2026-05-01T08:46:16.887Z</time></trkpt><trkpt lat="37.791259" lon="13.6415816"><ele>403.25</ele><time>2026-05-01T08:46:17.887Z</time></trkpt><trkpt lat="37.791412" lon="13.6415832"><ele>402.0</ele><time>2026-05-01T08:46:18.887Z</time></trkpt><trkpt lat="37.791559" lon="13.641582"><ele>402.0</ele><time>2026-05-01T08:46:19.888Z</time></trkpt><trkpt lat="37.7916983" lon="13.6415876"><ele>402.0</ele><time>2026-05-01T08:46:20.888Z</time></trkpt><trkpt lat="37.7918211" lon="13.6415915"><ele>402.0</ele><time>2026-05-01T08:46:21.888Z</time></trkpt><trkpt lat="37.7919327" lon="13.6416032"><ele>402.0</ele><time>2026-05-01T08:46:22.887Z</time></trkpt><trkpt lat="37.792043" lon="13.6416182"><ele>403.25</ele><time>2026-05-01T08:46:23.887Z</time></trkpt><trkpt lat="37.7921566" lon="13.6416358"><ele>404.5</ele><time>2026-05-01T08:46:24.887Z</time></trkpt><trkpt lat="37.7922699" lon="13.6416602"><ele>405.75</ele><time>2026-05-01T08:46:25.887Z</time></trkpt><trkpt lat="37.7923818" lon="13.6416888"><ele>407.0</ele><time>2026-05-01T08:46:26.888Z</time></trkpt><trkpt lat="37.7924929" lon="13.6417175"><ele>407.0</ele><time>2026-05-01T08:46:27.887Z</time></trkpt><trkpt lat="37.7926064" lon="13.6417409"><ele>407.0</ele><time>2026-05-01T08:46:28.887Z</time></trkpt><trkpt lat="37.7927233" lon="13.6417689"><ele>407.0</ele><time>2026-05-01T08:46:29.887Z</time></trkpt><trkpt lat="37.792853" lon="13.641794"><ele>407.0</ele><time>2026-05-01T08:46:30.887Z</time></trkpt><trkpt lat="37.7930158" lon="13.6418069"><ele>410.0</ele><time>2026-05-01T08:46:31.887Z</time></trkpt><trkpt lat="37.7931762" lon="13.6418093"><ele>413.0</ele><time>2026-05-01T08:46:32.888Z</time></trkpt><trkpt lat="37.7933259" lon="13.6417829"><ele>416.0</ele><time>2026-05-01T08:46:33.887Z</time></trkpt><trkpt lat="37.7934899" lon="13.641724"><ele>418.66666666666663</ele><time>2026-05-01T08:46:34.887Z</time></trkpt><trkpt lat="37.7936502" lon="13.6416649"><ele>421.33333333333337</ele><time>2026-05-01T08:46:35.887Z</time></trkpt><trkpt lat="37.7937975" lon="13.6416274"><ele>424.0</ele><time>2026-05-01T08:46:36.888Z</time></trkpt><trkpt lat="37.7939547" lon="13.6415985"><ele>424.0</ele><time>2026-05-01T08:46:37.888Z</time></trkpt><trkpt lat="37.7941289" lon="13.6415952"><ele>424.0</ele><time>2026-05-01T08:46:38.887Z</time></trkpt><trkpt lat="37.7943156" lon="13.6415856"><ele>424.0</ele><time>2026-05-01T08:46:39.887Z</time></trkpt><trkpt lat="37.7945064" lon="13.6415786"><ele>427.6666666666667</ele><time>2026-05-01T08:46:40.887Z</time></trkpt><trkpt lat="37.7947026" lon="13.6415681"><ele>431.33333333333337</ele><time>2026-05-01T08:46:41.888Z</time></trkpt><trkpt lat="37.7948921" lon="13.6415577"><ele>435.0</ele><time>2026-05-01T08:46:42.887Z</time></trkpt><trkpt lat="37.7950611" lon="13.6415493"><ele>437.0</ele><time>2026-05-01T08:46:43.888Z</time></trkpt><trkpt lat="37.7952133" lon="13.6415471"><ele>439.0</ele><time>2026-05-01T08:46:44.887Z</time></trkpt><trkpt lat="37.7953584" lon="13.6415254"><ele>441.0</ele><time>2026-05-01T08:46:45.887Z</time></trkpt><trkpt lat="37.7954974" lon="13.6414989"><ele>443.0</ele><time>2026-05-01T08:46:46.887Z</time></trkpt><trkpt lat="37.795646" lon="13.6414617"><ele>443.0</ele><time>2026-05-01T08:46:47.887Z</time></trkpt><trkpt lat="37.7958201" lon="13.641398"><ele>443.0</ele><time>2026-05-01T08:46:48.887Z</time></trkpt><trkpt lat="37.795985" lon="13.6413209"><ele>443.0</ele><time>2026-05-01T08:46:49.888Z</time></trkpt><trkpt lat="37.7961214" lon="13.6412535"><ele>443.79999999999995</ele><time>2026-05-01T08:46:50.887Z</time></trkpt><trkpt lat="37.7962389" lon="13.6412109"><ele>444.59999999999997</ele><time>2026-05-01T08:46:51.888Z</time></trkpt><trkpt lat="37.7963138" lon="13.6411902"><ele>445.40000000000003</ele><time>2026-05-01T08:46:52.887Z</time></trkpt><trkpt lat="37.7963951" lon="13.6411992"><ele>446.20000000000005</ele><time>2026-05-01T08:46:54.888Z</time></trkpt><trkpt lat="37.7964137" lon="13.641284"><ele>447.0</ele><time>2026-05-01T08:46:56.888Z</time></trkpt><trkpt lat="37.7963659" lon="13.6414137"><ele>446.99999999999994</ele><time>2026-05-01T08:46:58.888Z</time></trkpt><trkpt lat="37.796324" lon="13.641477"><ele>447.0</ele><time>2026-05-01T08:46:59.887Z</time></trkpt><trkpt lat="37.7962837" lon="13.6415475"><ele>447.0</ele><time>2026-05-01T08:47:00.887Z</time></trkpt><trkpt lat="37.7962395" lon="13.6416229"><ele>447.0</ele><time>2026-05-01T08:47:01.888Z</time></trkpt><trkpt lat="37.7962017" lon="13.6416924"><ele>447.0</ele><time>2026-05-01T08:47:02.887Z</time></trkpt><trkpt lat="37.7961598" lon="13.641762"><ele>446.99999999999994</ele><time>2026-05-01T08:47:03.887Z</time></trkpt><trkpt lat="37.7961003" lon="13.6418463"><ele>447.0</ele><time>2026-05-01T08:47:04.887Z</time></trkpt><trkpt lat="37.7960097" lon="13.6419343"><ele>445.66666666666663</ele><time>2026-05-01T08:47:05.887Z</time></trkpt><trkpt lat="37.7958588" lon="13.6420253"><ele>444.3333333333333</ele><time>2026-05-01T08:47:06.887Z</time></trkpt><trkpt lat="37.7956602" lon="13.6421041"><ele>443.0</ele><time>2026-05-01T08:47:07.887Z</time></trkpt><trkpt lat="37.7954478" lon="13.6421802"><ele>443.0</ele><time>2026-05-01T08:47:08.888Z</time></trkpt><trkpt lat="37.7952591" lon="13.6422483"><ele>443.0</ele><time>2026-05-01T08:47:09.888Z</time></trkpt><trkpt lat="37.7950902" lon="13.6423173"><ele>443.0</ele><time>2026-05-01T08:47:10.887Z</time></trkpt><trkpt lat="37.7949258" lon="13.642417"><ele>442.66666666666663</ele><time>2026-05-01T08:47:11.888Z</time></trkpt><trkpt lat="37.7947561" lon="13.6425579"><ele>442.33333333333337</ele><time>2026-05-01T08:47:12.888Z</time></trkpt><trkpt lat="37.7945866" lon="13.642719"><ele>442.0</ele><time>2026-05-01T08:47:13.888Z</time></trkpt><trkpt lat="37.7944383" lon="13.6428642"><ele>441.0</ele><time>2026-05-01T08:47:14.888Z</time></trkpt><trkpt lat="37.7943104" lon="13.6429848"><ele>440.0</ele><time>2026-05-01T08:47:15.887Z</time></trkpt><trkpt lat="37.7942063" lon="13.6430837"><ele>439.0</ele><time>2026-05-01T08:47:16.887Z</time></trkpt><trkpt lat="37.7941182" lon="13.6432063"><ele>438.0</ele><time>2026-05-01T08:47:17.888Z</time></trkpt><trkpt lat="37.794061" lon="13.6433636"><ele>438.0</ele><time>2026-05-01T08:47:18.888Z</time></trkpt><trkpt lat="37.7940353" lon="13.6435654"><ele>438.0</ele><time>2026-05-01T08:47:19.887Z</time></trkpt><trkpt lat="37.7940221" lon="13.6438109"><ele>438.0</ele><time>2026-05-01T08:47:20.888Z</time></trkpt><trkpt lat="37.7939975" lon="13.6440282"><ele>436.75</ele><time>2026-05-01T08:47:21.888Z</time></trkpt><trkpt lat="37.7939889" lon="13.6442186"><ele>435.5</ele><time>2026-05-01T08:47:22.887Z</time></trkpt><trkpt lat="37.7940037" lon="13.6443975"><ele>434.25</ele><time>2026-05-01T08:47:23.887Z</time></trkpt><trkpt lat="37.7940449" lon="13.6445706"><ele>433.0</ele><time>2026-05-01T08:47:24.887Z</time></trkpt><trkpt lat="37.7941167" lon="13.6447353"><ele>428.6666666666667</ele><time>2026-05-01T08:47:25.888Z</time></trkpt><trkpt lat="37.7942182" lon="13.6448718"><ele>424.33333333333337</ele><time>2026-05-01T08:47:26.887Z</time></trkpt><trkpt lat="37.7943488" lon="13.6449847"><ele>420.0</ele><time>2026-05-01T08:47:27.888Z</time></trkpt><trkpt lat="37.7944881" lon="13.6450523"><ele>420.0</ele><time>2026-05-01T08:47:28.887Z</time></trkpt><trkpt lat="37.7946353" lon="13.6450754"><ele>420.0</ele><time>2026-05-01T08:47:29.887Z</time></trkpt><trkpt lat="37.7947894" lon="13.6450522"><ele>420.0</ele><time>2026-05-01T08:47:30.888Z</time></trkpt><trkpt lat="37.7949492" lon="13.6449846"><ele>420.0</ele><time>2026-05-01T08:47:31.887Z</time></trkpt><trkpt lat="37.7951278" lon="13.6448694"><ele>420.0</ele><time>2026-05-01T08:47:32.887Z</time></trkpt><trkpt lat="37.7953169" lon="13.6447428"><ele>420.0</ele><time>2026-05-01T08:47:33.888Z</time></trkpt><trkpt lat="37.7954702" lon="13.6446251"><ele>420.4</ele><time>2026-05-01T08:47:34.887Z</time></trkpt><trkpt lat="37.7955812" lon="13.6445461"><ele>420.8</ele><time>2026-05-01T08:47:35.888Z</time></trkpt><trkpt lat="37.7956688" lon="13.6444848"><ele>421.20000000000005</ele><time>2026-05-01T08:47:36.887Z</time></trkpt><trkpt lat="37.795751" lon="13.6444577"><ele>421.6</ele><time>2026-05-01T08:47:37.887Z</time></trkpt><trkpt lat="37.7958469" lon="13.6444891"><ele>422.0</ele><time>2026-05-01T08:47:38.887Z</time></trkpt><trkpt lat="37.7959043" lon="13.6445429"><ele>419.8</ele><time>2026-05-01T08:47:39.887Z</time></trkpt><trkpt lat="37.7959243" lon="13.6446356"><ele>417.6</ele><time>2026-05-01T08:47:40.887Z</time></trkpt><trkpt lat="37.7958907" lon="13.6447457"><ele>415.40000000000003</ele><time>2026-05-01T08:47:41.888Z</time></trkpt><trkpt lat="37.7958128" lon="13.644827"><ele>413.20000000000005</ele><time>2026-05-01T08:47:42.887Z</time></trkpt><trkpt lat="37.7957037" lon="13.6449246"><ele>411.0</ele><time>2026-05-01T08:47:43.888Z</time></trkpt><trkpt lat="37.7955803" lon="13.6450373"><ele>411.0</ele><time>2026-05-01T08:47:44.887Z</time></trkpt><trkpt lat="37.7954575" lon="13.6452152"><ele>411.0</ele><time>2026-05-01T08:47:45.888Z</time></trkpt><trkpt lat="37.7953605" lon="13.6454886"><ele>411.0</ele><time>2026-05-01T08:47:46.887Z</time></trkpt><trkpt lat="37.7952601" lon="13.6457686"><ele>409.66666666666663</ele><time>2026-05-01T08:47:47.887Z</time></trkpt><trkpt lat="37.7951684" lon="13.6460233"><ele>408.3333333333333</ele><time>2026-05-01T08:47:48.887Z</time></trkpt><trkpt lat="37.7950979" lon="13.6462803"><ele>407.0</ele><time>2026-05-01T08:47:49.888Z</time></trkpt><trkpt lat="37.7950646" lon="13.6465411"><ele>404.3333333333333</ele><time>2026-05-01T08:47:50.888Z</time></trkpt><trkpt lat="37.7950358" lon="13.6467962"><ele>401.66666666666663</ele><time>2026-05-01T08:47:51.887Z</time></trkpt><trkpt lat="37.7950168" lon="13.6470404"><ele>399.0</ele><time>2026-05-01T08:47:52.888Z</time></trkpt><trkpt lat="37.794997" lon="13.6472746"><ele>398.33333333333337</ele><time>2026-05-01T08:47:53.887Z</time></trkpt><trkpt lat="37.7949732" lon="13.6475026"><ele>397.6666666666667</ele><time>2026-05-01T08:47:54.887Z</time></trkpt><trkpt lat="37.7949478" lon="13.6477171"><ele>397.0</ele><time>2026-05-01T08:47:55.888Z</time></trkpt><trkpt lat="37.7949076" lon="13.6479144"><ele>398.0</ele><time>2026-05-01T08:47:56.887Z</time></trkpt><trkpt lat="37.7948528" lon="13.6481001"><ele>399.0</ele><time>2026-05-01T08:47:57.887Z</time></trkpt><trkpt lat="37.7948001" lon="13.6482814"><ele>400.0</ele><time>2026-05-01T08:47:58.887Z</time></trkpt><trkpt lat="37.7947524" lon="13.6484418"><ele>401.0</ele><time>2026-05-01T08:47:59.887Z</time></trkpt><trkpt lat="37.7947082" lon="13.6486005"><ele>401.5</ele><time>2026-05-01T08:48:00.887Z</time></trkpt><trkpt lat="37.7946663" lon="13.648759"><ele>402.0</ele><time>2026-05-01T08:48:01.887Z</time></trkpt><trkpt lat="37.794622" lon="13.648922"><ele>402.5</ele><time>2026-05-01T08:48:02.887Z</time></trkpt><trkpt lat="37.7945748" lon="13.649101"><ele>403.0</ele><time>2026-05-01T08:48:03.888Z</time></trkpt><trkpt lat="37.794523" lon="13.6492902"><ele>401.6666666666667</ele><time>2026-05-01T08:48:04.887Z</time></trkpt><trkpt lat="37.7944679" lon="13.6494893"><ele>400.33333333333337</ele><time>2026-05-01T08:48:05.887Z</time></trkpt><trkpt lat="37.7944153" lon="13.6496863"><ele>399.0</ele><time>2026-05-01T08:48:06.887Z</time></trkpt><trkpt lat="37.7943707" lon="13.6498758"><ele>399.0</ele><time>2026-05-01T08:48:07.888Z</time></trkpt><trkpt lat="37.7943394" lon="13.6500891"><ele>399.0</ele><time>2026-05-01T08:48:08.887Z</time></trkpt><trkpt lat="37.7943487" lon="13.6503373"><ele>399.0</ele><time>2026-05-01T08:48:09.888Z</time></trkpt><trkpt lat="37.7943812" lon="13.6505856"><ele>396.66666666666663</ele><time>2026-05-01T08:48:10.887Z</time></trkpt><trkpt lat="37.7944308" lon="13.650845"><ele>394.3333333333333</ele><time>2026-05-01T08:48:11.888Z</time></trkpt><trkpt lat="37.7944842" lon="13.651116"><ele>392.0</ele><time>2026-05-01T08:48:12.887Z</time></trkpt><trkpt lat="37.7945371" lon="13.6513957"><ele>390.66666666666663</ele><time>2026-05-01T08:48:13.888Z</time></trkpt><trkpt lat="37.7945838" lon="13.6516738"><ele>389.33333333333337</ele><time>2026-05-01T08:48:14.887Z</time></trkpt><trkpt lat="37.7946321" lon="13.6519468"><ele>388.0</ele><time>2026-05-01T08:48:15.887Z</time></trkpt><trkpt lat="37.7946801" lon="13.6522144"><ele>387.33333333333337</ele><time>2026-05-01T08:48:16.887Z</time></trkpt><trkpt lat="37.7947287" lon="13.652475"><ele>386.66666666666663</ele><time>2026-05-01T08:48:17.887Z</time></trkpt><trkpt lat="37.7947747" lon="13.6527278"><ele>386.0</ele><time>2026-05-01T08:48:18.888Z</time></trkpt><trkpt lat="37.7948194" lon="13.6529824"><ele>385.3333333333333</ele><time>2026-05-01T08:48:19.888Z</time></trkpt><trkpt lat="37.7948665" lon="13.6532335"><ele>384.66666666666663</ele><time>2026-05-01T08:48:20.887Z</time></trkpt><trkpt lat="37.7949171" lon="13.6534902"><ele>384.0</ele><time>2026-05-01T08:48:21.888Z</time></trkpt><trkpt lat="37.7949712" lon="13.6537566"><ele>383.6666666666667</ele><time>2026-05-01T08:48:22.887Z</time></trkpt><trkpt lat="37.7950318" lon="13.654027"><ele>383.33333333333337</ele><time>2026-05-01T08:48:23.887Z</time></trkpt><trkpt lat="37.7950922" lon="13.6543034"><ele>383.0</ele><time>2026-05-01T08:48:24.887Z</time></trkpt><trkpt lat="37.7951572" lon="13.6545854"><ele>385.5</ele><time>2026-05-01T08:48:25.888Z</time></trkpt><trkpt lat="37.7952236" lon="13.6548745"><ele>388.0</ele><time>2026-05-01T08:48:26.887Z</time></trkpt><trkpt lat="37.7952956" lon="13.6551812"><ele>387.0</ele><time>2026-05-01T08:48:27.887Z</time></trkpt><trkpt lat="37.7953662" lon="13.6554844"><ele>386.0</ele><time>2026-05-01T08:48:28.887Z</time></trkpt><trkpt lat="37.7954337" lon="13.6557825"><ele>386.0</ele><time>2026-05-01T08:48:29.887Z</time></trkpt><trkpt lat="37.7955006" lon="13.6560732"><ele>386.0</ele><time>2026-05-01T08:48:30.887Z</time></trkpt><trkpt lat="37.795565" lon="13.6563604"><ele>385.0</ele><time>2026-05-01T08:48:31.887Z</time></trkpt><trkpt lat="37.7956277" lon="13.6566464"><ele>384.0</ele><time>2026-05-01T08:48:32.887Z</time></trkpt><trkpt lat="37.795689" lon="13.6569323"><ele>383.0</ele><time>2026-05-01T08:48:33.888Z</time></trkpt><trkpt lat="37.7957493" lon="13.6572101"><ele>382.0</ele><time>2026-05-01T08:48:34.888Z</time></trkpt><trkpt lat="37.7958127" lon="13.6574821"><ele>382.0</ele><time>2026-05-01T08:48:35.888Z</time></trkpt><trkpt lat="37.7958779" lon="13.6577517"><ele>382.0</ele><time>2026-05-01T08:48:36.887Z</time></trkpt><trkpt lat="37.7959387" lon="13.6580205"><ele>382.0</ele><time>2026-05-01T08:48:37.888Z</time></trkpt><trkpt lat="37.7959969" lon="13.6582857"><ele>385.0</ele><time>2026-05-01T08:48:38.888Z</time></trkpt><trkpt lat="37.7960543" lon="13.6585466"><ele>388.0</ele><time>2026-05-01T08:48:39.887Z</time></trkpt><trkpt lat="37.7961085" lon="13.6587945"><ele>391.0</ele><time>2026-05-01T08:48:40.887Z</time></trkpt><trkpt lat="37.7961586" lon="13.6590286"><ele>391.33333333333337</ele><time>2026-05-01T08:48:41.888Z</time></trkpt><trkpt lat="37.7962035" lon="13.6592643"><ele>391.66666666666663</ele><time>2026-05-01T08:48:42.887Z</time></trkpt><trkpt lat="37.7962263" lon="13.6595175"><ele>392.0</ele><time>2026-05-01T08:48:43.888Z</time></trkpt><trkpt lat="37.79622" lon="13.6597915"><ele>392.0</ele><time>2026-05-01T08:48:44.887Z</time></trkpt><trkpt lat="37.7961976" lon="13.6600658"><ele>392.0</ele><time>2026-05-01T08:48:45.887Z</time></trkpt><trkpt lat="37.7961691" lon="13.6603208"><ele>392.0</ele><time>2026-05-01T08:48:46.888Z</time></trkpt><trkpt lat="37.7961269" lon="13.6605699"><ele>392.0</ele><time>2026-05-01T08:48:47.887Z</time></trkpt><trkpt lat="37.796064" lon="13.6608123"><ele>392.0</ele><time>2026-05-01T08:48:48.887Z</time></trkpt><trkpt lat="37.7959971" lon="13.6610435"><ele>392.0</ele><time>2026-05-01T08:48:49.888Z</time></trkpt><trkpt lat="37.7959235" lon="13.6612772"><ele>390.0</ele><time>2026-05-01T08:48:50.887Z</time></trkpt><trkpt lat="37.7958483" lon="13.6615109"><ele>388.0</ele><time>2026-05-01T08:48:51.887Z</time></trkpt><trkpt lat="37.7957595" lon="13.6617524"><ele>386.0</ele><time>2026-05-01T08:48:52.887Z</time></trkpt><trkpt lat="37.7956648" lon="13.6619911"><ele>386.0</ele><time>2026-05-01T08:48:53.887Z</time></trkpt><trkpt lat="37.7955695" lon="13.6622388"><ele>386.0</ele><time>2026-05-01T08:48:54.888Z</time></trkpt><trkpt lat="37.795471" lon="13.6624935"><ele>386.0</ele><time>2026-05-01T08:48:55.887Z</time></trkpt><trkpt lat="37.7953768" lon="13.6627497"><ele>386.3333333333333</ele><time>2026-05-01T08:48:56.887Z</time></trkpt><trkpt lat="37.7952814" lon="13.6630055"><ele>386.66666666666663</ele><time>2026-05-01T08:48:57.887Z</time></trkpt><trkpt lat="37.7951877" lon="13.663264"><ele>387.0</ele><time>2026-05-01T08:48:58.888Z</time></trkpt><trkpt lat="37.7950944" lon="13.6635182"><ele>378.5</ele><time>2026-05-01T08:48:59.887Z</time></trkpt><trkpt lat="37.7949983" lon="13.6637836"><ele>370.0</ele><time>2026-05-01T08:49:00.887Z</time></trkpt><trkpt lat="37.7949133" lon="13.6640785"><ele>370.0</ele><time>2026-05-01T08:49:01.887Z</time></trkpt><trkpt lat="37.7948019" lon="13.664381"><ele>370.0</ele><time>2026-05-01T08:49:02.887Z</time></trkpt><trkpt lat="37.7946523" lon="13.6646927"><ele>372.5</ele><time>2026-05-01T08:49:03.888Z</time></trkpt><trkpt lat="37.7945051" lon="13.6649673"><ele>375.0</ele><time>2026-05-01T08:49:04.887Z</time></trkpt><trkpt lat="37.7943775" lon="13.6651949"><ele>371.6666666666667</ele><time>2026-05-01T08:49:05.887Z</time></trkpt><trkpt lat="37.7942638" lon="13.6653929"><ele>368.33333333333337</ele><time>2026-05-01T08:49:06.887Z</time></trkpt><trkpt lat="37.7941699" lon="13.6655674"><ele>365.0</ele><time>2026-05-01T08:49:07.887Z</time></trkpt><trkpt lat="37.7941043" lon="13.6657437"><ele>365.0</ele><time>2026-05-01T08:49:08.887Z</time></trkpt><trkpt lat="37.7940688" lon="13.665947"><ele>365.0</ele><time>2026-05-01T08:49:09.888Z</time></trkpt><trkpt lat="37.7940589" lon="13.6662019"><ele>365.0</ele><time>2026-05-01T08:49:10.887Z</time></trkpt><trkpt lat="37.7940673" lon="13.6664702"><ele>366.0</ele><time>2026-05-01T08:49:11.887Z</time></trkpt><trkpt lat="37.7940449" lon="13.6667527"><ele>367.0</ele><time>2026-05-01T08:49:12.888Z</time></trkpt><trkpt lat="37.7939926" lon="13.6670668"><ele>368.0</ele><time>2026-05-01T08:49:13.887Z</time></trkpt><trkpt lat="37.7939253" lon="13.6673816"><ele>369.0</ele><time>2026-05-01T08:49:14.887Z</time></trkpt><trkpt lat="37.7938647" lon="13.667656"><ele>369.6666666666667</ele><time>2026-05-01T08:49:15.888Z</time></trkpt><trkpt lat="37.7938105" lon="13.6678898"><ele>370.33333333333337</ele><time>2026-05-01T08:49:16.888Z</time></trkpt><trkpt lat="37.7937348" lon="13.6680996"><ele>371.0</ele><time>2026-05-01T08:49:17.888Z</time></trkpt><trkpt lat="37.793603" lon="13.6682991"><ele>365.5</ele><time>2026-05-01T08:49:18.888Z</time></trkpt><trkpt lat="37.7934223" lon="13.6685107"><ele>360.0</ele><time>2026-05-01T08:49:19.887Z</time></trkpt><trkpt lat="37.7932165" lon="13.6687485"><ele>360.0</ele><time>2026-05-01T08:49:20.887Z</time></trkpt><trkpt lat="37.7929923" lon="13.6690017"><ele>360.0</ele><time>2026-05-01T08:49:21.887Z</time></trkpt><trkpt lat="37.7927729" lon="13.6692296"><ele>357.0</ele><time>2026-05-01T08:49:22.887Z</time></trkpt><trkpt lat="37.792573" lon="13.6694364"><ele>354.0</ele><time>2026-05-01T08:49:23.888Z</time></trkpt><trkpt lat="37.792396" lon="13.6696281"><ele>352.6666666666667</ele><time>2026-05-01T08:49:24.887Z</time></trkpt><trkpt lat="37.792227" lon="13.6698083"><ele>351.33333333333337</ele><time>2026-05-01T08:49:25.887Z</time></trkpt><trkpt lat="37.7920663" lon="13.6699714"><ele>350.0</ele><time>2026-05-01T08:49:26.887Z</time></trkpt><trkpt lat="37.7919091" lon="13.6701327"><ele>350.33333333333337</ele><time>2026-05-01T08:49:27.888Z</time></trkpt><trkpt lat="37.7917549" lon="13.6702759"><ele>350.6666666666667</ele><time>2026-05-01T08:49:28.887Z</time></trkpt><trkpt lat="37.7916037" lon="13.670407"><ele>351.0</ele><time>2026-05-01T08:49:29.888Z</time></trkpt><trkpt lat="37.7914464" lon="13.6705223"><ele>351.0</ele><time>2026-05-01T08:49:30.887Z</time></trkpt><trkpt lat="37.7912878" lon="13.6706363"><ele>351.0</ele><time>2026-05-01T08:49:31.887Z</time></trkpt><trkpt lat="37.7911361" lon="13.6707508"><ele>351.0</ele><time>2026-05-01T08:49:32.888Z</time></trkpt><trkpt lat="37.7909849" lon="13.670855"><ele>351.3333333333333</ele><time>2026-05-01T08:49:33.888Z</time></trkpt><trkpt lat="37.7908423" lon="13.6709551"><ele>351.66666666666663</ele><time>2026-05-01T08:49:34.888Z</time></trkpt><trkpt lat="37.790709" lon="13.6710443"><ele>352.0</ele><time>2026-05-01T08:49:35.887Z</time></trkpt><trkpt lat="37.7905781" lon="13.6711275"><ele>352.0</ele><time>2026-05-01T08:49:36.887Z</time></trkpt><trkpt lat="37.7904395" lon="13.6711893"><ele>352.0</ele><time>2026-05-01T08:49:37.887Z</time></trkpt><trkpt lat="37.7902969" lon="13.6712186"><ele>352.0</ele><time>2026-05-01T08:49:38.887Z</time></trkpt><trkpt lat="37.7901501" lon="13.6712024"><ele>352.0</ele><time>2026-05-01T08:49:39.887Z</time></trkpt><trkpt lat="37.7899967" lon="13.6711685"><ele>352.3333333333333</ele><time>2026-05-01T08:49:40.888Z</time></trkpt><trkpt lat="37.7898188" lon="13.6710893"><ele>352.6666666666667</ele><time>2026-05-01T08:49:41.888Z</time></trkpt><trkpt lat="37.7896265" lon="13.6709819"><ele>353.0</ele><time>2026-05-01T08:49:42.887Z</time></trkpt><trkpt lat="37.7894238" lon="13.6708575"><ele>353.33333333333337</ele><time>2026-05-01T08:49:43.887Z</time></trkpt><trkpt lat="37.7892271" lon="13.6707353"><ele>353.6666666666667</ele><time>2026-05-01T08:49:44.888Z</time></trkpt><trkpt lat="37.7890464" lon="13.670622"><ele>354.0</ele><time>2026-05-01T08:49:45.888Z</time></trkpt><trkpt lat="37.7888809" lon="13.6705041"><ele>354.0</ele><time>2026-05-01T08:49:46.887Z</time></trkpt><trkpt lat="37.7887415" lon="13.6703877"><ele>354.0</ele><time>2026-05-01T08:49:47.887Z</time></trkpt><trkpt lat="37.7886274" lon="13.6702895"><ele>354.0</ele><time>2026-05-01T08:49:48.888Z</time></trkpt><trkpt lat="37.7885301" lon="13.6702134"><ele>354.0</ele><time>2026-05-01T08:49:49.888Z</time></trkpt><trkpt lat="37.7884363" lon="13.6701683"><ele>354.0</ele><time>2026-05-01T08:49:50.887Z</time></trkpt><trkpt lat="37.7883608" lon="13.6701607"><ele>354.0</ele><time>2026-05-01T08:49:51.887Z</time></trkpt><trkpt lat="37.7882902" lon="13.67019"><ele>354.0</ele><time>2026-05-01T08:49:52.888Z</time></trkpt><trkpt lat="37.7882348" lon="13.6702626"><ele>354.0</ele><time>2026-05-01T08:49:53.888Z</time></trkpt><trkpt lat="37.7881973" lon="13.6703605"><ele>354.0</ele><time>2026-05-01T08:49:54.887Z</time></trkpt><trkpt lat="37.7881618" lon="13.6704593"><ele>354.0</ele><time>2026-05-01T08:49:55.888Z</time></trkpt><trkpt lat="37.7881093" lon="13.6705463"><ele>353.75</ele><time>2026-05-01T08:49:56.888Z</time></trkpt><trkpt lat="37.7880208" lon="13.6706133"><ele>353.5</ele><time>2026-05-01T08:49:57.887Z</time></trkpt><trkpt lat="37.7878926" lon="13.6706542"><ele>353.25</ele><time>2026-05-01T08:49:58.888Z</time></trkpt><trkpt lat="37.787706" lon="13.6706892"><ele>353.0</ele><time>2026-05-01T08:49:59.887Z</time></trkpt><trkpt lat="37.7874801" lon="13.6707252"><ele>352.5</ele><time>2026-05-01T08:50:00.887Z</time></trkpt><trkpt lat="37.7872365" lon="13.6708011"><ele>352.0</ele><time>2026-05-01T08:50:01.888Z</time></trkpt><trkpt lat="37.786982" lon="13.670937"><ele>352.5</ele><time>2026-05-01T08:50:02.887Z</time></trkpt><trkpt lat="37.786747" lon="13.6710789"><ele>353.0</ele><time>2026-05-01T08:50:03.888Z</time></trkpt><trkpt lat="37.7865262" lon="13.6711802"><ele>353.0</ele><time>2026-05-01T08:50:04.888Z</time></trkpt><trkpt lat="37.7863205" lon="13.6712489"><ele>353.0</ele><time>2026-05-01T08:50:05.887Z</time></trkpt><trkpt lat="37.7861269" lon="13.6713068"><ele>353.0</ele><time>2026-05-01T08:50:06.888Z</time></trkpt><trkpt lat="37.7859589" lon="13.671365"><ele>353.75</ele><time>2026-05-01T08:50:07.887Z</time></trkpt><trkpt lat="37.7858108" lon="13.6714001"><ele>354.5</ele><time>2026-05-01T08:50:08.887Z</time></trkpt><trkpt lat="37.7856773" lon="13.6714042"><ele>355.25</ele><time>2026-05-01T08:50:09.888Z</time></trkpt><trkpt lat="37.785548" lon="13.671348"><ele>356.0</ele><time>2026-05-01T08:50:10.888Z</time></trkpt><trkpt lat="37.7854109" lon="13.6712281"><ele>357.0</ele><time>2026-05-01T08:50:11.888Z</time></trkpt><trkpt lat="37.7852831" lon="13.6710773"><ele>358.0</ele><time>2026-05-01T08:50:12.888Z</time></trkpt><trkpt lat="37.7851483" lon="13.6709487"><ele>359.0</ele><time>2026-05-01T08:50:13.888Z</time></trkpt><trkpt lat="37.7849973" lon="13.6708619"><ele>359.33333333333337</ele><time>2026-05-01T08:50:14.887Z</time></trkpt><trkpt lat="37.7848085" lon="13.6707967"><ele>359.6666666666667</ele><time>2026-05-01T08:50:15.887Z</time></trkpt><trkpt lat="37.7845849" lon="13.6707697"><ele>360.0</ele><time>2026-05-01T08:50:16.888Z</time></trkpt><trkpt lat="37.784305" lon="13.6707551"><ele>360.0</ele><time>2026-05-01T08:50:17.888Z</time></trkpt><trkpt lat="37.78403" lon="13.6707371"><ele>360.0</ele><time>2026-05-01T08:50:18.887Z</time></trkpt><trkpt lat="37.7838168" lon="13.6707474"><ele>360.0</ele><time>2026-05-01T08:50:19.887Z</time></trkpt><trkpt lat="37.7836388" lon="13.6707602"><ele>360.0</ele><time>2026-05-01T08:50:20.887Z</time></trkpt><trkpt lat="37.7834642" lon="13.6708141"><ele>360.0</ele><time>2026-05-01T08:50:21.888Z</time></trkpt><trkpt lat="37.7832892" lon="13.6708988"><ele>360.0</ele><time>2026-05-01T08:50:22.887Z</time></trkpt><trkpt lat="37.7830854" lon="13.6710106"><ele>360.0</ele><time>2026-05-01T08:50:23.887Z</time></trkpt><trkpt lat="37.7828787" lon="13.6711526"><ele>358.5</ele><time>2026-05-01T08:50:24.887Z</time></trkpt><trkpt lat="37.7826675" lon="13.6712887"><ele>357.0</ele><time>2026-05-01T08:50:25.887Z</time></trkpt><trkpt lat="37.7824537" lon="13.6714298"><ele>357.0</ele><time>2026-05-01T08:50:26.888Z</time></trkpt><trkpt lat="37.7822423" lon="13.6715728"><ele>357.0</ele><time>2026-05-01T08:50:27.888Z</time></trkpt><trkpt lat="37.7820406" lon="13.6717123"><ele>357.0</ele><time>2026-05-01T08:50:28.887Z</time></trkpt><trkpt lat="37.7818537" lon="13.671834"><ele>357.0</ele><time>2026-05-01T08:50:29.888Z</time></trkpt><trkpt lat="37.7816803" lon="13.6719481"><ele>357.0</ele><time>2026-05-01T08:50:30.888Z</time></trkpt><trkpt lat="37.7815184" lon="13.6720509"><ele>356.6666666666667</ele><time>2026-05-01T08:50:31.887Z</time></trkpt><trkpt lat="37.7813748" lon="13.6721418"><ele>356.33333333333337</ele><time>2026-05-01T08:50:32.887Z</time></trkpt><trkpt lat="37.7812367" lon="13.6721972"><ele>356.0</ele><time>2026-05-01T08:50:33.887Z</time></trkpt><trkpt lat="37.7810894" lon="13.6722036"><ele>356.0</ele><time>2026-05-01T08:50:34.887Z</time></trkpt><trkpt lat="37.7809304" lon="13.6721801"><ele>356.0</ele><time>2026-05-01T08:50:35.887Z</time></trkpt><trkpt lat="37.7807822" lon="13.6721217"><ele>356.0</ele><time>2026-05-01T08:50:36.888Z</time></trkpt><trkpt lat="37.7806366" lon="13.6720483"><ele>356.0</ele><time>2026-05-01T08:50:37.887Z</time></trkpt><trkpt lat="37.7804985" lon="13.6719801"><ele>356.0</ele><time>2026-05-01T08:50:38.887Z</time></trkpt><trkpt lat="37.7803648" lon="13.6719146"><ele>356.0</ele><time>2026-05-01T08:50:39.887Z</time></trkpt><trkpt lat="37.7802189" lon="13.6718639"><ele>356.0</ele><time>2026-05-01T08:50:40.887Z</time></trkpt><trkpt lat="37.7800582" lon="13.6718012"><ele>356.33333333333337</ele><time>2026-05-01T08:50:41.887Z</time></trkpt><trkpt lat="37.7798772" lon="13.671762"><ele>356.6666666666667</ele><time>2026-05-01T08:50:42.888Z</time></trkpt><trkpt lat="37.7796676" lon="13.6717467"><ele>357.0</ele><time>2026-05-01T08:50:43.888Z</time></trkpt><trkpt lat="37.779444" lon="13.6717446"><ele>358.0</ele><time>2026-05-01T08:50:44.887Z</time></trkpt><trkpt lat="37.7792248" lon="13.6717473"><ele>359.0</ele><time>2026-05-01T08:50:45.887Z</time></trkpt><trkpt lat="37.7790278" lon="13.671744"><ele>360.0</ele><time>2026-05-01T08:50:46.888Z</time></trkpt><trkpt lat="37.7788556" lon="13.6717483"><ele>360.0</ele><time>2026-05-01T08:50:47.887Z</time></trkpt><trkpt lat="37.7786996" lon="13.6717534"><ele>360.0</ele><time>2026-05-01T08:50:48.888Z</time></trkpt><trkpt lat="37.7785587" lon="13.6717695"><ele>360.0</ele><time>2026-05-01T08:50:49.888Z</time></trkpt><trkpt lat="37.7784384" lon="13.6717912"><ele>360.0</ele><time>2026-05-01T08:50:50.887Z</time></trkpt><trkpt lat="37.7783443" lon="13.6718134"><ele>360.0</ele><time>2026-05-01T08:50:51.888Z</time></trkpt><trkpt lat="37.7782727" lon="13.6718361"><ele>360.0</ele><time>2026-05-01T08:50:52.887Z</time></trkpt><trkpt lat="37.77818" lon="13.6718622"><ele>360.0</ele><time>2026-05-01T08:50:54.888Z</time></trkpt><trkpt lat="37.7780767" lon="13.671881"><ele>360.0</ele><time>2026-05-01T08:50:56.888Z</time></trkpt><trkpt lat="37.7779996" lon="13.6718839"><ele>360.0</ele><time>2026-05-01T08:50:57.887Z</time></trkpt><trkpt lat="37.7778992" lon="13.6718694"><ele>360.0</ele><time>2026-05-01T08:50:58.887Z</time></trkpt><trkpt lat="37.7777848" lon="13.6718447"><ele>360.0</ele><time>2026-05-01T08:50:59.887Z</time></trkpt><trkpt lat="37.777666" lon="13.6718039"><ele>360.0</ele><time>2026-05-01T08:51:00.888Z</time></trkpt><trkpt lat="37.777549" lon="13.6717544"><ele>360.0</ele><time>2026-05-01T08:51:01.887Z</time></trkpt><trkpt lat="37.777443" lon="13.6716913"><ele>360.75</ele><time>2026-05-01T08:51:02.887Z</time></trkpt><trkpt lat="37.7773438" lon="13.6716073"><ele>361.5</ele><time>2026-05-01T08:51:03.887Z</time></trkpt><trkpt lat="37.7772384" lon="13.6714892"><ele>362.25</ele><time>2026-05-01T08:51:04.887Z</time></trkpt><trkpt lat="37.7771212" lon="13.6713538"><ele>363.0</ele><time>2026-05-01T08:51:05.887Z</time></trkpt><trkpt lat="37.7770022" lon="13.671197"><ele>362.0</ele><time>2026-05-01T08:51:06.888Z</time></trkpt><trkpt lat="37.77689" lon="13.6710286"><ele>361.0</ele><time>2026-05-01T08:51:07.887Z</time></trkpt><trkpt lat="37.7767678" lon="13.670857"><ele>360.0</ele><time>2026-05-01T08:51:08.888Z</time></trkpt><trkpt lat="37.7766304" lon="13.6706853"><ele>361.6666666666667</ele><time>2026-05-01T08:51:09.887Z</time></trkpt><trkpt lat="37.7764947" lon="13.6705158"><ele>363.33333333333337</ele><time>2026-05-01T08:51:10.888Z</time></trkpt><trkpt lat="37.7763659" lon="13.6703412"><ele>365.0</ele><time>2026-05-01T08:51:11.887Z</time></trkpt><trkpt lat="37.7762495" lon="13.6701724"><ele>365.0</ele><time>2026-05-01T08:51:12.888Z</time></trkpt><trkpt lat="37.7761532" lon="13.6700001"><ele>365.0</ele><time>2026-05-01T08:51:13.887Z</time></trkpt><trkpt lat="37.7760774" lon="13.669829"><ele>365.0</ele><time>2026-05-01T08:51:14.888Z</time></trkpt><trkpt lat="37.7760183" lon="13.6696706"><ele>366.0</ele><time>2026-05-01T08:51:15.888Z</time></trkpt><trkpt lat="37.7759739" lon="13.6695243"><ele>367.0</ele><time>2026-05-01T08:51:16.888Z</time></trkpt><trkpt lat="37.7759254" lon="13.6693848"><ele>368.0</ele><time>2026-05-01T08:51:17.888Z</time></trkpt><trkpt lat="37.7758616" lon="13.669278"><ele>369.0</ele><time>2026-05-01T08:51:18.887Z</time></trkpt><trkpt lat="37.7757687" lon="13.6691943"><ele>369.0</ele><time>2026-05-01T08:51:19.887Z</time></trkpt><trkpt lat="37.7756565" lon="13.6691426"><ele>369.0</ele><time>2026-05-01T08:51:20.887Z</time></trkpt><trkpt lat="37.7755341" lon="13.6691465"><ele>369.0</ele><time>2026-05-01T08:51:21.888Z</time></trkpt><trkpt lat="37.775427" lon="13.6692045"><ele>369.0</ele><time>2026-05-01T08:51:22.887Z</time></trkpt><trkpt lat="37.7753456" lon="13.6693089"><ele>369.0</ele><time>2026-05-01T08:51:23.888Z</time></trkpt><trkpt lat="37.7753137" lon="13.6694116"><ele>369.0</ele><time>2026-05-01T08:51:24.888Z</time></trkpt><trkpt lat="37.7753048" lon="13.6695657"><ele>369.0</ele><time>2026-05-01T08:51:25.887Z</time></trkpt><trkpt lat="37.7753322" lon="13.6697524"><ele>369.0</ele><time>2026-05-01T08:51:26.887Z</time></trkpt><trkpt lat="37.7753749" lon="13.6699625"><ele>370.6666666666667</ele><time>2026-05-01T08:51:27.887Z</time></trkpt><trkpt lat="37.7754349" lon="13.6701878"><ele>372.33333333333337</ele><time>2026-05-01T08:51:28.887Z</time></trkpt><trkpt lat="37.7755136" lon="13.670419"><ele>374.0</ele><time>2026-05-01T08:51:29.888Z</time></trkpt><trkpt lat="37.7756007" lon="13.6706532"><ele>376.33333333333337</ele><time>2026-05-01T08:51:30.887Z</time></trkpt><trkpt lat="37.7756681" lon="13.6709019"><ele>378.6666666666667</ele><time>2026-05-01T08:51:31.887Z</time></trkpt><trkpt lat="37.775725" lon="13.6711638"><ele>381.0</ele><time>2026-05-01T08:51:32.887Z</time></trkpt><trkpt lat="37.7757645" lon="13.6714282"><ele>385.5</ele><time>2026-05-01T08:51:33.888Z</time></trkpt><trkpt lat="37.7758399" lon="13.6716905"><ele>390.0</ele><time>2026-05-01T08:51:34.887Z</time></trkpt><trkpt lat="37.7759598" lon="13.671958"><ele>388.66666666666663</ele><time>2026-05-01T08:51:35.887Z</time></trkpt><trkpt lat="37.7760917" lon="13.6722035"><ele>387.3333333333333</ele><time>2026-05-01T08:51:36.887Z</time></trkpt><trkpt lat="37.776194" lon="13.6724171"><ele>386.0</ele><time>2026-05-01T08:51:37.888Z</time></trkpt><trkpt lat="37.776265" lon="13.6726216"><ele>389.66666666666663</ele><time>2026-05-01T08:51:38.887Z</time></trkpt><trkpt lat="37.7763081" lon="13.6728576"><ele>393.33333333333337</ele><time>2026-05-01T08:51:39.887Z</time></trkpt><trkpt lat="37.7763258" lon="13.673098"><ele>397.0</ele><time>2026-05-01T08:51:40.887Z</time></trkpt><trkpt lat="37.7763773" lon="13.6733454"><ele>397.0</ele><time>2026-05-01T08:51:41.888Z</time></trkpt><trkpt lat="37.7764576" lon="13.6735721"><ele>397.0</ele><time>2026-05-01T08:51:42.887Z</time></trkpt><trkpt lat="37.7765566" lon="13.6737838"><ele>397.0</ele><time>2026-05-01T08:51:43.887Z</time></trkpt><trkpt lat="37.7766792" lon="13.6739827"><ele>398.0</ele><time>2026-05-01T08:51:44.887Z</time></trkpt><trkpt lat="37.7768086" lon="13.6741506"><ele>399.0</ele><time>2026-05-01T08:51:45.887Z</time></trkpt><trkpt lat="37.7769326" lon="13.6742851"><ele>400.0</ele><time>2026-05-01T08:51:46.888Z</time></trkpt><trkpt lat="37.7770718" lon="13.674389"><ele>402.25</ele><time>2026-05-01T08:51:47.887Z</time></trkpt><trkpt lat="37.7772107" lon="13.6744448"><ele>404.5</ele><time>2026-05-01T08:51:48.887Z</time></trkpt><trkpt lat="37.7773346" lon="13.6744858"><ele>406.75</ele><time>2026-05-01T08:51:49.888Z</time></trkpt><trkpt lat="37.7774235" lon="13.6745499"><ele>409.0</ele><time>2026-05-01T08:51:50.887Z</time></trkpt><trkpt lat="37.7774857" lon="13.6746529"><ele>409.0</ele><time>2026-05-01T08:51:51.887Z</time></trkpt><trkpt lat="37.7775212" lon="13.6747995"><ele>409.0</ele><time>2026-05-01T08:51:52.888Z</time></trkpt><trkpt lat="37.7775183" lon="13.6750515"><ele>409.0</ele><time>2026-05-01T08:51:53.887Z</time></trkpt><trkpt lat="37.7775179" lon="13.6753252"><ele>411.6666666666667</ele><time>2026-05-01T08:51:54.888Z</time></trkpt><trkpt lat="37.777501" lon="13.6756131"><ele>414.33333333333337</ele><time>2026-05-01T08:51:55.887Z</time></trkpt><trkpt lat="37.7774672" lon="13.675869"><ele>417.0</ele><time>2026-05-01T08:51:56.888Z</time></trkpt><trkpt lat="37.7774293" lon="13.6760912"><ele>418.5</ele><time>2026-05-01T08:51:57.887Z</time></trkpt><trkpt lat="37.7774102" lon="13.6762697"><ele>420.0</ele><time>2026-05-01T08:51:58.887Z</time></trkpt><trkpt lat="37.7774236" lon="13.6764538"><ele>421.5</ele><time>2026-05-01T08:51:59.888Z</time></trkpt><trkpt lat="37.7774801" lon="13.6766334"><ele>423.0</ele><time>2026-05-01T08:52:00.887Z</time></trkpt><trkpt lat="37.7775573" lon="13.6768102"><ele>425.33333333333337</ele><time>2026-05-01T08:52:01.887Z</time></trkpt><trkpt lat="37.7776183" lon="13.6770096"><ele>427.6666666666667</ele><time>2026-05-01T08:52:02.888Z</time></trkpt><trkpt lat="37.7776401" lon="13.6772722"><ele>430.0</ele><time>2026-05-01T08:52:03.887Z</time></trkpt><trkpt lat="37.7776228" lon="13.6775758"><ele>432.6666666666667</ele><time>2026-05-01T08:52:04.887Z</time></trkpt><trkpt lat="37.7775952" lon="13.6778632"><ele>435.33333333333337</ele><time>2026-05-01T08:52:05.888Z</time></trkpt><trkpt lat="37.7775855" lon="13.6781375"><ele>438.0</ele><time>2026-05-01T08:52:06.887Z</time></trkpt><trkpt lat="37.7776058" lon="13.67844"><ele>438.0</ele><time>2026-05-01T08:52:07.888Z</time></trkpt><trkpt lat="37.77766" lon="13.6787669"><ele>438.0</ele><time>2026-05-01T08:52:08.887Z</time></trkpt><trkpt lat="37.7777265" lon="13.6791238"><ele>444.0</ele><time>2026-05-01T08:52:09.887Z</time></trkpt><trkpt lat="37.7777994" lon="13.6794937"><ele>450.0</ele><time>2026-05-01T08:52:10.896Z</time></trkpt><trkpt lat="37.77787" lon="13.6798279"><ele>450.0</ele><time>2026-05-01T08:52:11.896Z</time></trkpt><trkpt lat="37.7779256" lon="13.6800942"><ele>450.0</ele><time>2026-05-01T08:52:12.896Z</time></trkpt><trkpt lat="37.7779542" lon="13.6803058"><ele>450.0</ele><time>2026-05-01T08:52:13.895Z</time></trkpt><trkpt lat="37.7779497" lon="13.6804857"><ele>451.33333333333337</ele><time>2026-05-01T08:52:14.895Z</time></trkpt><trkpt lat="37.7779077" lon="13.6806632"><ele>452.6666666666667</ele><time>2026-05-01T08:52:15.895Z</time></trkpt><trkpt lat="37.7778405" lon="13.6808409"><ele>454.0</ele><time>2026-05-01T08:52:16.896Z</time></trkpt><trkpt lat="37.7777512" lon="13.6810329"><ele>455.33333333333337</ele><time>2026-05-01T08:52:17.895Z</time></trkpt><trkpt lat="37.7776515" lon="13.6812382"><ele>456.66666666666663</ele><time>2026-05-01T08:52:18.896Z</time></trkpt><trkpt lat="37.7775582" lon="13.6814614"><ele>458.0</ele><time>2026-05-01T08:52:19.895Z</time></trkpt><trkpt lat="37.777472" lon="13.6817073"><ele>457.0</ele><time>2026-05-01T08:52:20.895Z</time></trkpt><trkpt lat="37.7773921" lon="13.6819339"><ele>456.0</ele><time>2026-05-01T08:52:21.896Z</time></trkpt><trkpt lat="37.7773125" lon="13.6821281"><ele>455.0</ele><time>2026-05-01T08:52:22.895Z</time></trkpt><trkpt lat="37.7772251" lon="13.6822946"><ele>455.0</ele><time>2026-05-01T08:52:23.895Z</time></trkpt><trkpt lat="37.7771005" lon="13.6824442"><ele>455.0</ele><time>2026-05-01T08:52:24.896Z</time></trkpt><trkpt lat="37.776954" lon="13.6825957"><ele>455.0</ele><time>2026-05-01T08:52:25.895Z</time></trkpt><trkpt lat="37.7768042" lon="13.6827541"><ele>455.66666666666663</ele><time>2026-05-01T08:52:26.895Z</time></trkpt><trkpt lat="37.7766806" lon="13.6829212"><ele>456.33333333333337</ele><time>2026-05-01T08:52:27.895Z</time></trkpt><trkpt lat="37.7765742" lon="13.6831535"><ele>457.0</ele><time>2026-05-01T08:52:28.895Z</time></trkpt><trkpt lat="37.7764717" lon="13.6834169"><ele>456.33333333333337</ele><time>2026-05-01T08:52:29.895Z</time></trkpt><trkpt lat="37.7763885" lon="13.6836491"><ele>455.66666666666663</ele><time>2026-05-01T08:52:30.895Z</time></trkpt><trkpt lat="37.7763239" lon="13.6838417"><ele>455.0</ele><time>2026-05-01T08:52:31.896Z</time></trkpt><trkpt lat="37.7762665" lon="13.6840041"><ele>455.0</ele><time>2026-05-01T08:52:32.896Z</time></trkpt><trkpt lat="37.7761905" lon="13.6841414"><ele>455.0</ele><time>2026-05-01T08:52:33.895Z</time></trkpt><trkpt lat="37.7760864" lon="13.684253"><ele>455.0</ele><time>2026-05-01T08:52:34.896Z</time></trkpt><trkpt lat="37.7759602" lon="13.68432"><ele>455.0</ele><time>2026-05-01T08:52:35.896Z</time></trkpt><trkpt lat="37.7758274" lon="13.6843575"><ele>454.3333333333333</ele><time>2026-05-01T08:52:36.896Z</time></trkpt><trkpt lat="37.7756854" lon="13.6843784"><ele>453.66666666666663</ele><time>2026-05-01T08:52:37.895Z</time></trkpt><trkpt lat="37.7755239" lon="13.6844277"><ele>453.0</ele><time>2026-05-01T08:52:38.896Z</time></trkpt><trkpt lat="37.7753453" lon="13.6845332"><ele>457.5</ele><time>2026-05-01T08:52:39.896Z</time></trkpt><trkpt lat="37.7751463" lon="13.6846929"><ele>462.0</ele><time>2026-05-01T08:52:40.896Z</time></trkpt><trkpt lat="37.7749524" lon="13.6848664"><ele>462.0</ele><time>2026-05-01T08:52:41.896Z</time></trkpt><trkpt lat="37.7747694" lon="13.6849981"><ele>462.0</ele><time>2026-05-01T08:52:42.896Z</time></trkpt><trkpt lat="37.7746009" lon="13.6850869"><ele>462.0</ele><time>2026-05-01T08:52:43.895Z</time></trkpt><trkpt lat="37.7744367" lon="13.6851372"><ele>465.0</ele><time>2026-05-01T08:52:44.895Z</time></trkpt><trkpt lat="37.7742709" lon="13.6851488"><ele>468.0</ele><time>2026-05-01T08:52:45.896Z</time></trkpt><trkpt lat="37.7741337" lon="13.6851431"><ele>471.0</ele><time>2026-05-01T08:52:46.895Z</time></trkpt><trkpt lat="37.7740198" lon="13.6851783"><ele>474.0</ele><time>2026-05-01T08:52:47.895Z</time></trkpt><trkpt lat="37.7739097" lon="13.6852503"><ele>470.5</ele><time>2026-05-01T08:52:48.895Z</time></trkpt><trkpt lat="37.7738148" lon="13.6853511"><ele>467.0</ele><time>2026-05-01T08:52:49.895Z</time></trkpt><trkpt lat="37.7737486" lon="13.6855035"><ele>463.5</ele><time>2026-05-01T08:52:50.896Z</time></trkpt><trkpt lat="37.7737034" lon="13.6856912"><ele>460.0</ele><time>2026-05-01T08:52:51.895Z</time></trkpt><trkpt lat="37.7736778" lon="13.6858713"><ele>460.0</ele><time>2026-05-01T08:52:52.895Z</time></trkpt><trkpt lat="37.7736851" lon="13.6860537"><ele>460.0</ele><time>2026-05-01T08:52:53.896Z</time></trkpt><trkpt lat="37.7737312" lon="13.6862391"><ele>460.0</ele><time>2026-05-01T08:52:54.895Z</time></trkpt><trkpt lat="37.7738117" lon="13.6864247"><ele>461.0</ele><time>2026-05-01T08:52:55.896Z</time></trkpt><trkpt lat="37.773888" lon="13.6866027"><ele>462.0</ele><time>2026-05-01T08:52:56.895Z</time></trkpt><trkpt lat="37.7739298" lon="13.6867659"><ele>463.0</ele><time>2026-05-01T08:52:57.895Z</time></trkpt><trkpt lat="37.7739438" lon="13.6869268"><ele>464.0</ele><time>2026-05-01T08:52:58.896Z</time></trkpt><trkpt lat="37.7739252" lon="13.6870887"><ele>464.0</ele><time>2026-05-01T08:52:59.895Z</time></trkpt><trkpt lat="37.7738731" lon="13.6872435"><ele>464.0</ele><time>2026-05-01T08:53:00.895Z</time></trkpt><trkpt lat="37.7737729" lon="13.6874082"><ele>464.0</ele><time>2026-05-01T08:53:01.895Z</time></trkpt><trkpt lat="37.7736449" lon="13.68759"><ele>466.3333333333333</ele><time>2026-05-01T08:53:02.895Z</time></trkpt><trkpt lat="37.7734958" lon="13.6877859"><ele>468.66666666666663</ele><time>2026-05-01T08:53:03.896Z</time></trkpt><trkpt lat="37.773348" lon="13.6879865"><ele>471.0</ele><time>2026-05-01T08:53:04.895Z</time></trkpt><trkpt lat="37.7732187" lon="13.6881664"><ele>471.0</ele><time>2026-05-01T08:53:05.896Z</time></trkpt><trkpt lat="37.7730891" lon="13.6883113"><ele>471.0</ele><time>2026-05-01T08:53:06.895Z</time></trkpt><trkpt lat="37.7729491" lon="13.6884178"><ele>471.0</ele><time>2026-05-01T08:53:07.895Z</time></trkpt><trkpt lat="37.7728081" lon="13.6885157"><ele>472.25</ele><time>2026-05-01T08:53:08.896Z</time></trkpt><trkpt lat="37.7726819" lon="13.6886071"><ele>473.5</ele><time>2026-05-01T08:53:09.896Z</time></trkpt><trkpt lat="37.7725726" lon="13.6886959"><ele>474.75</ele><time>2026-05-01T08:53:10.895Z</time></trkpt><trkpt lat="37.7724767" lon="13.6887856"><ele>476.0</ele><time>2026-05-01T08:53:11.896Z</time></trkpt><trkpt lat="37.7723979" lon="13.6888762"><ele>476.0</ele><time>2026-05-01T08:53:12.895Z</time></trkpt><trkpt lat="37.7723295" lon="13.6889557"><ele>476.0</ele><time>2026-05-01T08:53:13.895Z</time></trkpt><trkpt lat="37.7722642" lon="13.6890347"><ele>476.0</ele><time>2026-05-01T08:53:14.896Z</time></trkpt><trkpt lat="37.7721996" lon="13.6891197"><ele>476.0</ele><time>2026-05-01T08:53:15.896Z</time></trkpt><trkpt lat="37.7721355" lon="13.689203"><ele>476.0</ele><time>2026-05-01T08:53:16.896Z</time></trkpt><trkpt lat="37.772071" lon="13.6892932"><ele>476.0</ele><time>2026-05-01T08:53:17.895Z</time></trkpt><trkpt lat="37.7720152" lon="13.6893896"><ele>476.0</ele><time>2026-05-01T08:53:18.895Z</time></trkpt><trkpt lat="37.7719701" lon="13.6894933"><ele>476.0</ele><time>2026-05-01T08:53:19.896Z</time></trkpt><trkpt lat="37.7719451" lon="13.6896113"><ele>476.0</ele><time>2026-05-01T08:53:20.895Z</time></trkpt><trkpt lat="37.7719318" lon="13.6897366"><ele>476.0</ele><time>2026-05-01T08:53:21.895Z</time></trkpt><trkpt lat="37.7719132" lon="13.6898641"><ele>475.75</ele><time>2026-05-01T08:53:22.895Z</time></trkpt><trkpt lat="37.771901" lon="13.6899989"><ele>475.5</ele><time>2026-05-01T08:53:23.896Z</time></trkpt><trkpt lat="37.7718969" lon="13.6901408"><ele>475.25</ele><time>2026-05-01T08:53:24.895Z</time></trkpt><trkpt lat="37.7718936" lon="13.6902857"><ele>475.0</ele><time>2026-05-01T08:53:25.896Z</time></trkpt><trkpt lat="37.7718883" lon="13.6904351"><ele>476.75</ele><time>2026-05-01T08:53:26.895Z</time></trkpt><trkpt lat="37.7718855" lon="13.6905842"><ele>478.5</ele><time>2026-05-01T08:53:27.895Z</time></trkpt><trkpt lat="37.7718819" lon="13.6907566"><ele>480.25</ele><time>2026-05-01T08:53:28.896Z</time></trkpt><trkpt lat="37.7718823" lon="13.6909517"><ele>482.0</ele><time>2026-05-01T08:53:29.896Z</time></trkpt><trkpt lat="37.7718807" lon="13.6911695"><ele>483.0</ele><time>2026-05-01T08:53:30.895Z</time></trkpt><trkpt lat="37.7718796" lon="13.691385"><ele>484.0</ele><time>2026-05-01T08:53:31.896Z</time></trkpt><trkpt lat="37.7718915" lon="13.6915878"><ele>485.0</ele><time>2026-05-01T08:53:32.895Z</time></trkpt><trkpt lat="37.7719158" lon="13.6917938"><ele>487.66666666666663</ele><time>2026-05-01T08:53:33.896Z</time></trkpt><trkpt lat="37.7719549" lon="13.6920159"><ele>490.33333333333337</ele><time>2026-05-01T08:53:34.895Z</time></trkpt><trkpt lat="37.7720108" lon="13.6922387"><ele>493.0</ele><time>2026-05-01T08:53:35.895Z</time></trkpt><trkpt lat="37.7720743" lon="13.692432"><ele>493.0</ele><time>2026-05-01T08:53:36.895Z</time></trkpt><trkpt lat="37.7721365" lon="13.692606"><ele>493.0</ele><time>2026-05-01T08:53:37.896Z</time></trkpt><trkpt lat="37.7721928" lon="13.6927578"><ele>493.0</ele><time>2026-05-01T08:53:38.896Z</time></trkpt><trkpt lat="37.7722551" lon="13.6928956"><ele>493.0</ele><time>2026-05-01T08:53:39.895Z</time></trkpt><trkpt lat="37.7723209" lon="13.6930351"><ele>495.25</ele><time>2026-05-01T08:53:40.896Z</time></trkpt><trkpt lat="37.7723786" lon="13.6931729"><ele>497.5</ele><time>2026-05-01T08:53:41.896Z</time></trkpt><trkpt lat="37.772434" lon="13.693301"><ele>499.75</ele><time>2026-05-01T08:53:42.895Z</time></trkpt><trkpt lat="37.772487" lon="13.6934337"><ele>502.0</ele><time>2026-05-01T08:53:43.896Z</time></trkpt><trkpt lat="37.7725258" lon="13.6935559"><ele>502.6</ele><time>2026-05-01T08:53:44.896Z</time></trkpt><trkpt lat="37.7725515" lon="13.6936688"><ele>503.20000000000005</ele><time>2026-05-01T08:53:45.896Z</time></trkpt><trkpt lat="37.772578" lon="13.6937863"><ele>503.8</ele><time>2026-05-01T08:53:46.896Z</time></trkpt><trkpt lat="37.7726117" lon="13.693901"><ele>504.4</ele><time>2026-05-01T08:53:47.895Z</time></trkpt><trkpt lat="37.7726582" lon="13.6940328"><ele>505.0</ele><time>2026-05-01T08:53:48.896Z</time></trkpt><trkpt lat="37.7727358" lon="13.6941888"><ele>505.0</ele><time>2026-05-01T08:53:49.896Z</time></trkpt><trkpt lat="37.77282" lon="13.6943589"><ele>505.0</ele><time>2026-05-01T08:53:50.896Z</time></trkpt><trkpt lat="37.7729117" lon="13.6945359"><ele>505.0</ele><time>2026-05-01T08:53:51.895Z</time></trkpt><trkpt lat="37.7730012" lon="13.6947148"><ele>506.0</ele><time>2026-05-01T08:53:52.896Z</time></trkpt><trkpt lat="37.7731025" lon="13.6949061"><ele>507.0</ele><time>2026-05-01T08:53:53.896Z</time></trkpt><trkpt lat="37.7732147" lon="13.6950998"><ele>508.0</ele><time>2026-05-01T08:53:54.895Z</time></trkpt><trkpt lat="37.7733278" lon="13.6952865"><ele>508.0</ele><time>2026-05-01T08:53:55.896Z</time></trkpt><trkpt lat="37.7734304" lon="13.6954561"><ele>508.0</ele><time>2026-05-01T08:53:56.896Z</time></trkpt><trkpt lat="37.7735133" lon="13.6956187"><ele>508.0</ele><time>2026-05-01T08:53:57.896Z</time></trkpt><trkpt lat="37.7735899" lon="13.6957766"><ele>512.25</ele><time>2026-05-01T08:53:58.895Z</time></trkpt><trkpt lat="37.773658" lon="13.695945"><ele>516.5</ele><time>2026-05-01T08:53:59.895Z</time></trkpt><trkpt lat="37.773713" lon="13.6961211"><ele>520.75</ele><time>2026-05-01T08:54:00.896Z</time></trkpt><trkpt lat="37.7737464" lon="13.6963039"><ele>525.0</ele><time>2026-05-01T08:54:01.895Z</time></trkpt><trkpt lat="37.7737667" lon="13.6964806"><ele>525.5</ele><time>2026-05-01T08:54:02.896Z</time></trkpt><trkpt lat="37.7737672" lon="13.6966434"><ele>526.0</ele><time>2026-05-01T08:54:03.896Z</time></trkpt><trkpt lat="37.7737549" lon="13.6968028"><ele>526.5</ele><time>2026-05-01T08:54:04.896Z</time></trkpt><trkpt lat="37.7737391" lon="13.6969582"><ele>527.0</ele><time>2026-05-01T08:54:05.895Z</time></trkpt><trkpt lat="37.7737197" lon="13.6971075"><ele>527.6</ele><time>2026-05-01T08:54:06.896Z</time></trkpt><trkpt lat="37.7737047" lon="13.6972433"><ele>528.2</ele><time>2026-05-01T08:54:07.895Z</time></trkpt><trkpt lat="37.7736909" lon="13.6973715"><ele>528.8</ele><time>2026-05-01T08:54:08.895Z</time></trkpt><trkpt lat="37.7736817" lon="13.6975097"><ele>529.4</ele><time>2026-05-01T08:54:09.895Z</time></trkpt><trkpt lat="37.773683" lon="13.6976637"><ele>530.0</ele><time>2026-05-01T08:54:10.896Z</time></trkpt><trkpt lat="37.7736939" lon="13.6978119"><ele>530.5</ele><time>2026-05-01T08:54:11.895Z</time></trkpt><trkpt lat="37.7737097" lon="13.6979559"><ele>531.0</ele><time>2026-05-01T08:54:12.896Z</time></trkpt><trkpt lat="37.7737243" lon="13.6980973"><ele>531.5</ele><time>2026-05-01T08:54:13.896Z</time></trkpt><trkpt lat="37.7737391" lon="13.6982395"><ele>532.0</ele><time>2026-05-01T08:54:14.895Z</time></trkpt><trkpt lat="37.7737562" lon="13.6983781"><ele>532.0</ele><time>2026-05-01T08:54:15.895Z</time></trkpt><trkpt lat="37.7737705" lon="13.6985071"><ele>532.0</ele><time>2026-05-01T08:54:16.896Z</time></trkpt><trkpt lat="37.7737771" lon="13.6986381"><ele>532.0</ele><time>2026-05-01T08:54:17.895Z</time></trkpt><trkpt lat="37.7737615" lon="13.6987759"><ele>532.0</ele><time>2026-05-01T08:54:18.896Z</time></trkpt><trkpt lat="37.7737298" lon="13.6989168"><ele>532.0</ele><time>2026-05-01T08:54:19.895Z</time></trkpt><trkpt lat="37.7736852" lon="13.6990349"><ele>531.0</ele><time>2026-05-01T08:54:20.895Z</time></trkpt><trkpt lat="37.773627" lon="13.6991425"><ele>530.0</ele><time>2026-05-01T08:54:21.896Z</time></trkpt><trkpt lat="37.7735571" lon="13.6992446"><ele>529.0</ele><time>2026-05-01T08:54:22.895Z</time></trkpt><trkpt lat="37.7734733" lon="13.6993408"><ele>528.0</ele><time>2026-05-01T08:54:23.895Z</time></trkpt><trkpt lat="37.7733718" lon="13.6994324"><ele>527.0</ele><time>2026-05-01T08:54:24.895Z</time></trkpt><trkpt lat="37.7732698" lon="13.6995217"><ele>530.0</ele><time>2026-05-01T08:54:25.896Z</time></trkpt><trkpt lat="37.7731841" lon="13.6996369"><ele>533.0</ele><time>2026-05-01T08:54:26.896Z</time></trkpt><trkpt lat="37.7731188" lon="13.6997648"><ele>536.0</ele><time>2026-05-01T08:54:27.896Z</time></trkpt><trkpt lat="37.7730649" lon="13.6999037"><ele>539.0</ele><time>2026-05-01T08:54:28.896Z</time></trkpt><trkpt lat="37.7730253" lon="13.7000391"><ele>539.0</ele><time>2026-05-01T08:54:29.896Z</time></trkpt><trkpt lat="37.772994" lon="13.7001644"><ele>539.0</ele><time>2026-05-01T08:54:30.895Z</time></trkpt><trkpt lat="37.7729619" lon="13.7002801"><ele>539.0</ele><time>2026-05-01T08:54:31.895Z</time></trkpt><trkpt lat="37.772938" lon="13.7003944"><ele>539.0</ele><time>2026-05-01T08:54:32.895Z</time></trkpt><trkpt lat="37.7729371" lon="13.7005139"><ele>539.0</ele><time>2026-05-01T08:54:33.896Z</time></trkpt><trkpt lat="37.7729667" lon="13.7006356"><ele>539.0</ele><time>2026-05-01T08:54:34.896Z</time></trkpt><trkpt lat="37.7730301" lon="13.7007708"><ele>539.0</ele><time>2026-05-01T08:54:35.895Z</time></trkpt><trkpt lat="37.7731275" lon="13.700935"><ele>539.0</ele><time>2026-05-01T08:54:36.895Z</time></trkpt><trkpt lat="37.7732274" lon="13.70114"><ele>539.0</ele><time>2026-05-01T08:54:37.895Z</time></trkpt><trkpt lat="37.7733297" lon="13.701387"><ele>539.0</ele><time>2026-05-01T08:54:38.896Z</time></trkpt><trkpt lat="37.7734314" lon="13.7016364"><ele>539.0</ele><time>2026-05-01T08:54:39.895Z</time></trkpt><trkpt lat="37.7735312" lon="13.7018829"><ele>545.6666666666666</ele><time>2026-05-01T08:54:40.895Z</time></trkpt><trkpt lat="37.7736235" lon="13.7021332"><ele>552.3333333333334</ele><time>2026-05-01T08:54:41.896Z</time></trkpt><trkpt lat="37.7736871" lon="13.7023905"><ele>559.0</ele><time>2026-05-01T08:54:42.895Z</time></trkpt><trkpt lat="37.7737253" lon="13.7026478"><ele>559.6666666666667</ele><time>2026-05-01T08:54:43.895Z</time></trkpt><trkpt lat="37.773764" lon="13.7028984"><ele>560.3333333333334</ele><time>2026-05-01T08:54:44.895Z</time></trkpt><trkpt lat="37.7738254" lon="13.7031393"><ele>561.0</ele><time>2026-05-01T08:54:45.895Z</time></trkpt><trkpt lat="37.7739005" lon="13.7033814"><ele>560.6666666666666</ele><time>2026-05-01T08:54:46.895Z</time></trkpt><trkpt lat="37.7739972" lon="13.7036095"><ele>560.3333333333333</ele><time>2026-05-01T08:54:47.895Z</time></trkpt><trkpt lat="37.7741099" lon="13.703819"><ele>560.0</ele><time>2026-05-01T08:54:48.895Z</time></trkpt><trkpt lat="37.7742228" lon="13.7040111"><ele>560.0</ele><time>2026-05-01T08:54:49.896Z</time></trkpt><trkpt lat="37.7743087" lon="13.7042197"><ele>560.0</ele><time>2026-05-01T08:54:50.896Z</time></trkpt><trkpt lat="37.7743703" lon="13.7044585"><ele>560.0</ele><time>2026-05-01T08:54:51.896Z</time></trkpt><trkpt lat="37.7744144" lon="13.7047232"><ele>568.3333333333333</ele><time>2026-05-01T08:54:52.895Z</time></trkpt><trkpt lat="37.7744509" lon="13.7049777"><ele>576.6666666666666</ele><time>2026-05-01T08:54:53.895Z</time></trkpt><trkpt lat="37.7744843" lon="13.7052061"><ele>585.0</ele><time>2026-05-01T08:54:54.895Z</time></trkpt><trkpt lat="37.774504" lon="13.7054221"><ele>585.6666666666666</ele><time>2026-05-01T08:54:55.896Z</time></trkpt><trkpt lat="37.7744935" lon="13.7056339"><ele>586.3333333333333</ele><time>2026-05-01T08:54:56.896Z</time></trkpt><trkpt lat="37.7744502" lon="13.7058507"><ele>587.0</ele><time>2026-05-01T08:54:57.895Z</time></trkpt><trkpt lat="37.7743579" lon="13.7060705"><ele>584.6666666666666</ele><time>2026-05-01T08:54:58.895Z</time></trkpt><trkpt lat="37.77425" lon="13.7062959"><ele>582.3333333333334</ele><time>2026-05-01T08:54:59.895Z</time></trkpt><trkpt lat="37.7741474" lon="13.7064982"><ele>580.0</ele><time>2026-05-01T08:55:00.895Z</time></trkpt><trkpt lat="37.7740568" lon="13.7067008"><ele>583.3333333333334</ele><time>2026-05-01T08:55:01.896Z</time></trkpt><trkpt lat="37.7739909" lon="13.7069387"><ele>586.6666666666666</ele><time>2026-05-01T08:55:02.895Z</time></trkpt><trkpt lat="37.7739396" lon="13.7071918"><ele>590.0</ele><time>2026-05-01T08:55:03.896Z</time></trkpt><trkpt lat="37.773894" lon="13.707443"><ele>590.0</ele><time>2026-05-01T08:55:04.896Z</time></trkpt><trkpt lat="37.7738462" lon="13.7076781"><ele>590.0</ele><time>2026-05-01T08:55:05.895Z</time></trkpt><trkpt lat="37.7738033" lon="13.7079216"><ele>590.0</ele><time>2026-05-01T08:55:06.895Z</time></trkpt><trkpt lat="37.7737773" lon="13.7081694"><ele>591.0</ele><time>2026-05-01T08:55:07.896Z</time></trkpt><trkpt lat="37.7737686" lon="13.708406"><ele>592.0</ele><time>2026-05-01T08:55:08.895Z</time></trkpt><trkpt lat="37.7737579" lon="13.7085964"><ele>593.0</ele><time>2026-05-01T08:55:09.895Z</time></trkpt><trkpt lat="37.773727" lon="13.7087585"><ele>590.75</ele><time>2026-05-01T08:55:10.896Z</time></trkpt><trkpt lat="37.7736702" lon="13.7089066"><ele>588.5</ele><time>2026-05-01T08:55:11.895Z</time></trkpt><trkpt lat="37.7735923" lon="13.7090274"><ele>586.25</ele><time>2026-05-01T08:55:12.895Z</time></trkpt><trkpt lat="37.773487" lon="13.7091372"><ele>584.0</ele><time>2026-05-01T08:55:13.895Z</time></trkpt><trkpt lat="37.7733661" lon="13.7092446"><ele>584.0</ele><time>2026-05-01T08:55:14.895Z</time></trkpt><trkpt lat="37.7732582" lon="13.7093842"><ele>584.0</ele><time>2026-05-01T08:55:15.895Z</time></trkpt><trkpt lat="37.773159" lon="13.7095776"><ele>584.0</ele><time>2026-05-01T08:55:16.895Z</time></trkpt><trkpt lat="37.7730704" lon="13.7098313"><ele>587.6666666666666</ele><time>2026-05-01T08:55:17.896Z</time></trkpt><trkpt lat="37.7729812" lon="13.7100944"><ele>591.3333333333334</ele><time>2026-05-01T08:55:18.895Z</time></trkpt><trkpt lat="37.7728774" lon="13.710329"><ele>595.0</ele><time>2026-05-01T08:55:19.895Z</time></trkpt><trkpt lat="37.7727892" lon="13.710509"><ele>596.5</ele><time>2026-05-01T08:55:20.895Z</time></trkpt><trkpt lat="37.7727277" lon="13.7106881"><ele>598.0</ele><time>2026-05-01T08:55:21.896Z</time></trkpt><trkpt lat="37.7727023" lon="13.7108776"><ele>599.5</ele><time>2026-05-01T08:55:22.895Z</time></trkpt><trkpt lat="37.7726883" lon="13.7110496"><ele>601.0</ele><time>2026-05-01T08:55:23.895Z</time></trkpt><trkpt lat="37.7726672" lon="13.7111865"><ele>601.0</ele><time>2026-05-01T08:55:24.895Z</time></trkpt><trkpt lat="37.7726449" lon="13.7112778"><ele>601.0</ele><time>2026-05-01T08:55:25.895Z</time></trkpt><trkpt lat="37.772659" lon="13.7113739"><ele>601.0</ele><time>2026-05-01T08:55:27.895Z</time></trkpt><trkpt lat="37.7727602" lon="13.7113889"><ele>601.0</ele><time>2026-05-01T08:55:29.896Z</time></trkpt><trkpt lat="37.7728078" lon="13.7113313"><ele>601.0</ele><time>2026-05-01T08:55:30.895Z</time></trkpt><trkpt lat="37.7728451" lon="13.7112479"><ele>601.0</ele><time>2026-05-01T08:55:31.895Z</time></trkpt><trkpt lat="37.7728766" lon="13.7111326"><ele>603.0</ele><time>2026-05-01T08:55:32.895Z</time></trkpt><trkpt lat="37.7729225" lon="13.7110046"><ele>605.0</ele><time>2026-05-01T08:55:33.895Z</time></trkpt><trkpt lat="37.7730001" lon="13.7108856"><ele>607.0</ele><time>2026-05-01T08:55:34.895Z</time></trkpt><trkpt lat="37.7731339" lon="13.7107544"><ele>609.0</ele><time>2026-05-01T08:55:35.895Z</time></trkpt><trkpt lat="37.7732969" lon="13.7105809"><ele>609.0</ele><time>2026-05-01T08:55:36.896Z</time></trkpt><trkpt lat="37.7734958" lon="13.7104581"><ele>609.0</ele><time>2026-05-01T08:55:37.896Z</time></trkpt><trkpt lat="37.7736531" lon="13.7102442"><ele>612.0</ele><time>2026-05-01T08:55:38.895Z</time></trkpt><trkpt lat="37.773798" lon="13.7100159"><ele>615.0</ele><time>2026-05-01T08:55:39.896Z</time></trkpt><trkpt lat="37.7739338" lon="13.7097775"><ele>615.0</ele><time>2026-05-01T08:55:40.895Z</time></trkpt><trkpt lat="37.7740588" lon="13.7095438"><ele>615.0</ele><time>2026-05-01T08:55:41.896Z</time></trkpt><trkpt lat="37.7741742" lon="13.7093196"><ele>615.0</ele><time>2026-05-01T08:55:42.896Z</time></trkpt><trkpt lat="37.7743015" lon="13.709118"><ele>618.6666666666666</ele><time>2026-05-01T08:55:43.895Z</time></trkpt><trkpt lat="37.7744244" lon="13.7089477"><ele>622.3333333333333</ele><time>2026-05-01T08:55:44.895Z</time></trkpt><trkpt lat="37.7745309" lon="13.7088077"><ele>626.0</ele><time>2026-05-01T08:55:45.896Z</time></trkpt><trkpt lat="37.7746166" lon="13.7086927"><ele>626.0</ele><time>2026-05-01T08:55:46.896Z</time></trkpt><trkpt lat="37.7747173" lon="13.7086093"><ele>626.0</ele><time>2026-05-01T08:55:47.896Z</time></trkpt><trkpt lat="37.774841" lon="13.7085555"><ele>626.0</ele><time>2026-05-01T08:55:48.896Z</time></trkpt><trkpt lat="37.7749895" lon="13.7085244"><ele>626.0</ele><time>2026-05-01T08:55:49.895Z</time></trkpt><trkpt lat="37.775133" lon="13.7084965"><ele>624.0</ele><time>2026-05-01T08:55:50.895Z</time></trkpt><trkpt lat="37.775272" lon="13.7084788"><ele>622.0</ele><time>2026-05-01T08:55:51.895Z</time></trkpt><trkpt lat="37.7754151" lon="13.7084862"><ele>620.0</ele><time>2026-05-01T08:55:52.895Z</time></trkpt><trkpt lat="37.7755735" lon="13.708515"><ele>618.0</ele><time>2026-05-01T08:55:53.895Z</time></trkpt><trkpt lat="37.7757142" lon="13.7085446"><ele>618.0</ele><time>2026-05-01T08:55:54.896Z</time></trkpt><trkpt lat="37.7758203" lon="13.7085647"><ele>618.0</ele><time>2026-05-01T08:55:55.895Z</time></trkpt><trkpt lat="37.7758881" lon="13.7085803"><ele>618.0</ele><time>2026-05-01T08:55:56.895Z</time></trkpt><trkpt lat="37.7759341" lon="13.7086703"><ele>618.0</ele><time>2026-05-01T08:55:58.895Z</time></trkpt><trkpt lat="37.7758553" lon="13.7087895"><ele>618.0</ele><time>2026-05-01T08:56:00.896Z</time></trkpt><trkpt lat="37.7757845" lon="13.7088269"><ele>621.5</ele><time>2026-05-01T08:56:01.896Z</time></trkpt><trkpt lat="37.77569" lon="13.7088567"><ele>625.0</ele><time>2026-05-01T08:56:02.896Z</time></trkpt><trkpt lat="37.7755592" lon="13.7088805"><ele>628.5</ele><time>2026-05-01T08:56:03.896Z</time></trkpt><trkpt lat="37.7754124" lon="13.7089103"><ele>632.0</ele><time>2026-05-01T08:56:04.895Z</time></trkpt><trkpt lat="37.7752866" lon="13.7089501"><ele>630.5</ele><time>2026-05-01T08:56:05.896Z</time></trkpt><trkpt lat="37.7751785" lon="13.7090171"><ele>629.0</ele><time>2026-05-01T08:56:06.895Z</time></trkpt><trkpt lat="37.775085" lon="13.7091165"><ele>627.5</ele><time>2026-05-01T08:56:07.896Z</time></trkpt><trkpt lat="37.7750184" lon="13.7092437"><ele>626.0</ele><time>2026-05-01T08:56:08.895Z</time></trkpt><trkpt lat="37.7749711" lon="13.7093931"><ele>627.1666666666666</ele><time>2026-05-01T08:56:09.895Z</time></trkpt><trkpt lat="37.7749396" lon="13.7095459"><ele>628.3333333333333</ele><time>2026-05-01T08:56:10.896Z</time></trkpt><trkpt lat="37.7749265" lon="13.7096648"><ele>629.5</ele><time>2026-05-01T08:56:11.896Z</time></trkpt><trkpt lat="37.7749324" lon="13.7097466"><ele>630.6666666666666</ele><time>2026-05-01T08:56:12.895Z</time></trkpt><trkpt lat="37.7749822" lon="13.7098062"><ele>631.8333333333334</ele><time>2026-05-01T08:56:13.895Z</time></trkpt><trkpt lat="37.7750509" lon="13.7098091"><ele>633.0</ele><time>2026-05-01T08:56:14.896Z</time></trkpt><trkpt lat="37.7751231" lon="13.7097639"><ele>633.0</ele><time>2026-05-01T08:56:15.896Z</time></trkpt><trkpt lat="37.7751852" lon="13.7096679"><ele>633.0</ele><time>2026-05-01T08:56:16.895Z</time></trkpt><trkpt lat="37.7752469" lon="13.7095389"><ele>633.0</ele><time>2026-05-01T08:56:17.895Z</time></trkpt><trkpt lat="37.7753144" lon="13.7094414"><ele>633.0</ele><time>2026-05-01T08:56:18.896Z</time></trkpt><trkpt lat="37.7753991" lon="13.7093919"><ele>633.0</ele><time>2026-05-01T08:56:19.895Z</time></trkpt><trkpt lat="37.77551" lon="13.7093832"><ele>636.25</ele><time>2026-05-01T08:56:20.895Z</time></trkpt><trkpt lat="37.7756323" lon="13.7094205"><ele>639.5</ele><time>2026-05-01T08:56:21.895Z</time></trkpt><trkpt lat="37.7757473" lon="13.709471"><ele>642.75</ele><time>2026-05-01T08:56:22.895Z</time></trkpt><trkpt lat="37.7758695" lon="13.7094909"><ele>646.0</ele><time>2026-05-01T08:56:23.896Z</time></trkpt><trkpt lat="37.7760054" lon="13.7094698"><ele>645.4</ele><time>2026-05-01T08:56:24.896Z</time></trkpt><trkpt lat="37.7761388" lon="13.7094198"><ele>644.8</ele><time>2026-05-01T08:56:25.895Z</time></trkpt><trkpt lat="37.7762424" lon="13.7094016"><ele>644.1999999999999</ele><time>2026-05-01T08:56:26.895Z</time></trkpt><trkpt lat="37.7763378" lon="13.7094138"><ele>643.5999999999999</ele><time>2026-05-01T08:56:27.896Z</time></trkpt><trkpt lat="37.7764335" lon="13.7094633"><ele>643.0</ele><time>2026-05-01T08:56:28.896Z</time></trkpt><trkpt lat="37.7765108" lon="13.7095483"><ele>643.0</ele><time>2026-05-01T08:56:29.896Z</time></trkpt><trkpt lat="37.7765807" lon="13.7096506"><ele>643.0</ele><time>2026-05-01T08:56:30.896Z</time></trkpt><trkpt lat="37.776654" lon="13.7097631"><ele>643.0</ele><time>2026-05-01T08:56:31.896Z</time></trkpt><trkpt lat="37.776728" lon="13.7098779"><ele>643.0</ele><time>2026-05-01T08:56:32.896Z</time></trkpt><trkpt lat="37.7768028" lon="13.7099991"><ele>641.5</ele><time>2026-05-01T08:56:33.895Z</time></trkpt><trkpt lat="37.7768788" lon="13.7101186"><ele>640.0</ele><time>2026-05-01T08:56:34.895Z</time></trkpt><trkpt lat="37.7769541" lon="13.7102339"><ele>638.5</ele><time>2026-05-01T08:56:35.895Z</time></trkpt><trkpt lat="37.7770317" lon="13.7103457"><ele>637.0</ele><time>2026-05-01T08:56:36.895Z</time></trkpt><trkpt lat="37.7771118" lon="13.7104527"><ele>640.5</ele><time>2026-05-01T08:56:37.895Z</time></trkpt><trkpt lat="37.7772081" lon="13.7105472"><ele>644.0</ele><time>2026-05-01T08:56:38.896Z</time></trkpt><trkpt lat="37.7773144" lon="13.7106297"><ele>647.5</ele><time>2026-05-01T08:56:39.895Z</time></trkpt><trkpt lat="37.7774346" lon="13.710682"><ele>651.0</ele><time>2026-05-01T08:56:40.895Z</time></trkpt><trkpt lat="37.7775582" lon="13.7106913"><ele>651.0</ele><time>2026-05-01T08:56:41.895Z</time></trkpt><trkpt lat="37.7776736" lon="13.7107084"><ele>651.0</ele><time>2026-05-01T08:56:42.896Z</time></trkpt><trkpt lat="37.7777954" lon="13.7107312"><ele>651.0</ele><time>2026-05-01T08:56:43.895Z</time></trkpt><trkpt lat="37.7779146" lon="13.7107554"><ele>651.0</ele><time>2026-05-01T08:56:44.895Z</time></trkpt><trkpt lat="37.7780228" lon="13.7107879"><ele>651.0</ele><time>2026-05-01T08:56:45.896Z</time></trkpt><trkpt lat="37.7781243" lon="13.7108214"><ele>651.0</ele><time>2026-05-01T08:56:46.895Z</time></trkpt><trkpt lat="37.7782259" lon="13.7108555"><ele>651.0</ele><time>2026-05-01T08:56:47.895Z</time></trkpt><trkpt lat="37.7783176" lon="13.7108831"><ele>651.0</ele><time>2026-05-01T08:56:48.896Z</time></trkpt><trkpt lat="37.778391" lon="13.7108999"><ele>651.0</ele><time>2026-05-01T08:56:49.895Z</time></trkpt><trkpt lat="37.7784936" lon="13.7109347"><ele>651.0</ele><time>2026-05-01T08:56:51.896Z</time></trkpt><trkpt lat="37.7785526" lon="13.7109891"><ele>651.0</ele><time>2026-05-01T08:56:53.896Z</time></trkpt><trkpt lat="37.778557" lon="13.7110823"><ele>651.0</ele><time>2026-05-01T08:56:55.897Z</time></trkpt><trkpt lat="37.778479" lon="13.7111339"><ele>651.0</ele><time>2026-05-01T08:56:57.897Z</time></trkpt><trkpt lat="37.7783714" lon="13.7110978"><ele>651.0</ele><time>2026-05-01T08:56:59.896Z</time></trkpt><trkpt lat="37.7782974" lon="13.711075"><ele>651.0</ele><time>2026-05-01T08:57:00.896Z</time></trkpt><trkpt lat="37.7782235" lon="13.7110616"><ele>651.0</ele><time>2026-05-01T08:57:01.897Z</time></trkpt><trkpt lat="37.778152" lon="13.7110637"><ele>651.0</ele><time>2026-05-01T08:57:02.897Z</time></trkpt><trkpt lat="37.7780763" lon="13.7110922"><ele>651.0</ele><time>2026-05-01T08:57:03.896Z</time></trkpt><trkpt lat="37.7780032" lon="13.7111455"><ele>651.0</ele><time>2026-05-01T08:57:04.897Z</time></trkpt><trkpt lat="37.7779403" lon="13.7112044"><ele>651.0</ele><time>2026-05-01T08:57:05.896Z</time></trkpt><trkpt lat="37.7778815" lon="13.7112662"><ele>651.0</ele><time>2026-05-01T08:57:06.896Z</time></trkpt><trkpt lat="37.7778269" lon="13.7113219"><ele>654.3333333333334</ele><time>2026-05-01T08:57:07.896Z</time></trkpt><trkpt lat="37.7777687" lon="13.7113706"><ele>657.6666666666666</ele><time>2026-05-01T08:57:08.897Z</time></trkpt><trkpt lat="37.7777049" lon="13.7114145"><ele>661.0</ele><time>2026-05-01T08:57:09.896Z</time></trkpt><trkpt lat="37.7776313" lon="13.711455"><ele>664.3333333333333</ele><time>2026-05-01T08:57:10.896Z</time></trkpt><trkpt lat="37.777558" lon="13.7114893"><ele>667.6666666666666</ele><time>2026-05-01T08:57:11.896Z</time></trkpt><trkpt lat="37.7774838" lon="13.7115166"><ele>671.0</ele><time>2026-05-01T08:57:12.897Z</time></trkpt><trkpt lat="37.777409" lon="13.711525"><ele>671.0</ele><time>2026-05-01T08:57:13.897Z</time></trkpt><trkpt lat="37.7773421" lon="13.7115286"><ele>671.0</ele><time>2026-05-01T08:57:14.896Z</time></trkpt><trkpt lat="37.7772725" lon="13.7115314"><ele>671.0</ele><time>2026-05-01T08:57:15.897Z</time></trkpt><trkpt lat="37.7772026" lon="13.7115236"><ele>671.0</ele><time>2026-05-01T08:57:16.896Z</time></trkpt><trkpt lat="37.7771296" lon="13.7115146"><ele>671.0</ele><time>2026-05-01T08:57:17.896Z</time></trkpt><trkpt lat="37.7770551" lon="13.71151"><ele>671.0</ele><time>2026-05-01T08:57:18.897Z</time></trkpt><trkpt lat="37.7769731" lon="13.7115126"><ele>671.0</ele><time>2026-05-01T08:57:19.896Z</time></trkpt><trkpt lat="37.7768948" lon="13.711516"><ele>671.5</ele><time>2026-05-01T08:57:20.896Z</time></trkpt><trkpt lat="37.7768218" lon="13.7115133"><ele>672.0</ele><time>2026-05-01T08:57:21.896Z</time></trkpt><trkpt lat="37.7767532" lon="13.71151"><ele>672.5</ele><time>2026-05-01T08:57:22.897Z</time></trkpt><trkpt lat="37.7766718" lon="13.7114963"><ele>673.0</ele><time>2026-05-01T08:57:23.896Z</time></trkpt><trkpt lat="37.7765897" lon="13.7114642"><ele>673.5</ele><time>2026-05-01T08:57:24.896Z</time></trkpt><trkpt lat="37.776517" lon="13.7114081"><ele>674.0</ele><time>2026-05-01T08:57:25.897Z</time></trkpt><trkpt lat="37.7764603" lon="13.7113515"><ele>674.0</ele><time>2026-05-01T08:57:26.896Z</time></trkpt><trkpt lat="37.7764074" lon="13.7113045"><ele>674.0</ele><time>2026-05-01T08:57:27.897Z</time></trkpt><trkpt lat="37.7763187" lon="13.7112306"><ele>674.0</ele><time>2026-05-01T08:57:29.897Z</time></trkpt><trkpt lat="37.7762134" lon="13.7111703"><ele>674.0</ele><time>2026-05-01T08:57:31.896Z</time></trkpt><trkpt lat="37.7760957" lon="13.7111769"><ele>674.0</ele><time>2026-05-01T08:57:33.897Z</time></trkpt><trkpt lat="37.7760408" lon="13.7112224"><ele>674.0</ele><time>2026-05-01T08:57:34.897Z</time></trkpt><trkpt lat="37.775989" lon="13.7113035"><ele>674.0</ele><time>2026-05-01T08:57:35.896Z</time></trkpt><trkpt lat="37.7759402" lon="13.7113792"><ele>674.0</ele><time>2026-05-01T08:57:36.896Z</time></trkpt><trkpt lat="37.7758979" lon="13.7114503"><ele>674.0</ele><time>2026-05-01T08:57:37.896Z</time></trkpt><trkpt lat="37.7758574" lon="13.7115232"><ele>674.0</ele><time>2026-05-01T08:57:38.896Z</time></trkpt><trkpt lat="37.7758118" lon="13.7115867"><ele>674.0</ele><time>2026-05-01T08:57:39.897Z</time></trkpt><trkpt lat="37.7757383" lon="13.7116856"><ele>674.0</ele><time>2026-05-01T08:57:41.897Z</time></trkpt><trkpt lat="37.775668" lon="13.7117805"><ele>674.0</ele><time>2026-05-01T08:57:43.896Z</time></trkpt><trkpt lat="37.7755967" lon="13.7118903"><ele>674.0</ele><time>2026-05-01T08:57:45.897Z</time></trkpt><trkpt lat="37.7755576" lon="13.7119537"><ele>674.0</ele><time>2026-05-01T08:57:46.896Z</time></trkpt><trkpt lat="37.7755209" lon="13.7120249"><ele>674.0</ele><time>2026-05-01T08:57:47.897Z</time></trkpt><trkpt lat="37.7754845" lon="13.7120976"><ele>674.0</ele><time>2026-05-01T08:57:48.897Z</time></trkpt><trkpt lat="37.7754511" lon="13.712181"><ele>676.0</ele><time>2026-05-01T08:57:49.897Z</time></trkpt><trkpt lat="37.7754252" lon="13.7122676"><ele>678.0</ele><time>2026-05-01T08:57:50.897Z</time></trkpt><trkpt lat="37.7754092" lon="13.7123493"><ele>680.0</ele><time>2026-05-01T08:57:51.897Z</time></trkpt><trkpt lat="37.7753916" lon="13.712506"><ele>682.0</ele><time>2026-05-01T08:57:53.896Z</time></trkpt><trkpt lat="37.7753779" lon="13.712594"><ele>684.0</ele><time>2026-05-01T08:57:54.897Z</time></trkpt><trkpt lat="37.7753538" lon="13.7126731"><ele>686.0</ele><time>2026-05-01T08:57:55.897Z</time></trkpt><trkpt lat="37.7752797" lon="13.7127973"><ele>687.8</ele><time>2026-05-01T08:57:57.896Z</time></trkpt><trkpt lat="37.775215" lon="13.7128855"><ele>689.5999999999999</ele><time>2026-05-01T08:57:59.897Z</time></trkpt><trkpt lat="37.7752032" lon="13.7130016"><ele>691.4</ele><time>2026-05-01T08:58:01.896Z</time></trkpt><trkpt lat="37.7752565" lon="13.7131238"><ele>693.2</ele><time>2026-05-01T08:58:03.897Z</time></trkpt><trkpt lat="37.7753626" lon="13.7131427"><ele>695.0</ele><time>2026-05-01T08:58:05.897Z</time></trkpt><trkpt lat="37.7754214" lon="13.7131137"><ele>695.0</ele><time>2026-05-01T08:58:06.897Z</time></trkpt><trkpt lat="37.7754812" lon="13.7130604"><ele>695.0</ele><time>2026-05-01T08:58:07.896Z</time></trkpt><trkpt lat="37.77555" lon="13.7129953"><ele>695.0</ele><time>2026-05-01T08:58:08.896Z</time></trkpt><trkpt lat="37.7756439" lon="13.7129002"><ele>695.0</ele><time>2026-05-01T08:58:09.896Z</time></trkpt><trkpt lat="37.7757375" lon="13.7128108"><ele>695.0</ele><time>2026-05-01T08:58:10.896Z</time></trkpt><trkpt lat="37.775819" lon="13.7127468"><ele>694.4</ele><time>2026-05-01T08:58:11.897Z</time></trkpt><trkpt lat="37.7758951" lon="13.7127061"><ele>693.8</ele><time>2026-05-01T08:58:12.896Z</time></trkpt><trkpt lat="37.7759656" lon="13.7126961"><ele>693.2</ele><time>2026-05-01T08:58:13.897Z</time></trkpt><trkpt lat="37.7760736" lon="13.7127373"><ele>692.6</ele><time>2026-05-01T08:58:15.897Z</time></trkpt><trkpt lat="37.7761282" lon="13.7128466"><ele>692.0</ele><time>2026-05-01T08:58:17.896Z</time></trkpt><trkpt lat="37.776172" lon="13.7129545"><ele>694.0</ele><time>2026-05-01T08:58:19.897Z</time></trkpt><trkpt lat="37.7762507" lon="13.713053"><ele>696.0</ele><time>2026-05-01T08:58:21.896Z</time></trkpt><trkpt lat="37.7763694" lon="13.7130893"><ele>698.0</ele><time>2026-05-01T08:58:23.896Z</time></trkpt><trkpt lat="37.7764392" lon="13.7130761"><ele>700.0</ele><time>2026-05-01T08:58:24.896Z</time></trkpt><trkpt lat="37.7765111" lon="13.7130347"><ele>702.0</ele><time>2026-05-01T08:58:25.897Z</time></trkpt><trkpt lat="37.7765892" lon="13.7129742"><ele>702.0</ele><time>2026-05-01T08:58:26.896Z</time></trkpt><trkpt lat="37.7766689" lon="13.7129228"><ele>702.0</ele><time>2026-05-01T08:58:27.897Z</time></trkpt><trkpt lat="37.7767522" lon="13.7128716"><ele>702.0</ele><time>2026-05-01T08:58:28.896Z</time></trkpt><trkpt lat="37.776839" lon="13.7128227"><ele>702.0</ele><time>2026-05-01T08:58:29.897Z</time></trkpt><trkpt lat="37.7769311" lon="13.7127788"><ele>702.0</ele><time>2026-05-01T08:58:30.896Z</time></trkpt><trkpt lat="37.7770387" lon="13.7127453"><ele>702.25</ele><time>2026-05-01T08:58:31.897Z</time></trkpt><trkpt lat="37.777158" lon="13.7127174"><ele>702.5</ele><time>2026-05-01T08:58:32.896Z</time></trkpt><trkpt lat="37.7772702" lon="13.7126899"><ele>702.75</ele><time>2026-05-01T08:58:33.897Z</time></trkpt><trkpt lat="37.7773793" lon="13.7126539"><ele>703.0</ele><time>2026-05-01T08:58:34.897Z</time></trkpt><trkpt lat="37.7774841" lon="13.7126105"><ele>703.0</ele><time>2026-05-01T08:58:35.896Z</time></trkpt><trkpt lat="37.7775837" lon="13.7125734"><ele>703.0</ele><time>2026-05-01T08:58:36.897Z</time></trkpt><trkpt lat="37.7776768" lon="13.7125426"><ele>703.0</ele><time>2026-05-01T08:58:37.896Z</time></trkpt><trkpt lat="37.7777551" lon="13.7125181"><ele>703.0</ele><time>2026-05-01T08:58:38.896Z</time></trkpt><trkpt lat="37.7778276" lon="13.7124979"><ele>703.0</ele><time>2026-05-01T08:58:39.897Z</time></trkpt><trkpt lat="37.7778967" lon="13.712496"><ele>703.0</ele><time>2026-05-01T08:58:40.897Z</time></trkpt><trkpt lat="37.777984" lon="13.7125132"><ele>703.3333333333334</ele><time>2026-05-01T08:58:41.897Z</time></trkpt><trkpt lat="37.7780778" lon="13.7125479"><ele>703.6666666666667</ele><time>2026-05-01T08:58:42.896Z</time></trkpt><trkpt lat="37.7781602" lon="13.7125778"><ele>704.0</ele><time>2026-05-01T08:58:43.896Z</time></trkpt><trkpt lat="37.7782258" lon="13.712623"><ele>704.3333333333334</ele><time>2026-05-01T08:58:44.896Z</time></trkpt><trkpt lat="37.7782931" lon="13.7126952"><ele>704.6666666666666</ele><time>2026-05-01T08:58:46.896Z</time></trkpt><trkpt lat="37.7783748" lon="13.7127575"><ele>705.0</ele><time>2026-05-01T08:58:49.896Z</time></trkpt><trkpt lat="37.7784266" lon="13.7128212"><ele>703.9999999999999</ele><time>2026-05-01T08:58:51.904Z</time></trkpt><trkpt lat="37.7784691" lon="13.7128866"><ele>703.0</ele><time>2026-05-01T08:58:54.903Z</time></trkpt><trkpt lat="37.7785195" lon="13.7129439"><ele>702.0</ele><time>2026-05-01T08:58:59.903Z</time></trkpt><trkpt lat="37.7785596" lon="13.7130284"><ele>701.0</ele><time>2026-05-01T08:59:03.904Z</time></trkpt><trkpt lat="37.7786066" lon="13.7131016"><ele>700.0</ele><time>2026-05-01T08:59:06.903Z</time></trkpt><trkpt lat="37.7786504" lon="13.7131679"><ele>698.9999999999999</ele><time>2026-05-01T08:59:08.903Z</time></trkpt><trkpt lat="37.7787085" lon="13.7132481"><ele>698.0</ele><time>2026-05-01T08:59:10.903Z</time></trkpt><trkpt lat="37.7787808" lon="13.7133563"><ele>698.0</ele><time>2026-05-01T08:59:12.903Z</time></trkpt><trkpt lat="37.7788497" lon="13.7134686"><ele>698.0</ele><time>2026-05-01T08:59:14.903Z</time></trkpt><trkpt lat="37.7789184" lon="13.7135689"><ele>698.0</ele><time>2026-05-01T08:59:16.903Z</time></trkpt><trkpt lat="37.7789836" lon="13.713677"><ele>698.0</ele><time>2026-05-01T08:59:18.904Z</time></trkpt><trkpt lat="37.7790628" lon="13.7137799"><ele>698.0</ele><time>2026-05-01T08:59:20.903Z</time></trkpt><trkpt lat="37.7791353" lon="13.7138885"><ele>699.2</ele><time>2026-05-01T08:59:22.904Z</time></trkpt><trkpt lat="37.7792013" lon="13.7139791"><ele>700.4</ele><time>2026-05-01T08:59:24.903Z</time></trkpt><trkpt lat="37.7792537" lon="13.7140614"><ele>701.6</ele><time>2026-05-01T08:59:26.903Z</time></trkpt><trkpt lat="37.7793045" lon="13.7141287"><ele>702.8000000000001</ele><time>2026-05-01T08:59:28.903Z</time></trkpt><trkpt lat="37.7793906" lon="13.7141344"><ele>704.0</ele><time>2026-05-01T08:59:30.904Z</time></trkpt><trkpt lat="37.7795043" lon="13.714145"><ele>700.8000000000001</ele><time>2026-05-01T08:59:33.904Z</time></trkpt><trkpt lat="37.7795743" lon="13.7141329"><ele>697.6</ele><time>2026-05-01T08:59:35.904Z</time></trkpt><trkpt lat="37.7796713" lon="13.7141044"><ele>694.4</ele><time>2026-05-01T08:59:38.903Z</time></trkpt><trkpt lat="37.7797966" lon="13.7140483"><ele>691.2</ele><time>2026-05-01T08:59:40.903Z</time></trkpt><trkpt lat="37.7798755" lon="13.7140115"><ele>688.0</ele><time>2026-05-01T08:59:41.904Z</time></trkpt><trkpt lat="37.7799491" lon="13.7139855"><ele>688.0</ele><time>2026-05-01T08:59:42.903Z</time></trkpt><trkpt lat="37.7800172" lon="13.7139743"><ele>688.0</ele><time>2026-05-01T08:59:43.903Z</time></trkpt><trkpt lat="37.7800828" lon="13.7139635"><ele>688.0</ele><time>2026-05-01T08:59:44.903Z</time></trkpt><trkpt lat="37.780147" lon="13.7139552"><ele>688.0</ele><time>2026-05-01T08:59:45.903Z</time></trkpt><trkpt lat="37.7802754" lon="13.7139428"><ele>688.0</ele><time>2026-05-01T08:59:47.904Z</time></trkpt><trkpt lat="37.7803473" lon="13.7139406"><ele>688.0</ele><time>2026-05-01T08:59:48.903Z</time></trkpt><trkpt lat="37.7804208" lon="13.7139386"><ele>686.3333333333334</ele><time>2026-05-01T08:59:49.904Z</time></trkpt><trkpt lat="37.7804889" lon="13.7139441"><ele>684.6666666666667</ele><time>2026-05-01T08:59:50.903Z</time></trkpt><trkpt lat="37.7805875" lon="13.7139593"><ele>683.0</ele><time>2026-05-01T08:59:52.904Z</time></trkpt><trkpt lat="37.7806694" lon="13.7139572"><ele>681.3333333333334</ele><time>2026-05-01T08:59:54.904Z</time></trkpt><trkpt lat="37.7807486" lon="13.7139463"><ele>679.6666666666666</ele><time>2026-05-01T08:59:56.903Z</time></trkpt><trkpt lat="37.7808194" lon="13.7139419"><ele>678.0</ele><time>2026-05-01T08:59:58.903Z</time></trkpt><trkpt lat="37.7808909" lon="13.7139277"><ele>678.0</ele><time>2026-05-01T09:00:00.904Z</time></trkpt><trkpt lat="37.7809705" lon="13.7139189"><ele>678.0</ele><time>2026-05-01T09:00:03.903Z</time></trkpt><trkpt lat="37.7810685" lon="13.7139171"><ele>678.0</ele><time>2026-05-01T09:00:06.903Z</time></trkpt><trkpt lat="37.7811812" lon="13.7138912"><ele>678.0</ele><time>2026-05-01T09:00:08.903Z</time></trkpt><trkpt lat="37.7812674" lon="13.7138877"><ele>678.0</ele><time>2026-05-01T09:00:09.903Z</time></trkpt><trkpt lat="37.7813813" lon="13.7138916"><ele>676.4</ele><time>2026-05-01T09:00:10.904Z</time></trkpt><trkpt lat="37.781503" lon="13.7138919"><ele>674.8</ele><time>2026-05-01T09:00:11.903Z</time></trkpt><trkpt lat="37.7816179" lon="13.7138845"><ele>673.2</ele><time>2026-05-01T09:00:12.903Z</time></trkpt><trkpt lat="37.7817168" lon="13.7138759"><ele>671.6</ele><time>2026-05-01T09:00:13.904Z</time></trkpt><trkpt lat="37.7818091" lon="13.7138676"><ele>670.0</ele><time>2026-05-01T09:00:14.904Z</time></trkpt><trkpt lat="37.781888" lon="13.7138914"><ele>667.2</ele><time>2026-05-01T09:00:15.903Z</time></trkpt><trkpt lat="37.7819432" lon="13.713965"><ele>664.4</ele><time>2026-05-01T09:00:16.904Z</time></trkpt><trkpt lat="37.7819846" lon="13.7140764"><ele>661.5999999999999</ele><time>2026-05-01T09:00:17.903Z</time></trkpt><trkpt lat="37.7819878" lon="13.7142195"><ele>658.8</ele><time>2026-05-01T09:00:18.904Z</time></trkpt><trkpt lat="37.7819784" lon="13.7143762"><ele>656.0</ele><time>2026-05-01T09:00:19.903Z</time></trkpt><trkpt lat="37.7819364" lon="13.7145417"><ele>656.0</ele><time>2026-05-01T09:00:20.903Z</time></trkpt><trkpt lat="37.7818977" lon="13.7146814"><ele>656.0</ele><time>2026-05-01T09:00:21.904Z</time></trkpt><trkpt lat="37.7818601" lon="13.7148106"><ele>656.0</ele><time>2026-05-01T09:00:22.903Z</time></trkpt><trkpt lat="37.7818313" lon="13.7149207"><ele>656.0</ele><time>2026-05-01T09:00:23.903Z</time></trkpt><trkpt lat="37.7818071" lon="13.7149997"><ele>656.0</ele><time>2026-05-01T09:00:24.904Z</time></trkpt><trkpt lat="37.7817714" lon="13.7151188"><ele>657.1666666666666</ele><time>2026-05-01T09:00:26.904Z</time></trkpt><trkpt lat="37.7817731" lon="13.7152031"><ele>658.3333333333333</ele><time>2026-05-01T09:00:28.903Z</time></trkpt><trkpt lat="37.781811" lon="13.7152711"><ele>659.5</ele><time>2026-05-01T09:00:30.903Z</time></trkpt><trkpt lat="37.7818509" lon="13.7153805"><ele>660.6666666666666</ele><time>2026-05-01T09:00:32.904Z</time></trkpt><trkpt lat="37.7818909" lon="13.7154887"><ele>661.8333333333334</ele><time>2026-05-01T09:00:34.903Z</time></trkpt><trkpt lat="37.7819341" lon="13.7155661"><ele>663.0</ele><time>2026-05-01T09:00:36.903Z</time></trkpt><trkpt lat="37.7819955" lon="13.7156573"><ele>663.0</ele><time>2026-05-01T09:00:38.903Z</time></trkpt><trkpt lat="37.7820806" lon="13.7157439"><ele>663.0</ele><time>2026-05-01T09:00:40.903Z</time></trkpt><trkpt lat="37.7821838" lon="13.7158005"><ele>663.0</ele><time>2026-05-01T09:00:42.903Z</time></trkpt><trkpt lat="37.7822854" lon="13.7158751"><ele>663.0</ele><time>2026-05-01T09:00:44.903Z</time></trkpt><trkpt lat="37.7823408" lon="13.7159335"><ele>663.0</ele><time>2026-05-01T09:00:45.903Z</time></trkpt><trkpt lat="37.7823954" lon="13.7160088"><ele>664.6666666666666</ele><time>2026-05-01T09:00:46.903Z</time></trkpt><trkpt lat="37.7824503" lon="13.7160929"><ele>666.3333333333334</ele><time>2026-05-01T09:00:47.903Z</time></trkpt><trkpt lat="37.7825007" lon="13.7161751"><ele>668.0</ele><time>2026-05-01T09:00:48.903Z</time></trkpt><trkpt lat="37.7825433" lon="13.7162557"><ele>669.6666666666667</ele><time>2026-05-01T09:00:49.903Z</time></trkpt><trkpt lat="37.7825869" lon="13.7163373"><ele>671.3333333333334</ele><time>2026-05-01T09:00:50.903Z</time></trkpt><trkpt lat="37.7826446" lon="13.7164078"><ele>673.0</ele><time>2026-05-01T09:00:51.903Z</time></trkpt><trkpt lat="37.7827438" lon="13.7164763"><ele>673.0</ele><time>2026-05-01T09:00:52.904Z</time></trkpt><trkpt lat="37.7828722" lon="13.7165181"><ele>673.0</ele><time>2026-05-01T09:00:53.903Z</time></trkpt><trkpt lat="37.7830162" lon="13.7165576"><ele>673.0</ele><time>2026-05-01T09:00:54.904Z</time></trkpt><trkpt lat="37.7831798" lon="13.7165977"><ele>673.0</ele><time>2026-05-01T09:00:55.903Z</time></trkpt><trkpt lat="37.7833668" lon="13.7166311"><ele>671.6666666666667</ele><time>2026-05-01T09:00:56.904Z</time></trkpt><trkpt lat="37.7835583" lon="13.7166783"><ele>670.3333333333334</ele><time>2026-05-01T09:00:57.903Z</time></trkpt><trkpt lat="37.7837406" lon="13.7167385"><ele>669.0</ele><time>2026-05-01T09:00:58.903Z</time></trkpt><trkpt lat="37.7839033" lon="13.7167994"><ele>669.0</ele><time>2026-05-01T09:00:59.904Z</time></trkpt><trkpt lat="37.7840342" lon="13.7168625"><ele>669.0</ele><time>2026-05-01T09:01:00.903Z</time></trkpt><trkpt lat="37.7841485" lon="13.7169011"><ele>669.0</ele><time>2026-05-01T09:01:01.903Z</time></trkpt><trkpt lat="37.7842529" lon="13.7169043"><ele>669.0</ele><time>2026-05-01T09:01:02.904Z</time></trkpt><trkpt lat="37.784373" lon="13.7168554"><ele>669.75</ele><time>2026-05-01T09:01:03.903Z</time></trkpt><trkpt lat="37.7845047" lon="13.716767"><ele>670.5</ele><time>2026-05-01T09:01:04.903Z</time></trkpt><trkpt lat="37.7846337" lon="13.7166668"><ele>671.25</ele><time>2026-05-01T09:01:05.904Z</time></trkpt><trkpt lat="37.7847473" lon="13.7166081"><ele>672.0</ele><time>2026-05-01T09:01:06.903Z</time></trkpt><trkpt lat="37.7848529" lon="13.7166061"><ele>672.0</ele><time>2026-05-01T09:01:07.904Z</time></trkpt><trkpt lat="37.7849536" lon="13.7166489"><ele>672.0</ele><time>2026-05-01T09:01:08.903Z</time></trkpt><trkpt lat="37.7850473" lon="13.7167194"><ele>672.0</ele><time>2026-05-01T09:01:09.903Z</time></trkpt><trkpt lat="37.7851693" lon="13.7168369"><ele>672.0</ele><time>2026-05-01T09:01:10.904Z</time></trkpt><trkpt lat="37.7853466" lon="13.7169767"><ele>673.0</ele><time>2026-05-01T09:01:11.903Z</time></trkpt><trkpt lat="37.785558" lon="13.7171094"><ele>674.0</ele><time>2026-05-01T09:01:12.903Z</time></trkpt><trkpt lat="37.7858024" lon="13.7172371"><ele>670.5</ele><time>2026-05-01T09:01:13.904Z</time></trkpt><trkpt lat="37.7860417" lon="13.7173641"><ele>667.0</ele><time>2026-05-01T09:01:14.904Z</time></trkpt><trkpt lat="37.7862546" lon="13.7174853"><ele>667.0</ele><time>2026-05-01T09:01:15.904Z</time></trkpt><trkpt lat="37.7864342" lon="13.7175837"><ele>667.0</ele><time>2026-05-01T09:01:16.904Z</time></trkpt><trkpt lat="37.7865911" lon="13.7176699"><ele>667.0</ele><time>2026-05-01T09:01:17.903Z</time></trkpt><trkpt lat="37.7867361" lon="13.7177181"><ele>666.6666666666667</ele><time>2026-05-01T09:01:18.903Z</time></trkpt><trkpt lat="37.7868778" lon="13.7177103"><ele>666.3333333333334</ele><time>2026-05-01T09:01:19.903Z</time></trkpt><trkpt lat="37.7870207" lon="13.7176535"><ele>666.0</ele><time>2026-05-01T09:01:20.904Z</time></trkpt><trkpt lat="37.7871815" lon="13.7175755"><ele>666.0</ele><time>2026-05-01T09:01:21.903Z</time></trkpt><trkpt lat="37.7873514" lon="13.717502"><ele>666.0</ele><time>2026-05-01T09:01:22.904Z</time></trkpt><trkpt lat="37.7875136" lon="13.7174483"><ele>666.0</ele><time>2026-05-01T09:01:23.903Z</time></trkpt><trkpt lat="37.7876732" lon="13.7174328"><ele>665.0</ele><time>2026-05-01T09:01:24.903Z</time></trkpt><trkpt lat="37.7878481" lon="13.7174581"><ele>664.0</ele><time>2026-05-01T09:01:25.903Z</time></trkpt><trkpt lat="37.7880349" lon="13.7175123"><ele>663.0</ele><time>2026-05-01T09:01:26.903Z</time></trkpt><trkpt lat="37.7882269" lon="13.7175729"><ele>663.0</ele><time>2026-05-01T09:01:27.903Z</time></trkpt><trkpt lat="37.7883973" lon="13.7176185"><ele>663.0</ele><time>2026-05-01T09:01:28.903Z</time></trkpt><trkpt lat="37.7885402" lon="13.7176716"><ele>663.0</ele><time>2026-05-01T09:01:29.903Z</time></trkpt><trkpt lat="37.7886581" lon="13.7177071"><ele>663.0</ele><time>2026-05-01T09:01:30.903Z</time></trkpt><trkpt lat="37.7887705" lon="13.7177417"><ele>663.25</ele><time>2026-05-01T09:01:31.904Z</time></trkpt><trkpt lat="37.7888903" lon="13.7177984"><ele>663.5</ele><time>2026-05-01T09:01:32.903Z</time></trkpt><trkpt lat="37.7890229" lon="13.7178612"><ele>663.75</ele><time>2026-05-01T09:01:33.904Z</time></trkpt><trkpt lat="37.7891624" lon="13.7179231"><ele>664.0</ele><time>2026-05-01T09:01:34.904Z</time></trkpt><trkpt lat="37.7893034" lon="13.7179905"><ele>661.0</ele><time>2026-05-01T09:01:35.904Z</time></trkpt><trkpt lat="37.7894165" lon="13.7180689"><ele>658.0</ele><time>2026-05-01T09:01:36.904Z</time></trkpt><trkpt lat="37.7894934" lon="13.7181668"><ele>655.0</ele><time>2026-05-01T09:01:37.903Z</time></trkpt><trkpt lat="37.7895373" lon="13.7182643"><ele>652.0</ele><time>2026-05-01T09:01:38.904Z</time></trkpt><trkpt lat="37.7895354" lon="13.7183759"><ele>649.0</ele><time>2026-05-01T09:01:39.903Z</time></trkpt><trkpt lat="37.7894965" lon="13.7185266"><ele>648.0</ele><time>2026-05-01T09:01:40.904Z</time></trkpt><trkpt lat="37.7894375" lon="13.7187119"><ele>647.0</ele><time>2026-05-01T09:01:41.903Z</time></trkpt><trkpt lat="37.7893707" lon="13.7189174"><ele>646.0</ele><time>2026-05-01T09:01:42.903Z</time></trkpt><trkpt lat="37.7893196" lon="13.719111"><ele>649.5</ele><time>2026-05-01T09:01:43.903Z</time></trkpt><trkpt lat="37.7892823" lon="13.7192813"><ele>653.0</ele><time>2026-05-01T09:01:44.903Z</time></trkpt><trkpt lat="37.7892679" lon="13.7194421"><ele>656.5</ele><time>2026-05-01T09:01:45.903Z</time></trkpt><trkpt lat="37.7892855" lon="13.7195855"><ele>660.0</ele><time>2026-05-01T09:01:46.904Z</time></trkpt><trkpt lat="37.7893287" lon="13.7197099"><ele>656.5</ele><time>2026-05-01T09:01:47.903Z</time></trkpt><trkpt lat="37.7894049" lon="13.7198164"><ele>653.0</ele><time>2026-05-01T09:01:48.904Z</time></trkpt><trkpt lat="37.7895083" lon="13.7199114"><ele>649.5</ele><time>2026-05-01T09:01:49.903Z</time></trkpt><trkpt lat="37.789649" lon="13.7200085"><ele>646.0</ele><time>2026-05-01T09:01:50.903Z</time></trkpt><trkpt lat="37.7897832" lon="13.7201202"><ele>648.0</ele><time>2026-05-01T09:01:51.903Z</time></trkpt><trkpt lat="37.7898974" lon="13.7202371"><ele>650.0</ele><time>2026-05-01T09:01:52.904Z</time></trkpt><trkpt lat="37.7899961" lon="13.7203874"><ele>652.0</ele><time>2026-05-01T09:01:53.904Z</time></trkpt><trkpt lat="37.7900885" lon="13.7205749"><ele>649.3333333333334</ele><time>2026-05-01T09:01:54.903Z</time></trkpt><trkpt lat="37.7901819" lon="13.7207792"><ele>646.6666666666666</ele><time>2026-05-01T09:01:55.904Z</time></trkpt><trkpt lat="37.7902688" lon="13.7209683"><ele>644.0</ele><time>2026-05-01T09:01:56.904Z</time></trkpt><trkpt lat="37.7903477" lon="13.7211452"><ele>644.0</ele><time>2026-05-01T09:01:57.903Z</time></trkpt><trkpt lat="37.7904316" lon="13.7213045"><ele>644.0</ele><time>2026-05-01T09:01:58.903Z</time></trkpt><trkpt lat="37.7905261" lon="13.7214326"><ele>644.0</ele><time>2026-05-01T09:01:59.904Z</time></trkpt><trkpt lat="37.7906497" lon="13.7215405"><ele>644.0</ele><time>2026-05-01T09:02:00.903Z</time></trkpt><trkpt lat="37.7907813" lon="13.7216241"><ele>644.0</ele><time>2026-05-01T09:02:01.903Z</time></trkpt><trkpt lat="37.7908926" lon="13.7216901"><ele>644.0</ele><time>2026-05-01T09:02:02.903Z</time></trkpt><trkpt lat="37.7909728" lon="13.7217879"><ele>644.0</ele><time>2026-05-01T09:02:03.904Z</time></trkpt><trkpt lat="37.7910234" lon="13.7218972"><ele>644.0</ele><time>2026-05-01T09:02:04.903Z</time></trkpt><trkpt lat="37.7910374" lon="13.7220216"><ele>644.0</ele><time>2026-05-01T09:02:05.904Z</time></trkpt><trkpt lat="37.7910201" lon="13.72215"><ele>644.0</ele><time>2026-05-01T09:02:06.904Z</time></trkpt><trkpt lat="37.7909829" lon="13.7223019"><ele>644.0</ele><time>2026-05-01T09:02:07.904Z</time></trkpt><trkpt lat="37.790935" lon="13.7224713"><ele>644.0</ele><time>2026-05-01T09:02:08.903Z</time></trkpt><trkpt lat="37.7908861" lon="13.7226625"><ele>644.0</ele><time>2026-05-01T09:02:09.903Z</time></trkpt><trkpt lat="37.7908352" lon="13.7228509"><ele>643.25</ele><time>2026-05-01T09:02:10.903Z</time></trkpt><trkpt lat="37.7907988" lon="13.7230233"><ele>642.5</ele><time>2026-05-01T09:02:11.903Z</time></trkpt><trkpt lat="37.7907667" lon="13.7231797"><ele>641.75</ele><time>2026-05-01T09:02:12.903Z</time></trkpt><trkpt lat="37.7907648" lon="13.723328"><ele>641.0</ele><time>2026-05-01T09:02:13.904Z</time></trkpt><trkpt lat="37.7907952" lon="13.7234804"><ele>642.1999999999999</ele><time>2026-05-01T09:02:14.903Z</time></trkpt><trkpt lat="37.7908322" lon="13.7236234"><ele>643.4</ele><time>2026-05-01T09:02:15.903Z</time></trkpt><trkpt lat="37.7908737" lon="13.7237399"><ele>644.6</ele><time>2026-05-01T09:02:16.903Z</time></trkpt><trkpt lat="37.7909432" lon="13.7238402"><ele>645.8</ele><time>2026-05-01T09:02:17.903Z</time></trkpt><trkpt lat="37.7910406" lon="13.7238925"><ele>647.0</ele><time>2026-05-01T09:02:18.904Z</time></trkpt><trkpt lat="37.7911429" lon="13.7239223"><ele>647.0</ele><time>2026-05-01T09:02:19.904Z</time></trkpt><trkpt lat="37.7912437" lon="13.7239163"><ele>647.0</ele><time>2026-05-01T09:02:20.903Z</time></trkpt><trkpt lat="37.7913383" lon="13.7238709"><ele>647.0</ele><time>2026-05-01T09:02:21.904Z</time></trkpt><trkpt lat="37.7914525" lon="13.7238029"><ele>647.0</ele><time>2026-05-01T09:02:22.903Z</time></trkpt><trkpt lat="37.7915706" lon="13.7237364"><ele>647.0</ele><time>2026-05-01T09:02:23.903Z</time></trkpt><trkpt lat="37.791681" lon="13.7236502"><ele>647.0</ele><time>2026-05-01T09:02:24.904Z</time></trkpt><trkpt lat="37.7917795" lon="13.723539"><ele>647.0</ele><time>2026-05-01T09:02:25.904Z</time></trkpt><trkpt lat="37.7918868" lon="13.7234037"><ele>647.0</ele><time>2026-05-01T09:02:26.903Z</time></trkpt><trkpt lat="37.7919958" lon="13.7232758"><ele>645.6</ele><time>2026-05-01T09:02:27.903Z</time></trkpt><trkpt lat="37.7920893" lon="13.7231751"><ele>644.2</ele><time>2026-05-01T09:02:28.903Z</time></trkpt><trkpt lat="37.792178" lon="13.7231117"><ele>642.8</ele><time>2026-05-01T09:02:29.904Z</time></trkpt><trkpt lat="37.7922664" lon="13.7230856"><ele>641.4</ele><time>2026-05-01T09:02:30.904Z</time></trkpt><trkpt lat="37.7923795" lon="13.7230933"><ele>640.0</ele><time>2026-05-01T09:02:31.903Z</time></trkpt><trkpt lat="37.7924996" lon="13.7231492"><ele>640.0</ele><time>2026-05-01T09:02:32.904Z</time></trkpt><trkpt lat="37.792624" lon="13.7232193"><ele>640.0</ele><time>2026-05-01T09:02:33.903Z</time></trkpt><trkpt lat="37.7927564" lon="13.7232646"><ele>640.0</ele><time>2026-05-01T09:02:34.903Z</time></trkpt><trkpt lat="37.7928942" lon="13.7232743"><ele>640.0</ele><time>2026-05-01T09:02:35.904Z</time></trkpt><trkpt lat="37.7930221" lon="13.7232729"><ele>641.4</ele><time>2026-05-01T09:02:36.904Z</time></trkpt><trkpt lat="37.793123" lon="13.723257"><ele>642.8</ele><time>2026-05-01T09:02:37.903Z</time></trkpt><trkpt lat="37.7931943" lon="13.7232084"><ele>644.2</ele><time>2026-05-01T09:02:38.904Z</time></trkpt><trkpt lat="37.7932427" lon="13.723131"><ele>645.6</ele><time>2026-05-01T09:02:39.904Z</time></trkpt><trkpt lat="37.7932671" lon="13.7230015"><ele>647.0</ele><time>2026-05-01T09:02:40.903Z</time></trkpt><trkpt lat="37.7932749" lon="13.7228251"><ele>646.0</ele><time>2026-05-01T09:02:41.903Z</time></trkpt><trkpt lat="37.7932736" lon="13.7225883"><ele>645.0</ele><time>2026-05-01T09:02:42.903Z</time></trkpt><trkpt lat="37.7932765" lon="13.7223158"><ele>644.0</ele><time>2026-05-01T09:02:43.903Z</time></trkpt><trkpt lat="37.7932941" lon="13.7220149"><ele>642.6666666666666</ele><time>2026-05-01T09:02:44.903Z</time></trkpt><trkpt lat="37.7933246" lon="13.7217217"><ele>641.3333333333334</ele><time>2026-05-01T09:02:45.904Z</time></trkpt><trkpt lat="37.7933529" lon="13.7214839"><ele>640.0</ele><time>2026-05-01T09:02:46.904Z</time></trkpt><trkpt lat="37.7933886" lon="13.7212947"><ele>640.0</ele><time>2026-05-01T09:02:47.903Z</time></trkpt><trkpt lat="37.7934584" lon="13.721128"><ele>640.0</ele><time>2026-05-01T09:02:48.903Z</time></trkpt><trkpt lat="37.7935562" lon="13.7209548"><ele>640.0</ele><time>2026-05-01T09:02:49.903Z</time></trkpt><trkpt lat="37.7936781" lon="13.7207747"><ele>641.3333333333334</ele><time>2026-05-01T09:02:50.904Z</time></trkpt><trkpt lat="37.7938248" lon="13.7205744"><ele>642.6666666666666</ele><time>2026-05-01T09:02:51.903Z</time></trkpt><trkpt lat="37.7939639" lon="13.7203834"><ele>644.0</ele><time>2026-05-01T09:02:52.904Z</time></trkpt><trkpt lat="37.7940813" lon="13.7202222"><ele>644.0</ele><time>2026-05-01T09:02:53.903Z</time></trkpt><trkpt lat="37.7941907" lon="13.7201068"><ele>644.0</ele><time>2026-05-01T09:02:54.903Z</time></trkpt><trkpt lat="37.7943166" lon="13.7200341"><ele>644.0</ele><time>2026-05-01T09:02:55.904Z</time></trkpt><trkpt lat="37.7944754" lon="13.7199642"><ele>644.0</ele><time>2026-05-01T09:02:56.903Z</time></trkpt><trkpt lat="37.7946608" lon="13.7198956"><ele>650.5</ele><time>2026-05-01T09:02:57.904Z</time></trkpt><trkpt lat="37.7948751" lon="13.7198043"><ele>657.0</ele><time>2026-05-01T09:02:58.903Z</time></trkpt><trkpt lat="37.7951149" lon="13.7197073"><ele>659.5</ele><time>2026-05-01T09:02:59.903Z</time></trkpt><trkpt lat="37.7953622" lon="13.7196261"><ele>662.0</ele><time>2026-05-01T09:03:00.904Z</time></trkpt><trkpt lat="37.7955805" lon="13.7195642"><ele>662.0</ele><time>2026-05-01T09:03:01.903Z</time></trkpt><trkpt lat="37.7957616" lon="13.7195162"><ele>662.0</ele><time>2026-05-01T09:03:02.903Z</time></trkpt><trkpt lat="37.795916" lon="13.7194967"><ele>662.0</ele><time>2026-05-01T09:03:03.903Z</time></trkpt><trkpt lat="37.7960809" lon="13.7195296"><ele>661.6666666666666</ele><time>2026-05-01T09:03:04.904Z</time></trkpt><trkpt lat="37.7962589" lon="13.7195813"><ele>661.3333333333334</ele><time>2026-05-01T09:03:05.903Z</time></trkpt><trkpt lat="37.7964426" lon="13.7196553"><ele>661.0</ele><time>2026-05-01T09:03:06.903Z</time></trkpt><trkpt lat="37.7966274" lon="13.719729"><ele>661.0</ele><time>2026-05-01T09:03:07.903Z</time></trkpt><trkpt lat="37.7967999" lon="13.7197994"><ele>661.0</ele><time>2026-05-01T09:03:08.903Z</time></trkpt><trkpt lat="37.7969539" lon="13.7198584"><ele>661.0</ele><time>2026-05-01T09:03:09.903Z</time></trkpt><trkpt lat="37.7970803" lon="13.7199194"><ele>660.75</ele><time>2026-05-01T09:03:10.903Z</time></trkpt><trkpt lat="37.7971859" lon="13.7199936"><ele>660.5</ele><time>2026-05-01T09:03:11.903Z</time></trkpt><trkpt lat="37.797269" lon="13.7200937"><ele>660.25</ele><time>2026-05-01T09:03:12.904Z</time></trkpt><trkpt lat="37.7973348" lon="13.7202316"><ele>660.0</ele><time>2026-05-01T09:03:13.903Z</time></trkpt><trkpt lat="37.7973923" lon="13.7204068"><ele>659.6666666666666</ele><time>2026-05-01T09:03:14.903Z</time></trkpt><trkpt lat="37.7974519" lon="13.7205945"><ele>659.3333333333333</ele><time>2026-05-01T09:03:15.903Z</time></trkpt><trkpt lat="37.7975169" lon="13.7207752"><ele>659.0</ele><time>2026-05-01T09:03:16.903Z</time></trkpt><trkpt lat="37.7975915" lon="13.7209358"><ele>658.0</ele><time>2026-05-01T09:03:17.903Z</time></trkpt><trkpt lat="37.7976885" lon="13.7210674"><ele>657.0</ele><time>2026-05-01T09:03:18.904Z</time></trkpt><trkpt lat="37.7978129" lon="13.7211817"><ele>656.0</ele><time>2026-05-01T09:03:19.903Z</time></trkpt><trkpt lat="37.7979718" lon="13.721276"><ele>656.0</ele><time>2026-05-01T09:03:20.904Z</time></trkpt><trkpt lat="37.7981428" lon="13.7213689"><ele>656.0</ele><time>2026-05-01T09:03:21.903Z</time></trkpt><trkpt lat="37.7982823" lon="13.7214537"><ele>656.0</ele><time>2026-05-01T09:03:22.903Z</time></trkpt><trkpt lat="37.7983948" lon="13.7215616"><ele>656.0</ele><time>2026-05-01T09:03:23.904Z</time></trkpt><trkpt lat="37.7984874" lon="13.7217128"><ele>656.0</ele><time>2026-05-01T09:03:24.903Z</time></trkpt><trkpt lat="37.798575" lon="13.7218875"><ele>656.0</ele><time>2026-05-01T09:03:25.904Z</time></trkpt><trkpt lat="37.7986517" lon="13.7220688"><ele>652.0</ele><time>2026-05-01T09:03:26.903Z</time></trkpt><trkpt lat="37.7987342" lon="13.7222574"><ele>648.0</ele><time>2026-05-01T09:03:27.904Z</time></trkpt><trkpt lat="37.7988416" lon="13.7224344"><ele>644.0</ele><time>2026-05-01T09:03:28.904Z</time></trkpt><trkpt lat="37.7989783" lon="13.722598"><ele>641.3333333333333</ele><time>2026-05-01T09:03:29.903Z</time></trkpt><trkpt lat="37.7991382" lon="13.722767"><ele>638.6666666666666</ele><time>2026-05-01T09:03:30.903Z</time></trkpt><trkpt lat="37.7992971" lon="13.7229261"><ele>636.0</ele><time>2026-05-01T09:03:31.903Z</time></trkpt><trkpt lat="37.7994271" lon="13.7230713"><ele>636.0</ele><time>2026-05-01T09:03:32.903Z</time></trkpt><trkpt lat="37.7995463" lon="13.7232116"><ele>636.0</ele><time>2026-05-01T09:03:33.904Z</time></trkpt><trkpt lat="37.7996476" lon="13.7233632"><ele>636.0</ele><time>2026-05-01T09:03:34.903Z</time></trkpt><trkpt lat="37.7997311" lon="13.7235474"><ele>639.0</ele><time>2026-05-01T09:03:35.903Z</time></trkpt><trkpt lat="37.7998313" lon="13.7237545"><ele>642.0</ele><time>2026-05-01T09:03:36.903Z</time></trkpt><trkpt lat="37.7999502" lon="13.7239275"><ele>645.0</ele><time>2026-05-01T09:03:37.904Z</time></trkpt><trkpt lat="37.8000606" lon="13.7240537"><ele>645.0</ele><time>2026-05-01T09:03:38.903Z</time></trkpt><trkpt lat="37.8001455" lon="13.7241606"><ele>645.0</ele><time>2026-05-01T09:03:39.903Z</time></trkpt><trkpt lat="37.8002005" lon="13.7242736"><ele>645.0</ele><time>2026-05-01T09:03:40.903Z</time></trkpt><trkpt lat="37.8002116" lon="13.7243853"><ele>645.0</ele><time>2026-05-01T09:03:41.903Z</time></trkpt><trkpt lat="37.800185" lon="13.7245095"><ele>645.0</ele><time>2026-05-01T09:03:42.903Z</time></trkpt><trkpt lat="37.8001212" lon="13.7246376"><ele>645.25</ele><time>2026-05-01T09:03:43.903Z</time></trkpt><trkpt lat="37.8000552" lon="13.7247666"><ele>645.5</ele><time>2026-05-01T09:03:44.903Z</time></trkpt><trkpt lat="37.8000259" lon="13.7249116"><ele>645.75</ele><time>2026-05-01T09:03:45.903Z</time></trkpt><trkpt lat="37.8000349" lon="13.7250798"><ele>646.0</ele><time>2026-05-01T09:03:46.904Z</time></trkpt><trkpt lat="37.8000881" lon="13.7252762"><ele>646.0</ele><time>2026-05-01T09:03:47.903Z</time></trkpt><trkpt lat="37.8001438" lon="13.7254928"><ele>646.0</ele><time>2026-05-01T09:03:48.903Z</time></trkpt><trkpt lat="37.8002155" lon="13.7257359"><ele>646.0</ele><time>2026-05-01T09:03:49.904Z</time></trkpt><trkpt lat="37.8003102" lon="13.7260002"><ele>641.6666666666667</ele><time>2026-05-01T09:03:50.903Z</time></trkpt><trkpt lat="37.8003908" lon="13.7262391"><ele>637.3333333333334</ele><time>2026-05-01T09:03:51.903Z</time></trkpt><trkpt lat="37.8004586" lon="13.7264261"><ele>633.0</ele><time>2026-05-01T09:03:52.904Z</time></trkpt><trkpt lat="37.8005284" lon="13.7265711"><ele>633.0</ele><time>2026-05-01T09:03:53.904Z</time></trkpt><trkpt lat="37.800625" lon="13.726687"><ele>633.0</ele><time>2026-05-01T09:03:54.904Z</time></trkpt><trkpt lat="37.8007654" lon="13.726794"><ele>633.0</ele><time>2026-05-01T09:03:55.904Z</time></trkpt><trkpt lat="37.8009232" lon="13.7268987"><ele>629.6666666666666</ele><time>2026-05-01T09:03:56.903Z</time></trkpt><trkpt lat="37.8010553" lon="13.727021"><ele>626.3333333333333</ele><time>2026-05-01T09:03:57.904Z</time></trkpt><trkpt lat="37.8011752" lon="13.7271744"><ele>623.0</ele><time>2026-05-01T09:03:58.903Z</time></trkpt><trkpt lat="37.8013115" lon="13.7273741"><ele>623.0</ele><time>2026-05-01T09:03:59.903Z</time></trkpt><trkpt lat="37.8014715" lon="13.7275792"><ele>623.0</ele><time>2026-05-01T09:04:00.903Z</time></trkpt><trkpt lat="37.8016347" lon="13.7277535"><ele>623.0</ele><time>2026-05-01T09:04:01.904Z</time></trkpt><trkpt lat="37.8017788" lon="13.7278857"><ele>620.0</ele><time>2026-05-01T09:04:02.903Z</time></trkpt><trkpt lat="37.8018889" lon="13.7279809"><ele>617.0</ele><time>2026-05-01T09:04:03.903Z</time></trkpt><trkpt lat="37.8019652" lon="13.7280718"><ele>614.0</ele><time>2026-05-01T09:04:04.904Z</time></trkpt><trkpt lat="37.8020156" lon="13.728169"><ele>611.0</ele><time>2026-05-01T09:04:05.903Z</time></trkpt><trkpt lat="37.8020368" lon="13.7282863"><ele>608.0</ele><time>2026-05-01T09:04:06.903Z</time></trkpt><trkpt lat="37.8020163" lon="13.7284181"><ele>606.0</ele><time>2026-05-01T09:04:07.903Z</time></trkpt><trkpt lat="37.8019571" lon="13.7285662"><ele>604.0</ele><time>2026-05-01T09:04:08.904Z</time></trkpt><trkpt lat="37.8018797" lon="13.7287178"><ele>602.0</ele><time>2026-05-01T09:04:09.903Z</time></trkpt><trkpt lat="37.8018256" lon="13.7288719"><ele>600.0</ele><time>2026-05-01T09:04:10.903Z</time></trkpt><trkpt lat="37.8018056" lon="13.7290424"><ele>598.0</ele><time>2026-05-01T09:04:11.903Z</time></trkpt><trkpt lat="37.8018205" lon="13.7292317"><ele>596.0</ele><time>2026-05-01T09:04:12.903Z</time></trkpt><trkpt lat="37.801868" lon="13.7294286"><ele>594.0</ele><time>2026-05-01T09:04:13.903Z</time></trkpt><trkpt lat="37.8019019" lon="13.7296139"><ele>594.0</ele><time>2026-05-01T09:04:14.903Z</time></trkpt><trkpt lat="37.8018883" lon="13.7297868"><ele>594.0</ele><time>2026-05-01T09:04:15.903Z</time></trkpt><trkpt lat="37.8018484" lon="13.7299604"><ele>594.0</ele><time>2026-05-01T09:04:16.903Z</time></trkpt><trkpt lat="37.8017918" lon="13.7301027"><ele>594.0</ele><time>2026-05-01T09:04:17.904Z</time></trkpt><trkpt lat="37.8017198" lon="13.7301916"><ele>598.75</ele><time>2026-05-01T09:04:18.904Z</time></trkpt><trkpt lat="37.8016226" lon="13.7302377"><ele>603.5</ele><time>2026-05-01T09:04:19.904Z</time></trkpt><trkpt lat="37.801508" lon="13.7302497"><ele>608.25</ele><time>2026-05-01T09:04:20.903Z</time></trkpt><trkpt lat="37.8013728" lon="13.7302333"><ele>613.0</ele><time>2026-05-01T09:04:21.904Z</time></trkpt><trkpt lat="37.8012559" lon="13.7302172"><ele>613.0</ele><time>2026-05-01T09:04:22.903Z</time></trkpt><trkpt lat="37.8011573" lon="13.7302431"><ele>613.0</ele><time>2026-05-01T09:04:23.903Z</time></trkpt><trkpt lat="37.8010871" lon="13.7302858"><ele>613.0</ele><time>2026-05-01T09:04:24.904Z</time></trkpt><trkpt lat="37.8010336" lon="13.7303673"><ele>613.0</ele><time>2026-05-01T09:04:25.904Z</time></trkpt><trkpt lat="37.8009983" lon="13.7304787"><ele>613.0</ele><time>2026-05-01T09:04:26.903Z</time></trkpt><trkpt lat="37.8009989" lon="13.7305947"><ele>613.0</ele><time>2026-05-01T09:04:27.904Z</time></trkpt><trkpt lat="37.8010246" lon="13.7307025"><ele>613.0</ele><time>2026-05-01T09:04:28.903Z</time></trkpt><trkpt lat="37.8010491" lon="13.7308095"><ele>613.0</ele><time>2026-05-01T09:04:29.903Z</time></trkpt><trkpt lat="37.8010815" lon="13.7308996"><ele>613.0</ele><time>2026-05-01T09:04:30.903Z</time></trkpt><trkpt lat="37.8011029" lon="13.7309837"><ele>613.0</ele><time>2026-05-01T09:04:31.904Z</time></trkpt><trkpt lat="37.8011474" lon="13.7311324"><ele>613.0</ele><time>2026-05-01T09:04:33.903Z</time></trkpt><trkpt lat="37.8011724" lon="13.7312261"><ele>613.0</ele><time>2026-05-01T09:04:34.903Z</time></trkpt><trkpt lat="37.8011882" lon="13.7313386"><ele>613.0</ele><time>2026-05-01T09:04:35.904Z</time></trkpt><trkpt lat="37.801174" lon="13.7314337"><ele>613.0</ele><time>2026-05-01T09:04:36.904Z</time></trkpt><trkpt lat="37.8011274" lon="13.7315055"><ele>613.0</ele><time>2026-05-01T09:04:37.903Z</time></trkpt><trkpt lat="37.8010535" lon="13.7315847"><ele>613.0</ele><time>2026-05-01T09:04:38.903Z</time></trkpt><trkpt lat="37.800944" lon="13.7316657"><ele>613.0</ele><time>2026-05-01T09:04:39.903Z</time></trkpt><trkpt lat="37.8008117" lon="13.7317245"><ele>613.0</ele><time>2026-05-01T09:04:40.904Z</time></trkpt><trkpt lat="37.8006769" lon="13.731783"><ele>613.0</ele><time>2026-05-01T09:04:41.903Z</time></trkpt><trkpt lat="37.8005604" lon="13.7318624"><ele>613.0</ele><time>2026-05-01T09:04:42.903Z</time></trkpt><trkpt lat="37.8004532" lon="13.7319798"><ele>613.0</ele><time>2026-05-01T09:04:43.903Z</time></trkpt><trkpt lat="37.8003673" lon="13.7321376"><ele>607.3333333333334</ele><time>2026-05-01T09:04:44.903Z</time></trkpt><trkpt lat="37.8003025" lon="13.7323468"><ele>601.6666666666666</ele><time>2026-05-01T09:04:45.903Z</time></trkpt><trkpt lat="37.8002366" lon="13.7325757"><ele>596.0</ele><time>2026-05-01T09:04:46.903Z</time></trkpt><trkpt lat="37.8001851" lon="13.732756"><ele>594.5</ele><time>2026-05-01T09:04:47.904Z</time></trkpt><trkpt lat="37.8001533" lon="13.7329163"><ele>593.0</ele><time>2026-05-01T09:04:48.901Z</time></trkpt><trkpt lat="37.8001502" lon="13.7330744"><ele>591.5</ele><time>2026-05-01T09:04:49.903Z</time></trkpt><trkpt lat="37.8001856" lon="13.7332529"><ele>590.0</ele><time>2026-05-01T09:04:50.903Z</time></trkpt><trkpt lat="37.8002472" lon="13.7334349"><ele>590.0</ele><time>2026-05-01T09:04:51.904Z</time></trkpt><trkpt lat="37.8002736" lon="13.7335961"><ele>590.0</ele><time>2026-05-01T09:04:52.904Z</time></trkpt><trkpt lat="37.8002624" lon="13.7337484"><ele>590.0</ele><time>2026-05-01T09:04:53.903Z</time></trkpt><trkpt lat="37.8002406" lon="13.7339276"><ele>590.0</ele><time>2026-05-01T09:04:54.904Z</time></trkpt><trkpt lat="37.8001956" lon="13.7341172"><ele>589.5</ele><time>2026-05-01T09:04:55.904Z</time></trkpt><trkpt lat="37.8001626" lon="13.7343002"><ele>589.0</ele><time>2026-05-01T09:04:56.903Z</time></trkpt><trkpt lat="37.8001767" lon="13.7344761"><ele>588.5</ele><time>2026-05-01T09:04:57.904Z</time></trkpt><trkpt lat="37.8002385" lon="13.7346571"><ele>588.0</ele><time>2026-05-01T09:04:58.904Z</time></trkpt><trkpt lat="37.8003291" lon="13.7348424"><ele>588.0</ele><time>2026-05-01T09:04:59.903Z</time></trkpt><trkpt lat="37.8004185" lon="13.7350237"><ele>588.0</ele><time>2026-05-01T09:05:00.903Z</time></trkpt><trkpt lat="37.8004796" lon="13.735175"><ele>588.0</ele><time>2026-05-01T09:05:01.903Z</time></trkpt><trkpt lat="37.8005092" lon="13.7353083"><ele>588.0</ele><time>2026-05-01T09:05:02.903Z</time></trkpt><trkpt lat="37.800499" lon="13.735431"><ele>584.5</ele><time>2026-05-01T09:05:03.903Z</time></trkpt><trkpt lat="37.8004579" lon="13.7355525"><ele>581.0</ele><time>2026-05-01T09:05:04.903Z</time></trkpt><trkpt lat="37.8003916" lon="13.7357035"><ele>577.5</ele><time>2026-05-01T09:05:05.904Z</time></trkpt><trkpt lat="37.8003099" lon="13.7358846"><ele>574.0</ele><time>2026-05-01T09:05:06.903Z</time></trkpt><trkpt lat="37.8002168" lon="13.7361028"><ele>581.5</ele><time>2026-05-01T09:05:07.903Z</time></trkpt><trkpt lat="37.8001122" lon="13.736341"><ele>589.0</ele><time>2026-05-01T09:05:08.903Z</time></trkpt><trkpt lat="37.7999796" lon="13.7365894"><ele>589.0</ele><time>2026-05-01T09:05:09.904Z</time></trkpt><trkpt lat="37.7998452" lon="13.736841"><ele>589.0</ele><time>2026-05-01T09:05:10.903Z</time></trkpt><trkpt lat="37.7997367" lon="13.737095"><ele>583.6666666666667</ele><time>2026-05-01T09:05:11.903Z</time></trkpt><trkpt lat="37.7996382" lon="13.7373475"><ele>578.3333333333334</ele><time>2026-05-01T09:05:12.904Z</time></trkpt><trkpt lat="37.7995405" lon="13.737594"><ele>573.0</ele><time>2026-05-01T09:05:13.903Z</time></trkpt><trkpt lat="37.7994445" lon="13.7378244"><ele>576.6666666666666</ele><time>2026-05-01T09:05:14.903Z</time></trkpt><trkpt lat="37.799351" lon="13.7380404"><ele>580.3333333333333</ele><time>2026-05-01T09:05:15.903Z</time></trkpt><trkpt lat="37.7992677" lon="13.7382334"><ele>584.0</ele><time>2026-05-01T09:05:16.904Z</time></trkpt><trkpt lat="37.7991951" lon="13.7384006"><ele>584.0</ele><time>2026-05-01T09:05:17.903Z</time></trkpt><trkpt lat="37.7991302" lon="13.7385423"><ele>584.0</ele><time>2026-05-01T09:05:18.903Z</time></trkpt><trkpt lat="37.7990628" lon="13.738653"><ele>584.0</ele><time>2026-05-01T09:05:19.903Z</time></trkpt><trkpt lat="37.7989604" lon="13.7387412"><ele>584.0</ele><time>2026-05-01T09:05:20.903Z</time></trkpt><trkpt lat="37.7988188" lon="13.73881"><ele>581.6666666666666</ele><time>2026-05-01T09:05:21.903Z</time></trkpt><trkpt lat="37.7986472" lon="13.7388806"><ele>579.3333333333334</ele><time>2026-05-01T09:05:22.903Z</time></trkpt><trkpt lat="37.7984582" lon="13.7389798"><ele>577.0</ele><time>2026-05-01T09:05:23.903Z</time></trkpt><trkpt lat="37.7982988" lon="13.7390912"><ele>577.0</ele><time>2026-05-01T09:05:24.903Z</time></trkpt><trkpt lat="37.7981632" lon="13.7391776"><ele>577.0</ele><time>2026-05-01T09:05:25.904Z</time></trkpt><trkpt lat="37.7980546" lon="13.7392506"><ele>577.0</ele><time>2026-05-01T09:05:26.904Z</time></trkpt><trkpt lat="37.797978" lon="13.7393332"><ele>577.0</ele><time>2026-05-01T09:05:27.904Z</time></trkpt><trkpt lat="37.7979276" lon="13.7394511"><ele>570.25</ele><time>2026-05-01T09:05:28.904Z</time></trkpt><trkpt lat="37.7979082" lon="13.739603"><ele>563.5</ele><time>2026-05-01T09:05:29.903Z</time></trkpt><trkpt lat="37.7979053" lon="13.739764"><ele>556.75</ele><time>2026-05-01T09:05:30.911Z</time></trkpt><trkpt lat="37.7978915" lon="13.7399107"><ele>550.0</ele><time>2026-05-01T09:05:31.912Z</time></trkpt><trkpt lat="37.7978272" lon="13.7400354"><ele>550.0</ele><time>2026-05-01T09:05:32.911Z</time></trkpt><trkpt lat="37.7977149" lon="13.7401673"><ele>550.0</ele><time>2026-05-01T09:05:33.911Z</time></trkpt><trkpt lat="37.797573" lon="13.7403131"><ele>550.0</ele><time>2026-05-01T09:05:34.911Z</time></trkpt><trkpt lat="37.7974356" lon="13.7404557"><ele>550.0</ele><time>2026-05-01T09:05:35.912Z</time></trkpt><trkpt lat="37.7972878" lon="13.7405518"><ele>550.0</ele><time>2026-05-01T09:05:36.911Z</time></trkpt><trkpt lat="37.797117" lon="13.7406286"><ele>550.0</ele><time>2026-05-01T09:05:37.911Z</time></trkpt><trkpt lat="37.7969384" lon="13.7406813"><ele>557.3333333333334</ele><time>2026-05-01T09:05:38.912Z</time></trkpt><trkpt lat="37.7967814" lon="13.7407562"><ele>564.6666666666666</ele><time>2026-05-01T09:05:39.911Z</time></trkpt><trkpt lat="37.7966418" lon="13.7408709"><ele>572.0</ele><time>2026-05-01T09:05:40.911Z</time></trkpt><trkpt lat="37.7965298" lon="13.7409928"><ele>561.0</ele><time>2026-05-01T09:05:41.912Z</time></trkpt><trkpt lat="37.796406" lon="13.7410968"><ele>550.0</ele><time>2026-05-01T09:05:42.911Z</time></trkpt><trkpt lat="37.796253" lon="13.7411719"><ele>539.0</ele><time>2026-05-01T09:05:43.911Z</time></trkpt><trkpt lat="37.7960952" lon="13.7412352"><ele>545.6666666666666</ele><time>2026-05-01T09:05:44.912Z</time></trkpt><trkpt lat="37.7959523" lon="13.7413335"><ele>552.3333333333334</ele><time>2026-05-01T09:05:45.911Z</time></trkpt><trkpt lat="37.795787" lon="13.7414848"><ele>559.0</ele><time>2026-05-01T09:05:46.912Z</time></trkpt><trkpt lat="37.7955873" lon="13.7416441"><ele>559.0</ele><time>2026-05-01T09:05:47.911Z</time></trkpt><trkpt lat="37.7953969" lon="13.7417779"><ele>559.0</ele><time>2026-05-01T09:05:48.912Z</time></trkpt><trkpt lat="37.7952418" lon="13.7418864"><ele>559.0</ele><time>2026-05-01T09:05:49.911Z</time></trkpt><trkpt lat="37.795118" lon="13.7420017"><ele>559.5</ele><time>2026-05-01T09:05:50.911Z</time></trkpt><trkpt lat="37.7950165" lon="13.7421241"><ele>560.0</ele><time>2026-05-01T09:05:51.911Z</time></trkpt><trkpt lat="37.7949419" lon="13.7422248"><ele>560.5</ele><time>2026-05-01T09:05:52.912Z</time></trkpt><trkpt lat="37.7948904" lon="13.7423333"><ele>561.0</ele><time>2026-05-01T09:05:53.911Z</time></trkpt><trkpt lat="37.7948643" lon="13.7424683"><ele>561.0</ele><time>2026-05-01T09:05:54.911Z</time></trkpt><trkpt lat="37.7948526" lon="13.742614"><ele>561.0</ele><time>2026-05-01T09:05:55.911Z</time></trkpt><trkpt lat="37.7948495" lon="13.7427248"><ele>561.0</ele><time>2026-05-01T09:05:56.911Z</time></trkpt><trkpt lat="37.7948683" lon="13.742822"><ele>561.0</ele><time>2026-05-01T09:05:57.912Z</time></trkpt><trkpt lat="37.7949209" lon="13.7429115"><ele>561.0</ele><time>2026-05-01T09:05:58.911Z</time></trkpt><trkpt lat="37.7950077" lon="13.7429763"><ele>564.6666666666666</ele><time>2026-05-01T09:05:59.911Z</time></trkpt><trkpt lat="37.7951209" lon="13.7430223"><ele>568.3333333333333</ele><time>2026-05-01T09:06:00.911Z</time></trkpt><trkpt lat="37.7952903" lon="13.7430549"><ele>572.0</ele><time>2026-05-01T09:06:01.912Z</time></trkpt><trkpt lat="37.795484" lon="13.7430816"><ele>572.0</ele><time>2026-05-01T09:06:02.911Z</time></trkpt><trkpt lat="37.7956643" lon="13.7431134"><ele>572.0</ele><time>2026-05-01T09:06:03.911Z</time></trkpt><trkpt lat="37.7958204" lon="13.7431505"><ele>572.0</ele><time>2026-05-01T09:06:04.912Z</time></trkpt><trkpt lat="37.7959707" lon="13.7432141"><ele>570.3333333333333</ele><time>2026-05-01T09:06:05.912Z</time></trkpt><trkpt lat="37.7961306" lon="13.7433029"><ele>568.6666666666666</ele><time>2026-05-01T09:06:06.911Z</time></trkpt><trkpt lat="37.7963028" lon="13.7434042"><ele>567.0</ele><time>2026-05-01T09:06:07.912Z</time></trkpt><trkpt lat="37.7964908" lon="13.743508"><ele>571.6666666666666</ele><time>2026-05-01T09:06:08.911Z</time></trkpt><trkpt lat="37.7966878" lon="13.7436141"><ele>576.3333333333333</ele><time>2026-05-01T09:06:09.912Z</time></trkpt><trkpt lat="37.7968965" lon="13.7437245"><ele>581.0</ele><time>2026-05-01T09:06:10.911Z</time></trkpt><trkpt lat="37.7971023" lon="13.7438335"><ele>581.0</ele><time>2026-05-01T09:06:11.911Z</time></trkpt><trkpt lat="37.7972912" lon="13.7439352"><ele>581.0</ele><time>2026-05-01T09:06:12.911Z</time></trkpt><trkpt lat="37.7974804" lon="13.7440375"><ele>581.0</ele><time>2026-05-01T09:06:13.911Z</time></trkpt><trkpt lat="37.797663" lon="13.7441467"><ele>580.0</ele><time>2026-05-01T09:06:14.911Z</time></trkpt><trkpt lat="37.7978424" lon="13.7442748"><ele>579.0</ele><time>2026-05-01T09:06:15.912Z</time></trkpt><trkpt lat="37.7980134" lon="13.7444098"><ele>578.0</ele><time>2026-05-01T09:06:16.911Z</time></trkpt><trkpt lat="37.7981736" lon="13.7445289"><ele>579.5</ele><time>2026-05-01T09:06:17.912Z</time></trkpt><trkpt lat="37.7983146" lon="13.7446257"><ele>581.0</ele><time>2026-05-01T09:06:18.912Z</time></trkpt><trkpt lat="37.7984318" lon="13.7447084"><ele>582.5</ele><time>2026-05-01T09:06:19.912Z</time></trkpt><trkpt lat="37.7985296" lon="13.7447975"><ele>584.0</ele><time>2026-05-01T09:06:20.911Z</time></trkpt><trkpt lat="37.7986126" lon="13.7449374"><ele>584.0</ele><time>2026-05-01T09:06:21.912Z</time></trkpt><trkpt lat="37.7986905" lon="13.7451073"><ele>584.0</ele><time>2026-05-01T09:06:22.912Z</time></trkpt><trkpt lat="37.7987634" lon="13.745291"><ele>584.0</ele><time>2026-05-01T09:06:23.911Z</time></trkpt><trkpt lat="37.7988384" lon="13.7454771"><ele>585.5</ele><time>2026-05-01T09:06:24.912Z</time></trkpt><trkpt lat="37.7989044" lon="13.7456335"><ele>587.0</ele><time>2026-05-01T09:06:25.911Z</time></trkpt><trkpt lat="37.798976" lon="13.7457521"><ele>588.5</ele><time>2026-05-01T09:06:26.912Z</time></trkpt><trkpt lat="37.79906" lon="13.7458311"><ele>590.0</ele><time>2026-05-01T09:06:27.911Z</time></trkpt><trkpt lat="37.799154" lon="13.7458589"><ele>590.0</ele><time>2026-05-01T09:06:28.911Z</time></trkpt><trkpt lat="37.7992427" lon="13.7458387"><ele>590.0</ele><time>2026-05-01T09:06:29.911Z</time></trkpt><trkpt lat="37.7993236" lon="13.7457524"><ele>590.0</ele><time>2026-05-01T09:06:30.912Z</time></trkpt><trkpt lat="37.7993983" lon="13.7456408"><ele>590.0</ele><time>2026-05-01T09:06:31.911Z</time></trkpt><trkpt lat="37.7994389" lon="13.745513"><ele>590.0</ele><time>2026-05-01T09:06:32.911Z</time></trkpt><trkpt lat="37.7994353" lon="13.7453699"><ele>589.6</ele><time>2026-05-01T09:06:33.911Z</time></trkpt><trkpt lat="37.7994262" lon="13.7452217"><ele>589.2</ele><time>2026-05-01T09:06:34.912Z</time></trkpt><trkpt lat="37.7994524" lon="13.7451057"><ele>588.8</ele><time>2026-05-01T09:06:35.911Z</time></trkpt><trkpt lat="37.7995139" lon="13.745028"><ele>588.4</ele><time>2026-05-01T09:06:36.911Z</time></trkpt><trkpt lat="37.7996052" lon="13.7449798"><ele>588.0</ele><time>2026-05-01T09:06:37.911Z</time></trkpt><trkpt lat="37.7997135" lon="13.7449842"><ele>588.0</ele><time>2026-05-01T09:06:38.911Z</time></trkpt><trkpt lat="37.7998417" lon="13.7450491"><ele>588.0</ele><time>2026-05-01T09:06:39.911Z</time></trkpt><trkpt lat="37.800012" lon="13.7451693"><ele>588.0</ele><time>2026-05-01T09:06:40.911Z</time></trkpt><trkpt lat="37.8002156" lon="13.745315"><ele>594.5</ele><time>2026-05-01T09:06:41.912Z</time></trkpt><trkpt lat="37.8004472" lon="13.7454734"><ele>601.0</ele><time>2026-05-01T09:06:42.911Z</time></trkpt><trkpt lat="37.8006851" lon="13.7456456"><ele>601.0</ele><time>2026-05-01T09:06:43.911Z</time></trkpt><trkpt lat="37.8008999" lon="13.7457962"><ele>601.0</ele><time>2026-05-01T09:06:44.911Z</time></trkpt><trkpt lat="37.801083" lon="13.7459218"><ele>600.3333333333334</ele><time>2026-05-01T09:06:45.911Z</time></trkpt><trkpt lat="37.8012295" lon="13.7460249"><ele>599.6666666666666</ele><time>2026-05-01T09:06:46.911Z</time></trkpt><trkpt lat="37.8013634" lon="13.7460982"><ele>599.0</ele><time>2026-05-01T09:06:47.912Z</time></trkpt><trkpt lat="37.8015118" lon="13.746125"><ele>605.0</ele><time>2026-05-01T09:06:48.912Z</time></trkpt><trkpt lat="37.8016957" lon="13.7461186"><ele>611.0</ele><time>2026-05-01T09:06:49.911Z</time></trkpt><trkpt lat="37.8019134" lon="13.7460854"><ele>617.0</ele><time>2026-05-01T09:06:50.911Z</time></trkpt><trkpt lat="37.8021288" lon="13.7460523"><ele>613.3333333333333</ele><time>2026-05-01T09:06:51.911Z</time></trkpt><trkpt lat="37.8023074" lon="13.7460356"><ele>609.6666666666666</ele><time>2026-05-01T09:06:52.911Z</time></trkpt><trkpt lat="37.8024596" lon="13.7460064"><ele>606.0</ele><time>2026-05-01T09:06:53.911Z</time></trkpt><trkpt lat="37.8026025" lon="13.7459194"><ele>611.3333333333334</ele><time>2026-05-01T09:06:54.911Z</time></trkpt><trkpt lat="37.8027371" lon="13.7457923"><ele>616.6666666666667</ele><time>2026-05-01T09:06:55.911Z</time></trkpt><trkpt lat="37.8028792" lon="13.745616"><ele>622.0</ele><time>2026-05-01T09:06:56.911Z</time></trkpt><trkpt lat="37.8030437" lon="13.7454326"><ele>622.0</ele><time>2026-05-01T09:06:57.911Z</time></trkpt><trkpt lat="37.8031965" lon="13.7452559"><ele>622.0</ele><time>2026-05-01T09:06:58.911Z</time></trkpt><trkpt lat="37.8033188" lon="13.7451067"><ele>622.0</ele><time>2026-05-01T09:06:59.911Z</time></trkpt><trkpt lat="37.8034418" lon="13.7449897"><ele>622.0</ele><time>2026-05-01T09:07:00.912Z</time></trkpt><trkpt lat="37.8035782" lon="13.7449103"><ele>622.0</ele><time>2026-05-01T09:07:01.912Z</time></trkpt><trkpt lat="37.80373" lon="13.7448608"><ele>622.0</ele><time>2026-05-01T09:07:02.912Z</time></trkpt><trkpt lat="37.8038955" lon="13.7448278"><ele>622.0</ele><time>2026-05-01T09:07:03.911Z</time></trkpt><trkpt lat="37.8040635" lon="13.7448218"><ele>622.0</ele><time>2026-05-01T09:07:04.911Z</time></trkpt><trkpt lat="37.8042041" lon="13.7448051"><ele>622.0</ele><time>2026-05-01T09:07:05.911Z</time></trkpt><trkpt lat="37.8043053" lon="13.7447892"><ele>622.0</ele><time>2026-05-01T09:07:06.911Z</time></trkpt><trkpt lat="37.8043896" lon="13.7447309"><ele>622.75</ele><time>2026-05-01T09:07:07.912Z</time></trkpt><trkpt lat="37.8044611" lon="13.7446353"><ele>623.5</ele><time>2026-05-01T09:07:08.911Z</time></trkpt><trkpt lat="37.8045125" lon="13.7445164"><ele>624.25</ele><time>2026-05-01T09:07:09.912Z</time></trkpt><trkpt lat="37.804556" lon="13.7443603"><ele>625.0</ele><time>2026-05-01T09:07:10.911Z</time></trkpt><trkpt lat="37.8046009" lon="13.7442159"><ele>625.0</ele><time>2026-05-01T09:07:11.911Z</time></trkpt><trkpt lat="37.804676" lon="13.7441169"><ele>625.0</ele><time>2026-05-01T09:07:12.911Z</time></trkpt><trkpt lat="37.8047806" lon="13.7440264"><ele>625.0</ele><time>2026-05-01T09:07:13.911Z</time></trkpt><trkpt lat="37.8049213" lon="13.7439377"><ele>625.0</ele><time>2026-05-01T09:07:14.912Z</time></trkpt><trkpt lat="37.8050998" lon="13.7438554"><ele>628.0</ele><time>2026-05-01T09:07:15.911Z</time></trkpt><trkpt lat="37.8052579" lon="13.7437577"><ele>631.0</ele><time>2026-05-01T09:07:16.912Z</time></trkpt><trkpt lat="37.8054057" lon="13.7437002"><ele>634.0</ele><time>2026-05-01T09:07:17.911Z</time></trkpt><trkpt lat="37.8055371" lon="13.7436889"><ele>634.0</ele><time>2026-05-01T09:07:18.912Z</time></trkpt><trkpt lat="37.8056654" lon="13.743713"><ele>634.0</ele><time>2026-05-01T09:07:19.912Z</time></trkpt><trkpt lat="37.8057842" lon="13.7437488"><ele>634.0</ele><time>2026-05-01T09:07:20.911Z</time></trkpt><trkpt lat="37.8058882" lon="13.7437941"><ele>634.0</ele><time>2026-05-01T09:07:21.911Z</time></trkpt><trkpt lat="37.8059884" lon="13.7438244"><ele>634.0</ele><time>2026-05-01T09:07:22.912Z</time></trkpt><trkpt lat="37.8060851" lon="13.7438139"><ele>634.0</ele><time>2026-05-01T09:07:23.911Z</time></trkpt><trkpt lat="37.8061804" lon="13.7437542"><ele>634.0</ele><time>2026-05-01T09:07:24.912Z</time></trkpt><trkpt lat="37.8062698" lon="13.7436413"><ele>634.0</ele><time>2026-05-01T09:07:25.912Z</time></trkpt><trkpt lat="37.8063725" lon="13.743481"><ele>634.0</ele><time>2026-05-01T09:07:26.912Z</time></trkpt><trkpt lat="37.8064779" lon="13.7433101"><ele>634.0</ele><time>2026-05-01T09:07:27.911Z</time></trkpt><trkpt lat="37.8065747" lon="13.7431591"><ele>634.0</ele><time>2026-05-01T09:07:28.911Z</time></trkpt><trkpt lat="37.8066871" lon="13.7430471"><ele>641.0</ele><time>2026-05-01T09:07:29.911Z</time></trkpt><trkpt lat="37.8068366" lon="13.7429606"><ele>648.0</ele><time>2026-05-01T09:07:30.912Z</time></trkpt><trkpt lat="37.8070119" lon="13.7428897"><ele>655.0</ele><time>2026-05-01T09:07:31.911Z</time></trkpt><trkpt lat="37.8071718" lon="13.7428133"><ele>650.0</ele><time>2026-05-01T09:07:32.911Z</time></trkpt><trkpt lat="37.8073023" lon="13.7427098"><ele>645.0</ele><time>2026-05-01T09:07:33.912Z</time></trkpt><trkpt lat="37.8074215" lon="13.7425646"><ele>640.0</ele><time>2026-05-01T09:07:34.912Z</time></trkpt><trkpt lat="37.807545" lon="13.7423834"><ele>645.0</ele><time>2026-05-01T09:07:35.912Z</time></trkpt><trkpt lat="37.8076607" lon="13.7421875"><ele>650.0</ele><time>2026-05-01T09:07:36.912Z</time></trkpt><trkpt lat="37.8077651" lon="13.7420114"><ele>655.0</ele><time>2026-05-01T09:07:37.912Z</time></trkpt><trkpt lat="37.8078487" lon="13.7418189"><ele>655.0</ele><time>2026-05-01T09:07:38.911Z</time></trkpt><trkpt lat="37.8079073" lon="13.7415846"><ele>655.0</ele><time>2026-05-01T09:07:39.911Z</time></trkpt><trkpt lat="37.8079317" lon="13.7413084"><ele>655.0</ele><time>2026-05-01T09:07:40.912Z</time></trkpt><trkpt lat="37.8079542" lon="13.7410544"><ele>651.2</ele><time>2026-05-01T09:07:41.911Z</time></trkpt><trkpt lat="37.8079697" lon="13.7408791"><ele>647.4</ele><time>2026-05-01T09:07:42.911Z</time></trkpt><trkpt lat="37.8079991" lon="13.7407581"><ele>643.6</ele><time>2026-05-01T09:07:43.911Z</time></trkpt><trkpt lat="37.8080514" lon="13.7406814"><ele>639.8</ele><time>2026-05-01T09:07:44.911Z</time></trkpt><trkpt lat="37.8081135" lon="13.7406314"><ele>636.0</ele><time>2026-05-01T09:07:45.911Z</time></trkpt><trkpt lat="37.8082001" lon="13.7406527"><ele>636.0</ele><time>2026-05-01T09:07:46.912Z</time></trkpt><trkpt lat="37.8083168" lon="13.7407282"><ele>636.0</ele><time>2026-05-01T09:07:47.911Z</time></trkpt><trkpt lat="37.8084468" lon="13.7408212"><ele>636.0</ele><time>2026-05-01T09:07:48.911Z</time></trkpt><trkpt lat="37.8085975" lon="13.7408521"><ele>636.0</ele><time>2026-05-01T09:07:49.911Z</time></trkpt><trkpt lat="37.8087654" lon="13.7408388"><ele>637.0</ele><time>2026-05-01T09:07:50.911Z</time></trkpt><trkpt lat="37.8089662" lon="13.7407861"><ele>638.0</ele><time>2026-05-01T09:07:51.911Z</time></trkpt><trkpt lat="37.8092006" lon="13.7407221"><ele>639.0</ele><time>2026-05-01T09:07:52.911Z</time></trkpt><trkpt lat="37.80945" lon="13.740666"><ele>637.0</ele><time>2026-05-01T09:07:53.911Z</time></trkpt><trkpt lat="37.8096736" lon="13.7406227"><ele>635.0</ele><time>2026-05-01T09:07:54.912Z</time></trkpt><trkpt lat="37.8098393" lon="13.7405923"><ele>633.0</ele><time>2026-05-01T09:07:55.912Z</time></trkpt><trkpt lat="37.8099741" lon="13.7405819"><ele>633.0</ele><time>2026-05-01T09:07:56.911Z</time></trkpt><trkpt lat="37.8100814" lon="13.7406086"><ele>633.0</ele><time>2026-05-01T09:07:57.912Z</time></trkpt><trkpt lat="37.8101918" lon="13.7406913"><ele>633.0</ele><time>2026-05-01T09:07:58.912Z</time></trkpt><trkpt lat="37.8103203" lon="13.7408192"><ele>633.0</ele><time>2026-05-01T09:07:59.912Z</time></trkpt><trkpt lat="37.8104583" lon="13.7409815"><ele>631.5</ele><time>2026-05-01T09:08:00.911Z</time></trkpt><trkpt lat="37.8106148" lon="13.7411787"><ele>630.0</ele><time>2026-05-01T09:08:01.911Z</time></trkpt><trkpt lat="37.8107893" lon="13.7413891"><ele>630.0</ele><time>2026-05-01T09:08:02.911Z</time></trkpt><trkpt lat="37.810953" lon="13.7415808"><ele>630.0</ele><time>2026-05-01T09:08:03.912Z</time></trkpt><trkpt lat="37.8110917" lon="13.7417568"><ele>630.0</ele><time>2026-05-01T09:08:04.911Z</time></trkpt><trkpt lat="37.8112163" lon="13.7419064"><ele>629.3333333333334</ele><time>2026-05-01T09:08:05.912Z</time></trkpt><trkpt lat="37.8113472" lon="13.7420277"><ele>628.6666666666667</ele><time>2026-05-01T09:08:06.911Z</time></trkpt><trkpt lat="37.8115029" lon="13.7421311"><ele>628.0</ele><time>2026-05-01T09:08:07.912Z</time></trkpt><trkpt lat="37.8117004" lon="13.7422111"><ele>623.0</ele><time>2026-05-01T09:08:08.912Z</time></trkpt><trkpt lat="37.8119194" lon="13.7422878"><ele>618.0</ele><time>2026-05-01T09:08:09.912Z</time></trkpt><trkpt lat="37.8121364" lon="13.7423695"><ele>618.0</ele><time>2026-05-01T09:08:10.912Z</time></trkpt><trkpt lat="37.8123436" lon="13.7424448"><ele>618.0</ele><time>2026-05-01T09:08:11.912Z</time></trkpt><trkpt lat="37.8125606" lon="13.7424972"><ele>618.0</ele><time>2026-05-01T09:08:12.912Z</time></trkpt><trkpt lat="37.8127695" lon="13.7425172"><ele>616.0</ele><time>2026-05-01T09:08:13.911Z</time></trkpt><trkpt lat="37.8129422" lon="13.7425265"><ele>614.0</ele><time>2026-05-01T09:08:14.912Z</time></trkpt><trkpt lat="37.8130937" lon="13.742552"><ele>612.0</ele><time>2026-05-01T09:08:15.911Z</time></trkpt><trkpt lat="37.8132255" lon="13.7426221"><ele>612.0</ele><time>2026-05-01T09:08:16.911Z</time></trkpt><trkpt lat="37.8133375" lon="13.7427104"><ele>612.0</ele><time>2026-05-01T09:08:17.911Z</time></trkpt><trkpt lat="37.8134235" lon="13.7428175"><ele>612.0</ele><time>2026-05-01T09:08:18.911Z</time></trkpt><trkpt lat="37.8134828" lon="13.7429381"><ele>612.0</ele><time>2026-05-01T09:08:19.912Z</time></trkpt><trkpt lat="37.8135012" lon="13.743072"><ele>612.5</ele><time>2026-05-01T09:08:20.911Z</time></trkpt><trkpt lat="37.8134821" lon="13.7432316"><ele>613.0</ele><time>2026-05-01T09:08:21.912Z</time></trkpt><trkpt lat="37.8134514" lon="13.743403"><ele>613.5</ele><time>2026-05-01T09:08:22.911Z</time></trkpt><trkpt lat="37.8134594" lon="13.7435653"><ele>614.0</ele><time>2026-05-01T09:08:23.911Z</time></trkpt><trkpt lat="37.813503" lon="13.7437285"><ele>611.3333333333333</ele><time>2026-05-01T09:08:24.912Z</time></trkpt><trkpt lat="37.8135957" lon="13.7438836"><ele>608.6666666666666</ele><time>2026-05-01T09:08:25.911Z</time></trkpt><trkpt lat="37.8137314" lon="13.7440469"><ele>606.0</ele><time>2026-05-01T09:08:26.912Z</time></trkpt><trkpt lat="37.8138966" lon="13.7442371"><ele>609.0</ele><time>2026-05-01T09:08:27.912Z</time></trkpt><trkpt lat="37.8140895" lon="13.7444599"><ele>612.0</ele><time>2026-05-01T09:08:28.911Z</time></trkpt><trkpt lat="37.8143023" lon="13.7447146"><ele>611.5</ele><time>2026-05-01T09:08:29.911Z</time></trkpt><trkpt lat="37.8145302" lon="13.7449988"><ele>611.0</ele><time>2026-05-01T09:08:30.911Z</time></trkpt><trkpt lat="37.814757" lon="13.7452834"><ele>611.0</ele><time>2026-05-01T09:08:31.911Z</time></trkpt><trkpt lat="37.8149674" lon="13.7455413"><ele>611.0</ele><time>2026-05-01T09:08:32.911Z</time></trkpt><trkpt lat="37.815159" lon="13.7457822"><ele>609.0</ele><time>2026-05-01T09:08:33.911Z</time></trkpt><trkpt lat="37.8153453" lon="13.7460151"><ele>607.0</ele><time>2026-05-01T09:08:34.912Z</time></trkpt><trkpt lat="37.8155253" lon="13.7462329"><ele>607.0</ele><time>2026-05-01T09:08:35.911Z</time></trkpt><trkpt lat="37.8156951" lon="13.7464378"><ele>607.0</ele><time>2026-05-01T09:08:36.911Z</time></trkpt><trkpt lat="37.8158523" lon="13.7466292"><ele>609.0</ele><time>2026-05-01T09:08:37.911Z</time></trkpt><trkpt lat="37.8159953" lon="13.746803"><ele>611.0</ele><time>2026-05-01T09:08:38.912Z</time></trkpt><trkpt lat="37.8161351" lon="13.7469485"><ele>613.0</ele><time>2026-05-01T09:08:39.911Z</time></trkpt><trkpt lat="37.8162928" lon="13.7470743"><ele>613.0</ele><time>2026-05-01T09:08:40.911Z</time></trkpt><trkpt lat="37.8164803" lon="13.7471586"><ele>613.0</ele><time>2026-05-01T09:08:41.912Z</time></trkpt><trkpt lat="37.8167037" lon="13.747229"><ele>613.0</ele><time>2026-05-01T09:08:42.911Z</time></trkpt><trkpt lat="37.8169397" lon="13.7472823"><ele>612.6666666666667</ele><time>2026-05-01T09:08:43.911Z</time></trkpt><trkpt lat="37.8171379" lon="13.7473331"><ele>612.3333333333334</ele><time>2026-05-01T09:08:44.912Z</time></trkpt><trkpt lat="37.8172989" lon="13.747378"><ele>612.0</ele><time>2026-05-01T09:08:45.912Z</time></trkpt><trkpt lat="37.8174667" lon="13.7473788"><ele>614.6666666666666</ele><time>2026-05-01T09:08:46.911Z</time></trkpt><trkpt lat="37.817655" lon="13.747322"><ele>617.3333333333333</ele><time>2026-05-01T09:08:47.911Z</time></trkpt><trkpt lat="37.8178489" lon="13.7472224"><ele>620.0</ele><time>2026-05-01T09:08:48.911Z</time></trkpt><trkpt lat="37.8180068" lon="13.7471603"><ele>620.0</ele><time>2026-05-01T09:08:49.911Z</time></trkpt><trkpt lat="37.8181523" lon="13.7471231"><ele>620.0</ele><time>2026-05-01T09:08:50.912Z</time></trkpt><trkpt lat="37.8182796" lon="13.7471431"><ele>620.0</ele><time>2026-05-01T09:08:51.911Z</time></trkpt><trkpt lat="37.8184033" lon="13.7472042"><ele>620.0</ele><time>2026-05-01T09:08:52.911Z</time></trkpt><trkpt lat="37.818509" lon="13.7473171"><ele>617.75</ele><time>2026-05-01T09:08:53.911Z</time></trkpt><trkpt lat="37.8186014" lon="13.747448"><ele>615.5</ele><time>2026-05-01T09:08:54.912Z</time></trkpt><trkpt lat="37.8187139" lon="13.7475367"><ele>613.25</ele><time>2026-05-01T09:08:55.911Z</time></trkpt><trkpt lat="37.8188522" lon="13.7475742"><ele>611.0</ele><time>2026-05-01T09:08:56.912Z</time></trkpt><trkpt lat="37.81901" lon="13.7475577"><ele>611.0</ele><time>2026-05-01T09:08:57.911Z</time></trkpt><trkpt lat="37.8191911" lon="13.7475431"><ele>611.0</ele><time>2026-05-01T09:08:58.912Z</time></trkpt><trkpt lat="37.8193625" lon="13.7475781"><ele>611.0</ele><time>2026-05-01T09:08:59.912Z</time></trkpt><trkpt lat="37.8194869" lon="13.7476377"><ele>610.5</ele><time>2026-05-01T09:09:00.912Z</time></trkpt><trkpt lat="37.8195652" lon="13.7477053"><ele>610.0</ele><time>2026-05-01T09:09:01.911Z</time></trkpt><trkpt lat="37.8196293" lon="13.7478227"><ele>609.5</ele><time>2026-05-01T09:09:02.911Z</time></trkpt><trkpt lat="37.8196743" lon="13.7480099"><ele>609.0</ele><time>2026-05-01T09:09:03.912Z</time></trkpt><trkpt lat="37.8197111" lon="13.7482623"><ele>609.3333333333334</ele><time>2026-05-01T09:09:04.911Z</time></trkpt><trkpt lat="37.8197588" lon="13.7485441"><ele>609.6666666666667</ele><time>2026-05-01T09:09:05.911Z</time></trkpt><trkpt lat="37.8197975" lon="13.748772"><ele>610.0</ele><time>2026-05-01T09:09:06.911Z</time></trkpt><trkpt lat="37.8198008" lon="13.7489603"><ele>610.0</ele><time>2026-05-01T09:09:07.912Z</time></trkpt><trkpt lat="37.8197729" lon="13.7491602"><ele>610.0</ele><time>2026-05-01T09:09:08.912Z</time></trkpt><trkpt lat="37.8197123" lon="13.7493627"><ele>610.0</ele><time>2026-05-01T09:09:09.911Z</time></trkpt><trkpt lat="37.8196163" lon="13.7495688"><ele>611.0</ele><time>2026-05-01T09:09:10.911Z</time></trkpt><trkpt lat="37.8195322" lon="13.7497444"><ele>612.0</ele><time>2026-05-01T09:09:11.912Z</time></trkpt><trkpt lat="37.8194839" lon="13.7498939"><ele>613.0</ele><time>2026-05-01T09:09:12.912Z</time></trkpt><trkpt lat="37.8194819" lon="13.7500475"><ele>614.0</ele><time>2026-05-01T09:09:13.912Z</time></trkpt><trkpt lat="37.8195279" lon="13.7501968"><ele>616.3333333333333</ele><time>2026-05-01T09:09:14.912Z</time></trkpt><trkpt lat="37.819614" lon="13.7503443"><ele>618.6666666666666</ele><time>2026-05-01T09:09:15.911Z</time></trkpt><trkpt lat="37.8197373" lon="13.7505164"><ele>621.0</ele><time>2026-05-01T09:09:16.911Z</time></trkpt><trkpt lat="37.8198642" lon="13.7507047"><ele>621.0</ele><time>2026-05-01T09:09:17.911Z</time></trkpt><trkpt lat="37.8199767" lon="13.7508851"><ele>621.0</ele><time>2026-05-01T09:09:18.911Z</time></trkpt><trkpt lat="37.8200731" lon="13.7510493"><ele>621.0</ele><time>2026-05-01T09:09:19.912Z</time></trkpt><trkpt lat="37.8201549" lon="13.7512322"><ele>620.0</ele><time>2026-05-01T09:09:20.912Z</time></trkpt><trkpt lat="37.8202348" lon="13.7514565"><ele>619.0</ele><time>2026-05-01T09:09:21.911Z</time></trkpt><trkpt lat="37.8203163" lon="13.7517"><ele>618.0</ele><time>2026-05-01T09:09:22.911Z</time></trkpt><trkpt lat="37.8204024" lon="13.7519465"><ele>620.3333333333334</ele><time>2026-05-01T09:09:23.911Z</time></trkpt><trkpt lat="37.8204913" lon="13.752193"><ele>622.6666666666667</ele><time>2026-05-01T09:09:24.912Z</time></trkpt><trkpt lat="37.8205779" lon="13.7524335"><ele>625.0</ele><time>2026-05-01T09:09:25.911Z</time></trkpt><trkpt lat="37.8206616" lon="13.7526625"><ele>627.3333333333334</ele><time>2026-05-01T09:09:26.912Z</time></trkpt><trkpt lat="37.8207385" lon="13.7528664"><ele>629.6666666666666</ele><time>2026-05-01T09:09:27.911Z</time></trkpt><trkpt lat="37.8208044" lon="13.7530505"><ele>632.0</ele><time>2026-05-01T09:09:28.911Z</time></trkpt><trkpt lat="37.8208603" lon="13.7532099"><ele>632.0</ele><time>2026-05-01T09:09:29.911Z</time></trkpt><trkpt lat="37.820894" lon="13.7533647"><ele>632.0</ele><time>2026-05-01T09:09:30.912Z</time></trkpt><trkpt lat="37.8208856" lon="13.7535153"><ele>632.0</ele><time>2026-05-01T09:09:31.911Z</time></trkpt><trkpt lat="37.8208456" lon="13.7536777"><ele>632.0</ele><time>2026-05-01T09:09:32.912Z</time></trkpt><trkpt lat="37.820764" lon="13.7538259"><ele>630.3333333333333</ele><time>2026-05-01T09:09:33.911Z</time></trkpt><trkpt lat="37.8206423" lon="13.7539922"><ele>628.6666666666666</ele><time>2026-05-01T09:09:34.912Z</time></trkpt><trkpt lat="37.8205096" lon="13.7541883"><ele>627.0</ele><time>2026-05-01T09:09:35.911Z</time></trkpt><trkpt lat="37.8203913" lon="13.7543602"><ele>625.3333333333334</ele><time>2026-05-01T09:09:36.911Z</time></trkpt><trkpt lat="37.820292" lon="13.7545109"><ele>623.6666666666667</ele><time>2026-05-01T09:09:37.912Z</time></trkpt><trkpt lat="37.820215" lon="13.754657"><ele>622.0</ele><time>2026-05-01T09:09:38.911Z</time></trkpt><trkpt lat="37.8201556" lon="13.7548463"><ele>623.3333333333334</ele><time>2026-05-01T09:09:39.912Z</time></trkpt><trkpt lat="37.8201385" lon="13.7550659"><ele>624.6666666666666</ele><time>2026-05-01T09:09:40.911Z</time></trkpt><trkpt lat="37.8201408" lon="13.7553059"><ele>626.0</ele><time>2026-05-01T09:09:41.912Z</time></trkpt><trkpt lat="37.8201527" lon="13.7555154"><ele>626.0</ele><time>2026-05-01T09:09:42.911Z</time></trkpt><trkpt lat="37.8201726" lon="13.7556811"><ele>626.0</ele><time>2026-05-01T09:09:43.911Z</time></trkpt><trkpt lat="37.8202145" lon="13.7558272"><ele>626.0</ele><time>2026-05-01T09:09:44.912Z</time></trkpt><trkpt lat="37.8202831" lon="13.7559512"><ele>626.0</ele><time>2026-05-01T09:09:45.912Z</time></trkpt><trkpt lat="37.8203905" lon="13.7560705"><ele>627.75</ele><time>2026-05-01T09:09:46.912Z</time></trkpt><trkpt lat="37.8205233" lon="13.7561808"><ele>629.5</ele><time>2026-05-01T09:09:47.912Z</time></trkpt><trkpt lat="37.8206494" lon="13.756282"><ele>631.25</ele><time>2026-05-01T09:09:48.911Z</time></trkpt><trkpt lat="37.8207447" lon="13.7563745"><ele>633.0</ele><time>2026-05-01T09:09:49.911Z</time></trkpt><trkpt lat="37.8208175" lon="13.7565018"><ele>633.0</ele><time>2026-05-01T09:09:50.911Z</time></trkpt><trkpt lat="37.8208638" lon="13.7566503"><ele>633.0</ele><time>2026-05-01T09:09:51.912Z</time></trkpt><trkpt lat="37.820881" lon="13.7568134"><ele>633.0</ele><time>2026-05-01T09:09:52.912Z</time></trkpt><trkpt lat="37.8208628" lon="13.756988"><ele>633.0</ele><time>2026-05-01T09:09:53.912Z</time></trkpt><trkpt lat="37.820835" lon="13.7571482"><ele>634.1999999999999</ele><time>2026-05-01T09:09:54.912Z</time></trkpt><trkpt lat="37.8208273" lon="13.7572856"><ele>635.4</ele><time>2026-05-01T09:09:55.912Z</time></trkpt><trkpt lat="37.8208549" lon="13.7574038"><ele>636.5999999999999</ele><time>2026-05-01T09:09:56.911Z</time></trkpt><trkpt lat="37.820919" lon="13.7574977"><ele>637.8</ele><time>2026-05-01T09:09:57.911Z</time></trkpt><trkpt lat="37.8210144" lon="13.7575714"><ele>639.0</ele><time>2026-05-01T09:09:58.911Z</time></trkpt><trkpt lat="37.8211421" lon="13.7576332"><ele>637.0</ele><time>2026-05-01T09:09:59.912Z</time></trkpt><trkpt lat="37.8212692" lon="13.7576882"><ele>635.0</ele><time>2026-05-01T09:10:00.911Z</time></trkpt><trkpt lat="37.8213854" lon="13.7577913"><ele>633.0</ele><time>2026-05-01T09:10:01.912Z</time></trkpt><trkpt lat="37.8215044" lon="13.7579228"><ele>631.0</ele><time>2026-05-01T09:10:02.911Z</time></trkpt><trkpt lat="37.8216487" lon="13.7580735"><ele>631.0</ele><time>2026-05-01T09:10:03.911Z</time></trkpt><trkpt lat="37.8218032" lon="13.7582379"><ele>631.0</ele><time>2026-05-01T09:10:04.911Z</time></trkpt><trkpt lat="37.8219472" lon="13.7583973"><ele>631.0</ele><time>2026-05-01T09:10:05.912Z</time></trkpt><trkpt lat="37.8220869" lon="13.7585443"><ele>628.0</ele><time>2026-05-01T09:10:06.911Z</time></trkpt><trkpt lat="37.8222078" lon="13.7586791"><ele>625.0</ele><time>2026-05-01T09:10:07.911Z</time></trkpt><trkpt lat="37.8223035" lon="13.7587888"><ele>622.0</ele><time>2026-05-01T09:10:08.911Z</time></trkpt><trkpt lat="37.8223705" lon="13.7588956"><ele>619.0</ele><time>2026-05-01T09:10:09.912Z</time></trkpt><trkpt lat="37.8223915" lon="13.7589895"><ele>619.0</ele><time>2026-05-01T09:10:10.911Z</time></trkpt><trkpt lat="37.8223823" lon="13.7590955"><ele>619.0</ele><time>2026-05-01T09:10:11.911Z</time></trkpt><trkpt lat="37.8223395" lon="13.7592214"><ele>619.0</ele><time>2026-05-01T09:10:12.911Z</time></trkpt><trkpt lat="37.822298" lon="13.7593691"><ele>619.0</ele><time>2026-05-01T09:10:13.911Z</time></trkpt><trkpt lat="37.822288" lon="13.7595125"><ele>619.0</ele><time>2026-05-01T09:10:14.911Z</time></trkpt><trkpt lat="37.8223124" lon="13.7596494"><ele>620.4</ele><time>2026-05-01T09:10:15.912Z</time></trkpt><trkpt lat="37.8223611" lon="13.7597767"><ele>621.8</ele><time>2026-05-01T09:10:16.911Z</time></trkpt><trkpt lat="37.8224252" lon="13.7598756"><ele>623.2</ele><time>2026-05-01T09:10:17.912Z</time></trkpt><trkpt lat="37.8225034" lon="13.7599453"><ele>624.6</ele><time>2026-05-01T09:10:18.912Z</time></trkpt><trkpt lat="37.8226028" lon="13.7599666"><ele>626.0</ele><time>2026-05-01T09:10:19.911Z</time></trkpt><trkpt lat="37.8227352" lon="13.7599363"><ele>626.0</ele><time>2026-05-01T09:10:20.912Z</time></trkpt><trkpt lat="37.8228971" lon="13.7598768"><ele>626.0</ele><time>2026-05-01T09:10:21.911Z</time></trkpt><trkpt lat="37.8230873" lon="13.7597955"><ele>626.0</ele><time>2026-05-01T09:10:22.911Z</time></trkpt><trkpt lat="37.8232922" lon="13.7597452"><ele>623.3333333333333</ele><time>2026-05-01T09:10:23.911Z</time></trkpt><trkpt lat="37.8234917" lon="13.7597188"><ele>620.6666666666666</ele><time>2026-05-01T09:10:24.912Z</time></trkpt><trkpt lat="37.823674" lon="13.759704"><ele>618.0</ele><time>2026-05-01T09:10:25.912Z</time></trkpt><trkpt lat="37.8238258" lon="13.7596846"><ele>618.0</ele><time>2026-05-01T09:10:26.912Z</time></trkpt><trkpt lat="37.8239478" lon="13.7596696"><ele>618.0</ele><time>2026-05-01T09:10:27.912Z</time></trkpt><trkpt lat="37.824065" lon="13.7596918"><ele>618.0</ele><time>2026-05-01T09:10:28.912Z</time></trkpt><trkpt lat="37.8241861" lon="13.7597734"><ele>618.0</ele><time>2026-05-01T09:10:29.912Z</time></trkpt><trkpt lat="37.824316" lon="13.7598934"><ele>615.6666666666666</ele><time>2026-05-01T09:10:30.911Z</time></trkpt><trkpt lat="37.8244723" lon="13.7600676"><ele>613.3333333333333</ele><time>2026-05-01T09:10:31.912Z</time></trkpt><trkpt lat="37.8246308" lon="13.7602454"><ele>611.0</ele><time>2026-05-01T09:10:32.912Z</time></trkpt><trkpt lat="37.8247779" lon="13.7604264"><ele>611.0</ele><time>2026-05-01T09:10:33.912Z</time></trkpt><trkpt lat="37.8248999" lon="13.7606139"><ele>611.0</ele><time>2026-05-01T09:10:34.911Z</time></trkpt><trkpt lat="37.8250012" lon="13.7607935"><ele>611.0</ele><time>2026-05-01T09:10:35.911Z</time></trkpt><trkpt lat="37.8250869" lon="13.7609552"><ele>601.75</ele><time>2026-05-01T09:10:36.912Z</time></trkpt><trkpt lat="37.8251517" lon="13.7611222"><ele>592.5</ele><time>2026-05-01T09:10:37.912Z</time></trkpt><trkpt lat="37.8251896" lon="13.7612918"><ele>583.25</ele><time>2026-05-01T09:10:38.912Z</time></trkpt><trkpt lat="37.8252065" lon="13.7614758"><ele>574.0</ele><time>2026-05-01T09:10:39.911Z</time></trkpt><trkpt lat="37.8251923" lon="13.7616722"><ele>572.5</ele><time>2026-05-01T09:10:40.911Z</time></trkpt><trkpt lat="37.8251577" lon="13.7618687"><ele>571.0</ele><time>2026-05-01T09:10:41.911Z</time></trkpt><trkpt lat="37.8251132" lon="13.7620549"><ele>569.5</ele><time>2026-05-01T09:10:42.912Z</time></trkpt><trkpt lat="37.8250644" lon="13.7622133"><ele>568.0</ele><time>2026-05-01T09:10:43.912Z</time></trkpt><trkpt lat="37.8249971" lon="13.7623535"><ele>571.5</ele><time>2026-05-01T09:10:44.911Z</time></trkpt><trkpt lat="37.8249074" lon="13.76247"><ele>575.0</ele><time>2026-05-01T09:10:45.911Z</time></trkpt><trkpt lat="37.8248152" lon="13.7625734"><ele>578.5</ele><time>2026-05-01T09:10:46.912Z</time></trkpt><trkpt lat="37.824736" lon="13.7626897"><ele>582.0</ele><time>2026-05-01T09:10:47.911Z</time></trkpt><trkpt lat="37.8246773" lon="13.7628189"><ele>582.0</ele><time>2026-05-01T09:10:48.912Z</time></trkpt><trkpt lat="37.8246368" lon="13.7629507"><ele>582.0</ele><time>2026-05-01T09:10:49.912Z</time></trkpt><trkpt lat="37.8245755" lon="13.7630611"><ele>582.0</ele><time>2026-05-01T09:10:50.912Z</time></trkpt><trkpt lat="37.8244878" lon="13.7631421"><ele>582.0</ele><time>2026-05-01T09:10:51.911Z</time></trkpt><trkpt lat="37.8243784" lon="13.7631951"><ele>582.0</ele><time>2026-05-01T09:10:52.911Z</time></trkpt><trkpt lat="37.82427" lon="13.7632447"><ele>584.25</ele><time>2026-05-01T09:10:53.911Z</time></trkpt><trkpt lat="37.8241785" lon="13.7633289"><ele>586.5</ele><time>2026-05-01T09:10:54.911Z</time></trkpt><trkpt lat="37.8241091" lon="13.7634453"><ele>588.75</ele><time>2026-05-01T09:10:55.911Z</time></trkpt><trkpt lat="37.8240498" lon="13.7636203"><ele>591.0</ele><time>2026-05-01T09:10:56.912Z</time></trkpt><trkpt lat="37.8239817" lon="13.7638249"><ele>591.0</ele><time>2026-05-01T09:10:57.911Z</time></trkpt><trkpt lat="37.8238914" lon="13.7640593"><ele>591.0</ele><time>2026-05-01T09:10:58.911Z</time></trkpt><trkpt lat="37.8237768" lon="13.7643061"><ele>591.0</ele><time>2026-05-01T09:10:59.911Z</time></trkpt><trkpt lat="37.8236626" lon="13.7645366"><ele>594.3333333333334</ele><time>2026-05-01T09:11:00.911Z</time></trkpt><trkpt lat="37.8235678" lon="13.76474"><ele>597.6666666666667</ele><time>2026-05-01T09:11:01.911Z</time></trkpt><trkpt lat="37.8234766" lon="13.7649128"><ele>601.0</ele><time>2026-05-01T09:11:02.911Z</time></trkpt><trkpt lat="37.8234083" lon="13.7650615"><ele>601.0</ele><time>2026-05-01T09:11:03.911Z</time></trkpt><trkpt lat="37.8233754" lon="13.765194"><ele>601.0</ele><time>2026-05-01T09:11:04.912Z</time></trkpt><trkpt lat="37.8233767" lon="13.7653335"><ele>601.0</ele><time>2026-05-01T09:11:05.911Z</time></trkpt><trkpt lat="37.823408" lon="13.765491"><ele>601.0</ele><time>2026-05-01T09:11:06.911Z</time></trkpt><trkpt lat="37.8234871" lon="13.7656811"><ele>603.0</ele><time>2026-05-01T09:11:07.911Z</time></trkpt><trkpt lat="37.8235715" lon="13.7658833"><ele>605.0</ele><time>2026-05-01T09:11:08.911Z</time></trkpt><trkpt lat="37.8236314" lon="13.7660591"><ele>607.0</ele><time>2026-05-01T09:11:09.912Z</time></trkpt><trkpt lat="37.8236792" lon="13.7662172"><ele>607.0</ele><time>2026-05-01T09:11:10.911Z</time></trkpt><trkpt lat="37.8237362" lon="13.7663467"><ele>607.0</ele><time>2026-05-01T09:11:11.912Z</time></trkpt><trkpt lat="37.8238228" lon="13.7664558"><ele>607.0</ele><time>2026-05-01T09:11:12.911Z</time></trkpt><trkpt lat="37.8239246" lon="13.7665254"><ele>607.0</ele><time>2026-05-01T09:11:13.911Z</time></trkpt><trkpt lat="37.8240486" lon="13.766554"><ele>607.0</ele><time>2026-05-01T09:11:14.911Z</time></trkpt><trkpt lat="37.8241868" lon="13.7665441"><ele>607.0</ele><time>2026-05-01T09:11:15.911Z</time></trkpt><trkpt lat="37.8243329" lon="13.7665005"><ele>607.0</ele><time>2026-05-01T09:11:16.912Z</time></trkpt><trkpt lat="37.8244615" lon="13.7664588"><ele>607.0</ele><time>2026-05-01T09:11:17.912Z</time></trkpt><trkpt lat="37.8245778" lon="13.7664531"><ele>604.25</ele><time>2026-05-01T09:11:18.911Z</time></trkpt><trkpt lat="37.8246881" lon="13.7665025"><ele>601.5</ele><time>2026-05-01T09:11:19.911Z</time></trkpt><trkpt lat="37.8248001" lon="13.7665829"><ele>598.75</ele><time>2026-05-01T09:11:20.912Z</time></trkpt><trkpt lat="37.8249162" lon="13.7667281"><ele>596.0</ele><time>2026-05-01T09:11:21.911Z</time></trkpt><trkpt lat="37.8250387" lon="13.7668827"><ele>597.3333333333333</ele><time>2026-05-01T09:11:22.912Z</time></trkpt><trkpt lat="37.8251663" lon="13.7670149"><ele>598.6666666666666</ele><time>2026-05-01T09:11:23.911Z</time></trkpt><trkpt lat="37.8253185" lon="13.7671024"><ele>600.0</ele><time>2026-05-01T09:11:24.911Z</time></trkpt><trkpt lat="37.8254816" lon="13.7671863"><ele>600.0</ele><time>2026-05-01T09:11:25.912Z</time></trkpt><trkpt lat="37.825648" lon="13.7673151"><ele>600.0</ele><time>2026-05-01T09:11:26.912Z</time></trkpt><trkpt lat="37.8258016" lon="13.7674745"><ele>600.0</ele><time>2026-05-01T09:11:27.911Z</time></trkpt><trkpt lat="37.8259532" lon="13.7676364"><ele>598.6666666666666</ele><time>2026-05-01T09:11:28.911Z</time></trkpt><trkpt lat="37.8261032" lon="13.7678241"><ele>597.3333333333333</ele><time>2026-05-01T09:11:29.912Z</time></trkpt><trkpt lat="37.8262613" lon="13.7680349"><ele>596.0</ele><time>2026-05-01T09:11:30.911Z</time></trkpt><trkpt lat="37.8264206" lon="13.7682448"><ele>596.0</ele><time>2026-05-01T09:11:31.911Z</time></trkpt><trkpt lat="37.8265615" lon="13.7684167"><ele>596.0</ele><time>2026-05-01T09:11:32.912Z</time></trkpt><trkpt lat="37.8266718" lon="13.7685644"><ele>596.0</ele><time>2026-05-01T09:11:33.912Z</time></trkpt><trkpt lat="37.8267477" lon="13.7686707"><ele>598.0</ele><time>2026-05-01T09:11:34.911Z</time></trkpt><trkpt lat="37.8268099" lon="13.7687436"><ele>600.0</ele><time>2026-05-01T09:11:35.911Z</time></trkpt><trkpt lat="37.8268791" lon="13.7687741"><ele>602.0</ele><time>2026-05-01T09:11:36.912Z</time></trkpt><trkpt lat="37.826966" lon="13.7687543"><ele>604.0</ele><time>2026-05-01T09:11:37.911Z</time></trkpt><trkpt lat="37.8270409" lon="13.7686885"><ele>606.0</ele><time>2026-05-01T09:11:38.911Z</time></trkpt><trkpt lat="37.8270999" lon="13.7685708"><ele>608.0</ele><time>2026-05-01T09:11:39.912Z</time></trkpt><trkpt lat="37.8271676" lon="13.7683908"><ele>608.3333333333333</ele><time>2026-05-01T09:11:40.912Z</time></trkpt><trkpt lat="37.8272367" lon="13.7681702"><ele>608.6666666666666</ele><time>2026-05-01T09:11:41.912Z</time></trkpt><trkpt lat="37.8273105" lon="13.7679816"><ele>609.0</ele><time>2026-05-01T09:11:42.912Z</time></trkpt><trkpt lat="37.8274048" lon="13.7678274"><ele>611.3333333333334</ele><time>2026-05-01T09:11:43.912Z</time></trkpt><trkpt lat="37.827513" lon="13.7676798"><ele>613.6666666666667</ele><time>2026-05-01T09:11:44.912Z</time></trkpt><trkpt lat="37.8276426" lon="13.7675611"><ele>616.0</ele><time>2026-05-01T09:11:45.911Z</time></trkpt><trkpt lat="37.8278" lon="13.7674573"><ele>616.0</ele><time>2026-05-01T09:11:46.912Z</time></trkpt><trkpt lat="37.8279926" lon="13.7673534"><ele>616.0</ele><time>2026-05-01T09:11:47.911Z</time></trkpt><trkpt lat="37.8281839" lon="13.7672496"><ele>616.0</ele><time>2026-05-01T09:11:48.911Z</time></trkpt><trkpt lat="37.8283562" lon="13.7671512"><ele>614.6666666666667</ele><time>2026-05-01T09:11:49.912Z</time></trkpt><trkpt lat="37.8285052" lon="13.7670648"><ele>613.3333333333334</ele><time>2026-05-01T09:11:50.912Z</time></trkpt><trkpt lat="37.8286215" lon="13.7669611"><ele>612.0</ele><time>2026-05-01T09:11:51.911Z</time></trkpt><trkpt lat="37.8287219" lon="13.7667964"><ele>612.0</ele><time>2026-05-01T09:11:52.911Z</time></trkpt><trkpt lat="37.8288117" lon="13.7666046"><ele>612.0</ele><time>2026-05-01T09:11:53.912Z</time></trkpt><trkpt lat="37.8288959" lon="13.7663981"><ele>612.0</ele><time>2026-05-01T09:11:54.911Z</time></trkpt><trkpt lat="37.8289744" lon="13.7662282"><ele>612.0</ele><time>2026-05-01T09:11:55.911Z</time></trkpt><trkpt lat="37.8290355" lon="13.7661036"><ele>612.0</ele><time>2026-05-01T09:11:56.911Z</time></trkpt><trkpt lat="37.8291108" lon="13.7660224"><ele>612.0</ele><time>2026-05-01T09:11:57.912Z</time></trkpt><trkpt lat="37.8292102" lon="13.7659888"><ele>612.0</ele><time>2026-05-01T09:11:58.911Z</time></trkpt><trkpt lat="37.8293123" lon="13.7660083"><ele>612.0</ele><time>2026-05-01T09:11:59.911Z</time></trkpt><trkpt lat="37.8294026" lon="13.7660803"><ele>609.25</ele><time>2026-05-01T09:12:00.911Z</time></trkpt><trkpt lat="37.8294713" lon="13.7661896"><ele>606.5</ele><time>2026-05-01T09:12:01.911Z</time></trkpt><trkpt lat="37.829505" lon="13.7663385"><ele>603.75</ele><time>2026-05-01T09:12:02.911Z</time></trkpt><trkpt lat="37.8295204" lon="13.7665048"><ele>601.0</ele><time>2026-05-01T09:12:03.912Z</time></trkpt><trkpt lat="37.8295538" lon="13.7666569"><ele>601.0</ele><time>2026-05-01T09:12:04.912Z</time></trkpt><trkpt lat="37.8296267" lon="13.7667949"><ele>601.0</ele><time>2026-05-01T09:12:05.911Z</time></trkpt><trkpt lat="37.8297314" lon="13.7669353"><ele>601.0</ele><time>2026-05-01T09:12:06.912Z</time></trkpt><trkpt lat="37.8298786" lon="13.767061"><ele>600.0</ele><time>2026-05-01T09:12:07.911Z</time></trkpt><trkpt lat="37.830053" lon="13.7672148"><ele>599.0</ele><time>2026-05-01T09:12:08.912Z</time></trkpt><trkpt lat="37.8302277" lon="13.767388"><ele>598.0</ele><time>2026-05-01T09:12:09.911Z</time></trkpt><trkpt lat="37.8303983" lon="13.7675723"><ele>603.6666666666667</ele><time>2026-05-01T09:12:10.912Z</time></trkpt><trkpt lat="37.830558" lon="13.7677357"><ele>609.3333333333334</ele><time>2026-05-01T09:12:11.919Z</time></trkpt><trkpt lat="37.8306946" lon="13.7678723"><ele>615.0</ele><time>2026-05-01T09:12:12.918Z</time></trkpt><trkpt lat="37.8308169" lon="13.7679868"><ele>615.0</ele><time>2026-05-01T09:12:13.918Z</time></trkpt><trkpt lat="37.8309373" lon="13.7680732"><ele>615.0</ele><time>2026-05-01T09:12:14.918Z</time></trkpt><trkpt lat="37.831053" lon="13.7681097"><ele>615.0</ele><time>2026-05-01T09:12:15.918Z</time></trkpt><trkpt lat="37.8311623" lon="13.7680932"><ele>615.0</ele><time>2026-05-01T09:12:16.919Z</time></trkpt><trkpt lat="37.8312749" lon="13.7680345"><ele>615.75</ele><time>2026-05-01T09:12:17.919Z</time></trkpt><trkpt lat="37.8313724" lon="13.7679225"><ele>616.5</ele><time>2026-05-01T09:12:18.918Z</time></trkpt><trkpt lat="37.831441" lon="13.7677751"><ele>617.25</ele><time>2026-05-01T09:12:19.918Z</time></trkpt><trkpt lat="37.8315055" lon="13.7675786"><ele>618.0</ele><time>2026-05-01T09:12:20.918Z</time></trkpt><trkpt lat="37.8315543" lon="13.7673779"><ele>616.5</ele><time>2026-05-01T09:12:21.918Z</time></trkpt><trkpt lat="37.8316149" lon="13.7672247"><ele>615.0</ele><time>2026-05-01T09:12:22.918Z</time></trkpt><trkpt lat="37.8316869" lon="13.7671099"><ele>613.5</ele><time>2026-05-01T09:12:23.918Z</time></trkpt><trkpt lat="37.831783" lon="13.7670212"><ele>612.0</ele><time>2026-05-01T09:12:24.918Z</time></trkpt><trkpt lat="37.8318933" lon="13.766989"><ele>612.0</ele><time>2026-05-01T09:12:25.918Z</time></trkpt><trkpt lat="37.8320151" lon="13.7670046"><ele>612.0</ele><time>2026-05-01T09:12:26.919Z</time></trkpt><trkpt lat="37.8321581" lon="13.7670551"><ele>612.0</ele><time>2026-05-01T09:12:27.919Z</time></trkpt><trkpt lat="37.8323069" lon="13.767119"><ele>612.0</ele><time>2026-05-01T09:12:28.918Z</time></trkpt><trkpt lat="37.8324229" lon="13.767161"><ele>612.0</ele><time>2026-05-01T09:12:29.919Z</time></trkpt><trkpt lat="37.8325237" lon="13.7671568"><ele>612.0</ele><time>2026-05-01T09:12:30.919Z</time></trkpt><trkpt lat="37.8326151" lon="13.7671099"><ele>612.0</ele><time>2026-05-01T09:12:31.918Z</time></trkpt><trkpt lat="37.8326835" lon="13.7670303"><ele>612.0</ele><time>2026-05-01T09:12:32.919Z</time></trkpt><trkpt lat="37.8327342" lon="13.7668973"><ele>612.0</ele><time>2026-05-01T09:12:33.919Z</time></trkpt><trkpt lat="37.8327713" lon="13.7667415"><ele>611.0</ele><time>2026-05-01T09:12:34.918Z</time></trkpt><trkpt lat="37.832812" lon="13.7666018"><ele>610.0</ele><time>2026-05-01T09:12:35.919Z</time></trkpt><trkpt lat="37.8328822" lon="13.7665006"><ele>609.0</ele><time>2026-05-01T09:12:36.918Z</time></trkpt><trkpt lat="37.8329982" lon="13.7664181"><ele>608.0</ele><time>2026-05-01T09:12:37.918Z</time></trkpt><trkpt lat="37.8331374" lon="13.7663211"><ele>608.0</ele><time>2026-05-01T09:12:38.918Z</time></trkpt><trkpt lat="37.8332948" lon="13.7662105"><ele>608.0</ele><time>2026-05-01T09:12:39.919Z</time></trkpt><trkpt lat="37.8334738" lon="13.7660892"><ele>608.0</ele><time>2026-05-01T09:12:40.919Z</time></trkpt><trkpt lat="37.8336571" lon="13.7659783"><ele>602.6666666666666</ele><time>2026-05-01T09:12:41.918Z</time></trkpt><trkpt lat="37.8338224" lon="13.7658795"><ele>597.3333333333334</ele><time>2026-05-01T09:12:42.918Z</time></trkpt><trkpt lat="37.8339943" lon="13.7657944"><ele>592.0</ele><time>2026-05-01T09:12:43.919Z</time></trkpt><trkpt lat="37.8341751" lon="13.7657466"><ele>593.6666666666667</ele><time>2026-05-01T09:12:44.918Z</time></trkpt><trkpt lat="37.8343502" lon="13.7657349"><ele>595.3333333333334</ele><time>2026-05-01T09:12:45.918Z</time></trkpt><trkpt lat="37.8345018" lon="13.7657158"><ele>597.0</ele><time>2026-05-01T09:12:46.918Z</time></trkpt><trkpt lat="37.8346398" lon="13.7656477"><ele>597.0</ele><time>2026-05-01T09:12:47.918Z</time></trkpt><trkpt lat="37.8347779" lon="13.7655115"><ele>597.0</ele><time>2026-05-01T09:12:48.918Z</time></trkpt><trkpt lat="37.8349135" lon="13.7653468"><ele>597.0</ele><time>2026-05-01T09:12:49.919Z</time></trkpt><trkpt lat="37.8350396" lon="13.7651962"><ele>596.2</ele><time>2026-05-01T09:12:50.919Z</time></trkpt><trkpt lat="37.8351407" lon="13.7650738"><ele>595.4000000000001</ele><time>2026-05-01T09:12:51.918Z</time></trkpt><trkpt lat="37.8352173" lon="13.7649782"><ele>594.5999999999999</ele><time>2026-05-01T09:12:52.919Z</time></trkpt><trkpt lat="37.8352715" lon="13.7649146"><ele>593.8</ele><time>2026-05-01T09:12:53.919Z</time></trkpt><trkpt lat="37.8353269" lon="13.7648446"><ele>593.0</ele><time>2026-05-01T09:12:55.918Z</time></trkpt><trkpt lat="37.8353982" lon="13.7647583"><ele>593.0</ele><time>2026-05-01T09:12:57.919Z</time></trkpt><trkpt lat="37.8354452" lon="13.7646645"><ele>593.0</ele><time>2026-05-01T09:12:58.918Z</time></trkpt><trkpt lat="37.8354927" lon="13.7645407"><ele>593.0</ele><time>2026-05-01T09:12:59.918Z</time></trkpt><trkpt lat="37.8354964" lon="13.7643959"><ele>593.0</ele><time>2026-05-01T09:13:00.918Z</time></trkpt><trkpt lat="37.8354674" lon="13.7642352"><ele>593.0</ele><time>2026-05-01T09:13:01.919Z</time></trkpt><trkpt lat="37.8353982" lon="13.7640905"><ele>590.25</ele><time>2026-05-01T09:13:02.919Z</time></trkpt><trkpt lat="37.8353235" lon="13.7639576"><ele>587.5</ele><time>2026-05-01T09:13:03.919Z</time></trkpt><trkpt lat="37.8352768" lon="13.7638324"><ele>584.75</ele><time>2026-05-01T09:13:04.918Z</time></trkpt><trkpt lat="37.8352712" lon="13.763693"><ele>582.0</ele><time>2026-05-01T09:13:05.919Z</time></trkpt><trkpt lat="37.8353095" lon="13.7635605"><ele>579.0</ele><time>2026-05-01T09:13:06.919Z</time></trkpt><trkpt lat="37.8353875" lon="13.763465"><ele>576.0</ele><time>2026-05-01T09:13:07.918Z</time></trkpt><trkpt lat="37.8355022" lon="13.7634098"><ele>573.0</ele><time>2026-05-01T09:13:08.918Z</time></trkpt><trkpt lat="37.8356561" lon="13.763379"><ele>570.0</ele><time>2026-05-01T09:13:09.918Z</time></trkpt><trkpt lat="37.8358628" lon="13.7633572"><ele>571.0</ele><time>2026-05-01T09:13:10.919Z</time></trkpt><trkpt lat="37.8361091" lon="13.7633265"><ele>572.0</ele><time>2026-05-01T09:13:11.918Z</time></trkpt><trkpt lat="37.8363437" lon="13.7632853"><ele>572.0</ele><time>2026-05-01T09:13:12.918Z</time></trkpt><trkpt lat="37.8365542" lon="13.7632629"><ele>572.0</ele><time>2026-05-01T09:13:13.919Z</time></trkpt><trkpt lat="37.8367471" lon="13.7632355"><ele>572.0</ele><time>2026-05-01T09:13:14.918Z</time></trkpt><trkpt lat="37.8369247" lon="13.763208"><ele>570.6666666666666</ele><time>2026-05-01T09:13:15.919Z</time></trkpt><trkpt lat="37.8371043" lon="13.7632126"><ele>569.3333333333334</ele><time>2026-05-01T09:13:16.918Z</time></trkpt><trkpt lat="37.8372867" lon="13.7632557"><ele>568.0</ele><time>2026-05-01T09:13:17.918Z</time></trkpt><trkpt lat="37.837472" lon="13.7632961"><ele>568.6666666666667</ele><time>2026-05-01T09:13:18.918Z</time></trkpt><trkpt lat="37.8376763" lon="13.7632942"><ele>569.3333333333334</ele><time>2026-05-01T09:13:19.918Z</time></trkpt><trkpt lat="37.8378724" lon="13.763261"><ele>570.0</ele><time>2026-05-01T09:13:20.918Z</time></trkpt><trkpt lat="37.8380321" lon="13.763221"><ele>570.0</ele><time>2026-05-01T09:13:21.918Z</time></trkpt><trkpt lat="37.8381684" lon="13.7631695"><ele>570.0</ele><time>2026-05-01T09:13:22.918Z</time></trkpt><trkpt lat="37.8382947" lon="13.7630628"><ele>570.0</ele><time>2026-05-01T09:13:23.918Z</time></trkpt><trkpt lat="37.8383995" lon="13.7628973"><ele>568.3333333333334</ele><time>2026-05-01T09:13:24.918Z</time></trkpt><trkpt lat="37.8384848" lon="13.7627191"><ele>566.6666666666667</ele><time>2026-05-01T09:13:25.918Z</time></trkpt><trkpt lat="37.8385848" lon="13.7625594"><ele>565.0</ele><time>2026-05-01T09:13:26.918Z</time></trkpt><trkpt lat="37.8387264" lon="13.7624355"><ele>565.0</ele><time>2026-05-01T09:13:27.918Z</time></trkpt><trkpt lat="37.8389127" lon="13.7623192"><ele>565.0</ele><time>2026-05-01T09:13:28.919Z</time></trkpt><trkpt lat="37.8391093" lon="13.7622005"><ele>565.0</ele><time>2026-05-01T09:13:29.918Z</time></trkpt><trkpt lat="37.8392963" lon="13.7620737"><ele>565.0</ele><time>2026-05-01T09:13:30.919Z</time></trkpt><trkpt lat="37.8394721" lon="13.7619529"><ele>565.0</ele><time>2026-05-01T09:13:31.918Z</time></trkpt><trkpt lat="37.8396347" lon="13.7618721"><ele>565.0</ele><time>2026-05-01T09:13:32.919Z</time></trkpt><trkpt lat="37.8398051" lon="13.7618338"><ele>559.6666666666667</ele><time>2026-05-01T09:13:33.919Z</time></trkpt><trkpt lat="37.839973" lon="13.7618237"><ele>554.3333333333334</ele><time>2026-05-01T09:13:34.918Z</time></trkpt><trkpt lat="37.8401218" lon="13.7618286"><ele>549.0</ele><time>2026-05-01T09:13:35.918Z</time></trkpt><trkpt lat="37.8402611" lon="13.7618295"><ele>548.25</ele><time>2026-05-01T09:13:36.918Z</time></trkpt><trkpt lat="37.8403944" lon="13.7618276"><ele>547.5</ele><time>2026-05-01T09:13:37.918Z</time></trkpt><trkpt lat="37.8405168" lon="13.7618255"><ele>546.75</ele><time>2026-05-01T09:13:38.919Z</time></trkpt><trkpt lat="37.8406321" lon="13.761828"><ele>546.0</ele><time>2026-05-01T09:13:39.919Z</time></trkpt><trkpt lat="37.8407509" lon="13.7618247"><ele>546.0</ele><time>2026-05-01T09:13:40.919Z</time></trkpt><trkpt lat="37.8408699" lon="13.7618247"><ele>546.0</ele><time>2026-05-01T09:13:41.919Z</time></trkpt><trkpt lat="37.8409919" lon="13.7618212"><ele>546.0</ele><time>2026-05-01T09:13:42.918Z</time></trkpt><trkpt lat="37.8411136" lon="13.7618232"><ele>546.0</ele><time>2026-05-01T09:13:43.919Z</time></trkpt><trkpt lat="37.8412349" lon="13.7618208"><ele>545.6</ele><time>2026-05-01T09:13:44.919Z</time></trkpt><trkpt lat="37.8413538" lon="13.7618197"><ele>545.2</ele><time>2026-05-01T09:13:45.919Z</time></trkpt><trkpt lat="37.8414609" lon="13.7618184"><ele>544.8</ele><time>2026-05-01T09:13:46.919Z</time></trkpt><trkpt lat="37.8415638" lon="13.7618194"><ele>544.4</ele><time>2026-05-01T09:13:47.918Z</time></trkpt><trkpt lat="37.841662" lon="13.761819"><ele>544.0</ele><time>2026-05-01T09:13:48.918Z</time></trkpt><trkpt lat="37.8417576" lon="13.7618181"><ele>543.6666666666667</ele><time>2026-05-01T09:13:49.918Z</time></trkpt><trkpt lat="37.8418503" lon="13.7618157"><ele>543.3333333333334</ele><time>2026-05-01T09:13:50.918Z</time></trkpt><trkpt lat="37.8419388" lon="13.7618133"><ele>543.0</ele><time>2026-05-01T09:13:51.918Z</time></trkpt><trkpt lat="37.8420249" lon="13.7618013"><ele>542.6666666666666</ele><time>2026-05-01T09:13:52.918Z</time></trkpt><trkpt lat="37.8421111" lon="13.7617966"><ele>542.3333333333333</ele><time>2026-05-01T09:13:53.918Z</time></trkpt><trkpt lat="37.842201" lon="13.7617966"><ele>542.0</ele><time>2026-05-01T09:13:54.919Z</time></trkpt><trkpt lat="37.8422909" lon="13.7617953"><ele>542.0</ele><time>2026-05-01T09:13:55.918Z</time></trkpt><trkpt lat="37.8423838" lon="13.7617981"><ele>542.0</ele><time>2026-05-01T09:13:56.919Z</time></trkpt><trkpt lat="37.8424788" lon="13.7617907"><ele>542.0</ele><time>2026-05-01T09:13:57.919Z</time></trkpt><trkpt lat="37.8425706" lon="13.7617877"><ele>542.0</ele><time>2026-05-01T09:13:58.919Z</time></trkpt><trkpt lat="37.8426606" lon="13.7617933"><ele>542.0</ele><time>2026-05-01T09:13:59.918Z</time></trkpt><trkpt lat="37.8427527" lon="13.7617886"><ele>541.2</ele><time>2026-05-01T09:14:00.918Z</time></trkpt><trkpt lat="37.842844" lon="13.7617922"><ele>540.4000000000001</ele><time>2026-05-01T09:14:01.918Z</time></trkpt><trkpt lat="37.8429369" lon="13.7617983"><ele>539.5999999999999</ele><time>2026-05-01T09:14:02.918Z</time></trkpt><trkpt lat="37.8430306" lon="13.7618156"><ele>538.8</ele><time>2026-05-01T09:14:03.919Z</time></trkpt><trkpt lat="37.8431231" lon="13.7618437"><ele>538.0</ele><time>2026-05-01T09:14:04.918Z</time></trkpt><trkpt lat="37.8432157" lon="13.761882"><ele>539.6</ele><time>2026-05-01T09:14:05.918Z</time></trkpt><trkpt lat="37.8433168" lon="13.7619172"><ele>541.1999999999999</ele><time>2026-05-01T09:14:06.919Z</time></trkpt><trkpt lat="37.8434202" lon="13.7619576"><ele>542.8</ele><time>2026-05-01T09:14:07.919Z</time></trkpt><trkpt lat="37.8435252" lon="13.7619926"><ele>544.4</ele><time>2026-05-01T09:14:08.919Z</time></trkpt><trkpt lat="37.8436297" lon="13.7620303"><ele>546.0</ele><time>2026-05-01T09:14:09.919Z</time></trkpt><trkpt lat="37.8437319" lon="13.7620648"><ele>546.0</ele><time>2026-05-01T09:14:10.919Z</time></trkpt><trkpt lat="37.8438252" lon="13.7620964"><ele>546.0</ele><time>2026-05-01T09:14:11.918Z</time></trkpt><trkpt lat="37.8439215" lon="13.7621306"><ele>546.0</ele><time>2026-05-01T09:14:12.919Z</time></trkpt><trkpt lat="37.8440204" lon="13.7621545"><ele>546.0</ele><time>2026-05-01T09:14:13.918Z</time></trkpt><trkpt lat="37.8441265" lon="13.7621421"><ele>546.0</ele><time>2026-05-01T09:14:14.919Z</time></trkpt><trkpt lat="37.8442347" lon="13.7620905"><ele>547.25</ele><time>2026-05-01T09:14:15.918Z</time></trkpt><trkpt lat="37.8443366" lon="13.7619987"><ele>548.5</ele><time>2026-05-01T09:14:16.919Z</time></trkpt><trkpt lat="37.8444367" lon="13.761879"><ele>549.75</ele><time>2026-05-01T09:14:17.919Z</time></trkpt><trkpt lat="37.8445229" lon="13.7617542"><ele>551.0</ele><time>2026-05-01T09:14:18.919Z</time></trkpt><trkpt lat="37.844608" lon="13.7616237"><ele>548.0</ele><time>2026-05-01T09:14:19.918Z</time></trkpt><trkpt lat="37.8447086" lon="13.7615008"><ele>545.0</ele><time>2026-05-01T09:14:20.919Z</time></trkpt><trkpt lat="37.8448246" lon="13.7613898"><ele>542.0</ele><time>2026-05-01T09:14:21.919Z</time></trkpt><trkpt lat="37.8449608" lon="13.7613052"><ele>539.0</ele><time>2026-05-01T09:14:22.919Z</time></trkpt><trkpt lat="37.8450967" lon="13.7612301"><ele>540.25</ele><time>2026-05-01T09:14:23.918Z</time></trkpt><trkpt lat="37.845223" lon="13.7611743"><ele>541.5</ele><time>2026-05-01T09:14:24.919Z</time></trkpt><trkpt lat="37.8453463" lon="13.7611375"><ele>542.75</ele><time>2026-05-01T09:14:25.918Z</time></trkpt><trkpt lat="37.8454655" lon="13.7611217"><ele>544.0</ele><time>2026-05-01T09:14:26.919Z</time></trkpt><trkpt lat="37.845586" lon="13.7611361"><ele>544.0</ele><time>2026-05-01T09:14:27.919Z</time></trkpt><trkpt lat="37.8457122" lon="13.7611735"><ele>544.0</ele><time>2026-05-01T09:14:28.919Z</time></trkpt><trkpt lat="37.8458356" lon="13.7612184"><ele>544.0</ele><time>2026-05-01T09:14:29.918Z</time></trkpt><trkpt lat="37.845956" lon="13.7612564"><ele>544.0</ele><time>2026-05-01T09:14:30.918Z</time></trkpt><trkpt lat="37.8460678" lon="13.7612927"><ele>542.25</ele><time>2026-05-01T09:14:31.918Z</time></trkpt><trkpt lat="37.8461765" lon="13.7613298"><ele>540.5</ele><time>2026-05-01T09:14:32.918Z</time></trkpt><trkpt lat="37.846285" lon="13.7613721"><ele>538.75</ele><time>2026-05-01T09:14:33.918Z</time></trkpt><trkpt lat="37.8463956" lon="13.761416"><ele>537.0</ele><time>2026-05-01T09:14:34.918Z</time></trkpt><trkpt lat="37.8465079" lon="13.7614627"><ele>537.0</ele><time>2026-05-01T09:14:35.918Z</time></trkpt><trkpt lat="37.8466204" lon="13.7615026"><ele>537.0</ele><time>2026-05-01T09:14:36.918Z</time></trkpt><trkpt lat="37.8467287" lon="13.7615402"><ele>537.0</ele><time>2026-05-01T09:14:37.918Z</time></trkpt><trkpt lat="37.8468282" lon="13.7615798"><ele>537.0</ele><time>2026-05-01T09:14:38.918Z</time></trkpt><trkpt lat="37.8469063" lon="13.7616106"><ele>537.0</ele><time>2026-05-01T09:14:39.918Z</time></trkpt><trkpt lat="37.8469985" lon="13.7616617"><ele>535.0</ele><time>2026-05-01T09:14:41.918Z</time></trkpt><trkpt lat="37.8470809" lon="13.7616906"><ele>533.0</ele><time>2026-05-01T09:14:44.918Z</time></trkpt><trkpt lat="37.8471715" lon="13.7617184"><ele>531.0</ele><time>2026-05-01T09:14:46.919Z</time></trkpt><trkpt lat="37.8472422" lon="13.7617584"><ele>529.0</ele><time>2026-05-01T09:14:48.918Z</time></trkpt><trkpt lat="37.8473488" lon="13.7617355"><ele>527.0</ele><time>2026-05-01T09:14:52.919Z</time></trkpt><trkpt lat="37.8473887" lon="13.7616581"><ele>525.0</ele><time>2026-05-01T09:14:54.918Z</time></trkpt><trkpt lat="37.8474306" lon="13.7615265"><ele>525.0</ele><time>2026-05-01T09:14:56.918Z</time></trkpt><trkpt lat="37.8474635" lon="13.761402"><ele>525.0</ele><time>2026-05-01T09:14:58.918Z</time></trkpt><trkpt lat="37.847495" lon="13.7612883"><ele>525.0</ele><time>2026-05-01T09:15:00.918Z</time></trkpt><trkpt lat="37.8475289" lon="13.761172"><ele>525.0</ele><time>2026-05-01T09:15:02.918Z</time></trkpt><trkpt lat="37.8475608" lon="13.7610538"><ele>525.0</ele><time>2026-05-01T09:15:04.918Z</time></trkpt><trkpt lat="37.8475706" lon="13.7609564"><ele>524.1666666666666</ele><time>2026-05-01T09:15:06.919Z</time></trkpt><trkpt lat="37.8475935" lon="13.7608644"><ele>523.3333333333334</ele><time>2026-05-01T09:15:08.919Z</time></trkpt><trkpt lat="37.8476319" lon="13.7607493"><ele>522.5</ele><time>2026-05-01T09:15:10.919Z</time></trkpt><trkpt lat="37.8476722" lon="13.7605994"><ele>521.6666666666667</ele><time>2026-05-01T09:15:12.919Z</time></trkpt><trkpt lat="37.8476934" lon="13.7605215"><ele>520.8333333333334</ele><time>2026-05-01T09:15:13.919Z</time></trkpt><trkpt lat="37.8477126" lon="13.7604437"><ele>520.0</ele><time>2026-05-01T09:15:14.919Z</time></trkpt><trkpt lat="37.8477295" lon="13.7603655"><ele>517.5</ele><time>2026-05-01T09:15:15.918Z</time></trkpt><trkpt lat="37.8477718" lon="13.7602066"><ele>515.0</ele><time>2026-05-01T09:15:17.918Z</time></trkpt><trkpt lat="37.8477958" lon="13.7601114"><ele>512.5</ele><time>2026-05-01T09:15:18.918Z</time></trkpt><trkpt lat="37.8478202" lon="13.7600168"><ele>510.0</ele><time>2026-05-01T09:15:19.918Z</time></trkpt><trkpt lat="37.8478361" lon="13.7599225"><ele>507.50000000000006</ele><time>2026-05-01T09:15:20.919Z</time></trkpt><trkpt lat="37.847854" lon="13.7598264"><ele>505.0</ele><time>2026-05-01T09:15:21.919Z</time></trkpt><trkpt lat="37.8478716" lon="13.7597389"><ele>504.8</ele><time>2026-05-01T09:15:22.918Z</time></trkpt><trkpt lat="37.8479009" lon="13.7596049"><ele>504.6</ele><time>2026-05-01T09:15:24.918Z</time></trkpt><trkpt lat="37.8479285" lon="13.7594984"><ele>504.4</ele><time>2026-05-01T09:15:26.918Z</time></trkpt><trkpt lat="37.84795" lon="13.7594018"><ele>504.2</ele><time>2026-05-01T09:15:28.919Z</time></trkpt><trkpt lat="37.8479827" lon="13.7592905"><ele>504.0</ele><time>2026-05-01T09:15:30.919Z</time></trkpt><trkpt lat="37.8480101" lon="13.7591797"><ele>503.79999999999995</ele><time>2026-05-01T09:15:32.919Z</time></trkpt><trkpt lat="37.8480295" lon="13.7590571"><ele>503.59999999999997</ele><time>2026-05-01T09:15:34.919Z</time></trkpt><trkpt lat="37.8480686" lon="13.7589299"><ele>503.4</ele><time>2026-05-01T09:15:36.918Z</time></trkpt><trkpt lat="37.8481063" lon="13.7587905"><ele>503.2</ele><time>2026-05-01T09:15:38.919Z</time></trkpt><trkpt lat="37.8481221" lon="13.7587107"><ele>503.0</ele><time>2026-05-01T09:15:39.918Z</time></trkpt><trkpt lat="37.8481383" lon="13.7586328"><ele>502.4</ele><time>2026-05-01T09:15:40.918Z</time></trkpt><trkpt lat="37.8481747" lon="13.7585007"><ele>501.79999999999995</ele><time>2026-05-01T09:15:42.919Z</time></trkpt><trkpt lat="37.8482128" lon="13.7583928"><ele>501.2</ele><time>2026-05-01T09:15:44.918Z</time></trkpt><trkpt lat="37.8482409" lon="13.758274"><ele>500.6</ele><time>2026-05-01T09:15:46.918Z</time></trkpt><trkpt lat="37.8482739" lon="13.75814"><ele>500.0</ele><time>2026-05-01T09:15:48.919Z</time></trkpt><trkpt lat="37.8482933" lon="13.7580599"><ele>500.0</ele><time>2026-05-01T09:15:49.918Z</time></trkpt><trkpt lat="37.8483149" lon="13.7579695"><ele>500.0</ele><time>2026-05-01T09:15:50.919Z</time></trkpt><trkpt lat="37.8483396" lon="13.757876"><ele>500.0</ele><time>2026-05-01T09:15:51.918Z</time></trkpt><trkpt lat="37.848365" lon="13.7577826"><ele>500.0</ele><time>2026-05-01T09:15:52.918Z</time></trkpt><trkpt lat="37.8484042" lon="13.7576404"><ele>500.0</ele><time>2026-05-01T09:15:54.918Z</time></trkpt><trkpt lat="37.8484354" lon="13.757508"><ele>499.4</ele><time>2026-05-01T09:15:56.919Z</time></trkpt><trkpt lat="37.8484595" lon="13.7574045"><ele>498.8</ele><time>2026-05-01T09:15:58.918Z</time></trkpt><trkpt lat="37.8485448" lon="13.7573911"><ele>498.20000000000005</ele><time>2026-05-01T09:16:00.918Z</time></trkpt><trkpt lat="37.8486468" lon="13.757433"><ele>497.6</ele><time>2026-05-01T09:16:02.919Z</time></trkpt><trkpt lat="37.8487301" lon="13.7574731"><ele>497.0</ele><time>2026-05-01T09:16:04.919Z</time></trkpt><trkpt lat="37.8488493" lon="13.7575168"><ele>496.99999999999994</ele><time>2026-05-01T09:16:07.918Z</time></trkpt><trkpt lat="37.8489239" lon="13.7575445"><ele>497.0</ele><time>2026-05-01T09:16:09.919Z</time></trkpt><trkpt lat="37.8490208" lon="13.7575923"><ele>497.0</ele><time>2026-05-01T09:16:11.918Z</time></trkpt><trkpt lat="37.8490955" lon="13.7576257"><ele>497.0</ele><time>2026-05-01T09:16:13.918Z</time></trkpt><trkpt lat="37.8491672" lon="13.7576446"><ele>496.99999999999994</ele><time>2026-05-01T09:16:16.918Z</time></trkpt><trkpt lat="37.8492414" lon="13.757684"><ele>497.0</ele><time>2026-05-01T09:16:19.918Z</time></trkpt><trkpt lat="37.8493064" lon="13.7577112"><ele>495.1428571428571</ele><time>2026-05-01T09:16:22.918Z</time></trkpt><trkpt lat="37.8493881" lon="13.7577565"><ele>493.2857142857143</ele><time>2026-05-01T09:16:24.918Z</time></trkpt><trkpt lat="37.8494261" lon="13.7578224"><ele>491.42857142857144</ele><time>2026-05-01T09:16:26.918Z</time></trkpt><trkpt lat="37.8494249" lon="13.7579076"><ele>489.57142857142856</ele><time>2026-05-01T09:16:28.919Z</time></trkpt><trkpt lat="37.8494085" lon="13.7579846"><ele>487.71428571428567</ele><time>2026-05-01T09:16:29.918Z</time></trkpt><trkpt lat="37.8493886" lon="13.7580673"><ele>485.85714285714283</ele><time>2026-05-01T09:16:30.919Z</time></trkpt><trkpt lat="37.8493654" lon="13.7581477"><ele>484.0</ele><time>2026-05-01T09:16:31.918Z</time></trkpt><trkpt lat="37.8493416" lon="13.758237"><ele>484.00000000000006</ele><time>2026-05-01T09:16:32.918Z</time></trkpt><trkpt lat="37.8493089" lon="13.7583252"><ele>484.0</ele><time>2026-05-01T09:16:33.918Z</time></trkpt><trkpt lat="37.8492852" lon="13.7584174"><ele>484.0</ele><time>2026-05-01T09:16:34.918Z</time></trkpt><trkpt lat="37.8492595" lon="13.7585159"><ele>484.0</ele><time>2026-05-01T09:16:35.918Z</time></trkpt><trkpt lat="37.8492272" lon="13.7586164"><ele>484.00000000000006</ele><time>2026-05-01T09:16:36.918Z</time></trkpt><trkpt lat="37.8492018" lon="13.7587167"><ele>484.0</ele><time>2026-05-01T09:16:37.919Z</time></trkpt><trkpt lat="37.8491704" lon="13.7588203"><ele>484.83333333333337</ele><time>2026-05-01T09:16:38.918Z</time></trkpt><trkpt lat="37.8491408" lon="13.7589267"><ele>485.6666666666667</ele><time>2026-05-01T09:16:39.918Z</time></trkpt><trkpt lat="37.849112" lon="13.7590289"><ele>486.5</ele><time>2026-05-01T09:16:40.918Z</time></trkpt><trkpt lat="37.8490815" lon="13.7591273"><ele>487.33333333333337</ele><time>2026-05-01T09:16:41.918Z</time></trkpt><trkpt lat="37.8490535" lon="13.7592314"><ele>488.1666666666667</ele><time>2026-05-01T09:16:42.919Z</time></trkpt><trkpt lat="37.8490284" lon="13.7593351"><ele>489.0</ele><time>2026-05-01T09:16:43.919Z</time></trkpt><trkpt lat="37.8490044" lon="13.7594313"><ele>489.0</ele><time>2026-05-01T09:16:44.92Z</time></trkpt><trkpt lat="37.848978" lon="13.7595263"><ele>489.0</ele><time>2026-05-01T09:16:45.919Z</time></trkpt><trkpt lat="37.8489546" lon="13.7596224"><ele>489.0</ele><time>2026-05-01T09:16:46.92Z</time></trkpt><trkpt lat="37.8489372" lon="13.7597234"><ele>489.0</ele><time>2026-05-01T09:16:47.919Z</time></trkpt><trkpt lat="37.8489132" lon="13.7598278"><ele>489.0</ele><time>2026-05-01T09:16:48.919Z</time></trkpt><trkpt lat="37.8488806" lon="13.7599338"><ele>489.0</ele><time>2026-05-01T09:16:49.92Z</time></trkpt><trkpt lat="37.8488341" lon="13.7600363"><ele>489.0</ele><time>2026-05-01T09:16:50.919Z</time></trkpt><trkpt lat="37.8487995" lon="13.7601377"><ele>489.0</ele><time>2026-05-01T09:16:51.919Z</time></trkpt><trkpt lat="37.8487688" lon="13.7602404"><ele>489.0</ele><time>2026-05-01T09:16:52.919Z</time></trkpt><trkpt lat="37.8487451" lon="13.7603444"><ele>489.0</ele><time>2026-05-01T09:16:53.919Z</time></trkpt><trkpt lat="37.8487183" lon="13.7604338"><ele>489.0</ele><time>2026-05-01T09:16:54.919Z</time></trkpt><trkpt lat="37.848692" lon="13.7605189"><ele>489.0</ele><time>2026-05-01T09:16:55.919Z</time></trkpt><trkpt lat="37.8486497" lon="13.7606652"><ele>489.2</ele><time>2026-05-01T09:16:57.92Z</time></trkpt><trkpt lat="37.8486049" lon="13.7607907"><ele>489.4</ele><time>2026-05-01T09:16:59.92Z</time></trkpt><trkpt lat="37.8485703" lon="13.7608858"><ele>489.6</ele><time>2026-05-01T09:17:02.919Z</time></trkpt><trkpt lat="37.8485539" lon="13.7609827"><ele>489.8</ele><time>2026-05-01T09:17:04.919Z</time></trkpt><trkpt lat="37.848523" lon="13.7610962"><ele>490.0</ele><time>2026-05-01T09:17:06.92Z</time></trkpt><trkpt lat="37.8484806" lon="13.7612255"><ele>494.4</ele><time>2026-05-01T09:17:08.919Z</time></trkpt><trkpt lat="37.8484452" lon="13.7613727"><ele>498.8</ele><time>2026-05-01T09:17:10.919Z</time></trkpt><trkpt lat="37.8484119" lon="13.7615137"><ele>503.20000000000005</ele><time>2026-05-01T09:17:12.919Z</time></trkpt><trkpt lat="37.8483825" lon="13.7616335"><ele>507.6</ele><time>2026-05-01T09:17:14.92Z</time></trkpt><trkpt lat="37.8483515" lon="13.7617626"><ele>512.0</ele><time>2026-05-01T09:17:16.919Z</time></trkpt><trkpt lat="37.8483153" lon="13.7619096"><ele>511.40000000000003</ele><time>2026-05-01T09:17:18.919Z</time></trkpt><trkpt lat="37.8482888" lon="13.7620348"><ele>510.80000000000007</ele><time>2026-05-01T09:17:20.92Z</time></trkpt><trkpt lat="37.8483148" lon="13.7621711"><ele>510.2</ele><time>2026-05-01T09:17:22.919Z</time></trkpt><trkpt lat="37.848369" lon="13.7622676"><ele>509.6</ele><time>2026-05-01T09:17:24.919Z</time></trkpt><trkpt lat="37.8483994" lon="13.7623596"><ele>509.0</ele><time>2026-05-01T09:17:33.92Z</time></trkpt><trkpt lat="37.8484712" lon="13.7624952"><ele>509.0</ele><time>2026-05-01T09:17:35.919Z</time></trkpt><trkpt lat="37.8485056" lon="13.7625687"><ele>509.0</ele><time>2026-05-01T09:17:36.919Z</time></trkpt><trkpt lat="37.8485561" lon="13.7626707"><ele>509.0</ele><time>2026-05-01T09:17:38.92Z</time></trkpt><trkpt lat="37.8485604" lon="13.7627845"><ele>509.0</ele><time>2026-05-01T09:17:41.919Z</time></trkpt><trkpt lat="37.8485071" lon="13.7629258"><ele>509.0</ele><time>2026-05-01T09:17:43.919Z</time></trkpt><trkpt lat="37.8484755" lon="13.7630104"><ele>511.8333333333333</ele><time>2026-05-01T09:17:44.919Z</time></trkpt><trkpt lat="37.8484413" lon="13.7631015"><ele>514.6666666666666</ele><time>2026-05-01T09:17:45.92Z</time></trkpt><trkpt lat="37.8484067" lon="13.7631914"><ele>517.5</ele><time>2026-05-01T09:17:46.92Z</time></trkpt><trkpt lat="37.8483717" lon="13.7632796"><ele>520.3333333333334</ele><time>2026-05-01T09:17:47.92Z</time></trkpt><trkpt lat="37.8483394" lon="13.7633739"><ele>523.1666666666667</ele><time>2026-05-01T09:17:48.919Z</time></trkpt><trkpt lat="37.8483003" lon="13.7634602"><ele>526.0</ele><time>2026-05-01T09:17:49.919Z</time></trkpt><trkpt lat="37.8482659" lon="13.7635535"><ele>527.1666666666667</ele><time>2026-05-01T09:17:50.919Z</time></trkpt><trkpt lat="37.8482316" lon="13.7636478"><ele>528.3333333333334</ele><time>2026-05-01T09:17:51.92Z</time></trkpt><trkpt lat="37.8481976" lon="13.7637403"><ele>529.5</ele><time>2026-05-01T09:17:52.919Z</time></trkpt><trkpt lat="37.8481694" lon="13.7638363"><ele>530.6666666666666</ele><time>2026-05-01T09:17:53.919Z</time></trkpt><trkpt lat="37.8481299" lon="13.7639273"><ele>531.8333333333333</ele><time>2026-05-01T09:17:54.92Z</time></trkpt><trkpt lat="37.8480974" lon="13.7640211"><ele>533.0</ele><time>2026-05-01T09:17:55.919Z</time></trkpt><trkpt lat="37.8480683" lon="13.7640967"><ele>533.0</ele><time>2026-05-01T09:17:56.919Z</time></trkpt><trkpt lat="37.8480347" lon="13.7641807"><ele>533.0</ele><time>2026-05-01T09:17:58.919Z</time></trkpt><trkpt lat="37.848114" lon="13.7642679"><ele>533.0</ele><time>2026-05-01T09:18:02.919Z</time></trkpt><trkpt lat="37.8481814" lon="13.7642788"><ele>533.0</ele><time>2026-05-01T09:18:03.919Z</time></trkpt><trkpt lat="37.848283" lon="13.764299"><ele>533.0</ele><time>2026-05-01T09:18:05.92Z</time></trkpt><trkpt lat="37.8483649" lon="13.7643311"><ele>533.0</ele><time>2026-05-01T09:18:07.919Z</time></trkpt><trkpt lat="37.8484812" lon="13.7643604"><ele>530.6</ele><time>2026-05-01T09:18:09.92Z</time></trkpt><trkpt lat="37.8485858" lon="13.7643979"><ele>528.1999999999999</ele><time>2026-05-01T09:18:11.919Z</time></trkpt><trkpt lat="37.8486918" lon="13.7644375"><ele>525.8</ele><time>2026-05-01T09:18:13.919Z</time></trkpt><trkpt lat="37.8487559" lon="13.7644644"><ele>523.4</ele><time>2026-05-01T09:18:14.919Z</time></trkpt><trkpt lat="37.8488336" lon="13.7645127"><ele>521.0</ele><time>2026-05-01T09:18:15.919Z</time></trkpt><trkpt lat="37.8489172" lon="13.7645851"><ele>521.0</ele><time>2026-05-01T09:18:16.919Z</time></trkpt><trkpt lat="37.849007" lon="13.7646719"><ele>521.0</ele><time>2026-05-01T09:18:17.92Z</time></trkpt><trkpt lat="37.8491095" lon="13.7647664"><ele>521.0</ele><time>2026-05-01T09:18:18.919Z</time></trkpt><trkpt lat="37.8492144" lon="13.7648518"><ele>521.0</ele><time>2026-05-01T09:18:19.919Z</time></trkpt><trkpt lat="37.8493173" lon="13.7649362"><ele>519.4</ele><time>2026-05-01T09:18:20.919Z</time></trkpt><trkpt lat="37.8494145" lon="13.7650183"><ele>517.8</ele><time>2026-05-01T09:18:21.919Z</time></trkpt><trkpt lat="37.8495082" lon="13.7650975"><ele>516.1999999999999</ele><time>2026-05-01T09:18:22.92Z</time></trkpt><trkpt lat="37.8496054" lon="13.7651637"><ele>514.6</ele><time>2026-05-01T09:18:23.92Z</time></trkpt><trkpt lat="37.8497064" lon="13.7652077"><ele>513.0</ele><time>2026-05-01T09:18:24.919Z</time></trkpt><trkpt lat="37.8498079" lon="13.7652293"><ele>513.0</ele><time>2026-05-01T09:18:25.919Z</time></trkpt><trkpt lat="37.849895" lon="13.7652378"><ele>513.0</ele><time>2026-05-01T09:18:26.919Z</time></trkpt><trkpt lat="37.8499627" lon="13.7652475"><ele>513.0</ele><time>2026-05-01T09:18:27.919Z</time></trkpt><trkpt lat="37.8500457" lon="13.7652822"><ele>513.0</ele><time>2026-05-01T09:18:29.92Z</time></trkpt><trkpt lat="37.8501513" lon="13.7653952"><ele>513.0</ele><time>2026-05-01T09:18:31.92Z</time></trkpt><trkpt lat="37.8502119" lon="13.7654972"><ele>511.1666666666667</ele><time>2026-05-01T09:18:32.92Z</time></trkpt><trkpt lat="37.8502582" lon="13.7655889"><ele>509.33333333333337</ele><time>2026-05-01T09:18:33.92Z</time></trkpt><trkpt lat="37.8502984" lon="13.7656758"><ele>507.5</ele><time>2026-05-01T09:18:35.92Z</time></trkpt><trkpt lat="37.8503345" lon="13.7657412"><ele>505.6666666666667</ele><time>2026-05-01T09:18:42.919Z</time></trkpt><trkpt lat="37.8503918" lon="13.7658095"><ele>503.83333333333337</ele><time>2026-05-01T09:18:45.919Z</time></trkpt><trkpt lat="37.8504437" lon="13.7658945"><ele>502.0</ele><time>2026-05-01T09:18:47.92Z</time></trkpt><trkpt lat="37.8504904" lon="13.7659801"><ele>503.0</ele><time>2026-05-01T09:18:49.919Z</time></trkpt><trkpt lat="37.8505408" lon="13.7660875"><ele>504.00000000000006</ele><time>2026-05-01T09:18:51.924Z</time></trkpt><trkpt lat="37.8506013" lon="13.7661953"><ele>505.00000000000006</ele><time>2026-05-01T09:18:53.924Z</time></trkpt><trkpt lat="37.8506377" lon="13.7662694"><ele>506.0</ele><time>2026-05-01T09:18:54.923Z</time></trkpt><trkpt lat="37.8506832" lon="13.7663604"><ele>507.0</ele><time>2026-05-01T09:18:55.923Z</time></trkpt><trkpt lat="37.8507356" lon="13.7664889"><ele>507.0</ele><time>2026-05-01T09:18:56.924Z</time></trkpt><trkpt lat="37.8507888" lon="13.76664"><ele>507.00000000000006</ele><time>2026-05-01T09:18:57.923Z</time></trkpt><trkpt lat="37.8508235" lon="13.7667849"><ele>507.00000000000006</ele><time>2026-05-01T09:18:58.923Z</time></trkpt><trkpt lat="37.8508415" lon="13.7669019"><ele>507.0</ele><time>2026-05-01T09:18:59.924Z</time></trkpt><trkpt lat="37.8508479" lon="13.7669964"><ele>507.0</ele><time>2026-05-01T09:19:00.923Z</time></trkpt><trkpt lat="37.8508467" lon="13.7670807"><ele>507.0</ele><time>2026-05-01T09:19:01.924Z</time></trkpt><trkpt lat="37.8508448" lon="13.767169"><ele>507.00000000000006</ele><time>2026-05-01T09:19:02.923Z</time></trkpt><trkpt lat="37.8508424" lon="13.7672648"><ele>507.00000000000006</ele><time>2026-05-01T09:19:03.923Z</time></trkpt><trkpt lat="37.8508354" lon="13.7673846"><ele>507.0</ele><time>2026-05-01T09:19:04.923Z</time></trkpt><trkpt lat="37.8508406" lon="13.7675432"><ele>507.0</ele><time>2026-05-01T09:19:05.923Z</time></trkpt><trkpt lat="37.8508449" lon="13.7677126"><ele>507.5</ele><time>2026-05-01T09:19:06.924Z</time></trkpt><trkpt lat="37.8508629" lon="13.7678852"><ele>508.0</ele><time>2026-05-01T09:19:07.924Z</time></trkpt><trkpt lat="37.8509097" lon="13.7680618"><ele>508.5</ele><time>2026-05-01T09:19:08.923Z</time></trkpt><trkpt lat="37.8509774" lon="13.7682493"><ele>509.0</ele><time>2026-05-01T09:19:09.923Z</time></trkpt><trkpt lat="37.8510677" lon="13.7684498"><ele>508.25</ele><time>2026-05-01T09:19:10.924Z</time></trkpt><trkpt lat="37.8511461" lon="13.7686208"><ele>507.5</ele><time>2026-05-01T09:19:11.923Z</time></trkpt><trkpt lat="37.8512086" lon="13.7687597"><ele>506.75</ele><time>2026-05-01T09:19:12.923Z</time></trkpt><trkpt lat="37.8512619" lon="13.7688782"><ele>506.0</ele><time>2026-05-01T09:19:13.923Z</time></trkpt><trkpt lat="37.8513147" lon="13.7689948"><ele>506.0</ele><time>2026-05-01T09:19:14.924Z</time></trkpt><trkpt lat="37.8513607" lon="13.7691201"><ele>506.0</ele><time>2026-05-01T09:19:15.923Z</time></trkpt><trkpt lat="37.8514115" lon="13.7692443"><ele>506.0</ele><time>2026-05-01T09:19:16.923Z</time></trkpt><trkpt lat="37.8514676" lon="13.7693638"><ele>506.0</ele><time>2026-05-01T09:19:17.924Z</time></trkpt><trkpt lat="37.851523" lon="13.7694853"><ele>506.0</ele><time>2026-05-01T09:19:18.924Z</time></trkpt><trkpt lat="37.8515746" lon="13.7696088"><ele>506.75</ele><time>2026-05-01T09:19:19.924Z</time></trkpt><trkpt lat="37.8516283" lon="13.7697308"><ele>507.5</ele><time>2026-05-01T09:19:20.923Z</time></trkpt><trkpt lat="37.8516768" lon="13.7698569"><ele>508.25</ele><time>2026-05-01T09:19:21.924Z</time></trkpt><trkpt lat="37.8517322" lon="13.7699857"><ele>509.0</ele><time>2026-05-01T09:19:22.924Z</time></trkpt><trkpt lat="37.851791" lon="13.7701157"><ele>508.75</ele><time>2026-05-01T09:19:23.924Z</time></trkpt><trkpt lat="37.8518609" lon="13.7702382"><ele>508.5</ele><time>2026-05-01T09:19:24.923Z</time></trkpt><trkpt lat="37.8519511" lon="13.7703482"><ele>508.25</ele><time>2026-05-01T09:19:25.923Z</time></trkpt><trkpt lat="37.8520541" lon="13.7704507"><ele>508.0</ele><time>2026-05-01T09:19:26.924Z</time></trkpt><trkpt lat="37.8521632" lon="13.7705523"><ele>508.0</ele><time>2026-05-01T09:19:27.924Z</time></trkpt><trkpt lat="37.8522755" lon="13.7706555"><ele>508.0</ele><time>2026-05-01T09:19:28.923Z</time></trkpt><trkpt lat="37.8523902" lon="13.7707608"><ele>508.0</ele><time>2026-05-01T09:19:29.923Z</time></trkpt><trkpt lat="37.8525104" lon="13.7708723"><ele>508.0</ele><time>2026-05-01T09:19:30.923Z</time></trkpt><trkpt lat="37.8526253" lon="13.770974"><ele>507.75</ele><time>2026-05-01T09:19:31.923Z</time></trkpt><trkpt lat="37.8527462" lon="13.7710616"><ele>507.5</ele><time>2026-05-01T09:19:32.924Z</time></trkpt><trkpt lat="37.8528839" lon="13.7711238"><ele>507.25</ele><time>2026-05-01T09:19:33.924Z</time></trkpt><trkpt lat="37.8530265" lon="13.7711525"><ele>507.0</ele><time>2026-05-01T09:19:34.924Z</time></trkpt><trkpt lat="37.8531592" lon="13.7711922"><ele>507.0</ele><time>2026-05-01T09:19:35.923Z</time></trkpt><trkpt lat="37.8532951" lon="13.7712596"><ele>507.0</ele><time>2026-05-01T09:19:36.924Z</time></trkpt><trkpt lat="37.8534301" lon="13.7713611"><ele>507.0</ele><time>2026-05-01T09:19:37.924Z</time></trkpt><trkpt lat="37.8535558" lon="13.7714846"><ele>501.66666666666663</ele><time>2026-05-01T09:19:38.924Z</time></trkpt><trkpt lat="37.8536782" lon="13.7716138"><ele>496.3333333333333</ele><time>2026-05-01T09:19:39.923Z</time></trkpt><trkpt lat="37.8538007" lon="13.771737"><ele>491.0</ele><time>2026-05-01T09:19:40.923Z</time></trkpt><trkpt lat="37.8539279" lon="13.7718493"><ele>491.66666666666663</ele><time>2026-05-01T09:19:41.924Z</time></trkpt><trkpt lat="37.8540761" lon="13.7719553"><ele>492.33333333333337</ele><time>2026-05-01T09:19:42.923Z</time></trkpt><trkpt lat="37.854248" lon="13.7720612"><ele>493.0</ele><time>2026-05-01T09:19:43.924Z</time></trkpt><trkpt lat="37.8544281" lon="13.7721655"><ele>493.0</ele><time>2026-05-01T09:19:44.923Z</time></trkpt><trkpt lat="37.854616" lon="13.7722755"><ele>493.0</ele><time>2026-05-01T09:19:45.923Z</time></trkpt><trkpt lat="37.8548102" lon="13.7724012"><ele>493.0</ele><time>2026-05-01T09:19:46.924Z</time></trkpt><trkpt lat="37.8550126" lon="13.7725194"><ele>492.0</ele><time>2026-05-01T09:19:47.923Z</time></trkpt><trkpt lat="37.8552067" lon="13.7726337"><ele>491.0</ele><time>2026-05-01T09:19:48.923Z</time></trkpt><trkpt lat="37.8553923" lon="13.7727344"><ele>490.0</ele><time>2026-05-01T09:19:49.924Z</time></trkpt><trkpt lat="37.8555636" lon="13.7728361"><ele>490.0</ele><time>2026-05-01T09:19:50.923Z</time></trkpt><trkpt lat="37.8557208" lon="13.7729332"><ele>490.0</ele><time>2026-05-01T09:19:51.924Z</time></trkpt><trkpt lat="37.8558621" lon="13.7730431"><ele>490.0</ele><time>2026-05-01T09:19:52.923Z</time></trkpt><trkpt lat="37.855996" lon="13.7731761"><ele>485.33333333333337</ele><time>2026-05-01T09:19:53.923Z</time></trkpt><trkpt lat="37.8561214" lon="13.7733341"><ele>480.66666666666663</ele><time>2026-05-01T09:19:54.923Z</time></trkpt><trkpt lat="37.8562334" lon="13.7735033"><ele>476.0</ele><time>2026-05-01T09:19:55.924Z</time></trkpt><trkpt lat="37.8563409" lon="13.7736874"><ele>476.0</ele><time>2026-05-01T09:19:56.923Z</time></trkpt><trkpt lat="37.8564439" lon="13.7738937"><ele>476.0</ele><time>2026-05-01T09:19:57.924Z</time></trkpt><trkpt lat="37.85654" lon="13.7741224"><ele>476.0</ele><time>2026-05-01T09:19:58.923Z</time></trkpt><trkpt lat="37.8566261" lon="13.7743711"><ele>477.3333333333333</ele><time>2026-05-01T09:19:59.923Z</time></trkpt><trkpt lat="37.8567039" lon="13.774621"><ele>478.66666666666663</ele><time>2026-05-01T09:20:00.923Z</time></trkpt><trkpt lat="37.8567683" lon="13.7748474"><ele>480.0</ele><time>2026-05-01T09:20:01.923Z</time></trkpt><trkpt lat="37.8568171" lon="13.7750397"><ele>479.4</ele><time>2026-05-01T09:20:02.923Z</time></trkpt><trkpt lat="37.8568668" lon="13.775185"><ele>478.8</ele><time>2026-05-01T09:20:03.924Z</time></trkpt><trkpt lat="37.856934" lon="13.7752839"><ele>478.20000000000005</ele><time>2026-05-01T09:20:04.924Z</time></trkpt><trkpt lat="37.857024" lon="13.7753393"><ele>477.6</ele><time>2026-05-01T09:20:05.924Z</time></trkpt><trkpt lat="37.8571393" lon="13.7753386"><ele>477.0</ele><time>2026-05-01T09:20:06.923Z</time></trkpt><trkpt lat="37.8572656" lon="13.7753066"><ele>477.0</ele><time>2026-05-01T09:20:07.923Z</time></trkpt><trkpt lat="37.8573943" lon="13.7752754"><ele>477.0</ele><time>2026-05-01T09:20:08.923Z</time></trkpt><trkpt lat="37.8575209" lon="13.7752766"><ele>477.0</ele><time>2026-05-01T09:20:09.923Z</time></trkpt><trkpt lat="37.8576521" lon="13.7753273"><ele>477.0</ele><time>2026-05-01T09:20:10.923Z</time></trkpt><trkpt lat="37.8577797" lon="13.7754155"><ele>472.5</ele><time>2026-05-01T09:20:11.924Z</time></trkpt><trkpt lat="37.8578874" lon="13.7755414"><ele>468.0</ele><time>2026-05-01T09:20:12.923Z</time></trkpt><trkpt lat="37.8579714" lon="13.77569"><ele>463.5</ele><time>2026-05-01T09:20:13.923Z</time></trkpt><trkpt lat="37.8580254" lon="13.7758568"><ele>459.0</ele><time>2026-05-01T09:20:14.923Z</time></trkpt><trkpt lat="37.8580455" lon="13.776029"><ele>459.0</ele><time>2026-05-01T09:20:15.924Z</time></trkpt><trkpt lat="37.8580275" lon="13.7762026"><ele>459.0</ele><time>2026-05-01T09:20:16.923Z</time></trkpt><trkpt lat="37.8579859" lon="13.7763882"><ele>459.0</ele><time>2026-05-01T09:20:17.923Z</time></trkpt><trkpt lat="37.857944" lon="13.7765634"><ele>459.0</ele><time>2026-05-01T09:20:18.924Z</time></trkpt><trkpt lat="37.8579298" lon="13.7767298"><ele>460.25</ele><time>2026-05-01T09:20:19.923Z</time></trkpt><trkpt lat="37.8579497" lon="13.7768898"><ele>461.5</ele><time>2026-05-01T09:20:20.924Z</time></trkpt><trkpt lat="37.8580078" lon="13.7770452"><ele>462.75</ele><time>2026-05-01T09:20:21.924Z</time></trkpt><trkpt lat="37.8581071" lon="13.7771842"><ele>464.0</ele><time>2026-05-01T09:20:22.924Z</time></trkpt><trkpt lat="37.8582573" lon="13.7773421"><ele>464.0</ele><time>2026-05-01T09:20:23.924Z</time></trkpt><trkpt lat="37.8584398" lon="13.7775165"><ele>464.0</ele><time>2026-05-01T09:20:24.923Z</time></trkpt><trkpt lat="37.8586326" lon="13.7777016"><ele>463.3333333333333</ele><time>2026-05-01T09:20:25.924Z</time></trkpt><trkpt lat="37.8587941" lon="13.7778659"><ele>462.66666666666663</ele><time>2026-05-01T09:20:26.923Z</time></trkpt><trkpt lat="37.8589267" lon="13.7779933"><ele>462.0</ele><time>2026-05-01T09:20:27.924Z</time></trkpt><trkpt lat="37.859024" lon="13.7780922"><ele>462.0</ele><time>2026-05-01T09:20:28.923Z</time></trkpt><trkpt lat="37.8591141" lon="13.7781707"><ele>462.0</ele><time>2026-05-01T09:20:29.923Z</time></trkpt><trkpt lat="37.8592148" lon="13.7782086"><ele>462.0</ele><time>2026-05-01T09:20:30.923Z</time></trkpt><trkpt lat="37.8593299" lon="13.7781966"><ele>462.0</ele><time>2026-05-01T09:20:31.923Z</time></trkpt><trkpt lat="37.8594587" lon="13.778149"><ele>461.0</ele><time>2026-05-01T09:20:32.923Z</time></trkpt><trkpt lat="37.8595949" lon="13.77809"><ele>460.0</ele><time>2026-05-01T09:20:33.923Z</time></trkpt><trkpt lat="37.8597307" lon="13.7780722"><ele>459.0</ele><time>2026-05-01T09:20:34.923Z</time></trkpt><trkpt lat="37.8598703" lon="13.778073"><ele>458.0</ele><time>2026-05-01T09:20:35.924Z</time></trkpt><trkpt lat="37.8600176" lon="13.7781069"><ele>458.0</ele><time>2026-05-01T09:20:36.923Z</time></trkpt><trkpt lat="37.8601817" lon="13.7781542"><ele>458.0</ele><time>2026-05-01T09:20:37.924Z</time></trkpt><trkpt lat="37.8603424" lon="13.7781765"><ele>458.0</ele><time>2026-05-01T09:20:38.923Z</time></trkpt><trkpt lat="37.8604865" lon="13.7781545"><ele>458.0</ele><time>2026-05-01T09:20:39.923Z</time></trkpt><trkpt lat="37.8606337" lon="13.7780854"><ele>458.0</ele><time>2026-05-01T09:20:40.924Z</time></trkpt><trkpt lat="37.8607859" lon="13.7779888"><ele>458.0</ele><time>2026-05-01T09:20:41.923Z</time></trkpt><trkpt lat="37.8609146" lon="13.7779272"><ele>455.59999999999997</ele><time>2026-05-01T09:20:42.924Z</time></trkpt><trkpt lat="37.8610184" lon="13.7779187"><ele>453.19999999999993</ele><time>2026-05-01T09:20:43.924Z</time></trkpt><trkpt lat="37.8611326" lon="13.7779389"><ele>450.8</ele><time>2026-05-01T09:20:44.923Z</time></trkpt><trkpt lat="37.8612247" lon="13.7780141"><ele>448.4</ele><time>2026-05-01T09:20:45.923Z</time></trkpt><trkpt lat="37.8613012" lon="13.7781178"><ele>446.0</ele><time>2026-05-01T09:20:46.923Z</time></trkpt><trkpt lat="37.8613594" lon="13.7782684"><ele>446.0</ele><time>2026-05-01T09:20:47.923Z</time></trkpt><trkpt lat="37.8614096" lon="13.7784799"><ele>446.0</ele><time>2026-05-01T09:20:48.923Z</time></trkpt><trkpt lat="37.8614611" lon="13.7787008"><ele>446.0</ele><time>2026-05-01T09:20:49.924Z</time></trkpt><trkpt lat="37.8615117" lon="13.778888"><ele>447.5</ele><time>2026-05-01T09:20:50.923Z</time></trkpt><trkpt lat="37.8615574" lon="13.7790527"><ele>449.0</ele><time>2026-05-01T09:20:51.923Z</time></trkpt><trkpt lat="37.8616117" lon="13.7791871"><ele>450.5</ele><time>2026-05-01T09:20:52.923Z</time></trkpt><trkpt lat="37.861697" lon="13.7793099"><ele>452.0</ele><time>2026-05-01T09:20:53.923Z</time></trkpt><trkpt lat="37.8618084" lon="13.7794038"><ele>452.0</ele><time>2026-05-01T09:20:54.924Z</time></trkpt><trkpt lat="37.8619195" lon="13.779484"><ele>452.0</ele><time>2026-05-01T09:20:55.924Z</time></trkpt><trkpt lat="37.8620297" lon="13.7795734"><ele>452.0</ele><time>2026-05-01T09:20:56.923Z</time></trkpt><trkpt lat="37.8621355" lon="13.7796675"><ele>452.0</ele><time>2026-05-01T09:20:57.924Z</time></trkpt><trkpt lat="37.8622285" lon="13.779764"><ele>452.0</ele><time>2026-05-01T09:20:58.923Z</time></trkpt><trkpt lat="37.8623163" lon="13.7798638"><ele>452.0</ele><time>2026-05-01T09:20:59.924Z</time></trkpt><trkpt lat="37.8624056" lon="13.7799649"><ele>452.0</ele><time>2026-05-01T09:21:00.924Z</time></trkpt><trkpt lat="37.8624912" lon="13.7800652"><ele>452.0</ele><time>2026-05-01T09:21:01.923Z</time></trkpt><trkpt lat="37.8625735" lon="13.7801703"><ele>449.5</ele><time>2026-05-01T09:21:02.923Z</time></trkpt><trkpt lat="37.8626609" lon="13.7802723"><ele>447.0</ele><time>2026-05-01T09:21:03.923Z</time></trkpt><trkpt lat="37.8627481" lon="13.7803747"><ele>444.5</ele><time>2026-05-01T09:21:04.923Z</time></trkpt><trkpt lat="37.8628364" lon="13.7804757"><ele>442.0</ele><time>2026-05-01T09:21:05.924Z</time></trkpt><trkpt lat="37.8629279" lon="13.78057"><ele>442.0</ele><time>2026-05-01T09:21:06.923Z</time></trkpt><trkpt lat="37.8630145" lon="13.780674"><ele>442.0</ele><time>2026-05-01T09:21:07.924Z</time></trkpt><trkpt lat="37.8630985" lon="13.7807874"><ele>442.0</ele><time>2026-05-01T09:21:08.923Z</time></trkpt><trkpt lat="37.8631866" lon="13.7809002"><ele>442.0</ele><time>2026-05-01T09:21:09.924Z</time></trkpt><trkpt lat="37.8632749" lon="13.7810066"><ele>442.75</ele><time>2026-05-01T09:21:10.924Z</time></trkpt><trkpt lat="37.8633673" lon="13.7811141"><ele>443.5</ele><time>2026-05-01T09:21:11.923Z</time></trkpt><trkpt lat="37.8634595" lon="13.7812256"><ele>444.25</ele><time>2026-05-01T09:21:12.924Z</time></trkpt><trkpt lat="37.8635535" lon="13.781339"><ele>445.0</ele><time>2026-05-01T09:21:13.924Z</time></trkpt><trkpt lat="37.863651" lon="13.7814497"><ele>443.75</ele><time>2026-05-01T09:21:14.923Z</time></trkpt><trkpt lat="37.8637464" lon="13.781556"><ele>442.5</ele><time>2026-05-01T09:21:15.923Z</time></trkpt><trkpt lat="37.8638373" lon="13.7816586"><ele>441.25</ele><time>2026-05-01T09:21:16.923Z</time></trkpt><trkpt lat="37.8639225" lon="13.7817662"><ele>440.0</ele><time>2026-05-01T09:21:17.924Z</time></trkpt><trkpt lat="37.8640057" lon="13.7818703"><ele>440.0</ele><time>2026-05-01T09:21:18.923Z</time></trkpt><trkpt lat="37.8640942" lon="13.781974"><ele>440.0</ele><time>2026-05-01T09:21:19.924Z</time></trkpt><trkpt lat="37.8641905" lon="13.782081"><ele>440.0</ele><time>2026-05-01T09:21:20.923Z</time></trkpt><trkpt lat="37.8642838" lon="13.7821899"><ele>440.0</ele><time>2026-05-01T09:21:21.923Z</time></trkpt><trkpt lat="37.8643789" lon="13.7822978"><ele>437.75</ele><time>2026-05-01T09:21:22.924Z</time></trkpt><trkpt lat="37.8644755" lon="13.7824083"><ele>435.5</ele><time>2026-05-01T09:21:23.924Z</time></trkpt><trkpt lat="37.8645769" lon="13.7825122"><ele>433.25</ele><time>2026-05-01T09:21:24.923Z</time></trkpt><trkpt lat="37.8646771" lon="13.7826199"><ele>431.0</ele><time>2026-05-01T09:21:25.923Z</time></trkpt><trkpt lat="37.8647786" lon="13.7827267"><ele>431.0</ele><time>2026-05-01T09:21:26.923Z</time></trkpt><trkpt lat="37.8648718" lon="13.7828384"><ele>431.0</ele><time>2026-05-01T09:21:27.924Z</time></trkpt><trkpt lat="37.8649572" lon="13.7829572"><ele>431.0</ele><time>2026-05-01T09:21:28.923Z</time></trkpt><trkpt lat="37.8650244" lon="13.7830888"><ele>431.0</ele><time>2026-05-01T09:21:29.923Z</time></trkpt><trkpt lat="37.8650648" lon="13.7832358"><ele>431.0</ele><time>2026-05-01T09:21:30.924Z</time></trkpt><trkpt lat="37.8650808" lon="13.7833976"><ele>431.0</ele><time>2026-05-01T09:21:31.924Z</time></trkpt><trkpt lat="37.8650766" lon="13.7835674"><ele>431.0</ele><time>2026-05-01T09:21:32.924Z</time></trkpt><trkpt lat="37.8650604" lon="13.7837404"><ele>431.0</ele><time>2026-05-01T09:21:33.923Z</time></trkpt><trkpt lat="37.8650353" lon="13.7839181"><ele>430.75</ele><time>2026-05-01T09:21:34.924Z</time></trkpt><trkpt lat="37.8650144" lon="13.7840992"><ele>430.5</ele><time>2026-05-01T09:21:35.924Z</time></trkpt><trkpt lat="37.8649919" lon="13.7842864"><ele>430.25</ele><time>2026-05-01T09:21:36.923Z</time></trkpt><trkpt lat="37.8649679" lon="13.7844786"><ele>430.0</ele><time>2026-05-01T09:21:37.923Z</time></trkpt><trkpt lat="37.8649501" lon="13.7846636"><ele>428.75</ele><time>2026-05-01T09:21:38.925Z</time></trkpt><trkpt lat="37.8649282" lon="13.7848375"><ele>427.5</ele><time>2026-05-01T09:21:39.924Z</time></trkpt><trkpt lat="37.8648833" lon="13.7849935"><ele>426.25</ele><time>2026-05-01T09:21:40.924Z</time></trkpt><trkpt lat="37.8648089" lon="13.7851479"><ele>425.0</ele><time>2026-05-01T09:21:41.924Z</time></trkpt><trkpt lat="37.8647038" lon="13.7852882"><ele>422.3333333333333</ele><time>2026-05-01T09:21:42.925Z</time></trkpt><trkpt lat="37.8645809" lon="13.7854309"><ele>419.66666666666663</ele><time>2026-05-01T09:21:43.924Z</time></trkpt><trkpt lat="37.8644669" lon="13.78557"><ele>417.0</ele><time>2026-05-01T09:21:44.925Z</time></trkpt><trkpt lat="37.8643772" lon="13.785712"><ele>417.0</ele><time>2026-05-01T09:21:45.924Z</time></trkpt><trkpt lat="37.8643149" lon="13.7858634"><ele>417.0</ele><time>2026-05-01T09:21:46.925Z</time></trkpt><trkpt lat="37.8642834" lon="13.7860272"><ele>417.0</ele><time>2026-05-01T09:21:47.924Z</time></trkpt><trkpt lat="37.8642874" lon="13.7862089"><ele>417.0</ele><time>2026-05-01T09:21:48.925Z</time></trkpt><trkpt lat="37.8643488" lon="13.7864031"><ele>415.66666666666663</ele><time>2026-05-01T09:21:49.924Z</time></trkpt><trkpt lat="37.8644405" lon="13.7866172"><ele>414.3333333333333</ele><time>2026-05-01T09:21:50.925Z</time></trkpt><trkpt lat="37.8645282" lon="13.7868081"><ele>413.0</ele><time>2026-05-01T09:21:51.925Z</time></trkpt><trkpt lat="37.8646021" lon="13.7869749"><ele>412.25</ele><time>2026-05-01T09:21:52.924Z</time></trkpt><trkpt lat="37.8646454" lon="13.7871208"><ele>411.5</ele><time>2026-05-01T09:21:53.924Z</time></trkpt><trkpt lat="37.8646626" lon="13.787267"><ele>410.75</ele><time>2026-05-01T09:21:54.924Z</time></trkpt><trkpt lat="37.8646508" lon="13.7874302"><ele>410.0</ele><time>2026-05-01T09:21:55.924Z</time></trkpt><trkpt lat="37.8646196" lon="13.7876257"><ele>410.0</ele><time>2026-05-01T09:21:56.924Z</time></trkpt><trkpt lat="37.8645947" lon="13.7878396"><ele>410.0</ele><time>2026-05-01T09:21:57.925Z</time></trkpt><trkpt lat="37.8645692" lon="13.7880421"><ele>410.0</ele><time>2026-05-01T09:21:58.924Z</time></trkpt><trkpt lat="37.8645346" lon="13.7882105"><ele>410.0</ele><time>2026-05-01T09:21:59.924Z</time></trkpt><trkpt lat="37.8644704" lon="13.7883693"><ele>410.0</ele><time>2026-05-01T09:22:00.924Z</time></trkpt><trkpt lat="37.8643927" lon="13.7885127"><ele>410.0</ele><time>2026-05-01T09:22:01.924Z</time></trkpt><trkpt lat="37.8643156" lon="13.788637"><ele>410.0</ele><time>2026-05-01T09:22:02.924Z</time></trkpt><trkpt lat="37.864282" lon="13.7887706"><ele>407.25</ele><time>2026-05-01T09:22:03.924Z</time></trkpt><trkpt lat="37.864287" lon="13.7889367"><ele>404.5</ele><time>2026-05-01T09:22:04.925Z</time></trkpt><trkpt lat="37.8643112" lon="13.7891106"><ele>401.75</ele><time>2026-05-01T09:22:05.924Z</time></trkpt><trkpt lat="37.8643244" lon="13.7892753"><ele>399.0</ele><time>2026-05-01T09:22:06.924Z</time></trkpt><trkpt lat="37.8642969" lon="13.7894424"><ele>400.25</ele><time>2026-05-01T09:22:07.925Z</time></trkpt><trkpt lat="37.86424" lon="13.7896123"><ele>401.5</ele><time>2026-05-01T09:22:08.924Z</time></trkpt><trkpt lat="37.86416" lon="13.7897447"><ele>402.75</ele><time>2026-05-01T09:22:09.925Z</time></trkpt><trkpt lat="37.8640482" lon="13.7898462"><ele>404.0</ele><time>2026-05-01T09:22:10.924Z</time></trkpt><trkpt lat="37.8638979" lon="13.7899207"><ele>404.0</ele><time>2026-05-01T09:22:11.925Z</time></trkpt><trkpt lat="37.8637232" lon="13.7900027"><ele>404.0</ele><time>2026-05-01T09:22:12.924Z</time></trkpt><trkpt lat="37.8635422" lon="13.790142"><ele>404.0</ele><time>2026-05-01T09:22:13.924Z</time></trkpt><trkpt lat="37.8633768" lon="13.7902973"><ele>404.75</ele><time>2026-05-01T09:22:14.925Z</time></trkpt><trkpt lat="37.8632477" lon="13.7904181"><ele>405.5</ele><time>2026-05-01T09:22:15.925Z</time></trkpt><trkpt lat="37.8631325" lon="13.7904853"><ele>406.25</ele><time>2026-05-01T09:22:16.924Z</time></trkpt><trkpt lat="37.863049" lon="13.7905695"><ele>407.0</ele><time>2026-05-01T09:22:17.924Z</time></trkpt><trkpt lat="37.8629948" lon="13.7906898"><ele>407.0</ele><time>2026-05-01T09:22:18.925Z</time></trkpt><trkpt lat="37.8629839" lon="13.7908348"><ele>407.0</ele><time>2026-05-01T09:22:19.924Z</time></trkpt><trkpt lat="37.8629985" lon="13.7909738"><ele>407.0</ele><time>2026-05-01T09:22:20.924Z</time></trkpt><trkpt lat="37.8630472" lon="13.7911141"><ele>407.0</ele><time>2026-05-01T09:22:21.924Z</time></trkpt><trkpt lat="37.863145" lon="13.7912262"><ele>406.40000000000003</ele><time>2026-05-01T09:22:22.925Z</time></trkpt><trkpt lat="37.8632496" lon="13.7913016"><ele>405.8</ele><time>2026-05-01T09:22:23.924Z</time></trkpt><trkpt lat="37.8633344" lon="13.7913667"><ele>405.2</ele><time>2026-05-01T09:22:24.925Z</time></trkpt><trkpt lat="37.8634099" lon="13.7914414"><ele>404.6</ele><time>2026-05-01T09:22:25.924Z</time></trkpt><trkpt lat="37.8634787" lon="13.7915471"><ele>404.0</ele><time>2026-05-01T09:22:26.924Z</time></trkpt><trkpt lat="37.8635327" lon="13.7916906"><ele>404.0</ele><time>2026-05-01T09:22:27.924Z</time></trkpt><trkpt lat="37.8635657" lon="13.791822"><ele>404.0</ele><time>2026-05-01T09:22:28.924Z</time></trkpt><trkpt lat="37.8636057" lon="13.7919296"><ele>404.0</ele><time>2026-05-01T09:22:29.924Z</time></trkpt><trkpt lat="37.86368" lon="13.792026"><ele>404.0</ele><time>2026-05-01T09:22:30.925Z</time></trkpt><trkpt lat="37.8637787" lon="13.7921015"><ele>404.0</ele><time>2026-05-01T09:22:31.925Z</time></trkpt><trkpt lat="37.863906" lon="13.7921344"><ele>411.66666666666663</ele><time>2026-05-01T09:22:32.924Z</time></trkpt><trkpt lat="37.8640599" lon="13.7921263"><ele>419.33333333333337</ele><time>2026-05-01T09:22:33.925Z</time></trkpt><trkpt lat="37.8642615" lon="13.7921542"><ele>427.0</ele><time>2026-05-01T09:22:34.924Z</time></trkpt><trkpt lat="37.8644876" lon="13.7922063"><ele>427.0</ele><time>2026-05-01T09:22:35.924Z</time></trkpt><trkpt lat="37.8646914" lon="13.7922441"><ele>427.0</ele><time>2026-05-01T09:22:36.924Z</time></trkpt><trkpt lat="37.8648589" lon="13.792239"><ele>427.0</ele><time>2026-05-01T09:22:37.925Z</time></trkpt><trkpt lat="37.8650031" lon="13.7922211"><ele>424.0</ele><time>2026-05-01T09:22:38.925Z</time></trkpt><trkpt lat="37.865139" lon="13.7922275"><ele>421.0</ele><time>2026-05-01T09:22:39.925Z</time></trkpt><trkpt lat="37.8652594" lon="13.7922986"><ele>418.0</ele><time>2026-05-01T09:22:40.925Z</time></trkpt><trkpt lat="37.865362" lon="13.7924302"><ele>415.0</ele><time>2026-05-01T09:22:41.924Z</time></trkpt><trkpt lat="37.8654615" lon="13.7925836"><ele>418.33333333333337</ele><time>2026-05-01T09:22:42.925Z</time></trkpt><trkpt lat="37.8655405" lon="13.792754"><ele>421.66666666666663</ele><time>2026-05-01T09:22:43.924Z</time></trkpt><trkpt lat="37.8656032" lon="13.7929378"><ele>425.0</ele><time>2026-05-01T09:22:44.925Z</time></trkpt><trkpt lat="37.865646" lon="13.7931585"><ele>425.0</ele><time>2026-05-01T09:22:45.924Z</time></trkpt><trkpt lat="37.8656825" lon="13.7933808"><ele>425.0</ele><time>2026-05-01T09:22:46.925Z</time></trkpt><trkpt lat="37.8657173" lon="13.7935711"><ele>425.0</ele><time>2026-05-01T09:22:47.924Z</time></trkpt><trkpt lat="37.8657484" lon="13.7937237"><ele>427.75</ele><time>2026-05-01T09:22:48.925Z</time></trkpt><trkpt lat="37.8658184" lon="13.7938501"><ele>430.5</ele><time>2026-05-01T09:22:49.924Z</time></trkpt><trkpt lat="37.8659274" lon="13.7939614"><ele>433.25</ele><time>2026-05-01T09:22:50.925Z</time></trkpt><trkpt lat="37.8660652" lon="13.7940349"><ele>436.0</ele><time>2026-05-01T09:22:51.924Z</time></trkpt><trkpt lat="37.8662042" lon="13.7940496"><ele>437.6666666666667</ele><time>2026-05-01T09:22:52.925Z</time></trkpt><trkpt lat="37.8663327" lon="13.7940038"><ele>439.33333333333337</ele><time>2026-05-01T09:22:53.924Z</time></trkpt><trkpt lat="37.8664663" lon="13.7939002"><ele>441.0</ele><time>2026-05-01T09:22:54.924Z</time></trkpt><trkpt lat="37.8665934" lon="13.7937713"><ele>441.0</ele><time>2026-05-01T09:22:55.924Z</time></trkpt><trkpt lat="37.8667269" lon="13.7936768"><ele>441.0</ele><time>2026-05-01T09:22:56.924Z</time></trkpt><trkpt lat="37.8668759" lon="13.7936381"><ele>441.0</ele><time>2026-05-01T09:22:57.924Z</time></trkpt><trkpt lat="37.8670149" lon="13.7936428"><ele>441.0</ele><time>2026-05-01T09:22:58.924Z</time></trkpt><trkpt lat="37.8671351" lon="13.7936787"><ele>441.75</ele><time>2026-05-01T09:22:59.925Z</time></trkpt><trkpt lat="37.8672343" lon="13.7937479"><ele>442.5</ele><time>2026-05-01T09:23:00.924Z</time></trkpt><trkpt lat="37.8673107" lon="13.7938553"><ele>443.25</ele><time>2026-05-01T09:23:01.924Z</time></trkpt><trkpt lat="37.8673609" lon="13.7940002"><ele>444.0</ele><time>2026-05-01T09:23:02.925Z</time></trkpt><trkpt lat="37.8674094" lon="13.7941429"><ele>444.0</ele><time>2026-05-01T09:23:03.924Z</time></trkpt><trkpt lat="37.8674811" lon="13.7942322"><ele>444.0</ele><time>2026-05-01T09:23:04.925Z</time></trkpt><trkpt lat="37.8675928" lon="13.7942671"><ele>444.0</ele><time>2026-05-01T09:23:05.925Z</time></trkpt><trkpt lat="37.8677601" lon="13.7942561"><ele>444.0</ele><time>2026-05-01T09:23:06.924Z</time></trkpt><trkpt lat="37.8679471" lon="13.7942515"><ele>445.0</ele><time>2026-05-01T09:23:07.924Z</time></trkpt><trkpt lat="37.8681192" lon="13.7942224"><ele>446.0</ele><time>2026-05-01T09:23:08.925Z</time></trkpt><trkpt lat="37.8682453" lon="13.7941717"><ele>447.0</ele><time>2026-05-01T09:23:09.924Z</time></trkpt><trkpt lat="37.8683523" lon="13.7940851"><ele>448.0</ele><time>2026-05-01T09:23:10.925Z</time></trkpt><trkpt lat="37.8684662" lon="13.7939659"><ele>451.0</ele><time>2026-05-01T09:23:11.925Z</time></trkpt><trkpt lat="37.8685884" lon="13.7938165"><ele>454.0</ele><time>2026-05-01T09:23:12.925Z</time></trkpt><trkpt lat="37.8687077" lon="13.7936628"><ele>457.0</ele><time>2026-05-01T09:23:13.925Z</time></trkpt><trkpt lat="37.8688241" lon="13.7935362"><ele>454.0</ele><time>2026-05-01T09:23:14.925Z</time></trkpt><trkpt lat="37.8689463" lon="13.7934489"><ele>451.0</ele><time>2026-05-01T09:23:15.925Z</time></trkpt><trkpt lat="37.8690767" lon="13.7934044"><ele>448.0</ele><time>2026-05-01T09:23:16.925Z</time></trkpt><trkpt lat="37.8692137" lon="13.7933982"><ele>445.0</ele><time>2026-05-01T09:23:17.925Z</time></trkpt><trkpt lat="37.8693631" lon="13.7934332"><ele>446.6666666666667</ele><time>2026-05-01T09:23:18.925Z</time></trkpt><trkpt lat="37.86952" lon="13.793509"><ele>448.33333333333337</ele><time>2026-05-01T09:23:19.924Z</time></trkpt><trkpt lat="37.8696774" lon="13.7936078"><ele>450.0</ele><time>2026-05-01T09:23:20.925Z</time></trkpt><trkpt lat="37.8698189" lon="13.7937419"><ele>450.0</ele><time>2026-05-01T09:23:21.924Z</time></trkpt><trkpt lat="37.8699453" lon="13.7939073"><ele>450.0</ele><time>2026-05-01T09:23:22.924Z</time></trkpt><trkpt lat="37.8700566" lon="13.7940679"><ele>450.0</ele><time>2026-05-01T09:23:23.924Z</time></trkpt><trkpt lat="37.8701645" lon="13.7942158"><ele>451.66666666666663</ele><time>2026-05-01T09:23:24.924Z</time></trkpt><trkpt lat="37.8702815" lon="13.7943314"><ele>453.3333333333333</ele><time>2026-05-01T09:23:25.925Z</time></trkpt><trkpt lat="37.8704351" lon="13.7944019"><ele>455.0</ele><time>2026-05-01T09:23:26.924Z</time></trkpt><trkpt lat="37.8706221" lon="13.7944182"><ele>455.0</ele><time>2026-05-01T09:23:27.925Z</time></trkpt><trkpt lat="37.8708189" lon="13.7944035"><ele>455.0</ele><time>2026-05-01T09:23:28.925Z</time></trkpt><trkpt lat="37.8710339" lon="13.7943902"><ele>455.0</ele><time>2026-05-01T09:23:29.924Z</time></trkpt><trkpt lat="37.8712419" lon="13.7943964"><ele>453.3333333333333</ele><time>2026-05-01T09:23:30.924Z</time></trkpt><trkpt lat="37.8714368" lon="13.7943992"><ele>451.66666666666663</ele><time>2026-05-01T09:23:31.925Z</time></trkpt><trkpt lat="37.8716299" lon="13.794386"><ele>450.0</ele><time>2026-05-01T09:23:32.925Z</time></trkpt><trkpt lat="37.8718351" lon="13.7943319"><ele>447.66666666666663</ele><time>2026-05-01T09:23:33.924Z</time></trkpt><trkpt lat="37.8720386" lon="13.7942596"><ele>445.3333333333333</ele><time>2026-05-01T09:23:34.924Z</time></trkpt><trkpt lat="37.8722359" lon="13.7941806"><ele>443.0</ele><time>2026-05-01T09:23:35.924Z</time></trkpt><trkpt lat="37.872419" lon="13.7941124"><ele>443.0</ele><time>2026-05-01T09:23:36.925Z</time></trkpt><trkpt lat="37.8725915" lon="13.794045"><ele>443.0</ele><time>2026-05-01T09:23:37.924Z</time></trkpt><trkpt lat="37.8727586" lon="13.7939699"><ele>443.0</ele><time>2026-05-01T09:23:38.924Z</time></trkpt><trkpt lat="37.8729147" lon="13.7938803"><ele>444.0</ele><time>2026-05-01T09:23:39.925Z</time></trkpt><trkpt lat="37.8730599" lon="13.7937599"><ele>445.0</ele><time>2026-05-01T09:23:40.924Z</time></trkpt><trkpt lat="37.8731939" lon="13.7935907"><ele>446.0</ele><time>2026-05-01T09:23:41.925Z</time></trkpt><trkpt lat="37.8733188" lon="13.793377"><ele>449.0</ele><time>2026-05-01T09:23:42.924Z</time></trkpt><trkpt lat="37.8734512" lon="13.7931505"><ele>452.0</ele><time>2026-05-01T09:23:43.924Z</time></trkpt><trkpt lat="37.8735916" lon="13.7929204"><ele>452.0</ele><time>2026-05-01T09:23:44.924Z</time></trkpt><trkpt lat="37.8737288" lon="13.7926791"><ele>452.0</ele><time>2026-05-01T09:23:45.924Z</time></trkpt><trkpt lat="37.8738599" lon="13.7924454"><ele>448.66666666666663</ele><time>2026-05-01T09:23:46.924Z</time></trkpt><trkpt lat="37.8739749" lon="13.7922446"><ele>445.33333333333337</ele><time>2026-05-01T09:23:47.925Z</time></trkpt><trkpt lat="37.8740746" lon="13.7920824"><ele>442.0</ele><time>2026-05-01T09:23:48.925Z</time></trkpt><trkpt lat="37.8741799" lon="13.7919468"><ele>441.33333333333337</ele><time>2026-05-01T09:23:49.925Z</time></trkpt><trkpt lat="37.8743145" lon="13.7918309"><ele>440.66666666666663</ele><time>2026-05-01T09:23:50.924Z</time></trkpt><trkpt lat="37.8744696" lon="13.7917462"><ele>440.0</ele><time>2026-05-01T09:23:51.924Z</time></trkpt><trkpt lat="37.8746039" lon="13.7916617"><ele>440.0</ele><time>2026-05-01T09:23:52.924Z</time></trkpt><trkpt lat="37.8747069" lon="13.7915425"><ele>440.0</ele><time>2026-05-01T09:23:53.924Z</time></trkpt><trkpt lat="37.874783" lon="13.7913764"><ele>440.0</ele><time>2026-05-01T09:23:54.925Z</time></trkpt><trkpt lat="37.874838" lon="13.7911777"><ele>437.3333333333333</ele><time>2026-05-01T09:23:55.924Z</time></trkpt><trkpt lat="37.8748873" lon="13.7909449"><ele>434.66666666666663</ele><time>2026-05-01T09:23:56.925Z</time></trkpt><trkpt lat="37.8749327" lon="13.790726"><ele>432.0</ele><time>2026-05-01T09:23:57.924Z</time></trkpt><trkpt lat="37.8749899" lon="13.7905429"><ele>432.0</ele><time>2026-05-01T09:23:58.925Z</time></trkpt><trkpt lat="37.8750661" lon="13.7903864"><ele>432.0</ele><time>2026-05-01T09:23:59.924Z</time></trkpt><trkpt lat="37.8751853" lon="13.7902632"><ele>432.0</ele><time>2026-05-01T09:24:00.925Z</time></trkpt><trkpt lat="37.8753454" lon="13.7901607"><ele>433.33333333333337</ele><time>2026-05-01T09:24:01.924Z</time></trkpt><trkpt lat="37.8755108" lon="13.7900772"><ele>434.6666666666667</ele><time>2026-05-01T09:24:02.924Z</time></trkpt><trkpt lat="37.8756764" lon="13.789968"><ele>436.0</ele><time>2026-05-01T09:24:03.924Z</time></trkpt><trkpt lat="37.8758236" lon="13.7898188"><ele>438.0</ele><time>2026-05-01T09:24:04.924Z</time></trkpt><trkpt lat="37.875975" lon="13.7895968"><ele>440.0</ele><time>2026-05-01T09:24:05.925Z</time></trkpt><trkpt lat="37.8761148" lon="13.7893381"><ele>440.0</ele><time>2026-05-01T09:24:06.924Z</time></trkpt><trkpt lat="37.876251" lon="13.7890997"><ele>440.0</ele><time>2026-05-01T09:24:07.924Z</time></trkpt><trkpt lat="37.8763612" lon="13.7888998"><ele>440.0</ele><time>2026-05-01T09:24:08.925Z</time></trkpt><trkpt lat="37.87646" lon="13.7887417"><ele>440.0</ele><time>2026-05-01T09:24:09.924Z</time></trkpt><trkpt lat="37.8765703" lon="13.7886102"><ele>440.0</ele><time>2026-05-01T09:24:10.924Z</time></trkpt><trkpt lat="37.876707" lon="13.7885"><ele>440.0</ele><time>2026-05-01T09:24:11.925Z</time></trkpt><trkpt lat="37.8768582" lon="13.7884284"><ele>439.66666666666663</ele><time>2026-05-01T09:24:12.925Z</time></trkpt><trkpt lat="37.8770112" lon="13.7883789"><ele>439.33333333333337</ele><time>2026-05-01T09:24:13.924Z</time></trkpt><trkpt lat="37.8771586" lon="13.7883801"><ele>439.0</ele><time>2026-05-01T09:24:14.925Z</time></trkpt><trkpt lat="37.877305" lon="13.7884102"><ele>439.0</ele><time>2026-05-01T09:24:15.925Z</time></trkpt><trkpt lat="37.8774703" lon="13.7884605"><ele>439.0</ele><time>2026-05-01T09:24:16.925Z</time></trkpt><trkpt lat="37.8776598" lon="13.7885154"><ele>439.0</ele><time>2026-05-01T09:24:17.924Z</time></trkpt><trkpt lat="37.8778601" lon="13.7885755"><ele>438.0</ele><time>2026-05-01T09:24:18.924Z</time></trkpt><trkpt lat="37.8780715" lon="13.7886284"><ele>437.0</ele><time>2026-05-01T09:24:19.924Z</time></trkpt><trkpt lat="37.8782961" lon="13.7886923"><ele>436.0</ele><time>2026-05-01T09:24:20.924Z</time></trkpt><trkpt lat="37.8785283" lon="13.7887636"><ele>434.5</ele><time>2026-05-01T09:24:21.924Z</time></trkpt><trkpt lat="37.8787672" lon="13.7888384"><ele>433.0</ele><time>2026-05-01T09:24:22.924Z</time></trkpt><trkpt lat="37.8790096" lon="13.7889064"><ele>433.0</ele><time>2026-05-01T09:24:23.925Z</time></trkpt><trkpt lat="37.8792543" lon="13.7889647"><ele>433.0</ele><time>2026-05-01T09:24:24.925Z</time></trkpt><trkpt lat="37.8794968" lon="13.7890262"><ele>430.5</ele><time>2026-05-01T09:24:25.925Z</time></trkpt><trkpt lat="37.8797402" lon="13.7890866"><ele>428.0</ele><time>2026-05-01T09:24:26.924Z</time></trkpt><trkpt lat="37.8799845" lon="13.7891513"><ele>422.5</ele><time>2026-05-01T09:24:27.924Z</time></trkpt><trkpt lat="37.8802283" lon="13.7892197"><ele>417.0</ele><time>2026-05-01T09:24:28.924Z</time></trkpt><trkpt lat="37.8804728" lon="13.7892866"><ele>418.5</ele><time>2026-05-01T09:24:29.925Z</time></trkpt><trkpt lat="37.8807148" lon="13.7893496"><ele>420.0</ele><time>2026-05-01T09:24:30.925Z</time></trkpt><trkpt lat="37.8809458" lon="13.7894316"><ele>420.0</ele><time>2026-05-01T09:24:31.925Z</time></trkpt><trkpt lat="37.8811607" lon="13.7895256"><ele>420.0</ele><time>2026-05-01T09:24:32.925Z</time></trkpt><trkpt lat="37.881362" lon="13.7895962"><ele>420.0</ele><time>2026-05-01T09:24:33.924Z</time></trkpt><trkpt lat="37.8815572" lon="13.7896523"><ele>420.0</ele><time>2026-05-01T09:24:34.924Z</time></trkpt><trkpt lat="37.8817342" lon="13.7896981"><ele>420.0</ele><time>2026-05-01T09:24:35.925Z</time></trkpt><trkpt lat="37.8818884" lon="13.7897165"><ele>420.0</ele><time>2026-05-01T09:24:36.924Z</time></trkpt><trkpt lat="37.8820461" lon="13.7896818"><ele>419.33333333333337</ele><time>2026-05-01T09:24:37.924Z</time></trkpt><trkpt lat="37.8822172" lon="13.789592"><ele>418.6666666666667</ele><time>2026-05-01T09:24:38.924Z</time></trkpt><trkpt lat="37.8824132" lon="13.7894687"><ele>418.0</ele><time>2026-05-01T09:24:39.924Z</time></trkpt><trkpt lat="37.8826005" lon="13.789351"><ele>414.0</ele><time>2026-05-01T09:24:40.924Z</time></trkpt><trkpt lat="37.8827703" lon="13.789251"><ele>410.0</ele><time>2026-05-01T09:24:41.924Z</time></trkpt><trkpt lat="37.882937" lon="13.789168"><ele>406.0</ele><time>2026-05-01T09:24:42.925Z</time></trkpt><trkpt lat="37.8831125" lon="13.789119"><ele>406.0</ele><time>2026-05-01T09:24:43.924Z</time></trkpt><trkpt lat="37.8832947" lon="13.7891117"><ele>406.0</ele><time>2026-05-01T09:24:44.925Z</time></trkpt><trkpt lat="37.8834789" lon="13.7891314"><ele>406.0</ele><time>2026-05-01T09:24:45.924Z</time></trkpt><trkpt lat="37.8836583" lon="13.7891843"><ele>404.6666666666667</ele><time>2026-05-01T09:24:46.924Z</time></trkpt><trkpt lat="37.8838088" lon="13.789269"><ele>403.33333333333337</ele><time>2026-05-01T09:24:47.924Z</time></trkpt><trkpt lat="37.8839427" lon="13.789378"><ele>402.0</ele><time>2026-05-01T09:24:48.925Z</time></trkpt><trkpt lat="37.884076" lon="13.7895342"><ele>402.0</ele><time>2026-05-01T09:24:49.924Z</time></trkpt><trkpt lat="37.8842138" lon="13.7897302"><ele>402.0</ele><time>2026-05-01T09:24:50.924Z</time></trkpt><trkpt lat="37.884357" lon="13.7899328"><ele>402.0</ele><time>2026-05-01T09:24:51.924Z</time></trkpt><trkpt lat="37.8844827" lon="13.7901199"><ele>400.75</ele><time>2026-05-01T09:24:52.924Z</time></trkpt><trkpt lat="37.8845806" lon="13.7902644"><ele>399.5</ele><time>2026-05-01T09:24:53.924Z</time></trkpt><trkpt lat="37.8846765" lon="13.7903642"><ele>398.25</ele><time>2026-05-01T09:24:54.924Z</time></trkpt><trkpt lat="37.8847821" lon="13.790434"><ele>397.0</ele><time>2026-05-01T09:24:55.925Z</time></trkpt><trkpt lat="37.8849097" lon="13.7904615"><ele>397.0</ele><time>2026-05-01T09:24:56.924Z</time></trkpt><trkpt lat="37.8850474" lon="13.7904466"><ele>397.0</ele><time>2026-05-01T09:24:57.924Z</time></trkpt><trkpt lat="37.8851883" lon="13.7904367"><ele>397.0</ele><time>2026-05-01T09:24:58.924Z</time></trkpt><trkpt lat="37.8853274" lon="13.7904816"><ele>397.0</ele><time>2026-05-01T09:24:59.925Z</time></trkpt><trkpt lat="37.8854526" lon="13.7905604"><ele>394.25</ele><time>2026-05-01T09:25:00.924Z</time></trkpt><trkpt lat="37.8855417" lon="13.7906707"><ele>391.5</ele><time>2026-05-01T09:25:01.925Z</time></trkpt><trkpt lat="37.885585" lon="13.7908225"><ele>388.75</ele><time>2026-05-01T09:25:02.924Z</time></trkpt><trkpt lat="37.8855971" lon="13.7910124"><ele>386.0</ele><time>2026-05-01T09:25:03.924Z</time></trkpt><trkpt lat="37.8855782" lon="13.7912582"><ele>384.3333333333333</ele><time>2026-05-01T09:25:04.925Z</time></trkpt><trkpt lat="37.8855361" lon="13.7915268"><ele>382.66666666666663</ele><time>2026-05-01T09:25:05.925Z</time></trkpt><trkpt lat="37.8855005" lon="13.7917602"><ele>381.0</ele><time>2026-05-01T09:25:06.924Z</time></trkpt><trkpt lat="37.8854779" lon="13.7919654"><ele>379.6666666666667</ele><time>2026-05-01T09:25:07.925Z</time></trkpt><trkpt lat="37.885483" lon="13.792182"><ele>378.33333333333337</ele><time>2026-05-01T09:25:08.925Z</time></trkpt><trkpt lat="37.8855301" lon="13.792418"><ele>377.0</ele><time>2026-05-01T09:25:09.924Z</time></trkpt><trkpt lat="37.8856003" lon="13.792686"><ele>376.5</ele><time>2026-05-01T09:25:10.924Z</time></trkpt><trkpt lat="37.885665" lon="13.7929941"><ele>376.0</ele><time>2026-05-01T09:25:11.925Z</time></trkpt><trkpt lat="37.8857263" lon="13.7932973"><ele>377.3333333333333</ele><time>2026-05-01T09:25:12.924Z</time></trkpt><trkpt lat="37.8857826" lon="13.793558"><ele>378.6666666666667</ele><time>2026-05-01T09:25:13.924Z</time></trkpt><trkpt lat="37.8858287" lon="13.7937724"><ele>380.0</ele><time>2026-05-01T09:25:14.925Z</time></trkpt><trkpt lat="37.8858815" lon="13.7939423"><ele>376.75</ele><time>2026-05-01T09:25:15.925Z</time></trkpt><trkpt lat="37.885957" lon="13.7940892"><ele>373.5</ele><time>2026-05-01T09:25:16.925Z</time></trkpt><trkpt lat="37.8860736" lon="13.7941917"><ele>370.25</ele><time>2026-05-01T09:25:17.924Z</time></trkpt><trkpt lat="37.8862333" lon="13.7942503"><ele>367.0</ele><time>2026-05-01T09:25:18.924Z</time></trkpt><trkpt lat="37.8864072" lon="13.794303"><ele>365.5</ele><time>2026-05-01T09:25:19.924Z</time></trkpt><trkpt lat="37.886547" lon="13.7943604"><ele>364.0</ele><time>2026-05-01T09:25:20.925Z</time></trkpt><trkpt lat="37.8866603" lon="13.7944488"><ele>362.5</ele><time>2026-05-01T09:25:21.925Z</time></trkpt><trkpt lat="37.8867578" lon="13.7945911"><ele>361.0</ele><time>2026-05-01T09:25:22.924Z</time></trkpt><trkpt lat="37.886858" lon="13.7947883"><ele>361.0</ele><time>2026-05-01T09:25:23.924Z</time></trkpt><trkpt lat="37.886998" lon="13.7950007"><ele>361.0</ele><time>2026-05-01T09:25:24.925Z</time></trkpt><trkpt lat="37.8871349" lon="13.7951979"><ele>361.0</ele><time>2026-05-01T09:25:25.924Z</time></trkpt><trkpt lat="37.8872818" lon="13.7953521"><ele>362.25</ele><time>2026-05-01T09:25:26.925Z</time></trkpt><trkpt lat="37.887409" lon="13.7954907"><ele>363.5</ele><time>2026-05-01T09:25:27.925Z</time></trkpt><trkpt lat="37.8875088" lon="13.7956204"><ele>364.75</ele><time>2026-05-01T09:25:28.925Z</time></trkpt><trkpt lat="37.8875786" lon="13.7957624"><ele>366.0</ele><time>2026-05-01T09:25:29.925Z</time></trkpt><trkpt lat="37.8876026" lon="13.7959248"><ele>364.0</ele><time>2026-05-01T09:25:30.924Z</time></trkpt><trkpt lat="37.8875753" lon="13.7961163"><ele>362.0</ele><time>2026-05-01T09:25:31.935Z</time></trkpt><trkpt lat="37.8875128" lon="13.7963498"><ele>360.0</ele><time>2026-05-01T09:25:32.934Z</time></trkpt><trkpt lat="37.8874529" lon="13.7965984"><ele>358.3333333333333</ele><time>2026-05-01T09:25:33.935Z</time></trkpt><trkpt lat="37.8873835" lon="13.7968449"><ele>356.66666666666663</ele><time>2026-05-01T09:25:34.934Z</time></trkpt><trkpt lat="37.8872979" lon="13.7970903"><ele>355.0</ele><time>2026-05-01T09:25:35.934Z</time></trkpt><trkpt lat="37.8871955" lon="13.7973283"><ele>355.0</ele><time>2026-05-01T09:25:36.935Z</time></trkpt><trkpt lat="37.8870821" lon="13.7975675"><ele>355.0</ele><time>2026-05-01T09:25:37.934Z</time></trkpt><trkpt lat="37.8869421" lon="13.7977982"><ele>355.5</ele><time>2026-05-01T09:25:38.935Z</time></trkpt><trkpt lat="37.8867863" lon="13.7980248"><ele>356.0</ele><time>2026-05-01T09:25:39.934Z</time></trkpt><trkpt lat="37.8866358" lon="13.7982401"><ele>356.0</ele><time>2026-05-01T09:25:40.935Z</time></trkpt><trkpt lat="37.886494" lon="13.7984348"><ele>356.0</ele><time>2026-05-01T09:25:41.934Z</time></trkpt><trkpt lat="37.8863741" lon="13.7986245"><ele>356.0</ele><time>2026-05-01T09:25:42.935Z</time></trkpt><trkpt lat="37.886269" lon="13.7988264"><ele>354.0</ele><time>2026-05-01T09:25:43.935Z</time></trkpt><trkpt lat="37.8861885" lon="13.7990661"><ele>352.0</ele><time>2026-05-01T09:25:44.934Z</time></trkpt><trkpt lat="37.8861389" lon="13.7993144"><ele>350.0</ele><time>2026-05-01T09:25:45.934Z</time></trkpt><trkpt lat="37.8861047" lon="13.7995374"><ele>350.0</ele><time>2026-05-01T09:25:46.934Z</time></trkpt><trkpt lat="37.8860694" lon="13.7997205"><ele>350.0</ele><time>2026-05-01T09:25:47.935Z</time></trkpt><trkpt lat="37.8860431" lon="13.7998702"><ele>350.0</ele><time>2026-05-01T09:25:48.935Z</time></trkpt><trkpt lat="37.8860472" lon="13.800009"><ele>350.0</ele><time>2026-05-01T09:25:49.935Z</time></trkpt><trkpt lat="37.8860983" lon="13.8001422"><ele>351.5</ele><time>2026-05-01T09:25:50.935Z</time></trkpt><trkpt lat="37.8861913" lon="13.8002424"><ele>353.0</ele><time>2026-05-01T09:25:51.934Z</time></trkpt><trkpt lat="37.8863253" lon="13.8002966"><ele>354.5</ele><time>2026-05-01T09:25:52.935Z</time></trkpt><trkpt lat="37.8864916" lon="13.800313"><ele>356.0</ele><time>2026-05-01T09:25:53.934Z</time></trkpt><trkpt lat="37.8866601" lon="13.8003257"><ele>352.5</ele><time>2026-05-01T09:25:54.935Z</time></trkpt><trkpt lat="37.886807" lon="13.8003476"><ele>349.0</ele><time>2026-05-01T09:25:55.935Z</time></trkpt><trkpt lat="37.8869137" lon="13.8003965"><ele>345.5</ele><time>2026-05-01T09:25:56.934Z</time></trkpt><trkpt lat="37.8869855" lon="13.8004816"><ele>342.0</ele><time>2026-05-01T09:25:57.934Z</time></trkpt><trkpt lat="37.8870077" lon="13.800612"><ele>342.0</ele><time>2026-05-01T09:25:58.934Z</time></trkpt><trkpt lat="37.8869888" lon="13.8008067"><ele>342.0</ele><time>2026-05-01T09:25:59.935Z</time></trkpt><trkpt lat="37.8869579" lon="13.8010658"><ele>342.0</ele><time>2026-05-01T09:26:00.934Z</time></trkpt><trkpt lat="37.88693" lon="13.8013324"><ele>342.6666666666667</ele><time>2026-05-01T09:26:01.935Z</time></trkpt><trkpt lat="37.8869238" lon="13.8015813"><ele>343.33333333333337</ele><time>2026-05-01T09:26:02.935Z</time></trkpt><trkpt lat="37.8869407" lon="13.8018381"><ele>344.0</ele><time>2026-05-01T09:26:03.934Z</time></trkpt><trkpt lat="37.8869959" lon="13.8020793"><ele>346.6666666666667</ele><time>2026-05-01T09:26:04.935Z</time></trkpt><trkpt lat="37.8870631" lon="13.8022805"><ele>349.3333333333333</ele><time>2026-05-01T09:26:05.935Z</time></trkpt><trkpt lat="37.8871334" lon="13.8024427"><ele>352.0</ele><time>2026-05-01T09:26:06.934Z</time></trkpt><trkpt lat="37.8872416" lon="13.8025675"><ele>352.0</ele><time>2026-05-01T09:26:07.935Z</time></trkpt><trkpt lat="37.8873849" lon="13.8026535"><ele>352.0</ele><time>2026-05-01T09:26:08.935Z</time></trkpt><trkpt lat="37.887576" lon="13.8027106"><ele>352.0</ele><time>2026-05-01T09:26:09.934Z</time></trkpt><trkpt lat="37.8878075" lon="13.8027602"><ele>354.5</ele><time>2026-05-01T09:26:10.934Z</time></trkpt><trkpt lat="37.888072" lon="13.802818"><ele>357.0</ele><time>2026-05-01T09:26:11.934Z</time></trkpt><trkpt lat="37.8883363" lon="13.8028772"><ele>354.3333333333333</ele><time>2026-05-01T09:26:12.935Z</time></trkpt><trkpt lat="37.8885627" lon="13.8029365"><ele>351.66666666666663</ele><time>2026-05-01T09:26:13.934Z</time></trkpt><trkpt lat="37.8887631" lon="13.8029807"><ele>349.0</ele><time>2026-05-01T09:26:14.934Z</time></trkpt><trkpt lat="37.8889275" lon="13.8030383"><ele>349.0</ele><time>2026-05-01T09:26:15.935Z</time></trkpt><trkpt lat="37.8890697" lon="13.8031149"><ele>349.0</ele><time>2026-05-01T09:26:16.935Z</time></trkpt><trkpt lat="37.8891862" lon="13.803239"><ele>349.0</ele><time>2026-05-01T09:26:17.935Z</time></trkpt><trkpt lat="37.889289" lon="13.8034105"><ele>347.66666666666663</ele><time>2026-05-01T09:26:18.934Z</time></trkpt><trkpt lat="37.8893757" lon="13.8036222"><ele>346.3333333333333</ele><time>2026-05-01T09:26:19.934Z</time></trkpt><trkpt lat="37.8894739" lon="13.8038128"><ele>345.0</ele><time>2026-05-01T09:26:20.935Z</time></trkpt><trkpt lat="37.8896175" lon="13.803976"><ele>345.0</ele><time>2026-05-01T09:26:21.935Z</time></trkpt><trkpt lat="37.8897936" lon="13.8041011"><ele>345.0</ele><time>2026-05-01T09:26:22.934Z</time></trkpt><trkpt lat="37.8899322" lon="13.8042013"><ele>345.0</ele><time>2026-05-01T09:26:23.934Z</time></trkpt><trkpt lat="37.8900438" lon="13.8043232"><ele>343.6666666666667</ele><time>2026-05-01T09:26:24.934Z</time></trkpt><trkpt lat="37.8901209" lon="13.8045051"><ele>342.33333333333337</ele><time>2026-05-01T09:26:25.934Z</time></trkpt><trkpt lat="37.8901767" lon="13.8046937"><ele>341.0</ele><time>2026-05-01T09:26:26.934Z</time></trkpt><trkpt lat="37.8902577" lon="13.8048526"><ele>341.0</ele><time>2026-05-01T09:26:27.935Z</time></trkpt><trkpt lat="37.8903949" lon="13.8049814"><ele>341.0</ele><time>2026-05-01T09:26:28.935Z</time></trkpt><trkpt lat="37.8905934" lon="13.8050764"><ele>341.0</ele><time>2026-05-01T09:26:29.935Z</time></trkpt><trkpt lat="37.8908115" lon="13.8051672"><ele>339.6666666666667</ele><time>2026-05-01T09:26:30.934Z</time></trkpt><trkpt lat="37.890975" lon="13.8052601"><ele>338.3333333333333</ele><time>2026-05-01T09:26:31.934Z</time></trkpt><trkpt lat="37.8910928" lon="13.8053554"><ele>337.0</ele><time>2026-05-01T09:26:32.935Z</time></trkpt><trkpt lat="37.8911826" lon="13.8054868"><ele>337.0</ele><time>2026-05-01T09:26:33.934Z</time></trkpt><trkpt lat="37.8912391" lon="13.8056728"><ele>337.0</ele><time>2026-05-01T09:26:34.934Z</time></trkpt><trkpt lat="37.8912623" lon="13.8058512"><ele>337.0</ele><time>2026-05-01T09:26:35.934Z</time></trkpt><trkpt lat="37.8913108" lon="13.8059785"><ele>337.0</ele><time>2026-05-01T09:26:36.935Z</time></trkpt><trkpt lat="37.8913925" lon="13.8060795"><ele>336.0</ele><time>2026-05-01T09:26:37.935Z</time></trkpt><trkpt lat="37.8915041" lon="13.8061343"><ele>335.0</ele><time>2026-05-01T09:26:38.935Z</time></trkpt><trkpt lat="37.8916581" lon="13.8061796"><ele>334.0</ele><time>2026-05-01T09:26:39.934Z</time></trkpt><trkpt lat="37.8918237" lon="13.8062233"><ele>333.0</ele><time>2026-05-01T09:26:40.935Z</time></trkpt><trkpt lat="37.891971" lon="13.8063143"><ele>333.0</ele><time>2026-05-01T09:26:41.935Z</time></trkpt><trkpt lat="37.8920993" lon="13.8064863"><ele>333.0</ele><time>2026-05-01T09:26:42.934Z</time></trkpt><trkpt lat="37.8922273" lon="13.8067155"><ele>333.0</ele><time>2026-05-01T09:26:43.934Z</time></trkpt><trkpt lat="37.8923462" lon="13.8069514"><ele>333.0</ele><time>2026-05-01T09:26:44.935Z</time></trkpt><trkpt lat="37.8924489" lon="13.8071539"><ele>333.0</ele><time>2026-05-01T09:26:45.934Z</time></trkpt><trkpt lat="37.892546" lon="13.807316"><ele>333.0</ele><time>2026-05-01T09:26:46.934Z</time></trkpt><trkpt lat="37.892654" lon="13.8074367"><ele>333.0</ele><time>2026-05-01T09:26:47.934Z</time></trkpt><trkpt lat="37.892789" lon="13.8075261"><ele>333.0</ele><time>2026-05-01T09:26:48.934Z</time></trkpt><trkpt lat="37.8929738" lon="13.8075406"><ele>333.0</ele><time>2026-05-01T09:26:49.934Z</time></trkpt><trkpt lat="37.8931588" lon="13.8075142"><ele>333.0</ele><time>2026-05-01T09:26:50.934Z</time></trkpt><trkpt lat="37.8933185" lon="13.8075027"><ele>333.0</ele><time>2026-05-01T09:26:51.935Z</time></trkpt><trkpt lat="37.8934602" lon="13.8075141"><ele>333.0</ele><time>2026-05-01T09:26:52.934Z</time></trkpt><trkpt lat="37.893572" lon="13.8075609"><ele>333.0</ele><time>2026-05-01T09:26:53.934Z</time></trkpt><trkpt lat="37.8936577" lon="13.807644"><ele>329.5</ele><time>2026-05-01T09:26:54.935Z</time></trkpt><trkpt lat="37.8937051" lon="13.8077755"><ele>326.0</ele><time>2026-05-01T09:26:55.934Z</time></trkpt><trkpt lat="37.8937075" lon="13.8079522"><ele>322.5</ele><time>2026-05-01T09:26:56.935Z</time></trkpt><trkpt lat="37.8936747" lon="13.8081654"><ele>319.0</ele><time>2026-05-01T09:26:57.934Z</time></trkpt><trkpt lat="37.8936305" lon="13.8084134"><ele>318.3333333333333</ele><time>2026-05-01T09:26:58.934Z</time></trkpt><trkpt lat="37.8935831" lon="13.8086663"><ele>317.6666666666667</ele><time>2026-05-01T09:26:59.935Z</time></trkpt><trkpt lat="37.8935424" lon="13.8088965"><ele>317.0</ele><time>2026-05-01T09:27:00.934Z</time></trkpt><trkpt lat="37.8935076" lon="13.8090853"><ele>317.0</ele><time>2026-05-01T09:27:01.935Z</time></trkpt><trkpt lat="37.8935096" lon="13.8092433"><ele>317.0</ele><time>2026-05-01T09:27:02.935Z</time></trkpt><trkpt lat="37.8935328" lon="13.8093461"><ele>317.0</ele><time>2026-05-01T09:27:03.934Z</time></trkpt><trkpt lat="37.8935711" lon="13.8094359"><ele>317.0</ele><time>2026-05-01T09:27:04.934Z</time></trkpt><trkpt lat="37.8936493" lon="13.8095502"><ele>317.0</ele><time>2026-05-01T09:27:05.935Z</time></trkpt><trkpt lat="37.8937426" lon="13.8096746"><ele>319.6666666666667</ele><time>2026-05-01T09:27:06.934Z</time></trkpt><trkpt lat="37.8938415" lon="13.8098244"><ele>322.3333333333333</ele><time>2026-05-01T09:27:07.934Z</time></trkpt><trkpt lat="37.8939535" lon="13.8099672"><ele>325.0</ele><time>2026-05-01T09:27:08.934Z</time></trkpt><trkpt lat="37.8940719" lon="13.8100964"><ele>324.66666666666663</ele><time>2026-05-01T09:27:09.934Z</time></trkpt><trkpt lat="37.8942147" lon="13.8101926"><ele>324.3333333333333</ele><time>2026-05-01T09:27:10.935Z</time></trkpt><trkpt lat="37.8943826" lon="13.8102589"><ele>324.0</ele><time>2026-05-01T09:27:11.935Z</time></trkpt><trkpt lat="37.8945849" lon="13.8102944"><ele>324.0</ele><time>2026-05-01T09:27:12.934Z</time></trkpt><trkpt lat="37.8947963" lon="13.8103067"><ele>324.0</ele><time>2026-05-01T09:27:13.935Z</time></trkpt><trkpt lat="37.8949691" lon="13.8103183"><ele>324.0</ele><time>2026-05-01T09:27:14.934Z</time></trkpt><trkpt lat="37.8951125" lon="13.8103566"><ele>320.3333333333333</ele><time>2026-05-01T09:27:15.934Z</time></trkpt><trkpt lat="37.8952345" lon="13.810425"><ele>316.66666666666663</ele><time>2026-05-01T09:27:16.935Z</time></trkpt><trkpt lat="37.8953541" lon="13.8105559"><ele>313.0</ele><time>2026-05-01T09:27:17.934Z</time></trkpt><trkpt lat="37.8954927" lon="13.810722"><ele>313.0</ele><time>2026-05-01T09:27:18.934Z</time></trkpt><trkpt lat="37.8956408" lon="13.8108833"><ele>313.0</ele><time>2026-05-01T09:27:19.934Z</time></trkpt><trkpt lat="37.8957972" lon="13.8110458"><ele>313.0</ele><time>2026-05-01T09:27:20.934Z</time></trkpt><trkpt lat="37.8959547" lon="13.8112126"><ele>311.3333333333333</ele><time>2026-05-01T09:27:21.935Z</time></trkpt><trkpt lat="37.8961101" lon="13.8113778"><ele>309.6666666666667</ele><time>2026-05-01T09:27:22.935Z</time></trkpt><trkpt lat="37.8962653" lon="13.8115425"><ele>308.0</ele><time>2026-05-01T09:27:23.934Z</time></trkpt><trkpt lat="37.896422" lon="13.8117093"><ele>306.0</ele><time>2026-05-01T09:27:24.935Z</time></trkpt><trkpt lat="37.8965873" lon="13.8118699"><ele>304.0</ele><time>2026-05-01T09:27:25.934Z</time></trkpt><trkpt lat="37.8967579" lon="13.8120182"><ele>302.0</ele><time>2026-05-01T09:27:26.934Z</time></trkpt><trkpt lat="37.8969289" lon="13.8121433"><ele>302.0</ele><time>2026-05-01T09:27:27.935Z</time></trkpt><trkpt lat="37.8970923" lon="13.8122583"><ele>302.0</ele><time>2026-05-01T09:27:28.934Z</time></trkpt><trkpt lat="37.8972522" lon="13.8123694"><ele>302.0</ele><time>2026-05-01T09:27:29.934Z</time></trkpt><trkpt lat="37.8973964" lon="13.8124865"><ele>302.0</ele><time>2026-05-01T09:27:30.934Z</time></trkpt><trkpt lat="37.8975298" lon="13.8126202"><ele>302.0</ele><time>2026-05-01T09:27:31.935Z</time></trkpt><trkpt lat="37.897639" lon="13.8127848"><ele>302.0</ele><time>2026-05-01T09:27:32.935Z</time></trkpt><trkpt lat="37.8977365" lon="13.812976"><ele>300.0</ele><time>2026-05-01T09:27:33.934Z</time></trkpt><trkpt lat="37.8978395" lon="13.8131515"><ele>298.0</ele><time>2026-05-01T09:27:34.935Z</time></trkpt><trkpt lat="37.8979553" lon="13.813317"><ele>296.0</ele><time>2026-05-01T09:27:35.934Z</time></trkpt><trkpt lat="37.8981046" lon="13.813455"><ele>298.0</ele><time>2026-05-01T09:27:36.934Z</time></trkpt><trkpt lat="37.8982812" lon="13.8135727"><ele>300.0</ele><time>2026-05-01T09:27:37.934Z</time></trkpt><trkpt lat="37.898455" lon="13.8136648"><ele>302.0</ele><time>2026-05-01T09:27:38.935Z</time></trkpt><trkpt lat="37.8986107" lon="13.8137602"><ele>298.0</ele><time>2026-05-01T09:27:39.935Z</time></trkpt><trkpt lat="37.8987492" lon="13.8138869"><ele>294.0</ele><time>2026-05-01T09:27:40.935Z</time></trkpt><trkpt lat="37.8988697" lon="13.8140486"><ele>290.0</ele><time>2026-05-01T09:27:41.934Z</time></trkpt><trkpt lat="37.8989696" lon="13.8142452"><ele>290.33333333333337</ele><time>2026-05-01T09:27:42.934Z</time></trkpt><trkpt lat="37.8990661" lon="13.8144486"><ele>290.6666666666667</ele><time>2026-05-01T09:27:43.935Z</time></trkpt><trkpt lat="37.8991582" lon="13.8146497"><ele>291.0</ele><time>2026-05-01T09:27:44.934Z</time></trkpt><trkpt lat="37.899248" lon="13.8148451"><ele>288.0</ele><time>2026-05-01T09:27:45.934Z</time></trkpt><trkpt lat="37.8993602" lon="13.8150403"><ele>285.0</ele><time>2026-05-01T09:27:46.935Z</time></trkpt><trkpt lat="37.8994966" lon="13.815236"><ele>282.0</ele><time>2026-05-01T09:27:47.935Z</time></trkpt><trkpt lat="37.899652" lon="13.8154199"><ele>282.0</ele><time>2026-05-01T09:27:48.935Z</time></trkpt><trkpt lat="37.8997915" lon="13.8155898"><ele>282.0</ele><time>2026-05-01T09:27:49.934Z</time></trkpt><trkpt lat="37.8999083" lon="13.8157636"><ele>282.0</ele><time>2026-05-01T09:27:50.934Z</time></trkpt><trkpt lat="37.9000074" lon="13.8159597"><ele>283.6666666666667</ele><time>2026-05-01T09:27:51.934Z</time></trkpt><trkpt lat="37.9000944" lon="13.8161693"><ele>285.33333333333337</ele><time>2026-05-01T09:27:52.935Z</time></trkpt><trkpt lat="37.9001756" lon="13.8163818"><ele>287.0</ele><time>2026-05-01T09:27:53.935Z</time></trkpt><trkpt lat="37.9002529" lon="13.8165663"><ele>287.0</ele><time>2026-05-01T09:27:54.935Z</time></trkpt><trkpt lat="37.9003428" lon="13.8167114"><ele>287.0</ele><time>2026-05-01T09:27:55.934Z</time></trkpt><trkpt lat="37.9004501" lon="13.8168133"><ele>287.0</ele><time>2026-05-01T09:27:56.934Z</time></trkpt><trkpt lat="37.9005518" lon="13.8168564"><ele>287.0</ele><time>2026-05-01T09:27:57.935Z</time></trkpt><trkpt lat="37.9006411" lon="13.8168639"><ele>287.0</ele><time>2026-05-01T09:27:58.935Z</time></trkpt><trkpt lat="37.9007197" lon="13.8168371"><ele>287.0</ele><time>2026-05-01T09:27:59.935Z</time></trkpt><trkpt lat="37.9007853" lon="13.8167633"><ele>287.0</ele><time>2026-05-01T09:28:00.934Z</time></trkpt><trkpt lat="37.9008384" lon="13.8166492"><ele>287.0</ele><time>2026-05-01T09:28:01.935Z</time></trkpt><trkpt lat="37.900876" lon="13.8164984"><ele>287.0</ele><time>2026-05-01T09:28:02.934Z</time></trkpt><trkpt lat="37.9009135" lon="13.8163429"><ele>286.0</ele><time>2026-05-01T09:28:03.934Z</time></trkpt><trkpt lat="37.9009878" lon="13.816204"><ele>285.0</ele><time>2026-05-01T09:28:04.934Z</time></trkpt><trkpt lat="37.9010963" lon="13.816085"><ele>284.0</ele><time>2026-05-01T09:28:05.935Z</time></trkpt><trkpt lat="37.9012219" lon="13.8159933"><ele>283.0</ele><time>2026-05-01T09:28:06.935Z</time></trkpt><trkpt lat="37.9013556" lon="13.8159202"><ele>283.0</ele><time>2026-05-01T09:28:07.934Z</time></trkpt><trkpt lat="37.9014862" lon="13.8158638"><ele>283.0</ele><time>2026-05-01T09:28:08.934Z</time></trkpt><trkpt lat="37.901608" lon="13.8158126"><ele>283.0</ele><time>2026-05-01T09:28:09.934Z</time></trkpt><trkpt lat="37.9017258" lon="13.8157663"><ele>283.0</ele><time>2026-05-01T09:28:10.935Z</time></trkpt><trkpt lat="37.901835" lon="13.815719"><ele>283.0</ele><time>2026-05-01T09:28:11.934Z</time></trkpt><trkpt lat="37.9019465" lon="13.8156754"><ele>283.0</ele><time>2026-05-01T09:28:12.934Z</time></trkpt><trkpt lat="37.9020641" lon="13.815619"><ele>283.0</ele><time>2026-05-01T09:28:13.935Z</time></trkpt><trkpt lat="37.9021897" lon="13.8155639"><ele>283.0</ele><time>2026-05-01T09:28:14.934Z</time></trkpt><trkpt lat="37.902312" lon="13.8155008"><ele>283.0</ele><time>2026-05-01T09:28:15.934Z</time></trkpt><trkpt lat="37.9024343" lon="13.8154411"><ele>283.0</ele><time>2026-05-01T09:28:16.935Z</time></trkpt><trkpt lat="37.9025593" lon="13.8153861"><ele>283.0</ele><time>2026-05-01T09:28:17.934Z</time></trkpt><trkpt lat="37.9026796" lon="13.8153488"><ele>283.0</ele><time>2026-05-01T09:28:18.934Z</time></trkpt><trkpt lat="37.9027792" lon="13.8153071"><ele>283.0</ele><time>2026-05-01T09:28:19.935Z</time></trkpt><trkpt lat="37.9028522" lon="13.8152938"><ele>283.0</ele><time>2026-05-01T09:28:20.935Z</time></trkpt><trkpt lat="37.9029182" lon="13.8152619"><ele>283.0</ele><time>2026-05-01T09:28:23.934Z</time></trkpt><trkpt lat="37.9029857" lon="13.8152292"><ele>283.0</ele><time>2026-05-01T09:28:26.934Z</time></trkpt><trkpt lat="37.9030439" lon="13.8151965"><ele>283.0</ele><time>2026-05-01T09:28:27.934Z</time></trkpt><trkpt lat="37.9031159" lon="13.8151648"><ele>283.0</ele><time>2026-05-01T09:28:28.935Z</time></trkpt><trkpt lat="37.9031927" lon="13.8151308"><ele>283.0</ele><time>2026-05-01T09:28:29.934Z</time></trkpt><trkpt lat="37.9032739" lon="13.8150915"><ele>281.6</ele><time>2026-05-01T09:28:30.935Z</time></trkpt><trkpt lat="37.9033474" lon="13.8150644"><ele>280.20000000000005</ele><time>2026-05-01T09:28:31.934Z</time></trkpt><trkpt lat="37.9034569" lon="13.8150236"><ele>278.8</ele><time>2026-05-01T09:28:33.935Z</time></trkpt><trkpt lat="37.9035384" lon="13.8149933"><ele>277.40000000000003</ele><time>2026-05-01T09:28:35.934Z</time></trkpt><trkpt lat="37.903622" lon="13.814946"><ele>276.0</ele><time>2026-05-01T09:28:37.934Z</time></trkpt><trkpt lat="37.9037053" lon="13.8149128"><ele>276.0</ele><time>2026-05-01T09:28:39.934Z</time></trkpt><trkpt lat="37.9037676" lon="13.8148766"><ele>276.0</ele><time>2026-05-01T09:28:41.935Z</time></trkpt><trkpt lat="37.9038566" lon="13.8148227"><ele>276.0</ele><time>2026-05-01T09:28:44.935Z</time></trkpt><trkpt lat="37.9039486" lon="13.8147741"><ele>276.0</ele><time>2026-05-01T09:28:46.935Z</time></trkpt><trkpt lat="37.9040314" lon="13.8147429"><ele>276.0</ele><time>2026-05-01T09:28:48.935Z</time></trkpt><trkpt lat="37.9040989" lon="13.8147086"><ele>276.0</ele><time>2026-05-01T09:28:50.934Z</time></trkpt><trkpt lat="37.904166" lon="13.8146854"><ele>276.0</ele><time>2026-05-01T09:28:52.935Z</time></trkpt><trkpt lat="37.9042329" lon="13.8146523"><ele>276.0</ele><time>2026-05-01T09:28:54.934Z</time></trkpt><trkpt lat="37.9043351" lon="13.8145948"><ele>276.0</ele><time>2026-05-01T09:28:56.935Z</time></trkpt><trkpt lat="37.9044391" lon="13.8145658"><ele>276.0</ele><time>2026-05-01T09:28:58.934Z</time></trkpt><trkpt lat="37.9045044" lon="13.8145371"><ele>276.0</ele><time>2026-05-01T09:29:00.934Z</time></trkpt><trkpt lat="37.9045858" lon="13.8145061"><ele>276.0</ele><time>2026-05-01T09:29:03.934Z</time></trkpt><trkpt lat="37.9046696" lon="13.814454"><ele>275.5</ele><time>2026-05-01T09:29:05.935Z</time></trkpt><trkpt lat="37.9047545" lon="13.8144141"><ele>275.0</ele><time>2026-05-01T09:29:06.934Z</time></trkpt><trkpt lat="37.9048532" lon="13.8143698"><ele>274.5</ele><time>2026-05-01T09:29:07.934Z</time></trkpt><trkpt lat="37.904946" lon="13.8143404"><ele>274.0</ele><time>2026-05-01T09:29:08.934Z</time></trkpt><trkpt lat="37.9050257" lon="13.8143123"><ele>273.5</ele><time>2026-05-01T09:29:09.934Z</time></trkpt><trkpt lat="37.9050957" lon="13.8142802"><ele>273.0</ele><time>2026-05-01T09:29:10.934Z</time></trkpt><trkpt lat="37.9051591" lon="13.814255"><ele>273.0</ele><time>2026-05-01T09:29:11.934Z</time></trkpt><trkpt lat="37.9052681" lon="13.814197"><ele>273.0</ele><time>2026-05-01T09:29:13.934Z</time></trkpt><trkpt lat="37.9053286" lon="13.8141646"><ele>273.0</ele><time>2026-05-01T09:29:14.934Z</time></trkpt><trkpt lat="37.9054388" lon="13.8141148"><ele>273.0</ele><time>2026-05-01T09:29:16.934Z</time></trkpt><trkpt lat="37.9055367" lon="13.8140632"><ele>273.0</ele><time>2026-05-01T09:29:18.934Z</time></trkpt><trkpt lat="37.9056484" lon="13.814006"><ele>273.0</ele><time>2026-05-01T09:29:20.934Z</time></trkpt><trkpt lat="37.9057071" lon="13.8139761"><ele>273.0</ele><time>2026-05-01T09:29:21.934Z</time></trkpt><trkpt lat="37.9057667" lon="13.8139468"><ele>273.0</ele><time>2026-05-01T09:29:22.934Z</time></trkpt><trkpt lat="37.905827" lon="13.813921"><ele>273.0</ele><time>2026-05-01T09:29:23.934Z</time></trkpt><trkpt lat="37.9058921" lon="13.8138897"><ele>273.0</ele><time>2026-05-01T09:29:24.934Z</time></trkpt><trkpt lat="37.9059558" lon="13.8138552"><ele>273.0</ele><time>2026-05-01T09:29:25.934Z</time></trkpt><trkpt lat="37.9060144" lon="13.8138238"><ele>273.0</ele><time>2026-05-01T09:29:26.934Z</time></trkpt><trkpt lat="37.9061299" lon="13.813757"><ele>272.5</ele><time>2026-05-01T09:29:28.935Z</time></trkpt><trkpt lat="37.9061919" lon="13.8137293"><ele>272.0</ele><time>2026-05-01T09:29:29.934Z</time></trkpt><trkpt lat="37.9062979" lon="13.8136752"><ele>271.5</ele><time>2026-05-01T09:29:31.934Z</time></trkpt><trkpt lat="37.9063574" lon="13.8136445"><ele>271.0</ele><time>2026-05-01T09:29:32.935Z</time></trkpt><trkpt lat="37.9064176" lon="13.813607"><ele>270.5</ele><time>2026-05-01T09:29:33.935Z</time></trkpt><trkpt lat="37.9065291" lon="13.8135416"><ele>270.0</ele><time>2026-05-01T09:29:35.934Z</time></trkpt><trkpt lat="37.9066406" lon="13.8134767"><ele>269.3333333333333</ele><time>2026-05-01T09:29:37.934Z</time></trkpt><trkpt lat="37.90675" lon="13.8134004"><ele>268.6666666666667</ele><time>2026-05-01T09:29:39.934Z</time></trkpt><trkpt lat="37.9068087" lon="13.8133644"><ele>268.0</ele><time>2026-05-01T09:29:40.934Z</time></trkpt><trkpt lat="37.9068727" lon="13.8133256"><ele>267.33333333333337</ele><time>2026-05-01T09:29:41.934Z</time></trkpt><trkpt lat="37.9069309" lon="13.8132846"><ele>266.6666666666667</ele><time>2026-05-01T09:29:42.934Z</time></trkpt><trkpt lat="37.9070376" lon="13.8132276"><ele>266.0</ele><time>2026-05-01T09:29:44.935Z</time></trkpt><trkpt lat="37.9071528" lon="13.8131555"><ele>266.0</ele><time>2026-05-01T09:29:46.935Z</time></trkpt><trkpt lat="37.9072155" lon="13.8131133"><ele>266.0</ele><time>2026-05-01T09:29:47.935Z</time></trkpt><trkpt lat="37.9072782" lon="13.8130789"><ele>266.0</ele><time>2026-05-01T09:29:48.935Z</time></trkpt><trkpt lat="37.9073435" lon="13.8130433"><ele>266.0</ele><time>2026-05-01T09:29:49.935Z</time></trkpt><trkpt lat="37.9074457" lon="13.81298"><ele>266.0</ele><time>2026-05-01T09:29:51.935Z</time></trkpt><trkpt lat="37.907547" lon="13.8128898"><ele>266.0</ele><time>2026-05-01T09:29:53.934Z</time></trkpt><trkpt lat="37.9075931" lon="13.8128282"><ele>265.5</ele><time>2026-05-01T09:29:54.935Z</time></trkpt><trkpt lat="37.9076276" lon="13.8126821"><ele>265.0</ele><time>2026-05-01T09:29:56.934Z</time></trkpt><trkpt lat="37.9076223" lon="13.8125214"><ele>264.5</ele><time>2026-05-01T09:29:58.935Z</time></trkpt><trkpt lat="37.9076165" lon="13.8123718"><ele>264.0</ele><time>2026-05-01T09:30:00.934Z</time></trkpt><trkpt lat="37.9076273" lon="13.812216"><ele>264.0</ele><time>2026-05-01T09:30:02.934Z</time></trkpt><trkpt lat="37.9076414" lon="13.8121364"><ele>264.0</ele><time>2026-05-01T09:30:03.934Z</time></trkpt><trkpt lat="37.9076754" lon="13.8119988"><ele>264.0</ele><time>2026-05-01T09:30:05.935Z</time></trkpt><trkpt lat="37.907707" lon="13.8119277"><ele>264.0</ele><time>2026-05-01T09:30:06.934Z</time></trkpt><trkpt lat="37.9077624" lon="13.8118073"><ele>264.0</ele><time>2026-05-01T09:30:08.935Z</time></trkpt><trkpt lat="37.9078066" lon="13.811723"><ele>264.0</ele><time>2026-05-01T09:30:10.935Z</time></trkpt><trkpt lat="37.9078467" lon="13.8116444"><ele>262.6666666666667</ele><time>2026-05-01T09:30:12.934Z</time></trkpt><trkpt lat="37.9078818" lon="13.8115593"><ele>261.3333333333333</ele><time>2026-05-01T09:30:19.934Z</time></trkpt><trkpt lat="37.9079118" lon="13.8114811"><ele>260.0</ele><time>2026-05-01T09:30:21.935Z</time></trkpt><trkpt lat="37.9079417" lon="13.8113706"><ele>258.66666666666663</ele><time>2026-05-01T09:30:23.934Z</time></trkpt><trkpt lat="37.9079668" lon="13.8112789"><ele>257.3333333333333</ele><time>2026-05-01T09:30:24.934Z</time></trkpt><trkpt lat="37.908006" lon="13.8111849"><ele>256.0</ele><time>2026-05-01T09:30:25.934Z</time></trkpt><trkpt lat="37.9080546" lon="13.8110815"><ele>254.83333333333331</ele><time>2026-05-01T09:30:26.934Z</time></trkpt><trkpt lat="37.9080916" lon="13.810979"><ele>253.66666666666666</ele><time>2026-05-01T09:30:27.935Z</time></trkpt><trkpt lat="37.9081212" lon="13.8108992"><ele>252.5</ele><time>2026-05-01T09:30:28.935Z</time></trkpt><trkpt lat="37.9081714" lon="13.8107754"><ele>251.33333333333331</ele><time>2026-05-01T09:30:30.934Z</time></trkpt><trkpt lat="37.9082065" lon="13.810707"><ele>250.16666666666666</ele><time>2026-05-01T09:30:32.935Z</time></trkpt><trkpt lat="37.9082564" lon="13.8105991"><ele>249.0</ele><time>2026-05-01T09:30:34.934Z</time></trkpt><trkpt lat="37.9083076" lon="13.8105143"><ele>249.0</ele><time>2026-05-01T09:30:35.934Z</time></trkpt><trkpt lat="37.9083889" lon="13.8104288"><ele>249.0</ele><time>2026-05-01T09:30:36.934Z</time></trkpt><trkpt lat="37.9084959" lon="13.810343"><ele>249.0</ele><time>2026-05-01T09:30:37.934Z</time></trkpt><trkpt lat="37.9086155" lon="13.8102665"><ele>249.0</ele><time>2026-05-01T09:30:38.934Z</time></trkpt><trkpt lat="37.9087388" lon="13.8102097"><ele>250.33333333333331</ele><time>2026-05-01T09:30:39.934Z</time></trkpt><trkpt lat="37.9088702" lon="13.810176"><ele>251.66666666666666</ele><time>2026-05-01T09:30:40.934Z</time></trkpt><trkpt lat="37.9090226" lon="13.8101698"><ele>253.0</ele><time>2026-05-01T09:30:41.935Z</time></trkpt><trkpt lat="37.9091897" lon="13.8101844"><ele>250.33333333333331</ele><time>2026-05-01T09:30:42.934Z</time></trkpt><trkpt lat="37.9093589" lon="13.8101901"><ele>247.66666666666669</ele><time>2026-05-01T09:30:43.935Z</time></trkpt><trkpt lat="37.909521" lon="13.8101739"><ele>245.0</ele><time>2026-05-01T09:30:44.935Z</time></trkpt><trkpt lat="37.9096816" lon="13.8101315"><ele>244.33333333333334</ele><time>2026-05-01T09:30:45.935Z</time></trkpt><trkpt lat="37.9098418" lon="13.8100548"><ele>243.66666666666669</ele><time>2026-05-01T09:30:46.934Z</time></trkpt><trkpt lat="37.9099944" lon="13.8099651"><ele>243.0</ele><time>2026-05-01T09:30:47.935Z</time></trkpt><trkpt lat="37.9101269" lon="13.8098846"><ele>243.0</ele><time>2026-05-01T09:30:48.935Z</time></trkpt><trkpt lat="37.9102379" lon="13.8098093"><ele>243.0</ele><time>2026-05-01T09:30:49.935Z</time></trkpt><trkpt lat="37.9103145" lon="13.8097303"><ele>243.0</ele><time>2026-05-01T09:30:50.935Z</time></trkpt><trkpt lat="37.9103602" lon="13.8096378"><ele>243.0</ele><time>2026-05-01T09:30:51.934Z</time></trkpt><trkpt lat="37.9103889" lon="13.8094761"><ele>243.0</ele><time>2026-05-01T09:30:52.935Z</time></trkpt><trkpt lat="37.9104069" lon="13.8092726"><ele>241.66666666666669</ele><time>2026-05-01T09:30:53.935Z</time></trkpt><trkpt lat="37.9104164" lon="13.8090515"><ele>240.33333333333334</ele><time>2026-05-01T09:30:54.935Z</time></trkpt><trkpt lat="37.9104302" lon="13.8088448"><ele>239.0</ele><time>2026-05-01T09:30:55.935Z</time></trkpt><trkpt lat="37.9104817" lon="13.8086536"><ele>238.0</ele><time>2026-05-01T09:30:56.934Z</time></trkpt><trkpt lat="37.9105764" lon="13.8084675"><ele>237.0</ele><time>2026-05-01T09:30:57.934Z</time></trkpt><trkpt lat="37.9107025" lon="13.8082724"><ele>236.0</ele><time>2026-05-01T09:30:58.934Z</time></trkpt><trkpt lat="37.9108311" lon="13.8080713"><ele>237.0</ele><time>2026-05-01T09:30:59.935Z</time></trkpt><trkpt lat="37.9109492" lon="13.8078782"><ele>238.0</ele><time>2026-05-01T09:31:00.934Z</time></trkpt><trkpt lat="37.911057" lon="13.8077059"><ele>239.0</ele><time>2026-05-01T09:31:01.935Z</time></trkpt><trkpt lat="37.9111622" lon="13.8075376"><ele>235.66666666666669</ele><time>2026-05-01T09:31:02.934Z</time></trkpt><trkpt lat="37.9112627" lon="13.8073911"><ele>232.33333333333331</ele><time>2026-05-01T09:31:03.935Z</time></trkpt><trkpt lat="37.9113896" lon="13.8072781"><ele>229.0</ele><time>2026-05-01T09:31:04.934Z</time></trkpt><trkpt lat="37.9115438" lon="13.8071913"><ele>229.0</ele><time>2026-05-01T09:31:05.934Z</time></trkpt><trkpt lat="37.9117174" lon="13.8071523"><ele>229.0</ele><time>2026-05-01T09:31:06.934Z</time></trkpt><trkpt lat="37.9118796" lon="13.8071359"><ele>229.0</ele><time>2026-05-01T09:31:07.934Z</time></trkpt><trkpt lat="37.9120248" lon="13.8071143"><ele>228.75</ele><time>2026-05-01T09:31:08.935Z</time></trkpt><trkpt lat="37.9121624" lon="13.8070838"><ele>228.5</ele><time>2026-05-01T09:31:09.934Z</time></trkpt><trkpt lat="37.912294" lon="13.8070474"><ele>228.25</ele><time>2026-05-01T09:31:10.935Z</time></trkpt><trkpt lat="37.9124143" lon="13.8070099"><ele>228.0</ele><time>2026-05-01T09:31:11.934Z</time></trkpt><trkpt lat="37.9125322" lon="13.8069697"><ele>228.75</ele><time>2026-05-01T09:31:12.935Z</time></trkpt><trkpt lat="37.9126478" lon="13.8069322"><ele>229.5</ele><time>2026-05-01T09:31:13.935Z</time></trkpt><trkpt lat="37.9127579" lon="13.8068809"><ele>230.25</ele><time>2026-05-01T09:31:14.935Z</time></trkpt><trkpt lat="37.9128631" lon="13.8067962"><ele>231.0</ele><time>2026-05-01T09:31:15.935Z</time></trkpt><trkpt lat="37.9129427" lon="13.8066786"><ele>228.5</ele><time>2026-05-01T09:31:16.935Z</time></trkpt><trkpt lat="37.9130196" lon="13.8065574"><ele>226.0</ele><time>2026-05-01T09:31:17.934Z</time></trkpt><trkpt lat="37.9131039" lon="13.8064491"><ele>223.5</ele><time>2026-05-01T09:31:18.934Z</time></trkpt><trkpt lat="37.9131867" lon="13.806337"><ele>221.0</ele><time>2026-05-01T09:31:19.934Z</time></trkpt><trkpt lat="37.913284" lon="13.8062164"><ele>221.0</ele><time>2026-05-01T09:31:20.934Z</time></trkpt><trkpt lat="37.9133902" lon="13.8061102"><ele>221.0</ele><time>2026-05-01T09:31:21.934Z</time></trkpt><trkpt lat="37.9134955" lon="13.8060048"><ele>221.0</ele><time>2026-05-01T09:31:22.935Z</time></trkpt><trkpt lat="37.913589" lon="13.8058985"><ele>221.0</ele><time>2026-05-01T09:31:23.935Z</time></trkpt><trkpt lat="37.9136742" lon="13.8057891"><ele>221.0</ele><time>2026-05-01T09:31:24.934Z</time></trkpt><trkpt lat="37.913745" lon="13.8056606"><ele>221.0</ele><time>2026-05-01T09:31:25.934Z</time></trkpt><trkpt lat="37.9137968" lon="13.8055233"><ele>221.0</ele><time>2026-05-01T09:31:26.934Z</time></trkpt><trkpt lat="37.9138205" lon="13.8053861"><ele>221.0</ele><time>2026-05-01T09:31:27.934Z</time></trkpt><trkpt lat="37.9138099" lon="13.8052613"><ele>220.20000000000002</ele><time>2026-05-01T09:31:28.935Z</time></trkpt><trkpt lat="37.913779" lon="13.8051368"><ele>219.40000000000003</ele><time>2026-05-01T09:31:29.934Z</time></trkpt><trkpt lat="37.9137258" lon="13.8050196"><ele>218.6</ele><time>2026-05-01T09:31:30.935Z</time></trkpt><trkpt lat="37.91366" lon="13.8049126"><ele>217.8</ele><time>2026-05-01T09:31:31.935Z</time></trkpt><trkpt lat="37.9135959" lon="13.8048015"><ele>217.0</ele><time>2026-05-01T09:31:32.934Z</time></trkpt><trkpt lat="37.913561" lon="13.8046582"><ele>217.0</ele><time>2026-05-01T09:31:33.934Z</time></trkpt><trkpt lat="37.9135467" lon="13.8044976"><ele>217.0</ele><time>2026-05-01T09:31:34.935Z</time></trkpt><trkpt lat="37.9135754" lon="13.8043452"><ele>217.0</ele><time>2026-05-01T09:31:35.934Z</time></trkpt><trkpt lat="37.9136355" lon="13.8042111"><ele>217.0</ele><time>2026-05-01T09:31:36.934Z</time></trkpt><trkpt lat="37.9137269" lon="13.8040951"><ele>215.75</ele><time>2026-05-01T09:31:37.934Z</time></trkpt><trkpt lat="37.9138296" lon="13.8039871"><ele>214.5</ele><time>2026-05-01T09:31:38.935Z</time></trkpt><trkpt lat="37.9139303" lon="13.8038769"><ele>213.25</ele><time>2026-05-01T09:31:39.935Z</time></trkpt><trkpt lat="37.9140385" lon="13.8037644"><ele>212.0</ele><time>2026-05-01T09:31:40.934Z</time></trkpt><trkpt lat="37.9141565" lon="13.8036625"><ele>211.0</ele><time>2026-05-01T09:31:41.934Z</time></trkpt><trkpt lat="37.9142903" lon="13.8035751"><ele>210.0</ele><time>2026-05-01T09:31:42.934Z</time></trkpt><trkpt lat="37.9144368" lon="13.8035145"><ele>209.0</ele><time>2026-05-01T09:31:43.934Z</time></trkpt><trkpt lat="37.9145779" lon="13.8034698"><ele>205.33333333333334</ele><time>2026-05-01T09:31:44.935Z</time></trkpt><trkpt lat="37.9147159" lon="13.8034051"><ele>201.66666666666669</ele><time>2026-05-01T09:31:45.934Z</time></trkpt><trkpt lat="37.9148501" lon="13.803306"><ele>198.0</ele><time>2026-05-01T09:31:46.935Z</time></trkpt><trkpt lat="37.9149941" lon="13.8031603"><ele>197.0</ele><time>2026-05-01T09:31:47.934Z</time></trkpt><trkpt lat="37.9151624" lon="13.8029942"><ele>196.0</ele><time>2026-05-01T09:31:48.934Z</time></trkpt><trkpt lat="37.915337" lon="13.8028519"><ele>195.0</ele><time>2026-05-01T09:31:49.934Z</time></trkpt><trkpt lat="37.9154953" lon="13.8027269"><ele>193.0</ele><time>2026-05-01T09:31:50.934Z</time></trkpt><trkpt lat="37.9156419" lon="13.8026207"><ele>191.0</ele><time>2026-05-01T09:31:51.934Z</time></trkpt><trkpt lat="37.9158001" lon="13.802567"><ele>189.0</ele><time>2026-05-01T09:31:52.935Z</time></trkpt><trkpt lat="37.9159925" lon="13.8025651"><ele>187.33333333333334</ele><time>2026-05-01T09:31:53.935Z</time></trkpt><trkpt lat="37.9162016" lon="13.802581"><ele>185.66666666666669</ele><time>2026-05-01T09:31:54.934Z</time></trkpt><trkpt lat="37.9163873" lon="13.802572"><ele>184.0</ele><time>2026-05-01T09:31:55.935Z</time></trkpt><trkpt lat="37.9165456" lon="13.8025421"><ele>184.0</ele><time>2026-05-01T09:31:56.935Z</time></trkpt><trkpt lat="37.9166557" lon="13.8024836"><ele>184.0</ele><time>2026-05-01T09:31:57.935Z</time></trkpt><trkpt lat="37.9167382" lon="13.8023762"><ele>184.0</ele><time>2026-05-01T09:31:58.934Z</time></trkpt><trkpt lat="37.9167837" lon="13.8022066"><ele>184.0</ele><time>2026-05-01T09:31:59.934Z</time></trkpt><trkpt lat="37.9167937" lon="13.8019927"><ele>181.5</ele><time>2026-05-01T09:32:00.934Z</time></trkpt><trkpt lat="37.9167785" lon="13.8018118"><ele>179.0</ele><time>2026-05-01T09:32:01.935Z</time></trkpt><trkpt lat="37.9168023" lon="13.8016699"><ele>176.5</ele><time>2026-05-01T09:32:02.934Z</time></trkpt><trkpt lat="37.9168345" lon="13.8015597"><ele>174.0</ele><time>2026-05-01T09:32:03.934Z</time></trkpt><trkpt lat="37.9169614" lon="13.8014987"><ele>174.0</ele><time>2026-05-01T09:32:04.935Z</time></trkpt><trkpt lat="37.9171173" lon="13.8014855"><ele>174.0</ele><time>2026-05-01T09:32:05.934Z</time></trkpt><trkpt lat="37.9172934" lon="13.8015411"><ele>174.0</ele><time>2026-05-01T09:32:06.934Z</time></trkpt><trkpt lat="37.9174898" lon="13.8016516"><ele>175.33333333333334</ele><time>2026-05-01T09:32:07.935Z</time></trkpt><trkpt lat="37.91768" lon="13.8018008"><ele>176.66666666666669</ele><time>2026-05-01T09:32:08.934Z</time></trkpt><trkpt lat="37.917837" lon="13.8019412"><ele>178.0</ele><time>2026-05-01T09:32:09.935Z</time></trkpt><trkpt lat="37.9179898" lon="13.8020382"><ele>178.0</ele><time>2026-05-01T09:32:10.935Z</time></trkpt><trkpt lat="37.9181591" lon="13.8020624"><ele>178.0</ele><time>2026-05-01T09:32:11.943Z</time></trkpt><trkpt lat="37.9183378" lon="13.8020087"><ele>178.0</ele><time>2026-05-01T09:32:12.943Z</time></trkpt><trkpt lat="37.918528" lon="13.8019241"><ele>176.0</ele><time>2026-05-01T09:32:13.943Z</time></trkpt><trkpt lat="37.9187141" lon="13.8018122"><ele>174.0</ele><time>2026-05-01T09:32:14.942Z</time></trkpt><trkpt lat="37.91887" lon="13.8016759"><ele>172.0</ele><time>2026-05-01T09:32:15.943Z</time></trkpt><trkpt lat="37.9190099" lon="13.8015055"><ele>172.0</ele><time>2026-05-01T09:32:16.943Z</time></trkpt><trkpt lat="37.9191255" lon="13.8012671"><ele>172.0</ele><time>2026-05-01T09:32:17.943Z</time></trkpt><trkpt lat="37.9192222" lon="13.8009753"><ele>174.5</ele><time>2026-05-01T09:32:18.942Z</time></trkpt><trkpt lat="37.9192959" lon="13.8006714"><ele>177.0</ele><time>2026-05-01T09:32:19.942Z</time></trkpt><trkpt lat="37.9193476" lon="13.8003812"><ele>174.0</ele><time>2026-05-01T09:32:20.943Z</time></trkpt><trkpt lat="37.9193741" lon="13.800072"><ele>171.0</ele><time>2026-05-01T09:32:21.943Z</time></trkpt><trkpt lat="37.9193725" lon="13.7997697"><ele>171.0</ele><time>2026-05-01T09:32:22.942Z</time></trkpt><trkpt lat="37.9193554" lon="13.7995014"><ele>171.0</ele><time>2026-05-01T09:32:23.943Z</time></trkpt><trkpt lat="37.9193436" lon="13.7992684"><ele>171.0</ele><time>2026-05-01T09:32:24.942Z</time></trkpt><trkpt lat="37.919345" lon="13.7990677"><ele>169.33333333333334</ele><time>2026-05-01T09:32:25.943Z</time></trkpt><trkpt lat="37.9193842" lon="13.7988736"><ele>167.66666666666669</ele><time>2026-05-01T09:32:26.942Z</time></trkpt><trkpt lat="37.9194769" lon="13.7986918"><ele>166.0</ele><time>2026-05-01T09:32:27.942Z</time></trkpt><trkpt lat="37.9196003" lon="13.7985452"><ele>164.0</ele><time>2026-05-01T09:32:28.942Z</time></trkpt><trkpt lat="37.9197548" lon="13.7983992"><ele>162.0</ele><time>2026-05-01T09:32:29.943Z</time></trkpt><trkpt lat="37.91995" lon="13.7982566"><ele>160.0</ele><time>2026-05-01T09:32:30.942Z</time></trkpt><trkpt lat="37.9201556" lon="13.7981004"><ele>160.0</ele><time>2026-05-01T09:32:31.943Z</time></trkpt><trkpt lat="37.9203443" lon="13.7979489"><ele>160.0</ele><time>2026-05-01T09:32:32.942Z</time></trkpt><trkpt lat="37.9204913" lon="13.7978224"><ele>160.0</ele><time>2026-05-01T09:32:33.943Z</time></trkpt><trkpt lat="37.9206031" lon="13.7976901"><ele>158.0</ele><time>2026-05-01T09:32:34.942Z</time></trkpt><trkpt lat="37.920691" lon="13.7974896"><ele>156.0</ele><time>2026-05-01T09:32:35.942Z</time></trkpt><trkpt lat="37.9207546" lon="13.7972383"><ele>154.0</ele><time>2026-05-01T09:32:36.942Z</time></trkpt><trkpt lat="37.920811" lon="13.7969542"><ele>152.33333333333334</ele><time>2026-05-01T09:32:37.942Z</time></trkpt><trkpt lat="37.9208715" lon="13.7966939"><ele>150.66666666666666</ele><time>2026-05-01T09:32:38.942Z</time></trkpt><trkpt lat="37.9209617" lon="13.7964509"><ele>149.0</ele><time>2026-05-01T09:32:39.943Z</time></trkpt><trkpt lat="37.9210785" lon="13.7962278"><ele>149.0</ele><time>2026-05-01T09:32:40.942Z</time></trkpt><trkpt lat="37.9211969" lon="13.7960564"><ele>149.0</ele><time>2026-05-01T09:32:41.942Z</time></trkpt><trkpt lat="37.9213154" lon="13.7959298"><ele>149.0</ele><time>2026-05-01T09:32:42.943Z</time></trkpt><trkpt lat="37.9214426" lon="13.7958631"><ele>146.25</ele><time>2026-05-01T09:32:43.942Z</time></trkpt><trkpt lat="37.921575" lon="13.7958619"><ele>143.5</ele><time>2026-05-01T09:32:44.943Z</time></trkpt><trkpt lat="37.9216958" lon="13.7959197"><ele>140.75</ele><time>2026-05-01T09:32:45.943Z</time></trkpt><trkpt lat="37.921799" lon="13.796039"><ele>138.0</ele><time>2026-05-01T09:32:46.942Z</time></trkpt><trkpt lat="37.9219039" lon="13.7961882"><ele>138.0</ele><time>2026-05-01T09:32:47.943Z</time></trkpt><trkpt lat="37.9220027" lon="13.7963375"><ele>138.0</ele><time>2026-05-01T09:32:48.943Z</time></trkpt><trkpt lat="37.9220982" lon="13.7964224"><ele>138.0</ele><time>2026-05-01T09:32:49.943Z</time></trkpt><trkpt lat="37.922203" lon="13.7964363"><ele>138.0</ele><time>2026-05-01T09:32:50.943Z</time></trkpt><trkpt lat="37.9222957" lon="13.7963783"><ele>138.0</ele><time>2026-05-01T09:32:51.943Z</time></trkpt><trkpt lat="37.9223912" lon="13.7962587"><ele>138.0</ele><time>2026-05-01T09:32:52.943Z</time></trkpt><trkpt lat="37.9224741" lon="13.7960825"><ele>138.0</ele><time>2026-05-01T09:32:53.942Z</time></trkpt><trkpt lat="37.9225378" lon="13.7959066"><ele>138.0</ele><time>2026-05-01T09:32:54.943Z</time></trkpt><trkpt lat="37.9225979" lon="13.79575"><ele>137.25</ele><time>2026-05-01T09:32:55.942Z</time></trkpt><trkpt lat="37.9226614" lon="13.7955923"><ele>136.5</ele><time>2026-05-01T09:32:56.942Z</time></trkpt><trkpt lat="37.9227281" lon="13.7954336"><ele>135.75</ele><time>2026-05-01T09:32:57.943Z</time></trkpt><trkpt lat="37.9228083" lon="13.7952788"><ele>135.0</ele><time>2026-05-01T09:32:58.943Z</time></trkpt><trkpt lat="37.9229044" lon="13.7951273"><ele>135.0</ele><time>2026-05-01T09:32:59.942Z</time></trkpt><trkpt lat="37.9229963" lon="13.7949722"><ele>135.0</ele><time>2026-05-01T09:33:00.942Z</time></trkpt><trkpt lat="37.9230949" lon="13.7948259"><ele>135.0</ele><time>2026-05-01T09:33:01.942Z</time></trkpt><trkpt lat="37.9232102" lon="13.7947134"><ele>135.0</ele><time>2026-05-01T09:33:02.942Z</time></trkpt><trkpt lat="37.923339" lon="13.7946377"><ele>135.0</ele><time>2026-05-01T09:33:03.942Z</time></trkpt><trkpt lat="37.9234726" lon="13.7945839"><ele>135.0</ele><time>2026-05-01T09:33:04.943Z</time></trkpt><trkpt lat="37.9236098" lon="13.7945229"><ele>135.0</ele><time>2026-05-01T09:33:05.942Z</time></trkpt><trkpt lat="37.9237475" lon="13.7944342"><ele>134.0</ele><time>2026-05-01T09:33:06.942Z</time></trkpt><trkpt lat="37.92388" lon="13.7943062"><ele>133.0</ele><time>2026-05-01T09:33:07.942Z</time></trkpt><trkpt lat="37.9239954" lon="13.7941693"><ele>132.0</ele><time>2026-05-01T09:33:08.942Z</time></trkpt><trkpt lat="37.9240895" lon="13.7940255"><ele>132.0</ele><time>2026-05-01T09:33:09.943Z</time></trkpt><trkpt lat="37.92417" lon="13.7938758"><ele>132.0</ele><time>2026-05-01T09:33:10.942Z</time></trkpt><trkpt lat="37.9242267" lon="13.7937199"><ele>132.0</ele><time>2026-05-01T09:33:11.943Z</time></trkpt><trkpt lat="37.9242667" lon="13.7935712"><ele>132.0</ele><time>2026-05-01T09:33:12.943Z</time></trkpt><trkpt lat="37.9243108" lon="13.7934183"><ele>131.75</ele><time>2026-05-01T09:33:13.943Z</time></trkpt><trkpt lat="37.924363" lon="13.7932696"><ele>131.5</ele><time>2026-05-01T09:33:14.943Z</time></trkpt><trkpt lat="37.9244446" lon="13.7931294"><ele>131.25</ele><time>2026-05-01T09:33:15.943Z</time></trkpt><trkpt lat="37.9245637" lon="13.7929936"><ele>131.0</ele><time>2026-05-01T09:33:16.942Z</time></trkpt><trkpt lat="37.9247071" lon="13.7928647"><ele>131.0</ele><time>2026-05-01T09:33:17.943Z</time></trkpt><trkpt lat="37.92486" lon="13.7927449"><ele>131.0</ele><time>2026-05-01T09:33:18.942Z</time></trkpt><trkpt lat="37.9250117" lon="13.7926298"><ele>131.0</ele><time>2026-05-01T09:33:19.943Z</time></trkpt><trkpt lat="37.9251623" lon="13.7925254"><ele>130.0</ele><time>2026-05-01T09:33:20.942Z</time></trkpt><trkpt lat="37.9253091" lon="13.7924244"><ele>129.0</ele><time>2026-05-01T09:33:21.942Z</time></trkpt><trkpt lat="37.9254653" lon="13.7923285"><ele>128.0</ele><time>2026-05-01T09:33:22.943Z</time></trkpt><trkpt lat="37.925632" lon="13.7922482"><ele>128.0</ele><time>2026-05-01T09:33:23.942Z</time></trkpt><trkpt lat="37.9258081" lon="13.7921595"><ele>128.0</ele><time>2026-05-01T09:33:24.942Z</time></trkpt><trkpt lat="37.9259828" lon="13.7920696"><ele>128.0</ele><time>2026-05-01T09:33:25.943Z</time></trkpt><trkpt lat="37.9261667" lon="13.7919765"><ele>128.33333333333331</ele><time>2026-05-01T09:33:26.942Z</time></trkpt><trkpt lat="37.9263537" lon="13.791881"><ele>128.66666666666666</ele><time>2026-05-01T09:33:27.942Z</time></trkpt><trkpt lat="37.9265415" lon="13.7917867"><ele>129.0</ele><time>2026-05-01T09:33:28.943Z</time></trkpt><trkpt lat="37.9267285" lon="13.7916986"><ele>125.66666666666666</ele><time>2026-05-01T09:33:29.942Z</time></trkpt><trkpt lat="37.9269128" lon="13.7916134"><ele>122.33333333333333</ele><time>2026-05-01T09:33:30.943Z</time></trkpt><trkpt lat="37.9270939" lon="13.7915291"><ele>119.0</ele><time>2026-05-01T09:33:31.942Z</time></trkpt><trkpt lat="37.9272767" lon="13.7914481"><ele>119.0</ele><time>2026-05-01T09:33:32.943Z</time></trkpt><trkpt lat="37.9274615" lon="13.7913727"><ele>119.0</ele><time>2026-05-01T09:33:33.942Z</time></trkpt><trkpt lat="37.9276468" lon="13.7912985"><ele>119.0</ele><time>2026-05-01T09:33:34.943Z</time></trkpt><trkpt lat="37.9278334" lon="13.7912225"><ele>118.0</ele><time>2026-05-01T09:33:35.942Z</time></trkpt><trkpt lat="37.9280231" lon="13.7911443"><ele>117.0</ele><time>2026-05-01T09:33:36.942Z</time></trkpt><trkpt lat="37.9282161" lon="13.7910589"><ele>116.0</ele><time>2026-05-01T09:33:37.942Z</time></trkpt><trkpt lat="37.928408" lon="13.7909725"><ele>113.33333333333333</ele><time>2026-05-01T09:33:38.943Z</time></trkpt><trkpt lat="37.9286012" lon="13.7908912"><ele>110.66666666666666</ele><time>2026-05-01T09:33:39.942Z</time></trkpt><trkpt lat="37.9287975" lon="13.7908121"><ele>108.0</ele><time>2026-05-01T09:33:40.942Z</time></trkpt><trkpt lat="37.9289903" lon="13.7907355"><ele>108.0</ele><time>2026-05-01T09:33:41.942Z</time></trkpt><trkpt lat="37.9291756" lon="13.7906587"><ele>108.0</ele><time>2026-05-01T09:33:42.943Z</time></trkpt><trkpt lat="37.9293528" lon="13.7905906"><ele>108.0</ele><time>2026-05-01T09:33:43.942Z</time></trkpt><trkpt lat="37.9295273" lon="13.7905236"><ele>106.0</ele><time>2026-05-01T09:33:44.943Z</time></trkpt><trkpt lat="37.9297027" lon="13.7904632"><ele>104.0</ele><time>2026-05-01T09:33:45.943Z</time></trkpt><trkpt lat="37.9298733" lon="13.7904146"><ele>102.0</ele><time>2026-05-01T09:33:46.942Z</time></trkpt><trkpt lat="37.9300318" lon="13.7903865"><ele>98.75</ele><time>2026-05-01T09:33:47.942Z</time></trkpt><trkpt lat="37.9301761" lon="13.7903725"><ele>95.5</ele><time>2026-05-01T09:33:48.943Z</time></trkpt><trkpt lat="37.9303061" lon="13.7903596"><ele>92.25</ele><time>2026-05-01T09:33:49.943Z</time></trkpt><trkpt lat="37.9304257" lon="13.7903479"><ele>89.0</ele><time>2026-05-01T09:33:50.942Z</time></trkpt><trkpt lat="37.9305331" lon="13.7903509"><ele>89.0</ele><time>2026-05-01T09:33:51.942Z</time></trkpt><trkpt lat="37.9306349" lon="13.7904034"><ele>89.0</ele><time>2026-05-01T09:33:52.943Z</time></trkpt><trkpt lat="37.9307238" lon="13.7904912"><ele>89.0</ele><time>2026-05-01T09:33:53.943Z</time></trkpt><trkpt lat="37.9307809" lon="13.7905999"><ele>89.0</ele><time>2026-05-01T09:33:54.942Z</time></trkpt><trkpt lat="37.9308101" lon="13.790747"><ele>89.0</ele><time>2026-05-01T09:33:55.943Z</time></trkpt><trkpt lat="37.930822" lon="13.7908822"><ele>89.2</ele><time>2026-05-01T09:33:56.942Z</time></trkpt><trkpt lat="37.9308255" lon="13.7910262"><ele>89.4</ele><time>2026-05-01T09:33:57.943Z</time></trkpt><trkpt lat="37.9308111" lon="13.7911653"><ele>89.6</ele><time>2026-05-01T09:33:58.942Z</time></trkpt><trkpt lat="37.9307858" lon="13.791291"><ele>89.8</ele><time>2026-05-01T09:33:59.942Z</time></trkpt><trkpt lat="37.9307534" lon="13.7914089"><ele>90.0</ele><time>2026-05-01T09:34:00.942Z</time></trkpt><trkpt lat="37.9307243" lon="13.7915268"><ele>90.0</ele><time>2026-05-01T09:34:01.942Z</time></trkpt><trkpt lat="37.9307348" lon="13.7916568"><ele>90.0</ele><time>2026-05-01T09:34:02.942Z</time></trkpt><trkpt lat="37.930798" lon="13.7917634"><ele>90.0</ele><time>2026-05-01T09:34:03.942Z</time></trkpt><trkpt lat="37.9308951" lon="13.7918241"><ele>90.0</ele><time>2026-05-01T09:34:04.943Z</time></trkpt><trkpt lat="37.9310208" lon="13.7918315"><ele>90.0</ele><time>2026-05-01T09:34:05.943Z</time></trkpt><trkpt lat="37.9311395" lon="13.7917943"><ele>90.33333333333333</ele><time>2026-05-01T09:34:06.942Z</time></trkpt><trkpt lat="37.931257" lon="13.7917497"><ele>90.66666666666666</ele><time>2026-05-01T09:34:07.943Z</time></trkpt><trkpt lat="37.931402" lon="13.7916876"><ele>91.0</ele><time>2026-05-01T09:34:08.942Z</time></trkpt><trkpt lat="37.9315763" lon="13.7916186"><ele>91.66666666666666</ele><time>2026-05-01T09:34:09.942Z</time></trkpt><trkpt lat="37.9317665" lon="13.791557"><ele>92.33333333333333</ele><time>2026-05-01T09:34:10.942Z</time></trkpt><trkpt lat="37.9319519" lon="13.7915106"><ele>93.0</ele><time>2026-05-01T09:34:11.942Z</time></trkpt><trkpt lat="37.9321313" lon="13.7914914"><ele>93.0</ele><time>2026-05-01T09:34:12.942Z</time></trkpt><trkpt lat="37.932312" lon="13.791537"><ele>93.0</ele><time>2026-05-01T09:34:13.943Z</time></trkpt><trkpt lat="37.9325225" lon="13.791622"><ele>93.0</ele><time>2026-05-01T09:34:14.943Z</time></trkpt><trkpt lat="37.9327367" lon="13.7917045"><ele>91.66666666666667</ele><time>2026-05-01T09:34:15.942Z</time></trkpt><trkpt lat="37.9329329" lon="13.7917774"><ele>90.33333333333334</ele><time>2026-05-01T09:34:16.942Z</time></trkpt><trkpt lat="37.9331086" lon="13.791867"><ele>89.0</ele><time>2026-05-01T09:34:17.943Z</time></trkpt><trkpt lat="37.9332571" lon="13.7919892"><ele>92.33333333333334</ele><time>2026-05-01T09:34:18.943Z</time></trkpt><trkpt lat="37.9333964" lon="13.7920824"><ele>95.66666666666667</ele><time>2026-05-01T09:34:19.943Z</time></trkpt><trkpt lat="37.9335446" lon="13.7921058"><ele>99.0</ele><time>2026-05-01T09:34:20.943Z</time></trkpt><trkpt lat="37.933702" lon="13.7920697"><ele>99.0</ele><time>2026-05-01T09:34:21.942Z</time></trkpt><trkpt lat="37.9338493" lon="13.7919763"><ele>99.0</ele><time>2026-05-01T09:34:22.943Z</time></trkpt><trkpt lat="37.9339735" lon="13.7918239"><ele>99.0</ele><time>2026-05-01T09:34:23.942Z</time></trkpt><trkpt lat="37.9340674" lon="13.7916189"><ele>100.0</ele><time>2026-05-01T09:34:24.942Z</time></trkpt><trkpt lat="37.9341669" lon="13.7913923"><ele>101.0</ele><time>2026-05-01T09:34:25.942Z</time></trkpt><trkpt lat="37.9343094" lon="13.7911674"><ele>102.0</ele><time>2026-05-01T09:34:26.943Z</time></trkpt><trkpt lat="37.9344866" lon="13.7909263"><ele>96.5</ele><time>2026-05-01T09:34:27.942Z</time></trkpt><trkpt lat="37.934718" lon="13.7906729"><ele>91.0</ele><time>2026-05-01T09:34:28.943Z</time></trkpt><trkpt lat="37.9349697" lon="13.7904017"><ele>90.5</ele><time>2026-05-01T09:34:29.943Z</time></trkpt><trkpt lat="37.9352109" lon="13.7901229"><ele>90.0</ele><time>2026-05-01T09:34:30.942Z</time></trkpt><trkpt lat="37.9354355" lon="13.7898574"><ele>90.0</ele><time>2026-05-01T09:34:31.943Z</time></trkpt><trkpt lat="37.9356353" lon="13.7895802"><ele>90.0</ele><time>2026-05-01T09:34:32.943Z</time></trkpt><trkpt lat="37.9358103" lon="13.7893015"><ele>89.33333333333333</ele><time>2026-05-01T09:34:33.942Z</time></trkpt><trkpt lat="37.9359526" lon="13.7890692"><ele>88.66666666666666</ele><time>2026-05-01T09:34:34.942Z</time></trkpt><trkpt lat="37.9360775" lon="13.7888905"><ele>88.0</ele><time>2026-05-01T09:34:35.942Z</time></trkpt><trkpt lat="37.9362352" lon="13.7887508"><ele>88.0</ele><time>2026-05-01T09:34:36.942Z</time></trkpt><trkpt lat="37.9364321" lon="13.7886177"><ele>88.0</ele><time>2026-05-01T09:34:37.942Z</time></trkpt><trkpt lat="37.9366341" lon="13.7884993"><ele>88.0</ele><time>2026-05-01T09:34:38.942Z</time></trkpt><trkpt lat="37.9368271" lon="13.7883142"><ele>86.0</ele><time>2026-05-01T09:34:39.943Z</time></trkpt><trkpt lat="37.9369922" lon="13.7881073"><ele>84.0</ele><time>2026-05-01T09:34:40.942Z</time></trkpt><trkpt lat="37.9371148" lon="13.7879487"><ele>82.0</ele><time>2026-05-01T09:34:41.943Z</time></trkpt><trkpt lat="37.9372195" lon="13.7878643"><ele>82.0</ele><time>2026-05-01T09:34:42.942Z</time></trkpt><trkpt lat="37.9373511" lon="13.7878047"><ele>82.0</ele><time>2026-05-01T09:34:43.942Z</time></trkpt><trkpt lat="37.9375111" lon="13.7878112"><ele>82.0</ele><time>2026-05-01T09:34:44.943Z</time></trkpt><trkpt lat="37.9377028" lon="13.7878708"><ele>79.0</ele><time>2026-05-01T09:34:45.942Z</time></trkpt><trkpt lat="37.9378966" lon="13.7879607"><ele>76.0</ele><time>2026-05-01T09:34:46.942Z</time></trkpt><trkpt lat="37.938067" lon="13.7880838"><ele>73.0</ele><time>2026-05-01T09:34:47.943Z</time></trkpt><trkpt lat="37.9382154" lon="13.788259"><ele>73.0</ele><time>2026-05-01T09:34:48.942Z</time></trkpt><trkpt lat="37.9383323" lon="13.7884352"><ele>73.0</ele><time>2026-05-01T09:34:49.942Z</time></trkpt><trkpt lat="37.9384215" lon="13.7886111"><ele>73.0</ele><time>2026-05-01T09:34:50.943Z</time></trkpt><trkpt lat="37.9384627" lon="13.788783"><ele>72.5</ele><time>2026-05-01T09:34:51.942Z</time></trkpt><trkpt lat="37.9384643" lon="13.7889571"><ele>72.0</ele><time>2026-05-01T09:34:52.942Z</time></trkpt><trkpt lat="37.9384463" lon="13.7891258"><ele>71.5</ele><time>2026-05-01T09:34:53.943Z</time></trkpt><trkpt lat="37.9384423" lon="13.7892713"><ele>71.0</ele><time>2026-05-01T09:34:54.942Z</time></trkpt><trkpt lat="37.9384923" lon="13.7893901"><ele>71.0</ele><time>2026-05-01T09:34:55.942Z</time></trkpt><trkpt lat="37.9385812" lon="13.7894589"><ele>71.0</ele><time>2026-05-01T09:34:56.942Z</time></trkpt><trkpt lat="37.9386939" lon="13.7894494"><ele>71.0</ele><time>2026-05-01T09:34:57.943Z</time></trkpt><trkpt lat="37.9388266" lon="13.7893717"><ele>71.0</ele><time>2026-05-01T09:34:58.943Z</time></trkpt><trkpt lat="37.9389857" lon="13.78922"><ele>71.0</ele><time>2026-05-01T09:34:59.942Z</time></trkpt><trkpt lat="37.9391692" lon="13.7890224"><ele>71.0</ele><time>2026-05-01T09:35:00.942Z</time></trkpt><trkpt lat="37.9393432" lon="13.7888459"><ele>73.0</ele><time>2026-05-01T09:35:01.942Z</time></trkpt><trkpt lat="37.9394772" lon="13.7887168"><ele>75.0</ele><time>2026-05-01T09:35:02.943Z</time></trkpt><trkpt lat="37.9395853" lon="13.788612"><ele>77.0</ele><time>2026-05-01T09:35:03.943Z</time></trkpt><trkpt lat="37.9397127" lon="13.7885662"><ele>79.0</ele><time>2026-05-01T09:35:04.943Z</time></trkpt><trkpt lat="37.9398924" lon="13.788589"><ele>75.5</ele><time>2026-05-01T09:35:05.943Z</time></trkpt><trkpt lat="37.9401126" lon="13.7886165"><ele>72.0</ele><time>2026-05-01T09:35:06.942Z</time></trkpt><trkpt lat="37.9403695" lon="13.7886307"><ele>72.0</ele><time>2026-05-01T09:35:07.943Z</time></trkpt><trkpt lat="37.940616" lon="13.7886264"><ele>72.0</ele><time>2026-05-01T09:35:08.943Z</time></trkpt><trkpt lat="37.9407938" lon="13.7886194"><ele>72.0</ele><time>2026-05-01T09:35:09.943Z</time></trkpt><trkpt lat="37.9409356" lon="13.7886356"><ele>66.33333333333333</ele><time>2026-05-01T09:35:10.943Z</time></trkpt><trkpt lat="37.9410607" lon="13.7887058"><ele>60.666666666666664</ele><time>2026-05-01T09:35:11.942Z</time></trkpt><trkpt lat="37.9411789" lon="13.7888336"><ele>55.0</ele><time>2026-05-01T09:35:12.943Z</time></trkpt><trkpt lat="37.941294" lon="13.7890294"><ele>55.0</ele><time>2026-05-01T09:35:13.943Z</time></trkpt><trkpt lat="37.9414105" lon="13.7892725"><ele>55.0</ele><time>2026-05-01T09:35:14.943Z</time></trkpt><trkpt lat="37.9415262" lon="13.7894939"><ele>55.0</ele><time>2026-05-01T09:35:15.943Z</time></trkpt><trkpt lat="37.9416141" lon="13.7896691"><ele>56.666666666666664</ele><time>2026-05-01T09:35:16.943Z</time></trkpt><trkpt lat="37.9416566" lon="13.7898474"><ele>58.33333333333333</ele><time>2026-05-01T09:35:17.943Z</time></trkpt><trkpt lat="37.9416494" lon="13.7900505"><ele>60.0</ele><time>2026-05-01T09:35:18.942Z</time></trkpt><trkpt lat="37.9415848" lon="13.7902749"><ele>60.0</ele><time>2026-05-01T09:35:19.942Z</time></trkpt><trkpt lat="37.9414739" lon="13.7905286"><ele>60.0</ele><time>2026-05-01T09:35:20.943Z</time></trkpt><trkpt lat="37.941346" lon="13.7907949"><ele>60.66666666666667</ele><time>2026-05-01T09:35:21.943Z</time></trkpt><trkpt lat="37.9412248" lon="13.7910417"><ele>61.333333333333336</ele><time>2026-05-01T09:35:22.942Z</time></trkpt><trkpt lat="37.9411348" lon="13.791235"><ele>62.0</ele><time>2026-05-01T09:35:23.942Z</time></trkpt><trkpt lat="37.9410661" lon="13.7914069"><ele>62.0</ele><time>2026-05-01T09:35:24.942Z</time></trkpt><trkpt lat="37.9410225" lon="13.7915769"><ele>62.0</ele><time>2026-05-01T09:35:25.942Z</time></trkpt><trkpt lat="37.9410241" lon="13.7917382"><ele>62.0</ele><time>2026-05-01T09:35:26.943Z</time></trkpt><trkpt lat="37.941095" lon="13.7918901"><ele>62.0</ele><time>2026-05-01T09:35:27.943Z</time></trkpt><trkpt lat="37.9412151" lon="13.7920229"><ele>64.66666666666667</ele><time>2026-05-01T09:35:28.943Z</time></trkpt><trkpt lat="37.9413544" lon="13.7920996"><ele>67.33333333333333</ele><time>2026-05-01T09:35:29.943Z</time></trkpt><trkpt lat="37.9415011" lon="13.7921173"><ele>70.0</ele><time>2026-05-01T09:35:30.942Z</time></trkpt><trkpt lat="37.9416567" lon="13.7920771"><ele>70.66666666666666</ele><time>2026-05-01T09:35:31.942Z</time></trkpt><trkpt lat="37.9418091" lon="13.7919319"><ele>71.33333333333333</ele><time>2026-05-01T09:35:32.942Z</time></trkpt><trkpt lat="37.9419623" lon="13.7917306"><ele>72.0</ele><time>2026-05-01T09:35:33.942Z</time></trkpt><trkpt lat="37.9421024" lon="13.7915138"><ele>72.0</ele><time>2026-05-01T09:35:34.942Z</time></trkpt><trkpt lat="37.9422394" lon="13.7912997"><ele>72.0</ele><time>2026-05-01T09:35:35.942Z</time></trkpt><trkpt lat="37.9424054" lon="13.7911169"><ele>72.0</ele><time>2026-05-01T09:35:36.943Z</time></trkpt><trkpt lat="37.942612" lon="13.790962"><ele>71.0</ele><time>2026-05-01T09:35:37.942Z</time></trkpt><trkpt lat="37.9428302" lon="13.7908053"><ele>70.0</ele><time>2026-05-01T09:35:38.942Z</time></trkpt><trkpt lat="37.9430083" lon="13.790593"><ele>70.0</ele><time>2026-05-01T09:35:39.943Z</time></trkpt><trkpt lat="37.9431488" lon="13.7903451"><ele>70.0</ele><time>2026-05-01T09:35:40.942Z</time></trkpt><trkpt lat="37.9432813" lon="13.790123"><ele>68.66666666666666</ele><time>2026-05-01T09:35:41.942Z</time></trkpt><trkpt lat="37.9434252" lon="13.7899344"><ele>67.33333333333333</ele><time>2026-05-01T09:35:42.942Z</time></trkpt><trkpt lat="37.9435599" lon="13.7897839"><ele>66.0</ele><time>2026-05-01T09:35:43.942Z</time></trkpt><trkpt lat="37.9436726" lon="13.7896577"><ele>66.0</ele><time>2026-05-01T09:35:44.942Z</time></trkpt><trkpt lat="37.9437809" lon="13.7895495"><ele>66.0</ele><time>2026-05-01T09:35:45.942Z</time></trkpt><trkpt lat="37.9438953" lon="13.7894612"><ele>66.0</ele><time>2026-05-01T09:35:46.942Z</time></trkpt><trkpt lat="37.9440047" lon="13.7894098"><ele>66.0</ele><time>2026-05-01T09:35:47.942Z</time></trkpt><trkpt lat="37.9441215" lon="13.7893722"><ele>64.66666666666667</ele><time>2026-05-01T09:35:48.942Z</time></trkpt><trkpt lat="37.9442536" lon="13.7893656"><ele>63.333333333333336</ele><time>2026-05-01T09:35:49.943Z</time></trkpt><trkpt lat="37.9444136" lon="13.7893815"><ele>62.0</ele><time>2026-05-01T09:35:50.942Z</time></trkpt><trkpt lat="37.9446039" lon="13.7894189"><ele>62.0</ele><time>2026-05-01T09:35:51.943Z</time></trkpt><trkpt lat="37.9448146" lon="13.7894657"><ele>62.0</ele><time>2026-05-01T09:35:52.942Z</time></trkpt><trkpt lat="37.9450293" lon="13.7895224"><ele>62.0</ele><time>2026-05-01T09:35:53.943Z</time></trkpt><trkpt lat="37.9452482" lon="13.7895957"><ele>61.66666666666667</ele><time>2026-05-01T09:35:54.943Z</time></trkpt><trkpt lat="37.9454639" lon="13.7896673"><ele>61.33333333333333</ele><time>2026-05-01T09:35:55.942Z</time></trkpt><trkpt lat="37.9456867" lon="13.7897037"><ele>61.0</ele><time>2026-05-01T09:35:56.942Z</time></trkpt><trkpt lat="37.9459081" lon="13.7897072"><ele>60.5</ele><time>2026-05-01T09:35:57.943Z</time></trkpt><trkpt lat="37.9461428" lon="13.789683"><ele>60.0</ele><time>2026-05-01T09:35:58.942Z</time></trkpt><trkpt lat="37.946397" lon="13.7896112"><ele>60.0</ele><time>2026-05-01T09:35:59.943Z</time></trkpt><trkpt lat="37.9466415" lon="13.7895147"><ele>60.0</ele><time>2026-05-01T09:36:00.943Z</time></trkpt><trkpt lat="37.9468623" lon="13.7894142"><ele>57.33333333333333</ele><time>2026-05-01T09:36:01.942Z</time></trkpt><trkpt lat="37.9470612" lon="13.7892995"><ele>54.666666666666664</ele><time>2026-05-01T09:36:02.943Z</time></trkpt><trkpt lat="37.947237" lon="13.7891425"><ele>52.0</ele><time>2026-05-01T09:36:03.942Z</time></trkpt><trkpt lat="37.9473837" lon="13.7889308"><ele>52.0</ele><time>2026-05-01T09:36:04.943Z</time></trkpt><trkpt lat="37.9474905" lon="13.7886749"><ele>52.0</ele><time>2026-05-01T09:36:05.942Z</time></trkpt><trkpt lat="37.9475595" lon="13.7884133"><ele>52.0</ele><time>2026-05-01T09:36:06.943Z</time></trkpt><trkpt lat="37.9475893" lon="13.7881324"><ele>54.0</ele><time>2026-05-01T09:36:07.942Z</time></trkpt><trkpt lat="37.9475903" lon="13.787826"><ele>56.0</ele><time>2026-05-01T09:36:08.942Z</time></trkpt><trkpt lat="37.9475867" lon="13.7875215"><ele>56.0</ele><time>2026-05-01T09:36:09.943Z</time></trkpt><trkpt lat="37.9475884" lon="13.7872479"><ele>56.0</ele><time>2026-05-01T09:36:10.943Z</time></trkpt><trkpt lat="37.947595" lon="13.787003"><ele>56.0</ele><time>2026-05-01T09:36:11.943Z</time></trkpt><trkpt lat="37.9476105" lon="13.7867889"><ele>55.0</ele><time>2026-05-01T09:36:12.943Z</time></trkpt><trkpt lat="37.947641" lon="13.7865819"><ele>54.0</ele><time>2026-05-01T09:36:13.942Z</time></trkpt><trkpt lat="37.9476875" lon="13.7863834"><ele>53.0</ele><time>2026-05-01T09:36:14.942Z</time></trkpt><trkpt lat="37.9477464" lon="13.7861871"><ele>51.25</ele><time>2026-05-01T09:36:15.942Z</time></trkpt><trkpt lat="37.9478077" lon="13.7860069"><ele>49.5</ele><time>2026-05-01T09:36:16.942Z</time></trkpt><trkpt lat="37.9478697" lon="13.7858317"><ele>47.75</ele><time>2026-05-01T09:36:17.943Z</time></trkpt><trkpt lat="37.9479413" lon="13.7856761"><ele>46.0</ele><time>2026-05-01T09:36:18.942Z</time></trkpt><trkpt lat="37.9480239" lon="13.7855234"><ele>46.0</ele><time>2026-05-01T09:36:19.942Z</time></trkpt><trkpt lat="37.9481154" lon="13.7853732"><ele>46.0</ele><time>2026-05-01T09:36:20.942Z</time></trkpt><trkpt lat="37.9482217" lon="13.7852543"><ele>46.0</ele><time>2026-05-01T09:36:21.943Z</time></trkpt><trkpt lat="37.9483522" lon="13.7851796"><ele>46.0</ele><time>2026-05-01T09:36:22.942Z</time></trkpt><trkpt lat="37.9485053" lon="13.7851475"><ele>43.0</ele><time>2026-05-01T09:36:23.942Z</time></trkpt><trkpt lat="37.9486853" lon="13.7851267"><ele>40.0</ele><time>2026-05-01T09:36:24.942Z</time></trkpt><trkpt lat="37.9488641" lon="13.7851138"><ele>37.0</ele><time>2026-05-01T09:36:25.942Z</time></trkpt><trkpt lat="37.949037" lon="13.7851186"><ele>37.0</ele><time>2026-05-01T09:36:26.943Z</time></trkpt><trkpt lat="37.9492072" lon="13.7851704"><ele>37.0</ele><time>2026-05-01T09:36:27.943Z</time></trkpt><trkpt lat="37.9493779" lon="13.785281"><ele>37.0</ele><time>2026-05-01T09:36:28.942Z</time></trkpt><trkpt lat="37.9495414" lon="13.7853982"><ele>37.66666666666667</ele><time>2026-05-01T09:36:29.942Z</time></trkpt><trkpt lat="37.949713" lon="13.7854774"><ele>38.333333333333336</ele><time>2026-05-01T09:36:30.943Z</time></trkpt><trkpt lat="37.9499086" lon="13.7854842"><ele>39.0</ele><time>2026-05-01T09:36:31.942Z</time></trkpt><trkpt lat="37.9500937" lon="13.7854088"><ele>39.0</ele><time>2026-05-01T09:36:32.943Z</time></trkpt><trkpt lat="37.9502716" lon="13.7853048"><ele>39.0</ele><time>2026-05-01T09:36:33.942Z</time></trkpt><trkpt lat="37.9504301" lon="13.7851907"><ele>39.0</ele><time>2026-05-01T09:36:34.943Z</time></trkpt><trkpt lat="37.9505824" lon="13.7850867"><ele>35.666666666666664</ele><time>2026-05-01T09:36:35.943Z</time></trkpt><trkpt lat="37.9507302" lon="13.7849987"><ele>32.33333333333333</ele><time>2026-05-01T09:36:36.942Z</time></trkpt><trkpt lat="37.9508642" lon="13.7849116"><ele>29.0</ele><time>2026-05-01T09:36:37.943Z</time></trkpt><trkpt lat="37.9509865" lon="13.7848222"><ele>28.6</ele><time>2026-05-01T09:36:38.942Z</time></trkpt><trkpt lat="37.9510956" lon="13.7847469"><ele>28.2</ele><time>2026-05-01T09:36:39.942Z</time></trkpt><trkpt lat="37.9511783" lon="13.7846972"><ele>27.800000000000004</ele><time>2026-05-01T09:36:40.943Z</time></trkpt><trkpt lat="37.9512681" lon="13.7846696"><ele>27.400000000000002</ele><time>2026-05-01T09:36:42.942Z</time></trkpt><trkpt lat="37.9513785" lon="13.7846737"><ele>27.0</ele><time>2026-05-01T09:36:44.943Z</time></trkpt><trkpt lat="37.9514727" lon="13.7846994"><ele>27.0</ele><time>2026-05-01T09:36:45.943Z</time></trkpt><trkpt lat="37.9515927" lon="13.7847407"><ele>27.0</ele><time>2026-05-01T09:36:46.942Z</time></trkpt><trkpt lat="37.9517495" lon="13.7847829"><ele>27.0</ele><time>2026-05-01T09:36:47.942Z</time></trkpt><trkpt lat="37.9519398" lon="13.7848506"><ele>27.0</ele><time>2026-05-01T09:36:48.942Z</time></trkpt><trkpt lat="37.9521509" lon="13.7849256"><ele>27.0</ele><time>2026-05-01T09:36:49.942Z</time></trkpt><trkpt lat="37.9523837" lon="13.7850013"><ele>26.0</ele><time>2026-05-01T09:36:50.942Z</time></trkpt><trkpt lat="37.9526283" lon="13.7850857"><ele>25.0</ele><time>2026-05-01T09:36:51.943Z</time></trkpt><trkpt lat="37.9528832" lon="13.7851761"><ele>25.0</ele><time>2026-05-01T09:36:52.943Z</time></trkpt><trkpt lat="37.9531412" lon="13.7852654"><ele>25.0</ele><time>2026-05-01T09:36:53.943Z</time></trkpt><trkpt lat="37.9533822" lon="13.7853538"><ele>23.5</ele><time>2026-05-01T09:36:54.942Z</time></trkpt><trkpt lat="37.9536104" lon="13.7854303"><ele>22.0</ele><time>2026-05-01T09:36:55.942Z</time></trkpt><trkpt lat="37.9538299" lon="13.7855034"><ele>22.0</ele><time>2026-05-01T09:36:56.942Z</time></trkpt><trkpt lat="37.954046" lon="13.7855812"><ele>22.0</ele><time>2026-05-01T09:36:57.942Z</time></trkpt><trkpt lat="37.9542676" lon="13.7856545"><ele>23.5</ele><time>2026-05-01T09:36:58.942Z</time></trkpt><trkpt lat="37.9544964" lon="13.7857113"><ele>25.0</ele><time>2026-05-01T09:36:59.943Z</time></trkpt><trkpt lat="37.9547231" lon="13.785737"><ele>25.0</ele><time>2026-05-01T09:37:00.943Z</time></trkpt><trkpt lat="37.9549326" lon="13.7857502"><ele>25.0</ele><time>2026-05-01T09:37:01.942Z</time></trkpt><trkpt lat="37.9551087" lon="13.7857581"><ele>25.0</ele><time>2026-05-01T09:37:02.942Z</time></trkpt><trkpt lat="37.9552559" lon="13.785774"><ele>24.333333333333336</ele><time>2026-05-01T09:37:03.942Z</time></trkpt><trkpt lat="37.9553887" lon="13.7858523"><ele>23.666666666666668</ele><time>2026-05-01T09:37:04.943Z</time></trkpt><trkpt lat="37.9555068" lon="13.7860124"><ele>23.0</ele><time>2026-05-01T09:37:05.942Z</time></trkpt><trkpt lat="37.9556188" lon="13.7862058"><ele>26.0</ele><time>2026-05-01T09:37:06.942Z</time></trkpt><trkpt lat="37.9557105" lon="13.7864246"><ele>29.0</ele><time>2026-05-01T09:37:07.942Z</time></trkpt><trkpt lat="37.9557859" lon="13.7866625"><ele>32.0</ele><time>2026-05-01T09:37:08.942Z</time></trkpt><trkpt lat="37.9558347" lon="13.7869029"><ele>33.0</ele><time>2026-05-01T09:37:09.943Z</time></trkpt><trkpt lat="37.9558945" lon="13.7871178"><ele>34.0</ele><time>2026-05-01T09:37:10.943Z</time></trkpt><trkpt lat="37.9560069" lon="13.7873141"><ele>35.0</ele><time>2026-05-01T09:37:11.942Z</time></trkpt><trkpt lat="37.9561628" lon="13.7874813"><ele>35.0</ele><time>2026-05-01T09:37:12.943Z</time></trkpt><trkpt lat="37.9563539" lon="13.7876362"><ele>35.0</ele><time>2026-05-01T09:37:13.943Z</time></trkpt><trkpt lat="37.9565258" lon="13.7877848"><ele>35.0</ele><time>2026-05-01T09:37:14.942Z</time></trkpt><trkpt lat="37.9566659" lon="13.7879614"><ele>35.666666666666664</ele><time>2026-05-01T09:37:15.943Z</time></trkpt><trkpt lat="37.9567746" lon="13.7881585"><ele>36.333333333333336</ele><time>2026-05-01T09:37:16.942Z</time></trkpt><trkpt lat="37.9568692" lon="13.788352"><ele>37.0</ele><time>2026-05-01T09:37:17.943Z</time></trkpt><trkpt lat="37.9569819" lon="13.7885393"><ele>40.0</ele><time>2026-05-01T09:37:18.942Z</time></trkpt><trkpt lat="37.9571269" lon="13.7887042"><ele>43.0</ele><time>2026-05-01T09:37:19.942Z</time></trkpt><trkpt lat="37.9572888" lon="13.7888652"><ele>46.0</ele><time>2026-05-01T09:37:20.943Z</time></trkpt><trkpt lat="37.9574442" lon="13.7890258"><ele>44.333333333333336</ele><time>2026-05-01T09:37:21.942Z</time></trkpt><trkpt lat="37.9575781" lon="13.7891826"><ele>42.666666666666664</ele><time>2026-05-01T09:37:22.943Z</time></trkpt><trkpt lat="37.9577017" lon="13.7892962"><ele>41.0</ele><time>2026-05-01T09:37:23.942Z</time></trkpt><trkpt lat="37.9578428" lon="13.7893557"><ele>46.33333333333333</ele><time>2026-05-01T09:37:24.943Z</time></trkpt><trkpt lat="37.9580327" lon="13.7893945"><ele>51.666666666666664</ele><time>2026-05-01T09:37:25.943Z</time></trkpt><trkpt lat="37.9582655" lon="13.7893915"><ele>57.0</ele><time>2026-05-01T09:37:26.943Z</time></trkpt><trkpt lat="37.9585249" lon="13.7893744"><ele>57.5</ele><time>2026-05-01T09:37:27.942Z</time></trkpt><trkpt lat="37.9587825" lon="13.7893702"><ele>58.0</ele><time>2026-05-01T09:37:28.943Z</time></trkpt><trkpt lat="37.9590146" lon="13.7893525"><ele>57.0</ele><time>2026-05-01T09:37:29.942Z</time></trkpt><trkpt lat="37.9592263" lon="13.7893193"><ele>56.0</ele><time>2026-05-01T09:37:30.942Z</time></trkpt><trkpt lat="37.9594275" lon="13.789223"><ele>55.0</ele><time>2026-05-01T09:37:31.942Z</time></trkpt><trkpt lat="37.9596162" lon="13.7890557"><ele>55.0</ele><time>2026-05-01T09:37:32.942Z</time></trkpt><trkpt lat="37.9598237" lon="13.7888558"><ele>55.0</ele><time>2026-05-01T09:37:33.942Z</time></trkpt><trkpt lat="37.9600552" lon="13.7886159"><ele>56.0</ele><time>2026-05-01T09:37:34.942Z</time></trkpt><trkpt lat="37.9602953" lon="13.7883831"><ele>57.0</ele><time>2026-05-01T09:37:35.943Z</time></trkpt><trkpt lat="37.9605069" lon="13.7881861"><ele>57.0</ele><time>2026-05-01T09:37:36.943Z</time></trkpt><trkpt lat="37.9606916" lon="13.7880084"><ele>57.0</ele><time>2026-05-01T09:37:37.942Z</time></trkpt><trkpt lat="37.9608822" lon="13.7878642"><ele>54.0</ele><time>2026-05-01T09:37:38.943Z</time></trkpt><trkpt lat="37.9610966" lon="13.7877529"><ele>51.0</ele><time>2026-05-01T09:37:39.943Z</time></trkpt><trkpt lat="37.9613239" lon="13.7876626"><ele>51.0</ele><time>2026-05-01T09:37:40.942Z</time></trkpt><trkpt lat="37.9615621" lon="13.7875822"><ele>51.0</ele><time>2026-05-01T09:37:41.942Z</time></trkpt><trkpt lat="37.9617834" lon="13.7875157"><ele>53.0</ele><time>2026-05-01T09:37:42.942Z</time></trkpt><trkpt lat="37.9619678" lon="13.7874401"><ele>55.0</ele><time>2026-05-01T09:37:43.942Z</time></trkpt><trkpt lat="37.9621322" lon="13.7873113"><ele>57.0</ele><time>2026-05-01T09:37:44.943Z</time></trkpt><trkpt lat="37.9622743" lon="13.7871269"><ele>57.0</ele><time>2026-05-01T09:37:45.943Z</time></trkpt><trkpt lat="37.9624048" lon="13.7869469"><ele>57.0</ele><time>2026-05-01T09:37:46.943Z</time></trkpt><trkpt lat="37.9625233" lon="13.7867992"><ele>57.0</ele><time>2026-05-01T09:37:47.943Z</time></trkpt><trkpt lat="37.9626422" lon="13.7867328"><ele>53.5</ele><time>2026-05-01T09:37:48.943Z</time></trkpt><trkpt lat="37.9627619" lon="13.7867053"><ele>50.0</ele><time>2026-05-01T09:37:49.942Z</time></trkpt><trkpt lat="37.9628855" lon="13.7867153"><ele>46.5</ele><time>2026-05-01T09:37:50.942Z</time></trkpt><trkpt lat="37.9629908" lon="13.7867813"><ele>43.0</ele><time>2026-05-01T09:37:51.942Z</time></trkpt><trkpt lat="37.9630683" lon="13.7868848"><ele>43.0</ele><time>2026-05-01T09:37:52.942Z</time></trkpt><trkpt lat="37.9631143" lon="13.7870522"><ele>43.0</ele><time>2026-05-01T09:37:53.943Z</time></trkpt><trkpt lat="37.9631431" lon="13.7872385"><ele>43.0</ele><time>2026-05-01T09:37:54.943Z</time></trkpt><trkpt lat="37.9631379" lon="13.7874689"><ele>43.0</ele><time>2026-05-01T09:37:55.943Z</time></trkpt><trkpt lat="37.9631189" lon="13.7877074"><ele>43.0</ele><time>2026-05-01T09:37:56.942Z</time></trkpt><trkpt lat="37.9631411" lon="13.787933"><ele>43.0</ele><time>2026-05-01T09:37:57.942Z</time></trkpt><trkpt lat="37.9632197" lon="13.7881391"><ele>43.0</ele><time>2026-05-01T09:37:58.942Z</time></trkpt><trkpt lat="37.9633206" lon="13.7883143"><ele>43.0</ele><time>2026-05-01T09:37:59.943Z</time></trkpt><trkpt lat="37.9634128" lon="13.7884657"><ele>43.0</ele><time>2026-05-01T09:38:00.943Z</time></trkpt><trkpt lat="37.9634666" lon="13.7886174"><ele>43.333333333333336</ele><time>2026-05-01T09:38:01.943Z</time></trkpt><trkpt lat="37.9634702" lon="13.7887933"><ele>43.666666666666664</ele><time>2026-05-01T09:38:02.943Z</time></trkpt><trkpt lat="37.9634202" lon="13.7890002"><ele>44.0</ele><time>2026-05-01T09:38:03.942Z</time></trkpt><trkpt lat="37.9633334" lon="13.7892306"><ele>43.666666666666664</ele><time>2026-05-01T09:38:04.943Z</time></trkpt><trkpt lat="37.9632443" lon="13.7894689"><ele>43.333333333333336</ele><time>2026-05-01T09:38:05.942Z</time></trkpt><trkpt lat="37.963194" lon="13.7897097"><ele>43.0</ele><time>2026-05-01T09:38:06.942Z</time></trkpt><trkpt lat="37.9631867" lon="13.7899611"><ele>44.0</ele><time>2026-05-01T09:38:07.942Z</time></trkpt><trkpt lat="37.9632361" lon="13.7902152"><ele>45.0</ele><time>2026-05-01T09:38:08.942Z</time></trkpt><trkpt lat="37.9633267" lon="13.7904906"><ele>46.0</ele><time>2026-05-01T09:38:09.943Z</time></trkpt><trkpt lat="37.9634381" lon="13.7907826"><ele>39.0</ele><time>2026-05-01T09:38:10.943Z</time></trkpt><trkpt lat="37.9635238" lon="13.7910753"><ele>32.0</ele><time>2026-05-01T09:38:11.943Z</time></trkpt><trkpt lat="37.9635796" lon="13.7913603"><ele>32.0</ele><time>2026-05-01T09:38:12.943Z</time></trkpt><trkpt lat="37.963609" lon="13.7916284"><ele>32.0</ele><time>2026-05-01T09:38:13.942Z</time></trkpt><trkpt lat="37.9636067" lon="13.7919049"><ele>32.0</ele><time>2026-05-01T09:38:14.943Z</time></trkpt><trkpt lat="37.9635795" lon="13.7921931"><ele>32.0</ele><time>2026-05-01T09:38:15.943Z</time></trkpt><trkpt lat="37.9635476" lon="13.7924679"><ele>32.0</ele><time>2026-05-01T09:38:16.942Z</time></trkpt><trkpt lat="37.9635448" lon="13.7927254"><ele>32.0</ele><time>2026-05-01T09:38:17.942Z</time></trkpt><trkpt lat="37.9635854" lon="13.7929768"><ele>32.0</ele><time>2026-05-01T09:38:18.942Z</time></trkpt><trkpt lat="37.963679" lon="13.793219"><ele>32.0</ele><time>2026-05-01T09:38:19.942Z</time></trkpt><trkpt lat="37.9638204" lon="13.7934554"><ele>32.0</ele><time>2026-05-01T09:38:20.943Z</time></trkpt><trkpt lat="37.9639601" lon="13.7936704"><ele>32.33333333333333</ele><time>2026-05-01T09:38:21.942Z</time></trkpt><trkpt lat="37.964083" lon="13.7938761"><ele>32.666666666666664</ele><time>2026-05-01T09:38:22.943Z</time></trkpt><trkpt lat="37.9641876" lon="13.7940711"><ele>33.0</ele><time>2026-05-01T09:38:23.942Z</time></trkpt><trkpt lat="37.9642617" lon="13.7942799"><ele>28.666666666666668</ele><time>2026-05-01T09:38:24.942Z</time></trkpt><trkpt lat="37.9643101" lon="13.7945129"><ele>24.333333333333336</ele><time>2026-05-01T09:38:25.942Z</time></trkpt><trkpt lat="37.9643461" lon="13.7947502"><ele>20.0</ele><time>2026-05-01T09:38:26.942Z</time></trkpt><trkpt lat="37.964386" lon="13.7949709"><ele>21.333333333333336</ele><time>2026-05-01T09:38:27.942Z</time></trkpt><trkpt lat="37.9644452" lon="13.7952025"><ele>22.666666666666668</ele><time>2026-05-01T09:38:28.943Z</time></trkpt><trkpt lat="37.964513" lon="13.7954442"><ele>24.0</ele><time>2026-05-01T09:38:29.942Z</time></trkpt><trkpt lat="37.964584" lon="13.7956622"><ele>24.0</ele><time>2026-05-01T09:38:30.943Z</time></trkpt><trkpt lat="37.964653" lon="13.795851"><ele>24.0</ele><time>2026-05-01T09:38:31.943Z</time></trkpt><trkpt lat="37.9647126" lon="13.7960292"><ele>24.0</ele><time>2026-05-01T09:38:32.942Z</time></trkpt><trkpt lat="37.9647566" lon="13.7962073"><ele>23.75</ele><time>2026-05-01T09:38:33.942Z</time></trkpt><trkpt lat="37.9647744" lon="13.7963902"><ele>23.5</ele><time>2026-05-01T09:38:34.942Z</time></trkpt><trkpt lat="37.9647526" lon="13.7965643"><ele>23.25</ele><time>2026-05-01T09:38:35.943Z</time></trkpt><trkpt lat="37.9646978" lon="13.7967403"><ele>23.0</ele><time>2026-05-01T09:38:36.942Z</time></trkpt><trkpt lat="37.9646229" lon="13.7969058"><ele>22.25</ele><time>2026-05-01T09:38:37.942Z</time></trkpt><trkpt lat="37.9645435" lon="13.7970548"><ele>21.5</ele><time>2026-05-01T09:38:38.943Z</time></trkpt><trkpt lat="37.9644732" lon="13.7971867"><ele>20.75</ele><time>2026-05-01T09:38:39.942Z</time></trkpt><trkpt lat="37.9644083" lon="13.7973241"><ele>20.0</ele><time>2026-05-01T09:38:40.943Z</time></trkpt><trkpt lat="37.9643421" lon="13.7974667"><ele>20.0</ele><time>2026-05-01T09:38:41.943Z</time></trkpt><trkpt lat="37.9642759" lon="13.7976216"><ele>20.0</ele><time>2026-05-01T09:38:42.942Z</time></trkpt><trkpt lat="37.9642342" lon="13.7977983"><ele>20.0</ele><time>2026-05-01T09:38:43.943Z</time></trkpt><trkpt lat="37.9642238" lon="13.7979747"><ele>20.0</ele><time>2026-05-01T09:38:44.942Z</time></trkpt><trkpt lat="37.9642467" lon="13.7981541"><ele>19.75</ele><time>2026-05-01T09:38:45.943Z</time></trkpt><trkpt lat="37.9642849" lon="13.7983185"><ele>19.5</ele><time>2026-05-01T09:38:46.942Z</time></trkpt><trkpt lat="37.9643381" lon="13.7984655"><ele>19.25</ele><time>2026-05-01T09:38:47.942Z</time></trkpt><trkpt lat="37.9644148" lon="13.7986175"><ele>19.0</ele><time>2026-05-01T09:38:48.943Z</time></trkpt><trkpt lat="37.9645378" lon="13.7987976"><ele>20.0</ele><time>2026-05-01T09:38:49.943Z</time></trkpt><trkpt lat="37.9646691" lon="13.7990046"><ele>21.0</ele><time>2026-05-01T09:38:50.943Z</time></trkpt><trkpt lat="37.9648051" lon="13.7991945"><ele>22.0</ele><time>2026-05-01T09:38:51.943Z</time></trkpt><trkpt lat="37.9649337" lon="13.7993678"><ele>20.333333333333332</ele><time>2026-05-01T09:38:52.95Z</time></trkpt><trkpt lat="37.9650509" lon="13.7995451"><ele>18.666666666666668</ele><time>2026-05-01T09:38:53.951Z</time></trkpt><trkpt lat="37.9651439" lon="13.7997282"><ele>17.0</ele><time>2026-05-01T09:38:54.95Z</time></trkpt><trkpt lat="37.9652175" lon="13.7999121"><ele>17.0</ele><time>2026-05-01T09:38:55.95Z</time></trkpt><trkpt lat="37.9652736" lon="13.8000913"><ele>17.0</ele><time>2026-05-01T09:38:56.951Z</time></trkpt><trkpt lat="37.9653151" lon="13.8002564"><ele>17.0</ele><time>2026-05-01T09:38:57.95Z</time></trkpt><trkpt lat="37.9653548" lon="13.800416"><ele>17.0</ele><time>2026-05-01T09:38:58.951Z</time></trkpt><trkpt lat="37.9653829" lon="13.8005893"><ele>17.0</ele><time>2026-05-01T09:38:59.951Z</time></trkpt><trkpt lat="37.9654018" lon="13.8007773"><ele>17.0</ele><time>2026-05-01T09:39:00.95Z</time></trkpt><trkpt lat="37.9654152" lon="13.8009737"><ele>17.0</ele><time>2026-05-01T09:39:01.95Z</time></trkpt><trkpt lat="37.9654286" lon="13.8011967"><ele>17.0</ele><time>2026-05-01T09:39:02.95Z</time></trkpt><trkpt lat="37.9654389" lon="13.8014585"><ele>17.0</ele><time>2026-05-01T09:39:03.95Z</time></trkpt><trkpt lat="37.9654358" lon="13.8017578"><ele>17.0</ele><time>2026-05-01T09:39:04.951Z</time></trkpt><trkpt lat="37.9654297" lon="13.8020583"><ele>17.0</ele><time>2026-05-01T09:39:05.95Z</time></trkpt><trkpt lat="37.9654411" lon="13.8023519"><ele>17.0</ele><time>2026-05-01T09:39:06.951Z</time></trkpt><trkpt lat="37.9654755" lon="13.802663"><ele>18.5</ele><time>2026-05-01T09:39:07.951Z</time></trkpt><trkpt lat="37.9655356" lon="13.803"><ele>20.0</ele><time>2026-05-01T09:39:08.951Z</time></trkpt><trkpt lat="37.9656334" lon="13.803359"><ele>18.5</ele><time>2026-05-01T09:39:09.95Z</time></trkpt><trkpt lat="37.9657466" lon="13.8037083"><ele>17.0</ele><time>2026-05-01T09:39:10.95Z</time></trkpt><trkpt lat="37.9658681" lon="13.804033"><ele>18.0</ele><time>2026-05-01T09:39:11.95Z</time></trkpt><trkpt lat="37.9660001" lon="13.8043313"><ele>19.0</ele><time>2026-05-01T09:39:12.95Z</time></trkpt><trkpt lat="37.9661418" lon="13.8046228"><ele>19.0</ele><time>2026-05-01T09:39:13.951Z</time></trkpt><trkpt lat="37.9662874" lon="13.8049176"><ele>19.0</ele><time>2026-05-01T09:39:14.95Z</time></trkpt><trkpt lat="37.9664291" lon="13.8052103"><ele>20.0</ele><time>2026-05-01T09:39:15.95Z</time></trkpt><trkpt lat="37.9665614" lon="13.8054991"><ele>21.0</ele><time>2026-05-01T09:39:16.951Z</time></trkpt><trkpt lat="37.966694" lon="13.8057809"><ele>19.5</ele><time>2026-05-01T09:39:17.951Z</time></trkpt><trkpt lat="37.9668231" lon="13.8060498"><ele>18.0</ele><time>2026-05-01T09:39:18.95Z</time></trkpt><trkpt lat="37.9669417" lon="13.8062968"><ele>18.0</ele><time>2026-05-01T09:39:19.951Z</time></trkpt><trkpt lat="37.9670535" lon="13.8065291"><ele>18.0</ele><time>2026-05-01T09:39:20.95Z</time></trkpt><trkpt lat="37.9671621" lon="13.806749"><ele>18.0</ele><time>2026-05-01T09:39:21.951Z</time></trkpt><trkpt lat="37.9672673" lon="13.806969"><ele>18.666666666666668</ele><time>2026-05-01T09:39:22.95Z</time></trkpt><trkpt lat="37.96737" lon="13.8071948"><ele>19.333333333333336</ele><time>2026-05-01T09:39:23.95Z</time></trkpt><trkpt lat="37.9674783" lon="13.8074244"><ele>20.0</ele><time>2026-05-01T09:39:24.95Z</time></trkpt><trkpt lat="37.9675828" lon="13.807661"><ele>18.666666666666668</ele><time>2026-05-01T09:39:25.951Z</time></trkpt><trkpt lat="37.9676842" lon="13.8079009"><ele>17.333333333333332</ele><time>2026-05-01T09:39:26.951Z</time></trkpt><trkpt lat="37.9677875" lon="13.8081431"><ele>16.0</ele><time>2026-05-01T09:39:27.95Z</time></trkpt><trkpt lat="37.967886" lon="13.8083792"><ele>16.5</ele><time>2026-05-01T09:39:28.95Z</time></trkpt><trkpt lat="37.9679673" lon="13.8085764"><ele>17.0</ele><time>2026-05-01T09:39:29.951Z</time></trkpt><trkpt lat="37.9680288" lon="13.8087286"><ele>17.5</ele><time>2026-05-01T09:39:30.95Z</time></trkpt><trkpt lat="37.9680775" lon="13.8088355"><ele>18.0</ele><time>2026-05-01T09:39:31.951Z</time></trkpt><trkpt lat="37.9681252" lon="13.8089168"><ele>18.0</ele><time>2026-05-01T09:39:32.951Z</time></trkpt><trkpt lat="37.9682418" lon="13.8089386"><ele>18.0</ele><time>2026-05-01T09:39:34.951Z</time></trkpt><trkpt lat="37.9683295" lon="13.8088841"><ele>18.0</ele><time>2026-05-01T09:39:35.95Z</time></trkpt><trkpt lat="37.9684419" lon="13.8087907"><ele>18.0</ele><time>2026-05-01T09:39:36.951Z</time></trkpt><trkpt lat="37.9685979" lon="13.8086952"><ele>16.666666666666668</ele><time>2026-05-01T09:39:37.95Z</time></trkpt><trkpt lat="37.968762" lon="13.8085814"><ele>15.333333333333334</ele><time>2026-05-01T09:39:38.951Z</time></trkpt><trkpt lat="37.9689168" lon="13.8084466"><ele>14.0</ele><time>2026-05-01T09:39:39.95Z</time></trkpt><trkpt lat="37.9690576" lon="13.8083158"><ele>13.666666666666668</ele><time>2026-05-01T09:39:40.951Z</time></trkpt><trkpt lat="37.9692085" lon="13.8082092"><ele>13.333333333333332</ele><time>2026-05-01T09:39:41.951Z</time></trkpt><trkpt lat="37.9693845" lon="13.8081215"><ele>13.0</ele><time>2026-05-01T09:39:42.95Z</time></trkpt><trkpt lat="37.9695796" lon="13.8080797"><ele>13.0</ele><time>2026-05-01T09:39:43.95Z</time></trkpt><trkpt lat="37.9697945" lon="13.8080492"><ele>13.0</ele><time>2026-05-01T09:39:44.951Z</time></trkpt><trkpt lat="37.9700118" lon="13.8080186"><ele>13.0</ele><time>2026-05-01T09:39:45.951Z</time></trkpt><trkpt lat="37.970222" lon="13.80799"><ele>12.333333333333332</ele><time>2026-05-01T09:39:46.951Z</time></trkpt><trkpt lat="37.9704272" lon="13.8079309"><ele>11.666666666666666</ele><time>2026-05-01T09:39:47.95Z</time></trkpt><trkpt lat="37.9706212" lon="13.8078391"><ele>11.0</ele><time>2026-05-01T09:39:48.951Z</time></trkpt><trkpt lat="37.9708058" lon="13.8077026"><ele>11.0</ele><time>2026-05-01T09:39:49.95Z</time></trkpt><trkpt lat="37.9709752" lon="13.807551"><ele>11.0</ele><time>2026-05-01T09:39:50.95Z</time></trkpt><trkpt lat="37.9711422" lon="13.8073928"><ele>11.0</ele><time>2026-05-01T09:39:51.951Z</time></trkpt><trkpt lat="37.9713103" lon="13.8072382"><ele>11.0</ele><time>2026-05-01T09:39:52.951Z</time></trkpt><trkpt lat="37.9714761" lon="13.8070863"><ele>11.0</ele><time>2026-05-01T09:39:53.95Z</time></trkpt><trkpt lat="37.9716397" lon="13.8069548"><ele>11.0</ele><time>2026-05-01T09:39:54.95Z</time></trkpt><trkpt lat="37.9718004" lon="13.8068407"><ele>10.5</ele><time>2026-05-01T09:39:55.951Z</time></trkpt><trkpt lat="37.9719549" lon="13.8067478"><ele>10.0</ele><time>2026-05-01T09:39:56.951Z</time></trkpt><trkpt lat="37.9720824" lon="13.8066867"><ele>9.5</ele><time>2026-05-01T09:39:57.95Z</time></trkpt><trkpt lat="37.972182" lon="13.8066493"><ele>9.0</ele><time>2026-05-01T09:39:58.951Z</time></trkpt><trkpt lat="37.9722643" lon="13.806637"><ele>9.0</ele><time>2026-05-01T09:39:59.95Z</time></trkpt><trkpt lat="37.9723395" lon="13.8066742"><ele>9.0</ele><time>2026-05-01T09:40:00.951Z</time></trkpt><trkpt lat="37.9724258" lon="13.8067376"><ele>9.0</ele><time>2026-05-01T09:40:01.951Z</time></trkpt><trkpt lat="37.9724918" lon="13.8067851"><ele>9.0</ele><time>2026-05-01T09:40:02.951Z</time></trkpt><trkpt lat="37.9725811" lon="13.8067779"><ele>9.0</ele><time>2026-05-01T09:40:04.951Z</time></trkpt><trkpt lat="37.9726907" lon="13.8066903"><ele>8.666666666666666</ele><time>2026-05-01T09:40:06.95Z</time></trkpt><trkpt lat="37.9727398" lon="13.8066116"><ele>8.333333333333334</ele><time>2026-05-01T09:40:07.951Z</time></trkpt><trkpt lat="37.9727691" lon="13.8065073"><ele>8.0</ele><time>2026-05-01T09:40:08.951Z</time></trkpt><trkpt lat="37.9727652" lon="13.8064122"><ele>7.666666666666667</ele><time>2026-05-01T09:40:09.95Z</time></trkpt><trkpt lat="37.9727306" lon="13.806313"><ele>7.333333333333334</ele><time>2026-05-01T09:40:10.951Z</time></trkpt><trkpt lat="37.9726763" lon="13.8062471"><ele>7.0</ele><time>2026-05-01T09:40:11.95Z</time></trkpt><trkpt lat="37.9725799" lon="13.8061769"><ele>7.333333333333334</ele><time>2026-05-01T09:40:13.95Z</time></trkpt><trkpt lat="37.9725126" lon="13.806155"><ele>7.666666666666667</ele><time>2026-05-01T09:40:16.95Z</time></trkpt><trkpt lat="37.9724293" lon="13.8062131"><ele>8.0</ele><time>2026-05-01T09:40:18.95Z</time></trkpt><trkpt lat="37.9723459" lon="13.8063452"><ele>8.333333333333334</ele><time>2026-05-01T09:40:20.95Z</time></trkpt><trkpt lat="37.9723257" lon="13.8064365"><ele>8.666666666666666</ele><time>2026-05-01T09:40:21.951Z</time></trkpt><trkpt lat="37.9723295" lon="13.8065292"><ele>9.0</ele><time>2026-05-01T09:40:22.95Z</time></trkpt><trkpt lat="37.9723628" lon="13.8066185"><ele>9.0</ele><time>2026-05-01T09:40:23.95Z</time></trkpt><trkpt lat="37.9724162" lon="13.806687"><ele>9.0</ele><time>2026-05-01T09:40:24.951Z</time></trkpt><trkpt lat="37.972476" lon="13.8067455"><ele>9.0</ele><time>2026-05-01T09:40:25.951Z</time></trkpt><trkpt lat="37.9725381" lon="13.8068175"><ele>9.0</ele><time>2026-05-01T09:40:26.95Z</time></trkpt><trkpt lat="37.9725889" lon="13.8069233"><ele>9.0</ele><time>2026-05-01T09:40:27.951Z</time></trkpt><trkpt lat="37.9726125" lon="13.807065"><ele>9.0</ele><time>2026-05-01T09:40:28.95Z</time></trkpt><trkpt lat="37.9726257" lon="13.8072325"><ele>8.333333333333334</ele><time>2026-05-01T09:40:29.951Z</time></trkpt><trkpt lat="37.972644" lon="13.807427"><ele>7.666666666666667</ele><time>2026-05-01T09:40:30.951Z</time></trkpt><trkpt lat="37.9726859" lon="13.80764"><ele>7.0</ele><time>2026-05-01T09:40:31.95Z</time></trkpt><trkpt lat="37.9727527" lon="13.8078372"><ele>6.666666666666667</ele><time>2026-05-01T09:40:32.951Z</time></trkpt><trkpt lat="37.9728415" lon="13.8080289"><ele>6.333333333333334</ele><time>2026-05-01T09:40:33.95Z</time></trkpt><trkpt lat="37.97297" lon="13.8082112"><ele>6.0</ele><time>2026-05-01T09:40:34.95Z</time></trkpt><trkpt lat="37.9731216" lon="13.808362"><ele>6.0</ele><time>2026-05-01T09:40:35.95Z</time></trkpt><trkpt lat="37.9732898" lon="13.8084765"><ele>6.0</ele><time>2026-05-01T09:40:36.95Z</time></trkpt><trkpt lat="37.9734818" lon="13.8085578"><ele>6.0</ele><time>2026-05-01T09:40:37.95Z</time></trkpt><trkpt lat="37.9736941" lon="13.8085914"><ele>6.0</ele><time>2026-05-01T09:40:38.951Z</time></trkpt><trkpt lat="37.9739014" lon="13.8085789"><ele>6.0</ele><time>2026-05-01T09:40:39.95Z</time></trkpt><trkpt lat="37.9741161" lon="13.8085142"><ele>6.0</ele><time>2026-05-01T09:40:40.95Z</time></trkpt><trkpt lat="37.9743415" lon="13.8084216"><ele>7.5</ele><time>2026-05-01T09:40:41.95Z</time></trkpt><trkpt lat="37.9745761" lon="13.8083214"><ele>9.0</ele><time>2026-05-01T09:40:42.951Z</time></trkpt><trkpt lat="37.9748138" lon="13.8082176"><ele>7.5</ele><time>2026-05-01T09:40:43.951Z</time></trkpt><trkpt lat="37.9750498" lon="13.808116"><ele>6.0</ele><time>2026-05-01T09:40:44.95Z</time></trkpt><trkpt lat="37.9752676" lon="13.808019"><ele>6.0</ele><time>2026-05-01T09:40:45.951Z</time></trkpt><trkpt lat="37.9754577" lon="13.8079222"><ele>6.0</ele><time>2026-05-01T09:40:46.951Z</time></trkpt><trkpt lat="37.9756158" lon="13.8078074"><ele>6.0</ele><time>2026-05-01T09:40:47.95Z</time></trkpt><trkpt lat="37.9757569" lon="13.807637"><ele>5.666666666666667</ele><time>2026-05-01T09:40:48.95Z</time></trkpt><trkpt lat="37.9758694" lon="13.8074218"><ele>5.333333333333334</ele><time>2026-05-01T09:40:49.951Z</time></trkpt><trkpt lat="37.9759357" lon="13.8072088"><ele>5.0</ele><time>2026-05-01T09:40:50.951Z</time></trkpt><trkpt lat="37.9759621" lon="13.8069861"><ele>5.0</ele><time>2026-05-01T09:40:51.95Z</time></trkpt><trkpt lat="37.9759476" lon="13.8067829"><ele>5.0</ele><time>2026-05-01T09:40:52.95Z</time></trkpt><trkpt lat="37.9758939" lon="13.8066064"><ele>5.0</ele><time>2026-05-01T09:40:53.951Z</time></trkpt><trkpt lat="37.9758033" lon="13.8064582"><ele>5.2</ele><time>2026-05-01T09:40:54.951Z</time></trkpt><trkpt lat="37.9757158" lon="13.8063256"><ele>5.4</ele><time>2026-05-01T09:40:55.951Z</time></trkpt><trkpt lat="37.975648" lon="13.8062441"><ele>5.6</ele><time>2026-05-01T09:40:56.95Z</time></trkpt><trkpt lat="37.975603" lon="13.8061558"><ele>5.8</ele><time>2026-05-01T09:40:57.951Z</time></trkpt><trkpt lat="37.9756063" lon="13.8060489"><ele>6.0</ele><time>2026-05-01T09:40:58.95Z</time></trkpt><trkpt lat="37.9756118" lon="13.8059135"><ele>6.0</ele><time>2026-05-01T09:40:59.95Z</time></trkpt><trkpt lat="37.975579" lon="13.8057951"><ele>6.0</ele><time>2026-05-01T09:41:00.951Z</time></trkpt><trkpt lat="37.9755054" lon="13.8057046"><ele>6.0</ele><time>2026-05-01T09:41:01.951Z</time></trkpt><trkpt lat="37.9753934" lon="13.8056695"><ele>6.0</ele><time>2026-05-01T09:41:02.95Z</time></trkpt><trkpt lat="37.9752871" lon="13.8057"><ele>6.0</ele><time>2026-05-01T09:41:03.95Z</time></trkpt><trkpt lat="37.9752034" lon="13.8057735"><ele>6.0</ele><time>2026-05-01T09:41:04.95Z</time></trkpt><trkpt lat="37.9751608" lon="13.8058862"><ele>6.0</ele><time>2026-05-01T09:41:05.95Z</time></trkpt><trkpt lat="37.9751652" lon="13.8060195"><ele>6.0</ele><time>2026-05-01T09:41:06.95Z</time></trkpt><trkpt lat="37.9752208" lon="13.8061408"><ele>6.0</ele><time>2026-05-01T09:41:07.95Z</time></trkpt><trkpt lat="37.975321" lon="13.8062589"><ele>6.333333333333334</ele><time>2026-05-01T09:41:08.95Z</time></trkpt><trkpt lat="37.9754686" lon="13.8063641"><ele>6.666666666666667</ele><time>2026-05-01T09:41:09.95Z</time></trkpt><trkpt lat="37.9756083" lon="13.8064644"><ele>7.0</ele><time>2026-05-01T09:41:10.951Z</time></trkpt><trkpt lat="37.9757205" lon="13.8065721"><ele>7.0</ele><time>2026-05-01T09:41:11.95Z</time></trkpt><trkpt lat="37.975788" lon="13.8067233"><ele>7.0</ele><time>2026-05-01T09:41:12.95Z</time></trkpt><trkpt lat="37.9758211" lon="13.8069034"><ele>7.0</ele><time>2026-05-01T09:41:13.95Z</time></trkpt><trkpt lat="37.9758138" lon="13.8070825"><ele>7.0</ele><time>2026-05-01T09:41:14.95Z</time></trkpt><trkpt lat="37.9757594" lon="13.8072586"><ele>6.666666666666667</ele><time>2026-05-01T09:41:15.95Z</time></trkpt><trkpt lat="37.9756645" lon="13.807402"><ele>6.333333333333334</ele><time>2026-05-01T09:41:16.95Z</time></trkpt><trkpt lat="37.975532" lon="13.807515"><ele>6.0</ele><time>2026-05-01T09:41:17.95Z</time></trkpt><trkpt lat="37.9753779" lon="13.8076023"><ele>6.0</ele><time>2026-05-01T09:41:18.95Z</time></trkpt><trkpt lat="37.9752042" lon="13.8076277"><ele>6.0</ele><time>2026-05-01T09:41:19.95Z</time></trkpt><trkpt lat="37.97502" lon="13.8075774"><ele>6.0</ele><time>2026-05-01T09:41:20.95Z</time></trkpt><trkpt lat="37.9748601" lon="13.8074926"><ele>7.0</ele><time>2026-05-01T09:41:21.951Z</time></trkpt><trkpt lat="37.9747263" lon="13.8073389"><ele>8.0</ele><time>2026-05-01T09:41:22.951Z</time></trkpt><trkpt lat="37.9746252" lon="13.8071411"><ele>9.0</ele><time>2026-05-01T09:41:23.95Z</time></trkpt><trkpt lat="37.9745476" lon="13.8068987"><ele>8.0</ele><time>2026-05-01T09:41:24.95Z</time></trkpt><trkpt lat="37.9744643" lon="13.8066004"><ele>7.0</ele><time>2026-05-01T09:41:25.95Z</time></trkpt><trkpt lat="37.9743669" lon="13.8062694"><ele>7.0</ele><time>2026-05-01T09:41:26.95Z</time></trkpt><trkpt lat="37.9742615" lon="13.8059274"><ele>7.0</ele><time>2026-05-01T09:41:27.951Z</time></trkpt><trkpt lat="37.9741423" lon="13.8055756"><ele>7.0</ele><time>2026-05-01T09:41:28.951Z</time></trkpt><trkpt lat="37.9740363" lon="13.8052248"><ele>7.0</ele><time>2026-05-01T09:41:29.95Z</time></trkpt><trkpt lat="37.9739355" lon="13.8048768"><ele>7.0</ele><time>2026-05-01T09:41:30.95Z</time></trkpt><trkpt lat="37.9738393" lon="13.8045359"><ele>7.0</ele><time>2026-05-01T09:41:31.95Z</time></trkpt><trkpt lat="37.9737418" lon="13.8041992"><ele>7.0</ele><time>2026-05-01T09:41:32.95Z</time></trkpt><trkpt lat="37.9736411" lon="13.8038605"><ele>7.0</ele><time>2026-05-01T09:41:33.949Z</time></trkpt><trkpt lat="37.9735398" lon="13.8035223"><ele>7.5</ele><time>2026-05-01T09:41:34.95Z</time></trkpt><trkpt lat="37.9734404" lon="13.8031867"><ele>8.0</ele><time>2026-05-01T09:41:35.95Z</time></trkpt><trkpt lat="37.9733425" lon="13.8028544"><ele>7.5</ele><time>2026-05-01T09:41:36.95Z</time></trkpt><trkpt lat="37.9732477" lon="13.8025292"><ele>7.0</ele><time>2026-05-01T09:41:37.949Z</time></trkpt><trkpt lat="37.9731611" lon="13.8022128"><ele>7.0</ele><time>2026-05-01T09:41:38.95Z</time></trkpt><trkpt lat="37.9730723" lon="13.8019078"><ele>7.0</ele><time>2026-05-01T09:41:39.949Z</time></trkpt><trkpt lat="37.9729811" lon="13.8015941"><ele>7.0</ele><time>2026-05-01T09:41:40.949Z</time></trkpt><trkpt lat="37.9728866" lon="13.8012792"><ele>7.0</ele><time>2026-05-01T09:41:41.949Z</time></trkpt><trkpt lat="37.9727933" lon="13.8009627"><ele>6.5</ele><time>2026-05-01T09:41:42.95Z</time></trkpt><trkpt lat="37.9727029" lon="13.8006372"><ele>6.0</ele><time>2026-05-01T09:41:43.949Z</time></trkpt><trkpt lat="37.9726107" lon="13.8003108"><ele>6.0</ele><time>2026-05-01T09:41:44.95Z</time></trkpt><trkpt lat="37.9725182" lon="13.7999774"><ele>6.0</ele><time>2026-05-01T09:41:45.949Z</time></trkpt><trkpt lat="37.9724227" lon="13.7996478"><ele>6.0</ele><time>2026-05-01T09:41:46.949Z</time></trkpt><trkpt lat="37.9723263" lon="13.7993194"><ele>6.0</ele><time>2026-05-01T09:41:47.95Z</time></trkpt><trkpt lat="37.9722315" lon="13.7989911"><ele>6.0</ele><time>2026-05-01T09:41:48.95Z</time></trkpt><trkpt lat="37.9721344" lon="13.7986539"><ele>6.0</ele><time>2026-05-01T09:41:49.949Z</time></trkpt><trkpt lat="37.9720365" lon="13.7983188"><ele>6.0</ele><time>2026-05-01T09:41:50.949Z</time></trkpt><trkpt lat="37.9719412" lon="13.7979796"><ele>6.0</ele><time>2026-05-01T09:41:51.949Z</time></trkpt><trkpt lat="37.9718447" lon="13.7976422"><ele>6.0</ele><time>2026-05-01T09:41:52.95Z</time></trkpt><trkpt lat="37.9717487" lon="13.797303"><ele>6.0</ele><time>2026-05-01T09:41:53.949Z</time></trkpt><trkpt lat="37.9716516" lon="13.7969638"><ele>6.5</ele><time>2026-05-01T09:41:54.949Z</time></trkpt><trkpt lat="37.971554" lon="13.7966233"><ele>7.0</ele><time>2026-05-01T09:41:55.949Z</time></trkpt><trkpt lat="37.9714548" lon="13.7962855"><ele>7.0</ele><time>2026-05-01T09:41:56.949Z</time></trkpt><trkpt lat="37.9713588" lon="13.7959421"><ele>7.0</ele><time>2026-05-01T09:41:57.95Z</time></trkpt><trkpt lat="37.9712624" lon="13.7956041"><ele>7.0</ele><time>2026-05-01T09:41:58.949Z</time></trkpt><trkpt lat="37.9711648" lon="13.7952672"><ele>7.0</ele><time>2026-05-01T09:41:59.949Z</time></trkpt><trkpt lat="37.9710645" lon="13.794931"><ele>7.0</ele><time>2026-05-01T09:42:00.95Z</time></trkpt><trkpt lat="37.9709664" lon="13.7945968"><ele>7.0</ele><time>2026-05-01T09:42:01.95Z</time></trkpt><trkpt lat="37.9708693" lon="13.7942573"><ele>7.5</ele><time>2026-05-01T09:42:02.95Z</time></trkpt><trkpt lat="37.9707751" lon="13.793917"><ele>8.0</ele><time>2026-05-01T09:42:03.95Z</time></trkpt><trkpt lat="37.9706802" lon="13.7935773"><ele>8.5</ele><time>2026-05-01T09:42:04.95Z</time></trkpt><trkpt lat="37.9705855" lon="13.7932406"><ele>9.0</ele><time>2026-05-01T09:42:05.949Z</time></trkpt><trkpt lat="37.9704884" lon="13.7929047"><ele>7.5</ele><time>2026-05-01T09:42:06.95Z</time></trkpt><trkpt lat="37.9703898" lon="13.7925666"><ele>6.0</ele><time>2026-05-01T09:42:07.95Z</time></trkpt><trkpt lat="37.9702958" lon="13.7922291"><ele>6.0</ele><time>2026-05-01T09:42:08.95Z</time></trkpt><trkpt lat="37.9702024" lon="13.7918926"><ele>6.0</ele><time>2026-05-01T09:42:09.949Z</time></trkpt><trkpt lat="37.9701098" lon="13.7915551"><ele>6.0</ele><time>2026-05-01T09:42:10.949Z</time></trkpt><trkpt lat="37.970022" lon="13.7912158"><ele>6.0</ele><time>2026-05-01T09:42:11.949Z</time></trkpt><trkpt lat="37.9699354" lon="13.7908726"><ele>6.0</ele><time>2026-05-01T09:42:12.95Z</time></trkpt><trkpt lat="37.9698539" lon="13.7905311"><ele>6.0</ele><time>2026-05-01T09:42:13.949Z</time></trkpt><trkpt lat="37.9697726" lon="13.7901891"><ele>6.0</ele><time>2026-05-01T09:42:14.95Z</time></trkpt><trkpt lat="37.9696942" lon="13.7898452"><ele>6.0</ele><time>2026-05-01T09:42:15.95Z</time></trkpt><trkpt lat="37.9696168" lon="13.7895026"><ele>6.0</ele><time>2026-05-01T09:42:16.949Z</time></trkpt><trkpt lat="37.9695409" lon="13.7891575"><ele>6.0</ele><time>2026-05-01T09:42:17.949Z</time></trkpt><trkpt lat="37.969469" lon="13.7888088"><ele>6.0</ele><time>2026-05-01T09:42:18.949Z</time></trkpt><trkpt lat="37.9693975" lon="13.7884631"><ele>6.0</ele><time>2026-05-01T09:42:19.949Z</time></trkpt><trkpt lat="37.9693298" lon="13.7881135"><ele>6.0</ele><time>2026-05-01T09:42:20.949Z</time></trkpt><trkpt lat="37.9692654" lon="13.7877645"><ele>6.0</ele><time>2026-05-01T09:42:21.949Z</time></trkpt><trkpt lat="37.9692025" lon="13.7874166"><ele>6.5</ele><time>2026-05-01T09:42:22.95Z</time></trkpt><trkpt lat="37.9691412" lon="13.7870665"><ele>7.0</ele><time>2026-05-01T09:42:23.949Z</time></trkpt><trkpt lat="37.9690813" lon="13.7867156"><ele>7.0</ele><time>2026-05-01T09:42:24.949Z</time></trkpt><trkpt lat="37.9690266" lon="13.7863681"><ele>7.0</ele><time>2026-05-01T09:42:25.95Z</time></trkpt><trkpt lat="37.9689794" lon="13.7860162"><ele>7.0</ele><time>2026-05-01T09:42:26.95Z</time></trkpt><trkpt lat="37.9689271" lon="13.7856649"><ele>7.0</ele><time>2026-05-01T09:42:27.949Z</time></trkpt><trkpt lat="37.9688754" lon="13.7853132"><ele>6.5</ele><time>2026-05-01T09:42:28.949Z</time></trkpt><trkpt lat="37.9688268" lon="13.7849642"><ele>6.0</ele><time>2026-05-01T09:42:29.949Z</time></trkpt><trkpt lat="37.9687816" lon="13.7846149"><ele>6.5</ele><time>2026-05-01T09:42:30.949Z</time></trkpt><trkpt lat="37.9687329" lon="13.7842664"><ele>7.0</ele><time>2026-05-01T09:42:31.95Z</time></trkpt><trkpt lat="37.9686829" lon="13.7839105"><ele>7.0</ele><time>2026-05-01T09:42:32.949Z</time></trkpt><trkpt lat="37.9686288" lon="13.78356"><ele>7.0</ele><time>2026-05-01T09:42:33.95Z</time></trkpt><trkpt lat="37.9685747" lon="13.7832063"><ele>7.0</ele><time>2026-05-01T09:42:34.949Z</time></trkpt><trkpt lat="37.9685244" lon="13.7828521"><ele>7.0</ele><time>2026-05-01T09:42:35.949Z</time></trkpt><trkpt lat="37.9684735" lon="13.7825009"><ele>7.0</ele><time>2026-05-01T09:42:36.95Z</time></trkpt><trkpt lat="37.9684239" lon="13.782146"><ele>7.0</ele><time>2026-05-01T09:42:37.949Z</time></trkpt><trkpt lat="37.9683756" lon="13.7817901"><ele>7.0</ele><time>2026-05-01T09:42:38.95Z</time></trkpt><trkpt lat="37.9683298" lon="13.7814384"><ele>7.0</ele><time>2026-05-01T09:42:39.95Z</time></trkpt><trkpt lat="37.9682851" lon="13.7810826"><ele>7.5</ele><time>2026-05-01T09:42:40.95Z</time></trkpt><trkpt lat="37.9682361" lon="13.7807294"><ele>8.0</ele><time>2026-05-01T09:42:41.95Z</time></trkpt><trkpt lat="37.9681879" lon="13.7803795"><ele>9.0</ele><time>2026-05-01T09:42:42.95Z</time></trkpt><trkpt lat="37.9681387" lon="13.7800285"><ele>10.0</ele><time>2026-05-01T09:42:43.949Z</time></trkpt><trkpt lat="37.9680898" lon="13.7796767"><ele>9.5</ele><time>2026-05-01T09:42:44.949Z</time></trkpt><trkpt lat="37.9680376" lon="13.7793272"><ele>9.0</ele><time>2026-05-01T09:42:45.95Z</time></trkpt><trkpt lat="37.9679885" lon="13.778975"><ele>9.0</ele><time>2026-05-01T09:42:46.95Z</time></trkpt><trkpt lat="37.9679406" lon="13.7786205"><ele>9.0</ele><time>2026-05-01T09:42:47.95Z</time></trkpt><trkpt lat="37.9678947" lon="13.7782678"><ele>9.5</ele><time>2026-05-01T09:42:48.949Z</time></trkpt><trkpt lat="37.9678474" lon="13.7779156"><ele>10.0</ele><time>2026-05-01T09:42:49.95Z</time></trkpt><trkpt lat="37.9677955" lon="13.7775636"><ele>9.0</ele><time>2026-05-01T09:42:50.95Z</time></trkpt><trkpt lat="37.9677407" lon="13.7772102"><ele>8.0</ele><time>2026-05-01T09:42:51.95Z</time></trkpt><trkpt lat="37.9676896" lon="13.77686"><ele>8.0</ele><time>2026-05-01T09:42:52.95Z</time></trkpt><trkpt lat="37.9676363" lon="13.776511"><ele>8.0</ele><time>2026-05-01T09:42:53.949Z</time></trkpt><trkpt lat="37.9675838" lon="13.7761584"><ele>8.5</ele><time>2026-05-01T09:42:54.949Z</time></trkpt><trkpt lat="37.9675291" lon="13.7758043"><ele>9.0</ele><time>2026-05-01T09:42:55.95Z</time></trkpt><trkpt lat="37.9674772" lon="13.7754471"><ele>10.0</ele><time>2026-05-01T09:42:56.949Z</time></trkpt><trkpt lat="37.9674301" lon="13.7750897"><ele>11.0</ele><time>2026-05-01T09:42:57.949Z</time></trkpt><trkpt lat="37.9673775" lon="13.7747374"><ele>11.0</ele><time>2026-05-01T09:42:58.95Z</time></trkpt><trkpt lat="37.9673255" lon="13.7743852"><ele>11.0</ele><time>2026-05-01T09:42:59.949Z</time></trkpt><trkpt lat="37.967276" lon="13.7740303"><ele>10.5</ele><time>2026-05-01T09:43:00.95Z</time></trkpt><trkpt lat="37.9672232" lon="13.7736807"><ele>10.0</ele><time>2026-05-01T09:43:01.949Z</time></trkpt><trkpt lat="37.9671701" lon="13.773328"><ele>10.0</ele><time>2026-05-01T09:43:02.95Z</time></trkpt><trkpt lat="37.967118" lon="13.7729776"><ele>10.0</ele><time>2026-05-01T09:43:03.949Z</time></trkpt><trkpt lat="37.9670682" lon="13.7726282"><ele>9.0</ele><time>2026-05-01T09:43:04.949Z</time></trkpt><trkpt lat="37.9670202" lon="13.7722784"><ele>8.0</ele><time>2026-05-01T09:43:05.949Z</time></trkpt><trkpt lat="37.9669754" lon="13.7719226"><ele>7.0</ele><time>2026-05-01T09:43:06.949Z</time></trkpt><trkpt lat="37.9669298" lon="13.7715671"><ele>6.0</ele><time>2026-05-01T09:43:07.95Z</time></trkpt><trkpt lat="37.9668828" lon="13.7712143"><ele>6.0</ele><time>2026-05-01T09:43:08.949Z</time></trkpt><trkpt lat="37.9668345" lon="13.7708573"><ele>6.0</ele><time>2026-05-01T09:43:09.95Z</time></trkpt><trkpt lat="37.9667844" lon="13.7705057"><ele>6.0</ele><time>2026-05-01T09:43:10.949Z</time></trkpt><trkpt lat="37.9667314" lon="13.7701533"><ele>6.0</ele><time>2026-05-01T09:43:11.95Z</time></trkpt><trkpt lat="37.9666771" lon="13.7698018"><ele>6.0</ele><time>2026-05-01T09:43:12.949Z</time></trkpt><trkpt lat="37.9666262" lon="13.7694516"><ele>6.0</ele><time>2026-05-01T09:43:13.95Z</time></trkpt><trkpt lat="37.9665769" lon="13.7691029"><ele>6.0</ele><time>2026-05-01T09:43:14.949Z</time></trkpt><trkpt lat="37.9665277" lon="13.76875"><ele>6.0</ele><time>2026-05-01T09:43:15.949Z</time></trkpt><trkpt lat="37.9664777" lon="13.7683985"><ele>8.0</ele><time>2026-05-01T09:43:16.949Z</time></trkpt><trkpt lat="37.9664253" lon="13.7680442"><ele>10.0</ele><time>2026-05-01T09:43:17.949Z</time></trkpt><trkpt lat="37.9663725" lon="13.7676919"><ele>10.0</ele><time>2026-05-01T09:43:18.95Z</time></trkpt><trkpt lat="37.9663174" lon="13.7673444"><ele>10.0</ele><time>2026-05-01T09:43:19.949Z</time></trkpt><trkpt lat="37.9662589" lon="13.7669981"><ele>9.5</ele><time>2026-05-01T09:43:20.95Z</time></trkpt><trkpt lat="37.966195" lon="13.7666492"><ele>9.0</ele><time>2026-05-01T09:43:21.95Z</time></trkpt><trkpt lat="37.9661317" lon="13.7663031"><ele>9.0</ele><time>2026-05-01T09:43:22.949Z</time></trkpt><trkpt lat="37.9660644" lon="13.765958"><ele>9.0</ele><time>2026-05-01T09:43:23.949Z</time></trkpt><trkpt lat="37.9659973" lon="13.7656095"><ele>9.0</ele><time>2026-05-01T09:43:24.95Z</time></trkpt><trkpt lat="37.9659257" lon="13.7652616"><ele>9.0</ele><time>2026-05-01T09:43:25.949Z</time></trkpt><trkpt lat="37.9658468" lon="13.7649172"><ele>11.5</ele><time>2026-05-01T09:43:26.95Z</time></trkpt><trkpt lat="37.9657623" lon="13.7645732"><ele>14.0</ele><time>2026-05-01T09:43:27.949Z</time></trkpt><trkpt lat="37.9656717" lon="13.7642353"><ele>14.5</ele><time>2026-05-01T09:43:28.95Z</time></trkpt><trkpt lat="37.9655785" lon="13.7638971"><ele>15.0</ele><time>2026-05-01T09:43:29.95Z</time></trkpt><trkpt lat="37.9654834" lon="13.7635621"><ele>15.0</ele><time>2026-05-01T09:43:30.949Z</time></trkpt><trkpt lat="37.9653873" lon="13.7632257"><ele>15.0</ele><time>2026-05-01T09:43:31.949Z</time></trkpt><trkpt lat="37.9652938" lon="13.7628931"><ele>15.0</ele><time>2026-05-01T09:43:32.949Z</time></trkpt><trkpt lat="37.9652009" lon="13.7625595"><ele>15.0</ele><time>2026-05-01T09:43:33.949Z</time></trkpt><trkpt lat="37.9651075" lon="13.7622198"><ele>20.5</ele><time>2026-05-01T09:43:34.949Z</time></trkpt><trkpt lat="37.965016" lon="13.7618842"><ele>26.0</ele><time>2026-05-01T09:43:35.95Z</time></trkpt><trkpt lat="37.9649257" lon="13.7615477"><ele>26.0</ele><time>2026-05-01T09:43:36.949Z</time></trkpt><trkpt lat="37.9648386" lon="13.7612098"><ele>26.0</ele><time>2026-05-01T09:43:37.95Z</time></trkpt><trkpt lat="37.9647538" lon="13.7608714"><ele>26.0</ele><time>2026-05-01T09:43:38.95Z</time></trkpt><trkpt lat="37.9646744" lon="13.7605283"><ele>26.0</ele><time>2026-05-01T09:43:39.949Z</time></trkpt><trkpt lat="37.9645962" lon="13.7601838"><ele>26.0</ele><time>2026-05-01T09:43:40.949Z</time></trkpt><trkpt lat="37.9645227" lon="13.7598362"><ele>26.0</ele><time>2026-05-01T09:43:41.949Z</time></trkpt><trkpt lat="37.9644521" lon="13.759488"><ele>26.5</ele><time>2026-05-01T09:43:42.95Z</time></trkpt><trkpt lat="37.9643846" lon="13.7591445"><ele>27.0</ele><time>2026-05-01T09:43:43.95Z</time></trkpt><trkpt lat="37.9643216" lon="13.7587998"><ele>26.5</ele><time>2026-05-01T09:43:44.95Z</time></trkpt><trkpt lat="37.9642664" lon="13.7584517"><ele>26.0</ele><time>2026-05-01T09:43:45.949Z</time></trkpt><trkpt lat="37.9642173" lon="13.7580979"><ele>34.5</ele><time>2026-05-01T09:43:46.95Z</time></trkpt><trkpt lat="37.9641721" lon="13.7577445"><ele>43.0</ele><time>2026-05-01T09:43:47.949Z</time></trkpt><trkpt lat="37.964127" lon="13.7573927"><ele>43.0</ele><time>2026-05-01T09:43:48.95Z</time></trkpt><trkpt lat="37.9640838" lon="13.7570387"><ele>43.0</ele><time>2026-05-01T09:43:49.95Z</time></trkpt><trkpt lat="37.9640418" lon="13.7566863"><ele>43.5</ele><time>2026-05-01T09:43:50.949Z</time></trkpt><trkpt lat="37.9640021" lon="13.7563332"><ele>44.0</ele><time>2026-05-01T09:43:51.949Z</time></trkpt><trkpt lat="37.9639679" lon="13.7559784"><ele>44.5</ele><time>2026-05-01T09:43:52.95Z</time></trkpt><trkpt lat="37.9639302" lon="13.7556249"><ele>45.0</ele><time>2026-05-01T09:43:53.949Z</time></trkpt><trkpt lat="37.9638933" lon="13.7552742"><ele>44.5</ele><time>2026-05-01T09:43:54.949Z</time></trkpt><trkpt lat="37.9638562" lon="13.7549244"><ele>44.0</ele><time>2026-05-01T09:43:55.95Z</time></trkpt><trkpt lat="37.9638152" lon="13.7545685"><ele>45.5</ele><time>2026-05-01T09:43:56.95Z</time></trkpt><trkpt lat="37.9637766" lon="13.7542145"><ele>47.0</ele><time>2026-05-01T09:43:57.949Z</time></trkpt><trkpt lat="37.96374" lon="13.7538595"><ele>47.5</ele><time>2026-05-01T09:43:58.949Z</time></trkpt><trkpt lat="37.963701" lon="13.7534995"><ele>48.0</ele><time>2026-05-01T09:43:59.95Z</time></trkpt><trkpt lat="37.9636625" lon="13.7531413"><ele>48.0</ele><time>2026-05-01T09:44:00.95Z</time></trkpt><trkpt lat="37.9636258" lon="13.7527831"><ele>48.0</ele><time>2026-05-01T09:44:01.95Z</time></trkpt><trkpt lat="37.9635925" lon="13.7524253"><ele>48.0</ele><time>2026-05-01T09:44:02.95Z</time></trkpt><trkpt lat="37.9635655" lon="13.7520662"><ele>48.0</ele><time>2026-05-01T09:44:03.95Z</time></trkpt><trkpt lat="37.963542" lon="13.7517116"><ele>48.5</ele><time>2026-05-01T09:44:04.95Z</time></trkpt><trkpt lat="37.9635216" lon="13.7513527"><ele>49.0</ele><time>2026-05-01T09:44:05.949Z</time></trkpt><trkpt lat="37.9635101" lon="13.7509934"><ele>50.5</ele><time>2026-05-01T09:44:06.949Z</time></trkpt><trkpt lat="37.9635033" lon="13.7506343"><ele>52.0</ele><time>2026-05-01T09:44:07.949Z</time></trkpt><trkpt lat="37.963501" lon="13.7502749"><ele>52.5</ele><time>2026-05-01T09:44:08.949Z</time></trkpt><trkpt lat="37.9635041" lon="13.7499191"><ele>53.0</ele><time>2026-05-01T09:44:09.95Z</time></trkpt><trkpt lat="37.9635087" lon="13.7495633"><ele>52.0</ele><time>2026-05-01T09:44:10.95Z</time></trkpt><trkpt lat="37.9635165" lon="13.749203"><ele>51.0</ele><time>2026-05-01T09:44:11.949Z</time></trkpt><trkpt lat="37.9635296" lon="13.7488449"><ele>52.5</ele><time>2026-05-01T09:44:12.95Z</time></trkpt><trkpt lat="37.9635437" lon="13.7484872"><ele>54.0</ele><time>2026-05-01T09:44:13.949Z</time></trkpt><trkpt lat="37.9635637" lon="13.7481345"><ele>54.0</ele><time>2026-05-01T09:44:14.95Z</time></trkpt><trkpt lat="37.9635899" lon="13.7477756"><ele>54.0</ele><time>2026-05-01T09:44:15.95Z</time></trkpt><trkpt lat="37.9636211" lon="13.7474207"><ele>57.0</ele><time>2026-05-01T09:44:16.949Z</time></trkpt><trkpt lat="37.963656" lon="13.747066"><ele>60.0</ele><time>2026-05-01T09:44:17.949Z</time></trkpt><trkpt lat="37.9636958" lon="13.7467094"><ele>61.5</ele><time>2026-05-01T09:44:18.949Z</time></trkpt><trkpt lat="37.9637393" lon="13.7463533"><ele>63.0</ele><time>2026-05-01T09:44:19.95Z</time></trkpt><trkpt lat="37.9637831" lon="13.7460026"><ele>67.0</ele><time>2026-05-01T09:44:20.95Z</time></trkpt><trkpt lat="37.9638282" lon="13.7456495"><ele>71.0</ele><time>2026-05-01T09:44:21.95Z</time></trkpt><trkpt lat="37.9638726" lon="13.7452963"><ele>73.5</ele><time>2026-05-01T09:44:22.95Z</time></trkpt><trkpt lat="37.9639159" lon="13.7449513"><ele>76.0</ele><time>2026-05-01T09:44:23.949Z</time></trkpt><trkpt lat="37.9639609" lon="13.7445982"><ele>78.5</ele><time>2026-05-01T09:44:24.949Z</time></trkpt><trkpt lat="37.9640048" lon="13.7442452"><ele>81.0</ele><time>2026-05-01T09:44:25.95Z</time></trkpt><trkpt lat="37.9640483" lon="13.743892"><ele>84.5</ele><time>2026-05-01T09:44:26.949Z</time></trkpt><trkpt lat="37.9640942" lon="13.7435387"><ele>88.0</ele><time>2026-05-01T09:44:27.949Z</time></trkpt><trkpt lat="37.964143" lon="13.7431869"><ele>88.0</ele><time>2026-05-01T09:44:28.949Z</time></trkpt><trkpt lat="37.9641899" lon="13.7428301"><ele>88.0</ele><time>2026-05-01T09:44:29.95Z</time></trkpt><trkpt lat="37.9642348" lon="13.7424799"><ele>85.5</ele><time>2026-05-01T09:44:30.949Z</time></trkpt><trkpt lat="37.9642817" lon="13.7421299"><ele>83.0</ele><time>2026-05-01T09:44:31.949Z</time></trkpt><trkpt lat="37.9643313" lon="13.7417735"><ele>83.0</ele><time>2026-05-01T09:44:32.949Z</time></trkpt><trkpt lat="37.9643801" lon="13.7414231"><ele>83.0</ele><time>2026-05-01T09:44:33.95Z</time></trkpt><trkpt lat="37.9644281" lon="13.7410718"><ele>89.5</ele><time>2026-05-01T09:44:34.95Z</time></trkpt><trkpt lat="37.964481" lon="13.7407193"><ele>96.0</ele><time>2026-05-01T09:44:35.95Z</time></trkpt><trkpt lat="37.9645321" lon="13.7403694"><ele>99.0</ele><time>2026-05-01T09:44:36.949Z</time></trkpt><trkpt lat="37.9645813" lon="13.7400136"><ele>102.0</ele><time>2026-05-01T09:44:37.95Z</time></trkpt><trkpt lat="37.9646278" lon="13.7396595"><ele>103.5</ele><time>2026-05-01T09:44:38.949Z</time></trkpt><trkpt lat="37.9646732" lon="13.7393035"><ele>105.0</ele><time>2026-05-01T09:44:39.95Z</time></trkpt><trkpt lat="37.9647209" lon="13.7389532"><ele>105.0</ele><time>2026-05-01T09:44:40.949Z</time></trkpt><trkpt lat="37.9647702" lon="13.7385954"><ele>105.0</ele><time>2026-05-01T09:44:41.949Z</time></trkpt><trkpt lat="37.9648149" lon="13.7382416"><ele>106.0</ele><time>2026-05-01T09:44:42.95Z</time></trkpt><trkpt lat="37.9648616" lon="13.7378863"><ele>107.0</ele><time>2026-05-01T09:44:43.949Z</time></trkpt><trkpt lat="37.9649072" lon="13.7375327"><ele>108.5</ele><time>2026-05-01T09:44:44.949Z</time></trkpt><trkpt lat="37.9649561" lon="13.7371812"><ele>110.0</ele><time>2026-05-01T09:44:45.95Z</time></trkpt><trkpt lat="37.965005" lon="13.7368271"><ele>107.5</ele><time>2026-05-01T09:44:46.95Z</time></trkpt><trkpt lat="37.9650533" lon="13.7364761"><ele>105.0</ele><time>2026-05-01T09:44:47.949Z</time></trkpt><trkpt lat="37.9651007" lon="13.7361238"><ele>105.0</ele><time>2026-05-01T09:44:48.95Z</time></trkpt><trkpt lat="37.9651472" lon="13.7357708"><ele>105.0</ele><time>2026-05-01T09:44:49.949Z</time></trkpt><trkpt lat="37.9651946" lon="13.7354142"><ele>103.5</ele><time>2026-05-01T09:44:50.949Z</time></trkpt><trkpt lat="37.9652441" lon="13.7350567"><ele>102.0</ele><time>2026-05-01T09:44:51.949Z</time></trkpt><trkpt lat="37.965291" lon="13.7347025"><ele>103.0</ele><time>2026-05-01T09:44:52.949Z</time></trkpt><trkpt lat="37.9653408" lon="13.7343503"><ele>104.0</ele><time>2026-05-01T09:44:53.949Z</time></trkpt><trkpt lat="37.9653875" lon="13.7339974"><ele>104.0</ele><time>2026-05-01T09:44:54.95Z</time></trkpt><trkpt lat="37.965431" lon="13.7336433"><ele>104.0</ele><time>2026-05-01T09:44:55.949Z</time></trkpt><trkpt lat="37.9654757" lon="13.733289"><ele>103.5</ele><time>2026-05-01T09:44:56.95Z</time></trkpt><trkpt lat="37.9655239" lon="13.732939"><ele>103.0</ele><time>2026-05-01T09:44:57.95Z</time></trkpt><trkpt lat="37.9655727" lon="13.7325846"><ele>104.0</ele><time>2026-05-01T09:44:58.95Z</time></trkpt><trkpt lat="37.9656208" lon="13.7322335"><ele>105.0</ele><time>2026-05-01T09:44:59.949Z</time></trkpt><trkpt lat="37.9656676" lon="13.7318804"><ele>108.0</ele><time>2026-05-01T09:45:00.949Z</time></trkpt><trkpt lat="37.965713" lon="13.7315302"><ele>111.0</ele><time>2026-05-01T09:45:01.949Z</time></trkpt><trkpt lat="37.9657606" lon="13.7311749"><ele>111.0</ele><time>2026-05-01T09:45:02.95Z</time></trkpt><trkpt lat="37.9658077" lon="13.7308311"><ele>111.0</ele><time>2026-05-01T09:45:03.949Z</time></trkpt><trkpt lat="37.9658567" lon="13.7305098"><ele>107.0</ele><time>2026-05-01T09:45:04.949Z</time></trkpt><trkpt lat="37.9658979" lon="13.7302041"><ele>103.0</ele><time>2026-05-01T09:45:05.949Z</time></trkpt><trkpt lat="37.9659371" lon="13.729912"><ele>103.0</ele><time>2026-05-01T09:45:06.95Z</time></trkpt><trkpt lat="37.9659799" lon="13.7296229"><ele>103.0</ele><time>2026-05-01T09:45:07.95Z</time></trkpt><trkpt lat="37.9660187" lon="13.7293337"><ele>104.5</ele><time>2026-05-01T09:45:08.949Z</time></trkpt><trkpt lat="37.9660566" lon="13.7290382"><ele>106.0</ele><time>2026-05-01T09:45:09.95Z</time></trkpt><trkpt lat="37.9660924" lon="13.728739"><ele>107.5</ele><time>2026-05-01T09:45:10.949Z</time></trkpt><trkpt lat="37.966131" lon="13.7284381"><ele>109.0</ele><time>2026-05-01T09:45:11.949Z</time></trkpt><trkpt lat="37.9661723" lon="13.7281395"><ele>109.0</ele><time>2026-05-01T09:45:12.949Z</time></trkpt><trkpt lat="37.9662086" lon="13.727842"><ele>109.0</ele><time>2026-05-01T09:45:13.949Z</time></trkpt><trkpt lat="37.9662478" lon="13.7275455"><ele>109.5</ele><time>2026-05-01T09:45:14.95Z</time></trkpt><trkpt lat="37.9662865" lon="13.727252"><ele>110.0</ele><time>2026-05-01T09:45:15.949Z</time></trkpt><trkpt lat="37.9663277" lon="13.7269556"><ele>107.5</ele><time>2026-05-01T09:45:16.949Z</time></trkpt><trkpt lat="37.9663706" lon="13.72666"><ele>105.0</ele><time>2026-05-01T09:45:17.95Z</time></trkpt><trkpt lat="37.9664123" lon="13.7263649"><ele>105.0</ele><time>2026-05-01T09:45:18.949Z</time></trkpt><trkpt lat="37.9664526" lon="13.7260725"><ele>105.0</ele><time>2026-05-01T09:45:19.949Z</time></trkpt><trkpt lat="37.9664924" lon="13.7257811"><ele>104.0</ele><time>2026-05-01T09:45:20.95Z</time></trkpt><trkpt lat="37.9665306" lon="13.7254812"><ele>103.0</ele><time>2026-05-01T09:45:21.949Z</time></trkpt><trkpt lat="37.9665718" lon="13.7251833"><ele>103.0</ele><time>2026-05-01T09:45:22.95Z</time></trkpt><trkpt lat="37.9666096" lon="13.7248896"><ele>103.0</ele><time>2026-05-01T09:45:23.949Z</time></trkpt><trkpt lat="37.9666477" lon="13.7245964"><ele>102.5</ele><time>2026-05-01T09:45:24.949Z</time></trkpt><trkpt lat="37.9666871" lon="13.7243002"><ele>102.0</ele><time>2026-05-01T09:45:25.949Z</time></trkpt><trkpt lat="37.9667273" lon="13.7240031"><ele>98.5</ele><time>2026-05-01T09:45:26.95Z</time></trkpt><trkpt lat="37.9667673" lon="13.7237028"><ele>95.0</ele><time>2026-05-01T09:45:27.95Z</time></trkpt><trkpt lat="37.966804" lon="13.7233985"><ele>92.0</ele><time>2026-05-01T09:45:28.95Z</time></trkpt><trkpt lat="37.9668409" lon="13.723097"><ele>89.0</ele><time>2026-05-01T09:45:29.949Z</time></trkpt><trkpt lat="37.966881" lon="13.7227874"><ele>90.5</ele><time>2026-05-01T09:45:30.95Z</time></trkpt><trkpt lat="37.9669224" lon="13.7224749"><ele>92.0</ele><time>2026-05-01T09:45:31.949Z</time></trkpt><trkpt lat="37.9669698" lon="13.7221534"><ele>96.5</ele><time>2026-05-01T09:45:32.957Z</time></trkpt><trkpt lat="37.9670132" lon="13.7218266"><ele>101.0</ele><time>2026-05-01T09:45:33.958Z</time></trkpt><trkpt lat="37.967057" lon="13.7214929"><ele>101.0</ele><time>2026-05-01T09:45:34.958Z</time></trkpt><trkpt lat="37.9671009" lon="13.7211537"><ele>101.0</ele><time>2026-05-01T09:45:35.957Z</time></trkpt><trkpt lat="37.9671531" lon="13.7208113"><ele>100.0</ele><time>2026-05-01T09:45:36.957Z</time></trkpt><trkpt lat="37.9672143" lon="13.7204657"><ele>99.0</ele><time>2026-05-01T09:45:37.957Z</time></trkpt><trkpt lat="37.967287" lon="13.720124"><ele>99.0</ele><time>2026-05-01T09:45:38.957Z</time></trkpt><trkpt lat="37.9673687" lon="13.7197832"><ele>99.0</ele><time>2026-05-01T09:45:39.958Z</time></trkpt><trkpt lat="37.9674587" lon="13.7194413"><ele>91.0</ele><time>2026-05-01T09:45:40.958Z</time></trkpt><trkpt lat="37.9675538" lon="13.7191006"><ele>83.0</ele><time>2026-05-01T09:45:41.958Z</time></trkpt><trkpt lat="37.9676563" lon="13.7187639"><ele>77.5</ele><time>2026-05-01T09:45:42.957Z</time></trkpt><trkpt lat="37.9677679" lon="13.7184342"><ele>72.0</ele><time>2026-05-01T09:45:43.957Z</time></trkpt><trkpt lat="37.9678832" lon="13.7181082"><ele>72.0</ele><time>2026-05-01T09:45:44.957Z</time></trkpt><trkpt lat="37.9680047" lon="13.7177847"><ele>72.0</ele><time>2026-05-01T09:45:45.957Z</time></trkpt><trkpt lat="37.9681387" lon="13.7174683"><ele>71.5</ele><time>2026-05-01T09:45:46.957Z</time></trkpt><trkpt lat="37.9682791" lon="13.7171527"><ele>71.0</ele><time>2026-05-01T09:45:47.957Z</time></trkpt><trkpt lat="37.9684238" lon="13.7168503"><ele>73.0</ele><time>2026-05-01T09:45:48.958Z</time></trkpt><trkpt lat="37.9685756" lon="13.7165558"><ele>75.0</ele><time>2026-05-01T09:45:49.958Z</time></trkpt><trkpt lat="37.968738" lon="13.7162659"><ele>80.0</ele><time>2026-05-01T09:45:50.958Z</time></trkpt><trkpt lat="37.9689075" lon="13.7159801"><ele>85.0</ele><time>2026-05-01T09:45:51.957Z</time></trkpt><trkpt lat="37.9690811" lon="13.7156977"><ele>85.0</ele><time>2026-05-01T09:45:52.958Z</time></trkpt><trkpt lat="37.9692622" lon="13.7154242"><ele>85.0</ele><time>2026-05-01T09:45:53.957Z</time></trkpt><trkpt lat="37.9694457" lon="13.7151533"><ele>85.0</ele><time>2026-05-01T09:45:54.957Z</time></trkpt><trkpt lat="37.9696308" lon="13.7148794"><ele>85.0</ele><time>2026-05-01T09:45:55.957Z</time></trkpt><trkpt lat="37.9698183" lon="13.714601"><ele>84.0</ele><time>2026-05-01T09:45:56.958Z</time></trkpt><trkpt lat="37.9700036" lon="13.7143198"><ele>83.0</ele><time>2026-05-01T09:45:57.957Z</time></trkpt><trkpt lat="37.9701901" lon="13.7140358"><ele>81.5</ele><time>2026-05-01T09:45:58.957Z</time></trkpt><trkpt lat="37.9703799" lon="13.7137531"><ele>80.0</ele><time>2026-05-01T09:45:59.957Z</time></trkpt><trkpt lat="37.970571" lon="13.7134731"><ele>80.0</ele><time>2026-05-01T09:46:00.957Z</time></trkpt><trkpt lat="37.9707637" lon="13.713192"><ele>80.0</ele><time>2026-05-01T09:46:01.958Z</time></trkpt><trkpt lat="37.9709567" lon="13.7129087"><ele>80.5</ele><time>2026-05-01T09:46:02.957Z</time></trkpt><trkpt lat="37.9711474" lon="13.7126225"><ele>81.0</ele><time>2026-05-01T09:46:03.958Z</time></trkpt><trkpt lat="37.9713346" lon="13.7123358"><ele>81.0</ele><time>2026-05-01T09:46:04.957Z</time></trkpt><trkpt lat="37.9715215" lon="13.7120582"><ele>81.0</ele><time>2026-05-01T09:46:05.958Z</time></trkpt><trkpt lat="37.9717119" lon="13.7117736"><ele>81.5</ele><time>2026-05-01T09:46:06.957Z</time></trkpt><trkpt lat="37.9718985" lon="13.7114908"><ele>82.0</ele><time>2026-05-01T09:46:07.958Z</time></trkpt><trkpt lat="37.9720877" lon="13.7112081"><ele>84.5</ele><time>2026-05-01T09:46:08.958Z</time></trkpt><trkpt lat="37.9722753" lon="13.7109321"><ele>87.0</ele><time>2026-05-01T09:46:09.957Z</time></trkpt><trkpt lat="37.9724666" lon="13.7106496"><ele>86.0</ele><time>2026-05-01T09:46:10.958Z</time></trkpt><trkpt lat="37.9726582" lon="13.7103644"><ele>85.0</ele><time>2026-05-01T09:46:11.958Z</time></trkpt><trkpt lat="37.9728447" lon="13.710075"><ele>85.0</ele><time>2026-05-01T09:46:12.958Z</time></trkpt><trkpt lat="37.9730246" lon="13.7097805"><ele>85.0</ele><time>2026-05-01T09:46:13.958Z</time></trkpt><trkpt lat="37.9731995" lon="13.7094826"><ele>83.5</ele><time>2026-05-01T09:46:14.958Z</time></trkpt><trkpt lat="37.9733701" lon="13.7091808"><ele>82.0</ele><time>2026-05-01T09:46:15.957Z</time></trkpt><trkpt lat="37.973531" lon="13.7088728"><ele>85.0</ele><time>2026-05-01T09:46:16.957Z</time></trkpt><trkpt lat="37.9736838" lon="13.7085624"><ele>88.0</ele><time>2026-05-01T09:46:17.957Z</time></trkpt><trkpt lat="37.9738326" lon="13.7082442"><ele>88.0</ele><time>2026-05-01T09:46:18.957Z</time></trkpt><trkpt lat="37.9739748" lon="13.7079147"><ele>88.0</ele><time>2026-05-01T09:46:19.958Z</time></trkpt><trkpt lat="37.974113" lon="13.7075886"><ele>79.5</ele><time>2026-05-01T09:46:20.958Z</time></trkpt><trkpt lat="37.9742466" lon="13.7072533"><ele>71.0</ele><time>2026-05-01T09:46:21.957Z</time></trkpt><trkpt lat="37.9743725" lon="13.7069206"><ele>76.0</ele><time>2026-05-01T09:46:22.958Z</time></trkpt><trkpt lat="37.9744953" lon="13.7065807"><ele>81.0</ele><time>2026-05-01T09:46:23.958Z</time></trkpt><trkpt lat="37.9746092" lon="13.706242"><ele>83.0</ele><time>2026-05-01T09:46:24.958Z</time></trkpt><trkpt lat="37.9747177" lon="13.7058956"><ele>85.0</ele><time>2026-05-01T09:46:25.957Z</time></trkpt><trkpt lat="37.9748211" lon="13.7055494"><ele>86.0</ele><time>2026-05-01T09:46:26.958Z</time></trkpt><trkpt lat="37.9749164" lon="13.705197"><ele>87.0</ele><time>2026-05-01T09:46:27.957Z</time></trkpt><trkpt lat="37.9750077" lon="13.7048441"><ele>85.0</ele><time>2026-05-01T09:46:28.958Z</time></trkpt><trkpt lat="37.9750915" lon="13.7044893"><ele>83.0</ele><time>2026-05-01T09:46:29.958Z</time></trkpt><trkpt lat="37.9751649" lon="13.7041295"><ele>83.0</ele><time>2026-05-01T09:46:30.958Z</time></trkpt><trkpt lat="37.9752326" lon="13.703771"><ele>83.0</ele><time>2026-05-01T09:46:31.958Z</time></trkpt><trkpt lat="37.9752937" lon="13.7034065"><ele>81.5</ele><time>2026-05-01T09:46:32.958Z</time></trkpt><trkpt lat="37.9753438" lon="13.7030348"><ele>80.0</ele><time>2026-05-01T09:46:33.957Z</time></trkpt><trkpt lat="37.9753873" lon="13.7026687"><ele>77.5</ele><time>2026-05-01T09:46:34.958Z</time></trkpt><trkpt lat="37.9754232" lon="13.7023012"><ele>75.0</ele><time>2026-05-01T09:46:35.957Z</time></trkpt><trkpt lat="37.9754509" lon="13.7019305"><ele>74.5</ele><time>2026-05-01T09:46:36.958Z</time></trkpt><trkpt lat="37.975472" lon="13.7015592"><ele>74.0</ele><time>2026-05-01T09:46:37.957Z</time></trkpt><trkpt lat="37.9754863" lon="13.7011935"><ele>76.5</ele><time>2026-05-01T09:46:38.957Z</time></trkpt><trkpt lat="37.9754964" lon="13.7008205"><ele>79.0</ele><time>2026-05-01T09:46:39.957Z</time></trkpt><trkpt lat="37.9754972" lon="13.7004488"><ele>82.5</ele><time>2026-05-01T09:46:40.957Z</time></trkpt><trkpt lat="37.9754885" lon="13.700077"><ele>86.0</ele><time>2026-05-01T09:46:41.958Z</time></trkpt><trkpt lat="37.9754772" lon="13.6997081"><ele>84.0</ele><time>2026-05-01T09:46:42.957Z</time></trkpt><trkpt lat="37.9754559" lon="13.6993416"><ele>82.0</ele><time>2026-05-01T09:46:43.957Z</time></trkpt><trkpt lat="37.9754293" lon="13.6989724"><ele>82.0</ele><time>2026-05-01T09:46:44.957Z</time></trkpt><trkpt lat="37.9754034" lon="13.6986041"><ele>82.0</ele><time>2026-05-01T09:46:45.957Z</time></trkpt><trkpt lat="37.9753688" lon="13.6982377"><ele>78.0</ele><time>2026-05-01T09:46:46.957Z</time></trkpt><trkpt lat="37.9753202" lon="13.6978746"><ele>74.0</ele><time>2026-05-01T09:46:47.958Z</time></trkpt><trkpt lat="37.975266" lon="13.6975106"><ele>73.0</ele><time>2026-05-01T09:46:48.957Z</time></trkpt><trkpt lat="37.9752085" lon="13.6971448"><ele>72.0</ele><time>2026-05-01T09:46:49.957Z</time></trkpt><trkpt lat="37.975142" lon="13.6967874"><ele>72.0</ele><time>2026-05-01T09:46:50.958Z</time></trkpt><trkpt lat="37.9750674" lon="13.6964251"><ele>72.0</ele><time>2026-05-01T09:46:51.958Z</time></trkpt><trkpt lat="37.9749836" lon="13.6960688"><ele>78.0</ele><time>2026-05-01T09:46:52.957Z</time></trkpt><trkpt lat="37.9748936" lon="13.6957162"><ele>84.0</ele><time>2026-05-01T09:46:53.957Z</time></trkpt><trkpt lat="37.9747973" lon="13.6953699"><ele>80.5</ele><time>2026-05-01T09:46:54.957Z</time></trkpt><trkpt lat="37.9746983" lon="13.6950208"><ele>77.0</ele><time>2026-05-01T09:46:55.957Z</time></trkpt><trkpt lat="37.9745989" lon="13.6946753"><ele>72.5</ele><time>2026-05-01T09:46:56.957Z</time></trkpt><trkpt lat="37.9745049" lon="13.6943254"><ele>68.0</ele><time>2026-05-01T09:46:57.957Z</time></trkpt><trkpt lat="37.9744106" lon="13.6939776"><ele>68.0</ele><time>2026-05-01T09:46:58.958Z</time></trkpt><trkpt lat="37.9743186" lon="13.693625"><ele>68.0</ele><time>2026-05-01T09:46:59.957Z</time></trkpt><trkpt lat="37.9742263" lon="13.6932744"><ele>68.0</ele><time>2026-05-01T09:47:00.958Z</time></trkpt><trkpt lat="37.9741335" lon="13.692926"><ele>68.0</ele><time>2026-05-01T09:47:01.958Z</time></trkpt><trkpt lat="37.9740474" lon="13.6925685"><ele>69.5</ele><time>2026-05-01T09:47:02.957Z</time></trkpt><trkpt lat="37.9739663" lon="13.6922171"><ele>71.0</ele><time>2026-05-01T09:47:03.957Z</time></trkpt><trkpt lat="37.9738895" lon="13.69186"><ele>72.5</ele><time>2026-05-01T09:47:04.957Z</time></trkpt><trkpt lat="37.9738259" lon="13.6914987"><ele>74.0</ele><time>2026-05-01T09:47:05.958Z</time></trkpt><trkpt lat="37.9737656" lon="13.6911385"><ele>72.5</ele><time>2026-05-01T09:47:06.957Z</time></trkpt><trkpt lat="37.9737102" lon="13.6907775"><ele>71.0</ele><time>2026-05-01T09:47:07.958Z</time></trkpt><trkpt lat="37.9736681" lon="13.6904102"><ele>71.0</ele><time>2026-05-01T09:47:08.957Z</time></trkpt><trkpt lat="37.9736311" lon="13.6900459"><ele>71.0</ele><time>2026-05-01T09:47:09.957Z</time></trkpt><trkpt lat="37.9736038" lon="13.689678"><ele>71.0</ele><time>2026-05-01T09:47:10.958Z</time></trkpt><trkpt lat="37.9735866" lon="13.6893046"><ele>71.0</ele><time>2026-05-01T09:47:11.957Z</time></trkpt><trkpt lat="37.9735787" lon="13.6889305"><ele>69.0</ele><time>2026-05-01T09:47:12.957Z</time></trkpt><trkpt lat="37.9735811" lon="13.6885617"><ele>67.0</ele><time>2026-05-01T09:47:13.957Z</time></trkpt><trkpt lat="37.9735948" lon="13.6881909"><ele>67.0</ele><time>2026-05-01T09:47:14.958Z</time></trkpt><trkpt lat="37.9736201" lon="13.6878214"><ele>67.0</ele><time>2026-05-01T09:47:15.957Z</time></trkpt><trkpt lat="37.9736604" lon="13.687461"><ele>67.0</ele><time>2026-05-01T09:47:16.958Z</time></trkpt><trkpt lat="37.9737161" lon="13.6870983"><ele>67.0</ele><time>2026-05-01T09:47:17.958Z</time></trkpt><trkpt lat="37.9737899" lon="13.6867448"><ele>70.5</ele><time>2026-05-01T09:47:18.957Z</time></trkpt><trkpt lat="37.9738795" lon="13.6863985"><ele>74.0</ele><time>2026-05-01T09:47:19.957Z</time></trkpt><trkpt lat="37.9739855" lon="13.6860583"><ele>82.0</ele><time>2026-05-01T09:47:20.957Z</time></trkpt><trkpt lat="37.9740943" lon="13.6857252"><ele>90.0</ele><time>2026-05-01T09:47:21.958Z</time></trkpt><trkpt lat="37.9741979" lon="13.6853853"><ele>83.0</ele><time>2026-05-01T09:47:22.957Z</time></trkpt><trkpt lat="37.9753247" lon="13.6819256"><ele>83.0</ele><time>2026-05-01T09:47:32.957Z</time></trkpt><trkpt lat="37.9754017" lon="13.6815719"><ele>83.0</ele><time>2026-05-01T09:47:33.957Z</time></trkpt><trkpt lat="37.9755419" lon="13.681247"><ele>86.5</ele><time>2026-05-01T09:47:34.958Z</time></trkpt><trkpt lat="37.9756882" lon="13.6809295"><ele>90.0</ele><time>2026-05-01T09:47:35.957Z</time></trkpt><trkpt lat="37.9758351" lon="13.6806098"><ele>80.5</ele><time>2026-05-01T09:47:36.957Z</time></trkpt><trkpt lat="37.9759845" lon="13.6802954"><ele>71.0</ele><time>2026-05-01T09:47:37.957Z</time></trkpt><trkpt lat="37.9761303" lon="13.6799796"><ele>71.0</ele><time>2026-05-01T09:47:38.957Z</time></trkpt><trkpt lat="37.9762782" lon="13.6796586"><ele>71.0</ele><time>2026-05-01T09:47:39.957Z</time></trkpt><trkpt lat="37.9764235" lon="13.6793411"><ele>72.5</ele><time>2026-05-01T09:47:40.958Z</time></trkpt><trkpt lat="37.9765662" lon="13.6790213"><ele>74.0</ele><time>2026-05-01T09:47:41.957Z</time></trkpt><trkpt lat="37.9767116" lon="13.6787043"><ele>80.0</ele><time>2026-05-01T09:47:42.958Z</time></trkpt><trkpt lat="37.9768576" lon="13.6783889"><ele>86.0</ele><time>2026-05-01T09:47:43.957Z</time></trkpt><trkpt lat="37.9770047" lon="13.6780661"><ele>92.5</ele><time>2026-05-01T09:47:44.958Z</time></trkpt><trkpt lat="37.9771496" lon="13.6777447"><ele>99.0</ele><time>2026-05-01T09:47:45.958Z</time></trkpt><trkpt lat="37.9772956" lon="13.6774218"><ele>99.0</ele><time>2026-05-01T09:47:46.957Z</time></trkpt><trkpt lat="37.9774437" lon="13.6771046"><ele>99.0</ele><time>2026-05-01T09:47:47.958Z</time></trkpt><trkpt lat="37.9775901" lon="13.6767819"><ele>92.0</ele><time>2026-05-01T09:47:48.957Z</time></trkpt><trkpt lat="37.9777351" lon="13.676454"><ele>85.0</ele><time>2026-05-01T09:47:49.957Z</time></trkpt><trkpt lat="37.9778801" lon="13.6761317"><ele>88.5</ele><time>2026-05-01T09:47:50.958Z</time></trkpt><trkpt lat="37.9780284" lon="13.6758101"><ele>92.0</ele><time>2026-05-01T09:47:51.957Z</time></trkpt><trkpt lat="37.9781794" lon="13.6754839"><ele>93.5</ele><time>2026-05-01T09:47:52.958Z</time></trkpt><trkpt lat="37.9783293" lon="13.6751625"><ele>95.0</ele><time>2026-05-01T09:47:53.958Z</time></trkpt><trkpt lat="37.9784768" lon="13.6748401"><ele>95.0</ele><time>2026-05-01T09:47:54.957Z</time></trkpt><trkpt lat="37.9786225" lon="13.6745223"><ele>95.0</ele><time>2026-05-01T09:47:55.957Z</time></trkpt><trkpt lat="37.9787589" lon="13.674226"><ele>91.0</ele><time>2026-05-01T09:47:56.958Z</time></trkpt><trkpt lat="37.9788856" lon="13.6739399"><ele>87.0</ele><time>2026-05-01T09:47:57.957Z</time></trkpt><trkpt lat="37.9790068" lon="13.6736616"><ele>75.0</ele><time>2026-05-01T09:47:58.957Z</time></trkpt><trkpt lat="37.9791242" lon="13.6733869"><ele>63.0</ele><time>2026-05-01T09:47:59.957Z</time></trkpt><trkpt lat="37.979246" lon="13.6731139"><ele>51.5</ele><time>2026-05-01T09:48:00.957Z</time></trkpt><trkpt lat="37.979365" lon="13.672848"><ele>40.0</ele><time>2026-05-01T09:48:01.957Z</time></trkpt><trkpt lat="37.9794877" lon="13.6725784"><ele>40.0</ele><time>2026-05-01T09:48:02.957Z</time></trkpt><trkpt lat="37.9796101" lon="13.6723092"><ele>40.0</ele><time>2026-05-01T09:48:03.957Z</time></trkpt><trkpt lat="37.9797328" lon="13.6720399"><ele>60.0</ele><time>2026-05-01T09:48:04.957Z</time></trkpt><trkpt lat="37.9798554" lon="13.6717753"><ele>80.0</ele><time>2026-05-01T09:48:05.958Z</time></trkpt><trkpt lat="37.9799771" lon="13.6715057"><ele>79.0</ele><time>2026-05-01T09:48:06.958Z</time></trkpt><trkpt lat="37.9800942" lon="13.6712415"><ele>78.0</ele><time>2026-05-01T09:48:07.957Z</time></trkpt><trkpt lat="37.9802158" lon="13.6709744"><ele>78.0</ele><time>2026-05-01T09:48:08.957Z</time></trkpt><trkpt lat="37.980341" lon="13.6707101"><ele>78.0</ele><time>2026-05-01T09:48:09.957Z</time></trkpt><trkpt lat="37.9804658" lon="13.6704401"><ele>87.5</ele><time>2026-05-01T09:48:10.957Z</time></trkpt><trkpt lat="37.9805895" lon="13.6701758"><ele>97.0</ele><time>2026-05-01T09:48:11.958Z</time></trkpt><trkpt lat="37.9807121" lon="13.6699093"><ele>97.0</ele><time>2026-05-01T09:48:12.958Z</time></trkpt><trkpt lat="37.9808378" lon="13.6696356"><ele>97.0</ele><time>2026-05-01T09:48:13.957Z</time></trkpt><trkpt lat="37.9809631" lon="13.6693571"><ele>104.5</ele><time>2026-05-01T09:48:14.957Z</time></trkpt><trkpt lat="37.9810885" lon="13.6690718"><ele>112.0</ele><time>2026-05-01T09:48:15.958Z</time></trkpt><trkpt lat="37.9812125" lon="13.6687772"><ele>118.5</ele><time>2026-05-01T09:48:16.957Z</time></trkpt><trkpt lat="37.9813395" lon="13.6684772"><ele>125.0</ele><time>2026-05-01T09:48:17.957Z</time></trkpt><trkpt lat="37.9814662" lon="13.668178"><ele>125.0</ele><time>2026-05-01T09:48:18.957Z</time></trkpt><trkpt lat="37.9815899" lon="13.667872"><ele>125.0</ele><time>2026-05-01T09:48:19.957Z</time></trkpt><trkpt lat="37.9817148" lon="13.6675599"><ele>124.5</ele><time>2026-05-01T09:48:20.957Z</time></trkpt><trkpt lat="37.9818327" lon="13.6672372"><ele>124.0</ele><time>2026-05-01T09:48:21.957Z</time></trkpt><trkpt lat="37.9819469" lon="13.6669078"><ele>124.0</ele><time>2026-05-01T09:48:22.957Z</time></trkpt><trkpt lat="37.982055" lon="13.6665696"><ele>124.0</ele><time>2026-05-01T09:48:23.958Z</time></trkpt><trkpt lat="37.9821597" lon="13.6662277"><ele>125.0</ele><time>2026-05-01T09:48:24.958Z</time></trkpt><trkpt lat="37.9822512" lon="13.6658785"><ele>126.0</ele><time>2026-05-01T09:48:25.958Z</time></trkpt><trkpt lat="37.9823381" lon="13.665522"><ele>128.0</ele><time>2026-05-01T09:48:26.958Z</time></trkpt><trkpt lat="37.9824205" lon="13.6651682"><ele>130.0</ele><time>2026-05-01T09:48:27.958Z</time></trkpt><trkpt lat="37.9824978" lon="13.6648133"><ele>126.5</ele><time>2026-05-01T09:48:28.958Z</time></trkpt><trkpt lat="37.9825752" lon="13.6644542"><ele>123.0</ele><time>2026-05-01T09:48:29.958Z</time></trkpt><trkpt lat="37.9826516" lon="13.6640975"><ele>123.0</ele><time>2026-05-01T09:48:30.958Z</time></trkpt><trkpt lat="37.9827318" lon="13.6637376"><ele>123.0</ele><time>2026-05-01T09:48:31.957Z</time></trkpt><trkpt lat="37.9828128" lon="13.6633803"><ele>124.0</ele><time>2026-05-01T09:48:32.957Z</time></trkpt><trkpt lat="37.9828924" lon="13.6630207"><ele>125.0</ele><time>2026-05-01T09:48:33.957Z</time></trkpt><trkpt lat="37.9829726" lon="13.6626629"><ele>128.0</ele><time>2026-05-01T09:48:34.958Z</time></trkpt><trkpt lat="37.9830534" lon="13.662305"><ele>131.0</ele><time>2026-05-01T09:48:35.957Z</time></trkpt><trkpt lat="37.9831455" lon="13.6619495"><ele>134.5</ele><time>2026-05-01T09:48:36.958Z</time></trkpt><trkpt lat="37.9832474" lon="13.6615982"><ele>138.0</ele><time>2026-05-01T09:48:37.958Z</time></trkpt><trkpt lat="37.9833597" lon="13.6612557"><ele>131.5</ele><time>2026-05-01T09:48:38.958Z</time></trkpt><trkpt lat="37.9834849" lon="13.6609158"><ele>125.0</ele><time>2026-05-01T09:48:39.958Z</time></trkpt><trkpt lat="37.9836184" lon="13.6605857"><ele>129.0</ele><time>2026-05-01T09:48:40.957Z</time></trkpt><trkpt lat="37.9837633" lon="13.6602623"><ele>133.0</ele><time>2026-05-01T09:48:41.958Z</time></trkpt><trkpt lat="37.9839137" lon="13.6599452"><ele>133.0</ele><time>2026-05-01T09:48:42.957Z</time></trkpt><trkpt lat="37.9840737" lon="13.6596394"><ele>133.0</ele><time>2026-05-01T09:48:43.958Z</time></trkpt><trkpt lat="37.9842406" lon="13.6593407"><ele>130.0</ele><time>2026-05-01T09:48:44.957Z</time></trkpt><trkpt lat="37.9844157" lon="13.6590434"><ele>127.0</ele><time>2026-05-01T09:48:45.957Z</time></trkpt><trkpt lat="37.9845983" lon="13.658754"><ele>128.5</ele><time>2026-05-01T09:48:46.958Z</time></trkpt><trkpt lat="37.984787" lon="13.6584683"><ele>130.0</ele><time>2026-05-01T09:48:47.957Z</time></trkpt><trkpt lat="37.9849825" lon="13.658187"><ele>125.0</ele><time>2026-05-01T09:48:48.958Z</time></trkpt><trkpt lat="37.9851855" lon="13.6579158"><ele>120.0</ele><time>2026-05-01T09:48:49.957Z</time></trkpt><trkpt lat="37.9853993" lon="13.6576568"><ele>120.0</ele><time>2026-05-01T09:48:50.957Z</time></trkpt><trkpt lat="37.9856214" lon="13.6574037"><ele>120.0</ele><time>2026-05-01T09:48:51.957Z</time></trkpt><trkpt lat="37.9858475" lon="13.6571636"><ele>117.5</ele><time>2026-05-01T09:48:52.958Z</time></trkpt><trkpt lat="37.9860798" lon="13.6569403"><ele>115.0</ele><time>2026-05-01T09:48:53.957Z</time></trkpt><trkpt lat="37.9863219" lon="13.6567265"><ele>115.0</ele><time>2026-05-01T09:48:54.958Z</time></trkpt><trkpt lat="37.9865646" lon="13.6565209"><ele>115.0</ele><time>2026-05-01T09:48:55.957Z</time></trkpt><trkpt lat="37.9868111" lon="13.6563261"><ele>119.0</ele><time>2026-05-01T09:48:56.958Z</time></trkpt><trkpt lat="37.9870646" lon="13.656139"><ele>123.0</ele><time>2026-05-01T09:48:57.957Z</time></trkpt><trkpt lat="37.9873217" lon="13.6559676"><ele>115.5</ele><time>2026-05-01T09:48:58.958Z</time></trkpt><trkpt lat="37.9875862" lon="13.6558077"><ele>108.0</ele><time>2026-05-01T09:48:59.957Z</time></trkpt><trkpt lat="37.9878516" lon="13.655653"><ele>108.0</ele><time>2026-05-01T09:49:00.957Z</time></trkpt><trkpt lat="37.9881249" lon="13.6555159"><ele>108.0</ele><time>2026-05-01T09:49:01.958Z</time></trkpt><trkpt lat="37.9883996" lon="13.6553841"><ele>114.0</ele><time>2026-05-01T09:49:02.957Z</time></trkpt><trkpt lat="37.9886798" lon="13.6552657"><ele>120.0</ele><time>2026-05-01T09:49:03.958Z</time></trkpt><trkpt lat="37.988959" lon="13.6551431"><ele>115.0</ele><time>2026-05-01T09:49:04.958Z</time></trkpt><trkpt lat="37.989237" lon="13.655017"><ele>110.0</ele><time>2026-05-01T09:49:05.957Z</time></trkpt><trkpt lat="37.9895131" lon="13.6548876"><ele>110.0</ele><time>2026-05-01T09:49:06.957Z</time></trkpt><trkpt lat="37.9897888" lon="13.6547508"><ele>110.0</ele><time>2026-05-01T09:49:07.957Z</time></trkpt><trkpt lat="37.9900625" lon="13.6546053"><ele>115.0</ele><time>2026-05-01T09:49:08.957Z</time></trkpt><trkpt lat="37.9903272" lon="13.6544399"><ele>120.0</ele><time>2026-05-01T09:49:09.957Z</time></trkpt><trkpt lat="37.9905883" lon="13.6542665"><ele>93.0</ele><time>2026-05-01T09:49:10.957Z</time></trkpt><trkpt lat="37.9920302" lon="13.6530641"><ele>93.0</ele><time>2026-05-01T09:49:16.957Z</time></trkpt><trkpt lat="37.9922077" lon="13.6528326"><ele>93.0</ele><time>2026-05-01T09:49:17.958Z</time></trkpt><trkpt lat="37.9924248" lon="13.6525932"><ele>88.0</ele><time>2026-05-01T09:49:18.957Z</time></trkpt><trkpt lat="37.9926279" lon="13.6523919"><ele>83.0</ele><time>2026-05-01T09:49:19.957Z</time></trkpt><trkpt lat="37.994605" lon="13.649803"><ele>83.0</ele><time>2026-05-01T09:49:28.958Z</time></trkpt><trkpt lat="37.994803" lon="13.6494793"><ele>83.0</ele><time>2026-05-01T09:49:29.957Z</time></trkpt><trkpt lat="37.994989" lon="13.6492044"><ele>81.0</ele><time>2026-05-01T09:49:30.958Z</time></trkpt><trkpt lat="37.9951818" lon="13.6489298"><ele>79.0</ele><time>2026-05-01T09:49:31.957Z</time></trkpt><trkpt lat="37.9953858" lon="13.6486481"><ele>86.5</ele><time>2026-05-01T09:49:32.957Z</time></trkpt><trkpt lat="37.9955886" lon="13.6483733"><ele>94.0</ele><time>2026-05-01T09:49:33.957Z</time></trkpt><trkpt lat="37.9957865" lon="13.6480925"><ele>92.0</ele><time>2026-05-01T09:49:34.957Z</time></trkpt><trkpt lat="37.9959868" lon="13.6478131"><ele>90.0</ele><time>2026-05-01T09:49:35.958Z</time></trkpt><trkpt lat="37.9961881" lon="13.6475364"><ele>68.0</ele><time>2026-05-01T09:49:36.958Z</time></trkpt><trkpt lat="37.9980505" lon="13.6446074"><ele>72.0</ele><time>2026-05-01T09:49:46.957Z</time></trkpt><trkpt lat="37.9981934" lon="13.6442545"><ele>76.0</ele><time>2026-05-01T09:49:47.958Z</time></trkpt><trkpt lat="37.9983385" lon="13.6439125"><ele>62.5</ele><time>2026-05-01T09:49:48.957Z</time></trkpt><trkpt lat="37.9984659" lon="13.6435747"><ele>49.0</ele><time>2026-05-01T09:49:49.957Z</time></trkpt><trkpt lat="37.9985779" lon="13.6432157"><ele>49.0</ele><time>2026-05-01T09:49:50.957Z</time></trkpt><trkpt lat="37.9986798" lon="13.6428475"><ele>49.0</ele><time>2026-05-01T09:49:51.957Z</time></trkpt><trkpt lat="37.998768" lon="13.6424803"><ele>51.5</ele><time>2026-05-01T09:49:52.957Z</time></trkpt><trkpt lat="37.9988462" lon="13.642105"><ele>54.0</ele><time>2026-05-01T09:49:53.957Z</time></trkpt><trkpt lat="37.9989061" lon="13.6417299"><ele>55.5</ele><time>2026-05-01T09:49:54.957Z</time></trkpt><trkpt lat="37.9989596" lon="13.6413528"><ele>57.0</ele><time>2026-05-01T09:49:55.957Z</time></trkpt><trkpt lat="37.9990105" lon="13.6409765"><ele>60.5</ele><time>2026-05-01T09:49:56.957Z</time></trkpt><trkpt lat="37.9990624" lon="13.6406007"><ele>64.0</ele><time>2026-05-01T09:49:57.957Z</time></trkpt><trkpt lat="37.9991173" lon="13.6402274"><ele>53.0</ele><time>2026-05-01T09:49:58.958Z</time></trkpt><trkpt lat="37.9991747" lon="13.6398513"><ele>42.0</ele><time>2026-05-01T09:49:59.957Z</time></trkpt><trkpt lat="37.9992412" lon="13.6394818"><ele>41.5</ele><time>2026-05-01T09:50:00.958Z</time></trkpt><trkpt lat="37.9993193" lon="13.6391179"><ele>41.0</ele><time>2026-05-01T09:50:01.957Z</time></trkpt><trkpt lat="37.9994102" lon="13.6387531"><ele>42.0</ele><time>2026-05-01T09:50:02.957Z</time></trkpt><trkpt lat="37.999515" lon="13.638383"><ele>43.0</ele><time>2026-05-01T09:50:03.957Z</time></trkpt><trkpt lat="37.999631" lon="13.6380099"><ele>44.5</ele><time>2026-05-01T09:50:04.957Z</time></trkpt><trkpt lat="37.9997684" lon="13.6376206"><ele>46.0</ele><time>2026-05-01T09:50:05.957Z</time></trkpt><trkpt lat="37.9999198" lon="13.6372317"><ele>46.5</ele><time>2026-05-01T09:50:06.958Z</time></trkpt><trkpt lat="38.0000808" lon="13.6368494"><ele>47.0</ele><time>2026-05-01T09:50:07.957Z</time></trkpt><trkpt lat="38.0002549" lon="13.6364779"><ele>47.5</ele><time>2026-05-01T09:50:08.958Z</time></trkpt><trkpt lat="38.0004367" lon="13.6361191"><ele>48.0</ele><time>2026-05-01T09:50:09.957Z</time></trkpt><trkpt lat="38.0006246" lon="13.63577"><ele>48.0</ele><time>2026-05-01T09:50:10.958Z</time></trkpt><trkpt lat="38.0008206" lon="13.6354348"><ele>48.0</ele><time>2026-05-01T09:50:11.957Z</time></trkpt><trkpt lat="38.0010143" lon="13.6350993"><ele>46.0</ele><time>2026-05-01T09:50:12.957Z</time></trkpt><trkpt lat="38.0012013" lon="13.634765"><ele>44.0</ele><time>2026-05-01T09:50:13.957Z</time></trkpt><trkpt lat="38.0013792" lon="13.6344291"><ele>41.5</ele><time>2026-05-01T09:50:14.958Z</time></trkpt><trkpt lat="38.0015502" lon="13.634089"><ele>39.0</ele><time>2026-05-01T09:50:15.958Z</time></trkpt><trkpt lat="38.0017126" lon="13.6337483"><ele>36.0</ele><time>2026-05-01T09:50:16.957Z</time></trkpt><trkpt lat="38.0018625" lon="13.633396"><ele>33.0</ele><time>2026-05-01T09:50:17.958Z</time></trkpt><trkpt lat="38.0020005" lon="13.6330399"><ele>34.5</ele><time>2026-05-01T09:50:18.957Z</time></trkpt><trkpt lat="38.0021295" lon="13.6326804"><ele>36.0</ele><time>2026-05-01T09:50:19.958Z</time></trkpt><trkpt lat="38.0022524" lon="13.6323127"><ele>41.5</ele><time>2026-05-01T09:50:20.958Z</time></trkpt><trkpt lat="38.0023748" lon="13.6319475"><ele>47.0</ele><time>2026-05-01T09:50:21.958Z</time></trkpt><trkpt lat="38.0024944" lon="13.6315932"><ele>46.5</ele><time>2026-05-01T09:50:22.957Z</time></trkpt><trkpt lat="38.0026154" lon="13.6312268"><ele>46.0</ele><time>2026-05-01T09:50:23.957Z</time></trkpt><trkpt lat="38.0027408" lon="13.6308526"><ele>46.0</ele><time>2026-05-01T09:50:24.958Z</time></trkpt><trkpt lat="38.0028767" lon="13.6304534"><ele>46.0</ele><time>2026-05-01T09:50:25.958Z</time></trkpt><trkpt lat="38.0030138" lon="13.630024"><ele>48.0</ele><time>2026-05-01T09:50:26.958Z</time></trkpt><trkpt lat="38.0031594" lon="13.6295684"><ele>50.0</ele><time>2026-05-01T09:50:27.958Z</time></trkpt><trkpt lat="38.0033076" lon="13.6291088"><ele>43.0</ele><time>2026-05-01T09:50:28.958Z</time></trkpt><trkpt lat="38.0034485" lon="13.6286625"><ele>36.0</ele><time>2026-05-01T09:50:29.957Z</time></trkpt><trkpt lat="38.0035858" lon="13.6282228"><ele>36.0</ele><time>2026-05-01T09:50:30.957Z</time></trkpt><trkpt lat="38.003724" lon="13.6278031"><ele>36.0</ele><time>2026-05-01T09:50:31.958Z</time></trkpt><trkpt lat="38.0038624" lon="13.6273863"><ele>38.5</ele><time>2026-05-01T09:50:32.958Z</time></trkpt><trkpt lat="38.0040017" lon="13.626974"><ele>41.0</ele><time>2026-05-01T09:50:33.958Z</time></trkpt><trkpt lat="38.0041426" lon="13.6265487"><ele>37.5</ele><time>2026-05-01T09:50:34.957Z</time></trkpt><trkpt lat="38.0042939" lon="13.6261038"><ele>34.0</ele><time>2026-05-01T09:50:35.958Z</time></trkpt><trkpt lat="38.0044525" lon="13.6256551"><ele>34.5</ele><time>2026-05-01T09:50:36.957Z</time></trkpt><trkpt lat="38.0046054" lon="13.6252242"><ele>35.0</ele><time>2026-05-01T09:50:37.957Z</time></trkpt><trkpt lat="38.0047517" lon="13.6247901"><ele>32.0</ele><time>2026-05-01T09:50:38.957Z</time></trkpt><trkpt lat="38.0048943" lon="13.6243584"><ele>29.0</ele><time>2026-05-01T09:50:39.958Z</time></trkpt><trkpt lat="38.0050375" lon="13.6239356"><ele>27.5</ele><time>2026-05-01T09:50:40.958Z</time></trkpt><trkpt lat="38.0051811" lon="13.6235189"><ele>26.0</ele><time>2026-05-01T09:50:41.957Z</time></trkpt><trkpt lat="38.0053383" lon="13.6231082"><ele>28.5</ele><time>2026-05-01T09:50:42.957Z</time></trkpt><trkpt lat="38.0055129" lon="13.6227108"><ele>31.0</ele><time>2026-05-01T09:50:43.957Z</time></trkpt><trkpt lat="38.005699" lon="13.6223237"><ele>31.0</ele><time>2026-05-01T09:50:44.957Z</time></trkpt><trkpt lat="38.0059001" lon="13.6219554"><ele>31.0</ele><time>2026-05-01T09:50:45.957Z</time></trkpt><trkpt lat="38.0061101" lon="13.6215909"><ele>31.0</ele><time>2026-05-01T09:50:46.957Z</time></trkpt><trkpt lat="38.0063268" lon="13.6212295"><ele>31.0</ele><time>2026-05-01T09:50:47.957Z</time></trkpt><trkpt lat="38.0065465" lon="13.6208771"><ele>30.0</ele><time>2026-05-01T09:50:48.957Z</time></trkpt><trkpt lat="38.006766" lon="13.6205323"><ele>29.0</ele><time>2026-05-01T09:50:49.958Z</time></trkpt><trkpt lat="38.0069825" lon="13.6201847"><ele>31.0</ele><time>2026-05-01T09:50:50.957Z</time></trkpt><trkpt lat="38.0071995" lon="13.6198337"><ele>33.0</ele><time>2026-05-01T09:50:51.958Z</time></trkpt><trkpt lat="38.0074104" lon="13.6194834"><ele>31.5</ele><time>2026-05-01T09:50:52.957Z</time></trkpt><trkpt lat="38.0076238" lon="13.6191298"><ele>30.0</ele><time>2026-05-01T09:50:53.958Z</time></trkpt><trkpt lat="38.007845" lon="13.6187778"><ele>31.5</ele><time>2026-05-01T09:50:54.957Z</time></trkpt><trkpt lat="38.0080661" lon="13.618423"><ele>33.0</ele><time>2026-05-01T09:50:55.957Z</time></trkpt><trkpt lat="38.0082887" lon="13.6180696"><ele>33.0</ele><time>2026-05-01T09:50:56.958Z</time></trkpt><trkpt lat="38.0085142" lon="13.6177158"><ele>33.0</ele><time>2026-05-01T09:50:57.957Z</time></trkpt><trkpt lat="38.0087388" lon="13.6173586"><ele>33.0</ele><time>2026-05-01T09:50:58.958Z</time></trkpt><trkpt lat="38.0089733" lon="13.6169901"><ele>33.0</ele><time>2026-05-01T09:50:59.957Z</time></trkpt><trkpt lat="38.0092159" lon="13.6165977"><ele>37.0</ele><time>2026-05-01T09:51:00.957Z</time></trkpt><trkpt lat="38.0094701" lon="13.6161891"><ele>41.0</ele><time>2026-05-01T09:51:01.957Z</time></trkpt><trkpt lat="38.0097339" lon="13.615764"><ele>42.0</ele><time>2026-05-01T09:51:02.957Z</time></trkpt><trkpt lat="38.010004" lon="13.6153344"><ele>43.0</ele><time>2026-05-01T09:51:03.957Z</time></trkpt><trkpt lat="38.0102785" lon="13.6149056"><ele>46.0</ele><time>2026-05-01T09:51:04.958Z</time></trkpt><trkpt lat="38.0105531" lon="13.6144662"><ele>49.0</ele><time>2026-05-01T09:51:05.957Z</time></trkpt><trkpt lat="38.0108357" lon="13.6140184"><ele>51.0</ele><time>2026-05-01T09:51:06.957Z</time></trkpt><trkpt lat="38.0111205" lon="13.6135646"><ele>51.0</ele><time>2026-05-01T09:51:07.957Z</time></trkpt><trkpt lat="38.0114037" lon="13.6131136"><ele>56.0</ele><time>2026-05-01T09:51:08.957Z</time></trkpt><trkpt lat="38.011679" lon="13.6126832"><ele>61.0</ele><time>2026-05-01T09:51:09.957Z</time></trkpt><trkpt lat="38.0119511" lon="13.612261"><ele>64.5</ele><time>2026-05-01T09:51:10.957Z</time></trkpt><trkpt lat="38.0122111" lon="13.61185"><ele>68.0</ele><time>2026-05-01T09:51:11.957Z</time></trkpt><trkpt lat="38.012458" lon="13.6114574"><ele>67.0</ele><time>2026-05-01T09:51:12.957Z</time></trkpt><trkpt lat="38.0127074" lon="13.6110579"><ele>66.0</ele><time>2026-05-01T09:51:13.957Z</time></trkpt><trkpt lat="38.0129559" lon="13.6106623"><ele>68.5</ele><time>2026-05-01T09:51:14.958Z</time></trkpt><trkpt lat="38.0132041" lon="13.6102689"><ele>71.0</ele><time>2026-05-01T09:51:15.957Z</time></trkpt><trkpt lat="38.0134475" lon="13.6098856"><ele>67.5</ele><time>2026-05-01T09:51:16.958Z</time></trkpt><trkpt lat="38.0136875" lon="13.6095045"><ele>64.0</ele><time>2026-05-01T09:51:17.958Z</time></trkpt><trkpt lat="38.0139259" lon="13.609133"><ele>64.5</ele><time>2026-05-01T09:51:18.958Z</time></trkpt><trkpt lat="38.0141596" lon="13.6087722"><ele>65.0</ele><time>2026-05-01T09:51:19.958Z</time></trkpt><trkpt lat="38.0143853" lon="13.608437"><ele>69.5</ele><time>2026-05-01T09:51:20.958Z</time></trkpt><trkpt lat="38.0146076" lon="13.6081217"><ele>74.0</ele><time>2026-05-01T09:51:21.958Z</time></trkpt><trkpt lat="38.0148263" lon="13.6078272"><ele>75.5</ele><time>2026-05-01T09:51:22.958Z</time></trkpt><trkpt lat="38.0150419" lon="13.6075445"><ele>77.0</ele><time>2026-05-01T09:51:23.958Z</time></trkpt><trkpt lat="38.0152563" lon="13.6072645"><ele>78.5</ele><time>2026-05-01T09:51:24.958Z</time></trkpt><trkpt lat="38.0154733" lon="13.6069761"><ele>80.0</ele><time>2026-05-01T09:51:25.957Z</time></trkpt><trkpt lat="38.0156946" lon="13.606684"><ele>81.0</ele><time>2026-05-01T09:51:26.957Z</time></trkpt><trkpt lat="38.0159119" lon="13.6063946"><ele>82.0</ele><time>2026-05-01T09:51:27.958Z</time></trkpt><trkpt lat="38.0161274" lon="13.6061092"><ele>82.0</ele><time>2026-05-01T09:51:28.957Z</time></trkpt><trkpt lat="38.0163405" lon="13.6058294"><ele>82.0</ele><time>2026-05-01T09:51:29.957Z</time></trkpt><trkpt lat="38.0165552" lon="13.6055486"><ele>80.5</ele><time>2026-05-01T09:51:30.958Z</time></trkpt><trkpt lat="38.0167714" lon="13.6052673"><ele>79.0</ele><time>2026-05-01T09:51:31.957Z</time></trkpt><trkpt lat="38.0169872" lon="13.6049836"><ele>79.0</ele><time>2026-05-01T09:51:32.958Z</time></trkpt><trkpt lat="38.0172022" lon="13.6046971"><ele>79.0</ele><time>2026-05-01T09:51:33.957Z</time></trkpt><trkpt lat="38.0174187" lon="13.6044118"><ele>79.5</ele><time>2026-05-01T09:51:34.958Z</time></trkpt><trkpt lat="38.0176381" lon="13.6041281"><ele>80.0</ele><time>2026-05-01T09:51:35.957Z</time></trkpt><trkpt lat="38.0178555" lon="13.6038378"><ele>84.5</ele><time>2026-05-01T09:51:36.957Z</time></trkpt><trkpt lat="38.0180795" lon="13.6035362"><ele>89.0</ele><time>2026-05-01T09:51:37.957Z</time></trkpt><trkpt lat="38.0183124" lon="13.6032119"><ele>89.5</ele><time>2026-05-01T09:51:38.957Z</time></trkpt><trkpt lat="38.0185453" lon="13.6028732"><ele>90.0</ele><time>2026-05-01T09:51:39.957Z</time></trkpt><trkpt lat="38.0187659" lon="13.6025157"><ele>90.0</ele><time>2026-05-01T09:51:40.957Z</time></trkpt><trkpt lat="38.0189738" lon="13.6021449"><ele>90.0</ele><time>2026-05-01T09:51:41.957Z</time></trkpt><trkpt lat="38.0191663" lon="13.6017734"><ele>94.0</ele><time>2026-05-01T09:51:42.957Z</time></trkpt><trkpt lat="38.0193503" lon="13.6013975"><ele>98.0</ele><time>2026-05-01T09:51:43.957Z</time></trkpt><trkpt lat="38.0195166" lon="13.601027"><ele>102.5</ele><time>2026-05-01T09:51:44.957Z</time></trkpt><trkpt lat="38.0196712" lon="13.6006452"><ele>107.0</ele><time>2026-05-01T09:51:45.958Z</time></trkpt><trkpt lat="38.0198139" lon="13.6002609"><ele>105.5</ele><time>2026-05-01T09:51:46.957Z</time></trkpt><trkpt lat="38.0199442" lon="13.5998772"><ele>104.0</ele><time>2026-05-01T09:51:47.957Z</time></trkpt><trkpt lat="38.0200601" lon="13.5994896"><ele>104.0</ele><time>2026-05-01T09:51:48.958Z</time></trkpt><trkpt lat="38.0201647" lon="13.5990893"><ele>104.0</ele><time>2026-05-01T09:51:49.957Z</time></trkpt><trkpt lat="38.0202585" lon="13.5986891"><ele>105.0</ele><time>2026-05-01T09:51:50.958Z</time></trkpt><trkpt lat="38.0203431" lon="13.5982772"><ele>106.0</ele><time>2026-05-01T09:51:51.958Z</time></trkpt><trkpt lat="38.0204145" lon="13.5978661"><ele>106.0</ele><time>2026-05-01T09:51:52.958Z</time></trkpt><trkpt lat="38.0204764" lon="13.5974484"><ele>106.0</ele><time>2026-05-01T09:51:53.958Z</time></trkpt><trkpt lat="38.0205249" lon="13.5970306"><ele>103.5</ele><time>2026-05-01T09:51:54.958Z</time></trkpt><trkpt lat="38.0205652" lon="13.5966114"><ele>101.0</ele><time>2026-05-01T09:51:55.958Z</time></trkpt><trkpt lat="38.0205975" lon="13.5961932"><ele>98.5</ele><time>2026-05-01T09:51:56.957Z</time></trkpt><trkpt lat="38.0206292" lon="13.5957679"><ele>96.0</ele><time>2026-05-01T09:51:57.957Z</time></trkpt><trkpt lat="38.0206694" lon="13.595344"><ele>104.0</ele><time>2026-05-01T09:51:58.958Z</time></trkpt><trkpt lat="38.0207126" lon="13.5949232"><ele>112.0</ele><time>2026-05-01T09:51:59.958Z</time></trkpt><trkpt lat="38.020755" lon="13.5945019"><ele>113.5</ele><time>2026-05-01T09:52:00.957Z</time></trkpt><trkpt lat="38.0207958" lon="13.5940814"><ele>115.0</ele><time>2026-05-01T09:52:01.957Z</time></trkpt><trkpt lat="38.0208433" lon="13.5936571"><ele>115.0</ele><time>2026-05-01T09:52:02.958Z</time></trkpt><trkpt lat="38.0209059" lon="13.5932333"><ele>115.0</ele><time>2026-05-01T09:52:03.957Z</time></trkpt><trkpt lat="38.0209833" lon="13.5928083"><ele>114.5</ele><time>2026-05-01T09:52:04.957Z</time></trkpt><trkpt lat="38.0210784" lon="13.5923882"><ele>114.0</ele><time>2026-05-01T09:52:05.957Z</time></trkpt><trkpt lat="38.0211869" lon="13.5919667"><ele>113.0</ele><time>2026-05-01T09:52:06.958Z</time></trkpt><trkpt lat="38.0213072" lon="13.5915541"><ele>112.0</ele><time>2026-05-01T09:52:07.958Z</time></trkpt><trkpt lat="38.0214412" lon="13.5911412"><ele>112.0</ele><time>2026-05-01T09:52:08.957Z</time></trkpt><trkpt lat="38.0215874" lon="13.5907307"><ele>112.0</ele><time>2026-05-01T09:52:09.958Z</time></trkpt><trkpt lat="38.0217492" lon="13.5903267"><ele>105.0</ele><time>2026-05-01T09:52:10.957Z</time></trkpt><trkpt lat="38.0219228" lon="13.5899326"><ele>98.0</ele><time>2026-05-01T09:52:11.958Z</time></trkpt><trkpt lat="38.0221072" lon="13.5895428"><ele>95.0</ele><time>2026-05-01T09:52:12.965Z</time></trkpt><trkpt lat="38.0222985" lon="13.5891612"><ele>92.0</ele><time>2026-05-01T09:52:13.965Z</time></trkpt><trkpt lat="38.0224993" lon="13.588789"><ele>93.5</ele><time>2026-05-01T09:52:14.965Z</time></trkpt><trkpt lat="38.0226974" lon="13.5884203"><ele>95.0</ele><time>2026-05-01T09:52:15.964Z</time></trkpt><trkpt lat="38.0228892" lon="13.5880478"><ele>96.5</ele><time>2026-05-01T09:52:16.964Z</time></trkpt><trkpt lat="38.0230798" lon="13.5876743"><ele>98.0</ele><time>2026-05-01T09:52:17.964Z</time></trkpt><trkpt lat="38.0232737" lon="13.5873029"><ele>99.5</ele><time>2026-05-01T09:52:18.964Z</time></trkpt><trkpt lat="38.0234664" lon="13.5869316"><ele>101.0</ele><time>2026-05-01T09:52:19.964Z</time></trkpt><trkpt lat="38.0236604" lon="13.58656"><ele>101.0</ele><time>2026-05-01T09:52:20.965Z</time></trkpt><trkpt lat="38.0238533" lon="13.5861954"><ele>101.0</ele><time>2026-05-01T09:52:21.964Z</time></trkpt><trkpt lat="38.0240495" lon="13.58583"><ele>102.5</ele><time>2026-05-01T09:52:22.965Z</time></trkpt><trkpt lat="38.0242442" lon="13.5854629"><ele>104.0</ele><time>2026-05-01T09:52:23.965Z</time></trkpt><trkpt lat="38.0244416" lon="13.5850976"><ele>106.0</ele><time>2026-05-01T09:52:24.964Z</time></trkpt><trkpt lat="38.0246341" lon="13.5847329"><ele>108.0</ele><time>2026-05-01T09:52:25.965Z</time></trkpt><trkpt lat="38.0248272" lon="13.5843675"><ele>106.5</ele><time>2026-05-01T09:52:26.965Z</time></trkpt><trkpt lat="38.025016" lon="13.584002"><ele>105.0</ele><time>2026-05-01T09:52:27.965Z</time></trkpt><trkpt lat="38.0252043" lon="13.583638"><ele>104.5</ele><time>2026-05-01T09:52:28.964Z</time></trkpt><trkpt lat="38.0253939" lon="13.5832765"><ele>104.0</ele><time>2026-05-01T09:52:29.965Z</time></trkpt><trkpt lat="38.0255884" lon="13.5829168"><ele>104.5</ele><time>2026-05-01T09:52:30.966Z</time></trkpt><trkpt lat="38.0257825" lon="13.5825559"><ele>105.0</ele><time>2026-05-01T09:52:31.965Z</time></trkpt><trkpt lat="38.0259779" lon="13.5821859"><ele>101.5</ele><time>2026-05-01T09:52:32.966Z</time></trkpt><trkpt lat="38.0261675" lon="13.5818193"><ele>98.0</ele><time>2026-05-01T09:52:33.965Z</time></trkpt><trkpt lat="38.0263602" lon="13.5814523"><ele>97.5</ele><time>2026-05-01T09:52:34.965Z</time></trkpt><trkpt lat="38.026554" lon="13.5810856"><ele>97.0</ele><time>2026-05-01T09:52:35.966Z</time></trkpt><trkpt lat="38.0267495" lon="13.5807181"><ele>95.0</ele><time>2026-05-01T09:52:36.966Z</time></trkpt><trkpt lat="38.0269446" lon="13.5803546"><ele>93.0</ele><time>2026-05-01T09:52:37.966Z</time></trkpt><trkpt lat="38.0271407" lon="13.5799842"><ele>92.5</ele><time>2026-05-01T09:52:38.966Z</time></trkpt><trkpt lat="38.0273335" lon="13.5796161"><ele>92.0</ele><time>2026-05-01T09:52:39.966Z</time></trkpt><trkpt lat="38.0275289" lon="13.5792459"><ele>89.5</ele><time>2026-05-01T09:52:40.965Z</time></trkpt><trkpt lat="38.0277228" lon="13.5788773"><ele>87.0</ele><time>2026-05-01T09:52:41.966Z</time></trkpt><trkpt lat="38.0279165" lon="13.5785123"><ele>87.0</ele><time>2026-05-01T09:52:42.966Z</time></trkpt><trkpt lat="38.0281093" lon="13.5781454"><ele>87.0</ele><time>2026-05-01T09:52:43.965Z</time></trkpt><trkpt lat="38.0283054" lon="13.5777806"><ele>84.5</ele><time>2026-05-01T09:52:44.965Z</time></trkpt><trkpt lat="38.0285003" lon="13.5774195"><ele>82.0</ele><time>2026-05-01T09:52:45.966Z</time></trkpt><trkpt lat="38.0286951" lon="13.5770596"><ele>83.0</ele><time>2026-05-01T09:52:46.966Z</time></trkpt><trkpt lat="38.0288873" lon="13.5767052"><ele>84.0</ele><time>2026-05-01T09:52:47.965Z</time></trkpt><trkpt lat="38.0290759" lon="13.5763519"><ele>82.0</ele><time>2026-05-01T09:52:48.965Z</time></trkpt><trkpt lat="38.0292644" lon="13.5759937"><ele>80.0</ele><time>2026-05-01T09:52:49.966Z</time></trkpt><trkpt lat="38.0294515" lon="13.5756379"><ele>81.5</ele><time>2026-05-01T09:52:50.966Z</time></trkpt><trkpt lat="38.0296405" lon="13.5752826"><ele>83.0</ele><time>2026-05-01T09:52:51.965Z</time></trkpt><trkpt lat="38.0298278" lon="13.5749244"><ele>81.0</ele><time>2026-05-01T09:52:52.966Z</time></trkpt><trkpt lat="38.0300163" lon="13.5745702"><ele>79.0</ele><time>2026-05-01T09:52:53.966Z</time></trkpt><trkpt lat="38.0302038" lon="13.5742125"><ele>79.0</ele><time>2026-05-01T09:52:54.966Z</time></trkpt><trkpt lat="38.0303909" lon="13.5738593"><ele>79.0</ele><time>2026-05-01T09:52:55.965Z</time></trkpt><trkpt lat="38.0305766" lon="13.5735082"><ele>78.5</ele><time>2026-05-01T09:52:56.966Z</time></trkpt><trkpt lat="38.0307636" lon="13.5731507"><ele>78.0</ele><time>2026-05-01T09:52:57.965Z</time></trkpt><trkpt lat="38.0309501" lon="13.5728"><ele>75.5</ele><time>2026-05-01T09:52:58.965Z</time></trkpt><trkpt lat="38.0311358" lon="13.572446"><ele>73.0</ele><time>2026-05-01T09:52:59.965Z</time></trkpt><trkpt lat="38.0313212" lon="13.5720936"><ele>74.0</ele><time>2026-05-01T09:53:00.965Z</time></trkpt><trkpt lat="38.0315022" lon="13.5717458"><ele>75.0</ele><time>2026-05-01T09:53:01.965Z</time></trkpt><trkpt lat="38.0316831" lon="13.5713946"><ele>76.5</ele><time>2026-05-01T09:53:02.965Z</time></trkpt><trkpt lat="38.0318595" lon="13.5710432"><ele>78.0</ele><time>2026-05-01T09:53:03.965Z</time></trkpt><trkpt lat="38.0320358" lon="13.5706909"><ele>78.0</ele><time>2026-05-01T09:53:04.965Z</time></trkpt><trkpt lat="38.0322145" lon="13.570341"><ele>78.0</ele><time>2026-05-01T09:53:05.966Z</time></trkpt><trkpt lat="38.0323936" lon="13.5699931"><ele>77.0</ele><time>2026-05-01T09:53:06.965Z</time></trkpt><trkpt lat="38.0325747" lon="13.5696483"><ele>76.0</ele><time>2026-05-01T09:53:07.965Z</time></trkpt><trkpt lat="38.0327567" lon="13.5693029"><ele>76.0</ele><time>2026-05-01T09:53:08.965Z</time></trkpt><trkpt lat="38.0329398" lon="13.5689614"><ele>76.0</ele><time>2026-05-01T09:53:09.965Z</time></trkpt><trkpt lat="38.0331234" lon="13.5686213"><ele>74.0</ele><time>2026-05-01T09:53:10.965Z</time></trkpt><trkpt lat="38.0333142" lon="13.5682866"><ele>72.0</ele><time>2026-05-01T09:53:11.965Z</time></trkpt><trkpt lat="38.0335042" lon="13.5679581"><ele>73.0</ele><time>2026-05-01T09:53:12.966Z</time></trkpt><trkpt lat="38.0336866" lon="13.5676209"><ele>74.0</ele><time>2026-05-01T09:53:13.966Z</time></trkpt><trkpt lat="38.0338688" lon="13.5672796"><ele>73.5</ele><time>2026-05-01T09:53:14.965Z</time></trkpt><trkpt lat="38.0340483" lon="13.5669452"><ele>73.0</ele><time>2026-05-01T09:53:15.965Z</time></trkpt><trkpt lat="38.0342316" lon="13.5666217"><ele>73.0</ele><time>2026-05-01T09:53:16.966Z</time></trkpt><trkpt lat="38.034422" lon="13.5663095"><ele>73.0</ele><time>2026-05-01T09:53:17.965Z</time></trkpt><trkpt lat="38.0346261" lon="13.5660163"><ele>73.0</ele><time>2026-05-01T09:53:18.966Z</time></trkpt><trkpt lat="38.0348387" lon="13.5657296"><ele>73.0</ele><time>2026-05-01T09:53:19.965Z</time></trkpt><trkpt lat="38.0350459" lon="13.5654553"><ele>72.5</ele><time>2026-05-01T09:53:20.965Z</time></trkpt><trkpt lat="38.0352645" lon="13.5651911"><ele>72.0</ele><time>2026-05-01T09:53:21.966Z</time></trkpt><trkpt lat="38.0354995" lon="13.5649189"><ele>72.0</ele><time>2026-05-01T09:53:22.966Z</time></trkpt><trkpt lat="38.0357422" lon="13.564658"><ele>72.0</ele><time>2026-05-01T09:53:23.965Z</time></trkpt><trkpt lat="38.0359925" lon="13.5644077"><ele>70.0</ele><time>2026-05-01T09:53:24.965Z</time></trkpt><trkpt lat="38.0362485" lon="13.5641752"><ele>68.0</ele><time>2026-05-01T09:53:25.965Z</time></trkpt><trkpt lat="38.0365112" lon="13.5639594"><ele>63.5</ele><time>2026-05-01T09:53:26.965Z</time></trkpt><trkpt lat="38.0367857" lon="13.5637525"><ele>59.0</ele><time>2026-05-01T09:53:27.965Z</time></trkpt><trkpt lat="38.0370789" lon="13.5635414"><ele>59.0</ele><time>2026-05-01T09:53:28.965Z</time></trkpt><trkpt lat="38.037377" lon="13.5633296"><ele>59.0</ele><time>2026-05-01T09:53:29.965Z</time></trkpt><trkpt lat="38.0376671" lon="13.5631024"><ele>53.5</ele><time>2026-05-01T09:53:30.966Z</time></trkpt><trkpt lat="38.0379545" lon="13.5628779"><ele>48.0</ele><time>2026-05-01T09:53:31.966Z</time></trkpt><trkpt lat="38.0382379" lon="13.5626484"><ele>38.0</ele><time>2026-05-01T09:53:32.966Z</time></trkpt><trkpt lat="38.0385221" lon="13.5624022"><ele>28.0</ele><time>2026-05-01T09:53:33.965Z</time></trkpt><trkpt lat="38.0387987" lon="13.5621379"><ele>31.5</ele><time>2026-05-01T09:53:34.965Z</time></trkpt><trkpt lat="38.0390658" lon="13.5618683"><ele>35.0</ele><time>2026-05-01T09:53:35.965Z</time></trkpt><trkpt lat="38.0393283" lon="13.5615993"><ele>43.0</ele><time>2026-05-01T09:53:36.965Z</time></trkpt><trkpt lat="38.039588" lon="13.5613281"><ele>51.0</ele><time>2026-05-01T09:53:37.966Z</time></trkpt><trkpt lat="38.0398426" lon="13.5610553"><ele>50.5</ele><time>2026-05-01T09:53:38.966Z</time></trkpt><trkpt lat="38.0400924" lon="13.5607755"><ele>50.0</ele><time>2026-05-01T09:53:39.965Z</time></trkpt><trkpt lat="38.0403359" lon="13.5604888"><ele>52.5</ele><time>2026-05-01T09:53:40.965Z</time></trkpt><trkpt lat="38.0405714" lon="13.5601969"><ele>55.0</ele><time>2026-05-01T09:53:41.965Z</time></trkpt><trkpt lat="38.0408011" lon="13.5599037"><ele>47.0</ele><time>2026-05-01T09:53:42.965Z</time></trkpt><trkpt lat="38.0410192" lon="13.5595991"><ele>39.0</ele><time>2026-05-01T09:53:43.965Z</time></trkpt><trkpt lat="38.0412344" lon="13.5592894"><ele>39.0</ele><time>2026-05-01T09:53:44.966Z</time></trkpt><trkpt lat="38.0414397" lon="13.5589702"><ele>39.0</ele><time>2026-05-01T09:53:45.965Z</time></trkpt><trkpt lat="38.0416326" lon="13.5586561"><ele>43.0</ele><time>2026-05-01T09:53:46.966Z</time></trkpt><trkpt lat="38.0418132" lon="13.5583579"><ele>47.0</ele><time>2026-05-01T09:53:47.966Z</time></trkpt><trkpt lat="38.0419972" lon="13.558072"><ele>51.5</ele><time>2026-05-01T09:53:48.966Z</time></trkpt><trkpt lat="38.0421784" lon="13.5577829"><ele>56.0</ele><time>2026-05-01T09:53:49.966Z</time></trkpt><trkpt lat="38.0423596" lon="13.5575004"><ele>44.0</ele><time>2026-05-01T09:53:50.965Z</time></trkpt><trkpt lat="38.0425431" lon="13.5572105"><ele>32.0</ele><time>2026-05-01T09:53:51.965Z</time></trkpt><trkpt lat="38.0427348" lon="13.5568996"><ele>32.0</ele><time>2026-05-01T09:53:52.965Z</time></trkpt><trkpt lat="38.0429456" lon="13.5565786"><ele>32.0</ele><time>2026-05-01T09:53:53.965Z</time></trkpt><trkpt lat="38.0431648" lon="13.5562727"><ele>30.0</ele><time>2026-05-01T09:53:54.965Z</time></trkpt><trkpt lat="38.0433792" lon="13.5559884"><ele>28.0</ele><time>2026-05-01T09:53:55.965Z</time></trkpt><trkpt lat="38.0435867" lon="13.5557254"><ele>28.0</ele><time>2026-05-01T09:53:56.965Z</time></trkpt><trkpt lat="38.043797" lon="13.555472"><ele>28.0</ele><time>2026-05-01T09:53:57.965Z</time></trkpt><trkpt lat="38.0440028" lon="13.5552276"><ele>26.5</ele><time>2026-05-01T09:53:58.966Z</time></trkpt><trkpt lat="38.0442115" lon="13.5549841"><ele>25.0</ele><time>2026-05-01T09:53:59.965Z</time></trkpt><trkpt lat="38.0444207" lon="13.5547288"><ele>27.5</ele><time>2026-05-01T09:54:00.965Z</time></trkpt><trkpt lat="38.0446243" lon="13.55448"><ele>30.0</ele><time>2026-05-01T09:54:01.965Z</time></trkpt><trkpt lat="38.0448303" lon="13.5542277"><ele>27.0</ele><time>2026-05-01T09:54:02.965Z</time></trkpt><trkpt lat="38.0450438" lon="13.5539663"><ele>24.0</ele><time>2026-05-01T09:54:03.966Z</time></trkpt><trkpt lat="38.0452637" lon="13.5537019"><ele>24.0</ele><time>2026-05-01T09:54:04.966Z</time></trkpt><trkpt lat="38.0454852" lon="13.5534377"><ele>24.0</ele><time>2026-05-01T09:54:05.966Z</time></trkpt><trkpt lat="38.0457088" lon="13.5531726"><ele>23.5</ele><time>2026-05-01T09:54:06.965Z</time></trkpt><trkpt lat="38.0459338" lon="13.5529115"><ele>23.0</ele><time>2026-05-01T09:54:07.966Z</time></trkpt><trkpt lat="38.0461574" lon="13.5526468"><ele>23.0</ele><time>2026-05-01T09:54:08.965Z</time></trkpt><trkpt lat="38.046379" lon="13.5523783"><ele>23.0</ele><time>2026-05-01T09:54:09.965Z</time></trkpt><trkpt lat="38.0466018" lon="13.5521063"><ele>22.0</ele><time>2026-05-01T09:54:10.965Z</time></trkpt><trkpt lat="38.0468243" lon="13.5518341"><ele>21.0</ele><time>2026-05-01T09:54:11.965Z</time></trkpt><trkpt lat="38.0470498" lon="13.5515653"><ele>21.0</ele><time>2026-05-01T09:54:12.966Z</time></trkpt><trkpt lat="38.0472723" lon="13.5512985"><ele>21.0</ele><time>2026-05-01T09:54:13.966Z</time></trkpt><trkpt lat="38.0474919" lon="13.5510359"><ele>20.0</ele><time>2026-05-01T09:54:14.966Z</time></trkpt><trkpt lat="38.047709" lon="13.5507752"><ele>19.0</ele><time>2026-05-01T09:54:15.965Z</time></trkpt><trkpt lat="38.0479241" lon="13.5505054"><ele>19.5</ele><time>2026-05-01T09:54:16.965Z</time></trkpt><trkpt lat="38.0481327" lon="13.5502398"><ele>20.0</ele><time>2026-05-01T09:54:17.966Z</time></trkpt><trkpt lat="38.0483358" lon="13.5499728"><ele>20.0</ele><time>2026-05-01T09:54:18.965Z</time></trkpt><trkpt lat="38.0485336" lon="13.5496971"><ele>20.0</ele><time>2026-05-01T09:54:19.965Z</time></trkpt><trkpt lat="38.0487204" lon="13.5494146"><ele>21.5</ele><time>2026-05-01T09:54:20.965Z</time></trkpt><trkpt lat="38.0489025" lon="13.549128"><ele>23.0</ele><time>2026-05-01T09:54:21.965Z</time></trkpt><trkpt lat="38.0490808" lon="13.5488598"><ele>18.0</ele><time>2026-05-01T09:54:22.966Z</time></trkpt><trkpt lat="38.0492529" lon="13.5486057"><ele>13.0</ele><time>2026-05-01T09:54:23.965Z</time></trkpt><trkpt lat="38.0494219" lon="13.5483511"><ele>13.0</ele><time>2026-05-01T09:54:24.965Z</time></trkpt><trkpt lat="38.0495919" lon="13.5481012"><ele>13.0</ele><time>2026-05-01T09:54:25.965Z</time></trkpt><trkpt lat="38.0497542" lon="13.5478532"><ele>13.5</ele><time>2026-05-01T09:54:26.965Z</time></trkpt><trkpt lat="38.0499063" lon="13.5476274"><ele>14.0</ele><time>2026-05-01T09:54:27.965Z</time></trkpt><trkpt lat="38.0500495" lon="13.5474086"><ele>14.0</ele><time>2026-05-01T09:54:28.966Z</time></trkpt><trkpt lat="38.0501866" lon="13.5472027"><ele>14.0</ele><time>2026-05-01T09:54:29.965Z</time></trkpt><trkpt lat="38.0503191" lon="13.5470022"><ele>14.0</ele><time>2026-05-01T09:54:30.965Z</time></trkpt><trkpt lat="38.0504578" lon="13.5467913"><ele>15.0</ele><time>2026-05-01T09:54:31.966Z</time></trkpt><trkpt lat="38.0506055" lon="13.5465696"><ele>16.0</ele><time>2026-05-01T09:54:32.965Z</time></trkpt><trkpt lat="38.0507549" lon="13.5463446"><ele>29.0</ele><time>2026-05-01T09:54:33.965Z</time></trkpt><trkpt lat="38.0509094" lon="13.5461135"><ele>42.0</ele><time>2026-05-01T09:54:34.965Z</time></trkpt><trkpt lat="38.0510694" lon="13.5458624"><ele>42.0</ele><time>2026-05-01T09:54:35.965Z</time></trkpt><trkpt lat="38.0512452" lon="13.5456046"><ele>42.0</ele><time>2026-05-01T09:54:36.965Z</time></trkpt><trkpt lat="38.0514392" lon="13.5453272"><ele>38.5</ele><time>2026-05-01T09:54:37.965Z</time></trkpt><trkpt lat="38.0516508" lon="13.5450206"><ele>35.0</ele><time>2026-05-01T09:54:38.966Z</time></trkpt><trkpt lat="38.0518755" lon="13.544685"><ele>42.0</ele><time>2026-05-01T09:54:39.966Z</time></trkpt><trkpt lat="38.0521048" lon="13.5443359"><ele>49.0</ele><time>2026-05-01T09:54:40.966Z</time></trkpt><trkpt lat="38.0523317" lon="13.5439773"><ele>40.0</ele><time>2026-05-01T09:54:41.966Z</time></trkpt><trkpt lat="38.0525545" lon="13.543625"><ele>31.0</ele><time>2026-05-01T09:54:42.965Z</time></trkpt><trkpt lat="38.0527803" lon="13.5432657"><ele>31.0</ele><time>2026-05-01T09:54:43.966Z</time></trkpt><trkpt lat="38.0530219" lon="13.5428948"><ele>31.0</ele><time>2026-05-01T09:54:44.965Z</time></trkpt><trkpt lat="38.0532799" lon="13.5425029"><ele>32.5</ele><time>2026-05-01T09:54:45.965Z</time></trkpt><trkpt lat="38.0535317" lon="13.5421287"><ele>34.0</ele><time>2026-05-01T09:54:46.965Z</time></trkpt><trkpt lat="38.0537644" lon="13.5417788"><ele>35.0</ele><time>2026-05-01T09:54:47.965Z</time></trkpt><trkpt lat="38.0539788" lon="13.5414509"><ele>36.0</ele><time>2026-05-01T09:54:48.965Z</time></trkpt><trkpt lat="38.0541892" lon="13.5411279"><ele>36.0</ele><time>2026-05-01T09:54:49.966Z</time></trkpt><trkpt lat="38.0543949" lon="13.540816"><ele>36.0</ele><time>2026-05-01T09:54:50.965Z</time></trkpt><trkpt lat="38.0545953" lon="13.5404988"><ele>34.5</ele><time>2026-05-01T09:54:51.966Z</time></trkpt><trkpt lat="38.0548018" lon="13.5401906"><ele>33.0</ele><time>2026-05-01T09:54:52.966Z</time></trkpt><trkpt lat="38.0550096" lon="13.5398835"><ele>41.5</ele><time>2026-05-01T09:54:53.966Z</time></trkpt><trkpt lat="38.0552176" lon="13.5395761"><ele>50.0</ele><time>2026-05-01T09:54:54.965Z</time></trkpt><trkpt lat="38.0554273" lon="13.5392671"><ele>50.5</ele><time>2026-05-01T09:54:55.965Z</time></trkpt><trkpt lat="38.0556381" lon="13.5389548"><ele>51.0</ele><time>2026-05-01T09:54:56.966Z</time></trkpt><trkpt lat="38.0558453" lon="13.5386411"><ele>56.5</ele><time>2026-05-01T09:54:57.966Z</time></trkpt><trkpt lat="38.0560497" lon="13.5383256"><ele>62.0</ele><time>2026-05-01T09:54:58.965Z</time></trkpt><trkpt lat="38.056253" lon="13.5380103"><ele>62.0</ele><time>2026-05-01T09:54:59.965Z</time></trkpt><trkpt lat="38.0564504" lon="13.5376977"><ele>62.0</ele><time>2026-05-01T09:55:00.965Z</time></trkpt><trkpt lat="38.0566474" lon="13.5373722"><ele>64.5</ele><time>2026-05-01T09:55:01.966Z</time></trkpt><trkpt lat="38.0568412" lon="13.5370341"><ele>67.0</ele><time>2026-05-01T09:55:02.965Z</time></trkpt><trkpt lat="38.0570244" lon="13.5366885"><ele>67.0</ele><time>2026-05-01T09:55:03.965Z</time></trkpt><trkpt lat="38.0571955" lon="13.5363323"><ele>67.0</ele><time>2026-05-01T09:55:04.965Z</time></trkpt><trkpt lat="38.0573548" lon="13.5359664"><ele>66.5</ele><time>2026-05-01T09:55:05.965Z</time></trkpt><trkpt lat="38.0575074" lon="13.5355981"><ele>66.0</ele><time>2026-05-01T09:55:06.966Z</time></trkpt><trkpt lat="38.0576527" lon="13.5352163"><ele>67.5</ele><time>2026-05-01T09:55:07.965Z</time></trkpt><trkpt lat="38.0577911" lon="13.5348294"><ele>69.0</ele><time>2026-05-01T09:55:08.966Z</time></trkpt><trkpt lat="38.0579304" lon="13.5344435"><ele>69.0</ele><time>2026-05-01T09:55:09.965Z</time></trkpt><trkpt lat="38.0580747" lon="13.5340553"><ele>69.0</ele><time>2026-05-01T09:55:10.965Z</time></trkpt><trkpt lat="38.0582223" lon="13.5336635"><ele>66.5</ele><time>2026-05-01T09:55:11.965Z</time></trkpt><trkpt lat="38.058366" lon="13.5332785"><ele>64.0</ele><time>2026-05-01T09:55:12.966Z</time></trkpt><trkpt lat="38.0585097" lon="13.5328926"><ele>64.0</ele><time>2026-05-01T09:55:13.966Z</time></trkpt><trkpt lat="38.0586529" lon="13.5325087"><ele>64.0</ele><time>2026-05-01T09:55:14.966Z</time></trkpt><trkpt lat="38.0587927" lon="13.5321206"><ele>62.0</ele><time>2026-05-01T09:55:15.965Z</time></trkpt><trkpt lat="38.0589327" lon="13.5317362"><ele>60.0</ele><time>2026-05-01T09:55:16.965Z</time></trkpt><trkpt lat="38.0590719" lon="13.5313446"><ele>50.5</ele><time>2026-05-01T09:55:17.965Z</time></trkpt><trkpt lat="38.0592147" lon="13.530957"><ele>41.0</ele><time>2026-05-01T09:55:18.965Z</time></trkpt><trkpt lat="38.0593587" lon="13.5305674"><ele>40.0</ele><time>2026-05-01T09:55:19.965Z</time></trkpt><trkpt lat="38.0594985" lon="13.5301806"><ele>39.0</ele><time>2026-05-01T09:55:20.966Z</time></trkpt><trkpt lat="38.0596416" lon="13.5297915"><ele>42.5</ele><time>2026-05-01T09:55:21.966Z</time></trkpt><trkpt lat="38.059786" lon="13.529399"><ele>46.0</ele><time>2026-05-01T09:55:22.966Z</time></trkpt><trkpt lat="38.0599282" lon="13.5290055"><ele>55.5</ele><time>2026-05-01T09:55:23.965Z</time></trkpt><trkpt lat="38.0600668" lon="13.5286112"><ele>65.0</ele><time>2026-05-01T09:55:24.966Z</time></trkpt><trkpt lat="38.0602026" lon="13.528217"><ele>65.0</ele><time>2026-05-01T09:55:25.965Z</time></trkpt><trkpt lat="38.0603337" lon="13.5278158"><ele>65.0</ele><time>2026-05-01T09:55:26.965Z</time></trkpt><trkpt lat="38.0604511" lon="13.5274091"><ele>66.0</ele><time>2026-05-01T09:55:27.966Z</time></trkpt><trkpt lat="38.060547" lon="13.5269873"><ele>67.0</ele><time>2026-05-01T09:55:28.966Z</time></trkpt><trkpt lat="38.0606127" lon="13.5265534"><ele>68.0</ele><time>2026-05-01T09:55:29.965Z</time></trkpt><trkpt lat="38.0606569" lon="13.5261074"><ele>69.0</ele><time>2026-05-01T09:55:30.966Z</time></trkpt><trkpt lat="38.0606796" lon="13.5256565"><ele>70.0</ele><time>2026-05-01T09:55:31.965Z</time></trkpt><trkpt lat="38.0606799" lon="13.5252049"><ele>71.0</ele><time>2026-05-01T09:55:32.965Z</time></trkpt><trkpt lat="38.0606549" lon="13.5247503"><ele>71.0</ele><time>2026-05-01T09:55:33.965Z</time></trkpt><trkpt lat="38.0606136" lon="13.5242962"><ele>71.0</ele><time>2026-05-01T09:55:34.965Z</time></trkpt><trkpt lat="38.0605548" lon="13.5238416"><ele>73.5</ele><time>2026-05-01T09:55:35.966Z</time></trkpt><trkpt lat="38.0604945" lon="13.5233933"><ele>76.0</ele><time>2026-05-01T09:55:36.966Z</time></trkpt><trkpt lat="38.0604423" lon="13.5229423"><ele>78.0</ele><time>2026-05-01T09:55:37.966Z</time></trkpt><trkpt lat="38.0603901" lon="13.5224877"><ele>80.0</ele><time>2026-05-01T09:55:38.965Z</time></trkpt><trkpt lat="38.0603368" lon="13.5220412"><ele>81.0</ele><time>2026-05-01T09:55:39.966Z</time></trkpt><trkpt lat="38.0602888" lon="13.5215976"><ele>82.0</ele><time>2026-05-01T09:55:40.965Z</time></trkpt><trkpt lat="38.0602442" lon="13.5211647"><ele>85.0</ele><time>2026-05-01T09:55:41.965Z</time></trkpt><trkpt lat="38.0602134" lon="13.5207393"><ele>88.0</ele><time>2026-05-01T09:55:42.965Z</time></trkpt><trkpt lat="38.0602029" lon="13.520319"><ele>88.0</ele><time>2026-05-01T09:55:43.965Z</time></trkpt><trkpt lat="38.0602152" lon="13.5199125"><ele>88.0</ele><time>2026-05-01T09:55:44.965Z</time></trkpt><trkpt lat="38.0602407" lon="13.519518"><ele>86.0</ele><time>2026-05-01T09:55:45.965Z</time></trkpt><trkpt lat="38.0602806" lon="13.5191267"><ele>84.0</ele><time>2026-05-01T09:55:46.965Z</time></trkpt><trkpt lat="38.0603369" lon="13.5187367"><ele>81.0</ele><time>2026-05-01T09:55:47.966Z</time></trkpt><trkpt lat="38.0604215" lon="13.5183355"><ele>78.0</ele><time>2026-05-01T09:55:48.965Z</time></trkpt><trkpt lat="38.060525" lon="13.5179198"><ele>76.0</ele><time>2026-05-01T09:55:49.966Z</time></trkpt><trkpt lat="38.0606531" lon="13.5175049"><ele>74.0</ele><time>2026-05-01T09:55:50.965Z</time></trkpt><trkpt lat="38.0608104" lon="13.5170969"><ele>78.5</ele><time>2026-05-01T09:55:51.965Z</time></trkpt><trkpt lat="38.060985" lon="13.5166983"><ele>83.0</ele><time>2026-05-01T09:55:52.966Z</time></trkpt><trkpt lat="38.0611787" lon="13.5163092"><ele>88.0</ele><time>2026-05-01T09:55:53.966Z</time></trkpt><trkpt lat="38.061405" lon="13.5159174"><ele>93.0</ele><time>2026-05-01T09:55:54.965Z</time></trkpt><trkpt lat="38.0616582" lon="13.5155241"><ele>99.5</ele><time>2026-05-01T09:55:55.965Z</time></trkpt><trkpt lat="38.0619418" lon="13.5151491"><ele>106.0</ele><time>2026-05-01T09:55:56.966Z</time></trkpt><trkpt lat="38.0622484" lon="13.5147707"><ele>101.0</ele><time>2026-05-01T09:55:57.966Z</time></trkpt><trkpt lat="38.0625669" lon="13.5143949"><ele>96.0</ele><time>2026-05-01T09:55:58.966Z</time></trkpt><trkpt lat="38.0628752" lon="13.5140223"><ele>96.0</ele><time>2026-05-01T09:55:59.965Z</time></trkpt><trkpt lat="38.0631685" lon="13.5136734"><ele>96.0</ele><time>2026-05-01T09:56:00.965Z</time></trkpt><trkpt lat="38.0634576" lon="13.5133324"><ele>98.5</ele><time>2026-05-01T09:56:01.965Z</time></trkpt><trkpt lat="38.0637361" lon="13.5129926"><ele>101.0</ele><time>2026-05-01T09:56:02.965Z</time></trkpt><trkpt lat="38.0640052" lon="13.5126643"><ele>105.0</ele><time>2026-05-01T09:56:03.966Z</time></trkpt><trkpt lat="38.0642699" lon="13.5123455"><ele>109.0</ele><time>2026-05-01T09:56:04.966Z</time></trkpt><trkpt lat="38.0645336" lon="13.5120375"><ele>111.5</ele><time>2026-05-01T09:56:05.965Z</time></trkpt><trkpt lat="38.0648018" lon="13.5117303"><ele>114.0</ele><time>2026-05-01T09:56:06.966Z</time></trkpt><trkpt lat="38.0650724" lon="13.5114238"><ele>116.0</ele><time>2026-05-01T09:56:07.966Z</time></trkpt><trkpt lat="38.0653334" lon="13.5111196"><ele>118.0</ele><time>2026-05-01T09:56:08.966Z</time></trkpt><trkpt lat="38.065587" lon="13.5108156"><ele>118.0</ele><time>2026-05-01T09:56:09.966Z</time></trkpt><trkpt lat="38.0658409" lon="13.5105166"><ele>118.0</ele><time>2026-05-01T09:56:10.965Z</time></trkpt><trkpt lat="38.0660926" lon="13.5102202"><ele>118.0</ele><time>2026-05-01T09:56:11.966Z</time></trkpt><trkpt lat="38.0663364" lon="13.5099204"><ele>118.0</ele><time>2026-05-01T09:56:12.966Z</time></trkpt><trkpt lat="38.0665809" lon="13.5096235"><ele>117.5</ele><time>2026-05-01T09:56:13.965Z</time></trkpt><trkpt lat="38.0668174" lon="13.5093392"><ele>117.0</ele><time>2026-05-01T09:56:14.966Z</time></trkpt><trkpt lat="38.0670469" lon="13.5090644"><ele>117.0</ele><time>2026-05-01T09:56:15.966Z</time></trkpt><trkpt lat="38.0672759" lon="13.5087845"><ele>117.0</ele><time>2026-05-01T09:56:16.965Z</time></trkpt><trkpt lat="38.0675059" lon="13.5085015"><ele>116.0</ele><time>2026-05-01T09:56:17.965Z</time></trkpt><trkpt lat="38.0677368" lon="13.5082184"><ele>115.0</ele><time>2026-05-01T09:56:18.966Z</time></trkpt><trkpt lat="38.0679711" lon="13.5079334"><ele>115.0</ele><time>2026-05-01T09:56:19.966Z</time></trkpt><trkpt lat="38.0682038" lon="13.5076506"><ele>115.0</ele><time>2026-05-01T09:56:20.965Z</time></trkpt><trkpt lat="38.0684411" lon="13.5073659"><ele>115.0</ele><time>2026-05-01T09:56:21.965Z</time></trkpt><trkpt lat="38.0686793" lon="13.5070778"><ele>115.0</ele><time>2026-05-01T09:56:22.966Z</time></trkpt><trkpt lat="38.0689151" lon="13.5067895"><ele>115.0</ele><time>2026-05-01T09:56:23.966Z</time></trkpt><trkpt lat="38.0691418" lon="13.5065087"><ele>115.0</ele><time>2026-05-01T09:56:24.965Z</time></trkpt><trkpt lat="38.0693578" lon="13.5062332"><ele>115.0</ele><time>2026-05-01T09:56:25.966Z</time></trkpt><trkpt lat="38.0695806" lon="13.5059654"><ele>115.0</ele><time>2026-05-01T09:56:26.965Z</time></trkpt><trkpt lat="38.069813" lon="13.5056995"><ele>112.0</ele><time>2026-05-01T09:56:27.965Z</time></trkpt><trkpt lat="38.0700479" lon="13.5054064"><ele>109.0</ele><time>2026-05-01T09:56:28.966Z</time></trkpt><trkpt lat="38.0702846" lon="13.5050985"><ele>109.0</ele><time>2026-05-01T09:56:29.965Z</time></trkpt><trkpt lat="38.0705204" lon="13.5048159"><ele>109.0</ele><time>2026-05-01T09:56:30.966Z</time></trkpt><trkpt lat="38.0707495" lon="13.5045464"><ele>106.5</ele><time>2026-05-01T09:56:31.965Z</time></trkpt><trkpt lat="38.0709677" lon="13.5042846"><ele>104.0</ele><time>2026-05-01T09:56:32.965Z</time></trkpt><trkpt lat="38.0711794" lon="13.5040311"><ele>104.0</ele><time>2026-05-01T09:56:33.966Z</time></trkpt><trkpt lat="38.0713872" lon="13.5037804"><ele>104.0</ele><time>2026-05-01T09:56:34.965Z</time></trkpt><trkpt lat="38.0715966" lon="13.5035229"><ele>103.5</ele><time>2026-05-01T09:56:35.965Z</time></trkpt><trkpt lat="38.0718051" lon="13.5032608"><ele>103.0</ele><time>2026-05-01T09:56:36.965Z</time></trkpt><trkpt lat="38.0720105" lon="13.5030024"><ele>103.0</ele><time>2026-05-01T09:56:37.965Z</time></trkpt><trkpt lat="38.0722123" lon="13.5027418"><ele>103.0</ele><time>2026-05-01T09:56:38.965Z</time></trkpt><trkpt lat="38.0724129" lon="13.5024739"><ele>103.0</ele><time>2026-05-01T09:56:39.966Z</time></trkpt><trkpt lat="38.07261" lon="13.5022005"><ele>103.0</ele><time>2026-05-01T09:56:40.965Z</time></trkpt><trkpt lat="38.0727986" lon="13.5019136"><ele>103.0</ele><time>2026-05-01T09:56:41.965Z</time></trkpt><trkpt lat="38.0729858" lon="13.5016108"><ele>103.0</ele><time>2026-05-01T09:56:42.965Z</time></trkpt><trkpt lat="38.0731717" lon="13.5012985"><ele>100.0</ele><time>2026-05-01T09:56:43.965Z</time></trkpt><trkpt lat="38.0733577" lon="13.5009805"><ele>97.0</ele><time>2026-05-01T09:56:44.965Z</time></trkpt><trkpt lat="38.0735421" lon="13.5006596"><ele>97.5</ele><time>2026-05-01T09:56:45.965Z</time></trkpt><trkpt lat="38.073727" lon="13.500338"><ele>98.0</ele><time>2026-05-01T09:56:46.966Z</time></trkpt><trkpt lat="38.0739143" lon="13.5000206"><ele>98.0</ele><time>2026-05-01T09:56:47.966Z</time></trkpt><trkpt lat="38.0741019" lon="13.4997021"><ele>98.0</ele><time>2026-05-01T09:56:48.966Z</time></trkpt><trkpt lat="38.0742922" lon="13.4993839"><ele>95.0</ele><time>2026-05-01T09:56:49.966Z</time></trkpt><trkpt lat="38.07448" lon="13.4990598"><ele>92.0</ele><time>2026-05-01T09:56:50.966Z</time></trkpt><trkpt lat="38.0746662" lon="13.4987308"><ele>91.5</ele><time>2026-05-01T09:56:51.965Z</time></trkpt><trkpt lat="38.0748556" lon="13.4984097"><ele>91.0</ele><time>2026-05-01T09:56:52.965Z</time></trkpt><trkpt lat="38.0750473" lon="13.4980888"><ele>89.5</ele><time>2026-05-01T09:56:53.966Z</time></trkpt><trkpt lat="38.0752394" lon="13.4977727"><ele>88.0</ele><time>2026-05-01T09:56:54.965Z</time></trkpt><trkpt lat="38.0754313" lon="13.4974513"><ele>88.0</ele><time>2026-05-01T09:56:55.965Z</time></trkpt><trkpt lat="38.0756244" lon="13.4971271"><ele>88.0</ele><time>2026-05-01T09:56:56.965Z</time></trkpt><trkpt lat="38.0758193" lon="13.4968064"><ele>87.0</ele><time>2026-05-01T09:56:57.965Z</time></trkpt><trkpt lat="38.0760093" lon="13.4964801"><ele>86.0</ele><time>2026-05-01T09:56:58.966Z</time></trkpt><trkpt lat="38.0761983" lon="13.496157"><ele>85.0</ele><time>2026-05-01T09:56:59.965Z</time></trkpt><trkpt lat="38.076387" lon="13.4958303"><ele>84.0</ele><time>2026-05-01T09:57:00.965Z</time></trkpt><trkpt lat="38.0765665" lon="13.4954964"><ele>82.0</ele><time>2026-05-01T09:57:01.966Z</time></trkpt><trkpt lat="38.0767346" lon="13.4951542"><ele>80.0</ele><time>2026-05-01T09:57:02.965Z</time></trkpt><trkpt lat="38.0768942" lon="13.4947977"><ele>81.5</ele><time>2026-05-01T09:57:03.965Z</time></trkpt><trkpt lat="38.077041" lon="13.4944316"><ele>83.0</ele><time>2026-05-01T09:57:04.965Z</time></trkpt><trkpt lat="38.0771804" lon="13.4940571"><ele>81.0</ele><time>2026-05-01T09:57:05.965Z</time></trkpt><trkpt lat="38.0773183" lon="13.4936824"><ele>79.0</ele><time>2026-05-01T09:57:06.965Z</time></trkpt><trkpt lat="38.077456" lon="13.4933118"><ele>79.0</ele><time>2026-05-01T09:57:07.965Z</time></trkpt><trkpt lat="38.077593" lon="13.4929378"><ele>79.0</ele><time>2026-05-01T09:57:08.966Z</time></trkpt><trkpt lat="38.0777287" lon="13.4925661"><ele>83.5</ele><time>2026-05-01T09:57:09.965Z</time></trkpt><trkpt lat="38.0778663" lon="13.4921915"><ele>88.0</ele><time>2026-05-01T09:57:10.965Z</time></trkpt><trkpt lat="38.078004" lon="13.4918162"><ele>86.0</ele><time>2026-05-01T09:57:11.966Z</time></trkpt><trkpt lat="38.0781415" lon="13.491445"><ele>84.0</ele><time>2026-05-01T09:57:12.965Z</time></trkpt><trkpt lat="38.0782794" lon="13.4910646"><ele>84.0</ele><time>2026-05-01T09:57:13.966Z</time></trkpt><trkpt lat="38.0784207" lon="13.490683"><ele>84.0</ele><time>2026-05-01T09:57:14.965Z</time></trkpt><trkpt lat="38.0785634" lon="13.4903018"><ele>88.0</ele><time>2026-05-01T09:57:15.966Z</time></trkpt><trkpt lat="38.0787039" lon="13.4899231"><ele>92.0</ele><time>2026-05-01T09:57:16.965Z</time></trkpt><trkpt lat="38.0788442" lon="13.489545"><ele>94.5</ele><time>2026-05-01T09:57:17.966Z</time></trkpt><trkpt lat="38.0789824" lon="13.4891591"><ele>97.0</ele><time>2026-05-01T09:57:18.966Z</time></trkpt><trkpt lat="38.0791151" lon="13.4887681"><ele>86.5</ele><time>2026-05-01T09:57:19.966Z</time></trkpt><trkpt lat="38.0792359" lon="13.488365"><ele>76.0</ele><time>2026-05-01T09:57:20.965Z</time></trkpt><trkpt lat="38.0793378" lon="13.4879521"><ele>74.0</ele><time>2026-05-01T09:57:21.966Z</time></trkpt><trkpt lat="38.0794215" lon="13.4875271"><ele>72.0</ele><time>2026-05-01T09:57:22.965Z</time></trkpt><trkpt lat="38.0794917" lon="13.4870951"><ele>69.5</ele><time>2026-05-01T09:57:23.966Z</time></trkpt><trkpt lat="38.0795541" lon="13.4866637"><ele>67.0</ele><time>2026-05-01T09:57:24.966Z</time></trkpt><trkpt lat="38.0796153" lon="13.4862318"><ele>67.0</ele><time>2026-05-01T09:57:25.965Z</time></trkpt><trkpt lat="38.0796707" lon="13.4858083"><ele>67.0</ele><time>2026-05-01T09:57:26.966Z</time></trkpt><trkpt lat="38.0797248" lon="13.4854055"><ele>67.0</ele><time>2026-05-01T09:57:27.965Z</time></trkpt><trkpt lat="38.0797778" lon="13.4850253"><ele>67.0</ele><time>2026-05-01T09:57:28.965Z</time></trkpt><trkpt lat="38.0798305" lon="13.4846521"><ele>68.0</ele><time>2026-05-01T09:57:29.965Z</time></trkpt><trkpt lat="38.0798831" lon="13.4842771"><ele>69.0</ele><time>2026-05-01T09:57:30.965Z</time></trkpt><trkpt lat="38.0799341" lon="13.4839024"><ele>68.0</ele><time>2026-05-01T09:57:31.966Z</time></trkpt><trkpt lat="38.0799864" lon="13.4835366"><ele>67.0</ele><time>2026-05-01T09:57:32.965Z</time></trkpt><trkpt lat="38.0800399" lon="13.4831661"><ele>68.0</ele><time>2026-05-01T09:57:33.965Z</time></trkpt><trkpt lat="38.0800891" lon="13.4827978"><ele>69.0</ele><time>2026-05-01T09:57:34.966Z</time></trkpt><trkpt lat="38.0801374" lon="13.4824265"><ele>69.0</ele><time>2026-05-01T09:57:35.965Z</time></trkpt><trkpt lat="38.0801838" lon="13.4820538"><ele>69.0</ele><time>2026-05-01T09:57:36.965Z</time></trkpt><trkpt lat="38.0802334" lon="13.4816778"><ele>69.0</ele><time>2026-05-01T09:57:37.966Z</time></trkpt><trkpt lat="38.0802865" lon="13.4812998"><ele>69.0</ele><time>2026-05-01T09:57:38.965Z</time></trkpt><trkpt lat="38.0803407" lon="13.4809224"><ele>69.0</ele><time>2026-05-01T09:57:39.965Z</time></trkpt><trkpt lat="38.0803951" lon="13.4805433"><ele>69.0</ele><time>2026-05-01T09:57:40.965Z</time></trkpt><trkpt lat="38.0804476" lon="13.4801652"><ele>68.0</ele><time>2026-05-01T09:57:41.965Z</time></trkpt><trkpt lat="38.0804994" lon="13.4797934"><ele>67.0</ele><time>2026-05-01T09:57:42.966Z</time></trkpt><trkpt lat="38.0805502" lon="13.4794288"><ele>66.5</ele><time>2026-05-01T09:57:43.965Z</time></trkpt><trkpt lat="38.0805982" lon="13.479062"><ele>66.0</ele><time>2026-05-01T09:57:44.965Z</time></trkpt><trkpt lat="38.0806478" lon="13.4786955"><ele>65.0</ele><time>2026-05-01T09:57:45.966Z</time></trkpt><trkpt lat="38.0807002" lon="13.4783256"><ele>64.0</ele><time>2026-05-01T09:57:46.965Z</time></trkpt><trkpt lat="38.0807484" lon="13.4779524"><ele>58.0</ele><time>2026-05-01T09:57:47.966Z</time></trkpt><trkpt lat="38.0807956" lon="13.4775779"><ele>52.0</ele><time>2026-05-01T09:57:48.966Z</time></trkpt><trkpt lat="38.0808471" lon="13.4772036"><ele>43.0</ele><time>2026-05-01T09:57:49.965Z</time></trkpt><trkpt lat="38.0809018" lon="13.4768282"><ele>34.0</ele><time>2026-05-01T09:57:50.966Z</time></trkpt><trkpt lat="38.0809533" lon="13.476451"><ele>31.5</ele><time>2026-05-01T09:57:51.965Z</time></trkpt><trkpt lat="38.0810041" lon="13.4760762"><ele>29.0</ele><time>2026-05-01T09:57:52.965Z</time></trkpt><trkpt lat="38.0810535" lon="13.4756992"><ele>30.0</ele><time>2026-05-01T09:57:53.966Z</time></trkpt><trkpt lat="38.0811012" lon="13.4753185"><ele>31.0</ele><time>2026-05-01T09:57:54.966Z</time></trkpt><trkpt lat="38.0811515" lon="13.4749421"><ele>38.5</ele><time>2026-05-01T09:57:55.965Z</time></trkpt><trkpt lat="38.0812057" lon="13.4745659"><ele>46.0</ele><time>2026-05-01T09:57:56.965Z</time></trkpt><trkpt lat="38.0812598" lon="13.474193"><ele>46.0</ele><time>2026-05-01T09:57:57.966Z</time></trkpt><trkpt lat="38.0813095" lon="13.4738237"><ele>46.0</ele><time>2026-05-01T09:57:58.966Z</time></trkpt><trkpt lat="38.0813616" lon="13.4734555"><ele>50.5</ele><time>2026-05-01T09:57:59.965Z</time></trkpt><trkpt lat="38.0814125" lon="13.4730828"><ele>55.0</ele><time>2026-05-01T09:58:00.966Z</time></trkpt><trkpt lat="38.0814604" lon="13.4727072"><ele>55.0</ele><time>2026-05-01T09:58:01.965Z</time></trkpt><trkpt lat="38.0815098" lon="13.472332"><ele>55.0</ele><time>2026-05-01T09:58:02.966Z</time></trkpt><trkpt lat="38.0815587" lon="13.4719577"><ele>54.0</ele><time>2026-05-01T09:58:03.965Z</time></trkpt><trkpt lat="38.0816051" lon="13.4715855"><ele>53.0</ele><time>2026-05-01T09:58:04.965Z</time></trkpt><trkpt lat="38.0816505" lon="13.4712195"><ele>53.0</ele><time>2026-05-01T09:58:05.965Z</time></trkpt><trkpt lat="38.0816898" lon="13.4708683"><ele>53.0</ele><time>2026-05-01T09:58:06.966Z</time></trkpt><trkpt lat="38.0817201" lon="13.4705237"><ele>53.0</ele><time>2026-05-01T09:58:07.965Z</time></trkpt><trkpt lat="38.0817438" lon="13.4701866"><ele>53.0</ele><time>2026-05-01T09:58:08.965Z</time></trkpt><trkpt lat="38.0817642" lon="13.4698518"><ele>52.0</ele><time>2026-05-01T09:58:09.965Z</time></trkpt><trkpt lat="38.0817829" lon="13.4695333"><ele>51.0</ele><time>2026-05-01T09:58:10.965Z</time></trkpt><trkpt lat="38.0818025" lon="13.4692246"><ele>51.0</ele><time>2026-05-01T09:58:11.965Z</time></trkpt><trkpt lat="38.0818216" lon="13.4689167"><ele>51.0</ele><time>2026-05-01T09:58:12.965Z</time></trkpt><trkpt lat="38.0818376" lon="13.4686071"><ele>51.0</ele><time>2026-05-01T09:58:13.966Z</time></trkpt><trkpt lat="38.081851" lon="13.4682963"><ele>51.0</ele><time>2026-05-01T09:58:14.965Z</time></trkpt><trkpt lat="38.0818679" lon="13.4679808"><ele>49.5</ele><time>2026-05-01T09:58:15.965Z</time></trkpt><trkpt lat="38.0818859" lon="13.4676525"><ele>48.0</ele><time>2026-05-01T09:58:16.966Z</time></trkpt><trkpt lat="38.0819036" lon="13.4673092"><ele>47.5</ele><time>2026-05-01T09:58:17.966Z</time></trkpt><trkpt lat="38.0819239" lon="13.4669448"><ele>47.0</ele><time>2026-05-01T09:58:18.965Z</time></trkpt><trkpt lat="38.0819495" lon="13.4665665"><ele>46.5</ele><time>2026-05-01T09:58:19.966Z</time></trkpt><trkpt lat="38.0819736" lon="13.4661855"><ele>46.0</ele><time>2026-05-01T09:58:20.965Z</time></trkpt><trkpt lat="38.0819953" lon="13.4658036"><ele>45.5</ele><time>2026-05-01T09:58:21.965Z</time></trkpt><trkpt lat="38.082017" lon="13.4654204"><ele>45.0</ele><time>2026-05-01T09:58:22.966Z</time></trkpt><trkpt lat="38.0820425" lon="13.4650327"><ele>45.0</ele><time>2026-05-01T09:58:23.965Z</time></trkpt><trkpt lat="38.0820656" lon="13.4646486"><ele>45.0</ele><time>2026-05-01T09:58:24.966Z</time></trkpt><trkpt lat="38.0820885" lon="13.4642625"><ele>45.5</ele><time>2026-05-01T09:58:25.965Z</time></trkpt><trkpt lat="38.0821106" lon="13.4638823"><ele>46.0</ele><time>2026-05-01T09:58:26.965Z</time></trkpt><trkpt lat="38.0821333" lon="13.4634973"><ele>46.0</ele><time>2026-05-01T09:58:27.966Z</time></trkpt><trkpt lat="38.0821571" lon="13.4631105"><ele>46.0</ele><time>2026-05-01T09:58:28.965Z</time></trkpt><trkpt lat="38.0821789" lon="13.4627276"><ele>45.5</ele><time>2026-05-01T09:58:29.966Z</time></trkpt><trkpt lat="38.0822025" lon="13.4623444"><ele>45.0</ele><time>2026-05-01T09:58:30.966Z</time></trkpt><trkpt lat="38.0822242" lon="13.4619649"><ele>44.5</ele><time>2026-05-01T09:58:31.965Z</time></trkpt><trkpt lat="38.0822432" lon="13.4615863"><ele>44.0</ele><time>2026-05-01T09:58:32.965Z</time></trkpt><trkpt lat="38.0822663" lon="13.4612105"><ele>44.0</ele><time>2026-05-01T09:58:33.966Z</time></trkpt><trkpt lat="38.0822887" lon="13.4608409"><ele>44.0</ele><time>2026-05-01T09:58:34.965Z</time></trkpt><trkpt lat="38.0823142" lon="13.4604724"><ele>43.0</ele><time>2026-05-01T09:58:35.965Z</time></trkpt><trkpt lat="38.0823379" lon="13.4601069"><ele>42.0</ele><time>2026-05-01T09:58:36.966Z</time></trkpt><trkpt lat="38.0823673" lon="13.4597413"><ele>42.5</ele><time>2026-05-01T09:58:37.965Z</time></trkpt><trkpt lat="38.0824033" lon="13.4593735"><ele>43.0</ele><time>2026-05-01T09:58:38.965Z</time></trkpt><trkpt lat="38.0824461" lon="13.4589952"><ele>41.0</ele><time>2026-05-01T09:58:39.965Z</time></trkpt><trkpt lat="38.0824965" lon="13.4586213"><ele>39.0</ele><time>2026-05-01T09:58:40.965Z</time></trkpt><trkpt lat="38.0825467" lon="13.4582411"><ele>38.5</ele><time>2026-05-01T09:58:41.965Z</time></trkpt><trkpt lat="38.0825927" lon="13.4578656"><ele>38.0</ele><time>2026-05-01T09:58:42.965Z</time></trkpt><trkpt lat="38.0826394" lon="13.4574803"><ele>37.0</ele><time>2026-05-01T09:58:43.965Z</time></trkpt><trkpt lat="38.0826839" lon="13.4570973"><ele>36.0</ele><time>2026-05-01T09:58:44.966Z</time></trkpt><trkpt lat="38.0827247" lon="13.4567124"><ele>36.0</ele><time>2026-05-01T09:58:45.965Z</time></trkpt><trkpt lat="38.0827627" lon="13.4563282"><ele>36.0</ele><time>2026-05-01T09:58:46.965Z</time></trkpt><trkpt lat="38.0828077" lon="13.4559454"><ele>36.0</ele><time>2026-05-01T09:58:47.965Z</time></trkpt><trkpt lat="38.0828553" lon="13.4555618"><ele>36.0</ele><time>2026-05-01T09:58:48.966Z</time></trkpt><trkpt lat="38.0829087" lon="13.455178"><ele>36.5</ele><time>2026-05-01T09:58:49.965Z</time></trkpt><trkpt lat="38.0829586" lon="13.4547914"><ele>37.0</ele><time>2026-05-01T09:58:50.965Z</time></trkpt><trkpt lat="38.0830056" lon="13.4544026"><ele>37.0</ele><time>2026-05-01T09:58:51.966Z</time></trkpt><trkpt lat="38.0830523" lon="13.4540115"><ele>37.0</ele><time>2026-05-01T09:58:52.965Z</time></trkpt><trkpt lat="38.083101" lon="13.4536204"><ele>37.0</ele><time>2026-05-01T09:58:53.973Z</time></trkpt><trkpt lat="38.0831454" lon="13.4532264"><ele>37.0</ele><time>2026-05-01T09:58:54.974Z</time></trkpt><trkpt lat="38.0831911" lon="13.4528346"><ele>36.0</ele><time>2026-05-01T09:58:55.974Z</time></trkpt><trkpt lat="38.0832408" lon="13.4524449"><ele>35.0</ele><time>2026-05-01T09:58:56.974Z</time></trkpt><trkpt lat="38.0832892" lon="13.4520545"><ele>34.5</ele><time>2026-05-01T09:58:57.974Z</time></trkpt><trkpt lat="38.0833351" lon="13.4516641"><ele>34.0</ele><time>2026-05-01T09:58:58.973Z</time></trkpt><trkpt lat="38.0833836" lon="13.4512739"><ele>33.5</ele><time>2026-05-01T09:58:59.974Z</time></trkpt><trkpt lat="38.0834323" lon="13.4508858"><ele>33.0</ele><time>2026-05-01T09:59:00.973Z</time></trkpt><trkpt lat="38.0834774" lon="13.450495"><ele>33.5</ele><time>2026-05-01T09:59:01.974Z</time></trkpt><trkpt lat="38.0835092" lon="13.4501041"><ele>34.0</ele><time>2026-05-01T09:59:02.973Z</time></trkpt><trkpt lat="38.0835264" lon="13.449722"><ele>33.5</ele><time>2026-05-01T09:59:03.974Z</time></trkpt><trkpt lat="38.0835182" lon="13.4493256"><ele>33.0</ele><time>2026-05-01T09:59:04.974Z</time></trkpt><trkpt lat="38.0834973" lon="13.4489352"><ele>33.5</ele><time>2026-05-01T09:59:05.974Z</time></trkpt><trkpt lat="38.0834769" lon="13.4485395"><ele>34.0</ele><time>2026-05-01T09:59:06.973Z</time></trkpt><trkpt lat="38.0834569" lon="13.4481447"><ele>35.0</ele><time>2026-05-01T09:59:07.973Z</time></trkpt><trkpt lat="38.0834259" lon="13.447749"><ele>36.0</ele><time>2026-05-01T09:59:08.974Z</time></trkpt><trkpt lat="38.0833946" lon="13.4473567"><ele>35.5</ele><time>2026-05-01T09:59:09.973Z</time></trkpt><trkpt lat="38.0833694" lon="13.4469684"><ele>35.0</ele><time>2026-05-01T09:59:10.973Z</time></trkpt><trkpt lat="38.0833469" lon="13.4465823"><ele>34.0</ele><time>2026-05-01T09:59:11.974Z</time></trkpt><trkpt lat="38.0833225" lon="13.4461963"><ele>33.0</ele><time>2026-05-01T09:59:12.974Z</time></trkpt><trkpt lat="38.0833017" lon="13.4458104"><ele>33.0</ele><time>2026-05-01T09:59:13.974Z</time></trkpt><trkpt lat="38.0832817" lon="13.4454214"><ele>33.0</ele><time>2026-05-01T09:59:14.974Z</time></trkpt><trkpt lat="38.0832623" lon="13.4450318"><ele>32.5</ele><time>2026-05-01T09:59:15.974Z</time></trkpt><trkpt lat="38.0832463" lon="13.4446454"><ele>32.0</ele><time>2026-05-01T09:59:16.973Z</time></trkpt><trkpt lat="38.0832335" lon="13.4442581"><ele>32.0</ele><time>2026-05-01T09:59:17.973Z</time></trkpt><trkpt lat="38.0832236" lon="13.4438713"><ele>32.0</ele><time>2026-05-01T09:59:18.974Z</time></trkpt><trkpt lat="38.0832138" lon="13.4434872"><ele>32.5</ele><time>2026-05-01T09:59:19.973Z</time></trkpt><trkpt lat="38.0832073" lon="13.4431056"><ele>33.0</ele><time>2026-05-01T09:59:20.973Z</time></trkpt><trkpt lat="38.0832038" lon="13.4427242"><ele>33.0</ele><time>2026-05-01T09:59:21.974Z</time></trkpt><trkpt lat="38.0832038" lon="13.4423461"><ele>33.0</ele><time>2026-05-01T09:59:22.973Z</time></trkpt><trkpt lat="38.0832109" lon="13.4419719"><ele>34.0</ele><time>2026-05-01T09:59:23.973Z</time></trkpt><trkpt lat="38.0832259" lon="13.4416046"><ele>35.0</ele><time>2026-05-01T09:59:24.974Z</time></trkpt><trkpt lat="38.0832319" lon="13.4412595"><ele>35.0</ele><time>2026-05-01T09:59:25.973Z</time></trkpt><trkpt lat="38.0832079" lon="13.440942"><ele>35.0</ele><time>2026-05-01T09:59:26.974Z</time></trkpt><trkpt lat="38.0831421" lon="13.4406351"><ele>35.0</ele><time>2026-05-01T09:59:27.973Z</time></trkpt><trkpt lat="38.0830557" lon="13.440339"><ele>35.0</ele><time>2026-05-01T09:59:28.973Z</time></trkpt><trkpt lat="38.0829612" lon="13.4400653"><ele>35.0</ele><time>2026-05-01T09:59:29.974Z</time></trkpt><trkpt lat="38.0828497" lon="13.4398057"><ele>35.0</ele><time>2026-05-01T09:59:30.974Z</time></trkpt><trkpt lat="38.0827296" lon="13.4395494"><ele>36.5</ele><time>2026-05-01T09:59:31.974Z</time></trkpt><trkpt lat="38.0826057" lon="13.4392868"><ele>38.0</ele><time>2026-05-01T09:59:32.974Z</time></trkpt><trkpt lat="38.0824801" lon="13.4390209"><ele>38.5</ele><time>2026-05-01T09:59:33.973Z</time></trkpt><trkpt lat="38.0823822" lon="13.4387199"><ele>39.0</ele><time>2026-05-01T09:59:34.973Z</time></trkpt><trkpt lat="38.0823092" lon="13.4383889"><ele>39.0</ele><time>2026-05-01T09:59:35.974Z</time></trkpt><trkpt lat="38.0822377" lon="13.438052"><ele>39.0</ele><time>2026-05-01T09:59:36.973Z</time></trkpt><trkpt lat="38.0821688" lon="13.4377082"><ele>39.5</ele><time>2026-05-01T09:59:37.974Z</time></trkpt><trkpt lat="38.0820892" lon="13.4373486"><ele>40.0</ele><time>2026-05-01T09:59:38.974Z</time></trkpt><trkpt lat="38.0820025" lon="13.436991"><ele>40.0</ele><time>2026-05-01T09:59:39.974Z</time></trkpt><trkpt lat="38.0819254" lon="13.4366526"><ele>40.0</ele><time>2026-05-01T09:59:40.974Z</time></trkpt><trkpt lat="38.0818574" lon="13.4363376"><ele>40.333333333333336</ele><time>2026-05-01T09:59:41.974Z</time></trkpt><trkpt lat="38.0818057" lon="13.4360538"><ele>40.666666666666664</ele><time>2026-05-01T09:59:42.974Z</time></trkpt><trkpt lat="38.0817641" lon="13.4358273"><ele>41.0</ele><time>2026-05-01T09:59:43.974Z</time></trkpt><trkpt lat="38.0817392" lon="13.4356412"><ele>41.0</ele><time>2026-05-01T09:59:44.974Z</time></trkpt><trkpt lat="38.0817284" lon="13.4354956"><ele>41.0</ele><time>2026-05-01T09:59:45.973Z</time></trkpt><trkpt lat="38.0817327" lon="13.4353754"><ele>41.0</ele><time>2026-05-01T09:59:46.973Z</time></trkpt><trkpt lat="38.0817605" lon="13.4352666"><ele>41.0</ele><time>2026-05-01T09:59:47.974Z</time></trkpt><trkpt lat="38.0817917" lon="13.4351319"><ele>41.0</ele><time>2026-05-01T09:59:48.974Z</time></trkpt><trkpt lat="38.0818327" lon="13.4349824"><ele>41.599999999999994</ele><time>2026-05-01T09:59:49.974Z</time></trkpt><trkpt lat="38.0818777" lon="13.4348523"><ele>42.2</ele><time>2026-05-01T09:59:50.973Z</time></trkpt><trkpt lat="38.0819291" lon="13.4347469"><ele>42.8</ele><time>2026-05-01T09:59:51.974Z</time></trkpt><trkpt lat="38.0819963" lon="13.4346673"><ele>43.400000000000006</ele><time>2026-05-01T09:59:52.973Z</time></trkpt><trkpt lat="38.08207" lon="13.4346077"><ele>44.0</ele><time>2026-05-01T09:59:53.974Z</time></trkpt><trkpt lat="38.0821399" lon="13.4345598"><ele>44.33333333333333</ele><time>2026-05-01T09:59:54.974Z</time></trkpt><trkpt lat="38.0822091" lon="13.4345162"><ele>44.666666666666664</ele><time>2026-05-01T09:59:55.973Z</time></trkpt><trkpt lat="38.0822781" lon="13.4344817"><ele>45.0</ele><time>2026-05-01T09:59:56.974Z</time></trkpt><trkpt lat="38.0823504" lon="13.4344265"><ele>45.333333333333336</ele><time>2026-05-01T09:59:57.973Z</time></trkpt><trkpt lat="38.0824406" lon="13.4343727"><ele>45.66666666666667</ele><time>2026-05-01T09:59:58.973Z</time></trkpt><trkpt lat="38.0825379" lon="13.4343203"><ele>46.0</ele><time>2026-05-01T09:59:59.973Z</time></trkpt><trkpt lat="38.0826445" lon="13.434269"><ele>45.0</ele><time>2026-05-01T10:00:00.974Z</time></trkpt><trkpt lat="38.082758" lon="13.4342181"><ele>44.0</ele><time>2026-05-01T10:00:01.973Z</time></trkpt><trkpt lat="38.0828772" lon="13.4341689"><ele>43.0</ele><time>2026-05-01T10:00:02.974Z</time></trkpt><trkpt lat="38.0830011" lon="13.4341251"><ele>42.0</ele><time>2026-05-01T10:00:03.974Z</time></trkpt><trkpt lat="38.0831244" lon="13.4340785"><ele>42.0</ele><time>2026-05-01T10:00:04.974Z</time></trkpt><trkpt lat="38.0832495" lon="13.434034"><ele>42.0</ele><time>2026-05-01T10:00:05.973Z</time></trkpt><trkpt lat="38.0833754" lon="13.4339869"><ele>42.0</ele><time>2026-05-01T10:00:06.973Z</time></trkpt><trkpt lat="38.0835047" lon="13.4339435"><ele>42.0</ele><time>2026-05-01T10:00:07.973Z</time></trkpt><trkpt lat="38.0836347" lon="13.4339069"><ele>42.25</ele><time>2026-05-01T10:00:08.973Z</time></trkpt><trkpt lat="38.0837668" lon="13.4338783"><ele>42.5</ele><time>2026-05-01T10:00:09.974Z</time></trkpt><trkpt lat="38.0838971" lon="13.4338526"><ele>42.75</ele><time>2026-05-01T10:00:10.973Z</time></trkpt><trkpt lat="38.0840242" lon="13.4338224"><ele>43.0</ele><time>2026-05-01T10:00:11.973Z</time></trkpt><trkpt lat="38.084154" lon="13.4337853"><ele>42.5</ele><time>2026-05-01T10:00:12.974Z</time></trkpt><trkpt lat="38.0842919" lon="13.4337513"><ele>42.0</ele><time>2026-05-01T10:00:13.974Z</time></trkpt><trkpt lat="38.0844399" lon="13.4337216"><ele>41.5</ele><time>2026-05-01T10:00:14.973Z</time></trkpt><trkpt lat="38.0845897" lon="13.4336972"><ele>41.0</ele><time>2026-05-01T10:00:15.974Z</time></trkpt><trkpt lat="38.0847309" lon="13.43367"><ele>41.0</ele><time>2026-05-01T10:00:16.973Z</time></trkpt><trkpt lat="38.0848578" lon="13.4336443"><ele>41.0</ele><time>2026-05-01T10:00:17.973Z</time></trkpt><trkpt lat="38.0849887" lon="13.433618"><ele>41.0</ele><time>2026-05-01T10:00:18.973Z</time></trkpt><trkpt lat="38.0851272" lon="13.4335861"><ele>41.0</ele><time>2026-05-01T10:00:19.974Z</time></trkpt><trkpt lat="38.085257" lon="13.4335637"><ele>41.0</ele><time>2026-05-01T10:00:20.973Z</time></trkpt><trkpt lat="38.0853833" lon="13.4335268"><ele>41.0</ele><time>2026-05-01T10:00:21.974Z</time></trkpt><trkpt lat="38.0855069" lon="13.4334969"><ele>41.0</ele><time>2026-05-01T10:00:22.973Z</time></trkpt><trkpt lat="38.0856247" lon="13.4334658"><ele>41.0</ele><time>2026-05-01T10:00:23.973Z</time></trkpt><trkpt lat="38.0857317" lon="13.4334436"><ele>40.599999999999994</ele><time>2026-05-01T10:00:24.973Z</time></trkpt><trkpt lat="38.0858348" lon="13.4334209"><ele>40.199999999999996</ele><time>2026-05-01T10:00:25.974Z</time></trkpt><trkpt lat="38.0859381" lon="13.4333945"><ele>39.8</ele><time>2026-05-01T10:00:26.973Z</time></trkpt><trkpt lat="38.0860445" lon="13.4333683"><ele>39.4</ele><time>2026-05-01T10:00:27.973Z</time></trkpt><trkpt lat="38.0861447" lon="13.4333451"><ele>39.0</ele><time>2026-05-01T10:00:28.974Z</time></trkpt><trkpt lat="38.0862444" lon="13.4333201"><ele>39.0</ele><time>2026-05-01T10:00:29.974Z</time></trkpt><trkpt lat="38.0863561" lon="13.4332896"><ele>39.0</ele><time>2026-05-01T10:00:30.974Z</time></trkpt><trkpt lat="38.086475" lon="13.4332627"><ele>39.0</ele><time>2026-05-01T10:00:31.973Z</time></trkpt><trkpt lat="38.0865942" lon="13.4332445"><ele>39.0</ele><time>2026-05-01T10:00:32.974Z</time></trkpt><trkpt lat="38.0867181" lon="13.4332264"><ele>38.5</ele><time>2026-05-01T10:00:33.973Z</time></trkpt><trkpt lat="38.0868436" lon="13.4331998"><ele>38.0</ele><time>2026-05-01T10:00:34.973Z</time></trkpt><trkpt lat="38.0869739" lon="13.4331703"><ele>37.5</ele><time>2026-05-01T10:00:35.974Z</time></trkpt><trkpt lat="38.0871024" lon="13.4331371"><ele>37.0</ele><time>2026-05-01T10:00:36.974Z</time></trkpt><trkpt lat="38.0872293" lon="13.4331171"><ele>37.0</ele><time>2026-05-01T10:00:37.974Z</time></trkpt><trkpt lat="38.0873504" lon="13.4330973"><ele>37.0</ele><time>2026-05-01T10:00:38.974Z</time></trkpt><trkpt lat="38.0874668" lon="13.4330688"><ele>37.0</ele><time>2026-05-01T10:00:39.973Z</time></trkpt><trkpt lat="38.0875858" lon="13.4330413"><ele>37.0</ele><time>2026-05-01T10:00:40.973Z</time></trkpt><trkpt lat="38.0877043" lon="13.4330109"><ele>36.800000000000004</ele><time>2026-05-01T10:00:41.973Z</time></trkpt><trkpt lat="38.0878151" lon="13.4329913"><ele>36.6</ele><time>2026-05-01T10:00:42.973Z</time></trkpt><trkpt lat="38.0879179" lon="13.4329743"><ele>36.400000000000006</ele><time>2026-05-01T10:00:43.974Z</time></trkpt><trkpt lat="38.0880137" lon="13.4329542"><ele>36.2</ele><time>2026-05-01T10:00:44.973Z</time></trkpt><trkpt lat="38.0881091" lon="13.4329286"><ele>36.0</ele><time>2026-05-01T10:00:45.973Z</time></trkpt><trkpt lat="38.0882033" lon="13.4329072"><ele>36.0</ele><time>2026-05-01T10:00:46.974Z</time></trkpt><trkpt lat="38.0883023" lon="13.4328827"><ele>36.0</ele><time>2026-05-01T10:00:47.974Z</time></trkpt><trkpt lat="38.0884024" lon="13.4328594"><ele>36.0</ele><time>2026-05-01T10:00:48.973Z</time></trkpt><trkpt lat="38.0885099" lon="13.4328358"><ele>36.0</ele><time>2026-05-01T10:00:49.974Z</time></trkpt><trkpt lat="38.0886187" lon="13.4328092"><ele>36.0</ele><time>2026-05-01T10:00:50.973Z</time></trkpt><trkpt lat="38.0887265" lon="13.4327788"><ele>36.0</ele><time>2026-05-01T10:00:51.974Z</time></trkpt><trkpt lat="38.0888275" lon="13.4327555"><ele>36.0</ele><time>2026-05-01T10:00:52.973Z</time></trkpt><trkpt lat="38.0889301" lon="13.4327358"><ele>36.0</ele><time>2026-05-01T10:00:53.974Z</time></trkpt><trkpt lat="38.089038" lon="13.4327125"><ele>36.0</ele><time>2026-05-01T10:00:54.973Z</time></trkpt><trkpt lat="38.0891487" lon="13.4326882"><ele>36.0</ele><time>2026-05-01T10:00:55.973Z</time></trkpt><trkpt lat="38.089262" lon="13.4326617"><ele>35.2</ele><time>2026-05-01T10:00:56.973Z</time></trkpt><trkpt lat="38.0893719" lon="13.4326391"><ele>34.400000000000006</ele><time>2026-05-01T10:00:57.974Z</time></trkpt><trkpt lat="38.0894729" lon="13.4326139"><ele>33.6</ele><time>2026-05-01T10:00:58.973Z</time></trkpt><trkpt lat="38.0895703" lon="13.4325906"><ele>32.800000000000004</ele><time>2026-05-01T10:00:59.973Z</time></trkpt><trkpt lat="38.0896724" lon="13.4325728"><ele>32.0</ele><time>2026-05-01T10:01:00.973Z</time></trkpt><trkpt lat="38.0897781" lon="13.4325557"><ele>32.0</ele><time>2026-05-01T10:01:01.974Z</time></trkpt><trkpt lat="38.089884" lon="13.4325363"><ele>32.0</ele><time>2026-05-01T10:01:02.973Z</time></trkpt><trkpt lat="38.0899837" lon="13.4325197"><ele>32.0</ele><time>2026-05-01T10:01:03.973Z</time></trkpt><trkpt lat="38.0900733" lon="13.4325087"><ele>32.0</ele><time>2026-05-01T10:01:04.973Z</time></trkpt><trkpt lat="38.090156" lon="13.4324949"><ele>32.0</ele><time>2026-05-01T10:01:05.973Z</time></trkpt><trkpt lat="38.0902327" lon="13.4324711"><ele>31.75</ele><time>2026-05-01T10:01:06.973Z</time></trkpt><trkpt lat="38.0903192" lon="13.4324313"><ele>31.5</ele><time>2026-05-01T10:01:07.974Z</time></trkpt><trkpt lat="38.090421" lon="13.4323769"><ele>31.25</ele><time>2026-05-01T10:01:08.974Z</time></trkpt><trkpt lat="38.0905398" lon="13.4323064"><ele>31.0</ele><time>2026-05-01T10:01:09.973Z</time></trkpt><trkpt lat="38.0906799" lon="13.4322352"><ele>31.333333333333336</ele><time>2026-05-01T10:01:10.974Z</time></trkpt><trkpt lat="38.0908311" lon="13.4321651"><ele>31.666666666666664</ele><time>2026-05-01T10:01:11.973Z</time></trkpt><trkpt lat="38.0909794" lon="13.4320918"><ele>32.0</ele><time>2026-05-01T10:01:12.974Z</time></trkpt><trkpt lat="38.0911197" lon="13.4320118"><ele>32.0</ele><time>2026-05-01T10:01:13.974Z</time></trkpt><trkpt lat="38.0912609" lon="13.4319231"><ele>32.0</ele><time>2026-05-01T10:01:14.973Z</time></trkpt><trkpt lat="38.0914029" lon="13.4318345"><ele>32.0</ele><time>2026-05-01T10:01:15.973Z</time></trkpt><trkpt lat="38.091535" lon="13.4317466"><ele>30.5</ele><time>2026-05-01T10:01:16.973Z</time></trkpt><trkpt lat="38.0916562" lon="13.4316647"><ele>29.0</ele><time>2026-05-01T10:01:17.973Z</time></trkpt><trkpt lat="38.091767" lon="13.4315859"><ele>27.5</ele><time>2026-05-01T10:01:18.973Z</time></trkpt><trkpt lat="38.091865" lon="13.4314986"><ele>26.0</ele><time>2026-05-01T10:01:19.973Z</time></trkpt><trkpt lat="38.0919645" lon="13.4314114"><ele>26.0</ele><time>2026-05-01T10:01:20.973Z</time></trkpt><trkpt lat="38.0920698" lon="13.4313248"><ele>26.0</ele><time>2026-05-01T10:01:21.974Z</time></trkpt><trkpt lat="38.0921743" lon="13.431241"><ele>26.0</ele><time>2026-05-01T10:01:22.973Z</time></trkpt><trkpt lat="38.0922652" lon="13.4311647"><ele>26.0</ele><time>2026-05-01T10:01:23.973Z</time></trkpt><trkpt lat="38.092344" lon="13.4311016"><ele>26.333333333333332</ele><time>2026-05-01T10:01:24.973Z</time></trkpt><trkpt lat="38.0924168" lon="13.4310416"><ele>26.666666666666664</ele><time>2026-05-01T10:01:25.973Z</time></trkpt><trkpt lat="38.0924836" lon="13.4309945"><ele>27.0</ele><time>2026-05-01T10:01:26.974Z</time></trkpt><trkpt lat="38.0925425" lon="13.4309596"><ele>27.333333333333336</ele><time>2026-05-01T10:01:27.973Z</time></trkpt><trkpt lat="38.0926496" lon="13.4308974"><ele>27.666666666666668</ele><time>2026-05-01T10:01:29.974Z</time></trkpt><trkpt lat="38.0927062" lon="13.4308593"><ele>28.0</ele><time>2026-05-01T10:01:30.974Z</time></trkpt><trkpt lat="38.0927706" lon="13.4308202"><ele>27.333333333333336</ele><time>2026-05-01T10:01:31.974Z</time></trkpt><trkpt lat="38.092839" lon="13.4307772"><ele>26.666666666666668</ele><time>2026-05-01T10:01:32.973Z</time></trkpt><trkpt lat="38.0929162" lon="13.4307346"><ele>26.0</ele><time>2026-05-01T10:01:33.973Z</time></trkpt><trkpt lat="38.0930034" lon="13.4306866"><ele>25.333333333333336</ele><time>2026-05-01T10:01:34.974Z</time></trkpt><trkpt lat="38.0930934" lon="13.4306392"><ele>24.666666666666668</ele><time>2026-05-01T10:01:35.973Z</time></trkpt><trkpt lat="38.0931786" lon="13.430595"><ele>24.0</ele><time>2026-05-01T10:01:36.973Z</time></trkpt><trkpt lat="38.0932521" lon="13.4305634"><ele>23.5</ele><time>2026-05-01T10:01:37.974Z</time></trkpt><trkpt lat="38.0933222" lon="13.4305302"><ele>23.0</ele><time>2026-05-01T10:01:38.974Z</time></trkpt><trkpt lat="38.0933942" lon="13.4304927"><ele>22.5</ele><time>2026-05-01T10:01:39.973Z</time></trkpt><trkpt lat="38.0934723" lon="13.4304541"><ele>22.0</ele><time>2026-05-01T10:01:40.973Z</time></trkpt><trkpt lat="38.0935544" lon="13.4304172"><ele>21.5</ele><time>2026-05-01T10:01:41.974Z</time></trkpt><trkpt lat="38.0936365" lon="13.430378"><ele>21.0</ele><time>2026-05-01T10:01:42.973Z</time></trkpt><trkpt lat="38.0937167" lon="13.430334"><ele>21.0</ele><time>2026-05-01T10:01:43.973Z</time></trkpt><trkpt lat="38.0937984" lon="13.4302912"><ele>21.0</ele><time>2026-05-01T10:01:44.973Z</time></trkpt><trkpt lat="38.0938746" lon="13.4302524"><ele>21.0</ele><time>2026-05-01T10:01:45.974Z</time></trkpt><trkpt lat="38.0939476" lon="13.4302139"><ele>21.0</ele><time>2026-05-01T10:01:46.974Z</time></trkpt><trkpt lat="38.0940198" lon="13.4301778"><ele>21.0</ele><time>2026-05-01T10:01:47.973Z</time></trkpt><trkpt lat="38.0941046" lon="13.4301378"><ele>21.0</ele><time>2026-05-01T10:01:48.973Z</time></trkpt><trkpt lat="38.0941999" lon="13.4300957"><ele>21.0</ele><time>2026-05-01T10:01:49.974Z</time></trkpt><trkpt lat="38.0942853" lon="13.4300656"><ele>21.0</ele><time>2026-05-01T10:01:50.974Z</time></trkpt><trkpt lat="38.0943752" lon="13.4300185"><ele>21.0</ele><time>2026-05-01T10:01:52.973Z</time></trkpt><trkpt lat="38.0943838" lon="13.4299337"><ele>21.0</ele><time>2026-05-01T10:01:56.974Z</time></trkpt></trkseg></trk></gpx>